<?xml version="1.0" encoding="UTF-8"?>
<gpx version="1.1" creator="https://www.youtrack.es" xsi:schemaLocation="http://www.topografix.com/GPX/1/1 http://www.topografix.com/GPX/1/1/gpx.xsd http://www.garmin.com/xmlschemas/GpxExtensions/v3 http://www.garmin.com/xmlschemas/GpxExtensionsv3.xsd http://www.garmin.com/xmlschemas/TrackPointExtension/v1 http://www.garmin.com/xmlschemas/TrackPointExtensionv1.xsd" xmlns:gpxtpx="http://www.garmin.com/xmlschemas/TrackPointExtension/v1" xmlns:gpxx="http://www.garmin.com/xmlschemas/GpxExtensions/v3" xmlns:xsi="http://www.w3.org/2001/XMLSchema-instance">
  <metadata>
    <link href="https://www.youtrack.es">
      <text>YouTrack.es</text>
    </link>
    <time>2026-05-08T10:51:45Z</time>
  </metadata>
  <trk>
    <src>https://www.youtrack.es</src>
    <link href="https://www.youtrack.es/ruta/11110-sierra-alhamilla">
      <text>YouTrack.es</text>
    </link>
    <trkseg>
      <trkpt lat="36.9183730" lon="-2.4422780">
        <ele>109.1</ele>
        <time>2020-02-16T07:02:16Z</time>
      </trkpt>
      <trkpt lat="36.9183850" lon="-2.4422650">
        <ele>109.2</ele>
        <time>2020-02-16T07:02:17Z</time>
      </trkpt>
      <trkpt lat="36.9183970" lon="-2.4422450">
        <ele>109.2</ele>
        <time>2020-02-16T07:02:18Z</time>
      </trkpt>
      <trkpt lat="36.9184070" lon="-2.4422270">
        <ele>109.3</ele>
        <time>2020-02-16T07:02:19Z</time>
      </trkpt>
      <trkpt lat="36.9184150" lon="-2.4422080">
        <ele>109.3</ele>
        <time>2020-02-16T07:02:20Z</time>
      </trkpt>
      <trkpt lat="36.9184270" lon="-2.4421870">
        <ele>109.3</ele>
        <time>2020-02-16T07:02:21Z</time>
      </trkpt>
      <trkpt lat="36.9184370" lon="-2.4421680">
        <ele>109.5</ele>
        <time>2020-02-16T07:02:22Z</time>
      </trkpt>
      <trkpt lat="36.9184500" lon="-2.4421430">
        <ele>109.5</ele>
        <time>2020-02-16T07:02:23Z</time>
      </trkpt>
      <trkpt lat="36.9184600" lon="-2.4421180">
        <ele>109.5</ele>
        <time>2020-02-16T07:02:24Z</time>
      </trkpt>
      <trkpt lat="36.9184700" lon="-2.4420950">
        <ele>109.7</ele>
        <time>2020-02-16T07:02:25Z</time>
      </trkpt>
      <trkpt lat="36.9184770" lon="-2.4420750">
        <ele>109.7</ele>
        <time>2020-02-16T07:02:26Z</time>
      </trkpt>
      <trkpt lat="36.9184930" lon="-2.4420450">
        <ele>109.7</ele>
        <time>2020-02-16T07:02:27Z</time>
      </trkpt>
      <trkpt lat="36.9185030" lon="-2.4420180">
        <ele>109.7</ele>
        <time>2020-02-16T07:02:28Z</time>
      </trkpt>
      <trkpt lat="36.9185170" lon="-2.4419900">
        <ele>109.8</ele>
        <time>2020-02-16T07:02:29Z</time>
      </trkpt>
      <trkpt lat="36.9185270" lon="-2.4419630">
        <ele>109.9</ele>
        <time>2020-02-16T07:02:30Z</time>
      </trkpt>
      <trkpt lat="36.9185400" lon="-2.4419420">
        <ele>110.0</ele>
        <time>2020-02-16T07:02:31Z</time>
      </trkpt>
      <trkpt lat="36.9185480" lon="-2.4419220">
        <ele>110.0</ele>
        <time>2020-02-16T07:02:32Z</time>
      </trkpt>
      <trkpt lat="36.9185620" lon="-2.4418930">
        <ele>110.0</ele>
        <time>2020-02-16T07:02:33Z</time>
      </trkpt>
      <trkpt lat="36.9185720" lon="-2.4418680">
        <ele>110.0</ele>
        <time>2020-02-16T07:02:34Z</time>
      </trkpt>
      <trkpt lat="36.9185820" lon="-2.4418470">
        <ele>110.1</ele>
        <time>2020-02-16T07:02:35Z</time>
      </trkpt>
      <trkpt lat="36.9185920" lon="-2.4418200">
        <ele>110.1</ele>
        <time>2020-02-16T07:02:36Z</time>
      </trkpt>
      <trkpt lat="36.9186070" lon="-2.4417870">
        <ele>110.1</ele>
        <time>2020-02-16T07:02:37Z</time>
      </trkpt>
      <trkpt lat="36.9186270" lon="-2.4417620">
        <ele>110.2</ele>
        <time>2020-02-16T07:02:38Z</time>
      </trkpt>
      <trkpt lat="36.9186380" lon="-2.4417350">
        <ele>110.2</ele>
        <time>2020-02-16T07:02:39Z</time>
      </trkpt>
      <trkpt lat="36.9186450" lon="-2.4417150">
        <ele>110.3</ele>
        <time>2020-02-16T07:02:40Z</time>
      </trkpt>
      <trkpt lat="36.9186580" lon="-2.4416830">
        <ele>110.3</ele>
        <time>2020-02-16T07:02:41Z</time>
      </trkpt>
      <trkpt lat="36.9186680" lon="-2.4416600">
        <ele>110.4</ele>
        <time>2020-02-16T07:02:42Z</time>
      </trkpt>
      <trkpt lat="36.9186700" lon="-2.4416330">
        <ele>110.4</ele>
        <time>2020-02-16T07:02:43Z</time>
      </trkpt>
      <trkpt lat="36.9186800" lon="-2.4416070">
        <ele>110.5</ele>
        <time>2020-02-16T07:02:44Z</time>
      </trkpt>
      <trkpt lat="36.9186880" lon="-2.4415880">
        <ele>110.5</ele>
        <time>2020-02-16T07:02:45Z</time>
      </trkpt>
      <trkpt lat="36.9187000" lon="-2.4415630">
        <ele>110.5</ele>
        <time>2020-02-16T07:02:46Z</time>
      </trkpt>
      <trkpt lat="36.9187130" lon="-2.4415320">
        <ele>110.6</ele>
        <time>2020-02-16T07:02:47Z</time>
      </trkpt>
      <trkpt lat="36.9187250" lon="-2.4415050">
        <ele>110.6</ele>
        <time>2020-02-16T07:02:48Z</time>
      </trkpt>
      <trkpt lat="36.9187370" lon="-2.4414780">
        <ele>110.7</ele>
        <time>2020-02-16T07:02:49Z</time>
      </trkpt>
      <trkpt lat="36.9187470" lon="-2.4414580">
        <ele>110.7</ele>
        <time>2020-02-16T07:02:50Z</time>
      </trkpt>
      <trkpt lat="36.9187580" lon="-2.4414300">
        <ele>110.8</ele>
        <time>2020-02-16T07:02:51Z</time>
      </trkpt>
      <trkpt lat="36.9187670" lon="-2.4414000">
        <ele>110.8</ele>
        <time>2020-02-16T07:02:52Z</time>
      </trkpt>
      <trkpt lat="36.9187740" lon="-2.4413720">
        <ele>110.8</ele>
        <time>2020-02-16T07:02:53Z</time>
      </trkpt>
      <trkpt lat="36.9187790" lon="-2.4413420">
        <ele>110.9</ele>
        <time>2020-02-16T07:02:54Z</time>
      </trkpt>
      <trkpt lat="36.9187850" lon="-2.4413150">
        <ele>111.0</ele>
        <time>2020-02-16T07:02:55Z</time>
      </trkpt>
      <trkpt lat="36.9187920" lon="-2.4412930">
        <ele>111.0</ele>
        <time>2020-02-16T07:02:56Z</time>
      </trkpt>
      <trkpt lat="36.9187980" lon="-2.4412630">
        <ele>111.0</ele>
        <time>2020-02-16T07:02:57Z</time>
      </trkpt>
      <trkpt lat="36.9188050" lon="-2.4412370">
        <ele>111.1</ele>
        <time>2020-02-16T07:02:58Z</time>
      </trkpt>
      <trkpt lat="36.9188110" lon="-2.4412100">
        <ele>111.1</ele>
        <time>2020-02-16T07:02:59Z</time>
      </trkpt>
      <trkpt lat="36.9188140" lon="-2.4411880">
        <ele>111.2</ele>
        <time>2020-02-16T07:03:00Z</time>
      </trkpt>
      <trkpt lat="36.9188190" lon="-2.4411600">
        <ele>111.2</ele>
        <time>2020-02-16T07:03:01Z</time>
      </trkpt>
      <trkpt lat="36.9188250" lon="-2.4411270">
        <ele>111.3</ele>
        <time>2020-02-16T07:03:02Z</time>
      </trkpt>
      <trkpt lat="36.9188290" lon="-2.4411020">
        <ele>111.3</ele>
        <time>2020-02-16T07:03:03Z</time>
      </trkpt>
      <trkpt lat="36.9188340" lon="-2.4410750">
        <ele>111.3</ele>
        <time>2020-02-16T07:03:04Z</time>
      </trkpt>
      <trkpt lat="36.9188410" lon="-2.4410470">
        <ele>111.4</ele>
        <time>2020-02-16T07:03:05Z</time>
      </trkpt>
      <trkpt lat="36.9188470" lon="-2.4410270">
        <ele>111.4</ele>
        <time>2020-02-16T07:03:06Z</time>
      </trkpt>
      <trkpt lat="36.9188750" lon="-2.4409950">
        <ele>111.5</ele>
        <time>2020-02-16T07:03:07Z</time>
      </trkpt>
      <trkpt lat="36.9188950" lon="-2.4409740">
        <ele>111.5</ele>
        <time>2020-02-16T07:03:08Z</time>
      </trkpt>
      <trkpt lat="36.9189130" lon="-2.4409540">
        <ele>111.5</ele>
        <time>2020-02-16T07:03:09Z</time>
      </trkpt>
      <trkpt lat="36.9189260" lon="-2.4409370">
        <ele>111.6</ele>
        <time>2020-02-16T07:03:10Z</time>
      </trkpt>
      <trkpt lat="36.9189460" lon="-2.4409120">
        <ele>111.6</ele>
        <time>2020-02-16T07:03:11Z</time>
      </trkpt>
      <trkpt lat="36.9189510" lon="-2.4408890">
        <ele>111.7</ele>
        <time>2020-02-16T07:03:12Z</time>
      </trkpt>
      <trkpt lat="36.9189590" lon="-2.4408690">
        <ele>111.7</ele>
        <time>2020-02-16T07:03:13Z</time>
      </trkpt>
      <trkpt lat="36.9189670" lon="-2.4408520">
        <ele>111.8</ele>
        <time>2020-02-16T07:03:14Z</time>
      </trkpt>
      <trkpt lat="36.9189790" lon="-2.4408300">
        <ele>111.8</ele>
        <time>2020-02-16T07:03:15Z</time>
      </trkpt>
      <trkpt lat="36.9189920" lon="-2.4408050">
        <ele>111.9</ele>
        <time>2020-02-16T07:03:16Z</time>
      </trkpt>
      <trkpt lat="36.9190040" lon="-2.4407870">
        <ele>111.9</ele>
        <time>2020-02-16T07:03:17Z</time>
      </trkpt>
      <trkpt lat="36.9190170" lon="-2.4407640">
        <ele>112.0</ele>
        <time>2020-02-16T07:03:18Z</time>
      </trkpt>
      <trkpt lat="36.9190270" lon="-2.4407440">
        <ele>112.0</ele>
        <time>2020-02-16T07:03:19Z</time>
      </trkpt>
      <trkpt lat="36.9190390" lon="-2.4407190">
        <ele>112.0</ele>
        <time>2020-02-16T07:03:20Z</time>
      </trkpt>
      <trkpt lat="36.9190520" lon="-2.4406890">
        <ele>112.0</ele>
        <time>2020-02-16T07:03:21Z</time>
      </trkpt>
      <trkpt lat="36.9190620" lon="-2.4406600">
        <ele>112.1</ele>
        <time>2020-02-16T07:03:22Z</time>
      </trkpt>
      <trkpt lat="36.9190730" lon="-2.4406350">
        <ele>112.2</ele>
        <time>2020-02-16T07:03:23Z</time>
      </trkpt>
      <trkpt lat="36.9190800" lon="-2.4406170">
        <ele>112.2</ele>
        <time>2020-02-16T07:03:24Z</time>
      </trkpt>
      <trkpt lat="36.9190900" lon="-2.4405890">
        <ele>112.3</ele>
        <time>2020-02-16T07:03:25Z</time>
      </trkpt>
      <trkpt lat="36.9191010" lon="-2.4405620">
        <ele>112.3</ele>
        <time>2020-02-16T07:03:26Z</time>
      </trkpt>
      <trkpt lat="36.9191090" lon="-2.4405350">
        <ele>112.4</ele>
        <time>2020-02-16T07:03:27Z</time>
      </trkpt>
      <trkpt lat="36.9191170" lon="-2.4405120">
        <ele>112.4</ele>
        <time>2020-02-16T07:03:28Z</time>
      </trkpt>
      <trkpt lat="36.9191240" lon="-2.4404900">
        <ele>112.5</ele>
        <time>2020-02-16T07:03:29Z</time>
      </trkpt>
      <trkpt lat="36.9191330" lon="-2.4404650">
        <ele>112.5</ele>
        <time>2020-02-16T07:03:30Z</time>
      </trkpt>
      <trkpt lat="36.9191400" lon="-2.4404420">
        <ele>112.5</ele>
        <time>2020-02-16T07:03:31Z</time>
      </trkpt>
      <trkpt lat="36.9191500" lon="-2.4404190">
        <ele>112.6</ele>
        <time>2020-02-16T07:03:32Z</time>
      </trkpt>
      <trkpt lat="36.9191570" lon="-2.4403970">
        <ele>112.6</ele>
        <time>2020-02-16T07:03:33Z</time>
      </trkpt>
      <trkpt lat="36.9191670" lon="-2.4403720">
        <ele>112.7</ele>
        <time>2020-02-16T07:03:34Z</time>
      </trkpt>
      <trkpt lat="36.9191770" lon="-2.4403470">
        <ele>112.7</ele>
        <time>2020-02-16T07:03:35Z</time>
      </trkpt>
      <trkpt lat="36.9191870" lon="-2.4403220">
        <ele>112.8</ele>
        <time>2020-02-16T07:03:36Z</time>
      </trkpt>
      <trkpt lat="36.9191970" lon="-2.4403000">
        <ele>112.8</ele>
        <time>2020-02-16T07:03:37Z</time>
      </trkpt>
      <trkpt lat="36.9192060" lon="-2.4402840">
        <ele>112.9</ele>
        <time>2020-02-16T07:03:38Z</time>
      </trkpt>
      <trkpt lat="36.9192170" lon="-2.4402600">
        <ele>112.9</ele>
        <time>2020-02-16T07:03:39Z</time>
      </trkpt>
      <trkpt lat="36.9192290" lon="-2.4402350">
        <ele>112.9</ele>
        <time>2020-02-16T07:03:40Z</time>
      </trkpt>
      <trkpt lat="36.9192430" lon="-2.4402120">
        <ele>112.9</ele>
        <time>2020-02-16T07:03:41Z</time>
      </trkpt>
      <trkpt lat="36.9192540" lon="-2.4401900">
        <ele>113.0</ele>
        <time>2020-02-16T07:03:42Z</time>
      </trkpt>
      <trkpt lat="36.9192650" lon="-2.4401740">
        <ele>113.0</ele>
        <time>2020-02-16T07:03:43Z</time>
      </trkpt>
      <trkpt lat="36.9192770" lon="-2.4401500">
        <ele>113.1</ele>
        <time>2020-02-16T07:03:44Z</time>
      </trkpt>
      <trkpt lat="36.9192920" lon="-2.4401250">
        <ele>113.1</ele>
        <time>2020-02-16T07:03:45Z</time>
      </trkpt>
      <trkpt lat="36.9193040" lon="-2.4401040">
        <ele>113.2</ele>
        <time>2020-02-16T07:03:46Z</time>
      </trkpt>
      <trkpt lat="36.9193170" lon="-2.4400800">
        <ele>113.3</ele>
        <time>2020-02-16T07:03:47Z</time>
      </trkpt>
      <trkpt lat="36.9193300" lon="-2.4400600">
        <ele>113.3</ele>
        <time>2020-02-16T07:03:48Z</time>
      </trkpt>
      <trkpt lat="36.9193400" lon="-2.4400440">
        <ele>113.3</ele>
        <time>2020-02-16T07:03:49Z</time>
      </trkpt>
      <trkpt lat="36.9193550" lon="-2.4400220">
        <ele>113.5</ele>
        <time>2020-02-16T07:03:50Z</time>
      </trkpt>
      <trkpt lat="36.9194130" lon="-2.4400070">
        <ele>113.5</ele>
        <time>2020-02-16T07:03:51Z</time>
      </trkpt>
      <trkpt lat="36.9194300" lon="-2.4399870">
        <ele>113.7</ele>
        <time>2020-02-16T07:03:52Z</time>
      </trkpt>
      <trkpt lat="36.9194450" lon="-2.4399710">
        <ele>113.7</ele>
        <time>2020-02-16T07:03:53Z</time>
      </trkpt>
      <trkpt lat="36.9194650" lon="-2.4399560">
        <ele>113.7</ele>
        <time>2020-02-16T07:03:54Z</time>
      </trkpt>
      <trkpt lat="36.9194860" lon="-2.4399410">
        <ele>113.9</ele>
        <time>2020-02-16T07:03:55Z</time>
      </trkpt>
      <trkpt lat="36.9195010" lon="-2.4399300">
        <ele>113.9</ele>
        <time>2020-02-16T07:03:56Z</time>
      </trkpt>
      <trkpt lat="36.9195250" lon="-2.4399110">
        <ele>113.9</ele>
        <time>2020-02-16T07:03:57Z</time>
      </trkpt>
      <trkpt lat="36.9195480" lon="-2.4398960">
        <ele>114.1</ele>
        <time>2020-02-16T07:03:58Z</time>
      </trkpt>
      <trkpt lat="36.9195660" lon="-2.4398850">
        <ele>114.1</ele>
        <time>2020-02-16T07:03:59Z</time>
      </trkpt>
      <trkpt lat="36.9195840" lon="-2.4398750">
        <ele>114.1</ele>
        <time>2020-02-16T07:04:00Z</time>
      </trkpt>
      <trkpt lat="36.9196040" lon="-2.4398630">
        <ele>114.3</ele>
        <time>2020-02-16T07:04:01Z</time>
      </trkpt>
      <trkpt lat="36.9196240" lon="-2.4398530">
        <ele>114.3</ele>
        <time>2020-02-16T07:04:02Z</time>
      </trkpt>
      <trkpt lat="36.9196460" lon="-2.4398420">
        <ele>114.3</ele>
        <time>2020-02-16T07:04:03Z</time>
      </trkpt>
      <trkpt lat="36.9196660" lon="-2.4398310">
        <ele>114.3</ele>
        <time>2020-02-16T07:04:04Z</time>
      </trkpt>
      <trkpt lat="36.9196860" lon="-2.4398210">
        <ele>114.5</ele>
        <time>2020-02-16T07:04:05Z</time>
      </trkpt>
      <trkpt lat="36.9197080" lon="-2.4398080">
        <ele>114.5</ele>
        <time>2020-02-16T07:04:06Z</time>
      </trkpt>
      <trkpt lat="36.9197230" lon="-2.4397990">
        <ele>114.5</ele>
        <time>2020-02-16T07:04:07Z</time>
      </trkpt>
      <trkpt lat="36.9197430" lon="-2.4397870">
        <ele>114.5</ele>
        <time>2020-02-16T07:04:08Z</time>
      </trkpt>
      <trkpt lat="36.9197660" lon="-2.4397730">
        <ele>114.8</ele>
        <time>2020-02-16T07:04:09Z</time>
      </trkpt>
      <trkpt lat="36.9197860" lon="-2.4397620">
        <ele>114.8</ele>
        <time>2020-02-16T07:04:10Z</time>
      </trkpt>
      <trkpt lat="36.9198060" lon="-2.4397520">
        <ele>114.8</ele>
        <time>2020-02-16T07:04:11Z</time>
      </trkpt>
      <trkpt lat="36.9198260" lon="-2.4397410">
        <ele>114.9</ele>
        <time>2020-02-16T07:04:12Z</time>
      </trkpt>
      <trkpt lat="36.9198460" lon="-2.4397300">
        <ele>115.2</ele>
        <time>2020-02-16T07:04:13Z</time>
      </trkpt>
      <trkpt lat="36.9198630" lon="-2.4397220">
        <ele>115.2</ele>
        <time>2020-02-16T07:04:14Z</time>
      </trkpt>
      <trkpt lat="36.9198880" lon="-2.4397090">
        <ele>115.3</ele>
        <time>2020-02-16T07:04:15Z</time>
      </trkpt>
      <trkpt lat="36.9199090" lon="-2.4396990">
        <ele>115.3</ele>
        <time>2020-02-16T07:04:16Z</time>
      </trkpt>
      <trkpt lat="36.9199310" lon="-2.4396890">
        <ele>115.7</ele>
        <time>2020-02-16T07:04:17Z</time>
      </trkpt>
      <trkpt lat="36.9199530" lon="-2.4396780">
        <ele>115.8</ele>
        <time>2020-02-16T07:04:18Z</time>
      </trkpt>
      <trkpt lat="36.9199740" lon="-2.4396690">
        <ele>115.8</ele>
        <time>2020-02-16T07:04:19Z</time>
      </trkpt>
      <trkpt lat="36.9199980" lon="-2.4396600">
        <ele>115.9</ele>
        <time>2020-02-16T07:04:20Z</time>
      </trkpt>
      <trkpt lat="36.9200180" lon="-2.4396530">
        <ele>116.1</ele>
        <time>2020-02-16T07:04:21Z</time>
      </trkpt>
      <trkpt lat="36.9200360" lon="-2.4396460">
        <ele>116.4</ele>
        <time>2020-02-16T07:04:22Z</time>
      </trkpt>
      <trkpt lat="36.9200560" lon="-2.4396390">
        <ele>116.5</ele>
        <time>2020-02-16T07:04:23Z</time>
      </trkpt>
      <trkpt lat="36.9200740" lon="-2.4396330">
        <ele>116.5</ele>
        <time>2020-02-16T07:04:24Z</time>
      </trkpt>
      <trkpt lat="36.9200930" lon="-2.4396260">
        <ele>116.6</ele>
        <time>2020-02-16T07:04:25Z</time>
      </trkpt>
      <trkpt lat="36.9201090" lon="-2.4396200">
        <ele>116.6</ele>
        <time>2020-02-16T07:04:26Z</time>
      </trkpt>
      <trkpt lat="36.9201330" lon="-2.4396120">
        <ele>116.8</ele>
        <time>2020-02-16T07:04:27Z</time>
      </trkpt>
      <trkpt lat="36.9201510" lon="-2.4396050">
        <ele>117.1</ele>
        <time>2020-02-16T07:04:28Z</time>
      </trkpt>
      <trkpt lat="36.9201680" lon="-2.4395990">
        <ele>117.2</ele>
        <time>2020-02-16T07:04:29Z</time>
      </trkpt>
      <trkpt lat="36.9201880" lon="-2.4395890">
        <ele>117.3</ele>
        <time>2020-02-16T07:04:30Z</time>
      </trkpt>
      <trkpt lat="36.9202060" lon="-2.4395830">
        <ele>117.3</ele>
        <time>2020-02-16T07:04:31Z</time>
      </trkpt>
      <trkpt lat="36.9202260" lon="-2.4395750">
        <ele>117.5</ele>
        <time>2020-02-16T07:04:32Z</time>
      </trkpt>
      <trkpt lat="36.9202480" lon="-2.4395670">
        <ele>117.5</ele>
        <time>2020-02-16T07:04:33Z</time>
      </trkpt>
      <trkpt lat="36.9202710" lon="-2.4395560">
        <ele>117.5</ele>
        <time>2020-02-16T07:04:34Z</time>
      </trkpt>
      <trkpt lat="36.9202890" lon="-2.4395490">
        <ele>117.5</ele>
        <time>2020-02-16T07:04:35Z</time>
      </trkpt>
      <trkpt lat="36.9203090" lon="-2.4395400">
        <ele>117.5</ele>
        <time>2020-02-16T07:04:36Z</time>
      </trkpt>
      <trkpt lat="36.9203310" lon="-2.4395320">
        <ele>117.5</ele>
        <time>2020-02-16T07:04:37Z</time>
      </trkpt>
      <trkpt lat="36.9203510" lon="-2.4395230">
        <ele>117.6</ele>
        <time>2020-02-16T07:04:38Z</time>
      </trkpt>
      <trkpt lat="36.9203710" lon="-2.4395150">
        <ele>117.6</ele>
        <time>2020-02-16T07:04:39Z</time>
      </trkpt>
      <trkpt lat="36.9203910" lon="-2.4395060">
        <ele>117.6</ele>
        <time>2020-02-16T07:04:40Z</time>
      </trkpt>
      <trkpt lat="36.9204130" lon="-2.4394970">
        <ele>117.6</ele>
        <time>2020-02-16T07:04:41Z</time>
      </trkpt>
      <trkpt lat="36.9204260" lon="-2.4394920">
        <ele>117.7</ele>
        <time>2020-02-16T07:04:42Z</time>
      </trkpt>
      <trkpt lat="36.9204480" lon="-2.4394810">
        <ele>117.7</ele>
        <time>2020-02-16T07:04:43Z</time>
      </trkpt>
      <trkpt lat="36.9204680" lon="-2.4394730">
        <ele>117.7</ele>
        <time>2020-02-16T07:04:44Z</time>
      </trkpt>
      <trkpt lat="36.9204880" lon="-2.4394600">
        <ele>117.8</ele>
        <time>2020-02-16T07:04:45Z</time>
      </trkpt>
      <trkpt lat="36.9205040" lon="-2.4394520">
        <ele>117.8</ele>
        <time>2020-02-16T07:04:46Z</time>
      </trkpt>
      <trkpt lat="36.9205280" lon="-2.4394380">
        <ele>117.8</ele>
        <time>2020-02-16T07:04:47Z</time>
      </trkpt>
      <trkpt lat="36.9205480" lon="-2.4394260">
        <ele>117.8</ele>
        <time>2020-02-16T07:04:48Z</time>
      </trkpt>
      <trkpt lat="36.9205640" lon="-2.4394130">
        <ele>117.8</ele>
        <time>2020-02-16T07:04:49Z</time>
      </trkpt>
      <trkpt lat="36.9205880" lon="-2.4393990">
        <ele>117.9</ele>
        <time>2020-02-16T07:04:50Z</time>
      </trkpt>
      <trkpt lat="36.9206060" lon="-2.4393850">
        <ele>117.9</ele>
        <time>2020-02-16T07:04:51Z</time>
      </trkpt>
      <trkpt lat="36.9206280" lon="-2.4393720">
        <ele>117.8</ele>
        <time>2020-02-16T07:04:52Z</time>
      </trkpt>
      <trkpt lat="36.9206510" lon="-2.4393550">
        <ele>117.8</ele>
        <time>2020-02-16T07:04:53Z</time>
      </trkpt>
      <trkpt lat="36.9206710" lon="-2.4393430">
        <ele>117.7</ele>
        <time>2020-02-16T07:04:54Z</time>
      </trkpt>
      <trkpt lat="36.9206910" lon="-2.4393280">
        <ele>117.7</ele>
        <time>2020-02-16T07:04:55Z</time>
      </trkpt>
      <trkpt lat="36.9207110" lon="-2.4393130">
        <ele>117.7</ele>
        <time>2020-02-16T07:04:56Z</time>
      </trkpt>
      <trkpt lat="36.9207320" lon="-2.4392980">
        <ele>117.7</ele>
        <time>2020-02-16T07:04:57Z</time>
      </trkpt>
      <trkpt lat="36.9207520" lon="-2.4392840">
        <ele>117.7</ele>
        <time>2020-02-16T07:04:58Z</time>
      </trkpt>
      <trkpt lat="36.9207720" lon="-2.4392690">
        <ele>117.8</ele>
        <time>2020-02-16T07:04:59Z</time>
      </trkpt>
      <trkpt lat="36.9207940" lon="-2.4392560">
        <ele>117.8</ele>
        <time>2020-02-16T07:05:00Z</time>
      </trkpt>
      <trkpt lat="36.9208140" lon="-2.4392410">
        <ele>117.8</ele>
        <time>2020-02-16T07:05:01Z</time>
      </trkpt>
      <trkpt lat="36.9208360" lon="-2.4392280">
        <ele>117.9</ele>
        <time>2020-02-16T07:05:02Z</time>
      </trkpt>
      <trkpt lat="36.9208570" lon="-2.4392130">
        <ele>117.9</ele>
        <time>2020-02-16T07:05:03Z</time>
      </trkpt>
      <trkpt lat="36.9208810" lon="-2.4391990">
        <ele>117.9</ele>
        <time>2020-02-16T07:05:04Z</time>
      </trkpt>
      <trkpt lat="36.9209020" lon="-2.4391830">
        <ele>117.9</ele>
        <time>2020-02-16T07:05:05Z</time>
      </trkpt>
      <trkpt lat="36.9209220" lon="-2.4391710">
        <ele>118.0</ele>
        <time>2020-02-16T07:05:06Z</time>
      </trkpt>
      <trkpt lat="36.9209390" lon="-2.4391600">
        <ele>118.0</ele>
        <time>2020-02-16T07:05:07Z</time>
      </trkpt>
      <trkpt lat="36.9209590" lon="-2.4391500">
        <ele>118.0</ele>
        <time>2020-02-16T07:05:08Z</time>
      </trkpt>
      <trkpt lat="36.9209810" lon="-2.4391390">
        <ele>118.0</ele>
        <time>2020-02-16T07:05:09Z</time>
      </trkpt>
      <trkpt lat="36.9210010" lon="-2.4391280">
        <ele>117.9</ele>
        <time>2020-02-16T07:05:10Z</time>
      </trkpt>
      <trkpt lat="36.9210220" lon="-2.4391170">
        <ele>117.9</ele>
        <time>2020-02-16T07:05:11Z</time>
      </trkpt>
      <trkpt lat="36.9210440" lon="-2.4391060">
        <ele>117.9</ele>
        <time>2020-02-16T07:05:12Z</time>
      </trkpt>
      <trkpt lat="36.9210660" lon="-2.4390960">
        <ele>118.0</ele>
        <time>2020-02-16T07:05:13Z</time>
      </trkpt>
      <trkpt lat="36.9210890" lon="-2.4390860">
        <ele>118.1</ele>
        <time>2020-02-16T07:05:14Z</time>
      </trkpt>
      <trkpt lat="36.9211120" lon="-2.4390750">
        <ele>118.1</ele>
        <time>2020-02-16T07:05:15Z</time>
      </trkpt>
      <trkpt lat="36.9211360" lon="-2.4390650">
        <ele>118.1</ele>
        <time>2020-02-16T07:05:16Z</time>
      </trkpt>
      <trkpt lat="36.9211590" lon="-2.4390570">
        <ele>118.0</ele>
        <time>2020-02-16T07:05:17Z</time>
      </trkpt>
      <trkpt lat="36.9211770" lon="-2.4390510">
        <ele>118.1</ele>
        <time>2020-02-16T07:05:18Z</time>
      </trkpt>
      <trkpt lat="36.9212020" lon="-2.4390400">
        <ele>118.1</ele>
        <time>2020-02-16T07:05:19Z</time>
      </trkpt>
      <trkpt lat="36.9212270" lon="-2.4390340">
        <ele>118.2</ele>
        <time>2020-02-16T07:05:20Z</time>
      </trkpt>
      <trkpt lat="36.9212470" lon="-2.4390280">
        <ele>118.3</ele>
        <time>2020-02-16T07:05:21Z</time>
      </trkpt>
      <trkpt lat="36.9212660" lon="-2.4390230">
        <ele>118.3</ele>
        <time>2020-02-16T07:05:22Z</time>
      </trkpt>
      <trkpt lat="36.9212870" lon="-2.4390160">
        <ele>118.2</ele>
        <time>2020-02-16T07:05:23Z</time>
      </trkpt>
      <trkpt lat="36.9213090" lon="-2.4390090">
        <ele>118.2</ele>
        <time>2020-02-16T07:05:24Z</time>
      </trkpt>
      <trkpt lat="36.9213320" lon="-2.4390010">
        <ele>118.3</ele>
        <time>2020-02-16T07:05:25Z</time>
      </trkpt>
      <trkpt lat="36.9213510" lon="-2.4389980">
        <ele>118.3</ele>
        <time>2020-02-16T07:05:26Z</time>
      </trkpt>
      <trkpt lat="36.9213760" lon="-2.4389900">
        <ele>118.3</ele>
        <time>2020-02-16T07:05:27Z</time>
      </trkpt>
      <trkpt lat="36.9213970" lon="-2.4389850">
        <ele>118.3</ele>
        <time>2020-02-16T07:05:28Z</time>
      </trkpt>
      <trkpt lat="36.9214170" lon="-2.4389810">
        <ele>118.3</ele>
        <time>2020-02-16T07:05:29Z</time>
      </trkpt>
      <trkpt lat="36.9214360" lon="-2.4389790">
        <ele>118.3</ele>
        <time>2020-02-16T07:05:30Z</time>
      </trkpt>
      <trkpt lat="36.9214610" lon="-2.4389730">
        <ele>118.3</ele>
        <time>2020-02-16T07:05:31Z</time>
      </trkpt>
      <trkpt lat="36.9214820" lon="-2.4389690">
        <ele>118.3</ele>
        <time>2020-02-16T07:05:32Z</time>
      </trkpt>
      <trkpt lat="36.9215060" lon="-2.4389660">
        <ele>118.3</ele>
        <time>2020-02-16T07:05:33Z</time>
      </trkpt>
      <trkpt lat="36.9215260" lon="-2.4389640">
        <ele>118.3</ele>
        <time>2020-02-16T07:05:34Z</time>
      </trkpt>
      <trkpt lat="36.9215470" lon="-2.4389610">
        <ele>118.4</ele>
        <time>2020-02-16T07:05:35Z</time>
      </trkpt>
      <trkpt lat="36.9215770" lon="-2.4389560">
        <ele>118.3</ele>
        <time>2020-02-16T07:05:36Z</time>
      </trkpt>
      <trkpt lat="36.9216010" lon="-2.4389540">
        <ele>118.3</ele>
        <time>2020-02-16T07:05:37Z</time>
      </trkpt>
      <trkpt lat="36.9216240" lon="-2.4389520">
        <ele>118.3</ele>
        <time>2020-02-16T07:05:38Z</time>
      </trkpt>
      <trkpt lat="36.9216420" lon="-2.4389520">
        <ele>118.3</ele>
        <time>2020-02-16T07:05:39Z</time>
      </trkpt>
      <trkpt lat="36.9216620" lon="-2.4389520">
        <ele>118.3</ele>
        <time>2020-02-16T07:05:40Z</time>
      </trkpt>
      <trkpt lat="36.9216890" lon="-2.4389500">
        <ele>118.2</ele>
        <time>2020-02-16T07:05:41Z</time>
      </trkpt>
      <trkpt lat="36.9217060" lon="-2.4389490">
        <ele>118.2</ele>
        <time>2020-02-16T07:05:42Z</time>
      </trkpt>
      <trkpt lat="36.9217290" lon="-2.4389490">
        <ele>118.2</ele>
        <time>2020-02-16T07:05:43Z</time>
      </trkpt>
      <trkpt lat="36.9217540" lon="-2.4389460">
        <ele>118.2</ele>
        <time>2020-02-16T07:05:44Z</time>
      </trkpt>
      <trkpt lat="36.9217740" lon="-2.4389470">
        <ele>118.1</ele>
        <time>2020-02-16T07:05:45Z</time>
      </trkpt>
      <trkpt lat="36.9218010" lon="-2.4389440">
        <ele>118.1</ele>
        <time>2020-02-16T07:05:46Z</time>
      </trkpt>
      <trkpt lat="36.9218270" lon="-2.4389410">
        <ele>118.0</ele>
        <time>2020-02-16T07:05:47Z</time>
      </trkpt>
      <trkpt lat="36.9218490" lon="-2.4389430">
        <ele>118.0</ele>
        <time>2020-02-16T07:05:48Z</time>
      </trkpt>
      <trkpt lat="36.9218740" lon="-2.4389410">
        <ele>117.9</ele>
        <time>2020-02-16T07:05:49Z</time>
      </trkpt>
      <trkpt lat="36.9218970" lon="-2.4389390">
        <ele>117.8</ele>
        <time>2020-02-16T07:05:50Z</time>
      </trkpt>
      <trkpt lat="36.9219190" lon="-2.4389380">
        <ele>117.8</ele>
        <time>2020-02-16T07:05:51Z</time>
      </trkpt>
      <trkpt lat="36.9219360" lon="-2.4389360">
        <ele>117.8</ele>
        <time>2020-02-16T07:05:52Z</time>
      </trkpt>
      <trkpt lat="36.9219520" lon="-2.4389340">
        <ele>117.8</ele>
        <time>2020-02-16T07:05:53Z</time>
      </trkpt>
      <trkpt lat="36.9219710" lon="-2.4389210">
        <ele>117.9</ele>
        <time>2020-02-16T07:05:54Z</time>
      </trkpt>
      <trkpt lat="36.9219870" lon="-2.4389010">
        <ele>117.9</ele>
        <time>2020-02-16T07:05:55Z</time>
      </trkpt>
      <trkpt lat="36.9219990" lon="-2.4388840">
        <ele>117.9</ele>
        <time>2020-02-16T07:05:56Z</time>
      </trkpt>
      <trkpt lat="36.9220110" lon="-2.4388640">
        <ele>118.0</ele>
        <time>2020-02-16T07:05:57Z</time>
      </trkpt>
      <trkpt lat="36.9220240" lon="-2.4388440">
        <ele>118.0</ele>
        <time>2020-02-16T07:05:58Z</time>
      </trkpt>
      <trkpt lat="36.9220390" lon="-2.4388260">
        <ele>118.1</ele>
        <time>2020-02-16T07:05:59Z</time>
      </trkpt>
      <trkpt lat="36.9220520" lon="-2.4388130">
        <ele>118.1</ele>
        <time>2020-02-16T07:06:00Z</time>
      </trkpt>
      <trkpt lat="36.9220740" lon="-2.4387970">
        <ele>118.2</ele>
        <time>2020-02-16T07:06:01Z</time>
      </trkpt>
      <trkpt lat="36.9220910" lon="-2.4387850">
        <ele>118.2</ele>
        <time>2020-02-16T07:06:02Z</time>
      </trkpt>
      <trkpt lat="36.9221140" lon="-2.4387650">
        <ele>118.3</ele>
        <time>2020-02-16T07:06:03Z</time>
      </trkpt>
      <trkpt lat="36.9221340" lon="-2.4387480">
        <ele>118.4</ele>
        <time>2020-02-16T07:06:04Z</time>
      </trkpt>
      <trkpt lat="36.9221540" lon="-2.4387310">
        <ele>118.4</ele>
        <time>2020-02-16T07:06:05Z</time>
      </trkpt>
      <trkpt lat="36.9221690" lon="-2.4387150">
        <ele>118.5</ele>
        <time>2020-02-16T07:06:06Z</time>
      </trkpt>
      <trkpt lat="36.9221820" lon="-2.4386980">
        <ele>118.5</ele>
        <time>2020-02-16T07:06:07Z</time>
      </trkpt>
      <trkpt lat="36.9221950" lon="-2.4386640">
        <ele>118.6</ele>
        <time>2020-02-16T07:06:08Z</time>
      </trkpt>
      <trkpt lat="36.9222100" lon="-2.4386340">
        <ele>118.7</ele>
        <time>2020-02-16T07:06:09Z</time>
      </trkpt>
      <trkpt lat="36.9222190" lon="-2.4386130">
        <ele>118.7</ele>
        <time>2020-02-16T07:06:10Z</time>
      </trkpt>
      <trkpt lat="36.9222310" lon="-2.4385880">
        <ele>118.8</ele>
        <time>2020-02-16T07:06:11Z</time>
      </trkpt>
      <trkpt lat="36.9222480" lon="-2.4385590">
        <ele>118.8</ele>
        <time>2020-02-16T07:06:12Z</time>
      </trkpt>
      <trkpt lat="36.9222610" lon="-2.4385380">
        <ele>118.9</ele>
        <time>2020-02-16T07:06:13Z</time>
      </trkpt>
      <trkpt lat="36.9222780" lon="-2.4385110">
        <ele>118.9</ele>
        <time>2020-02-16T07:06:14Z</time>
      </trkpt>
      <trkpt lat="36.9222910" lon="-2.4384890">
        <ele>119.0</ele>
        <time>2020-02-16T07:06:15Z</time>
      </trkpt>
      <trkpt lat="36.9223050" lon="-2.4384690">
        <ele>119.0</ele>
        <time>2020-02-16T07:06:16Z</time>
      </trkpt>
      <trkpt lat="36.9223200" lon="-2.4384480">
        <ele>119.1</ele>
        <time>2020-02-16T07:06:17Z</time>
      </trkpt>
      <trkpt lat="36.9223350" lon="-2.4384280">
        <ele>119.1</ele>
        <time>2020-02-16T07:06:18Z</time>
      </trkpt>
      <trkpt lat="36.9223500" lon="-2.4384080">
        <ele>119.2</ele>
        <time>2020-02-16T07:06:19Z</time>
      </trkpt>
      <trkpt lat="36.9223650" lon="-2.4383880">
        <ele>119.3</ele>
        <time>2020-02-16T07:06:20Z</time>
      </trkpt>
      <trkpt lat="36.9223810" lon="-2.4383680">
        <ele>119.3</ele>
        <time>2020-02-16T07:06:21Z</time>
      </trkpt>
      <trkpt lat="36.9224100" lon="-2.4383510">
        <ele>119.4</ele>
        <time>2020-02-16T07:06:22Z</time>
      </trkpt>
      <trkpt lat="36.9224300" lon="-2.4383340">
        <ele>119.5</ele>
        <time>2020-02-16T07:06:23Z</time>
      </trkpt>
      <trkpt lat="36.9224470" lon="-2.4383210">
        <ele>119.5</ele>
        <time>2020-02-16T07:06:24Z</time>
      </trkpt>
      <trkpt lat="36.9224700" lon="-2.4383020">
        <ele>119.5</ele>
        <time>2020-02-16T07:06:25Z</time>
      </trkpt>
      <trkpt lat="36.9224940" lon="-2.4382860">
        <ele>119.6</ele>
        <time>2020-02-16T07:06:26Z</time>
      </trkpt>
      <trkpt lat="36.9225120" lon="-2.4382730">
        <ele>119.6</ele>
        <time>2020-02-16T07:06:27Z</time>
      </trkpt>
      <trkpt lat="36.9225370" lon="-2.4382540">
        <ele>119.6</ele>
        <time>2020-02-16T07:06:28Z</time>
      </trkpt>
      <trkpt lat="36.9225590" lon="-2.4382370">
        <ele>119.6</ele>
        <time>2020-02-16T07:06:29Z</time>
      </trkpt>
      <trkpt lat="36.9225750" lon="-2.4382260">
        <ele>119.7</ele>
        <time>2020-02-16T07:06:30Z</time>
      </trkpt>
      <trkpt lat="36.9225950" lon="-2.4382110">
        <ele>119.7</ele>
        <time>2020-02-16T07:06:31Z</time>
      </trkpt>
      <trkpt lat="36.9226200" lon="-2.4381920">
        <ele>119.7</ele>
        <time>2020-02-16T07:06:32Z</time>
      </trkpt>
      <trkpt lat="36.9226390" lon="-2.4381790">
        <ele>119.7</ele>
        <time>2020-02-16T07:06:33Z</time>
      </trkpt>
      <trkpt lat="36.9226600" lon="-2.4381620">
        <ele>119.7</ele>
        <time>2020-02-16T07:06:34Z</time>
      </trkpt>
      <trkpt lat="36.9226800" lon="-2.4381460">
        <ele>119.7</ele>
        <time>2020-02-16T07:06:35Z</time>
      </trkpt>
      <trkpt lat="36.9226990" lon="-2.4381310">
        <ele>119.7</ele>
        <time>2020-02-16T07:06:36Z</time>
      </trkpt>
      <trkpt lat="36.9227100" lon="-2.4381190">
        <ele>119.7</ele>
        <time>2020-02-16T07:06:37Z</time>
      </trkpt>
      <trkpt lat="36.9227300" lon="-2.4381010">
        <ele>119.7</ele>
        <time>2020-02-16T07:06:38Z</time>
      </trkpt>
      <trkpt lat="36.9227490" lon="-2.4380830">
        <ele>119.7</ele>
        <time>2020-02-16T07:06:39Z</time>
      </trkpt>
      <trkpt lat="36.9227690" lon="-2.4380650">
        <ele>119.8</ele>
        <time>2020-02-16T07:06:40Z</time>
      </trkpt>
      <trkpt lat="36.9227890" lon="-2.4380470">
        <ele>119.8</ele>
        <time>2020-02-16T07:06:41Z</time>
      </trkpt>
      <trkpt lat="36.9228070" lon="-2.4380310">
        <ele>119.8</ele>
        <time>2020-02-16T07:06:42Z</time>
      </trkpt>
      <trkpt lat="36.9228190" lon="-2.4380200">
        <ele>119.8</ele>
        <time>2020-02-16T07:06:43Z</time>
      </trkpt>
      <trkpt lat="36.9228400" lon="-2.4380000">
        <ele>119.9</ele>
        <time>2020-02-16T07:06:44Z</time>
      </trkpt>
      <trkpt lat="36.9228540" lon="-2.4379880">
        <ele>119.9</ele>
        <time>2020-02-16T07:06:45Z</time>
      </trkpt>
      <trkpt lat="36.9228720" lon="-2.4379710">
        <ele>120.0</ele>
        <time>2020-02-16T07:06:46Z</time>
      </trkpt>
      <trkpt lat="36.9228940" lon="-2.4379520">
        <ele>120.0</ele>
        <time>2020-02-16T07:06:47Z</time>
      </trkpt>
      <trkpt lat="36.9229150" lon="-2.4379320">
        <ele>120.1</ele>
        <time>2020-02-16T07:06:48Z</time>
      </trkpt>
      <trkpt lat="36.9229300" lon="-2.4379180">
        <ele>120.1</ele>
        <time>2020-02-16T07:06:49Z</time>
      </trkpt>
      <trkpt lat="36.9229490" lon="-2.4379000">
        <ele>120.2</ele>
        <time>2020-02-16T07:06:50Z</time>
      </trkpt>
      <trkpt lat="36.9229640" lon="-2.4378850">
        <ele>120.2</ele>
        <time>2020-02-16T07:06:51Z</time>
      </trkpt>
      <trkpt lat="36.9229890" lon="-2.4378620">
        <ele>120.3</ele>
        <time>2020-02-16T07:06:52Z</time>
      </trkpt>
      <trkpt lat="36.9230000" lon="-2.4378490">
        <ele>120.4</ele>
        <time>2020-02-16T07:06:53Z</time>
      </trkpt>
      <trkpt lat="36.9230170" lon="-2.4378310">
        <ele>120.4</ele>
        <time>2020-02-16T07:06:54Z</time>
      </trkpt>
      <trkpt lat="36.9230320" lon="-2.4378150">
        <ele>120.4</ele>
        <time>2020-02-16T07:06:55Z</time>
      </trkpt>
      <trkpt lat="36.9230540" lon="-2.4377930">
        <ele>120.5</ele>
        <time>2020-02-16T07:06:56Z</time>
      </trkpt>
      <trkpt lat="36.9230690" lon="-2.4377760">
        <ele>120.5</ele>
        <time>2020-02-16T07:06:57Z</time>
      </trkpt>
      <trkpt lat="36.9230870" lon="-2.4377200">
        <ele>120.5</ele>
        <time>2020-02-16T07:06:58Z</time>
      </trkpt>
      <trkpt lat="36.9231040" lon="-2.4376960">
        <ele>120.6</ele>
        <time>2020-02-16T07:06:59Z</time>
      </trkpt>
      <trkpt lat="36.9231220" lon="-2.4376730">
        <ele>120.6</ele>
        <time>2020-02-16T07:07:00Z</time>
      </trkpt>
      <trkpt lat="36.9231400" lon="-2.4376410">
        <ele>120.6</ele>
        <time>2020-02-16T07:07:01Z</time>
      </trkpt>
      <trkpt lat="36.9231520" lon="-2.4376130">
        <ele>120.6</ele>
        <time>2020-02-16T07:07:02Z</time>
      </trkpt>
      <trkpt lat="36.9231620" lon="-2.4375880">
        <ele>120.7</ele>
        <time>2020-02-16T07:07:03Z</time>
      </trkpt>
      <trkpt lat="36.9231720" lon="-2.4375650">
        <ele>120.7</ele>
        <time>2020-02-16T07:07:04Z</time>
      </trkpt>
      <trkpt lat="36.9231830" lon="-2.4375410">
        <ele>120.7</ele>
        <time>2020-02-16T07:07:05Z</time>
      </trkpt>
      <trkpt lat="36.9231960" lon="-2.4375110">
        <ele>120.8</ele>
        <time>2020-02-16T07:07:06Z</time>
      </trkpt>
      <trkpt lat="36.9232070" lon="-2.4374880">
        <ele>120.8</ele>
        <time>2020-02-16T07:07:07Z</time>
      </trkpt>
      <trkpt lat="36.9232230" lon="-2.4374560">
        <ele>120.9</ele>
        <time>2020-02-16T07:07:08Z</time>
      </trkpt>
      <trkpt lat="36.9232350" lon="-2.4374330">
        <ele>120.9</ele>
        <time>2020-02-16T07:07:09Z</time>
      </trkpt>
      <trkpt lat="36.9232490" lon="-2.4374110">
        <ele>121.0</ele>
        <time>2020-02-16T07:07:10Z</time>
      </trkpt>
      <trkpt lat="36.9232610" lon="-2.4373930">
        <ele>121.1</ele>
        <time>2020-02-16T07:07:11Z</time>
      </trkpt>
      <trkpt lat="36.9232770" lon="-2.4373660">
        <ele>121.1</ele>
        <time>2020-02-16T07:07:12Z</time>
      </trkpt>
      <trkpt lat="36.9232910" lon="-2.4373430">
        <ele>121.2</ele>
        <time>2020-02-16T07:07:13Z</time>
      </trkpt>
      <trkpt lat="36.9233040" lon="-2.4373250">
        <ele>121.2</ele>
        <time>2020-02-16T07:07:14Z</time>
      </trkpt>
      <trkpt lat="36.9233170" lon="-2.4373050">
        <ele>121.3</ele>
        <time>2020-02-16T07:07:15Z</time>
      </trkpt>
      <trkpt lat="36.9233280" lon="-2.4372880">
        <ele>121.3</ele>
        <time>2020-02-16T07:07:16Z</time>
      </trkpt>
      <trkpt lat="36.9233420" lon="-2.4372660">
        <ele>121.3</ele>
        <time>2020-02-16T07:07:17Z</time>
      </trkpt>
      <trkpt lat="36.9233580" lon="-2.4372410">
        <ele>121.3</ele>
        <time>2020-02-16T07:07:18Z</time>
      </trkpt>
      <trkpt lat="36.9233730" lon="-2.4372210">
        <ele>121.3</ele>
        <time>2020-02-16T07:07:19Z</time>
      </trkpt>
      <trkpt lat="36.9233880" lon="-2.4372000">
        <ele>121.3</ele>
        <time>2020-02-16T07:07:20Z</time>
      </trkpt>
      <trkpt lat="36.9234020" lon="-2.4371800">
        <ele>121.3</ele>
        <time>2020-02-16T07:07:21Z</time>
      </trkpt>
      <trkpt lat="36.9234150" lon="-2.4371610">
        <ele>121.3</ele>
        <time>2020-02-16T07:07:22Z</time>
      </trkpt>
      <trkpt lat="36.9234310" lon="-2.4371380">
        <ele>121.3</ele>
        <time>2020-02-16T07:07:23Z</time>
      </trkpt>
      <trkpt lat="36.9234420" lon="-2.4371230">
        <ele>121.2</ele>
        <time>2020-02-16T07:07:24Z</time>
      </trkpt>
      <trkpt lat="36.9234730" lon="-2.4371100">
        <ele>121.2</ele>
        <time>2020-02-16T07:07:25Z</time>
      </trkpt>
      <trkpt lat="36.9234930" lon="-2.4370930">
        <ele>121.1</ele>
        <time>2020-02-16T07:07:26Z</time>
      </trkpt>
      <trkpt lat="36.9235130" lon="-2.4370760">
        <ele>121.0</ele>
        <time>2020-02-16T07:07:27Z</time>
      </trkpt>
      <trkpt lat="36.9235320" lon="-2.4370560">
        <ele>121.0</ele>
        <time>2020-02-16T07:07:28Z</time>
      </trkpt>
      <trkpt lat="36.9235500" lon="-2.4370370">
        <ele>120.9</ele>
        <time>2020-02-16T07:07:29Z</time>
      </trkpt>
      <trkpt lat="36.9235670" lon="-2.4370200">
        <ele>120.8</ele>
        <time>2020-02-16T07:07:30Z</time>
      </trkpt>
      <trkpt lat="36.9235850" lon="-2.4370000">
        <ele>120.8</ele>
        <time>2020-02-16T07:07:31Z</time>
      </trkpt>
      <trkpt lat="36.9236070" lon="-2.4369780">
        <ele>120.7</ele>
        <time>2020-02-16T07:07:32Z</time>
      </trkpt>
      <trkpt lat="36.9236280" lon="-2.4369570">
        <ele>120.7</ele>
        <time>2020-02-16T07:07:33Z</time>
      </trkpt>
      <trkpt lat="36.9236500" lon="-2.4369390">
        <ele>120.7</ele>
        <time>2020-02-16T07:07:34Z</time>
      </trkpt>
      <trkpt lat="36.9236650" lon="-2.4369270">
        <ele>120.7</ele>
        <time>2020-02-16T07:07:35Z</time>
      </trkpt>
      <trkpt lat="36.9236880" lon="-2.4369060">
        <ele>120.7</ele>
        <time>2020-02-16T07:07:36Z</time>
      </trkpt>
      <trkpt lat="36.9237080" lon="-2.4368900">
        <ele>120.7</ele>
        <time>2020-02-16T07:07:37Z</time>
      </trkpt>
      <trkpt lat="36.9237230" lon="-2.4368780">
        <ele>120.7</ele>
        <time>2020-02-16T07:07:38Z</time>
      </trkpt>
      <trkpt lat="36.9237430" lon="-2.4368610">
        <ele>120.7</ele>
        <time>2020-02-16T07:07:39Z</time>
      </trkpt>
      <trkpt lat="36.9237700" lon="-2.4368410">
        <ele>120.8</ele>
        <time>2020-02-16T07:07:40Z</time>
      </trkpt>
      <trkpt lat="36.9237900" lon="-2.4368260">
        <ele>120.8</ele>
        <time>2020-02-16T07:07:41Z</time>
      </trkpt>
      <trkpt lat="36.9238080" lon="-2.4368130">
        <ele>120.9</ele>
        <time>2020-02-16T07:07:42Z</time>
      </trkpt>
      <trkpt lat="36.9238320" lon="-2.4367960">
        <ele>120.9</ele>
        <time>2020-02-16T07:07:43Z</time>
      </trkpt>
      <trkpt lat="36.9238530" lon="-2.4367800">
        <ele>121.0</ele>
        <time>2020-02-16T07:07:44Z</time>
      </trkpt>
      <trkpt lat="36.9238730" lon="-2.4367660">
        <ele>121.0</ele>
        <time>2020-02-16T07:07:45Z</time>
      </trkpt>
      <trkpt lat="36.9238880" lon="-2.4367550">
        <ele>121.1</ele>
        <time>2020-02-16T07:07:46Z</time>
      </trkpt>
      <trkpt lat="36.9239120" lon="-2.4367370">
        <ele>121.1</ele>
        <time>2020-02-16T07:07:47Z</time>
      </trkpt>
      <trkpt lat="36.9239320" lon="-2.4367230">
        <ele>121.2</ele>
        <time>2020-02-16T07:07:48Z</time>
      </trkpt>
      <trkpt lat="36.9239520" lon="-2.4367080">
        <ele>121.2</ele>
        <time>2020-02-16T07:07:49Z</time>
      </trkpt>
      <trkpt lat="36.9239720" lon="-2.4366930">
        <ele>121.3</ele>
        <time>2020-02-16T07:07:50Z</time>
      </trkpt>
      <trkpt lat="36.9239920" lon="-2.4366790">
        <ele>121.3</ele>
        <time>2020-02-16T07:07:51Z</time>
      </trkpt>
      <trkpt lat="36.9240130" lon="-2.4366630">
        <ele>121.3</ele>
        <time>2020-02-16T07:07:52Z</time>
      </trkpt>
      <trkpt lat="36.9240250" lon="-2.4366540">
        <ele>121.3</ele>
        <time>2020-02-16T07:07:53Z</time>
      </trkpt>
      <trkpt lat="36.9240470" lon="-2.4366370">
        <ele>121.3</ele>
        <time>2020-02-16T07:07:54Z</time>
      </trkpt>
      <trkpt lat="36.9240680" lon="-2.4366210">
        <ele>121.4</ele>
        <time>2020-02-16T07:07:55Z</time>
      </trkpt>
      <trkpt lat="36.9240880" lon="-2.4366050">
        <ele>121.4</ele>
        <time>2020-02-16T07:07:56Z</time>
      </trkpt>
      <trkpt lat="36.9241070" lon="-2.4365900">
        <ele>121.4</ele>
        <time>2020-02-16T07:07:57Z</time>
      </trkpt>
      <trkpt lat="36.9241220" lon="-2.4365780">
        <ele>121.4</ele>
        <time>2020-02-16T07:07:58Z</time>
      </trkpt>
      <trkpt lat="36.9241430" lon="-2.4365590">
        <ele>121.4</ele>
        <time>2020-02-16T07:07:59Z</time>
      </trkpt>
      <trkpt lat="36.9241650" lon="-2.4365420">
        <ele>121.4</ele>
        <time>2020-02-16T07:08:00Z</time>
      </trkpt>
      <trkpt lat="36.9241820" lon="-2.4365270">
        <ele>121.4</ele>
        <time>2020-02-16T07:08:01Z</time>
      </trkpt>
      <trkpt lat="36.9241980" lon="-2.4365130">
        <ele>121.4</ele>
        <time>2020-02-16T07:08:02Z</time>
      </trkpt>
      <trkpt lat="36.9242150" lon="-2.4364980">
        <ele>121.4</ele>
        <time>2020-02-16T07:08:03Z</time>
      </trkpt>
      <trkpt lat="36.9242380" lon="-2.4364770">
        <ele>121.5</ele>
        <time>2020-02-16T07:08:04Z</time>
      </trkpt>
      <trkpt lat="36.9242570" lon="-2.4364600">
        <ele>121.5</ele>
        <time>2020-02-16T07:08:05Z</time>
      </trkpt>
      <trkpt lat="36.9242720" lon="-2.4364480">
        <ele>121.5</ele>
        <time>2020-02-16T07:08:06Z</time>
      </trkpt>
      <trkpt lat="36.9242850" lon="-2.4364330">
        <ele>121.5</ele>
        <time>2020-02-16T07:08:07Z</time>
      </trkpt>
      <trkpt lat="36.9243020" lon="-2.4364170">
        <ele>121.6</ele>
        <time>2020-02-16T07:08:08Z</time>
      </trkpt>
      <trkpt lat="36.9243240" lon="-2.4363700">
        <ele>121.7</ele>
        <time>2020-02-16T07:08:09Z</time>
      </trkpt>
      <trkpt lat="36.9243330" lon="-2.4363350">
        <ele>121.8</ele>
        <time>2020-02-16T07:08:10Z</time>
      </trkpt>
      <trkpt lat="36.9243480" lon="-2.4363170">
        <ele>121.8</ele>
        <time>2020-02-16T07:08:11Z</time>
      </trkpt>
      <trkpt lat="36.9243630" lon="-2.4362920">
        <ele>121.9</ele>
        <time>2020-02-16T07:08:13Z</time>
      </trkpt>
      <trkpt lat="36.9243770" lon="-2.4362720">
        <ele>121.9</ele>
        <time>2020-02-16T07:08:14Z</time>
      </trkpt>
      <trkpt lat="36.9243880" lon="-2.4362530">
        <ele>122.0</ele>
        <time>2020-02-16T07:08:15Z</time>
      </trkpt>
      <trkpt lat="36.9244020" lon="-2.4362300">
        <ele>122.0</ele>
        <time>2020-02-16T07:08:16Z</time>
      </trkpt>
      <trkpt lat="36.9244150" lon="-2.4362070">
        <ele>122.1</ele>
        <time>2020-02-16T07:08:17Z</time>
      </trkpt>
      <trkpt lat="36.9244300" lon="-2.4361820">
        <ele>122.1</ele>
        <time>2020-02-16T07:08:18Z</time>
      </trkpt>
      <trkpt lat="36.9244430" lon="-2.4361580">
        <ele>122.2</ele>
        <time>2020-02-16T07:08:19Z</time>
      </trkpt>
      <trkpt lat="36.9244600" lon="-2.4361320">
        <ele>122.1</ele>
        <time>2020-02-16T07:08:20Z</time>
      </trkpt>
      <trkpt lat="36.9244710" lon="-2.4361130">
        <ele>122.1</ele>
        <time>2020-02-16T07:08:21Z</time>
      </trkpt>
      <trkpt lat="36.9244830" lon="-2.4360930">
        <ele>122.2</ele>
        <time>2020-02-16T07:08:22Z</time>
      </trkpt>
      <trkpt lat="36.9244920" lon="-2.4360750">
        <ele>122.2</ele>
        <time>2020-02-16T07:08:23Z</time>
      </trkpt>
      <trkpt lat="36.9245040" lon="-2.4360500">
        <ele>122.2</ele>
        <time>2020-02-16T07:08:24Z</time>
      </trkpt>
      <trkpt lat="36.9245180" lon="-2.4360250">
        <ele>122.2</ele>
        <time>2020-02-16T07:08:25Z</time>
      </trkpt>
      <trkpt lat="36.9245300" lon="-2.4360030">
        <ele>122.1</ele>
        <time>2020-02-16T07:08:26Z</time>
      </trkpt>
      <trkpt lat="36.9245430" lon="-2.4359800">
        <ele>122.3</ele>
        <time>2020-02-16T07:08:27Z</time>
      </trkpt>
      <trkpt lat="36.9245550" lon="-2.4359600">
        <ele>122.2</ele>
        <time>2020-02-16T07:08:28Z</time>
      </trkpt>
      <trkpt lat="36.9245670" lon="-2.4359420">
        <ele>122.2</ele>
        <time>2020-02-16T07:08:29Z</time>
      </trkpt>
      <trkpt lat="36.9245820" lon="-2.4359170">
        <ele>122.2</ele>
        <time>2020-02-16T07:08:30Z</time>
      </trkpt>
      <trkpt lat="36.9245960" lon="-2.4358930">
        <ele>122.2</ele>
        <time>2020-02-16T07:08:31Z</time>
      </trkpt>
      <trkpt lat="36.9246080" lon="-2.4358730">
        <ele>122.1</ele>
        <time>2020-02-16T07:08:32Z</time>
      </trkpt>
      <trkpt lat="36.9246200" lon="-2.4358550">
        <ele>122.3</ele>
        <time>2020-02-16T07:08:33Z</time>
      </trkpt>
      <trkpt lat="36.9246370" lon="-2.4358300">
        <ele>122.2</ele>
        <time>2020-02-16T07:08:34Z</time>
      </trkpt>
      <trkpt lat="36.9246470" lon="-2.4358130">
        <ele>122.4</ele>
        <time>2020-02-16T07:08:35Z</time>
      </trkpt>
      <trkpt lat="36.9246650" lon="-2.4357850">
        <ele>122.3</ele>
        <time>2020-02-16T07:08:36Z</time>
      </trkpt>
      <trkpt lat="36.9246810" lon="-2.4357580">
        <ele>122.6</ele>
        <time>2020-02-16T07:08:37Z</time>
      </trkpt>
      <trkpt lat="36.9246970" lon="-2.4357320">
        <ele>122.5</ele>
        <time>2020-02-16T07:08:38Z</time>
      </trkpt>
      <trkpt lat="36.9247100" lon="-2.4357080">
        <ele>122.5</ele>
        <time>2020-02-16T07:08:39Z</time>
      </trkpt>
      <trkpt lat="36.9247230" lon="-2.4356830">
        <ele>122.8</ele>
        <time>2020-02-16T07:08:40Z</time>
      </trkpt>
      <trkpt lat="36.9247370" lon="-2.4356570">
        <ele>122.9</ele>
        <time>2020-02-16T07:08:41Z</time>
      </trkpt>
      <trkpt lat="36.9247470" lon="-2.4356330">
        <ele>122.9</ele>
        <time>2020-02-16T07:08:42Z</time>
      </trkpt>
      <trkpt lat="36.9247560" lon="-2.4356120">
        <ele>123.4</ele>
        <time>2020-02-16T07:08:43Z</time>
      </trkpt>
      <trkpt lat="36.9247670" lon="-2.4355870">
        <ele>123.4</ele>
        <time>2020-02-16T07:08:44Z</time>
      </trkpt>
      <trkpt lat="36.9247770" lon="-2.4355600">
        <ele>123.6</ele>
        <time>2020-02-16T07:08:45Z</time>
      </trkpt>
      <trkpt lat="36.9247880" lon="-2.4355300">
        <ele>124.3</ele>
        <time>2020-02-16T07:08:46Z</time>
      </trkpt>
      <trkpt lat="36.9247400" lon="-2.4355020">
        <ele>123.5</ele>
        <time>2020-02-16T07:08:47Z</time>
      </trkpt>
      <trkpt lat="36.9247360" lon="-2.4354730">
        <ele>123.8</ele>
        <time>2020-02-16T07:08:48Z</time>
      </trkpt>
      <trkpt lat="36.9247280" lon="-2.4354430">
        <ele>124.1</ele>
        <time>2020-02-16T07:08:49Z</time>
      </trkpt>
      <trkpt lat="36.9247230" lon="-2.4354130">
        <ele>124.1</ele>
        <time>2020-02-16T07:08:50Z</time>
      </trkpt>
      <trkpt lat="36.9247130" lon="-2.4353830">
        <ele>124.0</ele>
        <time>2020-02-16T07:08:51Z</time>
      </trkpt>
      <trkpt lat="36.9246980" lon="-2.4353500">
        <ele>124.3</ele>
        <time>2020-02-16T07:08:52Z</time>
      </trkpt>
      <trkpt lat="36.9246810" lon="-2.4353220">
        <ele>124.3</ele>
        <time>2020-02-16T07:08:53Z</time>
      </trkpt>
      <trkpt lat="36.9246630" lon="-2.4352850">
        <ele>124.2</ele>
        <time>2020-02-16T07:08:54Z</time>
      </trkpt>
      <trkpt lat="36.9246500" lon="-2.4352620">
        <ele>124.6</ele>
        <time>2020-02-16T07:08:55Z</time>
      </trkpt>
      <trkpt lat="36.9246350" lon="-2.4352350">
        <ele>124.1</ele>
        <time>2020-02-16T07:08:56Z</time>
      </trkpt>
      <trkpt lat="36.9246330" lon="-2.4352140">
        <ele>124.5</ele>
        <time>2020-02-16T07:08:57Z</time>
      </trkpt>
      <trkpt lat="36.9246290" lon="-2.4351870">
        <ele>124.9</ele>
        <time>2020-02-16T07:08:58Z</time>
      </trkpt>
      <trkpt lat="36.9246240" lon="-2.4351570">
        <ele>124.9</ele>
        <time>2020-02-16T07:08:59Z</time>
      </trkpt>
      <trkpt lat="36.9246200" lon="-2.4351290">
        <ele>125.3</ele>
        <time>2020-02-16T07:09:00Z</time>
      </trkpt>
      <trkpt lat="36.9246130" lon="-2.4350990">
        <ele>125.7</ele>
        <time>2020-02-16T07:09:01Z</time>
      </trkpt>
      <trkpt lat="36.9246100" lon="-2.4350820">
        <ele>125.2</ele>
        <time>2020-02-16T07:09:02Z</time>
      </trkpt>
      <trkpt lat="36.9246060" lon="-2.4350620">
        <ele>125.2</ele>
        <time>2020-02-16T07:09:03Z</time>
      </trkpt>
      <trkpt lat="36.9245980" lon="-2.4350290">
        <ele>125.6</ele>
        <time>2020-02-16T07:09:04Z</time>
      </trkpt>
      <trkpt lat="36.9245950" lon="-2.4350070">
        <ele>126.1</ele>
        <time>2020-02-16T07:09:05Z</time>
      </trkpt>
      <trkpt lat="36.9245900" lon="-2.4349800">
        <ele>126.1</ele>
        <time>2020-02-16T07:09:06Z</time>
      </trkpt>
      <trkpt lat="36.9245860" lon="-2.4349550">
        <ele>126.6</ele>
        <time>2020-02-16T07:09:07Z</time>
      </trkpt>
      <trkpt lat="36.9245810" lon="-2.4349270">
        <ele>127.1</ele>
        <time>2020-02-16T07:09:08Z</time>
      </trkpt>
      <trkpt lat="36.9245760" lon="-2.4349050">
        <ele>126.4</ele>
        <time>2020-02-16T07:09:09Z</time>
      </trkpt>
      <trkpt lat="36.9245700" lon="-2.4348800">
        <ele>126.9</ele>
        <time>2020-02-16T07:09:10Z</time>
      </trkpt>
      <trkpt lat="36.9245640" lon="-2.4348550">
        <ele>126.9</ele>
        <time>2020-02-16T07:09:11Z</time>
      </trkpt>
      <trkpt lat="36.9245590" lon="-2.4348340">
        <ele>127.4</ele>
        <time>2020-02-16T07:09:12Z</time>
      </trkpt>
      <trkpt lat="36.9245500" lon="-2.4347990">
        <ele>128.0</ele>
        <time>2020-02-16T07:09:13Z</time>
      </trkpt>
      <trkpt lat="36.9245440" lon="-2.4347700">
        <ele>127.9</ele>
        <time>2020-02-16T07:09:14Z</time>
      </trkpt>
      <trkpt lat="36.9245370" lon="-2.4347450">
        <ele>127.8</ele>
        <time>2020-02-16T07:09:15Z</time>
      </trkpt>
      <trkpt lat="36.9245290" lon="-2.4347150">
        <ele>128.4</ele>
        <time>2020-02-16T07:09:16Z</time>
      </trkpt>
      <trkpt lat="36.9245200" lon="-2.4346870">
        <ele>128.4</ele>
        <time>2020-02-16T07:09:17Z</time>
      </trkpt>
      <trkpt lat="36.9245130" lon="-2.4346650">
        <ele>128.9</ele>
        <time>2020-02-16T07:09:18Z</time>
      </trkpt>
      <trkpt lat="36.9245040" lon="-2.4346400">
        <ele>128.2</ele>
        <time>2020-02-16T07:09:19Z</time>
      </trkpt>
      <trkpt lat="36.9244960" lon="-2.4346140">
        <ele>128.7</ele>
        <time>2020-02-16T07:09:20Z</time>
      </trkpt>
      <trkpt lat="36.9244840" lon="-2.4345820">
        <ele>129.2</ele>
        <time>2020-02-16T07:09:21Z</time>
      </trkpt>
      <trkpt lat="36.9244750" lon="-2.4345550">
        <ele>129.2</ele>
        <time>2020-02-16T07:09:22Z</time>
      </trkpt>
      <trkpt lat="36.9244640" lon="-2.4345290">
        <ele>128.9</ele>
        <time>2020-02-16T07:09:23Z</time>
      </trkpt>
      <trkpt lat="36.9244560" lon="-2.4345070">
        <ele>128.9</ele>
        <time>2020-02-16T07:09:24Z</time>
      </trkpt>
      <trkpt lat="36.9244450" lon="-2.4344740">
        <ele>129.4</ele>
        <time>2020-02-16T07:09:25Z</time>
      </trkpt>
      <trkpt lat="36.9244340" lon="-2.4344490">
        <ele>129.0</ele>
        <time>2020-02-16T07:09:26Z</time>
      </trkpt>
      <trkpt lat="36.9244270" lon="-2.4344300">
        <ele>129.0</ele>
        <time>2020-02-16T07:09:27Z</time>
      </trkpt>
      <trkpt lat="36.9244150" lon="-2.4343990">
        <ele>129.4</ele>
        <time>2020-02-16T07:09:28Z</time>
      </trkpt>
      <trkpt lat="36.9244070" lon="-2.4343790">
        <ele>129.4</ele>
        <time>2020-02-16T07:09:29Z</time>
      </trkpt>
      <trkpt lat="36.9243960" lon="-2.4343500">
        <ele>129.0</ele>
        <time>2020-02-16T07:09:30Z</time>
      </trkpt>
      <trkpt lat="36.9243840" lon="-2.4343250">
        <ele>129.4</ele>
        <time>2020-02-16T07:09:31Z</time>
      </trkpt>
      <trkpt lat="36.9243740" lon="-2.4343020">
        <ele>129.4</ele>
        <time>2020-02-16T07:09:32Z</time>
      </trkpt>
      <trkpt lat="36.9243630" lon="-2.4342770">
        <ele>129.0</ele>
        <time>2020-02-16T07:09:33Z</time>
      </trkpt>
      <trkpt lat="36.9243510" lon="-2.4342540">
        <ele>129.0</ele>
        <time>2020-02-16T07:09:34Z</time>
      </trkpt>
      <trkpt lat="36.9243400" lon="-2.4342300">
        <ele>129.4</ele>
        <time>2020-02-16T07:09:35Z</time>
      </trkpt>
      <trkpt lat="36.9243270" lon="-2.4342070">
        <ele>128.7</ele>
        <time>2020-02-16T07:09:36Z</time>
      </trkpt>
      <trkpt lat="36.9243180" lon="-2.4341890">
        <ele>129.1</ele>
        <time>2020-02-16T07:09:37Z</time>
      </trkpt>
      <trkpt lat="36.9243020" lon="-2.4341590">
        <ele>128.3</ele>
        <time>2020-02-16T07:09:38Z</time>
      </trkpt>
      <trkpt lat="36.9242880" lon="-2.4341370">
        <ele>128.8</ele>
        <time>2020-02-16T07:09:39Z</time>
      </trkpt>
      <trkpt lat="36.9242720" lon="-2.4341070">
        <ele>129.2</ele>
        <time>2020-02-16T07:09:40Z</time>
      </trkpt>
      <trkpt lat="36.9242570" lon="-2.4340840">
        <ele>128.5</ele>
        <time>2020-02-16T07:09:41Z</time>
      </trkpt>
      <trkpt lat="36.9242460" lon="-2.4340640">
        <ele>128.9</ele>
        <time>2020-02-16T07:09:42Z</time>
      </trkpt>
      <trkpt lat="36.9242300" lon="-2.4340370">
        <ele>128.3</ele>
        <time>2020-02-16T07:09:43Z</time>
      </trkpt>
      <trkpt lat="36.9242180" lon="-2.4340200">
        <ele>128.8</ele>
        <time>2020-02-16T07:09:44Z</time>
      </trkpt>
      <trkpt lat="36.9242020" lon="-2.4339990">
        <ele>128.7</ele>
        <time>2020-02-16T07:09:45Z</time>
      </trkpt>
      <trkpt lat="36.9241880" lon="-2.4339820">
        <ele>128.7</ele>
        <time>2020-02-16T07:09:46Z</time>
      </trkpt>
      <trkpt lat="36.9241760" lon="-2.4339700">
        <ele>128.7</ele>
        <time>2020-02-16T07:09:47Z</time>
      </trkpt>
      <trkpt lat="36.9241620" lon="-2.4339540">
        <ele>128.2</ele>
        <time>2020-02-16T07:09:48Z</time>
      </trkpt>
      <trkpt lat="36.9241450" lon="-2.4339350">
        <ele>128.7</ele>
        <time>2020-02-16T07:09:49Z</time>
      </trkpt>
      <trkpt lat="36.9241300" lon="-2.4339170">
        <ele>128.3</ele>
        <time>2020-02-16T07:09:50Z</time>
      </trkpt>
      <trkpt lat="36.9240470" lon="-2.4338990">
        <ele>128.3</ele>
        <time>2020-02-16T07:09:51Z</time>
      </trkpt>
      <trkpt lat="36.9240280" lon="-2.4338800">
        <ele>128.3</ele>
        <time>2020-02-16T07:09:52Z</time>
      </trkpt>
      <trkpt lat="36.9240080" lon="-2.4338600">
        <ele>128.2</ele>
        <time>2020-02-16T07:09:53Z</time>
      </trkpt>
      <trkpt lat="36.9239900" lon="-2.4338400">
        <ele>128.6</ele>
        <time>2020-02-16T07:09:54Z</time>
      </trkpt>
      <trkpt lat="36.9239780" lon="-2.4338260">
        <ele>128.6</ele>
        <time>2020-02-16T07:09:55Z</time>
      </trkpt>
      <trkpt lat="36.9239580" lon="-2.4338070">
        <ele>129.0</ele>
        <time>2020-02-16T07:09:56Z</time>
      </trkpt>
      <trkpt lat="36.9239350" lon="-2.4337850">
        <ele>128.9</ele>
        <time>2020-02-16T07:09:57Z</time>
      </trkpt>
      <trkpt lat="36.9239130" lon="-2.4337680">
        <ele>129.3</ele>
        <time>2020-02-16T07:09:58Z</time>
      </trkpt>
      <trkpt lat="36.9238930" lon="-2.4337470">
        <ele>129.3</ele>
        <time>2020-02-16T07:09:59Z</time>
      </trkpt>
      <trkpt lat="36.9238750" lon="-2.4337270">
        <ele>129.5</ele>
        <time>2020-02-16T07:10:00Z</time>
      </trkpt>
      <trkpt lat="36.9238600" lon="-2.4337110">
        <ele>129.5</ele>
        <time>2020-02-16T07:10:01Z</time>
      </trkpt>
      <trkpt lat="36.9238380" lon="-2.4336880">
        <ele>129.5</ele>
        <time>2020-02-16T07:10:02Z</time>
      </trkpt>
      <trkpt lat="36.9238220" lon="-2.4336700">
        <ele>129.8</ele>
        <time>2020-02-16T07:10:03Z</time>
      </trkpt>
      <trkpt lat="36.9238020" lon="-2.4336480">
        <ele>129.8</ele>
        <time>2020-02-16T07:10:04Z</time>
      </trkpt>
      <trkpt lat="36.9237870" lon="-2.4336320">
        <ele>129.9</ele>
        <time>2020-02-16T07:10:05Z</time>
      </trkpt>
      <trkpt lat="36.9237630" lon="-2.4336070">
        <ele>129.9</ele>
        <time>2020-02-16T07:10:06Z</time>
      </trkpt>
      <trkpt lat="36.9237470" lon="-2.4335890">
        <ele>130.1</ele>
        <time>2020-02-16T07:10:07Z</time>
      </trkpt>
      <trkpt lat="36.9237350" lon="-2.4335760">
        <ele>130.1</ele>
        <time>2020-02-16T07:10:08Z</time>
      </trkpt>
      <trkpt lat="36.9237200" lon="-2.4335490">
        <ele>130.2</ele>
        <time>2020-02-16T07:10:09Z</time>
      </trkpt>
      <trkpt lat="36.9237050" lon="-2.4335290">
        <ele>130.2</ele>
        <time>2020-02-16T07:10:10Z</time>
      </trkpt>
      <trkpt lat="36.9236900" lon="-2.4335090">
        <ele>130.3</ele>
        <time>2020-02-16T07:10:11Z</time>
      </trkpt>
      <trkpt lat="36.9236760" lon="-2.4334870">
        <ele>130.3</ele>
        <time>2020-02-16T07:10:12Z</time>
      </trkpt>
      <trkpt lat="36.9236620" lon="-2.4334660">
        <ele>130.4</ele>
        <time>2020-02-16T07:10:13Z</time>
      </trkpt>
      <trkpt lat="36.9236490" lon="-2.4334390">
        <ele>130.4</ele>
        <time>2020-02-16T07:10:14Z</time>
      </trkpt>
      <trkpt lat="36.9236340" lon="-2.4334140">
        <ele>130.5</ele>
        <time>2020-02-16T07:10:15Z</time>
      </trkpt>
      <trkpt lat="36.9236220" lon="-2.4333920">
        <ele>130.5</ele>
        <time>2020-02-16T07:10:16Z</time>
      </trkpt>
      <trkpt lat="36.9236060" lon="-2.4333640">
        <ele>130.6</ele>
        <time>2020-02-16T07:10:17Z</time>
      </trkpt>
      <trkpt lat="36.9235950" lon="-2.4333420">
        <ele>130.6</ele>
        <time>2020-02-16T07:10:18Z</time>
      </trkpt>
      <trkpt lat="36.9235780" lon="-2.4333110">
        <ele>130.6</ele>
        <time>2020-02-16T07:10:19Z</time>
      </trkpt>
      <trkpt lat="36.9235650" lon="-2.4332870">
        <ele>130.7</ele>
        <time>2020-02-16T07:10:20Z</time>
      </trkpt>
      <trkpt lat="36.9235560" lon="-2.4332690">
        <ele>130.7</ele>
        <time>2020-02-16T07:10:21Z</time>
      </trkpt>
      <trkpt lat="36.9235390" lon="-2.4332370">
        <ele>130.8</ele>
        <time>2020-02-16T07:10:22Z</time>
      </trkpt>
      <trkpt lat="36.9235280" lon="-2.4332170">
        <ele>130.8</ele>
        <time>2020-02-16T07:10:23Z</time>
      </trkpt>
      <trkpt lat="36.9235150" lon="-2.4331940">
        <ele>130.9</ele>
        <time>2020-02-16T07:10:24Z</time>
      </trkpt>
      <trkpt lat="36.9235010" lon="-2.4331690">
        <ele>131.0</ele>
        <time>2020-02-16T07:10:25Z</time>
      </trkpt>
      <trkpt lat="36.9234860" lon="-2.4331420">
        <ele>131.0</ele>
        <time>2020-02-16T07:10:26Z</time>
      </trkpt>
      <trkpt lat="36.9234720" lon="-2.4331170">
        <ele>131.1</ele>
        <time>2020-02-16T07:10:27Z</time>
      </trkpt>
      <trkpt lat="36.9234580" lon="-2.4330890">
        <ele>131.1</ele>
        <time>2020-02-16T07:10:28Z</time>
      </trkpt>
      <trkpt lat="36.9234450" lon="-2.4330640">
        <ele>131.1</ele>
        <time>2020-02-16T07:10:29Z</time>
      </trkpt>
      <trkpt lat="36.9234340" lon="-2.4330390">
        <ele>131.2</ele>
        <time>2020-02-16T07:10:30Z</time>
      </trkpt>
      <trkpt lat="36.9234250" lon="-2.4330170">
        <ele>131.2</ele>
        <time>2020-02-16T07:10:31Z</time>
      </trkpt>
      <trkpt lat="36.9234110" lon="-2.4329860">
        <ele>131.3</ele>
        <time>2020-02-16T07:10:32Z</time>
      </trkpt>
      <trkpt lat="36.9234050" lon="-2.4329670">
        <ele>131.3</ele>
        <time>2020-02-16T07:10:33Z</time>
      </trkpt>
      <trkpt lat="36.9233910" lon="-2.4329370">
        <ele>131.3</ele>
        <time>2020-02-16T07:10:34Z</time>
      </trkpt>
      <trkpt lat="36.9233800" lon="-2.4329090">
        <ele>131.4</ele>
        <time>2020-02-16T07:10:35Z</time>
      </trkpt>
      <trkpt lat="36.9233690" lon="-2.4328810">
        <ele>131.4</ele>
        <time>2020-02-16T07:10:36Z</time>
      </trkpt>
      <trkpt lat="36.9233580" lon="-2.4328520">
        <ele>131.5</ele>
        <time>2020-02-16T07:10:37Z</time>
      </trkpt>
      <trkpt lat="36.9233510" lon="-2.4328260">
        <ele>131.5</ele>
        <time>2020-02-16T07:10:38Z</time>
      </trkpt>
      <trkpt lat="36.9233440" lon="-2.4328020">
        <ele>131.5</ele>
        <time>2020-02-16T07:10:39Z</time>
      </trkpt>
      <trkpt lat="36.9233390" lon="-2.4327790">
        <ele>131.7</ele>
        <time>2020-02-16T07:10:40Z</time>
      </trkpt>
      <trkpt lat="36.9233340" lon="-2.4327540">
        <ele>131.7</ele>
        <time>2020-02-16T07:10:41Z</time>
      </trkpt>
      <trkpt lat="36.9233260" lon="-2.4327260">
        <ele>131.7</ele>
        <time>2020-02-16T07:10:42Z</time>
      </trkpt>
      <trkpt lat="36.9233230" lon="-2.4327040">
        <ele>131.7</ele>
        <time>2020-02-16T07:10:43Z</time>
      </trkpt>
      <trkpt lat="36.9233190" lon="-2.4326790">
        <ele>131.7</ele>
        <time>2020-02-16T07:10:44Z</time>
      </trkpt>
      <trkpt lat="36.9233140" lon="-2.4326560">
        <ele>131.7</ele>
        <time>2020-02-16T07:10:45Z</time>
      </trkpt>
      <trkpt lat="36.9233080" lon="-2.4326290">
        <ele>131.7</ele>
        <time>2020-02-16T07:10:46Z</time>
      </trkpt>
      <trkpt lat="36.9233010" lon="-2.4325990">
        <ele>131.9</ele>
        <time>2020-02-16T07:10:47Z</time>
      </trkpt>
      <trkpt lat="36.9232950" lon="-2.4325710">
        <ele>131.9</ele>
        <time>2020-02-16T07:10:48Z</time>
      </trkpt>
      <trkpt lat="36.9232910" lon="-2.4325470">
        <ele>131.9</ele>
        <time>2020-02-16T07:10:49Z</time>
      </trkpt>
      <trkpt lat="36.9232850" lon="-2.4325220">
        <ele>132.0</ele>
        <time>2020-02-16T07:10:50Z</time>
      </trkpt>
      <trkpt lat="36.9232970" lon="-2.4324970">
        <ele>131.9</ele>
        <time>2020-02-16T07:10:51Z</time>
      </trkpt>
      <trkpt lat="36.9232800" lon="-2.4324720">
        <ele>132.0</ele>
        <time>2020-02-16T07:10:52Z</time>
      </trkpt>
      <trkpt lat="36.9232630" lon="-2.4324510">
        <ele>132.3</ele>
        <time>2020-02-16T07:10:53Z</time>
      </trkpt>
      <trkpt lat="36.9232460" lon="-2.4324260">
        <ele>132.3</ele>
        <time>2020-02-16T07:10:54Z</time>
      </trkpt>
      <trkpt lat="36.9232300" lon="-2.4324010">
        <ele>132.7</ele>
        <time>2020-02-16T07:10:55Z</time>
      </trkpt>
      <trkpt lat="36.9232140" lon="-2.4323740">
        <ele>132.8</ele>
        <time>2020-02-16T07:10:56Z</time>
      </trkpt>
      <trkpt lat="36.9232020" lon="-2.4323470">
        <ele>133.4</ele>
        <time>2020-02-16T07:10:57Z</time>
      </trkpt>
      <trkpt lat="36.9231890" lon="-2.4323190">
        <ele>133.4</ele>
        <time>2020-02-16T07:10:58Z</time>
      </trkpt>
      <trkpt lat="36.9231780" lon="-2.4322920">
        <ele>133.5</ele>
        <time>2020-02-16T07:10:59Z</time>
      </trkpt>
      <trkpt lat="36.9231710" lon="-2.4322720">
        <ele>133.5</ele>
        <time>2020-02-16T07:11:00Z</time>
      </trkpt>
      <trkpt lat="36.9231590" lon="-2.4322390">
        <ele>134.2</ele>
        <time>2020-02-16T07:11:01Z</time>
      </trkpt>
      <trkpt lat="36.9231510" lon="-2.4322120">
        <ele>134.4</ele>
        <time>2020-02-16T07:11:02Z</time>
      </trkpt>
      <trkpt lat="36.9231430" lon="-2.4321840">
        <ele>134.6</ele>
        <time>2020-02-16T07:11:03Z</time>
      </trkpt>
      <trkpt lat="36.9231360" lon="-2.4321560">
        <ele>134.6</ele>
        <time>2020-02-16T07:11:04Z</time>
      </trkpt>
      <trkpt lat="36.9231330" lon="-2.4321310">
        <ele>135.3</ele>
        <time>2020-02-16T07:11:05Z</time>
      </trkpt>
      <trkpt lat="36.9231300" lon="-2.4321020">
        <ele>135.3</ele>
        <time>2020-02-16T07:11:06Z</time>
      </trkpt>
      <trkpt lat="36.9231270" lon="-2.4320720">
        <ele>135.4</ele>
        <time>2020-02-16T07:11:07Z</time>
      </trkpt>
      <trkpt lat="36.9231550" lon="-2.4320440">
        <ele>135.0</ele>
        <time>2020-02-16T07:11:08Z</time>
      </trkpt>
      <trkpt lat="36.9231590" lon="-2.4320160">
        <ele>135.0</ele>
        <time>2020-02-16T07:11:09Z</time>
      </trkpt>
      <trkpt lat="36.9231600" lon="-2.4319860">
        <ele>135.1</ele>
        <time>2020-02-16T07:11:10Z</time>
      </trkpt>
      <trkpt lat="36.9231710" lon="-2.4319570">
        <ele>134.6</ele>
        <time>2020-02-16T07:11:11Z</time>
      </trkpt>
      <trkpt lat="36.9231820" lon="-2.4319290">
        <ele>134.6</ele>
        <time>2020-02-16T07:11:12Z</time>
      </trkpt>
      <trkpt lat="36.9231940" lon="-2.4319010">
        <ele>134.7</ele>
        <time>2020-02-16T07:11:13Z</time>
      </trkpt>
      <trkpt lat="36.9232000" lon="-2.4318720">
        <ele>134.8</ele>
        <time>2020-02-16T07:11:14Z</time>
      </trkpt>
      <trkpt lat="36.9232040" lon="-2.4318440">
        <ele>134.8</ele>
        <time>2020-02-16T07:11:15Z</time>
      </trkpt>
      <trkpt lat="36.9232060" lon="-2.4318220">
        <ele>134.5</ele>
        <time>2020-02-16T07:11:16Z</time>
      </trkpt>
      <trkpt lat="36.9232140" lon="-2.4317870">
        <ele>134.6</ele>
        <time>2020-02-16T07:11:17Z</time>
      </trkpt>
      <trkpt lat="36.9232200" lon="-2.4317570">
        <ele>134.6</ele>
        <time>2020-02-16T07:11:18Z</time>
      </trkpt>
      <trkpt lat="36.9232290" lon="-2.4317270">
        <ele>134.7</ele>
        <time>2020-02-16T07:11:19Z</time>
      </trkpt>
      <trkpt lat="36.9232370" lon="-2.4316990">
        <ele>134.8</ele>
        <time>2020-02-16T07:11:20Z</time>
      </trkpt>
      <trkpt lat="36.9232430" lon="-2.4316770">
        <ele>134.4</ele>
        <time>2020-02-16T07:11:21Z</time>
      </trkpt>
      <trkpt lat="36.9232500" lon="-2.4316440">
        <ele>134.5</ele>
        <time>2020-02-16T07:11:22Z</time>
      </trkpt>
      <trkpt lat="36.9232550" lon="-2.4316190">
        <ele>134.6</ele>
        <time>2020-02-16T07:11:23Z</time>
      </trkpt>
      <trkpt lat="36.9232620" lon="-2.4315960">
        <ele>134.6</ele>
        <time>2020-02-16T07:11:24Z</time>
      </trkpt>
      <trkpt lat="36.9232720" lon="-2.4315660">
        <ele>134.7</ele>
        <time>2020-02-16T07:11:25Z</time>
      </trkpt>
      <trkpt lat="36.9232820" lon="-2.4315380">
        <ele>134.6</ele>
        <time>2020-02-16T07:11:26Z</time>
      </trkpt>
      <trkpt lat="36.9232930" lon="-2.4315090">
        <ele>134.5</ele>
        <time>2020-02-16T07:11:27Z</time>
      </trkpt>
      <trkpt lat="36.9233020" lon="-2.4314840">
        <ele>134.6</ele>
        <time>2020-02-16T07:11:28Z</time>
      </trkpt>
      <trkpt lat="36.9233100" lon="-2.4314630">
        <ele>134.4</ele>
        <time>2020-02-16T07:11:29Z</time>
      </trkpt>
      <trkpt lat="36.9233190" lon="-2.4314360">
        <ele>134.5</ele>
        <time>2020-02-16T07:11:30Z</time>
      </trkpt>
      <trkpt lat="36.9233270" lon="-2.4314080">
        <ele>134.5</ele>
        <time>2020-02-16T07:11:31Z</time>
      </trkpt>
      <trkpt lat="36.9233380" lon="-2.4313760">
        <ele>134.5</ele>
        <time>2020-02-16T07:11:32Z</time>
      </trkpt>
      <trkpt lat="36.9233460" lon="-2.4313480">
        <ele>134.4</ele>
        <time>2020-02-16T07:11:33Z</time>
      </trkpt>
      <trkpt lat="36.9233550" lon="-2.4313180">
        <ele>134.5</ele>
        <time>2020-02-16T07:11:34Z</time>
      </trkpt>
      <trkpt lat="36.9233630" lon="-2.4312910">
        <ele>134.5</ele>
        <time>2020-02-16T07:11:35Z</time>
      </trkpt>
      <trkpt lat="36.9233710" lon="-2.4312630">
        <ele>134.5</ele>
        <time>2020-02-16T07:11:36Z</time>
      </trkpt>
      <trkpt lat="36.9233800" lon="-2.4312330">
        <ele>134.5</ele>
        <time>2020-02-16T07:11:37Z</time>
      </trkpt>
      <trkpt lat="36.9233870" lon="-2.4312030">
        <ele>134.5</ele>
        <time>2020-02-16T07:11:38Z</time>
      </trkpt>
      <trkpt lat="36.9233940" lon="-2.4311710">
        <ele>134.5</ele>
        <time>2020-02-16T07:11:39Z</time>
      </trkpt>
      <trkpt lat="36.9233990" lon="-2.4311390">
        <ele>134.6</ele>
        <time>2020-02-16T07:11:40Z</time>
      </trkpt>
      <trkpt lat="36.9234040" lon="-2.4311140">
        <ele>134.6</ele>
        <time>2020-02-16T07:11:41Z</time>
      </trkpt>
      <trkpt lat="36.9234100" lon="-2.4310760">
        <ele>134.7</ele>
        <time>2020-02-16T07:11:42Z</time>
      </trkpt>
      <trkpt lat="36.9234140" lon="-2.4310460">
        <ele>134.7</ele>
        <time>2020-02-16T07:11:43Z</time>
      </trkpt>
      <trkpt lat="36.9234170" lon="-2.4310140">
        <ele>134.8</ele>
        <time>2020-02-16T07:11:44Z</time>
      </trkpt>
      <trkpt lat="36.9234180" lon="-2.4309830">
        <ele>134.8</ele>
        <time>2020-02-16T07:11:45Z</time>
      </trkpt>
      <trkpt lat="36.9234190" lon="-2.4309530">
        <ele>134.9</ele>
        <time>2020-02-16T07:11:46Z</time>
      </trkpt>
      <trkpt lat="36.9234190" lon="-2.4309230">
        <ele>134.9</ele>
        <time>2020-02-16T07:11:47Z</time>
      </trkpt>
      <trkpt lat="36.9234200" lon="-2.4308930">
        <ele>135.0</ele>
        <time>2020-02-16T07:11:48Z</time>
      </trkpt>
      <trkpt lat="36.9234180" lon="-2.4308630">
        <ele>135.0</ele>
        <time>2020-02-16T07:11:49Z</time>
      </trkpt>
      <trkpt lat="36.9234160" lon="-2.4308330">
        <ele>135.1</ele>
        <time>2020-02-16T07:11:50Z</time>
      </trkpt>
      <trkpt lat="36.9234150" lon="-2.4308040">
        <ele>135.1</ele>
        <time>2020-02-16T07:11:51Z</time>
      </trkpt>
      <trkpt lat="36.9234120" lon="-2.4307740">
        <ele>135.1</ele>
        <time>2020-02-16T07:11:52Z</time>
      </trkpt>
      <trkpt lat="36.9234070" lon="-2.4307460">
        <ele>135.2</ele>
        <time>2020-02-16T07:11:53Z</time>
      </trkpt>
      <trkpt lat="36.9234050" lon="-2.4307180">
        <ele>135.2</ele>
        <time>2020-02-16T07:11:54Z</time>
      </trkpt>
      <trkpt lat="36.9234000" lon="-2.4306930">
        <ele>135.2</ele>
        <time>2020-02-16T07:11:55Z</time>
      </trkpt>
      <trkpt lat="36.9233970" lon="-2.4306640">
        <ele>135.3</ele>
        <time>2020-02-16T07:11:56Z</time>
      </trkpt>
      <trkpt lat="36.9233920" lon="-2.4306260">
        <ele>135.4</ele>
        <time>2020-02-16T07:11:57Z</time>
      </trkpt>
      <trkpt lat="36.9233880" lon="-2.4305960">
        <ele>135.5</ele>
        <time>2020-02-16T07:11:58Z</time>
      </trkpt>
      <trkpt lat="36.9233850" lon="-2.4305660">
        <ele>135.5</ele>
        <time>2020-02-16T07:11:59Z</time>
      </trkpt>
      <trkpt lat="36.9233800" lon="-2.4305380">
        <ele>135.6</ele>
        <time>2020-02-16T07:12:00Z</time>
      </trkpt>
      <trkpt lat="36.9233780" lon="-2.4305160">
        <ele>135.6</ele>
        <time>2020-02-16T07:12:01Z</time>
      </trkpt>
      <trkpt lat="36.9233740" lon="-2.4304810">
        <ele>135.7</ele>
        <time>2020-02-16T07:12:02Z</time>
      </trkpt>
      <trkpt lat="36.9233680" lon="-2.4304530">
        <ele>135.8</ele>
        <time>2020-02-16T07:12:03Z</time>
      </trkpt>
      <trkpt lat="36.9233620" lon="-2.4304230">
        <ele>135.9</ele>
        <time>2020-02-16T07:12:04Z</time>
      </trkpt>
      <trkpt lat="36.9233580" lon="-2.4303930">
        <ele>135.9</ele>
        <time>2020-02-16T07:12:05Z</time>
      </trkpt>
      <trkpt lat="36.9233510" lon="-2.4303690">
        <ele>135.9</ele>
        <time>2020-02-16T07:12:06Z</time>
      </trkpt>
      <trkpt lat="36.9233440" lon="-2.4303330">
        <ele>136.0</ele>
        <time>2020-02-16T07:12:07Z</time>
      </trkpt>
      <trkpt lat="36.9233370" lon="-2.4303030">
        <ele>136.1</ele>
        <time>2020-02-16T07:12:08Z</time>
      </trkpt>
      <trkpt lat="36.9233300" lon="-2.4302730">
        <ele>136.2</ele>
        <time>2020-02-16T07:12:09Z</time>
      </trkpt>
      <trkpt lat="36.9233250" lon="-2.4302410">
        <ele>136.3</ele>
        <time>2020-02-16T07:12:10Z</time>
      </trkpt>
      <trkpt lat="36.9233170" lon="-2.4302140">
        <ele>136.3</ele>
        <time>2020-02-16T07:12:11Z</time>
      </trkpt>
      <trkpt lat="36.9233090" lon="-2.4301780">
        <ele>136.4</ele>
        <time>2020-02-16T07:12:12Z</time>
      </trkpt>
      <trkpt lat="36.9233000" lon="-2.4301440">
        <ele>136.7</ele>
        <time>2020-02-16T07:12:13Z</time>
      </trkpt>
      <trkpt lat="36.9232940" lon="-2.4301130">
        <ele>136.8</ele>
        <time>2020-02-16T07:12:14Z</time>
      </trkpt>
      <trkpt lat="36.9232850" lon="-2.4300860">
        <ele>136.8</ele>
        <time>2020-02-16T07:12:15Z</time>
      </trkpt>
      <trkpt lat="36.9232790" lon="-2.4300580">
        <ele>136.9</ele>
        <time>2020-02-16T07:12:16Z</time>
      </trkpt>
      <trkpt lat="36.9232720" lon="-2.4300290">
        <ele>137.3</ele>
        <time>2020-02-16T07:12:17Z</time>
      </trkpt>
      <trkpt lat="36.9232650" lon="-2.4300040">
        <ele>137.3</ele>
        <time>2020-02-16T07:12:18Z</time>
      </trkpt>
      <trkpt lat="36.9232580" lon="-2.4299760">
        <ele>137.4</ele>
        <time>2020-02-16T07:12:19Z</time>
      </trkpt>
      <trkpt lat="36.9232510" lon="-2.4299490">
        <ele>137.5</ele>
        <time>2020-02-16T07:12:20Z</time>
      </trkpt>
      <trkpt lat="36.9232460" lon="-2.4299210">
        <ele>137.5</ele>
        <time>2020-02-16T07:12:21Z</time>
      </trkpt>
      <trkpt lat="36.9232410" lon="-2.4298910">
        <ele>137.5</ele>
        <time>2020-02-16T07:12:22Z</time>
      </trkpt>
      <trkpt lat="36.9232360" lon="-2.4298610">
        <ele>138.0</ele>
        <time>2020-02-16T07:12:23Z</time>
      </trkpt>
      <trkpt lat="36.9232310" lon="-2.4298310">
        <ele>138.0</ele>
        <time>2020-02-16T07:12:24Z</time>
      </trkpt>
      <trkpt lat="36.9232280" lon="-2.4297990">
        <ele>138.1</ele>
        <time>2020-02-16T07:12:25Z</time>
      </trkpt>
      <trkpt lat="36.9232270" lon="-2.4297760">
        <ele>138.1</ele>
        <time>2020-02-16T07:12:26Z</time>
      </trkpt>
      <trkpt lat="36.9232200" lon="-2.4297410">
        <ele>138.1</ele>
        <time>2020-02-16T07:12:27Z</time>
      </trkpt>
      <trkpt lat="36.9232200" lon="-2.4297110">
        <ele>138.2</ele>
        <time>2020-02-16T07:12:28Z</time>
      </trkpt>
      <trkpt lat="36.9232180" lon="-2.4296810">
        <ele>138.2</ele>
        <time>2020-02-16T07:12:29Z</time>
      </trkpt>
      <trkpt lat="36.9232150" lon="-2.4296510">
        <ele>138.2</ele>
        <time>2020-02-16T07:12:30Z</time>
      </trkpt>
      <trkpt lat="36.9232140" lon="-2.4296210">
        <ele>138.2</ele>
        <time>2020-02-16T07:12:31Z</time>
      </trkpt>
      <trkpt lat="36.9232140" lon="-2.4295930">
        <ele>138.2</ele>
        <time>2020-02-16T07:12:32Z</time>
      </trkpt>
      <trkpt lat="36.9232140" lon="-2.4295630">
        <ele>138.2</ele>
        <time>2020-02-16T07:12:33Z</time>
      </trkpt>
      <trkpt lat="36.9232140" lon="-2.4295330">
        <ele>138.2</ele>
        <time>2020-02-16T07:12:34Z</time>
      </trkpt>
      <trkpt lat="36.9232150" lon="-2.4295030">
        <ele>138.2</ele>
        <time>2020-02-16T07:12:35Z</time>
      </trkpt>
      <trkpt lat="36.9232180" lon="-2.4294730">
        <ele>138.3</ele>
        <time>2020-02-16T07:12:36Z</time>
      </trkpt>
      <trkpt lat="36.9232190" lon="-2.4294410">
        <ele>138.3</ele>
        <time>2020-02-16T07:12:37Z</time>
      </trkpt>
      <trkpt lat="36.9232820" lon="-2.4294110">
        <ele>137.2</ele>
        <time>2020-02-16T07:12:38Z</time>
      </trkpt>
      <trkpt lat="36.9232950" lon="-2.4293840">
        <ele>137.2</ele>
        <time>2020-02-16T07:12:39Z</time>
      </trkpt>
      <trkpt lat="36.9233080" lon="-2.4293600">
        <ele>136.7</ele>
        <time>2020-02-16T07:12:40Z</time>
      </trkpt>
      <trkpt lat="36.9233220" lon="-2.4293350">
        <ele>136.8</ele>
        <time>2020-02-16T07:12:41Z</time>
      </trkpt>
      <trkpt lat="36.9233360" lon="-2.4293100">
        <ele>136.8</ele>
        <time>2020-02-16T07:12:42Z</time>
      </trkpt>
      <trkpt lat="36.9233520" lon="-2.4292810">
        <ele>136.5</ele>
        <time>2020-02-16T07:12:43Z</time>
      </trkpt>
      <trkpt lat="36.9233690" lon="-2.4292550">
        <ele>136.5</ele>
        <time>2020-02-16T07:12:44Z</time>
      </trkpt>
      <trkpt lat="36.9233860" lon="-2.4292310">
        <ele>136.3</ele>
        <time>2020-02-16T07:12:45Z</time>
      </trkpt>
      <trkpt lat="36.9234040" lon="-2.4292080">
        <ele>136.4</ele>
        <time>2020-02-16T07:12:46Z</time>
      </trkpt>
      <trkpt lat="36.9234220" lon="-2.4291830">
        <ele>136.3</ele>
        <time>2020-02-16T07:12:47Z</time>
      </trkpt>
      <trkpt lat="36.9234410" lon="-2.4291560">
        <ele>136.3</ele>
        <time>2020-02-16T07:12:48Z</time>
      </trkpt>
      <trkpt lat="36.9234580" lon="-2.4291280">
        <ele>136.4</ele>
        <time>2020-02-16T07:12:49Z</time>
      </trkpt>
      <trkpt lat="36.9234690" lon="-2.4291100">
        <ele>136.4</ele>
        <time>2020-02-16T07:12:50Z</time>
      </trkpt>
      <trkpt lat="36.9234830" lon="-2.4290860">
        <ele>136.5</ele>
        <time>2020-02-16T07:12:51Z</time>
      </trkpt>
      <trkpt lat="36.9235000" lon="-2.4290600">
        <ele>136.5</ele>
        <time>2020-02-16T07:12:52Z</time>
      </trkpt>
      <trkpt lat="36.9235160" lon="-2.4290360">
        <ele>136.6</ele>
        <time>2020-02-16T07:12:53Z</time>
      </trkpt>
      <trkpt lat="36.9235420" lon="-2.4290160">
        <ele>136.6</ele>
        <time>2020-02-16T07:12:54Z</time>
      </trkpt>
      <trkpt lat="36.9235620" lon="-2.4289960">
        <ele>136.8</ele>
        <time>2020-02-16T07:12:55Z</time>
      </trkpt>
      <trkpt lat="36.9235790" lon="-2.4289790">
        <ele>136.8</ele>
        <time>2020-02-16T07:12:56Z</time>
      </trkpt>
      <trkpt lat="36.9235950" lon="-2.4289560">
        <ele>136.9</ele>
        <time>2020-02-16T07:12:57Z</time>
      </trkpt>
      <trkpt lat="36.9236140" lon="-2.4289340">
        <ele>136.9</ele>
        <time>2020-02-16T07:12:58Z</time>
      </trkpt>
      <trkpt lat="36.9236270" lon="-2.4289140">
        <ele>137.1</ele>
        <time>2020-02-16T07:12:59Z</time>
      </trkpt>
      <trkpt lat="36.9236440" lon="-2.4288920">
        <ele>137.1</ele>
        <time>2020-02-16T07:13:00Z</time>
      </trkpt>
      <trkpt lat="36.9236570" lon="-2.4288740">
        <ele>137.3</ele>
        <time>2020-02-16T07:13:01Z</time>
      </trkpt>
      <trkpt lat="36.9236800" lon="-2.4288460">
        <ele>137.3</ele>
        <time>2020-02-16T07:13:02Z</time>
      </trkpt>
      <trkpt lat="36.9236990" lon="-2.4288260">
        <ele>137.5</ele>
        <time>2020-02-16T07:13:03Z</time>
      </trkpt>
      <trkpt lat="36.9237220" lon="-2.4288040">
        <ele>137.5</ele>
        <time>2020-02-16T07:13:04Z</time>
      </trkpt>
      <trkpt lat="36.9237390" lon="-2.4287880">
        <ele>137.6</ele>
        <time>2020-02-16T07:13:05Z</time>
      </trkpt>
      <trkpt lat="36.9237600" lon="-2.4287670">
        <ele>137.6</ele>
        <time>2020-02-16T07:13:06Z</time>
      </trkpt>
      <trkpt lat="36.9237800" lon="-2.4287490">
        <ele>137.7</ele>
        <time>2020-02-16T07:13:07Z</time>
      </trkpt>
      <trkpt lat="36.9237970" lon="-2.4287350">
        <ele>137.7</ele>
        <time>2020-02-16T07:13:08Z</time>
      </trkpt>
      <trkpt lat="36.9238200" lon="-2.4287150">
        <ele>137.7</ele>
        <time>2020-02-16T07:13:09Z</time>
      </trkpt>
      <trkpt lat="36.9238350" lon="-2.4287030">
        <ele>137.8</ele>
        <time>2020-02-16T07:13:10Z</time>
      </trkpt>
      <trkpt lat="36.9238520" lon="-2.4286880">
        <ele>137.8</ele>
        <time>2020-02-16T07:13:11Z</time>
      </trkpt>
      <trkpt lat="36.9238700" lon="-2.4286710">
        <ele>137.8</ele>
        <time>2020-02-16T07:13:12Z</time>
      </trkpt>
      <trkpt lat="36.9238870" lon="-2.4286550">
        <ele>137.9</ele>
        <time>2020-02-16T07:13:13Z</time>
      </trkpt>
      <trkpt lat="36.9239050" lon="-2.4286360">
        <ele>137.8</ele>
        <time>2020-02-16T07:13:14Z</time>
      </trkpt>
      <trkpt lat="36.9239200" lon="-2.4286190">
        <ele>137.9</ele>
        <time>2020-02-16T07:13:15Z</time>
      </trkpt>
      <trkpt lat="36.9239320" lon="-2.4286050">
        <ele>137.9</ele>
        <time>2020-02-16T07:13:16Z</time>
      </trkpt>
      <trkpt lat="36.9239500" lon="-2.4285840">
        <ele>137.9</ele>
        <time>2020-02-16T07:13:17Z</time>
      </trkpt>
      <trkpt lat="36.9239700" lon="-2.4285610">
        <ele>137.9</ele>
        <time>2020-02-16T07:13:18Z</time>
      </trkpt>
      <trkpt lat="36.9239850" lon="-2.4285440">
        <ele>137.9</ele>
        <time>2020-02-16T07:13:19Z</time>
      </trkpt>
      <trkpt lat="36.9240050" lon="-2.4285200">
        <ele>138.0</ele>
        <time>2020-02-16T07:13:20Z</time>
      </trkpt>
      <trkpt lat="36.9240250" lon="-2.4284980">
        <ele>138.0</ele>
        <time>2020-02-16T07:13:21Z</time>
      </trkpt>
      <trkpt lat="36.9240380" lon="-2.4284810">
        <ele>138.0</ele>
        <time>2020-02-16T07:13:22Z</time>
      </trkpt>
      <trkpt lat="36.9240600" lon="-2.4284560">
        <ele>138.0</ele>
        <time>2020-02-16T07:13:23Z</time>
      </trkpt>
      <trkpt lat="36.9240780" lon="-2.4284340">
        <ele>138.1</ele>
        <time>2020-02-16T07:13:24Z</time>
      </trkpt>
      <trkpt lat="36.9240980" lon="-2.4284110">
        <ele>138.0</ele>
        <time>2020-02-16T07:13:25Z</time>
      </trkpt>
      <trkpt lat="36.9241180" lon="-2.4283870">
        <ele>138.2</ele>
        <time>2020-02-16T07:13:26Z</time>
      </trkpt>
      <trkpt lat="36.9241350" lon="-2.4283680">
        <ele>138.1</ele>
        <time>2020-02-16T07:13:27Z</time>
      </trkpt>
      <trkpt lat="36.9241570" lon="-2.4283430">
        <ele>138.2</ele>
        <time>2020-02-16T07:13:28Z</time>
      </trkpt>
      <trkpt lat="36.9241750" lon="-2.4283210">
        <ele>138.3</ele>
        <time>2020-02-16T07:13:29Z</time>
      </trkpt>
      <trkpt lat="36.9241880" lon="-2.4283050">
        <ele>138.3</ele>
        <time>2020-02-16T07:13:30Z</time>
      </trkpt>
      <trkpt lat="36.9242050" lon="-2.4282850">
        <ele>138.3</ele>
        <time>2020-02-16T07:13:31Z</time>
      </trkpt>
      <trkpt lat="36.9242300" lon="-2.4282570">
        <ele>138.4</ele>
        <time>2020-02-16T07:13:32Z</time>
      </trkpt>
      <trkpt lat="36.9242480" lon="-2.4282340">
        <ele>138.5</ele>
        <time>2020-02-16T07:13:33Z</time>
      </trkpt>
      <trkpt lat="36.9242720" lon="-2.4282070">
        <ele>138.5</ele>
        <time>2020-02-16T07:13:34Z</time>
      </trkpt>
      <trkpt lat="36.9242900" lon="-2.4281860">
        <ele>138.6</ele>
        <time>2020-02-16T07:13:35Z</time>
      </trkpt>
      <trkpt lat="36.9243070" lon="-2.4281450">
        <ele>138.7</ele>
        <time>2020-02-16T07:13:36Z</time>
      </trkpt>
      <trkpt lat="36.9243170" lon="-2.4281260">
        <ele>138.7</ele>
        <time>2020-02-16T07:13:37Z</time>
      </trkpt>
      <trkpt lat="36.9243350" lon="-2.4280980">
        <ele>138.8</ele>
        <time>2020-02-16T07:13:38Z</time>
      </trkpt>
      <trkpt lat="36.9243480" lon="-2.4280750">
        <ele>138.8</ele>
        <time>2020-02-16T07:13:39Z</time>
      </trkpt>
      <trkpt lat="36.9243620" lon="-2.4280560">
        <ele>138.9</ele>
        <time>2020-02-16T07:13:40Z</time>
      </trkpt>
      <trkpt lat="36.9243800" lon="-2.4280310">
        <ele>138.9</ele>
        <time>2020-02-16T07:13:41Z</time>
      </trkpt>
      <trkpt lat="36.9244020" lon="-2.4280040">
        <ele>139.0</ele>
        <time>2020-02-16T07:13:42Z</time>
      </trkpt>
      <trkpt lat="36.9244200" lon="-2.4279810">
        <ele>139.0</ele>
        <time>2020-02-16T07:13:43Z</time>
      </trkpt>
      <trkpt lat="36.9244380" lon="-2.4279610">
        <ele>139.2</ele>
        <time>2020-02-16T07:13:44Z</time>
      </trkpt>
      <trkpt lat="36.9244550" lon="-2.4279420">
        <ele>139.3</ele>
        <time>2020-02-16T07:13:45Z</time>
      </trkpt>
      <trkpt lat="36.9244700" lon="-2.4279260">
        <ele>139.4</ele>
        <time>2020-02-16T07:13:46Z</time>
      </trkpt>
      <trkpt lat="36.9244900" lon="-2.4279030">
        <ele>139.4</ele>
        <time>2020-02-16T07:13:47Z</time>
      </trkpt>
      <trkpt lat="36.9245070" lon="-2.4278840">
        <ele>139.5</ele>
        <time>2020-02-16T07:13:48Z</time>
      </trkpt>
      <trkpt lat="36.9245250" lon="-2.4278630">
        <ele>139.6</ele>
        <time>2020-02-16T07:13:49Z</time>
      </trkpt>
      <trkpt lat="36.9245430" lon="-2.4278440">
        <ele>139.7</ele>
        <time>2020-02-16T07:13:50Z</time>
      </trkpt>
      <trkpt lat="36.9245550" lon="-2.4278310">
        <ele>139.7</ele>
        <time>2020-02-16T07:13:51Z</time>
      </trkpt>
      <trkpt lat="36.9245750" lon="-2.4278100">
        <ele>139.7</ele>
        <time>2020-02-16T07:13:52Z</time>
      </trkpt>
      <trkpt lat="36.9245970" lon="-2.4277880">
        <ele>139.9</ele>
        <time>2020-02-16T07:13:53Z</time>
      </trkpt>
      <trkpt lat="36.9246120" lon="-2.4277740">
        <ele>139.9</ele>
        <time>2020-02-16T07:13:54Z</time>
      </trkpt>
      <trkpt lat="36.9246230" lon="-2.4277630">
        <ele>140.0</ele>
        <time>2020-02-16T07:13:55Z</time>
      </trkpt>
      <trkpt lat="36.9246480" lon="-2.4277400">
        <ele>140.1</ele>
        <time>2020-02-16T07:13:56Z</time>
      </trkpt>
      <trkpt lat="36.9246700" lon="-2.4277210">
        <ele>140.2</ele>
        <time>2020-02-16T07:13:57Z</time>
      </trkpt>
      <trkpt lat="36.9246930" lon="-2.4277010">
        <ele>140.3</ele>
        <time>2020-02-16T07:13:58Z</time>
      </trkpt>
      <trkpt lat="36.9247150" lon="-2.4276840">
        <ele>140.4</ele>
        <time>2020-02-16T07:13:59Z</time>
      </trkpt>
      <trkpt lat="36.9247370" lon="-2.4276670">
        <ele>140.5</ele>
        <time>2020-02-16T07:14:00Z</time>
      </trkpt>
      <trkpt lat="36.9247500" lon="-2.4276570">
        <ele>140.6</ele>
        <time>2020-02-16T07:14:01Z</time>
      </trkpt>
      <trkpt lat="36.9247670" lon="-2.4276430">
        <ele>140.6</ele>
        <time>2020-02-16T07:14:02Z</time>
      </trkpt>
      <trkpt lat="36.9247880" lon="-2.4276250">
        <ele>140.8</ele>
        <time>2020-02-16T07:14:03Z</time>
      </trkpt>
      <trkpt lat="36.9248050" lon="-2.4276100">
        <ele>140.8</ele>
        <time>2020-02-16T07:14:04Z</time>
      </trkpt>
      <trkpt lat="36.9248270" lon="-2.4275900">
        <ele>141.0</ele>
        <time>2020-02-16T07:14:05Z</time>
      </trkpt>
      <trkpt lat="36.9248430" lon="-2.4275760">
        <ele>141.0</ele>
        <time>2020-02-16T07:14:06Z</time>
      </trkpt>
      <trkpt lat="36.9248580" lon="-2.4275600">
        <ele>141.1</ele>
        <time>2020-02-16T07:14:07Z</time>
      </trkpt>
      <trkpt lat="36.9248770" lon="-2.4275400">
        <ele>141.2</ele>
        <time>2020-02-16T07:14:08Z</time>
      </trkpt>
      <trkpt lat="36.9248970" lon="-2.4274980">
        <ele>141.4</ele>
        <time>2020-02-16T07:14:09Z</time>
      </trkpt>
      <trkpt lat="36.9249150" lon="-2.4274720">
        <ele>141.4</ele>
        <time>2020-02-16T07:14:10Z</time>
      </trkpt>
      <trkpt lat="36.9249320" lon="-2.4274520">
        <ele>141.6</ele>
        <time>2020-02-16T07:14:11Z</time>
      </trkpt>
      <trkpt lat="36.9249550" lon="-2.4274230">
        <ele>141.7</ele>
        <time>2020-02-16T07:14:12Z</time>
      </trkpt>
      <trkpt lat="36.9249730" lon="-2.4273990">
        <ele>141.8</ele>
        <time>2020-02-16T07:14:13Z</time>
      </trkpt>
      <trkpt lat="36.9249880" lon="-2.4273780">
        <ele>141.8</ele>
        <time>2020-02-16T07:14:14Z</time>
      </trkpt>
      <trkpt lat="36.9250050" lon="-2.4273570">
        <ele>142.0</ele>
        <time>2020-02-16T07:14:15Z</time>
      </trkpt>
      <trkpt lat="36.9250230" lon="-2.4273340">
        <ele>142.2</ele>
        <time>2020-02-16T07:14:16Z</time>
      </trkpt>
      <trkpt lat="36.9250380" lon="-2.4273150">
        <ele>142.2</ele>
        <time>2020-02-16T07:14:17Z</time>
      </trkpt>
      <trkpt lat="36.9250570" lon="-2.4272900">
        <ele>142.2</ele>
        <time>2020-02-16T07:14:18Z</time>
      </trkpt>
      <trkpt lat="36.9250720" lon="-2.4272680">
        <ele>142.4</ele>
        <time>2020-02-16T07:14:19Z</time>
      </trkpt>
      <trkpt lat="36.9250900" lon="-2.4272460">
        <ele>142.5</ele>
        <time>2020-02-16T07:14:20Z</time>
      </trkpt>
      <trkpt lat="36.9251070" lon="-2.4272260">
        <ele>142.6</ele>
        <time>2020-02-16T07:14:21Z</time>
      </trkpt>
      <trkpt lat="36.9251230" lon="-2.4272080">
        <ele>142.6</ele>
        <time>2020-02-16T07:14:22Z</time>
      </trkpt>
      <trkpt lat="36.9251350" lon="-2.4271960">
        <ele>142.8</ele>
        <time>2020-02-16T07:14:23Z</time>
      </trkpt>
      <trkpt lat="36.9251530" lon="-2.4271780">
        <ele>142.8</ele>
        <time>2020-02-16T07:14:24Z</time>
      </trkpt>
      <trkpt lat="36.9251730" lon="-2.4271590">
        <ele>143.0</ele>
        <time>2020-02-16T07:14:25Z</time>
      </trkpt>
      <trkpt lat="36.9251930" lon="-2.4271420">
        <ele>143.0</ele>
        <time>2020-02-16T07:14:26Z</time>
      </trkpt>
      <trkpt lat="36.9252110" lon="-2.4271270">
        <ele>143.2</ele>
        <time>2020-02-16T07:14:27Z</time>
      </trkpt>
      <trkpt lat="36.9252300" lon="-2.4271130">
        <ele>143.4</ele>
        <time>2020-02-16T07:14:28Z</time>
      </trkpt>
      <trkpt lat="36.9252500" lon="-2.4270970">
        <ele>143.4</ele>
        <time>2020-02-16T07:14:29Z</time>
      </trkpt>
      <trkpt lat="36.9252680" lon="-2.4270840">
        <ele>143.6</ele>
        <time>2020-02-16T07:14:30Z</time>
      </trkpt>
      <trkpt lat="36.9252850" lon="-2.4270720">
        <ele>143.6</ele>
        <time>2020-02-16T07:14:31Z</time>
      </trkpt>
      <trkpt lat="36.9253010" lon="-2.4270600">
        <ele>143.8</ele>
        <time>2020-02-16T07:14:32Z</time>
      </trkpt>
      <trkpt lat="36.9253200" lon="-2.4270470">
        <ele>143.8</ele>
        <time>2020-02-16T07:14:33Z</time>
      </trkpt>
      <trkpt lat="36.9253410" lon="-2.4270330">
        <ele>144.1</ele>
        <time>2020-02-16T07:14:34Z</time>
      </trkpt>
      <trkpt lat="36.9253610" lon="-2.4270210">
        <ele>144.1</ele>
        <time>2020-02-16T07:14:35Z</time>
      </trkpt>
      <trkpt lat="36.9253850" lon="-2.4270070">
        <ele>144.4</ele>
        <time>2020-02-16T07:14:36Z</time>
      </trkpt>
      <trkpt lat="36.9254080" lon="-2.4269950">
        <ele>144.8</ele>
        <time>2020-02-16T07:14:37Z</time>
      </trkpt>
      <trkpt lat="36.9254230" lon="-2.4269900">
        <ele>144.7</ele>
        <time>2020-02-16T07:14:38Z</time>
      </trkpt>
      <trkpt lat="36.9254460" lon="-2.4269790">
        <ele>145.1</ele>
        <time>2020-02-16T07:14:39Z</time>
      </trkpt>
      <trkpt lat="36.9254680" lon="-2.4269700">
        <ele>145.1</ele>
        <time>2020-02-16T07:14:40Z</time>
      </trkpt>
      <trkpt lat="36.9254860" lon="-2.4269630">
        <ele>145.5</ele>
        <time>2020-02-16T07:14:41Z</time>
      </trkpt>
      <trkpt lat="36.9255100" lon="-2.4269530">
        <ele>145.9</ele>
        <time>2020-02-16T07:14:42Z</time>
      </trkpt>
      <trkpt lat="36.9255330" lon="-2.4269430">
        <ele>145.9</ele>
        <time>2020-02-16T07:14:43Z</time>
      </trkpt>
      <trkpt lat="36.9255510" lon="-2.4269380">
        <ele>146.4</ele>
        <time>2020-02-16T07:14:44Z</time>
      </trkpt>
      <trkpt lat="36.9255760" lon="-2.4269270">
        <ele>146.9</ele>
        <time>2020-02-16T07:14:45Z</time>
      </trkpt>
      <trkpt lat="36.9256000" lon="-2.4269190">
        <ele>146.9</ele>
        <time>2020-02-16T07:14:46Z</time>
      </trkpt>
      <trkpt lat="36.9256210" lon="-2.4269120">
        <ele>147.4</ele>
        <time>2020-02-16T07:14:47Z</time>
      </trkpt>
      <trkpt lat="36.9256430" lon="-2.4269050">
        <ele>148.0</ele>
        <time>2020-02-16T07:14:48Z</time>
      </trkpt>
      <trkpt lat="36.9256610" lon="-2.4268990">
        <ele>148.0</ele>
        <time>2020-02-16T07:14:49Z</time>
      </trkpt>
      <trkpt lat="36.9256800" lon="-2.4268930">
        <ele>148.4</ele>
        <time>2020-02-16T07:14:50Z</time>
      </trkpt>
      <trkpt lat="36.9257000" lon="-2.4268870">
        <ele>148.4</ele>
        <time>2020-02-16T07:14:51Z</time>
      </trkpt>
      <trkpt lat="36.9257180" lon="-2.4268820">
        <ele>148.9</ele>
        <time>2020-02-16T07:14:52Z</time>
      </trkpt>
      <trkpt lat="36.9257400" lon="-2.4268760">
        <ele>148.9</ele>
        <time>2020-02-16T07:14:53Z</time>
      </trkpt>
      <trkpt lat="36.9257600" lon="-2.4268710">
        <ele>149.3</ele>
        <time>2020-02-16T07:14:54Z</time>
      </trkpt>
      <trkpt lat="36.9257780" lon="-2.4268670">
        <ele>149.7</ele>
        <time>2020-02-16T07:14:55Z</time>
      </trkpt>
      <trkpt lat="36.9257980" lon="-2.4268630">
        <ele>149.7</ele>
        <time>2020-02-16T07:14:56Z</time>
      </trkpt>
      <trkpt lat="36.9258200" lon="-2.4268580">
        <ele>150.3</ele>
        <time>2020-02-16T07:14:57Z</time>
      </trkpt>
      <trkpt lat="36.9258400" lon="-2.4268550">
        <ele>150.3</ele>
        <time>2020-02-16T07:14:58Z</time>
      </trkpt>
      <trkpt lat="36.9258630" lon="-2.4268500">
        <ele>150.7</ele>
        <time>2020-02-16T07:14:59Z</time>
      </trkpt>
      <trkpt lat="36.9258850" lon="-2.4268460">
        <ele>151.2</ele>
        <time>2020-02-16T07:15:00Z</time>
      </trkpt>
      <trkpt lat="36.9259060" lon="-2.4268490">
        <ele>151.2</ele>
        <time>2020-02-16T07:15:01Z</time>
      </trkpt>
      <trkpt lat="36.9259250" lon="-2.4268530">
        <ele>151.6</ele>
        <time>2020-02-16T07:15:02Z</time>
      </trkpt>
      <trkpt lat="36.9259460" lon="-2.4268540">
        <ele>151.5</ele>
        <time>2020-02-16T07:15:03Z</time>
      </trkpt>
      <trkpt lat="36.9259660" lon="-2.4268550">
        <ele>151.9</ele>
        <time>2020-02-16T07:15:04Z</time>
      </trkpt>
      <trkpt lat="36.9259860" lon="-2.4268570">
        <ele>152.3</ele>
        <time>2020-02-16T07:15:05Z</time>
      </trkpt>
      <trkpt lat="36.9260050" lon="-2.4268590">
        <ele>152.3</ele>
        <time>2020-02-16T07:15:06Z</time>
      </trkpt>
      <trkpt lat="36.9260230" lon="-2.4268590">
        <ele>152.6</ele>
        <time>2020-02-16T07:15:07Z</time>
      </trkpt>
      <trkpt lat="36.9260410" lon="-2.4268590">
        <ele>152.6</ele>
        <time>2020-02-16T07:15:08Z</time>
      </trkpt>
      <trkpt lat="36.9260600" lon="-2.4268580">
        <ele>152.9</ele>
        <time>2020-02-16T07:15:09Z</time>
      </trkpt>
      <trkpt lat="36.9260800" lon="-2.4268560">
        <ele>152.9</ele>
        <time>2020-02-16T07:15:10Z</time>
      </trkpt>
      <trkpt lat="36.9260960" lon="-2.4268530">
        <ele>153.3</ele>
        <time>2020-02-16T07:15:11Z</time>
      </trkpt>
      <trkpt lat="36.9261200" lon="-2.4268490">
        <ele>153.3</ele>
        <time>2020-02-16T07:15:12Z</time>
      </trkpt>
      <trkpt lat="36.9261400" lon="-2.4268450">
        <ele>153.6</ele>
        <time>2020-02-16T07:15:13Z</time>
      </trkpt>
      <trkpt lat="36.9261610" lon="-2.4268400">
        <ele>153.9</ele>
        <time>2020-02-16T07:15:14Z</time>
      </trkpt>
      <trkpt lat="36.9261860" lon="-2.4268330">
        <ele>153.9</ele>
        <time>2020-02-16T07:15:15Z</time>
      </trkpt>
      <trkpt lat="36.9262060" lon="-2.4268280">
        <ele>154.2</ele>
        <time>2020-02-16T07:15:16Z</time>
      </trkpt>
      <trkpt lat="36.9262280" lon="-2.4268220">
        <ele>154.4</ele>
        <time>2020-02-16T07:15:17Z</time>
      </trkpt>
      <trkpt lat="36.9262480" lon="-2.4268150">
        <ele>154.8</ele>
        <time>2020-02-16T07:15:18Z</time>
      </trkpt>
      <trkpt lat="36.9262700" lon="-2.4268080">
        <ele>155.0</ele>
        <time>2020-02-16T07:15:19Z</time>
      </trkpt>
      <trkpt lat="36.9262910" lon="-2.4268010">
        <ele>155.0</ele>
        <time>2020-02-16T07:15:20Z</time>
      </trkpt>
      <trkpt lat="36.9263130" lon="-2.4267920">
        <ele>155.1</ele>
        <time>2020-02-16T07:15:21Z</time>
      </trkpt>
      <trkpt lat="36.9263300" lon="-2.4267840">
        <ele>155.1</ele>
        <time>2020-02-16T07:15:22Z</time>
      </trkpt>
      <trkpt lat="36.9263580" lon="-2.4267730">
        <ele>155.2</ele>
        <time>2020-02-16T07:15:23Z</time>
      </trkpt>
      <trkpt lat="36.9263800" lon="-2.4267620">
        <ele>155.3</ele>
        <time>2020-02-16T07:15:24Z</time>
      </trkpt>
      <trkpt lat="36.9264010" lon="-2.4267520">
        <ele>155.3</ele>
        <time>2020-02-16T07:15:25Z</time>
      </trkpt>
      <trkpt lat="36.9264210" lon="-2.4267420">
        <ele>155.4</ele>
        <time>2020-02-16T07:15:26Z</time>
      </trkpt>
      <trkpt lat="36.9264430" lon="-2.4267320">
        <ele>155.5</ele>
        <time>2020-02-16T07:15:27Z</time>
      </trkpt>
      <trkpt lat="36.9264610" lon="-2.4267220">
        <ele>155.5</ele>
        <time>2020-02-16T07:15:28Z</time>
      </trkpt>
      <trkpt lat="36.9264830" lon="-2.4267100">
        <ele>155.6</ele>
        <time>2020-02-16T07:15:29Z</time>
      </trkpt>
      <trkpt lat="36.9265030" lon="-2.4266990">
        <ele>155.7</ele>
        <time>2020-02-16T07:15:30Z</time>
      </trkpt>
      <trkpt lat="36.9265180" lon="-2.4266870">
        <ele>155.7</ele>
        <time>2020-02-16T07:15:31Z</time>
      </trkpt>
      <trkpt lat="36.9265440" lon="-2.4266720">
        <ele>155.8</ele>
        <time>2020-02-16T07:15:32Z</time>
      </trkpt>
      <trkpt lat="36.9265640" lon="-2.4266600">
        <ele>155.9</ele>
        <time>2020-02-16T07:15:33Z</time>
      </trkpt>
      <trkpt lat="36.9265840" lon="-2.4266460">
        <ele>155.9</ele>
        <time>2020-02-16T07:15:34Z</time>
      </trkpt>
      <trkpt lat="36.9266010" lon="-2.4266340">
        <ele>156.0</ele>
        <time>2020-02-16T07:15:35Z</time>
      </trkpt>
      <trkpt lat="36.9266190" lon="-2.4266200">
        <ele>156.1</ele>
        <time>2020-02-16T07:15:36Z</time>
      </trkpt>
      <trkpt lat="36.9266430" lon="-2.4266030">
        <ele>156.2</ele>
        <time>2020-02-16T07:15:37Z</time>
      </trkpt>
      <trkpt lat="36.9266610" lon="-2.4265890">
        <ele>156.2</ele>
        <time>2020-02-16T07:15:38Z</time>
      </trkpt>
      <trkpt lat="36.9266830" lon="-2.4265750">
        <ele>156.3</ele>
        <time>2020-02-16T07:15:39Z</time>
      </trkpt>
      <trkpt lat="36.9267080" lon="-2.4265580">
        <ele>156.4</ele>
        <time>2020-02-16T07:15:40Z</time>
      </trkpt>
      <trkpt lat="36.9267280" lon="-2.4265440">
        <ele>156.5</ele>
        <time>2020-02-16T07:15:41Z</time>
      </trkpt>
      <trkpt lat="36.9267490" lon="-2.4265290">
        <ele>156.6</ele>
        <time>2020-02-16T07:15:42Z</time>
      </trkpt>
      <trkpt lat="36.9267710" lon="-2.4265160">
        <ele>156.6</ele>
        <time>2020-02-16T07:15:43Z</time>
      </trkpt>
      <trkpt lat="36.9267940" lon="-2.4265000">
        <ele>156.7</ele>
        <time>2020-02-16T07:15:44Z</time>
      </trkpt>
      <trkpt lat="36.9268160" lon="-2.4264890">
        <ele>156.8</ele>
        <time>2020-02-16T07:15:45Z</time>
      </trkpt>
      <trkpt lat="36.9268340" lon="-2.4264770">
        <ele>156.9</ele>
        <time>2020-02-16T07:15:46Z</time>
      </trkpt>
      <trkpt lat="36.9268590" lon="-2.4264630">
        <ele>157.0</ele>
        <time>2020-02-16T07:15:47Z</time>
      </trkpt>
      <trkpt lat="36.9268730" lon="-2.4264560">
        <ele>157.0</ele>
        <time>2020-02-16T07:15:48Z</time>
      </trkpt>
      <trkpt lat="36.9268930" lon="-2.4264450">
        <ele>157.1</ele>
        <time>2020-02-16T07:15:49Z</time>
      </trkpt>
      <trkpt lat="36.9269130" lon="-2.4264350">
        <ele>157.2</ele>
        <time>2020-02-16T07:15:50Z</time>
      </trkpt>
      <trkpt lat="36.9269310" lon="-2.4264260">
        <ele>157.2</ele>
        <time>2020-02-16T07:15:51Z</time>
      </trkpt>
      <trkpt lat="36.9269580" lon="-2.4264140">
        <ele>157.3</ele>
        <time>2020-02-16T07:15:52Z</time>
      </trkpt>
      <trkpt lat="36.9269760" lon="-2.4264050">
        <ele>157.4</ele>
        <time>2020-02-16T07:15:53Z</time>
      </trkpt>
      <trkpt lat="36.9269940" lon="-2.4263980">
        <ele>157.5</ele>
        <time>2020-02-16T07:15:54Z</time>
      </trkpt>
      <trkpt lat="36.9270110" lon="-2.4263890">
        <ele>157.5</ele>
        <time>2020-02-16T07:15:55Z</time>
      </trkpt>
      <trkpt lat="36.9270340" lon="-2.4263790">
        <ele>157.6</ele>
        <time>2020-02-16T07:15:56Z</time>
      </trkpt>
      <trkpt lat="36.9270540" lon="-2.4263710">
        <ele>157.7</ele>
        <time>2020-02-16T07:15:57Z</time>
      </trkpt>
      <trkpt lat="36.9270740" lon="-2.4263610">
        <ele>157.7</ele>
        <time>2020-02-16T07:15:58Z</time>
      </trkpt>
      <trkpt lat="36.9270960" lon="-2.4263500">
        <ele>157.8</ele>
        <time>2020-02-16T07:15:59Z</time>
      </trkpt>
      <trkpt lat="36.9271160" lon="-2.4263400">
        <ele>157.9</ele>
        <time>2020-02-16T07:16:00Z</time>
      </trkpt>
      <trkpt lat="36.9271380" lon="-2.4263300">
        <ele>158.0</ele>
        <time>2020-02-16T07:16:01Z</time>
      </trkpt>
      <trkpt lat="36.9271640" lon="-2.4263190">
        <ele>158.0</ele>
        <time>2020-02-16T07:16:02Z</time>
      </trkpt>
      <trkpt lat="36.9271880" lon="-2.4263080">
        <ele>158.1</ele>
        <time>2020-02-16T07:16:03Z</time>
      </trkpt>
      <trkpt lat="36.9272110" lon="-2.4262990">
        <ele>158.2</ele>
        <time>2020-02-16T07:16:04Z</time>
      </trkpt>
      <trkpt lat="36.9272340" lon="-2.4262900">
        <ele>158.3</ele>
        <time>2020-02-16T07:16:05Z</time>
      </trkpt>
      <trkpt lat="36.9272560" lon="-2.4262810">
        <ele>158.4</ele>
        <time>2020-02-16T07:16:06Z</time>
      </trkpt>
      <trkpt lat="36.9272780" lon="-2.4262710">
        <ele>158.4</ele>
        <time>2020-02-16T07:16:07Z</time>
      </trkpt>
      <trkpt lat="36.9272990" lon="-2.4262620">
        <ele>158.5</ele>
        <time>2020-02-16T07:16:08Z</time>
      </trkpt>
      <trkpt lat="36.9273230" lon="-2.4262530">
        <ele>158.6</ele>
        <time>2020-02-16T07:16:09Z</time>
      </trkpt>
      <trkpt lat="36.9273440" lon="-2.4262450">
        <ele>158.7</ele>
        <time>2020-02-16T07:16:10Z</time>
      </trkpt>
      <trkpt lat="36.9273630" lon="-2.4262380">
        <ele>158.7</ele>
        <time>2020-02-16T07:16:11Z</time>
      </trkpt>
      <trkpt lat="36.9273890" lon="-2.4262270">
        <ele>158.8</ele>
        <time>2020-02-16T07:16:12Z</time>
      </trkpt>
      <trkpt lat="36.9274110" lon="-2.4262190">
        <ele>158.9</ele>
        <time>2020-02-16T07:16:13Z</time>
      </trkpt>
      <trkpt lat="36.9274330" lon="-2.4262100">
        <ele>159.0</ele>
        <time>2020-02-16T07:16:14Z</time>
      </trkpt>
      <trkpt lat="36.9274580" lon="-2.4261980">
        <ele>159.1</ele>
        <time>2020-02-16T07:16:15Z</time>
      </trkpt>
      <trkpt lat="36.9274760" lon="-2.4261920">
        <ele>159.1</ele>
        <time>2020-02-16T07:16:16Z</time>
      </trkpt>
      <trkpt lat="36.9274890" lon="-2.4261870">
        <ele>159.2</ele>
        <time>2020-02-16T07:16:17Z</time>
      </trkpt>
      <trkpt lat="36.9275140" lon="-2.4261750">
        <ele>159.3</ele>
        <time>2020-02-16T07:16:18Z</time>
      </trkpt>
      <trkpt lat="36.9275360" lon="-2.4261670">
        <ele>159.4</ele>
        <time>2020-02-16T07:16:19Z</time>
      </trkpt>
      <trkpt lat="36.9275560" lon="-2.4261570">
        <ele>159.4</ele>
        <time>2020-02-16T07:16:20Z</time>
      </trkpt>
      <trkpt lat="36.9275740" lon="-2.4261460">
        <ele>159.5</ele>
        <time>2020-02-16T07:16:21Z</time>
      </trkpt>
      <trkpt lat="36.9275930" lon="-2.4261370">
        <ele>159.6</ele>
        <time>2020-02-16T07:16:22Z</time>
      </trkpt>
      <trkpt lat="36.9276130" lon="-2.4261260">
        <ele>159.6</ele>
        <time>2020-02-16T07:16:23Z</time>
      </trkpt>
      <trkpt lat="36.9276310" lon="-2.4261150">
        <ele>159.7</ele>
        <time>2020-02-16T07:16:24Z</time>
      </trkpt>
      <trkpt lat="36.9276510" lon="-2.4261030">
        <ele>159.8</ele>
        <time>2020-02-16T07:16:25Z</time>
      </trkpt>
      <trkpt lat="36.9276730" lon="-2.4260910">
        <ele>159.9</ele>
        <time>2020-02-16T07:16:26Z</time>
      </trkpt>
      <trkpt lat="36.9276910" lon="-2.4260780">
        <ele>159.9</ele>
        <time>2020-02-16T07:16:27Z</time>
      </trkpt>
      <trkpt lat="36.9277140" lon="-2.4260640">
        <ele>160.0</ele>
        <time>2020-02-16T07:16:28Z</time>
      </trkpt>
      <trkpt lat="36.9277380" lon="-2.4260490">
        <ele>160.1</ele>
        <time>2020-02-16T07:16:29Z</time>
      </trkpt>
      <trkpt lat="36.9277560" lon="-2.4260380">
        <ele>160.2</ele>
        <time>2020-02-16T07:16:30Z</time>
      </trkpt>
      <trkpt lat="36.9277780" lon="-2.4260230">
        <ele>160.2</ele>
        <time>2020-02-16T07:16:31Z</time>
      </trkpt>
      <trkpt lat="36.9278010" lon="-2.4260100">
        <ele>160.3</ele>
        <time>2020-02-16T07:16:32Z</time>
      </trkpt>
      <trkpt lat="36.9278310" lon="-2.4259930">
        <ele>160.4</ele>
        <time>2020-02-16T07:16:33Z</time>
      </trkpt>
      <trkpt lat="36.9278580" lon="-2.4259780">
        <ele>160.5</ele>
        <time>2020-02-16T07:16:34Z</time>
      </trkpt>
      <trkpt lat="36.9278780" lon="-2.4259680">
        <ele>160.6</ele>
        <time>2020-02-16T07:16:35Z</time>
      </trkpt>
      <trkpt lat="36.9278940" lon="-2.4259570">
        <ele>160.6</ele>
        <time>2020-02-16T07:16:36Z</time>
      </trkpt>
      <trkpt lat="36.9279210" lon="-2.4259440">
        <ele>160.7</ele>
        <time>2020-02-16T07:16:37Z</time>
      </trkpt>
      <trkpt lat="36.9279420" lon="-2.4259300">
        <ele>160.8</ele>
        <time>2020-02-16T07:16:38Z</time>
      </trkpt>
      <trkpt lat="36.9279640" lon="-2.4259170">
        <ele>160.9</ele>
        <time>2020-02-16T07:16:39Z</time>
      </trkpt>
      <trkpt lat="36.9279840" lon="-2.4259050">
        <ele>161.0</ele>
        <time>2020-02-16T07:16:40Z</time>
      </trkpt>
      <trkpt lat="36.9280010" lon="-2.4258960">
        <ele>161.0</ele>
        <time>2020-02-16T07:16:41Z</time>
      </trkpt>
      <trkpt lat="36.9280220" lon="-2.4258820">
        <ele>161.1</ele>
        <time>2020-02-16T07:16:42Z</time>
      </trkpt>
      <trkpt lat="36.9280410" lon="-2.4258700">
        <ele>161.2</ele>
        <time>2020-02-16T07:16:43Z</time>
      </trkpt>
      <trkpt lat="36.9280570" lon="-2.4258590">
        <ele>161.2</ele>
        <time>2020-02-16T07:16:44Z</time>
      </trkpt>
      <trkpt lat="36.9280820" lon="-2.4258430">
        <ele>161.3</ele>
        <time>2020-02-16T07:16:45Z</time>
      </trkpt>
      <trkpt lat="36.9281010" lon="-2.4258290">
        <ele>161.4</ele>
        <time>2020-02-16T07:16:46Z</time>
      </trkpt>
      <trkpt lat="36.9281190" lon="-2.4258150">
        <ele>161.5</ele>
        <time>2020-02-16T07:16:47Z</time>
      </trkpt>
      <trkpt lat="36.9281390" lon="-2.4257990">
        <ele>161.5</ele>
        <time>2020-02-16T07:16:48Z</time>
      </trkpt>
      <trkpt lat="36.9281620" lon="-2.4257820">
        <ele>161.6</ele>
        <time>2020-02-16T07:16:49Z</time>
      </trkpt>
      <trkpt lat="36.9281840" lon="-2.4257660">
        <ele>161.7</ele>
        <time>2020-02-16T07:16:50Z</time>
      </trkpt>
      <trkpt lat="36.9282010" lon="-2.4257520">
        <ele>161.8</ele>
        <time>2020-02-16T07:16:51Z</time>
      </trkpt>
      <trkpt lat="36.9282260" lon="-2.4257360">
        <ele>161.9</ele>
        <time>2020-02-16T07:16:52Z</time>
      </trkpt>
      <trkpt lat="36.9282470" lon="-2.4257190">
        <ele>162.0</ele>
        <time>2020-02-16T07:16:53Z</time>
      </trkpt>
      <trkpt lat="36.9282710" lon="-2.4257030">
        <ele>162.1</ele>
        <time>2020-02-16T07:16:54Z</time>
      </trkpt>
      <trkpt lat="36.9282910" lon="-2.4256890">
        <ele>162.2</ele>
        <time>2020-02-16T07:16:55Z</time>
      </trkpt>
      <trkpt lat="36.9283160" lon="-2.4256720">
        <ele>162.3</ele>
        <time>2020-02-16T07:16:56Z</time>
      </trkpt>
      <trkpt lat="36.9283420" lon="-2.4256540">
        <ele>162.4</ele>
        <time>2020-02-16T07:16:57Z</time>
      </trkpt>
      <trkpt lat="36.9283660" lon="-2.4256370">
        <ele>162.5</ele>
        <time>2020-02-16T07:16:58Z</time>
      </trkpt>
      <trkpt lat="36.9283860" lon="-2.4256230">
        <ele>162.6</ele>
        <time>2020-02-16T07:16:59Z</time>
      </trkpt>
      <trkpt lat="36.9284090" lon="-2.4256060">
        <ele>162.7</ele>
        <time>2020-02-16T07:17:00Z</time>
      </trkpt>
      <trkpt lat="36.9284290" lon="-2.4255920">
        <ele>162.8</ele>
        <time>2020-02-16T07:17:01Z</time>
      </trkpt>
      <trkpt lat="36.9284560" lon="-2.4255730">
        <ele>162.9</ele>
        <time>2020-02-16T07:17:02Z</time>
      </trkpt>
      <trkpt lat="36.9284770" lon="-2.4255590">
        <ele>163.0</ele>
        <time>2020-02-16T07:17:03Z</time>
      </trkpt>
      <trkpt lat="36.9284990" lon="-2.4255440">
        <ele>163.1</ele>
        <time>2020-02-16T07:17:04Z</time>
      </trkpt>
      <trkpt lat="36.9285220" lon="-2.4255290">
        <ele>163.2</ele>
        <time>2020-02-16T07:17:05Z</time>
      </trkpt>
      <trkpt lat="36.9285410" lon="-2.4255200">
        <ele>163.2</ele>
        <time>2020-02-16T07:17:06Z</time>
      </trkpt>
      <trkpt lat="36.9285660" lon="-2.4255040">
        <ele>163.3</ele>
        <time>2020-02-16T07:17:07Z</time>
      </trkpt>
      <trkpt lat="36.9285920" lon="-2.4254870">
        <ele>163.5</ele>
        <time>2020-02-16T07:17:08Z</time>
      </trkpt>
      <trkpt lat="36.9286160" lon="-2.4254750">
        <ele>163.5</ele>
        <time>2020-02-16T07:17:09Z</time>
      </trkpt>
      <trkpt lat="36.9286370" lon="-2.4254620">
        <ele>163.6</ele>
        <time>2020-02-16T07:17:10Z</time>
      </trkpt>
      <trkpt lat="36.9286590" lon="-2.4254490">
        <ele>163.7</ele>
        <time>2020-02-16T07:17:11Z</time>
      </trkpt>
      <trkpt lat="36.9286860" lon="-2.4254350">
        <ele>163.8</ele>
        <time>2020-02-16T07:17:12Z</time>
      </trkpt>
      <trkpt lat="36.9287090" lon="-2.4254200">
        <ele>163.9</ele>
        <time>2020-02-16T07:17:13Z</time>
      </trkpt>
      <trkpt lat="36.9287320" lon="-2.4254060">
        <ele>164.0</ele>
        <time>2020-02-16T07:17:14Z</time>
      </trkpt>
      <trkpt lat="36.9287540" lon="-2.4253940">
        <ele>164.1</ele>
        <time>2020-02-16T07:17:15Z</time>
      </trkpt>
      <trkpt lat="36.9287740" lon="-2.4253840">
        <ele>164.2</ele>
        <time>2020-02-16T07:17:16Z</time>
      </trkpt>
      <trkpt lat="36.9287970" lon="-2.4253690">
        <ele>164.3</ele>
        <time>2020-02-16T07:17:17Z</time>
      </trkpt>
      <trkpt lat="36.9288220" lon="-2.4253550">
        <ele>164.4</ele>
        <time>2020-02-16T07:17:18Z</time>
      </trkpt>
      <trkpt lat="36.9288440" lon="-2.4253420">
        <ele>164.4</ele>
        <time>2020-02-16T07:17:19Z</time>
      </trkpt>
      <trkpt lat="36.9288620" lon="-2.4253310">
        <ele>164.5</ele>
        <time>2020-02-16T07:17:20Z</time>
      </trkpt>
      <trkpt lat="36.9288770" lon="-2.4253220">
        <ele>164.7</ele>
        <time>2020-02-16T07:17:21Z</time>
      </trkpt>
      <trkpt lat="36.9288940" lon="-2.4253110">
        <ele>164.6</ele>
        <time>2020-02-16T07:17:22Z</time>
      </trkpt>
      <trkpt lat="36.9289160" lon="-2.4252980">
        <ele>164.8</ele>
        <time>2020-02-16T07:17:23Z</time>
      </trkpt>
      <trkpt lat="36.9289340" lon="-2.4252880">
        <ele>164.9</ele>
        <time>2020-02-16T07:17:24Z</time>
      </trkpt>
      <trkpt lat="36.9289520" lon="-2.4252760">
        <ele>164.9</ele>
        <time>2020-02-16T07:17:25Z</time>
      </trkpt>
      <trkpt lat="36.9289720" lon="-2.4252630">
        <ele>165.1</ele>
        <time>2020-02-16T07:17:26Z</time>
      </trkpt>
      <trkpt lat="36.9289940" lon="-2.4252490">
        <ele>165.1</ele>
        <time>2020-02-16T07:17:27Z</time>
      </trkpt>
      <trkpt lat="36.9290170" lon="-2.4252310">
        <ele>165.3</ele>
        <time>2020-02-16T07:17:28Z</time>
      </trkpt>
      <trkpt lat="36.9290410" lon="-2.4252150">
        <ele>165.5</ele>
        <time>2020-02-16T07:17:29Z</time>
      </trkpt>
      <trkpt lat="36.9290610" lon="-2.4252020">
        <ele>165.5</ele>
        <time>2020-02-16T07:17:30Z</time>
      </trkpt>
      <trkpt lat="36.9290840" lon="-2.4251860">
        <ele>165.7</ele>
        <time>2020-02-16T07:17:31Z</time>
      </trkpt>
      <trkpt lat="36.9291020" lon="-2.4251720">
        <ele>165.7</ele>
        <time>2020-02-16T07:17:32Z</time>
      </trkpt>
      <trkpt lat="36.9291270" lon="-2.4251550">
        <ele>166.0</ele>
        <time>2020-02-16T07:17:33Z</time>
      </trkpt>
      <trkpt lat="36.9291490" lon="-2.4251380">
        <ele>166.2</ele>
        <time>2020-02-16T07:17:34Z</time>
      </trkpt>
      <trkpt lat="36.9291660" lon="-2.4251250">
        <ele>166.2</ele>
        <time>2020-02-16T07:17:35Z</time>
      </trkpt>
      <trkpt lat="36.9291910" lon="-2.4251060">
        <ele>166.5</ele>
        <time>2020-02-16T07:17:36Z</time>
      </trkpt>
      <trkpt lat="36.9292070" lon="-2.4250930">
        <ele>166.5</ele>
        <time>2020-02-16T07:17:37Z</time>
      </trkpt>
      <trkpt lat="36.9292240" lon="-2.4250780">
        <ele>166.8</ele>
        <time>2020-02-16T07:17:38Z</time>
      </trkpt>
      <trkpt lat="36.9292460" lon="-2.4250610">
        <ele>167.0</ele>
        <time>2020-02-16T07:17:39Z</time>
      </trkpt>
      <trkpt lat="36.9292660" lon="-2.4250430">
        <ele>167.0</ele>
        <time>2020-02-16T07:17:40Z</time>
      </trkpt>
      <trkpt lat="36.9292820" lon="-2.4250280">
        <ele>167.2</ele>
        <time>2020-02-16T07:17:41Z</time>
      </trkpt>
      <trkpt lat="36.9293070" lon="-2.4250090">
        <ele>167.2</ele>
        <time>2020-02-16T07:17:42Z</time>
      </trkpt>
      <trkpt lat="36.9293270" lon="-2.4249910">
        <ele>167.4</ele>
        <time>2020-02-16T07:17:43Z</time>
      </trkpt>
      <trkpt lat="36.9293460" lon="-2.4249740">
        <ele>167.6</ele>
        <time>2020-02-16T07:17:44Z</time>
      </trkpt>
      <trkpt lat="36.9293660" lon="-2.4249560">
        <ele>167.6</ele>
        <time>2020-02-16T07:17:45Z</time>
      </trkpt>
      <trkpt lat="36.9293820" lon="-2.4249410">
        <ele>167.9</ele>
        <time>2020-02-16T07:17:46Z</time>
      </trkpt>
      <trkpt lat="36.9293970" lon="-2.4249260">
        <ele>167.9</ele>
        <time>2020-02-16T07:17:47Z</time>
      </trkpt>
      <trkpt lat="36.9294200" lon="-2.4249060">
        <ele>168.1</ele>
        <time>2020-02-16T07:17:48Z</time>
      </trkpt>
      <trkpt lat="36.9294350" lon="-2.4248920">
        <ele>168.1</ele>
        <time>2020-02-16T07:17:49Z</time>
      </trkpt>
      <trkpt lat="36.9294540" lon="-2.4248740">
        <ele>168.4</ele>
        <time>2020-02-16T07:17:50Z</time>
      </trkpt>
      <trkpt lat="36.9294670" lon="-2.4248620">
        <ele>168.4</ele>
        <time>2020-02-16T07:17:51Z</time>
      </trkpt>
      <trkpt lat="36.9294870" lon="-2.4248440">
        <ele>168.7</ele>
        <time>2020-02-16T07:17:52Z</time>
      </trkpt>
      <trkpt lat="36.9295100" lon="-2.4248230">
        <ele>168.7</ele>
        <time>2020-02-16T07:17:53Z</time>
      </trkpt>
      <trkpt lat="36.9295290" lon="-2.4248060">
        <ele>168.9</ele>
        <time>2020-02-16T07:17:54Z</time>
      </trkpt>
      <trkpt lat="36.9295490" lon="-2.4247870">
        <ele>168.9</ele>
        <time>2020-02-16T07:17:55Z</time>
      </trkpt>
      <trkpt lat="36.9295650" lon="-2.4247710">
        <ele>169.1</ele>
        <time>2020-02-16T07:17:56Z</time>
      </trkpt>
      <trkpt lat="36.9295870" lon="-2.4247510">
        <ele>169.3</ele>
        <time>2020-02-16T07:17:57Z</time>
      </trkpt>
      <trkpt lat="36.9296050" lon="-2.4247330">
        <ele>169.3</ele>
        <time>2020-02-16T07:17:58Z</time>
      </trkpt>
      <trkpt lat="36.9296250" lon="-2.4247150">
        <ele>169.5</ele>
        <time>2020-02-16T07:17:59Z</time>
      </trkpt>
      <trkpt lat="36.9296390" lon="-2.4247010">
        <ele>169.5</ele>
        <time>2020-02-16T07:18:00Z</time>
      </trkpt>
      <trkpt lat="36.9296590" lon="-2.4246830">
        <ele>169.8</ele>
        <time>2020-02-16T07:18:01Z</time>
      </trkpt>
      <trkpt lat="36.9296820" lon="-2.4246610">
        <ele>169.7</ele>
        <time>2020-02-16T07:18:02Z</time>
      </trkpt>
      <trkpt lat="36.9297020" lon="-2.4246430">
        <ele>170.0</ele>
        <time>2020-02-16T07:18:03Z</time>
      </trkpt>
      <trkpt lat="36.9297220" lon="-2.4246260">
        <ele>170.0</ele>
        <time>2020-02-16T07:18:04Z</time>
      </trkpt>
      <trkpt lat="36.9297420" lon="-2.4246080">
        <ele>170.2</ele>
        <time>2020-02-16T07:18:05Z</time>
      </trkpt>
      <trkpt lat="36.9297600" lon="-2.4245910">
        <ele>170.5</ele>
        <time>2020-02-16T07:18:06Z</time>
      </trkpt>
      <trkpt lat="36.9297820" lon="-2.4245740">
        <ele>170.5</ele>
        <time>2020-02-16T07:18:07Z</time>
      </trkpt>
      <trkpt lat="36.9298020" lon="-2.4245590">
        <ele>170.8</ele>
        <time>2020-02-16T07:18:08Z</time>
      </trkpt>
      <trkpt lat="36.9298240" lon="-2.4245430">
        <ele>170.7</ele>
        <time>2020-02-16T07:18:09Z</time>
      </trkpt>
      <trkpt lat="36.9298450" lon="-2.4245280">
        <ele>171.0</ele>
        <time>2020-02-16T07:18:10Z</time>
      </trkpt>
      <trkpt lat="36.9298690" lon="-2.4245140">
        <ele>171.2</ele>
        <time>2020-02-16T07:18:11Z</time>
      </trkpt>
      <trkpt lat="36.9298900" lon="-2.4245010">
        <ele>171.2</ele>
        <time>2020-02-16T07:18:12Z</time>
      </trkpt>
      <trkpt lat="36.9299140" lon="-2.4244870">
        <ele>171.4</ele>
        <time>2020-02-16T07:18:13Z</time>
      </trkpt>
      <trkpt lat="36.9299340" lon="-2.4244760">
        <ele>171.7</ele>
        <time>2020-02-16T07:18:14Z</time>
      </trkpt>
      <trkpt lat="36.9299570" lon="-2.4244640">
        <ele>171.7</ele>
        <time>2020-02-16T07:18:15Z</time>
      </trkpt>
      <trkpt lat="36.9299800" lon="-2.4244530">
        <ele>171.9</ele>
        <time>2020-02-16T07:18:16Z</time>
      </trkpt>
      <trkpt lat="36.9300020" lon="-2.4244440">
        <ele>172.3</ele>
        <time>2020-02-16T07:18:17Z</time>
      </trkpt>
      <trkpt lat="36.9300250" lon="-2.4244340">
        <ele>172.3</ele>
        <time>2020-02-16T07:18:18Z</time>
      </trkpt>
      <trkpt lat="36.9300470" lon="-2.4244270">
        <ele>172.6</ele>
        <time>2020-02-16T07:18:19Z</time>
      </trkpt>
      <trkpt lat="36.9300700" lon="-2.4244200">
        <ele>172.9</ele>
        <time>2020-02-16T07:18:20Z</time>
      </trkpt>
      <trkpt lat="36.9300850" lon="-2.4244180">
        <ele>172.9</ele>
        <time>2020-02-16T07:18:21Z</time>
      </trkpt>
      <trkpt lat="36.9301100" lon="-2.4244120">
        <ele>173.0</ele>
        <time>2020-02-16T07:18:22Z</time>
      </trkpt>
      <trkpt lat="36.9301350" lon="-2.4244060">
        <ele>173.3</ele>
        <time>2020-02-16T07:18:23Z</time>
      </trkpt>
      <trkpt lat="36.9301570" lon="-2.4244030">
        <ele>173.3</ele>
        <time>2020-02-16T07:18:24Z</time>
      </trkpt>
      <trkpt lat="36.9301800" lon="-2.4244000">
        <ele>173.6</ele>
        <time>2020-02-16T07:18:25Z</time>
      </trkpt>
      <trkpt lat="36.9301970" lon="-2.4244000">
        <ele>173.6</ele>
        <time>2020-02-16T07:18:26Z</time>
      </trkpt>
      <trkpt lat="36.9302220" lon="-2.4243960">
        <ele>173.9</ele>
        <time>2020-02-16T07:18:27Z</time>
      </trkpt>
      <trkpt lat="36.9302500" lon="-2.4243910">
        <ele>174.1</ele>
        <time>2020-02-16T07:18:28Z</time>
      </trkpt>
      <trkpt lat="36.9302740" lon="-2.4243910">
        <ele>174.4</ele>
        <time>2020-02-16T07:18:29Z</time>
      </trkpt>
      <trkpt lat="36.9302940" lon="-2.4243880">
        <ele>174.4</ele>
        <time>2020-02-16T07:18:30Z</time>
      </trkpt>
      <trkpt lat="36.9303090" lon="-2.4243910">
        <ele>174.7</ele>
        <time>2020-02-16T07:18:31Z</time>
      </trkpt>
      <trkpt lat="36.9303270" lon="-2.4244390">
        <ele>174.9</ele>
        <time>2020-02-16T07:18:32Z</time>
      </trkpt>
      <trkpt lat="36.9303490" lon="-2.4244230">
        <ele>175.2</ele>
        <time>2020-02-16T07:18:33Z</time>
      </trkpt>
      <trkpt lat="36.9303670" lon="-2.4244130">
        <ele>175.0</ele>
        <time>2020-02-16T07:18:34Z</time>
      </trkpt>
      <trkpt lat="36.9303920" lon="-2.4243980">
        <ele>175.2</ele>
        <time>2020-02-16T07:18:35Z</time>
      </trkpt>
      <trkpt lat="36.9304040" lon="-2.4243850">
        <ele>175.2</ele>
        <time>2020-02-16T07:18:36Z</time>
      </trkpt>
      <trkpt lat="36.9304250" lon="-2.4243660">
        <ele>175.2</ele>
        <time>2020-02-16T07:18:37Z</time>
      </trkpt>
      <trkpt lat="36.9304450" lon="-2.4243460">
        <ele>175.4</ele>
        <time>2020-02-16T07:18:38Z</time>
      </trkpt>
      <trkpt lat="36.9304670" lon="-2.4243240">
        <ele>175.2</ele>
        <time>2020-02-16T07:18:39Z</time>
      </trkpt>
      <trkpt lat="36.9304850" lon="-2.4243060">
        <ele>175.4</ele>
        <time>2020-02-16T07:18:40Z</time>
      </trkpt>
      <trkpt lat="36.9305000" lon="-2.4242890">
        <ele>175.4</ele>
        <time>2020-02-16T07:18:41Z</time>
      </trkpt>
      <trkpt lat="36.9305270" lon="-2.4242640">
        <ele>175.4</ele>
        <time>2020-02-16T07:18:42Z</time>
      </trkpt>
      <trkpt lat="36.9305500" lon="-2.4242420">
        <ele>175.4</ele>
        <time>2020-02-16T07:18:43Z</time>
      </trkpt>
      <trkpt lat="36.9305700" lon="-2.4242220">
        <ele>175.4</ele>
        <time>2020-02-16T07:18:44Z</time>
      </trkpt>
      <trkpt lat="36.9305890" lon="-2.4242040">
        <ele>175.6</ele>
        <time>2020-02-16T07:18:45Z</time>
      </trkpt>
      <trkpt lat="36.9306040" lon="-2.4241880">
        <ele>175.3</ele>
        <time>2020-02-16T07:18:46Z</time>
      </trkpt>
      <trkpt lat="36.9306220" lon="-2.4241680">
        <ele>175.5</ele>
        <time>2020-02-16T07:18:47Z</time>
      </trkpt>
      <trkpt lat="36.9306420" lon="-2.4241440">
        <ele>175.3</ele>
        <time>2020-02-16T07:18:48Z</time>
      </trkpt>
      <trkpt lat="36.9306570" lon="-2.4241250">
        <ele>175.5</ele>
        <time>2020-02-16T07:18:49Z</time>
      </trkpt>
      <trkpt lat="36.9306730" lon="-2.4241050">
        <ele>175.3</ele>
        <time>2020-02-16T07:18:50Z</time>
      </trkpt>
      <trkpt lat="36.9306850" lon="-2.4240890">
        <ele>175.5</ele>
        <time>2020-02-16T07:18:51Z</time>
      </trkpt>
      <trkpt lat="36.9307020" lon="-2.4240680">
        <ele>175.3</ele>
        <time>2020-02-16T07:18:52Z</time>
      </trkpt>
      <trkpt lat="36.9307230" lon="-2.4240420">
        <ele>175.5</ele>
        <time>2020-02-16T07:18:53Z</time>
      </trkpt>
      <trkpt lat="36.9307370" lon="-2.4240250">
        <ele>175.4</ele>
        <time>2020-02-16T07:18:54Z</time>
      </trkpt>
      <trkpt lat="36.9307530" lon="-2.4240020">
        <ele>175.6</ele>
        <time>2020-02-16T07:18:55Z</time>
      </trkpt>
      <trkpt lat="36.9307650" lon="-2.4239860">
        <ele>175.4</ele>
        <time>2020-02-16T07:18:56Z</time>
      </trkpt>
      <trkpt lat="36.9307820" lon="-2.4239380">
        <ele>175.3</ele>
        <time>2020-02-16T07:18:57Z</time>
      </trkpt>
      <trkpt lat="36.9308000" lon="-2.4239080">
        <ele>175.4</ele>
        <time>2020-02-16T07:18:58Z</time>
      </trkpt>
      <trkpt lat="36.9308190" lon="-2.4238830">
        <ele>175.3</ele>
        <time>2020-02-16T07:18:59Z</time>
      </trkpt>
      <trkpt lat="36.9308330" lon="-2.4238600">
        <ele>175.5</ele>
        <time>2020-02-16T07:19:00Z</time>
      </trkpt>
      <trkpt lat="36.9308450" lon="-2.4238410">
        <ele>175.4</ele>
        <time>2020-02-16T07:19:01Z</time>
      </trkpt>
      <trkpt lat="36.9308600" lon="-2.4238200">
        <ele>175.5</ele>
        <time>2020-02-16T07:19:02Z</time>
      </trkpt>
      <trkpt lat="36.9308770" lon="-2.4237960">
        <ele>175.4</ele>
        <time>2020-02-16T07:19:03Z</time>
      </trkpt>
      <trkpt lat="36.9308950" lon="-2.4237710">
        <ele>175.4</ele>
        <time>2020-02-16T07:19:04Z</time>
      </trkpt>
      <trkpt lat="36.9309120" lon="-2.4237480">
        <ele>175.4</ele>
        <time>2020-02-16T07:19:05Z</time>
      </trkpt>
      <trkpt lat="36.9309250" lon="-2.4237280">
        <ele>175.4</ele>
        <time>2020-02-16T07:19:06Z</time>
      </trkpt>
      <trkpt lat="36.9309380" lon="-2.4237060">
        <ele>175.4</ele>
        <time>2020-02-16T07:19:07Z</time>
      </trkpt>
      <trkpt lat="36.9309550" lon="-2.4236780">
        <ele>175.4</ele>
        <time>2020-02-16T07:19:08Z</time>
      </trkpt>
      <trkpt lat="36.9309670" lon="-2.4236600">
        <ele>175.5</ele>
        <time>2020-02-16T07:19:09Z</time>
      </trkpt>
      <trkpt lat="36.9309840" lon="-2.4236330">
        <ele>175.4</ele>
        <time>2020-02-16T07:19:10Z</time>
      </trkpt>
      <trkpt lat="36.9309960" lon="-2.4236130">
        <ele>175.5</ele>
        <time>2020-02-16T07:19:11Z</time>
      </trkpt>
      <trkpt lat="36.9310100" lon="-2.4235930">
        <ele>175.5</ele>
        <time>2020-02-16T07:19:12Z</time>
      </trkpt>
      <trkpt lat="36.9310280" lon="-2.4235650">
        <ele>175.5</ele>
        <time>2020-02-16T07:19:13Z</time>
      </trkpt>
      <trkpt lat="36.9310420" lon="-2.4235450">
        <ele>175.6</ele>
        <time>2020-02-16T07:19:14Z</time>
      </trkpt>
      <trkpt lat="36.9310580" lon="-2.4235230">
        <ele>175.6</ele>
        <time>2020-02-16T07:19:15Z</time>
      </trkpt>
      <trkpt lat="36.9310720" lon="-2.4235010">
        <ele>175.7</ele>
        <time>2020-02-16T07:19:16Z</time>
      </trkpt>
      <trkpt lat="36.9310840" lon="-2.4234850">
        <ele>175.7</ele>
        <time>2020-02-16T07:19:17Z</time>
      </trkpt>
      <trkpt lat="36.9310980" lon="-2.4234650">
        <ele>175.9</ele>
        <time>2020-02-16T07:19:18Z</time>
      </trkpt>
      <trkpt lat="36.9311150" lon="-2.4234400">
        <ele>175.9</ele>
        <time>2020-02-16T07:19:19Z</time>
      </trkpt>
      <trkpt lat="36.9311350" lon="-2.4234250">
        <ele>176.1</ele>
        <time>2020-02-16T07:19:20Z</time>
      </trkpt>
      <trkpt lat="36.9311480" lon="-2.4234060">
        <ele>176.1</ele>
        <time>2020-02-16T07:19:21Z</time>
      </trkpt>
      <trkpt lat="36.9311630" lon="-2.4233830">
        <ele>176.4</ele>
        <time>2020-02-16T07:19:22Z</time>
      </trkpt>
      <trkpt lat="36.9311820" lon="-2.4233640">
        <ele>176.4</ele>
        <time>2020-02-16T07:19:23Z</time>
      </trkpt>
      <trkpt lat="36.9311970" lon="-2.4233480">
        <ele>176.4</ele>
        <time>2020-02-16T07:19:24Z</time>
      </trkpt>
      <trkpt lat="36.9312180" lon="-2.4233290">
        <ele>176.8</ele>
        <time>2020-02-16T07:19:25Z</time>
      </trkpt>
      <trkpt lat="36.9312370" lon="-2.4233140">
        <ele>176.7</ele>
        <time>2020-02-16T07:19:26Z</time>
      </trkpt>
      <trkpt lat="36.9312600" lon="-2.4232980">
        <ele>177.2</ele>
        <time>2020-02-16T07:19:27Z</time>
      </trkpt>
      <trkpt lat="36.9312770" lon="-2.4232900">
        <ele>177.2</ele>
        <time>2020-02-16T07:19:28Z</time>
      </trkpt>
      <trkpt lat="36.9313000" lon="-2.4232770">
        <ele>177.2</ele>
        <time>2020-02-16T07:19:29Z</time>
      </trkpt>
      <trkpt lat="36.9313180" lon="-2.4232650">
        <ele>177.2</ele>
        <time>2020-02-16T07:19:30Z</time>
      </trkpt>
      <trkpt lat="36.9313380" lon="-2.4232530">
        <ele>177.7</ele>
        <time>2020-02-16T07:19:31Z</time>
      </trkpt>
      <trkpt lat="36.9313570" lon="-2.4232420">
        <ele>177.7</ele>
        <time>2020-02-16T07:19:32Z</time>
      </trkpt>
      <trkpt lat="36.9313780" lon="-2.4232270">
        <ele>177.8</ele>
        <time>2020-02-16T07:19:33Z</time>
      </trkpt>
      <trkpt lat="36.9314030" lon="-2.4232110">
        <ele>178.4</ele>
        <time>2020-02-16T07:19:34Z</time>
      </trkpt>
      <trkpt lat="36.9314250" lon="-2.4231970">
        <ele>178.4</ele>
        <time>2020-02-16T07:19:35Z</time>
      </trkpt>
      <trkpt lat="36.9314450" lon="-2.4231840">
        <ele>178.4</ele>
        <time>2020-02-16T07:19:36Z</time>
      </trkpt>
      <trkpt lat="36.9314620" lon="-2.4231750">
        <ele>178.4</ele>
        <time>2020-02-16T07:19:37Z</time>
      </trkpt>
      <trkpt lat="36.9314820" lon="-2.4231610">
        <ele>179.1</ele>
        <time>2020-02-16T07:19:38Z</time>
      </trkpt>
      <trkpt lat="36.9315050" lon="-2.4231460">
        <ele>179.1</ele>
        <time>2020-02-16T07:19:39Z</time>
      </trkpt>
      <trkpt lat="36.9315220" lon="-2.4231330">
        <ele>179.1</ele>
        <time>2020-02-16T07:19:40Z</time>
      </trkpt>
      <trkpt lat="36.9315420" lon="-2.4231180">
        <ele>179.7</ele>
        <time>2020-02-16T07:19:41Z</time>
      </trkpt>
      <trkpt lat="36.9315550" lon="-2.4231080">
        <ele>179.7</ele>
        <time>2020-02-16T07:19:42Z</time>
      </trkpt>
      <trkpt lat="36.9315750" lon="-2.4230920">
        <ele>179.7</ele>
        <time>2020-02-16T07:19:43Z</time>
      </trkpt>
      <trkpt lat="36.9316000" lon="-2.4230740">
        <ele>180.2</ele>
        <time>2020-02-16T07:19:44Z</time>
      </trkpt>
      <trkpt lat="36.9316200" lon="-2.4230590">
        <ele>180.2</ele>
        <time>2020-02-16T07:19:45Z</time>
      </trkpt>
      <trkpt lat="36.9316380" lon="-2.4230460">
        <ele>180.2</ele>
        <time>2020-02-16T07:19:46Z</time>
      </trkpt>
      <trkpt lat="36.9316580" lon="-2.4230320">
        <ele>180.7</ele>
        <time>2020-02-16T07:19:47Z</time>
      </trkpt>
      <trkpt lat="36.9316800" lon="-2.4230180">
        <ele>180.6</ele>
        <time>2020-02-16T07:19:48Z</time>
      </trkpt>
      <trkpt lat="36.9316970" lon="-2.4230070">
        <ele>180.6</ele>
        <time>2020-02-16T07:19:49Z</time>
      </trkpt>
      <trkpt lat="36.9317150" lon="-2.4229950">
        <ele>181.0</ele>
        <time>2020-02-16T07:19:50Z</time>
      </trkpt>
      <trkpt lat="36.9317300" lon="-2.4229850">
        <ele>181.0</ele>
        <time>2020-02-16T07:19:51Z</time>
      </trkpt>
      <trkpt lat="36.9317580" lon="-2.4229660">
        <ele>180.9</ele>
        <time>2020-02-16T07:19:52Z</time>
      </trkpt>
      <trkpt lat="36.9317780" lon="-2.4229520">
        <ele>181.3</ele>
        <time>2020-02-16T07:19:53Z</time>
      </trkpt>
      <trkpt lat="36.9318010" lon="-2.4229360">
        <ele>181.2</ele>
        <time>2020-02-16T07:19:54Z</time>
      </trkpt>
      <trkpt lat="36.9318250" lon="-2.4229200">
        <ele>181.1</ele>
        <time>2020-02-16T07:19:55Z</time>
      </trkpt>
      <trkpt lat="36.9318430" lon="-2.4229090">
        <ele>181.4</ele>
        <time>2020-02-16T07:19:56Z</time>
      </trkpt>
      <trkpt lat="36.9318650" lon="-2.4228950">
        <ele>181.2</ele>
        <time>2020-02-16T07:19:57Z</time>
      </trkpt>
      <trkpt lat="36.9318830" lon="-2.4228830">
        <ele>181.2</ele>
        <time>2020-02-16T07:19:58Z</time>
      </trkpt>
      <trkpt lat="36.9319030" lon="-2.4228690">
        <ele>181.4</ele>
        <time>2020-02-16T07:19:59Z</time>
      </trkpt>
      <trkpt lat="36.9319250" lon="-2.4228540">
        <ele>181.2</ele>
        <time>2020-02-16T07:20:00Z</time>
      </trkpt>
      <trkpt lat="36.9319450" lon="-2.4228400">
        <ele>181.2</ele>
        <time>2020-02-16T07:20:01Z</time>
      </trkpt>
      <trkpt lat="36.9319610" lon="-2.4228290">
        <ele>181.1</ele>
        <time>2020-02-16T07:20:02Z</time>
      </trkpt>
      <trkpt lat="36.9319880" lon="-2.4228120">
        <ele>181.1</ele>
        <time>2020-02-16T07:20:03Z</time>
      </trkpt>
      <trkpt lat="36.9320100" lon="-2.4227970">
        <ele>181.1</ele>
        <time>2020-02-16T07:20:04Z</time>
      </trkpt>
      <trkpt lat="36.9320280" lon="-2.4227850">
        <ele>181.2</ele>
        <time>2020-02-16T07:20:05Z</time>
      </trkpt>
      <trkpt lat="36.9320480" lon="-2.4227730">
        <ele>181.2</ele>
        <time>2020-02-16T07:20:06Z</time>
      </trkpt>
      <trkpt lat="36.9320660" lon="-2.4227610">
        <ele>181.1</ele>
        <time>2020-02-16T07:20:07Z</time>
      </trkpt>
      <trkpt lat="36.9320800" lon="-2.4227520">
        <ele>181.1</ele>
        <time>2020-02-16T07:20:08Z</time>
      </trkpt>
      <trkpt lat="36.9321030" lon="-2.4227360">
        <ele>181.1</ele>
        <time>2020-02-16T07:20:09Z</time>
      </trkpt>
      <trkpt lat="36.9321210" lon="-2.4227250">
        <ele>181.1</ele>
        <time>2020-02-16T07:20:10Z</time>
      </trkpt>
      <trkpt lat="36.9321380" lon="-2.4227130">
        <ele>181.0</ele>
        <time>2020-02-16T07:20:11Z</time>
      </trkpt>
      <trkpt lat="36.9321550" lon="-2.4227010">
        <ele>181.0</ele>
        <time>2020-02-16T07:20:12Z</time>
      </trkpt>
      <trkpt lat="36.9321750" lon="-2.4226870">
        <ele>181.0</ele>
        <time>2020-02-16T07:20:13Z</time>
      </trkpt>
      <trkpt lat="36.9321930" lon="-2.4226730">
        <ele>180.9</ele>
        <time>2020-02-16T07:20:14Z</time>
      </trkpt>
      <trkpt lat="36.9322130" lon="-2.4226570">
        <ele>181.0</ele>
        <time>2020-02-16T07:20:15Z</time>
      </trkpt>
      <trkpt lat="36.9322350" lon="-2.4226410">
        <ele>180.9</ele>
        <time>2020-02-16T07:20:16Z</time>
      </trkpt>
      <trkpt lat="36.9322560" lon="-2.4226240">
        <ele>180.9</ele>
        <time>2020-02-16T07:20:17Z</time>
      </trkpt>
      <trkpt lat="36.9322750" lon="-2.4226090">
        <ele>180.9</ele>
        <time>2020-02-16T07:20:18Z</time>
      </trkpt>
      <trkpt lat="36.9322930" lon="-2.4225940">
        <ele>180.9</ele>
        <time>2020-02-16T07:20:19Z</time>
      </trkpt>
      <trkpt lat="36.9323150" lon="-2.4225760">
        <ele>180.9</ele>
        <time>2020-02-16T07:20:20Z</time>
      </trkpt>
      <trkpt lat="36.9323350" lon="-2.4225600">
        <ele>181.0</ele>
        <time>2020-02-16T07:20:21Z</time>
      </trkpt>
      <trkpt lat="36.9323530" lon="-2.4225450">
        <ele>181.0</ele>
        <time>2020-02-16T07:20:22Z</time>
      </trkpt>
      <trkpt lat="36.9323730" lon="-2.4225280">
        <ele>181.2</ele>
        <time>2020-02-16T07:20:23Z</time>
      </trkpt>
      <trkpt lat="36.9323930" lon="-2.4225120">
        <ele>181.2</ele>
        <time>2020-02-16T07:20:24Z</time>
      </trkpt>
      <trkpt lat="36.9324130" lon="-2.4224950">
        <ele>181.2</ele>
        <time>2020-02-16T07:20:25Z</time>
      </trkpt>
      <trkpt lat="36.9324350" lon="-2.4224790">
        <ele>181.4</ele>
        <time>2020-02-16T07:20:26Z</time>
      </trkpt>
      <trkpt lat="36.9324560" lon="-2.4224610">
        <ele>181.4</ele>
        <time>2020-02-16T07:20:27Z</time>
      </trkpt>
      <trkpt lat="36.9324780" lon="-2.4224430">
        <ele>181.5</ele>
        <time>2020-02-16T07:20:28Z</time>
      </trkpt>
      <trkpt lat="36.9324980" lon="-2.4224260">
        <ele>181.6</ele>
        <time>2020-02-16T07:20:29Z</time>
      </trkpt>
      <trkpt lat="36.9325180" lon="-2.4224070">
        <ele>181.6</ele>
        <time>2020-02-16T07:20:30Z</time>
      </trkpt>
      <trkpt lat="36.9325360" lon="-2.4223910">
        <ele>181.8</ele>
        <time>2020-02-16T07:20:31Z</time>
      </trkpt>
      <trkpt lat="36.9325460" lon="-2.4223800">
        <ele>181.8</ele>
        <time>2020-02-16T07:20:32Z</time>
      </trkpt>
      <trkpt lat="36.9325660" lon="-2.4223630">
        <ele>181.8</ele>
        <time>2020-02-16T07:20:33Z</time>
      </trkpt>
      <trkpt lat="36.9325900" lon="-2.4223440">
        <ele>182.0</ele>
        <time>2020-02-16T07:20:34Z</time>
      </trkpt>
      <trkpt lat="36.9326130" lon="-2.4223380">
        <ele>182.1</ele>
        <time>2020-02-16T07:20:35Z</time>
      </trkpt>
      <trkpt lat="36.9326350" lon="-2.4223370">
        <ele>182.1</ele>
        <time>2020-02-16T07:20:36Z</time>
      </trkpt>
      <trkpt lat="36.9326550" lon="-2.4223350">
        <ele>182.1</ele>
        <time>2020-02-16T07:20:37Z</time>
      </trkpt>
      <trkpt lat="36.9326730" lon="-2.4223320">
        <ele>182.1</ele>
        <time>2020-02-16T07:20:38Z</time>
      </trkpt>
      <trkpt lat="36.9327000" lon="-2.4223260">
        <ele>182.2</ele>
        <time>2020-02-16T07:20:39Z</time>
      </trkpt>
      <trkpt lat="36.9327180" lon="-2.4223190">
        <ele>182.3</ele>
        <time>2020-02-16T07:20:40Z</time>
      </trkpt>
      <trkpt lat="36.9327380" lon="-2.4223100">
        <ele>182.4</ele>
        <time>2020-02-16T07:20:41Z</time>
      </trkpt>
      <trkpt lat="36.9327600" lon="-2.4223020">
        <ele>182.4</ele>
        <time>2020-02-16T07:20:42Z</time>
      </trkpt>
      <trkpt lat="36.9327760" lon="-2.4222980">
        <ele>182.4</ele>
        <time>2020-02-16T07:20:43Z</time>
      </trkpt>
      <trkpt lat="36.9328030" lon="-2.4222920">
        <ele>182.5</ele>
        <time>2020-02-16T07:20:44Z</time>
      </trkpt>
      <trkpt lat="36.9328250" lon="-2.4222880">
        <ele>182.6</ele>
        <time>2020-02-16T07:20:45Z</time>
      </trkpt>
      <trkpt lat="36.9328480" lon="-2.4222840">
        <ele>182.7</ele>
        <time>2020-02-16T07:20:46Z</time>
      </trkpt>
      <trkpt lat="36.9328700" lon="-2.4222810">
        <ele>182.7</ele>
        <time>2020-02-16T07:20:47Z</time>
      </trkpt>
      <trkpt lat="36.9328930" lon="-2.4222810">
        <ele>182.8</ele>
        <time>2020-02-16T07:20:48Z</time>
      </trkpt>
      <trkpt lat="36.9329160" lon="-2.4222810">
        <ele>182.9</ele>
        <time>2020-02-16T07:20:49Z</time>
      </trkpt>
      <trkpt lat="36.9329380" lon="-2.4222790">
        <ele>182.9</ele>
        <time>2020-02-16T07:20:50Z</time>
      </trkpt>
      <trkpt lat="36.9329610" lon="-2.4222790">
        <ele>183.1</ele>
        <time>2020-02-16T07:20:51Z</time>
      </trkpt>
      <trkpt lat="36.9329850" lon="-2.4222770">
        <ele>183.2</ele>
        <time>2020-02-16T07:20:52Z</time>
      </trkpt>
      <trkpt lat="36.9330060" lon="-2.4222760">
        <ele>183.2</ele>
        <time>2020-02-16T07:20:53Z</time>
      </trkpt>
      <trkpt lat="36.9330280" lon="-2.4222770">
        <ele>183.4</ele>
        <time>2020-02-16T07:20:54Z</time>
      </trkpt>
      <trkpt lat="36.9330490" lon="-2.4222760">
        <ele>183.4</ele>
        <time>2020-02-16T07:20:55Z</time>
      </trkpt>
      <trkpt lat="36.9330710" lon="-2.4222770">
        <ele>183.6</ele>
        <time>2020-02-16T07:20:56Z</time>
      </trkpt>
      <trkpt lat="36.9330890" lon="-2.4222780">
        <ele>183.7</ele>
        <time>2020-02-16T07:20:57Z</time>
      </trkpt>
      <trkpt lat="36.9331160" lon="-2.4222790">
        <ele>183.7</ele>
        <time>2020-02-16T07:20:58Z</time>
      </trkpt>
      <trkpt lat="36.9331380" lon="-2.4222810">
        <ele>183.9</ele>
        <time>2020-02-16T07:20:59Z</time>
      </trkpt>
      <trkpt lat="36.9331630" lon="-2.4222820">
        <ele>184.0</ele>
        <time>2020-02-16T07:21:00Z</time>
      </trkpt>
      <trkpt lat="36.9331840" lon="-2.4222840">
        <ele>184.0</ele>
        <time>2020-02-16T07:21:01Z</time>
      </trkpt>
      <trkpt lat="36.9332060" lon="-2.4222850">
        <ele>184.2</ele>
        <time>2020-02-16T07:21:02Z</time>
      </trkpt>
      <trkpt lat="36.9332290" lon="-2.4222860">
        <ele>184.4</ele>
        <time>2020-02-16T07:21:03Z</time>
      </trkpt>
      <trkpt lat="36.9332540" lon="-2.4222880">
        <ele>184.4</ele>
        <time>2020-02-16T07:21:04Z</time>
      </trkpt>
      <trkpt lat="36.9332780" lon="-2.4222890">
        <ele>184.6</ele>
        <time>2020-02-16T07:21:05Z</time>
      </trkpt>
      <trkpt lat="36.9333010" lon="-2.4222880">
        <ele>184.8</ele>
        <time>2020-02-16T07:21:06Z</time>
      </trkpt>
      <trkpt lat="36.9333240" lon="-2.4222890">
        <ele>184.8</ele>
        <time>2020-02-16T07:21:07Z</time>
      </trkpt>
      <trkpt lat="36.9333460" lon="-2.4222880">
        <ele>184.9</ele>
        <time>2020-02-16T07:21:08Z</time>
      </trkpt>
      <trkpt lat="36.9333660" lon="-2.4222870">
        <ele>185.1</ele>
        <time>2020-02-16T07:21:09Z</time>
      </trkpt>
      <trkpt lat="36.9333860" lon="-2.4222870">
        <ele>185.1</ele>
        <time>2020-02-16T07:21:10Z</time>
      </trkpt>
      <trkpt lat="36.9334040" lon="-2.4222860">
        <ele>185.3</ele>
        <time>2020-02-16T07:21:11Z</time>
      </trkpt>
      <trkpt lat="36.9334310" lon="-2.4222840">
        <ele>185.4</ele>
        <time>2020-02-16T07:21:12Z</time>
      </trkpt>
      <trkpt lat="36.9334530" lon="-2.4222820">
        <ele>185.4</ele>
        <time>2020-02-16T07:21:13Z</time>
      </trkpt>
      <trkpt lat="36.9334790" lon="-2.4222810">
        <ele>185.5</ele>
        <time>2020-02-16T07:21:14Z</time>
      </trkpt>
      <trkpt lat="36.9335030" lon="-2.4222780">
        <ele>185.7</ele>
        <time>2020-02-16T07:21:15Z</time>
      </trkpt>
      <trkpt lat="36.9335240" lon="-2.4222770">
        <ele>185.7</ele>
        <time>2020-02-16T07:21:16Z</time>
      </trkpt>
      <trkpt lat="36.9335480" lon="-2.4222740">
        <ele>185.8</ele>
        <time>2020-02-16T07:21:17Z</time>
      </trkpt>
      <trkpt lat="36.9335660" lon="-2.4222710">
        <ele>186.0</ele>
        <time>2020-02-16T07:21:18Z</time>
      </trkpt>
      <trkpt lat="36.9335910" lon="-2.4222680">
        <ele>186.5</ele>
        <time>2020-02-16T07:21:19Z</time>
      </trkpt>
      <trkpt lat="36.9336090" lon="-2.4222640">
        <ele>186.6</ele>
        <time>2020-02-16T07:21:20Z</time>
      </trkpt>
      <trkpt lat="36.9336310" lon="-2.4222600">
        <ele>186.6</ele>
        <time>2020-02-16T07:21:21Z</time>
      </trkpt>
      <trkpt lat="36.9336530" lon="-2.4222560">
        <ele>186.8</ele>
        <time>2020-02-16T07:21:22Z</time>
      </trkpt>
      <trkpt lat="36.9336760" lon="-2.4222520">
        <ele>186.9</ele>
        <time>2020-02-16T07:21:23Z</time>
      </trkpt>
      <trkpt lat="36.9336980" lon="-2.4222470">
        <ele>186.9</ele>
        <time>2020-02-16T07:21:24Z</time>
      </trkpt>
      <trkpt lat="36.9337190" lon="-2.4222410">
        <ele>187.1</ele>
        <time>2020-02-16T07:21:25Z</time>
      </trkpt>
      <trkpt lat="36.9337390" lon="-2.4222380">
        <ele>187.3</ele>
        <time>2020-02-16T07:21:26Z</time>
      </trkpt>
      <trkpt lat="36.9337630" lon="-2.4222330">
        <ele>187.3</ele>
        <time>2020-02-16T07:21:27Z</time>
      </trkpt>
      <trkpt lat="36.9337890" lon="-2.4222250">
        <ele>188.0</ele>
        <time>2020-02-16T07:21:28Z</time>
      </trkpt>
      <trkpt lat="36.9338130" lon="-2.4222190">
        <ele>188.2</ele>
        <time>2020-02-16T07:21:29Z</time>
      </trkpt>
      <trkpt lat="36.9338360" lon="-2.4222120">
        <ele>188.2</ele>
        <time>2020-02-16T07:21:30Z</time>
      </trkpt>
      <trkpt lat="36.9338560" lon="-2.4222050">
        <ele>188.4</ele>
        <time>2020-02-16T07:21:31Z</time>
      </trkpt>
      <trkpt lat="36.9338780" lon="-2.4221970">
        <ele>188.6</ele>
        <time>2020-02-16T07:21:32Z</time>
      </trkpt>
      <trkpt lat="36.9338990" lon="-2.4221900">
        <ele>188.6</ele>
        <time>2020-02-16T07:21:33Z</time>
      </trkpt>
      <trkpt lat="36.9339190" lon="-2.4221810">
        <ele>189.2</ele>
        <time>2020-02-16T07:21:34Z</time>
      </trkpt>
      <trkpt lat="36.9339390" lon="-2.4221710">
        <ele>189.2</ele>
        <time>2020-02-16T07:21:35Z</time>
      </trkpt>
      <trkpt lat="36.9339610" lon="-2.4221630">
        <ele>189.4</ele>
        <time>2020-02-16T07:21:36Z</time>
      </trkpt>
      <trkpt lat="36.9339830" lon="-2.4221530">
        <ele>189.6</ele>
        <time>2020-02-16T07:21:37Z</time>
      </trkpt>
      <trkpt lat="36.9340040" lon="-2.4221430">
        <ele>189.5</ele>
        <time>2020-02-16T07:21:38Z</time>
      </trkpt>
      <trkpt lat="36.9340280" lon="-2.4221320">
        <ele>189.9</ele>
        <time>2020-02-16T07:21:39Z</time>
      </trkpt>
      <trkpt lat="36.9340510" lon="-2.4221220">
        <ele>190.1</ele>
        <time>2020-02-16T07:21:40Z</time>
      </trkpt>
      <trkpt lat="36.9340740" lon="-2.4221130">
        <ele>190.1</ele>
        <time>2020-02-16T07:21:41Z</time>
      </trkpt>
      <trkpt lat="36.9340960" lon="-2.4221020">
        <ele>190.2</ele>
        <time>2020-02-16T07:21:42Z</time>
      </trkpt>
      <trkpt lat="36.9341190" lon="-2.4220910">
        <ele>190.6</ele>
        <time>2020-02-16T07:21:43Z</time>
      </trkpt>
      <trkpt lat="36.9341390" lon="-2.4220800">
        <ele>190.6</ele>
        <time>2020-02-16T07:21:44Z</time>
      </trkpt>
      <trkpt lat="36.9341580" lon="-2.4220690">
        <ele>190.7</ele>
        <time>2020-02-16T07:21:45Z</time>
      </trkpt>
      <trkpt lat="36.9341780" lon="-2.4220580">
        <ele>190.7</ele>
        <time>2020-02-16T07:21:46Z</time>
      </trkpt>
      <trkpt lat="36.9341960" lon="-2.4220470">
        <ele>191.0</ele>
        <time>2020-02-16T07:21:47Z</time>
      </trkpt>
      <trkpt lat="36.9342230" lon="-2.4220310">
        <ele>191.2</ele>
        <time>2020-02-16T07:21:48Z</time>
      </trkpt>
      <trkpt lat="36.9342440" lon="-2.4220180">
        <ele>191.2</ele>
        <time>2020-02-16T07:21:49Z</time>
      </trkpt>
      <trkpt lat="36.9342680" lon="-2.4220040">
        <ele>191.4</ele>
        <time>2020-02-16T07:21:50Z</time>
      </trkpt>
      <trkpt lat="36.9342910" lon="-2.4219900">
        <ele>191.6</ele>
        <time>2020-02-16T07:21:51Z</time>
      </trkpt>
      <trkpt lat="36.9343080" lon="-2.4219780">
        <ele>191.5</ele>
        <time>2020-02-16T07:21:52Z</time>
      </trkpt>
      <trkpt lat="36.9343340" lon="-2.4219630">
        <ele>191.7</ele>
        <time>2020-02-16T07:21:53Z</time>
      </trkpt>
      <trkpt lat="36.9343530" lon="-2.4219500">
        <ele>191.7</ele>
        <time>2020-02-16T07:21:54Z</time>
      </trkpt>
      <trkpt lat="36.9343790" lon="-2.4219360">
        <ele>191.9</ele>
        <time>2020-02-16T07:21:55Z</time>
      </trkpt>
      <trkpt lat="36.9343990" lon="-2.4219220">
        <ele>192.1</ele>
        <time>2020-02-16T07:21:56Z</time>
      </trkpt>
      <trkpt lat="36.9344190" lon="-2.4219100">
        <ele>192.1</ele>
        <time>2020-02-16T07:21:57Z</time>
      </trkpt>
      <trkpt lat="36.9344410" lon="-2.4218970">
        <ele>192.2</ele>
        <time>2020-02-16T07:21:58Z</time>
      </trkpt>
      <trkpt lat="36.9344620" lon="-2.4218830">
        <ele>192.4</ele>
        <time>2020-02-16T07:21:59Z</time>
      </trkpt>
      <trkpt lat="36.9344810" lon="-2.4218710">
        <ele>192.4</ele>
        <time>2020-02-16T07:22:00Z</time>
      </trkpt>
      <trkpt lat="36.9345040" lon="-2.4218600">
        <ele>192.5</ele>
        <time>2020-02-16T07:22:01Z</time>
      </trkpt>
      <trkpt lat="36.9345290" lon="-2.4218460">
        <ele>192.6</ele>
        <time>2020-02-16T07:22:02Z</time>
      </trkpt>
      <trkpt lat="36.9345520" lon="-2.4218340">
        <ele>192.7</ele>
        <time>2020-02-16T07:22:03Z</time>
      </trkpt>
      <trkpt lat="36.9345760" lon="-2.4218220">
        <ele>192.8</ele>
        <time>2020-02-16T07:22:04Z</time>
      </trkpt>
      <trkpt lat="36.9345910" lon="-2.4218130">
        <ele>192.8</ele>
        <time>2020-02-16T07:22:05Z</time>
      </trkpt>
      <trkpt lat="36.9346070" lon="-2.4218040">
        <ele>192.8</ele>
        <time>2020-02-16T07:22:06Z</time>
      </trkpt>
      <trkpt lat="36.9346260" lon="-2.4217940">
        <ele>192.9</ele>
        <time>2020-02-16T07:22:07Z</time>
      </trkpt>
      <trkpt lat="36.9346460" lon="-2.4217830">
        <ele>193.0</ele>
        <time>2020-02-16T07:22:08Z</time>
      </trkpt>
      <trkpt lat="36.9346620" lon="-2.4217740">
        <ele>193.0</ele>
        <time>2020-02-16T07:22:09Z</time>
      </trkpt>
      <trkpt lat="36.9346910" lon="-2.4217600">
        <ele>193.2</ele>
        <time>2020-02-16T07:22:10Z</time>
      </trkpt>
      <trkpt lat="36.9347160" lon="-2.4217490">
        <ele>193.3</ele>
        <time>2020-02-16T07:22:11Z</time>
      </trkpt>
      <trkpt lat="36.9347370" lon="-2.4217370">
        <ele>193.5</ele>
        <time>2020-02-16T07:22:12Z</time>
      </trkpt>
      <trkpt lat="36.9347560" lon="-2.4217290">
        <ele>193.5</ele>
        <time>2020-02-16T07:22:13Z</time>
      </trkpt>
      <trkpt lat="36.9347760" lon="-2.4217200">
        <ele>193.6</ele>
        <time>2020-02-16T07:22:14Z</time>
      </trkpt>
      <trkpt lat="36.9347960" lon="-2.4217090">
        <ele>193.7</ele>
        <time>2020-02-16T07:22:15Z</time>
      </trkpt>
      <trkpt lat="36.9348210" lon="-2.4216980">
        <ele>193.8</ele>
        <time>2020-02-16T07:22:16Z</time>
      </trkpt>
      <trkpt lat="36.9348410" lon="-2.4216890">
        <ele>194.0</ele>
        <time>2020-02-16T07:22:17Z</time>
      </trkpt>
      <trkpt lat="36.9348620" lon="-2.4216760">
        <ele>194.0</ele>
        <time>2020-02-16T07:22:18Z</time>
      </trkpt>
      <trkpt lat="36.9348790" lon="-2.4216670">
        <ele>194.2</ele>
        <time>2020-02-16T07:22:19Z</time>
      </trkpt>
      <trkpt lat="36.9349070" lon="-2.4216530">
        <ele>194.3</ele>
        <time>2020-02-16T07:22:20Z</time>
      </trkpt>
      <trkpt lat="36.9349290" lon="-2.4216430">
        <ele>194.2</ele>
        <time>2020-02-16T07:22:21Z</time>
      </trkpt>
      <trkpt lat="36.9349490" lon="-2.4216310">
        <ele>194.4</ele>
        <time>2020-02-16T07:22:22Z</time>
      </trkpt>
      <trkpt lat="36.9349740" lon="-2.4216190">
        <ele>194.6</ele>
        <time>2020-02-16T07:22:23Z</time>
      </trkpt>
      <trkpt lat="36.9349940" lon="-2.4216090">
        <ele>194.6</ele>
        <time>2020-02-16T07:22:24Z</time>
      </trkpt>
      <trkpt lat="36.9350160" lon="-2.4215960">
        <ele>194.7</ele>
        <time>2020-02-16T07:22:25Z</time>
      </trkpt>
      <trkpt lat="36.9350320" lon="-2.4215880">
        <ele>194.7</ele>
        <time>2020-02-16T07:22:26Z</time>
      </trkpt>
      <trkpt lat="36.9350540" lon="-2.4215780">
        <ele>194.9</ele>
        <time>2020-02-16T07:22:27Z</time>
      </trkpt>
      <trkpt lat="36.9350810" lon="-2.4215640">
        <ele>195.0</ele>
        <time>2020-02-16T07:22:28Z</time>
      </trkpt>
      <trkpt lat="36.9351020" lon="-2.4215530">
        <ele>195.0</ele>
        <time>2020-02-16T07:22:29Z</time>
      </trkpt>
      <trkpt lat="36.9351270" lon="-2.4215410">
        <ele>195.2</ele>
        <time>2020-02-16T07:22:30Z</time>
      </trkpt>
      <trkpt lat="36.9351470" lon="-2.4215300">
        <ele>195.3</ele>
        <time>2020-02-16T07:22:31Z</time>
      </trkpt>
      <trkpt lat="36.9351670" lon="-2.4215210">
        <ele>195.3</ele>
        <time>2020-02-16T07:22:32Z</time>
      </trkpt>
      <trkpt lat="36.9351920" lon="-2.4215100">
        <ele>195.4</ele>
        <time>2020-02-16T07:22:33Z</time>
      </trkpt>
      <trkpt lat="36.9352120" lon="-2.4214990">
        <ele>195.5</ele>
        <time>2020-02-16T07:22:34Z</time>
      </trkpt>
      <trkpt lat="36.9352310" lon="-2.4214900">
        <ele>195.5</ele>
        <time>2020-02-16T07:22:35Z</time>
      </trkpt>
      <trkpt lat="36.9352470" lon="-2.4214810">
        <ele>195.6</ele>
        <time>2020-02-16T07:22:36Z</time>
      </trkpt>
      <trkpt lat="36.9352670" lon="-2.4214690">
        <ele>195.6</ele>
        <time>2020-02-16T07:22:37Z</time>
      </trkpt>
      <trkpt lat="36.9352940" lon="-2.4214560">
        <ele>195.6</ele>
        <time>2020-02-16T07:22:38Z</time>
      </trkpt>
      <trkpt lat="36.9353170" lon="-2.4214420">
        <ele>195.7</ele>
        <time>2020-02-16T07:22:39Z</time>
      </trkpt>
      <trkpt lat="36.9353390" lon="-2.4214290">
        <ele>195.7</ele>
        <time>2020-02-16T07:22:40Z</time>
      </trkpt>
      <trkpt lat="36.9353610" lon="-2.4214150">
        <ele>195.8</ele>
        <time>2020-02-16T07:22:41Z</time>
      </trkpt>
      <trkpt lat="36.9353820" lon="-2.4214000">
        <ele>195.8</ele>
        <time>2020-02-16T07:22:42Z</time>
      </trkpt>
      <trkpt lat="36.9353990" lon="-2.4213890">
        <ele>195.9</ele>
        <time>2020-02-16T07:22:43Z</time>
      </trkpt>
      <trkpt lat="36.9354240" lon="-2.4213720">
        <ele>195.9</ele>
        <time>2020-02-16T07:22:44Z</time>
      </trkpt>
      <trkpt lat="36.9354390" lon="-2.4213590">
        <ele>195.9</ele>
        <time>2020-02-16T07:22:45Z</time>
      </trkpt>
      <trkpt lat="36.9354610" lon="-2.4213440">
        <ele>196.0</ele>
        <time>2020-02-16T07:22:46Z</time>
      </trkpt>
      <trkpt lat="36.9354770" lon="-2.4213300">
        <ele>196.0</ele>
        <time>2020-02-16T07:22:47Z</time>
      </trkpt>
      <trkpt lat="36.9355010" lon="-2.4213130">
        <ele>196.0</ele>
        <time>2020-02-16T07:22:48Z</time>
      </trkpt>
      <trkpt lat="36.9355220" lon="-2.4212940">
        <ele>195.9</ele>
        <time>2020-02-16T07:22:49Z</time>
      </trkpt>
      <trkpt lat="36.9355360" lon="-2.4212820">
        <ele>195.8</ele>
        <time>2020-02-16T07:22:50Z</time>
      </trkpt>
      <trkpt lat="36.9355610" lon="-2.4212610">
        <ele>195.9</ele>
        <time>2020-02-16T07:22:51Z</time>
      </trkpt>
      <trkpt lat="36.9355790" lon="-2.4212460">
        <ele>195.9</ele>
        <time>2020-02-16T07:22:52Z</time>
      </trkpt>
      <trkpt lat="36.9356040" lon="-2.4212250">
        <ele>195.8</ele>
        <time>2020-02-16T07:22:53Z</time>
      </trkpt>
      <trkpt lat="36.9356220" lon="-2.4212100">
        <ele>195.8</ele>
        <time>2020-02-16T07:22:54Z</time>
      </trkpt>
      <trkpt lat="36.9356370" lon="-2.4211960">
        <ele>195.7</ele>
        <time>2020-02-16T07:22:55Z</time>
      </trkpt>
      <trkpt lat="36.9356560" lon="-2.4211810">
        <ele>195.7</ele>
        <time>2020-02-16T07:22:56Z</time>
      </trkpt>
      <trkpt lat="36.9356740" lon="-2.4211650">
        <ele>195.8</ele>
        <time>2020-02-16T07:22:57Z</time>
      </trkpt>
      <trkpt lat="36.9356940" lon="-2.4211490">
        <ele>195.7</ele>
        <time>2020-02-16T07:22:58Z</time>
      </trkpt>
      <trkpt lat="36.9357170" lon="-2.4211280">
        <ele>195.7</ele>
        <time>2020-02-16T07:22:59Z</time>
      </trkpt>
      <trkpt lat="36.9357360" lon="-2.4211120">
        <ele>195.8</ele>
        <time>2020-02-16T07:23:00Z</time>
      </trkpt>
      <trkpt lat="36.9357560" lon="-2.4210970">
        <ele>195.8</ele>
        <time>2020-02-16T07:23:01Z</time>
      </trkpt>
      <trkpt lat="36.9357760" lon="-2.4210800">
        <ele>195.8</ele>
        <time>2020-02-16T07:23:02Z</time>
      </trkpt>
      <trkpt lat="36.9357920" lon="-2.4210640">
        <ele>195.7</ele>
        <time>2020-02-16T07:23:03Z</time>
      </trkpt>
      <trkpt lat="36.9358090" lon="-2.4210490">
        <ele>195.7</ele>
        <time>2020-02-16T07:23:04Z</time>
      </trkpt>
      <trkpt lat="36.9358310" lon="-2.4210300">
        <ele>195.8</ele>
        <time>2020-02-16T07:23:05Z</time>
      </trkpt>
      <trkpt lat="36.9358460" lon="-2.4210160">
        <ele>195.8</ele>
        <time>2020-02-16T07:23:06Z</time>
      </trkpt>
      <trkpt lat="36.9358670" lon="-2.4209940">
        <ele>195.8</ele>
        <time>2020-02-16T07:23:07Z</time>
      </trkpt>
      <trkpt lat="36.9358840" lon="-2.4209790">
        <ele>195.8</ele>
        <time>2020-02-16T07:23:08Z</time>
      </trkpt>
      <trkpt lat="36.9358970" lon="-2.4209630">
        <ele>195.8</ele>
        <time>2020-02-16T07:23:09Z</time>
      </trkpt>
      <trkpt lat="36.9359160" lon="-2.4209440">
        <ele>195.9</ele>
        <time>2020-02-16T07:23:10Z</time>
      </trkpt>
      <trkpt lat="36.9359320" lon="-2.4209250">
        <ele>196.0</ele>
        <time>2020-02-16T07:23:11Z</time>
      </trkpt>
      <trkpt lat="36.9359520" lon="-2.4209030">
        <ele>196.0</ele>
        <time>2020-02-16T07:23:12Z</time>
      </trkpt>
      <trkpt lat="36.9359670" lon="-2.4208850">
        <ele>196.0</ele>
        <time>2020-02-16T07:23:13Z</time>
      </trkpt>
      <trkpt lat="36.9359790" lon="-2.4208680">
        <ele>196.0</ele>
        <time>2020-02-16T07:23:14Z</time>
      </trkpt>
      <trkpt lat="36.9359950" lon="-2.4207770">
        <ele>196.1</ele>
        <time>2020-02-16T07:23:15Z</time>
      </trkpt>
      <trkpt lat="36.9360090" lon="-2.4207540">
        <ele>196.3</ele>
        <time>2020-02-16T07:23:16Z</time>
      </trkpt>
      <trkpt lat="36.9360220" lon="-2.4207360">
        <ele>196.3</ele>
        <time>2020-02-16T07:23:17Z</time>
      </trkpt>
      <trkpt lat="36.9360400" lon="-2.4207140">
        <ele>196.4</ele>
        <time>2020-02-16T07:23:18Z</time>
      </trkpt>
      <trkpt lat="36.9360590" lon="-2.4206940">
        <ele>196.4</ele>
        <time>2020-02-16T07:23:19Z</time>
      </trkpt>
      <trkpt lat="36.9360740" lon="-2.4206740">
        <ele>196.6</ele>
        <time>2020-02-16T07:23:20Z</time>
      </trkpt>
      <trkpt lat="36.9360940" lon="-2.4206500">
        <ele>196.6</ele>
        <time>2020-02-16T07:23:21Z</time>
      </trkpt>
      <trkpt lat="36.9361140" lon="-2.4206310">
        <ele>196.8</ele>
        <time>2020-02-16T07:23:22Z</time>
      </trkpt>
      <trkpt lat="36.9361320" lon="-2.4206140">
        <ele>196.8</ele>
        <time>2020-02-16T07:23:23Z</time>
      </trkpt>
      <trkpt lat="36.9361420" lon="-2.4206020">
        <ele>196.9</ele>
        <time>2020-02-16T07:23:24Z</time>
      </trkpt>
      <trkpt lat="36.9361550" lon="-2.4205840">
        <ele>197.0</ele>
        <time>2020-02-16T07:23:25Z</time>
      </trkpt>
      <trkpt lat="36.9361720" lon="-2.4205610">
        <ele>197.0</ele>
        <time>2020-02-16T07:23:26Z</time>
      </trkpt>
      <trkpt lat="36.9361820" lon="-2.4205310">
        <ele>197.3</ele>
        <time>2020-02-16T07:23:27Z</time>
      </trkpt>
      <trkpt lat="36.9361950" lon="-2.4205070">
        <ele>197.4</ele>
        <time>2020-02-16T07:23:28Z</time>
      </trkpt>
      <trkpt lat="36.9362090" lon="-2.4204830">
        <ele>197.5</ele>
        <time>2020-02-16T07:23:29Z</time>
      </trkpt>
      <trkpt lat="36.9362210" lon="-2.4204610">
        <ele>197.6</ele>
        <time>2020-02-16T07:23:30Z</time>
      </trkpt>
      <trkpt lat="36.9362350" lon="-2.4204390">
        <ele>197.6</ele>
        <time>2020-02-16T07:23:31Z</time>
      </trkpt>
      <trkpt lat="36.9362470" lon="-2.4204180">
        <ele>197.8</ele>
        <time>2020-02-16T07:23:32Z</time>
      </trkpt>
      <trkpt lat="36.9362610" lon="-2.4203980">
        <ele>197.8</ele>
        <time>2020-02-16T07:23:33Z</time>
      </trkpt>
      <trkpt lat="36.9362740" lon="-2.4203780">
        <ele>197.9</ele>
        <time>2020-02-16T07:23:34Z</time>
      </trkpt>
      <trkpt lat="36.9362880" lon="-2.4203580">
        <ele>197.9</ele>
        <time>2020-02-16T07:23:35Z</time>
      </trkpt>
      <trkpt lat="36.9363050" lon="-2.4203360">
        <ele>198.0</ele>
        <time>2020-02-16T07:23:36Z</time>
      </trkpt>
      <trkpt lat="36.9363220" lon="-2.4203140">
        <ele>198.1</ele>
        <time>2020-02-16T07:23:37Z</time>
      </trkpt>
      <trkpt lat="36.9363370" lon="-2.4202940">
        <ele>198.2</ele>
        <time>2020-02-16T07:23:38Z</time>
      </trkpt>
      <trkpt lat="36.9363550" lon="-2.4202790">
        <ele>198.2</ele>
        <time>2020-02-16T07:23:39Z</time>
      </trkpt>
      <trkpt lat="36.9363700" lon="-2.4202610">
        <ele>198.2</ele>
        <time>2020-02-16T07:23:40Z</time>
      </trkpt>
      <trkpt lat="36.9363920" lon="-2.4202380">
        <ele>198.4</ele>
        <time>2020-02-16T07:23:41Z</time>
      </trkpt>
      <trkpt lat="36.9364090" lon="-2.4202240">
        <ele>198.4</ele>
        <time>2020-02-16T07:23:42Z</time>
      </trkpt>
      <trkpt lat="36.9364270" lon="-2.4202090">
        <ele>198.6</ele>
        <time>2020-02-16T07:23:43Z</time>
      </trkpt>
      <trkpt lat="36.9364400" lon="-2.4201970">
        <ele>198.6</ele>
        <time>2020-02-16T07:23:44Z</time>
      </trkpt>
      <trkpt lat="36.9364520" lon="-2.4201820">
        <ele>198.7</ele>
        <time>2020-02-16T07:23:45Z</time>
      </trkpt>
      <trkpt lat="36.9364690" lon="-2.4201600">
        <ele>198.8</ele>
        <time>2020-02-16T07:23:46Z</time>
      </trkpt>
      <trkpt lat="36.9364820" lon="-2.4201410">
        <ele>198.9</ele>
        <time>2020-02-16T07:23:47Z</time>
      </trkpt>
      <trkpt lat="36.9364970" lon="-2.4201210">
        <ele>199.0</ele>
        <time>2020-02-16T07:23:48Z</time>
      </trkpt>
      <trkpt lat="36.9365070" lon="-2.4201060">
        <ele>199.0</ele>
        <time>2020-02-16T07:23:49Z</time>
      </trkpt>
      <trkpt lat="36.9365220" lon="-2.4200860">
        <ele>199.0</ele>
        <time>2020-02-16T07:23:50Z</time>
      </trkpt>
      <trkpt lat="36.9365390" lon="-2.4200650">
        <ele>199.1</ele>
        <time>2020-02-16T07:23:51Z</time>
      </trkpt>
      <trkpt lat="36.9365540" lon="-2.4200480">
        <ele>199.2</ele>
        <time>2020-02-16T07:23:52Z</time>
      </trkpt>
      <trkpt lat="36.9365720" lon="-2.4200280">
        <ele>199.3</ele>
        <time>2020-02-16T07:23:53Z</time>
      </trkpt>
      <trkpt lat="36.9365890" lon="-2.4200120">
        <ele>199.4</ele>
        <time>2020-02-16T07:23:54Z</time>
      </trkpt>
      <trkpt lat="36.9366050" lon="-2.4199950">
        <ele>199.5</ele>
        <time>2020-02-16T07:23:55Z</time>
      </trkpt>
      <trkpt lat="36.9366220" lon="-2.4199800">
        <ele>199.6</ele>
        <time>2020-02-16T07:23:56Z</time>
      </trkpt>
      <trkpt lat="36.9366400" lon="-2.4199640">
        <ele>199.6</ele>
        <time>2020-02-16T07:23:57Z</time>
      </trkpt>
      <trkpt lat="36.9366600" lon="-2.4199480">
        <ele>199.8</ele>
        <time>2020-02-16T07:23:58Z</time>
      </trkpt>
      <trkpt lat="36.9366800" lon="-2.4199330">
        <ele>199.8</ele>
        <time>2020-02-16T07:23:59Z</time>
      </trkpt>
      <trkpt lat="36.9367020" lon="-2.4199170">
        <ele>199.9</ele>
        <time>2020-02-16T07:24:00Z</time>
      </trkpt>
      <trkpt lat="36.9367250" lon="-2.4199000">
        <ele>200.2</ele>
        <time>2020-02-16T07:24:01Z</time>
      </trkpt>
      <trkpt lat="36.9367420" lon="-2.4198880">
        <ele>200.2</ele>
        <time>2020-02-16T07:24:02Z</time>
      </trkpt>
      <trkpt lat="36.9367640" lon="-2.4198710">
        <ele>200.3</ele>
        <time>2020-02-16T07:24:03Z</time>
      </trkpt>
      <trkpt lat="36.9367770" lon="-2.4198620">
        <ele>200.4</ele>
        <time>2020-02-16T07:24:04Z</time>
      </trkpt>
      <trkpt lat="36.9367950" lon="-2.4198460">
        <ele>200.5</ele>
        <time>2020-02-16T07:24:05Z</time>
      </trkpt>
      <trkpt lat="36.9368140" lon="-2.4198320">
        <ele>200.5</ele>
        <time>2020-02-16T07:24:06Z</time>
      </trkpt>
      <trkpt lat="36.9368300" lon="-2.4198160">
        <ele>200.7</ele>
        <time>2020-02-16T07:24:07Z</time>
      </trkpt>
      <trkpt lat="36.9368450" lon="-2.4198020">
        <ele>200.7</ele>
        <time>2020-02-16T07:24:08Z</time>
      </trkpt>
      <trkpt lat="36.9368590" lon="-2.4197880">
        <ele>200.8</ele>
        <time>2020-02-16T07:24:09Z</time>
      </trkpt>
      <trkpt lat="36.9368770" lon="-2.4197700">
        <ele>200.9</ele>
        <time>2020-02-16T07:24:10Z</time>
      </trkpt>
      <trkpt lat="36.9368900" lon="-2.4197560">
        <ele>200.9</ele>
        <time>2020-02-16T07:24:11Z</time>
      </trkpt>
      <trkpt lat="36.9369140" lon="-2.4197110">
        <ele>201.1</ele>
        <time>2020-02-16T07:24:12Z</time>
      </trkpt>
      <trkpt lat="36.9369290" lon="-2.4196910">
        <ele>201.3</ele>
        <time>2020-02-16T07:24:13Z</time>
      </trkpt>
      <trkpt lat="36.9369440" lon="-2.4196690">
        <ele>201.3</ele>
        <time>2020-02-16T07:24:14Z</time>
      </trkpt>
      <trkpt lat="36.9369600" lon="-2.4196460">
        <ele>201.4</ele>
        <time>2020-02-16T07:24:15Z</time>
      </trkpt>
      <trkpt lat="36.9369780" lon="-2.4196180">
        <ele>201.4</ele>
        <time>2020-02-16T07:24:16Z</time>
      </trkpt>
      <trkpt lat="36.9369900" lon="-2.4195930">
        <ele>201.5</ele>
        <time>2020-02-16T07:24:17Z</time>
      </trkpt>
      <trkpt lat="36.9370040" lon="-2.4195660">
        <ele>201.7</ele>
        <time>2020-02-16T07:24:18Z</time>
      </trkpt>
      <trkpt lat="36.9370150" lon="-2.4195480">
        <ele>201.7</ele>
        <time>2020-02-16T07:24:19Z</time>
      </trkpt>
      <trkpt lat="36.9370280" lon="-2.4195230">
        <ele>201.8</ele>
        <time>2020-02-16T07:24:20Z</time>
      </trkpt>
      <trkpt lat="36.9370430" lon="-2.4194940">
        <ele>201.8</ele>
        <time>2020-02-16T07:24:21Z</time>
      </trkpt>
      <trkpt lat="36.9370550" lon="-2.4194680">
        <ele>201.9</ele>
        <time>2020-02-16T07:24:22Z</time>
      </trkpt>
      <trkpt lat="36.9370670" lon="-2.4194410">
        <ele>201.9</ele>
        <time>2020-02-16T07:24:23Z</time>
      </trkpt>
      <trkpt lat="36.9370740" lon="-2.4194210">
        <ele>202.0</ele>
        <time>2020-02-16T07:24:24Z</time>
      </trkpt>
      <trkpt lat="36.9370830" lon="-2.4193980">
        <ele>202.0</ele>
        <time>2020-02-16T07:24:25Z</time>
      </trkpt>
      <trkpt lat="36.9370980" lon="-2.4193610">
        <ele>202.2</ele>
        <time>2020-02-16T07:24:26Z</time>
      </trkpt>
      <trkpt lat="36.9371070" lon="-2.4193340">
        <ele>202.3</ele>
        <time>2020-02-16T07:24:27Z</time>
      </trkpt>
      <trkpt lat="36.9371180" lon="-2.4193040">
        <ele>202.5</ele>
        <time>2020-02-16T07:24:28Z</time>
      </trkpt>
      <trkpt lat="36.9371250" lon="-2.4192790">
        <ele>202.5</ele>
        <time>2020-02-16T07:24:29Z</time>
      </trkpt>
      <trkpt lat="36.9371340" lon="-2.4192490">
        <ele>202.5</ele>
        <time>2020-02-16T07:24:30Z</time>
      </trkpt>
      <trkpt lat="36.9371450" lon="-2.4192130">
        <ele>202.7</ele>
        <time>2020-02-16T07:24:31Z</time>
      </trkpt>
      <trkpt lat="36.9371510" lon="-2.4191840">
        <ele>202.7</ele>
        <time>2020-02-16T07:24:32Z</time>
      </trkpt>
      <trkpt lat="36.9371570" lon="-2.4191540">
        <ele>203.0</ele>
        <time>2020-02-16T07:24:33Z</time>
      </trkpt>
      <trkpt lat="36.9371610" lon="-2.4191290">
        <ele>203.3</ele>
        <time>2020-02-16T07:24:34Z</time>
      </trkpt>
      <trkpt lat="36.9371660" lon="-2.4191030">
        <ele>203.3</ele>
        <time>2020-02-16T07:24:35Z</time>
      </trkpt>
      <trkpt lat="36.9371720" lon="-2.4190660">
        <ele>203.4</ele>
        <time>2020-02-16T07:24:36Z</time>
      </trkpt>
      <trkpt lat="36.9371760" lon="-2.4190380">
        <ele>203.9</ele>
        <time>2020-02-16T07:24:37Z</time>
      </trkpt>
      <trkpt lat="36.9371790" lon="-2.4190080">
        <ele>204.4</ele>
        <time>2020-02-16T07:24:38Z</time>
      </trkpt>
      <trkpt lat="36.9371800" lon="-2.4189840">
        <ele>204.4</ele>
        <time>2020-02-16T07:24:39Z</time>
      </trkpt>
      <trkpt lat="36.9371850" lon="-2.4189490">
        <ele>205.1</ele>
        <time>2020-02-16T07:24:40Z</time>
      </trkpt>
      <trkpt lat="36.9371870" lon="-2.4189190">
        <ele>205.8</ele>
        <time>2020-02-16T07:24:41Z</time>
      </trkpt>
      <trkpt lat="36.9371890" lon="-2.4188880">
        <ele>205.8</ele>
        <time>2020-02-16T07:24:42Z</time>
      </trkpt>
      <trkpt lat="36.9371890" lon="-2.4188660">
        <ele>206.6</ele>
        <time>2020-02-16T07:24:43Z</time>
      </trkpt>
      <trkpt lat="36.9371890" lon="-2.4188380">
        <ele>206.6</ele>
        <time>2020-02-16T07:24:44Z</time>
      </trkpt>
      <trkpt lat="36.9371900" lon="-2.4188060">
        <ele>207.4</ele>
        <time>2020-02-16T07:24:45Z</time>
      </trkpt>
      <trkpt lat="36.9371930" lon="-2.4187710">
        <ele>208.2</ele>
        <time>2020-02-16T07:24:46Z</time>
      </trkpt>
      <trkpt lat="36.9371920" lon="-2.4187430">
        <ele>208.9</ele>
        <time>2020-02-16T07:24:47Z</time>
      </trkpt>
      <trkpt lat="36.9371920" lon="-2.4187150">
        <ele>208.9</ele>
        <time>2020-02-16T07:24:48Z</time>
      </trkpt>
      <trkpt lat="36.9371910" lon="-2.4186930">
        <ele>209.6</ele>
        <time>2020-02-16T07:24:49Z</time>
      </trkpt>
      <trkpt lat="36.9371910" lon="-2.4186650">
        <ele>210.2</ele>
        <time>2020-02-16T07:24:50Z</time>
      </trkpt>
      <trkpt lat="36.9371940" lon="-2.4186350">
        <ele>210.2</ele>
        <time>2020-02-16T07:24:51Z</time>
      </trkpt>
      <trkpt lat="36.9371960" lon="-2.4186130">
        <ele>210.9</ele>
        <time>2020-02-16T07:24:52Z</time>
      </trkpt>
      <trkpt lat="36.9371880" lon="-2.4185980">
        <ele>210.9</ele>
        <time>2020-02-16T07:24:53Z</time>
      </trkpt>
      <trkpt lat="36.9372070" lon="-2.4185880">
        <ele>210.0</ele>
        <time>2020-02-16T07:24:54Z</time>
      </trkpt>
      <trkpt lat="36.9372230" lon="-2.4185800">
        <ele>210.6</ele>
        <time>2020-02-16T07:24:55Z</time>
      </trkpt>
      <trkpt lat="36.9372430" lon="-2.4185750">
        <ele>209.8</ele>
        <time>2020-02-16T07:24:56Z</time>
      </trkpt>
      <trkpt lat="36.9372620" lon="-2.4185660">
        <ele>209.8</ele>
        <time>2020-02-16T07:24:57Z</time>
      </trkpt>
      <trkpt lat="36.9372830" lon="-2.4185600">
        <ele>208.9</ele>
        <time>2020-02-16T07:24:58Z</time>
      </trkpt>
      <trkpt lat="36.9373020" lon="-2.4185480">
        <ele>208.9</ele>
        <time>2020-02-16T07:24:59Z</time>
      </trkpt>
      <trkpt lat="36.9373220" lon="-2.4185390">
        <ele>208.2</ele>
        <time>2020-02-16T07:25:00Z</time>
      </trkpt>
      <trkpt lat="36.9373450" lon="-2.4185300">
        <ele>208.2</ele>
        <time>2020-02-16T07:25:01Z</time>
      </trkpt>
      <trkpt lat="36.9373650" lon="-2.4185200">
        <ele>208.2</ele>
        <time>2020-02-16T07:25:02Z</time>
      </trkpt>
      <trkpt lat="36.9373830" lon="-2.4185100">
        <ele>207.7</ele>
        <time>2020-02-16T07:25:03Z</time>
      </trkpt>
      <trkpt lat="36.9374020" lon="-2.4185000">
        <ele>207.7</ele>
        <time>2020-02-16T07:25:04Z</time>
      </trkpt>
      <trkpt lat="36.9374200" lon="-2.4184920">
        <ele>208.0</ele>
        <time>2020-02-16T07:25:05Z</time>
      </trkpt>
      <trkpt lat="36.9374420" lon="-2.4184830">
        <ele>207.7</ele>
        <time>2020-02-16T07:25:06Z</time>
      </trkpt>
      <trkpt lat="36.9374580" lon="-2.4184780">
        <ele>207.7</ele>
        <time>2020-02-16T07:25:07Z</time>
      </trkpt>
      <trkpt lat="36.9374770" lon="-2.4184700">
        <ele>207.5</ele>
        <time>2020-02-16T07:25:08Z</time>
      </trkpt>
      <trkpt lat="36.9374970" lon="-2.4184620">
        <ele>207.5</ele>
        <time>2020-02-16T07:25:09Z</time>
      </trkpt>
      <trkpt lat="36.9375180" lon="-2.4184540">
        <ele>207.3</ele>
        <time>2020-02-16T07:25:10Z</time>
      </trkpt>
      <trkpt lat="36.9375400" lon="-2.4184470">
        <ele>207.9</ele>
        <time>2020-02-16T07:25:11Z</time>
      </trkpt>
      <trkpt lat="36.9375630" lon="-2.4184400">
        <ele>207.8</ele>
        <time>2020-02-16T07:25:12Z</time>
      </trkpt>
      <trkpt lat="36.9375850" lon="-2.4184330">
        <ele>207.8</ele>
        <time>2020-02-16T07:25:13Z</time>
      </trkpt>
      <trkpt lat="36.9376030" lon="-2.4184280">
        <ele>207.8</ele>
        <time>2020-02-16T07:25:14Z</time>
      </trkpt>
      <trkpt lat="36.9376200" lon="-2.4184240">
        <ele>207.8</ele>
        <time>2020-02-16T07:25:15Z</time>
      </trkpt>
      <trkpt lat="36.9376400" lon="-2.4184180">
        <ele>207.8</ele>
        <time>2020-02-16T07:25:16Z</time>
      </trkpt>
      <trkpt lat="36.9376670" lon="-2.4184120">
        <ele>207.8</ele>
        <time>2020-02-16T07:25:17Z</time>
      </trkpt>
      <trkpt lat="36.9376820" lon="-2.4184100">
        <ele>207.9</ele>
        <time>2020-02-16T07:25:18Z</time>
      </trkpt>
      <trkpt lat="36.9376980" lon="-2.4184070">
        <ele>208.3</ele>
        <time>2020-02-16T07:25:19Z</time>
      </trkpt>
      <trkpt lat="36.9377200" lon="-2.4184020">
        <ele>208.4</ele>
        <time>2020-02-16T07:25:20Z</time>
      </trkpt>
      <trkpt lat="36.9377370" lon="-2.4183990">
        <ele>208.4</ele>
        <time>2020-02-16T07:25:21Z</time>
      </trkpt>
      <trkpt lat="36.9377650" lon="-2.4183920">
        <ele>208.4</ele>
        <time>2020-02-16T07:25:22Z</time>
      </trkpt>
      <trkpt lat="36.9377870" lon="-2.4183870">
        <ele>208.5</ele>
        <time>2020-02-16T07:25:23Z</time>
      </trkpt>
      <trkpt lat="36.9378070" lon="-2.4183830">
        <ele>208.5</ele>
        <time>2020-02-16T07:25:24Z</time>
      </trkpt>
      <trkpt lat="36.9378280" lon="-2.4183780">
        <ele>208.6</ele>
        <time>2020-02-16T07:25:25Z</time>
      </trkpt>
      <trkpt lat="36.9378470" lon="-2.4183740">
        <ele>208.6</ele>
        <time>2020-02-16T07:25:26Z</time>
      </trkpt>
      <trkpt lat="36.9378680" lon="-2.4183690">
        <ele>208.6</ele>
        <time>2020-02-16T07:25:27Z</time>
      </trkpt>
      <trkpt lat="36.9378950" lon="-2.4183630">
        <ele>209.0</ele>
        <time>2020-02-16T07:25:28Z</time>
      </trkpt>
      <trkpt lat="36.9379180" lon="-2.4183570">
        <ele>209.0</ele>
        <time>2020-02-16T07:25:29Z</time>
      </trkpt>
      <trkpt lat="36.9379350" lon="-2.4183540">
        <ele>209.0</ele>
        <time>2020-02-16T07:25:30Z</time>
      </trkpt>
      <trkpt lat="36.9379550" lon="-2.4183490">
        <ele>209.0</ele>
        <time>2020-02-16T07:25:31Z</time>
      </trkpt>
      <trkpt lat="36.9379820" lon="-2.4183430">
        <ele>208.9</ele>
        <time>2020-02-16T07:25:32Z</time>
      </trkpt>
      <trkpt lat="36.9380030" lon="-2.4183370">
        <ele>208.8</ele>
        <time>2020-02-16T07:25:33Z</time>
      </trkpt>
      <trkpt lat="36.9380270" lon="-2.4183310">
        <ele>208.7</ele>
        <time>2020-02-16T07:25:34Z</time>
      </trkpt>
      <trkpt lat="36.9380470" lon="-2.4183260">
        <ele>208.7</ele>
        <time>2020-02-16T07:25:35Z</time>
      </trkpt>
      <trkpt lat="36.9380650" lon="-2.4183200">
        <ele>208.9</ele>
        <time>2020-02-16T07:25:36Z</time>
      </trkpt>
      <trkpt lat="36.9380950" lon="-2.4183120">
        <ele>208.7</ele>
        <time>2020-02-16T07:25:37Z</time>
      </trkpt>
      <trkpt lat="36.9381170" lon="-2.4183060">
        <ele>208.7</ele>
        <time>2020-02-16T07:25:38Z</time>
      </trkpt>
      <trkpt lat="36.9381380" lon="-2.4183000">
        <ele>208.6</ele>
        <time>2020-02-16T07:25:39Z</time>
      </trkpt>
      <trkpt lat="36.9381550" lon="-2.4182940">
        <ele>208.6</ele>
        <time>2020-02-16T07:25:40Z</time>
      </trkpt>
      <trkpt lat="36.9381730" lon="-2.4182860">
        <ele>208.4</ele>
        <time>2020-02-16T07:25:41Z</time>
      </trkpt>
      <trkpt lat="36.9382030" lon="-2.4182770">
        <ele>208.7</ele>
        <time>2020-02-16T07:25:42Z</time>
      </trkpt>
      <trkpt lat="36.9382230" lon="-2.4182690">
        <ele>208.7</ele>
        <time>2020-02-16T07:25:43Z</time>
      </trkpt>
      <trkpt lat="36.9382450" lon="-2.4182610">
        <ele>208.6</ele>
        <time>2020-02-16T07:25:44Z</time>
      </trkpt>
      <trkpt lat="36.9382580" lon="-2.4182540">
        <ele>208.6</ele>
        <time>2020-02-16T07:25:45Z</time>
      </trkpt>
      <trkpt lat="36.9382760" lon="-2.4182460">
        <ele>208.5</ele>
        <time>2020-02-16T07:25:46Z</time>
      </trkpt>
      <trkpt lat="36.9382960" lon="-2.4182370">
        <ele>208.5</ele>
        <time>2020-02-16T07:25:47Z</time>
      </trkpt>
      <trkpt lat="36.9383180" lon="-2.4182270">
        <ele>208.7</ele>
        <time>2020-02-16T07:25:48Z</time>
      </trkpt>
      <trkpt lat="36.9383350" lon="-2.4182170">
        <ele>208.6</ele>
        <time>2020-02-16T07:25:49Z</time>
      </trkpt>
      <trkpt lat="36.9383480" lon="-2.4182070">
        <ele>208.6</ele>
        <time>2020-02-16T07:25:50Z</time>
      </trkpt>
      <trkpt lat="36.9383650" lon="-2.4181960">
        <ele>208.6</ele>
        <time>2020-02-16T07:25:51Z</time>
      </trkpt>
      <trkpt lat="36.9383900" lon="-2.4181830">
        <ele>208.8</ele>
        <time>2020-02-16T07:25:52Z</time>
      </trkpt>
      <trkpt lat="36.9384080" lon="-2.4181690">
        <ele>208.8</ele>
        <time>2020-02-16T07:25:53Z</time>
      </trkpt>
      <trkpt lat="36.9384260" lon="-2.4181560">
        <ele>208.8</ele>
        <time>2020-02-16T07:25:54Z</time>
      </trkpt>
      <trkpt lat="36.9384410" lon="-2.4181410">
        <ele>209.0</ele>
        <time>2020-02-16T07:25:55Z</time>
      </trkpt>
      <trkpt lat="36.9384580" lon="-2.4181280">
        <ele>209.0</ele>
        <time>2020-02-16T07:25:56Z</time>
      </trkpt>
      <trkpt lat="36.9384800" lon="-2.4181110">
        <ele>208.9</ele>
        <time>2020-02-16T07:25:57Z</time>
      </trkpt>
      <trkpt lat="36.9384950" lon="-2.4180950">
        <ele>209.2</ele>
        <time>2020-02-16T07:25:58Z</time>
      </trkpt>
      <trkpt lat="36.9385150" lon="-2.4180780">
        <ele>209.1</ele>
        <time>2020-02-16T07:25:59Z</time>
      </trkpt>
      <trkpt lat="36.9385300" lon="-2.4180620">
        <ele>209.3</ele>
        <time>2020-02-16T07:26:00Z</time>
      </trkpt>
      <trkpt lat="36.9385550" lon="-2.4180400">
        <ele>209.3</ele>
        <time>2020-02-16T07:26:01Z</time>
      </trkpt>
      <trkpt lat="36.9385730" lon="-2.4180230">
        <ele>209.3</ele>
        <time>2020-02-16T07:26:02Z</time>
      </trkpt>
      <trkpt lat="36.9385880" lon="-2.4180050">
        <ele>209.5</ele>
        <time>2020-02-16T07:26:03Z</time>
      </trkpt>
      <trkpt lat="36.9386050" lon="-2.4179870">
        <ele>209.5</ele>
        <time>2020-02-16T07:26:04Z</time>
      </trkpt>
      <trkpt lat="36.9386250" lon="-2.4179640">
        <ele>209.7</ele>
        <time>2020-02-16T07:26:05Z</time>
      </trkpt>
      <trkpt lat="36.9386420" lon="-2.4178850">
        <ele>210.1</ele>
        <time>2020-02-16T07:26:06Z</time>
      </trkpt>
      <trkpt lat="36.9386480" lon="-2.4178200">
        <ele>210.3</ele>
        <time>2020-02-16T07:26:07Z</time>
      </trkpt>
      <trkpt lat="36.9386600" lon="-2.4177970">
        <ele>210.4</ele>
        <time>2020-02-16T07:26:08Z</time>
      </trkpt>
      <trkpt lat="36.9386680" lon="-2.4177720">
        <ele>210.4</ele>
        <time>2020-02-16T07:26:09Z</time>
      </trkpt>
      <trkpt lat="36.9386780" lon="-2.4177520">
        <ele>210.5</ele>
        <time>2020-02-16T07:26:10Z</time>
      </trkpt>
      <trkpt lat="36.9386940" lon="-2.4177230">
        <ele>210.5</ele>
        <time>2020-02-16T07:26:11Z</time>
      </trkpt>
      <trkpt lat="36.9387080" lon="-2.4176980">
        <ele>210.6</ele>
        <time>2020-02-16T07:26:12Z</time>
      </trkpt>
      <trkpt lat="36.9387230" lon="-2.4176770">
        <ele>210.7</ele>
        <time>2020-02-16T07:26:13Z</time>
      </trkpt>
      <trkpt lat="36.9387360" lon="-2.4176550">
        <ele>210.7</ele>
        <time>2020-02-16T07:26:14Z</time>
      </trkpt>
      <trkpt lat="36.9387500" lon="-2.4176350">
        <ele>210.8</ele>
        <time>2020-02-16T07:26:15Z</time>
      </trkpt>
      <trkpt lat="36.9387630" lon="-2.4176170">
        <ele>210.8</ele>
        <time>2020-02-16T07:26:16Z</time>
      </trkpt>
      <trkpt lat="36.9387820" lon="-2.4175920">
        <ele>210.9</ele>
        <time>2020-02-16T07:26:17Z</time>
      </trkpt>
      <trkpt lat="36.9387980" lon="-2.4175700">
        <ele>210.9</ele>
        <time>2020-02-16T07:26:18Z</time>
      </trkpt>
      <trkpt lat="36.9388150" lon="-2.4175480">
        <ele>211.1</ele>
        <time>2020-02-16T07:26:19Z</time>
      </trkpt>
      <trkpt lat="36.9388280" lon="-2.4175320">
        <ele>211.1</ele>
        <time>2020-02-16T07:26:20Z</time>
      </trkpt>
      <trkpt lat="36.9388430" lon="-2.4175100">
        <ele>211.1</ele>
        <time>2020-02-16T07:26:21Z</time>
      </trkpt>
      <trkpt lat="36.9388560" lon="-2.4174920">
        <ele>211.2</ele>
        <time>2020-02-16T07:26:22Z</time>
      </trkpt>
      <trkpt lat="36.9388750" lon="-2.4174670">
        <ele>211.2</ele>
        <time>2020-02-16T07:26:23Z</time>
      </trkpt>
      <trkpt lat="36.9388980" lon="-2.4174500">
        <ele>211.4</ele>
        <time>2020-02-16T07:26:24Z</time>
      </trkpt>
      <trkpt lat="36.9389130" lon="-2.4174370">
        <ele>211.4</ele>
        <time>2020-02-16T07:26:25Z</time>
      </trkpt>
      <trkpt lat="36.9389260" lon="-2.4174160">
        <ele>211.6</ele>
        <time>2020-02-16T07:26:26Z</time>
      </trkpt>
      <trkpt lat="36.9389460" lon="-2.4173920">
        <ele>211.6</ele>
        <time>2020-02-16T07:26:27Z</time>
      </trkpt>
      <trkpt lat="36.9389610" lon="-2.4173720">
        <ele>211.8</ele>
        <time>2020-02-16T07:26:28Z</time>
      </trkpt>
      <trkpt lat="36.9389810" lon="-2.4173490">
        <ele>211.8</ele>
        <time>2020-02-16T07:26:29Z</time>
      </trkpt>
      <trkpt lat="36.9390000" lon="-2.4173280">
        <ele>211.9</ele>
        <time>2020-02-16T07:26:30Z</time>
      </trkpt>
      <trkpt lat="36.9390160" lon="-2.4173120">
        <ele>211.9</ele>
        <time>2020-02-16T07:26:31Z</time>
      </trkpt>
      <trkpt lat="36.9390380" lon="-2.4172900">
        <ele>212.0</ele>
        <time>2020-02-16T07:26:32Z</time>
      </trkpt>
      <trkpt lat="36.9390560" lon="-2.4172720">
        <ele>212.1</ele>
        <time>2020-02-16T07:26:33Z</time>
      </trkpt>
      <trkpt lat="36.9390730" lon="-2.4172540">
        <ele>212.1</ele>
        <time>2020-02-16T07:26:34Z</time>
      </trkpt>
      <trkpt lat="36.9390860" lon="-2.4172390">
        <ele>212.2</ele>
        <time>2020-02-16T07:26:35Z</time>
      </trkpt>
      <trkpt lat="36.9391030" lon="-2.4172220">
        <ele>212.3</ele>
        <time>2020-02-16T07:26:36Z</time>
      </trkpt>
      <trkpt lat="36.9391280" lon="-2.4171980">
        <ele>212.4</ele>
        <time>2020-02-16T07:26:37Z</time>
      </trkpt>
      <trkpt lat="36.9391460" lon="-2.4171810">
        <ele>212.4</ele>
        <time>2020-02-16T07:26:38Z</time>
      </trkpt>
      <trkpt lat="36.9391650" lon="-2.4171660">
        <ele>212.5</ele>
        <time>2020-02-16T07:26:39Z</time>
      </trkpt>
      <trkpt lat="36.9391760" lon="-2.4171550">
        <ele>212.5</ele>
        <time>2020-02-16T07:26:40Z</time>
      </trkpt>
      <trkpt lat="36.9391910" lon="-2.4171410">
        <ele>212.7</ele>
        <time>2020-02-16T07:26:41Z</time>
      </trkpt>
      <trkpt lat="36.9392110" lon="-2.4171200">
        <ele>212.7</ele>
        <time>2020-02-16T07:26:42Z</time>
      </trkpt>
      <trkpt lat="36.9392280" lon="-2.4171020">
        <ele>212.8</ele>
        <time>2020-02-16T07:26:43Z</time>
      </trkpt>
      <trkpt lat="36.9392400" lon="-2.4170870">
        <ele>212.8</ele>
        <time>2020-02-16T07:26:44Z</time>
      </trkpt>
      <trkpt lat="36.9392510" lon="-2.4170500">
        <ele>212.8</ele>
        <time>2020-02-16T07:26:45Z</time>
      </trkpt>
      <trkpt lat="36.9392630" lon="-2.4170230">
        <ele>212.9</ele>
        <time>2020-02-16T07:26:46Z</time>
      </trkpt>
      <trkpt lat="36.9392760" lon="-2.4169930">
        <ele>212.9</ele>
        <time>2020-02-16T07:26:47Z</time>
      </trkpt>
      <trkpt lat="36.9392890" lon="-2.4169680">
        <ele>212.8</ele>
        <time>2020-02-16T07:26:48Z</time>
      </trkpt>
      <trkpt lat="36.9393010" lon="-2.4169470">
        <ele>212.8</ele>
        <time>2020-02-16T07:26:49Z</time>
      </trkpt>
      <trkpt lat="36.9393110" lon="-2.4169280">
        <ele>212.8</ele>
        <time>2020-02-16T07:26:50Z</time>
      </trkpt>
      <trkpt lat="36.9393250" lon="-2.4169070">
        <ele>212.8</ele>
        <time>2020-02-16T07:26:51Z</time>
      </trkpt>
      <trkpt lat="36.9393390" lon="-2.4168870">
        <ele>213.0</ele>
        <time>2020-02-16T07:26:52Z</time>
      </trkpt>
      <trkpt lat="36.9393560" lon="-2.4168620">
        <ele>212.9</ele>
        <time>2020-02-16T07:26:53Z</time>
      </trkpt>
      <trkpt lat="36.9393690" lon="-2.4168440">
        <ele>213.1</ele>
        <time>2020-02-16T07:26:54Z</time>
      </trkpt>
      <trkpt lat="36.9393810" lon="-2.4168250">
        <ele>213.1</ele>
        <time>2020-02-16T07:26:55Z</time>
      </trkpt>
      <trkpt lat="36.9394000" lon="-2.4167940">
        <ele>213.3</ele>
        <time>2020-02-16T07:26:56Z</time>
      </trkpt>
      <trkpt lat="36.9394130" lon="-2.4167700">
        <ele>213.3</ele>
        <time>2020-02-16T07:26:57Z</time>
      </trkpt>
      <trkpt lat="36.9394240" lon="-2.4167500">
        <ele>213.3</ele>
        <time>2020-02-16T07:26:58Z</time>
      </trkpt>
      <trkpt lat="36.9394370" lon="-2.4167290">
        <ele>213.5</ele>
        <time>2020-02-16T07:26:59Z</time>
      </trkpt>
      <trkpt lat="36.9394520" lon="-2.4167050">
        <ele>213.5</ele>
        <time>2020-02-16T07:27:00Z</time>
      </trkpt>
      <trkpt lat="36.9394670" lon="-2.4166800">
        <ele>213.7</ele>
        <time>2020-02-16T07:27:01Z</time>
      </trkpt>
      <trkpt lat="36.9394840" lon="-2.4166520">
        <ele>213.7</ele>
        <time>2020-02-16T07:27:02Z</time>
      </trkpt>
      <trkpt lat="36.9394970" lon="-2.4166290">
        <ele>213.7</ele>
        <time>2020-02-16T07:27:03Z</time>
      </trkpt>
      <trkpt lat="36.9395130" lon="-2.4166000">
        <ele>213.8</ele>
        <time>2020-02-16T07:27:04Z</time>
      </trkpt>
      <trkpt lat="36.9395260" lon="-2.4165740">
        <ele>213.8</ele>
        <time>2020-02-16T07:27:05Z</time>
      </trkpt>
      <trkpt lat="36.9395370" lon="-2.4165500">
        <ele>213.9</ele>
        <time>2020-02-16T07:27:06Z</time>
      </trkpt>
      <trkpt lat="36.9395500" lon="-2.4165240">
        <ele>213.9</ele>
        <time>2020-02-16T07:27:07Z</time>
      </trkpt>
      <trkpt lat="36.9395660" lon="-2.4164900">
        <ele>214.0</ele>
        <time>2020-02-16T07:27:08Z</time>
      </trkpt>
      <trkpt lat="36.9395770" lon="-2.4164650">
        <ele>214.1</ele>
        <time>2020-02-16T07:27:09Z</time>
      </trkpt>
      <trkpt lat="36.9395870" lon="-2.4164390">
        <ele>214.1</ele>
        <time>2020-02-16T07:27:10Z</time>
      </trkpt>
      <trkpt lat="36.9395970" lon="-2.4164140">
        <ele>214.1</ele>
        <time>2020-02-16T07:27:11Z</time>
      </trkpt>
      <trkpt lat="36.9396060" lon="-2.4163870">
        <ele>214.3</ele>
        <time>2020-02-16T07:27:12Z</time>
      </trkpt>
      <trkpt lat="36.9396160" lon="-2.4163570">
        <ele>214.3</ele>
        <time>2020-02-16T07:27:13Z</time>
      </trkpt>
      <trkpt lat="36.9396250" lon="-2.4163340">
        <ele>214.4</ele>
        <time>2020-02-16T07:27:14Z</time>
      </trkpt>
      <trkpt lat="36.9396350" lon="-2.4163090">
        <ele>214.4</ele>
        <time>2020-02-16T07:27:15Z</time>
      </trkpt>
      <trkpt lat="36.9396460" lon="-2.4162820">
        <ele>214.6</ele>
        <time>2020-02-16T07:27:16Z</time>
      </trkpt>
      <trkpt lat="36.9396530" lon="-2.4162600">
        <ele>214.7</ele>
        <time>2020-02-16T07:27:17Z</time>
      </trkpt>
      <trkpt lat="36.9396660" lon="-2.4162290">
        <ele>214.7</ele>
        <time>2020-02-16T07:27:18Z</time>
      </trkpt>
      <trkpt lat="36.9396780" lon="-2.4162000">
        <ele>214.9</ele>
        <time>2020-02-16T07:27:19Z</time>
      </trkpt>
      <trkpt lat="36.9396890" lon="-2.4161770">
        <ele>214.9</ele>
        <time>2020-02-16T07:27:20Z</time>
      </trkpt>
      <trkpt lat="36.9396990" lon="-2.4161500">
        <ele>215.1</ele>
        <time>2020-02-16T07:27:21Z</time>
      </trkpt>
      <trkpt lat="36.9397080" lon="-2.4161270">
        <ele>215.3</ele>
        <time>2020-02-16T07:27:22Z</time>
      </trkpt>
      <trkpt lat="36.9397170" lon="-2.4161040">
        <ele>215.3</ele>
        <time>2020-02-16T07:27:23Z</time>
      </trkpt>
      <trkpt lat="36.9397290" lon="-2.4160770">
        <ele>215.4</ele>
        <time>2020-02-16T07:27:24Z</time>
      </trkpt>
      <trkpt lat="36.9397370" lon="-2.4160540">
        <ele>215.4</ele>
        <time>2020-02-16T07:27:25Z</time>
      </trkpt>
      <trkpt lat="36.9397440" lon="-2.4160340">
        <ele>215.6</ele>
        <time>2020-02-16T07:27:26Z</time>
      </trkpt>
      <trkpt lat="36.9397550" lon="-2.4160050">
        <ele>215.8</ele>
        <time>2020-02-16T07:27:27Z</time>
      </trkpt>
      <trkpt lat="36.9397650" lon="-2.4159820">
        <ele>215.8</ele>
        <time>2020-02-16T07:27:28Z</time>
      </trkpt>
      <trkpt lat="36.9397730" lon="-2.4159590">
        <ele>216.0</ele>
        <time>2020-02-16T07:27:29Z</time>
      </trkpt>
      <trkpt lat="36.9397820" lon="-2.4159390">
        <ele>216.1</ele>
        <time>2020-02-16T07:27:30Z</time>
      </trkpt>
      <trkpt lat="36.9397910" lon="-2.4159120">
        <ele>216.3</ele>
        <time>2020-02-16T07:27:31Z</time>
      </trkpt>
      <trkpt lat="36.9398040" lon="-2.4158820">
        <ele>216.3</ele>
        <time>2020-02-16T07:27:32Z</time>
      </trkpt>
      <trkpt lat="36.9398140" lon="-2.4158540">
        <ele>216.6</ele>
        <time>2020-02-16T07:27:33Z</time>
      </trkpt>
      <trkpt lat="36.9398230" lon="-2.4158270">
        <ele>216.8</ele>
        <time>2020-02-16T07:27:34Z</time>
      </trkpt>
      <trkpt lat="36.9398340" lon="-2.4157970">
        <ele>216.8</ele>
        <time>2020-02-16T07:27:35Z</time>
      </trkpt>
      <trkpt lat="36.9398390" lon="-2.4157750">
        <ele>217.1</ele>
        <time>2020-02-16T07:27:36Z</time>
      </trkpt>
      <trkpt lat="36.9398480" lon="-2.4157490">
        <ele>217.1</ele>
        <time>2020-02-16T07:27:37Z</time>
      </trkpt>
      <trkpt lat="36.9398550" lon="-2.4157220">
        <ele>217.4</ele>
        <time>2020-02-16T07:27:38Z</time>
      </trkpt>
      <trkpt lat="36.9398640" lon="-2.4156940">
        <ele>217.6</ele>
        <time>2020-02-16T07:27:39Z</time>
      </trkpt>
      <trkpt lat="36.9398710" lon="-2.4156670">
        <ele>217.6</ele>
        <time>2020-02-16T07:27:40Z</time>
      </trkpt>
      <trkpt lat="36.9398770" lon="-2.4156450">
        <ele>217.9</ele>
        <time>2020-02-16T07:27:41Z</time>
      </trkpt>
      <trkpt lat="36.9398860" lon="-2.4156100">
        <ele>218.2</ele>
        <time>2020-02-16T07:27:42Z</time>
      </trkpt>
      <trkpt lat="36.9398950" lon="-2.4155820">
        <ele>218.2</ele>
        <time>2020-02-16T07:27:43Z</time>
      </trkpt>
      <trkpt lat="36.9399020" lon="-2.4155500">
        <ele>218.4</ele>
        <time>2020-02-16T07:27:44Z</time>
      </trkpt>
      <trkpt lat="36.9399080" lon="-2.4155290">
        <ele>218.7</ele>
        <time>2020-02-16T07:27:45Z</time>
      </trkpt>
      <trkpt lat="36.9399100" lon="-2.4155100">
        <ele>218.7</ele>
        <time>2020-02-16T07:27:46Z</time>
      </trkpt>
      <trkpt lat="36.9399190" lon="-2.4154800">
        <ele>218.9</ele>
        <time>2020-02-16T07:27:47Z</time>
      </trkpt>
      <trkpt lat="36.9399260" lon="-2.4154540">
        <ele>218.9</ele>
        <time>2020-02-16T07:27:48Z</time>
      </trkpt>
      <trkpt lat="36.9399310" lon="-2.4154250">
        <ele>219.1</ele>
        <time>2020-02-16T07:27:49Z</time>
      </trkpt>
      <trkpt lat="36.9399380" lon="-2.4154000">
        <ele>219.5</ele>
        <time>2020-02-16T07:27:50Z</time>
      </trkpt>
      <trkpt lat="36.9399430" lon="-2.4153770">
        <ele>219.5</ele>
        <time>2020-02-16T07:27:51Z</time>
      </trkpt>
      <trkpt lat="36.9399480" lon="-2.4153550">
        <ele>219.8</ele>
        <time>2020-02-16T07:27:52Z</time>
      </trkpt>
      <trkpt lat="36.9399560" lon="-2.4153250">
        <ele>219.8</ele>
        <time>2020-02-16T07:27:53Z</time>
      </trkpt>
      <trkpt lat="36.9399650" lon="-2.4152990">
        <ele>220.2</ele>
        <time>2020-02-16T07:27:54Z</time>
      </trkpt>
      <trkpt lat="36.9399720" lon="-2.4152700">
        <ele>220.6</ele>
        <time>2020-02-16T07:27:55Z</time>
      </trkpt>
      <trkpt lat="36.9399770" lon="-2.4152490">
        <ele>220.6</ele>
        <time>2020-02-16T07:27:56Z</time>
      </trkpt>
      <trkpt lat="36.9399820" lon="-2.4152250">
        <ele>221.0</ele>
        <time>2020-02-16T07:27:57Z</time>
      </trkpt>
      <trkpt lat="36.9399880" lon="-2.4151970">
        <ele>221.0</ele>
        <time>2020-02-16T07:27:58Z</time>
      </trkpt>
      <trkpt lat="36.9399930" lon="-2.4151770">
        <ele>221.5</ele>
        <time>2020-02-16T07:27:59Z</time>
      </trkpt>
      <trkpt lat="36.9399980" lon="-2.4151600">
        <ele>221.5</ele>
        <time>2020-02-16T07:28:00Z</time>
      </trkpt>
      <trkpt lat="36.9400040" lon="-2.4151370">
        <ele>222.0</ele>
        <time>2020-02-16T07:28:01Z</time>
      </trkpt>
      <trkpt lat="36.9400090" lon="-2.4151240">
        <ele>222.0</ele>
        <time>2020-02-16T07:28:02Z</time>
      </trkpt>
      <trkpt lat="36.9400470" lon="-2.4151070">
        <ele>221.8</ele>
        <time>2020-02-16T07:28:03Z</time>
      </trkpt>
      <trkpt lat="36.9400690" lon="-2.4150850">
        <ele>222.1</ele>
        <time>2020-02-16T07:28:04Z</time>
      </trkpt>
      <trkpt lat="36.9400840" lon="-2.4150650">
        <ele>222.0</ele>
        <time>2020-02-16T07:28:05Z</time>
      </trkpt>
      <trkpt lat="36.9400970" lon="-2.4150440">
        <ele>222.4</ele>
        <time>2020-02-16T07:28:06Z</time>
      </trkpt>
      <trkpt lat="36.9401070" lon="-2.4150270">
        <ele>222.4</ele>
        <time>2020-02-16T07:28:07Z</time>
      </trkpt>
      <trkpt lat="36.9401190" lon="-2.4150000">
        <ele>222.6</ele>
        <time>2020-02-16T07:28:08Z</time>
      </trkpt>
      <trkpt lat="36.9401300" lon="-2.4149760">
        <ele>222.6</ele>
        <time>2020-02-16T07:28:09Z</time>
      </trkpt>
      <trkpt lat="36.9401420" lon="-2.4149590">
        <ele>223.1</ele>
        <time>2020-02-16T07:28:10Z</time>
      </trkpt>
      <trkpt lat="36.9401570" lon="-2.4149320">
        <ele>223.5</ele>
        <time>2020-02-16T07:28:11Z</time>
      </trkpt>
      <trkpt lat="36.9401700" lon="-2.4149070">
        <ele>223.5</ele>
        <time>2020-02-16T07:28:12Z</time>
      </trkpt>
      <trkpt lat="36.9401810" lon="-2.4148840">
        <ele>224.0</ele>
        <time>2020-02-16T07:28:13Z</time>
      </trkpt>
      <trkpt lat="36.9401930" lon="-2.4148560">
        <ele>223.9</ele>
        <time>2020-02-16T07:28:14Z</time>
      </trkpt>
      <trkpt lat="36.9402030" lon="-2.4148340">
        <ele>224.5</ele>
        <time>2020-02-16T07:28:15Z</time>
      </trkpt>
      <trkpt lat="36.9402140" lon="-2.4148110">
        <ele>224.5</ele>
        <time>2020-02-16T07:28:16Z</time>
      </trkpt>
      <trkpt lat="36.9402240" lon="-2.4147890">
        <ele>224.9</ele>
        <time>2020-02-16T07:28:17Z</time>
      </trkpt>
      <trkpt lat="36.9402330" lon="-2.4147720">
        <ele>224.9</ele>
        <time>2020-02-16T07:28:18Z</time>
      </trkpt>
      <trkpt lat="36.9402470" lon="-2.4147470">
        <ele>225.6</ele>
        <time>2020-02-16T07:28:19Z</time>
      </trkpt>
      <trkpt lat="36.9402580" lon="-2.4147310">
        <ele>225.4</ele>
        <time>2020-02-16T07:28:20Z</time>
      </trkpt>
      <trkpt lat="36.9402690" lon="-2.4147170">
        <ele>226.0</ele>
        <time>2020-02-16T07:28:21Z</time>
      </trkpt>
      <trkpt lat="36.9403060" lon="-2.4147060">
        <ele>225.7</ele>
        <time>2020-02-16T07:28:22Z</time>
      </trkpt>
      <trkpt lat="36.9403270" lon="-2.4146970">
        <ele>225.4</ele>
        <time>2020-02-16T07:28:23Z</time>
      </trkpt>
      <trkpt lat="36.9403470" lon="-2.4146940">
        <ele>225.4</ele>
        <time>2020-02-16T07:28:24Z</time>
      </trkpt>
      <trkpt lat="36.9403660" lon="-2.4146840">
        <ele>225.2</ele>
        <time>2020-02-16T07:28:25Z</time>
      </trkpt>
      <trkpt lat="36.9403840" lon="-2.4146670">
        <ele>225.7</ele>
        <time>2020-02-16T07:28:26Z</time>
      </trkpt>
      <trkpt lat="36.9403990" lon="-2.4146510">
        <ele>225.4</ele>
        <time>2020-02-16T07:28:27Z</time>
      </trkpt>
      <trkpt lat="36.9404110" lon="-2.4146340">
        <ele>225.4</ele>
        <time>2020-02-16T07:28:28Z</time>
      </trkpt>
      <trkpt lat="36.9404260" lon="-2.4146130">
        <ele>225.6</ele>
        <time>2020-02-16T07:28:29Z</time>
      </trkpt>
      <trkpt lat="36.9404390" lon="-2.4145910">
        <ele>225.6</ele>
        <time>2020-02-16T07:28:30Z</time>
      </trkpt>
      <trkpt lat="36.9404560" lon="-2.4145690">
        <ele>226.0</ele>
        <time>2020-02-16T07:28:31Z</time>
      </trkpt>
      <trkpt lat="36.9404710" lon="-2.4145530">
        <ele>225.7</ele>
        <time>2020-02-16T07:28:32Z</time>
      </trkpt>
      <trkpt lat="36.9404920" lon="-2.4145320">
        <ele>226.2</ele>
        <time>2020-02-16T07:28:33Z</time>
      </trkpt>
      <trkpt lat="36.9405040" lon="-2.4145210">
        <ele>225.8</ele>
        <time>2020-02-16T07:28:34Z</time>
      </trkpt>
      <trkpt lat="36.9405220" lon="-2.4145020">
        <ele>226.3</ele>
        <time>2020-02-16T07:28:35Z</time>
      </trkpt>
      <trkpt lat="36.9405420" lon="-2.4144810">
        <ele>225.9</ele>
        <time>2020-02-16T07:28:36Z</time>
      </trkpt>
      <trkpt lat="36.9405590" lon="-2.4144620">
        <ele>225.9</ele>
        <time>2020-02-16T07:28:37Z</time>
      </trkpt>
      <trkpt lat="36.9405740" lon="-2.4144450">
        <ele>225.9</ele>
        <time>2020-02-16T07:28:38Z</time>
      </trkpt>
      <trkpt lat="36.9405910" lon="-2.4144270">
        <ele>225.9</ele>
        <time>2020-02-16T07:28:39Z</time>
      </trkpt>
      <trkpt lat="36.9406110" lon="-2.4144080">
        <ele>225.9</ele>
        <time>2020-02-16T07:28:40Z</time>
      </trkpt>
      <trkpt lat="36.9406310" lon="-2.4143920">
        <ele>225.9</ele>
        <time>2020-02-16T07:28:41Z</time>
      </trkpt>
      <trkpt lat="36.9406490" lon="-2.4143770">
        <ele>225.6</ele>
        <time>2020-02-16T07:28:42Z</time>
      </trkpt>
      <trkpt lat="36.9406690" lon="-2.4143620">
        <ele>225.7</ele>
        <time>2020-02-16T07:28:43Z</time>
      </trkpt>
      <trkpt lat="36.9406960" lon="-2.4143430">
        <ele>225.7</ele>
        <time>2020-02-16T07:28:44Z</time>
      </trkpt>
      <trkpt lat="36.9407140" lon="-2.4143300">
        <ele>225.8</ele>
        <time>2020-02-16T07:28:45Z</time>
      </trkpt>
      <trkpt lat="36.9407310" lon="-2.4143170">
        <ele>225.8</ele>
        <time>2020-02-16T07:28:46Z</time>
      </trkpt>
      <trkpt lat="36.9407490" lon="-2.4143010">
        <ele>225.7</ele>
        <time>2020-02-16T07:28:47Z</time>
      </trkpt>
      <trkpt lat="36.9407670" lon="-2.4142850">
        <ele>225.9</ele>
        <time>2020-02-16T07:28:48Z</time>
      </trkpt>
      <trkpt lat="36.9407820" lon="-2.4142710">
        <ele>225.8</ele>
        <time>2020-02-16T07:28:49Z</time>
      </trkpt>
      <trkpt lat="36.9408040" lon="-2.4142510">
        <ele>225.8</ele>
        <time>2020-02-16T07:28:50Z</time>
      </trkpt>
      <trkpt lat="36.9408170" lon="-2.4142380">
        <ele>226.0</ele>
        <time>2020-02-16T07:28:51Z</time>
      </trkpt>
      <trkpt lat="36.9408370" lon="-2.4142180">
        <ele>226.0</ele>
        <time>2020-02-16T07:28:52Z</time>
      </trkpt>
      <trkpt lat="36.9408510" lon="-2.4142030">
        <ele>226.0</ele>
        <time>2020-02-16T07:28:53Z</time>
      </trkpt>
      <trkpt lat="36.9408620" lon="-2.4141900">
        <ele>226.1</ele>
        <time>2020-02-16T07:28:54Z</time>
      </trkpt>
      <trkpt lat="36.9408790" lon="-2.4141720">
        <ele>226.1</ele>
        <time>2020-02-16T07:28:55Z</time>
      </trkpt>
      <trkpt lat="36.9408990" lon="-2.4141520">
        <ele>226.1</ele>
        <time>2020-02-16T07:28:56Z</time>
      </trkpt>
      <trkpt lat="36.9409240" lon="-2.4141290">
        <ele>226.1</ele>
        <time>2020-02-16T07:28:57Z</time>
      </trkpt>
      <trkpt lat="36.9409470" lon="-2.4141240">
        <ele>226.0</ele>
        <time>2020-02-16T07:28:58Z</time>
      </trkpt>
      <trkpt lat="36.9409710" lon="-2.4141210">
        <ele>226.0</ele>
        <time>2020-02-16T07:28:59Z</time>
      </trkpt>
      <trkpt lat="36.9409910" lon="-2.4141120">
        <ele>225.9</ele>
        <time>2020-02-16T07:29:00Z</time>
      </trkpt>
      <trkpt lat="36.9410110" lon="-2.4141060">
        <ele>225.9</ele>
        <time>2020-02-16T07:29:01Z</time>
      </trkpt>
      <trkpt lat="36.9410390" lon="-2.4140960">
        <ele>225.9</ele>
        <time>2020-02-16T07:29:02Z</time>
      </trkpt>
      <trkpt lat="36.9410620" lon="-2.4140900">
        <ele>225.9</ele>
        <time>2020-02-16T07:29:03Z</time>
      </trkpt>
      <trkpt lat="36.9410840" lon="-2.4140840">
        <ele>226.0</ele>
        <time>2020-02-16T07:29:04Z</time>
      </trkpt>
      <trkpt lat="36.9410990" lon="-2.4140730">
        <ele>225.9</ele>
        <time>2020-02-16T07:29:05Z</time>
      </trkpt>
      <trkpt lat="36.9411110" lon="-2.4140580">
        <ele>225.9</ele>
        <time>2020-02-16T07:29:06Z</time>
      </trkpt>
      <trkpt lat="36.9411240" lon="-2.4140170">
        <ele>226.1</ele>
        <time>2020-02-16T07:29:07Z</time>
      </trkpt>
      <trkpt lat="36.9411350" lon="-2.4139970">
        <ele>226.1</ele>
        <time>2020-02-16T07:29:08Z</time>
      </trkpt>
      <trkpt lat="36.9411490" lon="-2.4139720">
        <ele>226.3</ele>
        <time>2020-02-16T07:29:09Z</time>
      </trkpt>
      <trkpt lat="36.9411620" lon="-2.4139410">
        <ele>226.4</ele>
        <time>2020-02-16T07:29:10Z</time>
      </trkpt>
      <trkpt lat="36.9411720" lon="-2.4139170">
        <ele>226.4</ele>
        <time>2020-02-16T07:29:11Z</time>
      </trkpt>
      <trkpt lat="36.9411860" lon="-2.4138920">
        <ele>226.8</ele>
        <time>2020-02-16T07:29:12Z</time>
      </trkpt>
      <trkpt lat="36.9412010" lon="-2.4138640">
        <ele>226.8</ele>
        <time>2020-02-16T07:29:13Z</time>
      </trkpt>
      <trkpt lat="36.9412130" lon="-2.4138420">
        <ele>227.0</ele>
        <time>2020-02-16T07:29:14Z</time>
      </trkpt>
      <trkpt lat="36.9412290" lon="-2.4138140">
        <ele>227.3</ele>
        <time>2020-02-16T07:29:15Z</time>
      </trkpt>
      <trkpt lat="36.9412420" lon="-2.4137870">
        <ele>227.3</ele>
        <time>2020-02-16T07:29:16Z</time>
      </trkpt>
      <trkpt lat="36.9412530" lon="-2.4137570">
        <ele>227.6</ele>
        <time>2020-02-16T07:29:17Z</time>
      </trkpt>
      <trkpt lat="36.9412630" lon="-2.4137260">
        <ele>227.8</ele>
        <time>2020-02-16T07:29:18Z</time>
      </trkpt>
      <trkpt lat="36.9412550" lon="-2.4136960">
        <ele>227.8</ele>
        <time>2020-02-16T07:29:19Z</time>
      </trkpt>
      <trkpt lat="36.9412620" lon="-2.4136690">
        <ele>228.0</ele>
        <time>2020-02-16T07:29:20Z</time>
      </trkpt>
      <trkpt lat="36.9412650" lon="-2.4136480">
        <ele>228.0</ele>
        <time>2020-02-16T07:29:21Z</time>
      </trkpt>
      <trkpt lat="36.9412720" lon="-2.4136140">
        <ele>228.2</ele>
        <time>2020-02-16T07:29:22Z</time>
      </trkpt>
      <trkpt lat="36.9412780" lon="-2.4135880">
        <ele>228.4</ele>
        <time>2020-02-16T07:29:23Z</time>
      </trkpt>
      <trkpt lat="36.9412860" lon="-2.4135590">
        <ele>228.5</ele>
        <time>2020-02-16T07:29:24Z</time>
      </trkpt>
      <trkpt lat="36.9412950" lon="-2.4135380">
        <ele>228.7</ele>
        <time>2020-02-16T07:29:25Z</time>
      </trkpt>
      <trkpt lat="36.9413040" lon="-2.4135140">
        <ele>229.0</ele>
        <time>2020-02-16T07:29:26Z</time>
      </trkpt>
      <trkpt lat="36.9413160" lon="-2.4134810">
        <ele>229.0</ele>
        <time>2020-02-16T07:29:27Z</time>
      </trkpt>
      <trkpt lat="36.9413240" lon="-2.4134490">
        <ele>229.3</ele>
        <time>2020-02-16T07:29:28Z</time>
      </trkpt>
      <trkpt lat="36.9413290" lon="-2.4134190">
        <ele>229.6</ele>
        <time>2020-02-16T07:29:29Z</time>
      </trkpt>
      <trkpt lat="36.9413330" lon="-2.4133910">
        <ele>229.6</ele>
        <time>2020-02-16T07:29:30Z</time>
      </trkpt>
      <trkpt lat="36.9413360" lon="-2.4133630">
        <ele>230.0</ele>
        <time>2020-02-16T07:29:31Z</time>
      </trkpt>
      <trkpt lat="36.9413420" lon="-2.4133330">
        <ele>230.3</ele>
        <time>2020-02-16T07:29:32Z</time>
      </trkpt>
      <trkpt lat="36.9413430" lon="-2.4133160">
        <ele>230.3</ele>
        <time>2020-02-16T07:29:33Z</time>
      </trkpt>
      <trkpt lat="36.9413480" lon="-2.4132880">
        <ele>230.7</ele>
        <time>2020-02-16T07:29:34Z</time>
      </trkpt>
      <trkpt lat="36.9413530" lon="-2.4132610">
        <ele>230.6</ele>
        <time>2020-02-16T07:29:35Z</time>
      </trkpt>
      <trkpt lat="36.9413580" lon="-2.4132330">
        <ele>230.9</ele>
        <time>2020-02-16T07:29:36Z</time>
      </trkpt>
      <trkpt lat="36.9413640" lon="-2.4132060">
        <ele>231.3</ele>
        <time>2020-02-16T07:29:37Z</time>
      </trkpt>
      <trkpt lat="36.9413680" lon="-2.4131840">
        <ele>231.3</ele>
        <time>2020-02-16T07:29:38Z</time>
      </trkpt>
      <trkpt lat="36.9413750" lon="-2.4131530">
        <ele>231.7</ele>
        <time>2020-02-16T07:29:39Z</time>
      </trkpt>
      <trkpt lat="36.9413810" lon="-2.4131290">
        <ele>232.1</ele>
        <time>2020-02-16T07:29:40Z</time>
      </trkpt>
      <trkpt lat="36.9413860" lon="-2.4131080">
        <ele>232.0</ele>
        <time>2020-02-16T07:29:41Z</time>
      </trkpt>
      <trkpt lat="36.9413930" lon="-2.4130810">
        <ele>232.4</ele>
        <time>2020-02-16T07:29:42Z</time>
      </trkpt>
      <trkpt lat="36.9414010" lon="-2.4130460">
        <ele>232.4</ele>
        <time>2020-02-16T07:29:43Z</time>
      </trkpt>
      <trkpt lat="36.9414080" lon="-2.4130210">
        <ele>232.9</ele>
        <time>2020-02-16T07:29:44Z</time>
      </trkpt>
      <trkpt lat="36.9414160" lon="-2.4129940">
        <ele>233.3</ele>
        <time>2020-02-16T07:29:45Z</time>
      </trkpt>
      <trkpt lat="36.9414220" lon="-2.4129690">
        <ele>233.2</ele>
        <time>2020-02-16T07:29:46Z</time>
      </trkpt>
      <trkpt lat="36.9414300" lon="-2.4129440">
        <ele>233.7</ele>
        <time>2020-02-16T07:29:47Z</time>
      </trkpt>
      <trkpt lat="36.9414390" lon="-2.4129160">
        <ele>233.7</ele>
        <time>2020-02-16T07:29:48Z</time>
      </trkpt>
      <trkpt lat="36.9414470" lon="-2.4128880">
        <ele>234.1</ele>
        <time>2020-02-16T07:29:49Z</time>
      </trkpt>
      <trkpt lat="36.9414580" lon="-2.4128610">
        <ele>234.4</ele>
        <time>2020-02-16T07:29:50Z</time>
      </trkpt>
      <trkpt lat="36.9414680" lon="-2.4128290">
        <ele>234.8</ele>
        <time>2020-02-16T07:29:51Z</time>
      </trkpt>
      <trkpt lat="36.9414750" lon="-2.4128030">
        <ele>234.8</ele>
        <time>2020-02-16T07:29:52Z</time>
      </trkpt>
      <trkpt lat="36.9414850" lon="-2.4127730">
        <ele>235.2</ele>
        <time>2020-02-16T07:29:53Z</time>
      </trkpt>
      <trkpt lat="36.9414960" lon="-2.4127380">
        <ele>235.4</ele>
        <time>2020-02-16T07:29:54Z</time>
      </trkpt>
      <trkpt lat="36.9415040" lon="-2.4127140">
        <ele>235.4</ele>
        <time>2020-02-16T07:29:55Z</time>
      </trkpt>
      <trkpt lat="36.9415100" lon="-2.4126960">
        <ele>235.7</ele>
        <time>2020-02-16T07:29:56Z</time>
      </trkpt>
      <trkpt lat="36.9415180" lon="-2.4126760">
        <ele>235.7</ele>
        <time>2020-02-16T07:29:57Z</time>
      </trkpt>
      <trkpt lat="36.9415270" lon="-2.4126510">
        <ele>235.8</ele>
        <time>2020-02-16T07:29:58Z</time>
      </trkpt>
      <trkpt lat="36.9415360" lon="-2.4126260">
        <ele>235.8</ele>
        <time>2020-02-16T07:29:59Z</time>
      </trkpt>
      <trkpt lat="36.9415440" lon="-2.4126090">
        <ele>236.2</ele>
        <time>2020-02-16T07:30:00Z</time>
      </trkpt>
      <trkpt lat="36.9415540" lon="-2.4125840">
        <ele>236.2</ele>
        <time>2020-02-16T07:30:01Z</time>
      </trkpt>
      <trkpt lat="36.9415610" lon="-2.4125690">
        <ele>236.2</ele>
        <time>2020-02-16T07:30:02Z</time>
      </trkpt>
      <trkpt lat="36.9415700" lon="-2.4125490">
        <ele>236.2</ele>
        <time>2020-02-16T07:30:03Z</time>
      </trkpt>
      <trkpt lat="36.9415790" lon="-2.4125280">
        <ele>236.5</ele>
        <time>2020-02-16T07:30:04Z</time>
      </trkpt>
      <trkpt lat="36.9415890" lon="-2.4125060">
        <ele>236.5</ele>
        <time>2020-02-16T07:30:05Z</time>
      </trkpt>
      <trkpt lat="36.9416010" lon="-2.4124740">
        <ele>236.4</ele>
        <time>2020-02-16T07:30:06Z</time>
      </trkpt>
      <trkpt lat="36.9416120" lon="-2.4124480">
        <ele>236.4</ele>
        <time>2020-02-16T07:30:07Z</time>
      </trkpt>
      <trkpt lat="36.9416420" lon="-2.4124260">
        <ele>236.2</ele>
        <time>2020-02-16T07:30:08Z</time>
      </trkpt>
      <trkpt lat="36.9416450" lon="-2.4123910">
        <ele>236.4</ele>
        <time>2020-02-16T07:30:09Z</time>
      </trkpt>
      <trkpt lat="36.9416350" lon="-2.4123630">
        <ele>236.4</ele>
        <time>2020-02-16T07:30:10Z</time>
      </trkpt>
      <trkpt lat="36.9416250" lon="-2.4123340">
        <ele>237.1</ele>
        <time>2020-02-16T07:30:11Z</time>
      </trkpt>
      <trkpt lat="36.9416220" lon="-2.4123030">
        <ele>237.4</ele>
        <time>2020-02-16T07:30:12Z</time>
      </trkpt>
      <trkpt lat="36.9416160" lon="-2.4122790">
        <ele>237.4</ele>
        <time>2020-02-16T07:30:13Z</time>
      </trkpt>
      <trkpt lat="36.9416110" lon="-2.4122530">
        <ele>237.6</ele>
        <time>2020-02-16T07:30:14Z</time>
      </trkpt>
      <trkpt lat="36.9416050" lon="-2.4122240">
        <ele>237.9</ele>
        <time>2020-02-16T07:30:15Z</time>
      </trkpt>
      <trkpt lat="36.9415990" lon="-2.4121960">
        <ele>237.9</ele>
        <time>2020-02-16T07:30:16Z</time>
      </trkpt>
      <trkpt lat="36.9415930" lon="-2.4121690">
        <ele>238.1</ele>
        <time>2020-02-16T07:30:17Z</time>
      </trkpt>
      <trkpt lat="36.9415880" lon="-2.4121480">
        <ele>238.6</ele>
        <time>2020-02-16T07:30:18Z</time>
      </trkpt>
      <trkpt lat="36.9415840" lon="-2.4121210">
        <ele>238.9</ele>
        <time>2020-02-16T07:30:19Z</time>
      </trkpt>
      <trkpt lat="36.9415790" lon="-2.4120880">
        <ele>239.1</ele>
        <time>2020-02-16T07:30:20Z</time>
      </trkpt>
      <trkpt lat="36.9415780" lon="-2.4120640">
        <ele>239.1</ele>
        <time>2020-02-16T07:30:21Z</time>
      </trkpt>
      <trkpt lat="36.9415770" lon="-2.4120430">
        <ele>239.3</ele>
        <time>2020-02-16T07:30:22Z</time>
      </trkpt>
      <trkpt lat="36.9415940" lon="-2.4120130">
        <ele>238.8</ele>
        <time>2020-02-16T07:30:23Z</time>
      </trkpt>
      <trkpt lat="36.9415990" lon="-2.4119890">
        <ele>238.8</ele>
        <time>2020-02-16T07:30:24Z</time>
      </trkpt>
      <trkpt lat="36.9416070" lon="-2.4119540">
        <ele>238.9</ele>
        <time>2020-02-16T07:30:25Z</time>
      </trkpt>
      <trkpt lat="36.9416140" lon="-2.4119290">
        <ele>238.9</ele>
        <time>2020-02-16T07:30:26Z</time>
      </trkpt>
      <trkpt lat="36.9416200" lon="-2.4119030">
        <ele>239.0</ele>
        <time>2020-02-16T07:30:27Z</time>
      </trkpt>
      <trkpt lat="36.9416270" lon="-2.4118740">
        <ele>238.5</ele>
        <time>2020-02-16T07:30:28Z</time>
      </trkpt>
      <trkpt lat="36.9416340" lon="-2.4118490">
        <ele>238.5</ele>
        <time>2020-02-16T07:30:29Z</time>
      </trkpt>
      <trkpt lat="36.9416410" lon="-2.4118280">
        <ele>238.6</ele>
        <time>2020-02-16T07:30:30Z</time>
      </trkpt>
      <trkpt lat="36.9416560" lon="-2.4117940">
        <ele>238.7</ele>
        <time>2020-02-16T07:30:31Z</time>
      </trkpt>
      <trkpt lat="36.9416690" lon="-2.4117690">
        <ele>238.1</ele>
        <time>2020-02-16T07:30:32Z</time>
      </trkpt>
      <trkpt lat="36.9416820" lon="-2.4117430">
        <ele>238.3</ele>
        <time>2020-02-16T07:30:33Z</time>
      </trkpt>
      <trkpt lat="36.9416970" lon="-2.4117110">
        <ele>237.9</ele>
        <time>2020-02-16T07:30:34Z</time>
      </trkpt>
      <trkpt lat="36.9417080" lon="-2.4116900">
        <ele>237.9</ele>
        <time>2020-02-16T07:30:35Z</time>
      </trkpt>
      <trkpt lat="36.9417190" lon="-2.4116680">
        <ele>238.1</ele>
        <time>2020-02-16T07:30:36Z</time>
      </trkpt>
      <trkpt lat="36.9417300" lon="-2.4116400">
        <ele>237.7</ele>
        <time>2020-02-16T07:30:37Z</time>
      </trkpt>
      <trkpt lat="36.9417400" lon="-2.4116150">
        <ele>237.9</ele>
        <time>2020-02-16T07:30:38Z</time>
      </trkpt>
      <trkpt lat="36.9417470" lon="-2.4115880">
        <ele>237.9</ele>
        <time>2020-02-16T07:30:39Z</time>
      </trkpt>
      <trkpt lat="36.9417510" lon="-2.4115660">
        <ele>238.0</ele>
        <time>2020-02-16T07:30:40Z</time>
      </trkpt>
      <trkpt lat="36.9417600" lon="-2.4115310">
        <ele>238.2</ele>
        <time>2020-02-16T07:30:41Z</time>
      </trkpt>
      <trkpt lat="36.9417650" lon="-2.4115010">
        <ele>237.8</ele>
        <time>2020-02-16T07:30:42Z</time>
      </trkpt>
      <trkpt lat="36.9417690" lon="-2.4114750">
        <ele>237.9</ele>
        <time>2020-02-16T07:30:43Z</time>
      </trkpt>
      <trkpt lat="36.9417710" lon="-2.4114500">
        <ele>238.0</ele>
        <time>2020-02-16T07:30:44Z</time>
      </trkpt>
      <trkpt lat="36.9417720" lon="-2.4114280">
        <ele>238.0</ele>
        <time>2020-02-16T07:30:45Z</time>
      </trkpt>
      <trkpt lat="36.9417760" lon="-2.4113930">
        <ele>238.1</ele>
        <time>2020-02-16T07:30:46Z</time>
      </trkpt>
      <trkpt lat="36.9417780" lon="-2.4113660">
        <ele>238.2</ele>
        <time>2020-02-16T07:30:47Z</time>
      </trkpt>
      <trkpt lat="36.9417800" lon="-2.4113400">
        <ele>238.2</ele>
        <time>2020-02-16T07:30:48Z</time>
      </trkpt>
      <trkpt lat="36.9417820" lon="-2.4113150">
        <ele>238.3</ele>
        <time>2020-02-16T07:30:49Z</time>
      </trkpt>
      <trkpt lat="36.9417830" lon="-2.4112930">
        <ele>238.3</ele>
        <time>2020-02-16T07:30:50Z</time>
      </trkpt>
      <trkpt lat="36.9417840" lon="-2.4112610">
        <ele>238.4</ele>
        <time>2020-02-16T07:30:51Z</time>
      </trkpt>
      <trkpt lat="36.9417850" lon="-2.4112330">
        <ele>238.6</ele>
        <time>2020-02-16T07:30:52Z</time>
      </trkpt>
      <trkpt lat="36.9417830" lon="-2.4112050">
        <ele>238.6</ele>
        <time>2020-02-16T07:30:53Z</time>
      </trkpt>
      <trkpt lat="36.9417460" lon="-2.4111700">
        <ele>239.3</ele>
        <time>2020-02-16T07:30:54Z</time>
      </trkpt>
      <trkpt lat="36.9417130" lon="-2.4111550">
        <ele>240.1</ele>
        <time>2020-02-16T07:30:55Z</time>
      </trkpt>
      <trkpt lat="36.9417030" lon="-2.4111280">
        <ele>240.1</ele>
        <time>2020-02-16T07:30:56Z</time>
      </trkpt>
      <trkpt lat="36.9416950" lon="-2.4111030">
        <ele>240.3</ele>
        <time>2020-02-16T07:30:57Z</time>
      </trkpt>
      <trkpt lat="36.9416850" lon="-2.4110800">
        <ele>241.1</ele>
        <time>2020-02-16T07:30:58Z</time>
      </trkpt>
      <trkpt lat="36.9416820" lon="-2.4110630">
        <ele>241.2</ele>
        <time>2020-02-16T07:30:59Z</time>
      </trkpt>
      <trkpt lat="36.9416730" lon="-2.4110260">
        <ele>241.4</ele>
        <time>2020-02-16T07:31:00Z</time>
      </trkpt>
      <trkpt lat="36.9416670" lon="-2.4109930">
        <ele>241.4</ele>
        <time>2020-02-16T07:31:01Z</time>
      </trkpt>
      <trkpt lat="36.9416620" lon="-2.4109710">
        <ele>241.6</ele>
        <time>2020-02-16T07:31:02Z</time>
      </trkpt>
      <trkpt lat="36.9416540" lon="-2.4109450">
        <ele>242.4</ele>
        <time>2020-02-16T07:31:03Z</time>
      </trkpt>
      <trkpt lat="36.9416480" lon="-2.4109250">
        <ele>242.6</ele>
        <time>2020-02-16T07:31:04Z</time>
      </trkpt>
      <trkpt lat="36.9416390" lon="-2.4108910">
        <ele>242.8</ele>
        <time>2020-02-16T07:31:05Z</time>
      </trkpt>
      <trkpt lat="36.9416300" lon="-2.4108630">
        <ele>242.8</ele>
        <time>2020-02-16T07:31:06Z</time>
      </trkpt>
      <trkpt lat="36.9416240" lon="-2.4108430">
        <ele>243.8</ele>
        <time>2020-02-16T07:31:07Z</time>
      </trkpt>
      <trkpt lat="36.9416170" lon="-2.4108160">
        <ele>243.8</ele>
        <time>2020-02-16T07:31:08Z</time>
      </trkpt>
      <trkpt lat="36.9416110" lon="-2.4107910">
        <ele>244.0</ele>
        <time>2020-02-16T07:31:09Z</time>
      </trkpt>
      <trkpt lat="36.9416060" lon="-2.4107650">
        <ele>244.1</ele>
        <time>2020-02-16T07:31:10Z</time>
      </trkpt>
      <trkpt lat="36.9416010" lon="-2.4107410">
        <ele>244.1</ele>
        <time>2020-02-16T07:31:11Z</time>
      </trkpt>
      <trkpt lat="36.9415930" lon="-2.4107100">
        <ele>244.3</ele>
        <time>2020-02-16T07:31:12Z</time>
      </trkpt>
      <trkpt lat="36.9415880" lon="-2.4106810">
        <ele>245.3</ele>
        <time>2020-02-16T07:31:13Z</time>
      </trkpt>
      <trkpt lat="36.9415810" lon="-2.4106550">
        <ele>245.3</ele>
        <time>2020-02-16T07:31:14Z</time>
      </trkpt>
      <trkpt lat="36.9415750" lon="-2.4106260">
        <ele>245.3</ele>
        <time>2020-02-16T07:31:15Z</time>
      </trkpt>
      <trkpt lat="36.9415690" lon="-2.4106010">
        <ele>245.3</ele>
        <time>2020-02-16T07:31:16Z</time>
      </trkpt>
      <trkpt lat="36.9415600" lon="-2.4105700">
        <ele>245.3</ele>
        <time>2020-02-16T07:31:17Z</time>
      </trkpt>
      <trkpt lat="36.9415510" lon="-2.4105410">
        <ele>246.1</ele>
        <time>2020-02-16T07:31:18Z</time>
      </trkpt>
      <trkpt lat="36.9415440" lon="-2.4105200">
        <ele>246.1</ele>
        <time>2020-02-16T07:31:19Z</time>
      </trkpt>
      <trkpt lat="36.9415350" lon="-2.4104980">
        <ele>246.0</ele>
        <time>2020-02-16T07:31:20Z</time>
      </trkpt>
      <trkpt lat="36.9414950" lon="-2.4104710">
        <ele>246.7</ele>
        <time>2020-02-16T07:31:21Z</time>
      </trkpt>
      <trkpt lat="36.9414770" lon="-2.4104510">
        <ele>247.1</ele>
        <time>2020-02-16T07:31:22Z</time>
      </trkpt>
      <trkpt lat="36.9414620" lon="-2.4104330">
        <ele>247.1</ele>
        <time>2020-02-16T07:31:23Z</time>
      </trkpt>
      <trkpt lat="36.9414450" lon="-2.4104130">
        <ele>247.5</ele>
        <time>2020-02-16T07:31:24Z</time>
      </trkpt>
      <trkpt lat="36.9414300" lon="-2.4103980">
        <ele>247.5</ele>
        <time>2020-02-16T07:31:25Z</time>
      </trkpt>
      <trkpt lat="36.9414180" lon="-2.4103830">
        <ele>247.7</ele>
        <time>2020-02-16T07:31:26Z</time>
      </trkpt>
      <trkpt lat="36.9414010" lon="-2.4103600">
        <ele>247.7</ele>
        <time>2020-02-16T07:31:27Z</time>
      </trkpt>
      <trkpt lat="36.9413860" lon="-2.4103400">
        <ele>247.3</ele>
        <time>2020-02-16T07:31:28Z</time>
      </trkpt>
      <trkpt lat="36.9413690" lon="-2.4103110">
        <ele>248.0</ele>
        <time>2020-02-16T07:31:29Z</time>
      </trkpt>
      <trkpt lat="36.9413510" lon="-2.4102810">
        <ele>248.2</ele>
        <time>2020-02-16T07:31:30Z</time>
      </trkpt>
      <trkpt lat="36.9413380" lon="-2.4102600">
        <ele>248.2</ele>
        <time>2020-02-16T07:31:31Z</time>
      </trkpt>
      <trkpt lat="36.9413260" lon="-2.4102360">
        <ele>247.7</ele>
        <time>2020-02-16T07:31:32Z</time>
      </trkpt>
      <trkpt lat="36.9413130" lon="-2.4102130">
        <ele>248.4</ele>
        <time>2020-02-16T07:31:33Z</time>
      </trkpt>
      <trkpt lat="36.9413010" lon="-2.4101910">
        <ele>248.0</ele>
        <time>2020-02-16T07:31:34Z</time>
      </trkpt>
      <trkpt lat="36.9412870" lon="-2.4101650">
        <ele>247.6</ele>
        <time>2020-02-16T07:31:35Z</time>
      </trkpt>
      <trkpt lat="36.9412760" lon="-2.4101380">
        <ele>248.3</ele>
        <time>2020-02-16T07:31:36Z</time>
      </trkpt>
      <trkpt lat="36.9412680" lon="-2.4101160">
        <ele>247.9</ele>
        <time>2020-02-16T07:31:37Z</time>
      </trkpt>
      <trkpt lat="36.9412590" lon="-2.4100880">
        <ele>247.9</ele>
        <time>2020-02-16T07:31:38Z</time>
      </trkpt>
      <trkpt lat="36.9412840" lon="-2.4100580">
        <ele>246.8</ele>
        <time>2020-02-16T07:31:39Z</time>
      </trkpt>
      <trkpt lat="36.9412900" lon="-2.4100410">
        <ele>246.8</ele>
        <time>2020-02-16T07:31:40Z</time>
      </trkpt>
      <trkpt lat="36.9412940" lon="-2.4100250">
        <ele>246.5</ele>
        <time>2020-02-16T07:31:41Z</time>
      </trkpt>
      <trkpt lat="36.9412900" lon="-2.4100150">
        <ele>246.5</ele>
        <time>2020-02-16T07:31:42Z</time>
      </trkpt>
      <trkpt lat="36.9412870" lon="-2.4100080">
        <ele>246.5</ele>
        <time>2020-02-16T07:31:43Z</time>
      </trkpt>
      <trkpt lat="36.9412870" lon="-2.4100110">
        <ele>246.5</ele>
        <time>2020-02-16T07:31:44Z</time>
      </trkpt>
      <trkpt lat="36.9412880" lon="-2.4100150">
        <ele>246.5</ele>
        <time>2020-02-16T07:31:45Z</time>
      </trkpt>
      <trkpt lat="36.9412860" lon="-2.4100250">
        <ele>246.5</ele>
        <time>2020-02-16T07:31:46Z</time>
      </trkpt>
      <trkpt lat="36.9412760" lon="-2.4100450">
        <ele>247.5</ele>
        <time>2020-02-16T07:31:47Z</time>
      </trkpt>
      <trkpt lat="36.9412720" lon="-2.4100610">
        <ele>247.5</ele>
        <time>2020-02-16T07:31:48Z</time>
      </trkpt>
      <trkpt lat="36.9412640" lon="-2.4100930">
        <ele>247.9</ele>
        <time>2020-02-16T07:31:49Z</time>
      </trkpt>
      <trkpt lat="36.9412600" lon="-2.4101210">
        <ele>247.9</ele>
        <time>2020-02-16T07:31:50Z</time>
      </trkpt>
      <trkpt lat="36.9412600" lon="-2.4101580">
        <ele>248.3</ele>
        <time>2020-02-16T07:31:51Z</time>
      </trkpt>
      <trkpt lat="36.9412640" lon="-2.4101860">
        <ele>248.7</ele>
        <time>2020-02-16T07:31:52Z</time>
      </trkpt>
      <trkpt lat="36.9412840" lon="-2.4102130">
        <ele>248.4</ele>
        <time>2020-02-16T07:31:53Z</time>
      </trkpt>
      <trkpt lat="36.9412950" lon="-2.4102450">
        <ele>248.4</ele>
        <time>2020-02-16T07:31:54Z</time>
      </trkpt>
      <trkpt lat="36.9413100" lon="-2.4102750">
        <ele>248.9</ele>
        <time>2020-02-16T07:31:55Z</time>
      </trkpt>
      <trkpt lat="36.9413190" lon="-2.4103010">
        <ele>248.7</ele>
        <time>2020-02-16T07:31:56Z</time>
      </trkpt>
      <trkpt lat="36.9413270" lon="-2.4103350">
        <ele>248.7</ele>
        <time>2020-02-16T07:31:57Z</time>
      </trkpt>
      <trkpt lat="36.9413400" lon="-2.4103650">
        <ele>249.1</ele>
        <time>2020-02-16T07:31:58Z</time>
      </trkpt>
      <trkpt lat="36.9413530" lon="-2.4104000">
        <ele>248.9</ele>
        <time>2020-02-16T07:31:59Z</time>
      </trkpt>
      <trkpt lat="36.9413660" lon="-2.4104230">
        <ele>248.9</ele>
        <time>2020-02-16T07:32:00Z</time>
      </trkpt>
      <trkpt lat="36.9413800" lon="-2.4104460">
        <ele>249.2</ele>
        <time>2020-02-16T07:32:01Z</time>
      </trkpt>
      <trkpt lat="36.9413920" lon="-2.4104660">
        <ele>248.5</ele>
        <time>2020-02-16T07:32:02Z</time>
      </trkpt>
      <trkpt lat="36.9414100" lon="-2.4104960">
        <ele>248.8</ele>
        <time>2020-02-16T07:32:03Z</time>
      </trkpt>
      <trkpt lat="36.9414220" lon="-2.4105160">
        <ele>248.3</ele>
        <time>2020-02-16T07:32:04Z</time>
      </trkpt>
      <trkpt lat="36.9414370" lon="-2.4105430">
        <ele>248.3</ele>
        <time>2020-02-16T07:32:05Z</time>
      </trkpt>
      <trkpt lat="36.9414490" lon="-2.4105660">
        <ele>248.5</ele>
        <time>2020-02-16T07:32:06Z</time>
      </trkpt>
      <trkpt lat="36.9414640" lon="-2.4106000">
        <ele>247.8</ele>
        <time>2020-02-16T07:32:07Z</time>
      </trkpt>
      <trkpt lat="36.9414760" lon="-2.4106260">
        <ele>247.8</ele>
        <time>2020-02-16T07:32:08Z</time>
      </trkpt>
      <trkpt lat="36.9414860" lon="-2.4106480">
        <ele>247.8</ele>
        <time>2020-02-16T07:32:09Z</time>
      </trkpt>
      <trkpt lat="36.9414960" lon="-2.4106660">
        <ele>247.0</ele>
        <time>2020-02-16T07:32:10Z</time>
      </trkpt>
      <trkpt lat="36.9415090" lon="-2.4106830">
        <ele>247.0</ele>
        <time>2020-02-16T07:32:11Z</time>
      </trkpt>
      <trkpt lat="36.9415470" lon="-2.4107010">
        <ele>246.0</ele>
        <time>2020-02-16T07:32:12Z</time>
      </trkpt>
      <trkpt lat="36.9415700" lon="-2.4107210">
        <ele>245.2</ele>
        <time>2020-02-16T07:32:13Z</time>
      </trkpt>
      <trkpt lat="36.9415920" lon="-2.4107380">
        <ele>244.1</ele>
        <time>2020-02-16T07:32:14Z</time>
      </trkpt>
      <trkpt lat="36.9416170" lon="-2.4107510">
        <ele>244.1</ele>
        <time>2020-02-16T07:32:15Z</time>
      </trkpt>
      <trkpt lat="36.9416440" lon="-2.4107510">
        <ele>243.2</ele>
        <time>2020-02-16T07:32:16Z</time>
      </trkpt>
      <trkpt lat="36.9416590" lon="-2.4107410">
        <ele>243.2</ele>
        <time>2020-02-16T07:32:17Z</time>
      </trkpt>
      <trkpt lat="36.9416770" lon="-2.4107300">
        <ele>242.4</ele>
        <time>2020-02-16T07:32:18Z</time>
      </trkpt>
      <trkpt lat="36.9416950" lon="-2.4107200">
        <ele>241.7</ele>
        <time>2020-02-16T07:32:19Z</time>
      </trkpt>
      <trkpt lat="36.9417200" lon="-2.4107110">
        <ele>241.7</ele>
        <time>2020-02-16T07:32:20Z</time>
      </trkpt>
      <trkpt lat="36.9417470" lon="-2.4107080">
        <ele>241.1</ele>
        <time>2020-02-16T07:32:21Z</time>
      </trkpt>
      <trkpt lat="36.9417700" lon="-2.4107060">
        <ele>240.6</ele>
        <time>2020-02-16T07:32:22Z</time>
      </trkpt>
      <trkpt lat="36.9418040" lon="-2.4107020">
        <ele>240.2</ele>
        <time>2020-02-16T07:32:23Z</time>
      </trkpt>
      <trkpt lat="36.9418340" lon="-2.4106930">
        <ele>240.0</ele>
        <time>2020-02-16T07:32:24Z</time>
      </trkpt>
      <trkpt lat="36.9418470" lon="-2.4106810">
        <ele>240.1</ele>
        <time>2020-02-16T07:32:25Z</time>
      </trkpt>
      <trkpt lat="36.9418540" lon="-2.4106400">
        <ele>240.2</ele>
        <time>2020-02-16T07:32:26Z</time>
      </trkpt>
      <trkpt lat="36.9418620" lon="-2.4106060">
        <ele>240.2</ele>
        <time>2020-02-16T07:32:27Z</time>
      </trkpt>
      <trkpt lat="36.9418700" lon="-2.4105680">
        <ele>240.1</ele>
        <time>2020-02-16T07:32:28Z</time>
      </trkpt>
      <trkpt lat="36.9418770" lon="-2.4105350">
        <ele>240.3</ele>
        <time>2020-02-16T07:32:29Z</time>
      </trkpt>
      <trkpt lat="36.9418850" lon="-2.4105030">
        <ele>240.4</ele>
        <time>2020-02-16T07:32:30Z</time>
      </trkpt>
      <trkpt lat="36.9418900" lon="-2.4104800">
        <ele>240.4</ele>
        <time>2020-02-16T07:32:31Z</time>
      </trkpt>
      <trkpt lat="36.9418980" lon="-2.4104460">
        <ele>240.6</ele>
        <time>2020-02-16T07:32:32Z</time>
      </trkpt>
      <trkpt lat="36.9419080" lon="-2.4104080">
        <ele>240.7</ele>
        <time>2020-02-16T07:32:33Z</time>
      </trkpt>
      <trkpt lat="36.9419160" lon="-2.4103710">
        <ele>240.9</ele>
        <time>2020-02-16T07:32:34Z</time>
      </trkpt>
      <trkpt lat="36.9419220" lon="-2.4103380">
        <ele>241.2</ele>
        <time>2020-02-16T07:32:35Z</time>
      </trkpt>
      <trkpt lat="36.9419270" lon="-2.4103110">
        <ele>241.2</ele>
        <time>2020-02-16T07:32:36Z</time>
      </trkpt>
      <trkpt lat="36.9419370" lon="-2.4102760">
        <ele>241.5</ele>
        <time>2020-02-16T07:32:37Z</time>
      </trkpt>
      <trkpt lat="36.9419500" lon="-2.4102380">
        <ele>241.7</ele>
        <time>2020-02-16T07:32:38Z</time>
      </trkpt>
      <trkpt lat="36.9419720" lon="-2.4102110">
        <ele>242.0</ele>
        <time>2020-02-16T07:32:39Z</time>
      </trkpt>
      <trkpt lat="36.9419890" lon="-2.4101860">
        <ele>242.0</ele>
        <time>2020-02-16T07:32:40Z</time>
      </trkpt>
      <trkpt lat="36.9420040" lon="-2.4101680">
        <ele>242.2</ele>
        <time>2020-02-16T07:32:41Z</time>
      </trkpt>
      <trkpt lat="36.9420200" lon="-2.4101450">
        <ele>242.2</ele>
        <time>2020-02-16T07:32:42Z</time>
      </trkpt>
      <trkpt lat="36.9420420" lon="-2.4101230">
        <ele>242.5</ele>
        <time>2020-02-16T07:32:43Z</time>
      </trkpt>
      <trkpt lat="36.9420620" lon="-2.4101030">
        <ele>242.5</ele>
        <time>2020-02-16T07:32:44Z</time>
      </trkpt>
      <trkpt lat="36.9420800" lon="-2.4100830">
        <ele>242.6</ele>
        <time>2020-02-16T07:32:45Z</time>
      </trkpt>
      <trkpt lat="36.9420950" lon="-2.4100700">
        <ele>242.7</ele>
        <time>2020-02-16T07:32:46Z</time>
      </trkpt>
      <trkpt lat="36.9421230" lon="-2.4100500">
        <ele>242.8</ele>
        <time>2020-02-16T07:32:47Z</time>
      </trkpt>
      <trkpt lat="36.9421480" lon="-2.4100360">
        <ele>243.1</ele>
        <time>2020-02-16T07:32:48Z</time>
      </trkpt>
      <trkpt lat="36.9421670" lon="-2.4100270">
        <ele>243.1</ele>
        <time>2020-02-16T07:32:49Z</time>
      </trkpt>
      <trkpt lat="36.9421900" lon="-2.4100170">
        <ele>243.2</ele>
        <time>2020-02-16T07:32:50Z</time>
      </trkpt>
      <trkpt lat="36.9422070" lon="-2.4100090">
        <ele>243.2</ele>
        <time>2020-02-16T07:32:51Z</time>
      </trkpt>
      <trkpt lat="36.9422280" lon="-2.4100010">
        <ele>243.3</ele>
        <time>2020-02-16T07:32:52Z</time>
      </trkpt>
      <trkpt lat="36.9422530" lon="-2.4099890">
        <ele>243.6</ele>
        <time>2020-02-16T07:32:53Z</time>
      </trkpt>
      <trkpt lat="36.9422720" lon="-2.4099810">
        <ele>243.6</ele>
        <time>2020-02-16T07:32:54Z</time>
      </trkpt>
      <trkpt lat="36.9422880" lon="-2.4099720">
        <ele>243.8</ele>
        <time>2020-02-16T07:32:55Z</time>
      </trkpt>
      <trkpt lat="36.9422980" lon="-2.4099650">
        <ele>243.8</ele>
        <time>2020-02-16T07:32:56Z</time>
      </trkpt>
      <trkpt lat="36.9423150" lon="-2.4099530">
        <ele>244.2</ele>
        <time>2020-02-16T07:32:57Z</time>
      </trkpt>
      <trkpt lat="36.9423330" lon="-2.4099400">
        <ele>244.2</ele>
        <time>2020-02-16T07:32:58Z</time>
      </trkpt>
      <trkpt lat="36.9423520" lon="-2.4099260">
        <ele>244.4</ele>
        <time>2020-02-16T07:32:59Z</time>
      </trkpt>
      <trkpt lat="36.9423700" lon="-2.4099130">
        <ele>244.4</ele>
        <time>2020-02-16T07:33:00Z</time>
      </trkpt>
      <trkpt lat="36.9423900" lon="-2.4099000">
        <ele>244.9</ele>
        <time>2020-02-16T07:33:01Z</time>
      </trkpt>
      <trkpt lat="36.9424030" lon="-2.4098900">
        <ele>244.9</ele>
        <time>2020-02-16T07:33:02Z</time>
      </trkpt>
      <trkpt lat="36.9424250" lon="-2.4098750">
        <ele>245.1</ele>
        <time>2020-02-16T07:33:03Z</time>
      </trkpt>
      <trkpt lat="36.9424420" lon="-2.4098640">
        <ele>245.4</ele>
        <time>2020-02-16T07:33:04Z</time>
      </trkpt>
      <trkpt lat="36.9424600" lon="-2.4098510">
        <ele>245.7</ele>
        <time>2020-02-16T07:33:05Z</time>
      </trkpt>
      <trkpt lat="36.9424720" lon="-2.4098420">
        <ele>245.7</ele>
        <time>2020-02-16T07:33:06Z</time>
      </trkpt>
      <trkpt lat="36.9424900" lon="-2.4098310">
        <ele>246.1</ele>
        <time>2020-02-16T07:33:07Z</time>
      </trkpt>
      <trkpt lat="36.9425120" lon="-2.4098170">
        <ele>246.3</ele>
        <time>2020-02-16T07:33:08Z</time>
      </trkpt>
      <trkpt lat="36.9425250" lon="-2.4098090">
        <ele>246.6</ele>
        <time>2020-02-16T07:33:09Z</time>
      </trkpt>
      <trkpt lat="36.9425370" lon="-2.4098000">
        <ele>246.6</ele>
        <time>2020-02-16T07:33:10Z</time>
      </trkpt>
      <trkpt lat="36.9425450" lon="-2.4097720">
        <ele>246.8</ele>
        <time>2020-02-16T07:33:11Z</time>
      </trkpt>
      <trkpt lat="36.9425580" lon="-2.4097550">
        <ele>247.2</ele>
        <time>2020-02-16T07:33:12Z</time>
      </trkpt>
      <trkpt lat="36.9425720" lon="-2.4097320">
        <ele>247.3</ele>
        <time>2020-02-16T07:33:13Z</time>
      </trkpt>
      <trkpt lat="36.9425800" lon="-2.4097100">
        <ele>247.3</ele>
        <time>2020-02-16T07:33:14Z</time>
      </trkpt>
      <trkpt lat="36.9425900" lon="-2.4096930">
        <ele>247.8</ele>
        <time>2020-02-16T07:33:15Z</time>
      </trkpt>
      <trkpt lat="36.9426000" lon="-2.4096770">
        <ele>247.8</ele>
        <time>2020-02-16T07:33:16Z</time>
      </trkpt>
      <trkpt lat="36.9426130" lon="-2.4096550">
        <ele>247.8</ele>
        <time>2020-02-16T07:33:17Z</time>
      </trkpt>
      <trkpt lat="36.9426260" lon="-2.4096280">
        <ele>248.2</ele>
        <time>2020-02-16T07:33:18Z</time>
      </trkpt>
      <trkpt lat="36.9426390" lon="-2.4096030">
        <ele>248.3</ele>
        <time>2020-02-16T07:33:19Z</time>
      </trkpt>
      <trkpt lat="36.9426520" lon="-2.4095800">
        <ele>248.3</ele>
        <time>2020-02-16T07:33:20Z</time>
      </trkpt>
      <trkpt lat="36.9426650" lon="-2.4095620">
        <ele>248.6</ele>
        <time>2020-02-16T07:33:21Z</time>
      </trkpt>
      <trkpt lat="36.9426730" lon="-2.4095500">
        <ele>248.6</ele>
        <time>2020-02-16T07:33:22Z</time>
      </trkpt>
      <trkpt lat="36.9426860" lon="-2.4095320">
        <ele>248.6</ele>
        <time>2020-02-16T07:33:23Z</time>
      </trkpt>
      <trkpt lat="36.9427100" lon="-2.4095180">
        <ele>249.0</ele>
        <time>2020-02-16T07:33:24Z</time>
      </trkpt>
      <trkpt lat="36.9427270" lon="-2.4095070">
        <ele>249.2</ele>
        <time>2020-02-16T07:33:25Z</time>
      </trkpt>
      <trkpt lat="36.9427420" lon="-2.4094950">
        <ele>249.2</ele>
        <time>2020-02-16T07:33:26Z</time>
      </trkpt>
      <trkpt lat="36.9427530" lon="-2.4094850">
        <ele>249.2</ele>
        <time>2020-02-16T07:33:27Z</time>
      </trkpt>
      <trkpt lat="36.9427680" lon="-2.4094760">
        <ele>249.6</ele>
        <time>2020-02-16T07:33:28Z</time>
      </trkpt>
      <trkpt lat="36.9427880" lon="-2.4094640">
        <ele>249.6</ele>
        <time>2020-02-16T07:33:29Z</time>
      </trkpt>
      <trkpt lat="36.9428050" lon="-2.4094560">
        <ele>249.9</ele>
        <time>2020-02-16T07:33:30Z</time>
      </trkpt>
      <trkpt lat="36.9428200" lon="-2.4094470">
        <ele>249.9</ele>
        <time>2020-02-16T07:33:31Z</time>
      </trkpt>
      <trkpt lat="36.9428330" lon="-2.4094380">
        <ele>250.3</ele>
        <time>2020-02-16T07:33:32Z</time>
      </trkpt>
      <trkpt lat="36.9428500" lon="-2.4094280">
        <ele>250.3</ele>
        <time>2020-02-16T07:33:33Z</time>
      </trkpt>
      <trkpt lat="36.9428720" lon="-2.4094150">
        <ele>250.6</ele>
        <time>2020-02-16T07:33:34Z</time>
      </trkpt>
      <trkpt lat="36.9428900" lon="-2.4094050">
        <ele>250.6</ele>
        <time>2020-02-16T07:33:35Z</time>
      </trkpt>
      <trkpt lat="36.9429050" lon="-2.4093960">
        <ele>251.1</ele>
        <time>2020-02-16T07:33:36Z</time>
      </trkpt>
      <trkpt lat="36.9429200" lon="-2.4093870">
        <ele>251.1</ele>
        <time>2020-02-16T07:33:37Z</time>
      </trkpt>
      <trkpt lat="36.9429380" lon="-2.4093750">
        <ele>251.4</ele>
        <time>2020-02-16T07:33:38Z</time>
      </trkpt>
      <trkpt lat="36.9429620" lon="-2.4093610">
        <ele>251.4</ele>
        <time>2020-02-16T07:33:39Z</time>
      </trkpt>
      <trkpt lat="36.9429750" lon="-2.4093520">
        <ele>251.9</ele>
        <time>2020-02-16T07:33:40Z</time>
      </trkpt>
      <trkpt lat="36.9429920" lon="-2.4093400">
        <ele>251.9</ele>
        <time>2020-02-16T07:33:41Z</time>
      </trkpt>
      <trkpt lat="36.9430050" lon="-2.4093310">
        <ele>252.3</ele>
        <time>2020-02-16T07:33:42Z</time>
      </trkpt>
      <trkpt lat="36.9430200" lon="-2.4093190">
        <ele>252.3</ele>
        <time>2020-02-16T07:33:43Z</time>
      </trkpt>
      <trkpt lat="36.9430380" lon="-2.4093040">
        <ele>252.8</ele>
        <time>2020-02-16T07:33:44Z</time>
      </trkpt>
      <trkpt lat="36.9430530" lon="-2.4092910">
        <ele>252.8</ele>
        <time>2020-02-16T07:33:45Z</time>
      </trkpt>
      <trkpt lat="36.9430650" lon="-2.4092780">
        <ele>252.8</ele>
        <time>2020-02-16T07:33:46Z</time>
      </trkpt>
      <trkpt lat="36.9430720" lon="-2.4092690">
        <ele>253.2</ele>
        <time>2020-02-16T07:33:47Z</time>
      </trkpt>
      <trkpt lat="36.9430830" lon="-2.4092550">
        <ele>253.4</ele>
        <time>2020-02-16T07:33:48Z</time>
      </trkpt>
      <trkpt lat="36.9431000" lon="-2.4092370">
        <ele>253.4</ele>
        <time>2020-02-16T07:33:49Z</time>
      </trkpt>
      <trkpt lat="36.9431150" lon="-2.4092190">
        <ele>253.9</ele>
        <time>2020-02-16T07:33:50Z</time>
      </trkpt>
      <trkpt lat="36.9431300" lon="-2.4092020">
        <ele>253.9</ele>
        <time>2020-02-16T07:33:51Z</time>
      </trkpt>
      <trkpt lat="36.9431400" lon="-2.4091880">
        <ele>254.3</ele>
        <time>2020-02-16T07:33:52Z</time>
      </trkpt>
      <trkpt lat="36.9431520" lon="-2.4091720">
        <ele>254.4</ele>
        <time>2020-02-16T07:33:53Z</time>
      </trkpt>
      <trkpt lat="36.9431680" lon="-2.4091520">
        <ele>254.4</ele>
        <time>2020-02-16T07:33:54Z</time>
      </trkpt>
      <trkpt lat="36.9431820" lon="-2.4091360">
        <ele>255.0</ele>
        <time>2020-02-16T07:33:55Z</time>
      </trkpt>
      <trkpt lat="36.9431900" lon="-2.4091220">
        <ele>255.0</ele>
        <time>2020-02-16T07:33:56Z</time>
      </trkpt>
      <trkpt lat="36.9431920" lon="-2.4090600">
        <ele>255.1</ele>
        <time>2020-02-16T07:33:57Z</time>
      </trkpt>
      <trkpt lat="36.9431960" lon="-2.4090490">
        <ele>255.3</ele>
        <time>2020-02-16T07:33:58Z</time>
      </trkpt>
      <trkpt lat="36.9432030" lon="-2.4090320">
        <ele>255.3</ele>
        <time>2020-02-16T07:33:59Z</time>
      </trkpt>
      <trkpt lat="36.9432090" lon="-2.4090200">
        <ele>255.7</ele>
        <time>2020-02-16T07:34:00Z</time>
      </trkpt>
      <trkpt lat="36.9432160" lon="-2.4090120">
        <ele>255.7</ele>
        <time>2020-02-16T07:34:01Z</time>
      </trkpt>
      <trkpt lat="36.9432200" lon="-2.4090050">
        <ele>255.9</ele>
        <time>2020-02-16T07:34:02Z</time>
      </trkpt>
      <trkpt lat="36.9432290" lon="-2.4089900">
        <ele>255.9</ele>
        <time>2020-02-16T07:34:03Z</time>
      </trkpt>
      <trkpt lat="36.9432360" lon="-2.4089770">
        <ele>255.9</ele>
        <time>2020-02-16T07:34:04Z</time>
      </trkpt>
      <trkpt lat="36.9432420" lon="-2.4089650">
        <ele>256.5</ele>
        <time>2020-02-16T07:34:05Z</time>
      </trkpt>
      <trkpt lat="36.9432480" lon="-2.4089550">
        <ele>256.5</ele>
        <time>2020-02-16T07:34:06Z</time>
      </trkpt>
      <trkpt lat="36.9432520" lon="-2.4089490">
        <ele>256.5</ele>
        <time>2020-02-16T07:34:07Z</time>
      </trkpt>
      <trkpt lat="36.9432560" lon="-2.4089400">
        <ele>256.5</ele>
        <time>2020-02-16T07:34:08Z</time>
      </trkpt>
      <trkpt lat="36.9432630" lon="-2.4089270">
        <ele>256.5</ele>
        <time>2020-02-16T07:34:09Z</time>
      </trkpt>
      <trkpt lat="36.9432680" lon="-2.4089150">
        <ele>256.8</ele>
        <time>2020-02-16T07:34:10Z</time>
      </trkpt>
      <trkpt lat="36.9432710" lon="-2.4089100">
        <ele>256.8</ele>
        <time>2020-02-16T07:34:11Z</time>
      </trkpt>
      <trkpt lat="36.9432740" lon="-2.4089020">
        <ele>257.1</ele>
        <time>2020-02-16T07:34:12Z</time>
      </trkpt>
      <trkpt lat="36.9432790" lon="-2.4088900">
        <ele>257.1</ele>
        <time>2020-02-16T07:34:13Z</time>
      </trkpt>
      <trkpt lat="36.9432860" lon="-2.4088740">
        <ele>257.3</ele>
        <time>2020-02-16T07:34:14Z</time>
      </trkpt>
      <trkpt lat="36.9432910" lon="-2.4088600">
        <ele>257.3</ele>
        <time>2020-02-16T07:34:15Z</time>
      </trkpt>
      <trkpt lat="36.9432950" lon="-2.4088490">
        <ele>257.3</ele>
        <time>2020-02-16T07:34:16Z</time>
      </trkpt>
      <trkpt lat="36.9432980" lon="-2.4088400">
        <ele>257.3</ele>
        <time>2020-02-16T07:34:17Z</time>
      </trkpt>
      <trkpt lat="36.9433020" lon="-2.4088320">
        <ele>257.5</ele>
        <time>2020-02-16T07:34:18Z</time>
      </trkpt>
      <trkpt lat="36.9433080" lon="-2.4088190">
        <ele>257.8</ele>
        <time>2020-02-16T07:34:19Z</time>
      </trkpt>
      <trkpt lat="36.9433160" lon="-2.4088000">
        <ele>257.8</ele>
        <time>2020-02-16T07:34:20Z</time>
      </trkpt>
      <trkpt lat="36.9433230" lon="-2.4087850">
        <ele>258.0</ele>
        <time>2020-02-16T07:34:21Z</time>
      </trkpt>
      <trkpt lat="36.9433280" lon="-2.4087740">
        <ele>258.0</ele>
        <time>2020-02-16T07:34:22Z</time>
      </trkpt>
      <trkpt lat="36.9433290" lon="-2.4087690">
        <ele>258.0</ele>
        <time>2020-02-16T07:34:23Z</time>
      </trkpt>
      <trkpt lat="36.9433310" lon="-2.4087650">
        <ele>258.0</ele>
        <time>2020-02-16T07:34:24Z</time>
      </trkpt>
      <trkpt lat="36.9433340" lon="-2.4087570">
        <ele>258.0</ele>
        <time>2020-02-16T07:34:25Z</time>
      </trkpt>
      <trkpt lat="36.9433390" lon="-2.4087470">
        <ele>258.2</ele>
        <time>2020-02-16T07:34:26Z</time>
      </trkpt>
      <trkpt lat="36.9433460" lon="-2.4087350">
        <ele>258.5</ele>
        <time>2020-02-16T07:34:27Z</time>
      </trkpt>
      <trkpt lat="36.9433780" lon="-2.4087240">
        <ele>258.7</ele>
        <time>2020-02-16T07:34:28Z</time>
      </trkpt>
      <trkpt lat="36.9433930" lon="-2.4087140">
        <ele>258.7</ele>
        <time>2020-02-16T07:34:29Z</time>
      </trkpt>
      <trkpt lat="36.9434110" lon="-2.4086950">
        <ele>259.2</ele>
        <time>2020-02-16T07:34:30Z</time>
      </trkpt>
      <trkpt lat="36.9434300" lon="-2.4086810">
        <ele>259.2</ele>
        <time>2020-02-16T07:34:31Z</time>
      </trkpt>
      <trkpt lat="36.9434500" lon="-2.4086670">
        <ele>259.5</ele>
        <time>2020-02-16T07:34:32Z</time>
      </trkpt>
      <trkpt lat="36.9434700" lon="-2.4086540">
        <ele>259.7</ele>
        <time>2020-02-16T07:34:33Z</time>
      </trkpt>
      <trkpt lat="36.9434910" lon="-2.4086400">
        <ele>260.0</ele>
        <time>2020-02-16T07:34:34Z</time>
      </trkpt>
      <trkpt lat="36.9435100" lon="-2.4086270">
        <ele>260.0</ele>
        <time>2020-02-16T07:34:35Z</time>
      </trkpt>
      <trkpt lat="36.9435280" lon="-2.4086120">
        <ele>260.6</ele>
        <time>2020-02-16T07:34:36Z</time>
      </trkpt>
      <trkpt lat="36.9435460" lon="-2.4085990">
        <ele>260.6</ele>
        <time>2020-02-16T07:34:37Z</time>
      </trkpt>
      <trkpt lat="36.9435610" lon="-2.4085900">
        <ele>260.9</ele>
        <time>2020-02-16T07:34:38Z</time>
      </trkpt>
      <trkpt lat="36.9435810" lon="-2.4085780">
        <ele>261.2</ele>
        <time>2020-02-16T07:34:39Z</time>
      </trkpt>
      <trkpt lat="36.9436100" lon="-2.4085640">
        <ele>261.4</ele>
        <time>2020-02-16T07:34:40Z</time>
      </trkpt>
      <trkpt lat="36.9436310" lon="-2.4085560">
        <ele>261.7</ele>
        <time>2020-02-16T07:34:41Z</time>
      </trkpt>
      <trkpt lat="36.9436560" lon="-2.4085720">
        <ele>262.0</ele>
        <time>2020-02-16T07:34:42Z</time>
      </trkpt>
      <trkpt lat="36.9436730" lon="-2.4085650">
        <ele>262.0</ele>
        <time>2020-02-16T07:34:43Z</time>
      </trkpt>
      <trkpt lat="36.9436960" lon="-2.4085610">
        <ele>262.2</ele>
        <time>2020-02-16T07:34:44Z</time>
      </trkpt>
      <trkpt lat="36.9437250" lon="-2.4085590">
        <ele>262.5</ele>
        <time>2020-02-16T07:34:45Z</time>
      </trkpt>
      <trkpt lat="36.9437450" lon="-2.4085580">
        <ele>262.5</ele>
        <time>2020-02-16T07:34:46Z</time>
      </trkpt>
      <trkpt lat="36.9437700" lon="-2.4085560">
        <ele>262.7</ele>
        <time>2020-02-16T07:34:47Z</time>
      </trkpt>
      <trkpt lat="36.9437880" lon="-2.4085530">
        <ele>263.0</ele>
        <time>2020-02-16T07:34:48Z</time>
      </trkpt>
      <trkpt lat="36.9438100" lon="-2.4085500">
        <ele>263.0</ele>
        <time>2020-02-16T07:34:49Z</time>
      </trkpt>
      <trkpt lat="36.9438350" lon="-2.4085460">
        <ele>263.2</ele>
        <time>2020-02-16T07:34:50Z</time>
      </trkpt>
      <trkpt lat="36.9438600" lon="-2.4085400">
        <ele>263.5</ele>
        <time>2020-02-16T07:34:51Z</time>
      </trkpt>
      <trkpt lat="36.9438810" lon="-2.4085320">
        <ele>263.6</ele>
        <time>2020-02-16T07:34:52Z</time>
      </trkpt>
      <trkpt lat="36.9439000" lon="-2.4085230">
        <ele>263.8</ele>
        <time>2020-02-16T07:34:53Z</time>
      </trkpt>
      <trkpt lat="36.9439180" lon="-2.4085130">
        <ele>263.8</ele>
        <time>2020-02-16T07:34:54Z</time>
      </trkpt>
      <trkpt lat="36.9439380" lon="-2.4085020">
        <ele>264.0</ele>
        <time>2020-02-16T07:34:55Z</time>
      </trkpt>
      <trkpt lat="36.9439550" lon="-2.4084910">
        <ele>264.1</ele>
        <time>2020-02-16T07:34:56Z</time>
      </trkpt>
      <trkpt lat="36.9439680" lon="-2.4084810">
        <ele>264.3</ele>
        <time>2020-02-16T07:34:57Z</time>
      </trkpt>
      <trkpt lat="36.9439860" lon="-2.4084690">
        <ele>264.3</ele>
        <time>2020-02-16T07:34:58Z</time>
      </trkpt>
      <trkpt lat="36.9440100" lon="-2.4084550">
        <ele>264.4</ele>
        <time>2020-02-16T07:34:59Z</time>
      </trkpt>
      <trkpt lat="36.9440230" lon="-2.4084440">
        <ele>264.5</ele>
        <time>2020-02-16T07:35:00Z</time>
      </trkpt>
      <trkpt lat="36.9440410" lon="-2.4084320">
        <ele>264.6</ele>
        <time>2020-02-16T07:35:01Z</time>
      </trkpt>
      <trkpt lat="36.9440610" lon="-2.4084170">
        <ele>264.6</ele>
        <time>2020-02-16T07:35:02Z</time>
      </trkpt>
      <trkpt lat="36.9440800" lon="-2.4084040">
        <ele>264.7</ele>
        <time>2020-02-16T07:35:03Z</time>
      </trkpt>
      <trkpt lat="36.9441010" lon="-2.4083880">
        <ele>264.7</ele>
        <time>2020-02-16T07:35:04Z</time>
      </trkpt>
      <trkpt lat="36.9441160" lon="-2.4083750">
        <ele>264.7</ele>
        <time>2020-02-16T07:35:05Z</time>
      </trkpt>
      <trkpt lat="36.9441330" lon="-2.4083620">
        <ele>264.8</ele>
        <time>2020-02-16T07:35:06Z</time>
      </trkpt>
      <trkpt lat="36.9441530" lon="-2.4083470">
        <ele>264.8</ele>
        <time>2020-02-16T07:35:07Z</time>
      </trkpt>
      <trkpt lat="36.9441680" lon="-2.4083360">
        <ele>264.8</ele>
        <time>2020-02-16T07:35:08Z</time>
      </trkpt>
      <trkpt lat="36.9441880" lon="-2.4083230">
        <ele>264.8</ele>
        <time>2020-02-16T07:35:09Z</time>
      </trkpt>
      <trkpt lat="36.9442080" lon="-2.4083100">
        <ele>264.8</ele>
        <time>2020-02-16T07:35:10Z</time>
      </trkpt>
      <trkpt lat="36.9442280" lon="-2.4082970">
        <ele>264.8</ele>
        <time>2020-02-16T07:35:11Z</time>
      </trkpt>
      <trkpt lat="36.9442510" lon="-2.4082840">
        <ele>264.8</ele>
        <time>2020-02-16T07:35:12Z</time>
      </trkpt>
      <trkpt lat="36.9442760" lon="-2.4082700">
        <ele>264.8</ele>
        <time>2020-02-16T07:35:13Z</time>
      </trkpt>
      <trkpt lat="36.9442960" lon="-2.4082580">
        <ele>264.8</ele>
        <time>2020-02-16T07:35:14Z</time>
      </trkpt>
      <trkpt lat="36.9443190" lon="-2.4082460">
        <ele>264.9</ele>
        <time>2020-02-16T07:35:15Z</time>
      </trkpt>
      <trkpt lat="36.9443390" lon="-2.4082360">
        <ele>264.9</ele>
        <time>2020-02-16T07:35:16Z</time>
      </trkpt>
      <trkpt lat="36.9443610" lon="-2.4082240">
        <ele>264.9</ele>
        <time>2020-02-16T07:35:17Z</time>
      </trkpt>
      <trkpt lat="36.9443840" lon="-2.4082130">
        <ele>265.0</ele>
        <time>2020-02-16T07:35:18Z</time>
      </trkpt>
      <trkpt lat="36.9444030" lon="-2.4082050">
        <ele>265.0</ele>
        <time>2020-02-16T07:35:19Z</time>
      </trkpt>
      <trkpt lat="36.9444160" lon="-2.4081990">
        <ele>265.0</ele>
        <time>2020-02-16T07:35:20Z</time>
      </trkpt>
      <trkpt lat="36.9444390" lon="-2.4081890">
        <ele>265.1</ele>
        <time>2020-02-16T07:35:21Z</time>
      </trkpt>
      <trkpt lat="36.9444560" lon="-2.4081820">
        <ele>265.1</ele>
        <time>2020-02-16T07:35:22Z</time>
      </trkpt>
      <trkpt lat="36.9444760" lon="-2.4081710">
        <ele>265.2</ele>
        <time>2020-02-16T07:35:23Z</time>
      </trkpt>
      <trkpt lat="36.9444960" lon="-2.4081630">
        <ele>265.2</ele>
        <time>2020-02-16T07:35:24Z</time>
      </trkpt>
      <trkpt lat="36.9445180" lon="-2.4081510">
        <ele>265.3</ele>
        <time>2020-02-16T07:35:25Z</time>
      </trkpt>
      <trkpt lat="36.9445340" lon="-2.4081440">
        <ele>265.3</ele>
        <time>2020-02-16T07:35:26Z</time>
      </trkpt>
      <trkpt lat="36.9445560" lon="-2.4081330">
        <ele>265.4</ele>
        <time>2020-02-16T07:35:27Z</time>
      </trkpt>
      <trkpt lat="36.9445740" lon="-2.4081240">
        <ele>265.4</ele>
        <time>2020-02-16T07:35:28Z</time>
      </trkpt>
      <trkpt lat="36.9445890" lon="-2.4081160">
        <ele>265.4</ele>
        <time>2020-02-16T07:35:29Z</time>
      </trkpt>
      <trkpt lat="36.9446130" lon="-2.4081030">
        <ele>265.5</ele>
        <time>2020-02-16T07:35:30Z</time>
      </trkpt>
      <trkpt lat="36.9446330" lon="-2.4080920">
        <ele>265.5</ele>
        <time>2020-02-16T07:35:31Z</time>
      </trkpt>
      <trkpt lat="36.9446540" lon="-2.4080780">
        <ele>265.6</ele>
        <time>2020-02-16T07:35:32Z</time>
      </trkpt>
      <trkpt lat="36.9446730" lon="-2.4080660">
        <ele>265.6</ele>
        <time>2020-02-16T07:35:33Z</time>
      </trkpt>
      <trkpt lat="36.9446910" lon="-2.4080530">
        <ele>265.7</ele>
        <time>2020-02-16T07:35:34Z</time>
      </trkpt>
      <trkpt lat="36.9447140" lon="-2.4080390">
        <ele>265.8</ele>
        <time>2020-02-16T07:35:35Z</time>
      </trkpt>
      <trkpt lat="36.9447310" lon="-2.4080280">
        <ele>265.8</ele>
        <time>2020-02-16T07:35:36Z</time>
      </trkpt>
      <trkpt lat="36.9447480" lon="-2.4080160">
        <ele>266.0</ele>
        <time>2020-02-16T07:35:37Z</time>
      </trkpt>
      <trkpt lat="36.9447680" lon="-2.4080050">
        <ele>266.0</ele>
        <time>2020-02-16T07:35:38Z</time>
      </trkpt>
      <trkpt lat="36.9447810" lon="-2.4079950">
        <ele>266.0</ele>
        <time>2020-02-16T07:35:39Z</time>
      </trkpt>
      <trkpt lat="36.9448010" lon="-2.4079830">
        <ele>266.1</ele>
        <time>2020-02-16T07:35:40Z</time>
      </trkpt>
      <trkpt lat="36.9448160" lon="-2.4079730">
        <ele>266.2</ele>
        <time>2020-02-16T07:35:41Z</time>
      </trkpt>
      <trkpt lat="36.9448380" lon="-2.4079580">
        <ele>266.2</ele>
        <time>2020-02-16T07:35:42Z</time>
      </trkpt>
      <trkpt lat="36.9448580" lon="-2.4079430">
        <ele>266.4</ele>
        <time>2020-02-16T07:35:43Z</time>
      </trkpt>
      <trkpt lat="36.9448740" lon="-2.4079330">
        <ele>266.5</ele>
        <time>2020-02-16T07:35:44Z</time>
      </trkpt>
      <trkpt lat="36.9448890" lon="-2.4079190">
        <ele>266.6</ele>
        <time>2020-02-16T07:35:45Z</time>
      </trkpt>
      <trkpt lat="36.9449060" lon="-2.4079040">
        <ele>266.7</ele>
        <time>2020-02-16T07:35:46Z</time>
      </trkpt>
      <trkpt lat="36.9449280" lon="-2.4078880">
        <ele>266.9</ele>
        <time>2020-02-16T07:35:47Z</time>
      </trkpt>
      <trkpt lat="36.9449440" lon="-2.4078710">
        <ele>267.1</ele>
        <time>2020-02-16T07:35:48Z</time>
      </trkpt>
      <trkpt lat="36.9449630" lon="-2.4078550">
        <ele>267.3</ele>
        <time>2020-02-16T07:35:49Z</time>
      </trkpt>
      <trkpt lat="36.9449790" lon="-2.4078400">
        <ele>267.4</ele>
        <time>2020-02-16T07:35:50Z</time>
      </trkpt>
      <trkpt lat="36.9449980" lon="-2.4078220">
        <ele>267.6</ele>
        <time>2020-02-16T07:35:51Z</time>
      </trkpt>
      <trkpt lat="36.9450140" lon="-2.4078050">
        <ele>267.7</ele>
        <time>2020-02-16T07:35:52Z</time>
      </trkpt>
      <trkpt lat="36.9450330" lon="-2.4077860">
        <ele>267.8</ele>
        <time>2020-02-16T07:35:53Z</time>
      </trkpt>
      <trkpt lat="36.9450510" lon="-2.4077670">
        <ele>267.9</ele>
        <time>2020-02-16T07:35:54Z</time>
      </trkpt>
      <trkpt lat="36.9450710" lon="-2.4077460">
        <ele>268.0</ele>
        <time>2020-02-16T07:35:55Z</time>
      </trkpt>
      <trkpt lat="36.9450860" lon="-2.4077270">
        <ele>268.1</ele>
        <time>2020-02-16T07:35:56Z</time>
      </trkpt>
      <trkpt lat="36.9451040" lon="-2.4077070">
        <ele>268.2</ele>
        <time>2020-02-16T07:35:57Z</time>
      </trkpt>
      <trkpt lat="36.9451230" lon="-2.4076870">
        <ele>268.3</ele>
        <time>2020-02-16T07:35:58Z</time>
      </trkpt>
      <trkpt lat="36.9451410" lon="-2.4076660">
        <ele>268.4</ele>
        <time>2020-02-16T07:35:59Z</time>
      </trkpt>
      <trkpt lat="36.9451630" lon="-2.4076440">
        <ele>268.5</ele>
        <time>2020-02-16T07:36:00Z</time>
      </trkpt>
      <trkpt lat="36.9451740" lon="-2.4076280">
        <ele>268.5</ele>
        <time>2020-02-16T07:36:01Z</time>
      </trkpt>
      <trkpt lat="36.9451930" lon="-2.4076070">
        <ele>268.6</ele>
        <time>2020-02-16T07:36:02Z</time>
      </trkpt>
      <trkpt lat="36.9452080" lon="-2.4075890">
        <ele>268.7</ele>
        <time>2020-02-16T07:36:03Z</time>
      </trkpt>
      <trkpt lat="36.9452290" lon="-2.4075650">
        <ele>268.8</ele>
        <time>2020-02-16T07:36:04Z</time>
      </trkpt>
      <trkpt lat="36.9452510" lon="-2.4075420">
        <ele>268.8</ele>
        <time>2020-02-16T07:36:05Z</time>
      </trkpt>
      <trkpt lat="36.9452710" lon="-2.4075190">
        <ele>268.9</ele>
        <time>2020-02-16T07:36:06Z</time>
      </trkpt>
      <trkpt lat="36.9452910" lon="-2.4074980">
        <ele>269.0</ele>
        <time>2020-02-16T07:36:07Z</time>
      </trkpt>
      <trkpt lat="36.9453090" lon="-2.4074790">
        <ele>269.1</ele>
        <time>2020-02-16T07:36:08Z</time>
      </trkpt>
      <trkpt lat="36.9453290" lon="-2.4074570">
        <ele>269.2</ele>
        <time>2020-02-16T07:36:09Z</time>
      </trkpt>
      <trkpt lat="36.9453480" lon="-2.4074380">
        <ele>269.3</ele>
        <time>2020-02-16T07:36:10Z</time>
      </trkpt>
      <trkpt lat="36.9453660" lon="-2.4074190">
        <ele>269.4</ele>
        <time>2020-02-16T07:36:11Z</time>
      </trkpt>
      <trkpt lat="36.9453860" lon="-2.4073990">
        <ele>269.5</ele>
        <time>2020-02-16T07:36:12Z</time>
      </trkpt>
      <trkpt lat="36.9454010" lon="-2.4073820">
        <ele>269.6</ele>
        <time>2020-02-16T07:36:13Z</time>
      </trkpt>
      <trkpt lat="36.9454170" lon="-2.4073650">
        <ele>269.7</ele>
        <time>2020-02-16T07:36:14Z</time>
      </trkpt>
      <trkpt lat="36.9454340" lon="-2.4073470">
        <ele>269.8</ele>
        <time>2020-02-16T07:36:15Z</time>
      </trkpt>
      <trkpt lat="36.9454520" lon="-2.4073290">
        <ele>269.9</ele>
        <time>2020-02-16T07:36:16Z</time>
      </trkpt>
      <trkpt lat="36.9454720" lon="-2.4073090">
        <ele>270.0</ele>
        <time>2020-02-16T07:36:17Z</time>
      </trkpt>
      <trkpt lat="36.9454910" lon="-2.4072900">
        <ele>270.1</ele>
        <time>2020-02-16T07:36:18Z</time>
      </trkpt>
      <trkpt lat="36.9455090" lon="-2.4072720">
        <ele>270.2</ele>
        <time>2020-02-16T07:36:19Z</time>
      </trkpt>
      <trkpt lat="36.9455270" lon="-2.4072530">
        <ele>270.4</ele>
        <time>2020-02-16T07:36:20Z</time>
      </trkpt>
      <trkpt lat="36.9455510" lon="-2.4072320">
        <ele>270.6</ele>
        <time>2020-02-16T07:36:21Z</time>
      </trkpt>
      <trkpt lat="36.9455710" lon="-2.4072130">
        <ele>270.7</ele>
        <time>2020-02-16T07:36:22Z</time>
      </trkpt>
      <trkpt lat="36.9455890" lon="-2.4071960">
        <ele>270.9</ele>
        <time>2020-02-16T07:36:23Z</time>
      </trkpt>
      <trkpt lat="36.9456070" lon="-2.4071790">
        <ele>271.0</ele>
        <time>2020-02-16T07:36:24Z</time>
      </trkpt>
      <trkpt lat="36.9456270" lon="-2.4071620">
        <ele>271.1</ele>
        <time>2020-02-16T07:36:25Z</time>
      </trkpt>
      <trkpt lat="36.9456440" lon="-2.4071490">
        <ele>271.2</ele>
        <time>2020-02-16T07:36:26Z</time>
      </trkpt>
      <trkpt lat="36.9456610" lon="-2.4071350">
        <ele>271.3</ele>
        <time>2020-02-16T07:36:27Z</time>
      </trkpt>
      <trkpt lat="36.9456760" lon="-2.4071210">
        <ele>271.4</ele>
        <time>2020-02-16T07:36:28Z</time>
      </trkpt>
      <trkpt lat="36.9456910" lon="-2.4071080">
        <ele>271.4</ele>
        <time>2020-02-16T07:36:29Z</time>
      </trkpt>
      <trkpt lat="36.9457070" lon="-2.4070940">
        <ele>271.5</ele>
        <time>2020-02-16T07:36:30Z</time>
      </trkpt>
      <trkpt lat="36.9457220" lon="-2.4070800">
        <ele>271.6</ele>
        <time>2020-02-16T07:36:31Z</time>
      </trkpt>
      <trkpt lat="36.9457420" lon="-2.4070630">
        <ele>271.7</ele>
        <time>2020-02-16T07:36:32Z</time>
      </trkpt>
      <trkpt lat="36.9457540" lon="-2.4070510">
        <ele>271.8</ele>
        <time>2020-02-16T07:36:33Z</time>
      </trkpt>
      <trkpt lat="36.9457720" lon="-2.4070350">
        <ele>271.9</ele>
        <time>2020-02-16T07:36:34Z</time>
      </trkpt>
      <trkpt lat="36.9457840" lon="-2.4070240">
        <ele>272.0</ele>
        <time>2020-02-16T07:36:35Z</time>
      </trkpt>
      <trkpt lat="36.9457990" lon="-2.4070070">
        <ele>272.0</ele>
        <time>2020-02-16T07:36:36Z</time>
      </trkpt>
      <trkpt lat="36.9458040" lon="-2.4070010">
        <ele>272.1</ele>
        <time>2020-02-16T07:36:37Z</time>
      </trkpt>
      <trkpt lat="36.9458110" lon="-2.4069920">
        <ele>272.1</ele>
        <time>2020-02-16T07:36:38Z</time>
      </trkpt>
      <trkpt lat="36.9458210" lon="-2.4069820">
        <ele>272.2</ele>
        <time>2020-02-16T07:36:39Z</time>
      </trkpt>
      <trkpt lat="36.9458310" lon="-2.4069700">
        <ele>272.2</ele>
        <time>2020-02-16T07:36:40Z</time>
      </trkpt>
      <trkpt lat="36.9458410" lon="-2.4069590">
        <ele>272.3</ele>
        <time>2020-02-16T07:36:41Z</time>
      </trkpt>
      <trkpt lat="36.9458440" lon="-2.4069540">
        <ele>272.3</ele>
        <time>2020-02-16T07:36:42Z</time>
      </trkpt>
      <trkpt lat="36.9458410" lon="-2.4069550">
        <ele>272.3</ele>
        <time>2020-02-16T07:36:43Z</time>
      </trkpt>
      <trkpt lat="36.9458390" lon="-2.4069550">
        <ele>272.4</ele>
        <time>2020-02-16T07:36:44Z</time>
      </trkpt>
      <trkpt lat="36.9458360" lon="-2.4069570">
        <ele>272.4</ele>
        <time>2020-02-16T07:36:45Z</time>
      </trkpt>
      <trkpt lat="36.9458320" lon="-2.4069570">
        <ele>272.4</ele>
        <time>2020-02-16T07:36:46Z</time>
      </trkpt>
      <trkpt lat="36.9458270" lon="-2.4069610">
        <ele>272.4</ele>
        <time>2020-02-16T07:36:47Z</time>
      </trkpt>
      <trkpt lat="36.9458240" lon="-2.4069630">
        <ele>272.4</ele>
        <time>2020-02-16T07:36:48Z</time>
      </trkpt>
      <trkpt lat="36.9458210" lon="-2.4069650">
        <ele>272.4</ele>
        <time>2020-02-16T07:36:49Z</time>
      </trkpt>
      <trkpt lat="36.9458220" lon="-2.4069440">
        <ele>272.5</ele>
        <time>2020-02-16T07:36:50Z</time>
      </trkpt>
      <trkpt lat="36.9458240" lon="-2.4069480">
        <ele>272.5</ele>
        <time>2020-02-16T07:36:52Z</time>
      </trkpt>
      <trkpt lat="36.9458220" lon="-2.4069480">
        <ele>272.6</ele>
        <time>2020-02-16T07:36:53Z</time>
      </trkpt>
      <trkpt lat="36.9458220" lon="-2.4069460">
        <ele>272.6</ele>
        <time>2020-02-16T07:36:54Z</time>
      </trkpt>
      <trkpt lat="36.9458240" lon="-2.4069440">
        <ele>272.6</ele>
        <time>2020-02-16T07:36:55Z</time>
      </trkpt>
      <trkpt lat="36.9458290" lon="-2.4069390">
        <ele>272.6</ele>
        <time>2020-02-16T07:36:56Z</time>
      </trkpt>
      <trkpt lat="36.9458310" lon="-2.4069330">
        <ele>272.6</ele>
        <time>2020-02-16T07:36:57Z</time>
      </trkpt>
      <trkpt lat="36.9458360" lon="-2.4069220">
        <ele>272.7</ele>
        <time>2020-02-16T07:36:58Z</time>
      </trkpt>
      <trkpt lat="36.9458420" lon="-2.4069120">
        <ele>272.7</ele>
        <time>2020-02-16T07:36:59Z</time>
      </trkpt>
      <trkpt lat="36.9458510" lon="-2.4069010">
        <ele>272.8</ele>
        <time>2020-02-16T07:37:00Z</time>
      </trkpt>
      <trkpt lat="36.9458610" lon="-2.4068900">
        <ele>272.8</ele>
        <time>2020-02-16T07:37:01Z</time>
      </trkpt>
      <trkpt lat="36.9458720" lon="-2.4068770">
        <ele>272.9</ele>
        <time>2020-02-16T07:37:02Z</time>
      </trkpt>
      <trkpt lat="36.9458820" lon="-2.4068660">
        <ele>273.0</ele>
        <time>2020-02-16T07:37:03Z</time>
      </trkpt>
      <trkpt lat="36.9458910" lon="-2.4068570">
        <ele>273.0</ele>
        <time>2020-02-16T07:37:04Z</time>
      </trkpt>
      <trkpt lat="36.9458990" lon="-2.4068480">
        <ele>273.0</ele>
        <time>2020-02-16T07:37:05Z</time>
      </trkpt>
      <trkpt lat="36.9459060" lon="-2.4068400">
        <ele>273.1</ele>
        <time>2020-02-16T07:37:06Z</time>
      </trkpt>
      <trkpt lat="36.9459140" lon="-2.4068290">
        <ele>273.1</ele>
        <time>2020-02-16T07:37:07Z</time>
      </trkpt>
      <trkpt lat="36.9459240" lon="-2.4068160">
        <ele>273.2</ele>
        <time>2020-02-16T07:37:08Z</time>
      </trkpt>
      <trkpt lat="36.9459340" lon="-2.4068020">
        <ele>273.2</ele>
        <time>2020-02-16T07:37:09Z</time>
      </trkpt>
      <trkpt lat="36.9459470" lon="-2.4067850">
        <ele>273.3</ele>
        <time>2020-02-16T07:37:10Z</time>
      </trkpt>
      <trkpt lat="36.9459610" lon="-2.4067690">
        <ele>273.4</ele>
        <time>2020-02-16T07:37:11Z</time>
      </trkpt>
      <trkpt lat="36.9459740" lon="-2.4067530">
        <ele>273.5</ele>
        <time>2020-02-16T07:37:12Z</time>
      </trkpt>
      <trkpt lat="36.9459860" lon="-2.4067390">
        <ele>273.6</ele>
        <time>2020-02-16T07:37:13Z</time>
      </trkpt>
      <trkpt lat="36.9459960" lon="-2.4067270">
        <ele>273.6</ele>
        <time>2020-02-16T07:37:14Z</time>
      </trkpt>
      <trkpt lat="36.9460070" lon="-2.4067140">
        <ele>273.7</ele>
        <time>2020-02-16T07:37:15Z</time>
      </trkpt>
      <trkpt lat="36.9460160" lon="-2.4067050">
        <ele>273.8</ele>
        <time>2020-02-16T07:37:16Z</time>
      </trkpt>
      <trkpt lat="36.9460240" lon="-2.4066940">
        <ele>273.8</ele>
        <time>2020-02-16T07:37:17Z</time>
      </trkpt>
      <trkpt lat="36.9460360" lon="-2.4066800">
        <ele>273.9</ele>
        <time>2020-02-16T07:37:18Z</time>
      </trkpt>
      <trkpt lat="36.9460470" lon="-2.4066660">
        <ele>274.0</ele>
        <time>2020-02-16T07:37:19Z</time>
      </trkpt>
      <trkpt lat="36.9460590" lon="-2.4066520">
        <ele>274.1</ele>
        <time>2020-02-16T07:37:20Z</time>
      </trkpt>
      <trkpt lat="36.9460710" lon="-2.4066400">
        <ele>274.2</ele>
        <time>2020-02-16T07:37:21Z</time>
      </trkpt>
      <trkpt lat="36.9460820" lon="-2.4066270">
        <ele>274.3</ele>
        <time>2020-02-16T07:37:22Z</time>
      </trkpt>
      <trkpt lat="36.9460940" lon="-2.4066150">
        <ele>274.4</ele>
        <time>2020-02-16T07:37:23Z</time>
      </trkpt>
      <trkpt lat="36.9461020" lon="-2.4066070">
        <ele>274.4</ele>
        <time>2020-02-16T07:37:24Z</time>
      </trkpt>
      <trkpt lat="36.9461110" lon="-2.4065990">
        <ele>274.5</ele>
        <time>2020-02-16T07:37:25Z</time>
      </trkpt>
      <trkpt lat="36.9461190" lon="-2.4065900">
        <ele>274.5</ele>
        <time>2020-02-16T07:37:26Z</time>
      </trkpt>
      <trkpt lat="36.9461270" lon="-2.4065820">
        <ele>274.6</ele>
        <time>2020-02-16T07:37:27Z</time>
      </trkpt>
      <trkpt lat="36.9461340" lon="-2.4065750">
        <ele>274.6</ele>
        <time>2020-02-16T07:37:28Z</time>
      </trkpt>
      <trkpt lat="36.9461410" lon="-2.4065680">
        <ele>274.7</ele>
        <time>2020-02-16T07:37:29Z</time>
      </trkpt>
      <trkpt lat="36.9461470" lon="-2.4065610">
        <ele>274.7</ele>
        <time>2020-02-16T07:37:30Z</time>
      </trkpt>
      <trkpt lat="36.9461590" lon="-2.4065490">
        <ele>274.8</ele>
        <time>2020-02-16T07:37:31Z</time>
      </trkpt>
      <trkpt lat="36.9461660" lon="-2.4065420">
        <ele>274.8</ele>
        <time>2020-02-16T07:37:32Z</time>
      </trkpt>
      <trkpt lat="36.9461760" lon="-2.4065320">
        <ele>274.9</ele>
        <time>2020-02-16T07:37:33Z</time>
      </trkpt>
      <trkpt lat="36.9461860" lon="-2.4065210">
        <ele>274.9</ele>
        <time>2020-02-16T07:37:34Z</time>
      </trkpt>
      <trkpt lat="36.9461960" lon="-2.4065110">
        <ele>275.0</ele>
        <time>2020-02-16T07:37:35Z</time>
      </trkpt>
      <trkpt lat="36.9462060" lon="-2.4065010">
        <ele>275.1</ele>
        <time>2020-02-16T07:37:36Z</time>
      </trkpt>
      <trkpt lat="36.9462190" lon="-2.4064860">
        <ele>275.1</ele>
        <time>2020-02-16T07:37:37Z</time>
      </trkpt>
      <trkpt lat="36.9462290" lon="-2.4064750">
        <ele>275.2</ele>
        <time>2020-02-16T07:37:38Z</time>
      </trkpt>
      <trkpt lat="36.9462420" lon="-2.4064620">
        <ele>275.3</ele>
        <time>2020-02-16T07:37:39Z</time>
      </trkpt>
      <trkpt lat="36.9462520" lon="-2.4064510">
        <ele>275.4</ele>
        <time>2020-02-16T07:37:40Z</time>
      </trkpt>
      <trkpt lat="36.9462640" lon="-2.4064380">
        <ele>275.5</ele>
        <time>2020-02-16T07:37:41Z</time>
      </trkpt>
      <trkpt lat="36.9462720" lon="-2.4064300">
        <ele>275.5</ele>
        <time>2020-02-16T07:37:42Z</time>
      </trkpt>
      <trkpt lat="36.9462870" lon="-2.4064150">
        <ele>275.6</ele>
        <time>2020-02-16T07:37:43Z</time>
      </trkpt>
      <trkpt lat="36.9463000" lon="-2.4064010">
        <ele>275.7</ele>
        <time>2020-02-16T07:37:44Z</time>
      </trkpt>
      <trkpt lat="36.9463120" lon="-2.4063890">
        <ele>275.8</ele>
        <time>2020-02-16T07:37:45Z</time>
      </trkpt>
      <trkpt lat="36.9463220" lon="-2.4063790">
        <ele>275.8</ele>
        <time>2020-02-16T07:37:46Z</time>
      </trkpt>
      <trkpt lat="36.9463340" lon="-2.4063670">
        <ele>275.9</ele>
        <time>2020-02-16T07:37:47Z</time>
      </trkpt>
      <trkpt lat="36.9463450" lon="-2.4063560">
        <ele>276.0</ele>
        <time>2020-02-16T07:37:48Z</time>
      </trkpt>
      <trkpt lat="36.9463570" lon="-2.4063450">
        <ele>276.0</ele>
        <time>2020-02-16T07:37:49Z</time>
      </trkpt>
      <trkpt lat="36.9463720" lon="-2.4063300">
        <ele>276.1</ele>
        <time>2020-02-16T07:37:50Z</time>
      </trkpt>
      <trkpt lat="36.9463890" lon="-2.4063150">
        <ele>276.2</ele>
        <time>2020-02-16T07:37:51Z</time>
      </trkpt>
      <trkpt lat="36.9464020" lon="-2.4063030">
        <ele>276.3</ele>
        <time>2020-02-16T07:37:52Z</time>
      </trkpt>
      <trkpt lat="36.9464170" lon="-2.4062910">
        <ele>276.3</ele>
        <time>2020-02-16T07:37:53Z</time>
      </trkpt>
      <trkpt lat="36.9464300" lon="-2.4062790">
        <ele>276.4</ele>
        <time>2020-02-16T07:37:54Z</time>
      </trkpt>
      <trkpt lat="36.9464440" lon="-2.4062690">
        <ele>276.5</ele>
        <time>2020-02-16T07:37:55Z</time>
      </trkpt>
      <trkpt lat="36.9464540" lon="-2.4062620">
        <ele>276.5</ele>
        <time>2020-02-16T07:37:56Z</time>
      </trkpt>
      <trkpt lat="36.9464650" lon="-2.4062540">
        <ele>276.6</ele>
        <time>2020-02-16T07:37:57Z</time>
      </trkpt>
      <trkpt lat="36.9464790" lon="-2.4062440">
        <ele>276.7</ele>
        <time>2020-02-16T07:37:58Z</time>
      </trkpt>
      <trkpt lat="36.9464900" lon="-2.4062350">
        <ele>276.7</ele>
        <time>2020-02-16T07:37:59Z</time>
      </trkpt>
      <trkpt lat="36.9465020" lon="-2.4062260">
        <ele>276.8</ele>
        <time>2020-02-16T07:38:00Z</time>
      </trkpt>
      <trkpt lat="36.9465140" lon="-2.4062180">
        <ele>276.9</ele>
        <time>2020-02-16T07:38:01Z</time>
      </trkpt>
      <trkpt lat="36.9465270" lon="-2.4062070">
        <ele>276.9</ele>
        <time>2020-02-16T07:38:02Z</time>
      </trkpt>
      <trkpt lat="36.9465370" lon="-2.4062010">
        <ele>277.0</ele>
        <time>2020-02-16T07:38:03Z</time>
      </trkpt>
      <trkpt lat="36.9465490" lon="-2.4061930">
        <ele>277.1</ele>
        <time>2020-02-16T07:38:04Z</time>
      </trkpt>
      <trkpt lat="36.9465550" lon="-2.4061910">
        <ele>277.1</ele>
        <time>2020-02-16T07:38:05Z</time>
      </trkpt>
      <trkpt lat="36.9465640" lon="-2.4061860">
        <ele>277.1</ele>
        <time>2020-02-16T07:38:06Z</time>
      </trkpt>
      <trkpt lat="36.9465720" lon="-2.4061810">
        <ele>277.2</ele>
        <time>2020-02-16T07:38:07Z</time>
      </trkpt>
      <trkpt lat="36.9465800" lon="-2.4061760">
        <ele>277.2</ele>
        <time>2020-02-16T07:38:08Z</time>
      </trkpt>
      <trkpt lat="36.9465900" lon="-2.4061690">
        <ele>277.3</ele>
        <time>2020-02-16T07:38:09Z</time>
      </trkpt>
      <trkpt lat="36.9466000" lon="-2.4061630">
        <ele>277.4</ele>
        <time>2020-02-16T07:38:10Z</time>
      </trkpt>
      <trkpt lat="36.9466100" lon="-2.4061560">
        <ele>277.4</ele>
        <time>2020-02-16T07:38:11Z</time>
      </trkpt>
      <trkpt lat="36.9466200" lon="-2.4061510">
        <ele>277.5</ele>
        <time>2020-02-16T07:38:12Z</time>
      </trkpt>
      <trkpt lat="36.9466300" lon="-2.4061460">
        <ele>277.6</ele>
        <time>2020-02-16T07:38:13Z</time>
      </trkpt>
      <trkpt lat="36.9466420" lon="-2.4061380">
        <ele>277.6</ele>
        <time>2020-02-16T07:38:14Z</time>
      </trkpt>
      <trkpt lat="36.9466500" lon="-2.4061340">
        <ele>277.7</ele>
        <time>2020-02-16T07:38:15Z</time>
      </trkpt>
      <trkpt lat="36.9466620" lon="-2.4061270">
        <ele>277.7</ele>
        <time>2020-02-16T07:38:16Z</time>
      </trkpt>
      <trkpt lat="36.9466720" lon="-2.4061220">
        <ele>277.8</ele>
        <time>2020-02-16T07:38:17Z</time>
      </trkpt>
      <trkpt lat="36.9466840" lon="-2.4061150">
        <ele>277.9</ele>
        <time>2020-02-16T07:38:18Z</time>
      </trkpt>
      <trkpt lat="36.9466950" lon="-2.4061080">
        <ele>277.9</ele>
        <time>2020-02-16T07:38:19Z</time>
      </trkpt>
      <trkpt lat="36.9467090" lon="-2.4061000">
        <ele>278.0</ele>
        <time>2020-02-16T07:38:20Z</time>
      </trkpt>
      <trkpt lat="36.9467220" lon="-2.4060920">
        <ele>278.1</ele>
        <time>2020-02-16T07:38:21Z</time>
      </trkpt>
      <trkpt lat="36.9467370" lon="-2.4060830">
        <ele>278.1</ele>
        <time>2020-02-16T07:38:22Z</time>
      </trkpt>
      <trkpt lat="36.9467500" lon="-2.4060760">
        <ele>278.2</ele>
        <time>2020-02-16T07:38:23Z</time>
      </trkpt>
      <trkpt lat="36.9467620" lon="-2.4060680">
        <ele>278.3</ele>
        <time>2020-02-16T07:38:24Z</time>
      </trkpt>
      <trkpt lat="36.9467700" lon="-2.4060630">
        <ele>278.3</ele>
        <time>2020-02-16T07:38:25Z</time>
      </trkpt>
      <trkpt lat="36.9467800" lon="-2.4060550">
        <ele>278.3</ele>
        <time>2020-02-16T07:38:26Z</time>
      </trkpt>
      <trkpt lat="36.9467940" lon="-2.4060460">
        <ele>278.4</ele>
        <time>2020-02-16T07:38:27Z</time>
      </trkpt>
      <trkpt lat="36.9468050" lon="-2.4060360">
        <ele>278.5</ele>
        <time>2020-02-16T07:38:28Z</time>
      </trkpt>
      <trkpt lat="36.9468220" lon="-2.4060250">
        <ele>278.6</ele>
        <time>2020-02-16T07:38:29Z</time>
      </trkpt>
      <trkpt lat="36.9468320" lon="-2.4060170">
        <ele>278.6</ele>
        <time>2020-02-16T07:38:30Z</time>
      </trkpt>
      <trkpt lat="36.9468450" lon="-2.4060070">
        <ele>278.7</ele>
        <time>2020-02-16T07:38:31Z</time>
      </trkpt>
      <trkpt lat="36.9468590" lon="-2.4059950">
        <ele>278.7</ele>
        <time>2020-02-16T07:38:32Z</time>
      </trkpt>
      <trkpt lat="36.9468700" lon="-2.4059860">
        <ele>278.8</ele>
        <time>2020-02-16T07:38:33Z</time>
      </trkpt>
      <trkpt lat="36.9468840" lon="-2.4059760">
        <ele>278.9</ele>
        <time>2020-02-16T07:38:34Z</time>
      </trkpt>
      <trkpt lat="36.9468970" lon="-2.4059640">
        <ele>278.9</ele>
        <time>2020-02-16T07:38:35Z</time>
      </trkpt>
      <trkpt lat="36.9469090" lon="-2.4059540">
        <ele>279.0</ele>
        <time>2020-02-16T07:38:36Z</time>
      </trkpt>
      <trkpt lat="36.9469240" lon="-2.4059400">
        <ele>279.1</ele>
        <time>2020-02-16T07:38:37Z</time>
      </trkpt>
      <trkpt lat="36.9469370" lon="-2.4059280">
        <ele>279.2</ele>
        <time>2020-02-16T07:38:38Z</time>
      </trkpt>
      <trkpt lat="36.9469500" lon="-2.4059150">
        <ele>279.3</ele>
        <time>2020-02-16T07:38:39Z</time>
      </trkpt>
      <trkpt lat="36.9469650" lon="-2.4059030">
        <ele>279.4</ele>
        <time>2020-02-16T07:38:40Z</time>
      </trkpt>
      <trkpt lat="36.9469820" lon="-2.4058890">
        <ele>279.5</ele>
        <time>2020-02-16T07:38:41Z</time>
      </trkpt>
      <trkpt lat="36.9469940" lon="-2.4058780">
        <ele>279.5</ele>
        <time>2020-02-16T07:38:42Z</time>
      </trkpt>
      <trkpt lat="36.9470120" lon="-2.4058600">
        <ele>279.7</ele>
        <time>2020-02-16T07:38:43Z</time>
      </trkpt>
      <trkpt lat="36.9470300" lon="-2.4058450">
        <ele>279.8</ele>
        <time>2020-02-16T07:38:44Z</time>
      </trkpt>
      <trkpt lat="36.9470490" lon="-2.4058300">
        <ele>279.9</ele>
        <time>2020-02-16T07:38:45Z</time>
      </trkpt>
      <trkpt lat="36.9470640" lon="-2.4058150">
        <ele>280.0</ele>
        <time>2020-02-16T07:38:46Z</time>
      </trkpt>
      <trkpt lat="36.9470790" lon="-2.4058000">
        <ele>280.1</ele>
        <time>2020-02-16T07:38:47Z</time>
      </trkpt>
      <trkpt lat="36.9470950" lon="-2.4057860">
        <ele>280.2</ele>
        <time>2020-02-16T07:38:48Z</time>
      </trkpt>
      <trkpt lat="36.9471120" lon="-2.4057700">
        <ele>280.3</ele>
        <time>2020-02-16T07:38:49Z</time>
      </trkpt>
      <trkpt lat="36.9471290" lon="-2.4057550">
        <ele>280.4</ele>
        <time>2020-02-16T07:38:50Z</time>
      </trkpt>
      <trkpt lat="36.9471450" lon="-2.4057390">
        <ele>280.5</ele>
        <time>2020-02-16T07:38:51Z</time>
      </trkpt>
      <trkpt lat="36.9471640" lon="-2.4057220">
        <ele>280.6</ele>
        <time>2020-02-16T07:38:52Z</time>
      </trkpt>
      <trkpt lat="36.9471820" lon="-2.4057050">
        <ele>280.7</ele>
        <time>2020-02-16T07:38:53Z</time>
      </trkpt>
      <trkpt lat="36.9471980" lon="-2.4056890">
        <ele>280.8</ele>
        <time>2020-02-16T07:38:54Z</time>
      </trkpt>
      <trkpt lat="36.9472150" lon="-2.4056740">
        <ele>281.0</ele>
        <time>2020-02-16T07:38:55Z</time>
      </trkpt>
      <trkpt lat="36.9472330" lon="-2.4056570">
        <ele>281.1</ele>
        <time>2020-02-16T07:38:56Z</time>
      </trkpt>
      <trkpt lat="36.9472550" lon="-2.4056400">
        <ele>281.3</ele>
        <time>2020-02-16T07:38:57Z</time>
      </trkpt>
      <trkpt lat="36.9472750" lon="-2.4056230">
        <ele>281.4</ele>
        <time>2020-02-16T07:38:58Z</time>
      </trkpt>
      <trkpt lat="36.9472970" lon="-2.4056050">
        <ele>281.5</ele>
        <time>2020-02-16T07:38:59Z</time>
      </trkpt>
      <trkpt lat="36.9473180" lon="-2.4055870">
        <ele>281.6</ele>
        <time>2020-02-16T07:39:00Z</time>
      </trkpt>
      <trkpt lat="36.9473380" lon="-2.4055720">
        <ele>281.7</ele>
        <time>2020-02-16T07:39:01Z</time>
      </trkpt>
      <trkpt lat="36.9473580" lon="-2.4055570">
        <ele>281.8</ele>
        <time>2020-02-16T07:39:02Z</time>
      </trkpt>
      <trkpt lat="36.9473780" lon="-2.4055420">
        <ele>281.9</ele>
        <time>2020-02-16T07:39:03Z</time>
      </trkpt>
      <trkpt lat="36.9473930" lon="-2.4055320">
        <ele>282.0</ele>
        <time>2020-02-16T07:39:04Z</time>
      </trkpt>
      <trkpt lat="36.9474180" lon="-2.4055130">
        <ele>282.2</ele>
        <time>2020-02-16T07:39:05Z</time>
      </trkpt>
      <trkpt lat="36.9474400" lon="-2.4054970">
        <ele>282.4</ele>
        <time>2020-02-16T07:39:06Z</time>
      </trkpt>
      <trkpt lat="36.9474620" lon="-2.4054830">
        <ele>282.6</ele>
        <time>2020-02-16T07:39:07Z</time>
      </trkpt>
      <trkpt lat="36.9474820" lon="-2.4054700">
        <ele>282.7</ele>
        <time>2020-02-16T07:39:08Z</time>
      </trkpt>
      <trkpt lat="36.9475020" lon="-2.4054570">
        <ele>282.8</ele>
        <time>2020-02-16T07:39:09Z</time>
      </trkpt>
      <trkpt lat="36.9475230" lon="-2.4054440">
        <ele>282.9</ele>
        <time>2020-02-16T07:39:10Z</time>
      </trkpt>
      <trkpt lat="36.9475450" lon="-2.4054320">
        <ele>283.1</ele>
        <time>2020-02-16T07:39:11Z</time>
      </trkpt>
      <trkpt lat="36.9475670" lon="-2.4054190">
        <ele>283.2</ele>
        <time>2020-02-16T07:39:12Z</time>
      </trkpt>
      <trkpt lat="36.9475870" lon="-2.4054070">
        <ele>283.3</ele>
        <time>2020-02-16T07:39:13Z</time>
      </trkpt>
      <trkpt lat="36.9476070" lon="-2.4053970">
        <ele>283.4</ele>
        <time>2020-02-16T07:39:14Z</time>
      </trkpt>
      <trkpt lat="36.9476230" lon="-2.4053880">
        <ele>283.5</ele>
        <time>2020-02-16T07:39:15Z</time>
      </trkpt>
      <trkpt lat="36.9476430" lon="-2.4053750">
        <ele>283.7</ele>
        <time>2020-02-16T07:39:16Z</time>
      </trkpt>
      <trkpt lat="36.9476630" lon="-2.4053640">
        <ele>283.8</ele>
        <time>2020-02-16T07:39:17Z</time>
      </trkpt>
      <trkpt lat="36.9476820" lon="-2.4053520">
        <ele>283.9</ele>
        <time>2020-02-16T07:39:18Z</time>
      </trkpt>
      <trkpt lat="36.9477020" lon="-2.4053390">
        <ele>284.0</ele>
        <time>2020-02-16T07:39:19Z</time>
      </trkpt>
      <trkpt lat="36.9477200" lon="-2.4053290">
        <ele>284.2</ele>
        <time>2020-02-16T07:39:20Z</time>
      </trkpt>
      <trkpt lat="36.9477380" lon="-2.4053150">
        <ele>284.3</ele>
        <time>2020-02-16T07:39:21Z</time>
      </trkpt>
      <trkpt lat="36.9477580" lon="-2.4053040">
        <ele>284.5</ele>
        <time>2020-02-16T07:39:22Z</time>
      </trkpt>
      <trkpt lat="36.9477780" lon="-2.4052910">
        <ele>284.7</ele>
        <time>2020-02-16T07:39:23Z</time>
      </trkpt>
      <trkpt lat="36.9477970" lon="-2.4052790">
        <ele>284.8</ele>
        <time>2020-02-16T07:39:24Z</time>
      </trkpt>
      <trkpt lat="36.9478150" lon="-2.4052680">
        <ele>284.9</ele>
        <time>2020-02-16T07:39:25Z</time>
      </trkpt>
      <trkpt lat="36.9478350" lon="-2.4052530">
        <ele>285.0</ele>
        <time>2020-02-16T07:39:26Z</time>
      </trkpt>
      <trkpt lat="36.9478520" lon="-2.4052430">
        <ele>285.1</ele>
        <time>2020-02-16T07:39:27Z</time>
      </trkpt>
      <trkpt lat="36.9478700" lon="-2.4052320">
        <ele>285.2</ele>
        <time>2020-02-16T07:39:28Z</time>
      </trkpt>
      <trkpt lat="36.9478850" lon="-2.4052200">
        <ele>285.3</ele>
        <time>2020-02-16T07:39:29Z</time>
      </trkpt>
      <trkpt lat="36.9478980" lon="-2.4052120">
        <ele>285.4</ele>
        <time>2020-02-16T07:39:30Z</time>
      </trkpt>
      <trkpt lat="36.9479150" lon="-2.4051990">
        <ele>285.4</ele>
        <time>2020-02-16T07:39:31Z</time>
      </trkpt>
      <trkpt lat="36.9479300" lon="-2.4051860">
        <ele>285.5</ele>
        <time>2020-02-16T07:39:32Z</time>
      </trkpt>
      <trkpt lat="36.9479480" lon="-2.4051720">
        <ele>285.6</ele>
        <time>2020-02-16T07:39:33Z</time>
      </trkpt>
      <trkpt lat="36.9479670" lon="-2.4051570">
        <ele>285.7</ele>
        <time>2020-02-16T07:39:34Z</time>
      </trkpt>
      <trkpt lat="36.9479830" lon="-2.4051440">
        <ele>285.8</ele>
        <time>2020-02-16T07:39:35Z</time>
      </trkpt>
      <trkpt lat="36.9480030" lon="-2.4051270">
        <ele>285.9</ele>
        <time>2020-02-16T07:39:36Z</time>
      </trkpt>
      <trkpt lat="36.9480230" lon="-2.4051120">
        <ele>286.0</ele>
        <time>2020-02-16T07:39:37Z</time>
      </trkpt>
      <trkpt lat="36.9480430" lon="-2.4050960">
        <ele>286.2</ele>
        <time>2020-02-16T07:39:38Z</time>
      </trkpt>
      <trkpt lat="36.9480670" lon="-2.4050790">
        <ele>286.3</ele>
        <time>2020-02-16T07:39:39Z</time>
      </trkpt>
      <trkpt lat="36.9480870" lon="-2.4050650">
        <ele>286.4</ele>
        <time>2020-02-16T07:39:40Z</time>
      </trkpt>
      <trkpt lat="36.9481100" lon="-2.4050480">
        <ele>286.6</ele>
        <time>2020-02-16T07:39:41Z</time>
      </trkpt>
      <trkpt lat="36.9481320" lon="-2.4050550">
        <ele>286.8</ele>
        <time>2020-02-16T07:39:42Z</time>
      </trkpt>
      <trkpt lat="36.9481530" lon="-2.4050480">
        <ele>287.0</ele>
        <time>2020-02-16T07:39:43Z</time>
      </trkpt>
      <trkpt lat="36.9481720" lon="-2.4050380">
        <ele>287.1</ele>
        <time>2020-02-16T07:39:44Z</time>
      </trkpt>
      <trkpt lat="36.9481900" lon="-2.4050240">
        <ele>287.3</ele>
        <time>2020-02-16T07:39:45Z</time>
      </trkpt>
      <trkpt lat="36.9482100" lon="-2.4050080">
        <ele>287.4</ele>
        <time>2020-02-16T07:39:46Z</time>
      </trkpt>
      <trkpt lat="36.9482320" lon="-2.4049890">
        <ele>287.6</ele>
        <time>2020-02-16T07:39:47Z</time>
      </trkpt>
      <trkpt lat="36.9482470" lon="-2.4049650">
        <ele>287.7</ele>
        <time>2020-02-16T07:39:48Z</time>
      </trkpt>
      <trkpt lat="36.9482700" lon="-2.4049480">
        <ele>287.9</ele>
        <time>2020-02-16T07:39:49Z</time>
      </trkpt>
      <trkpt lat="36.9482870" lon="-2.4049330">
        <ele>288.0</ele>
        <time>2020-02-16T07:39:50Z</time>
      </trkpt>
      <trkpt lat="36.9483020" lon="-2.4049160">
        <ele>288.1</ele>
        <time>2020-02-16T07:39:51Z</time>
      </trkpt>
      <trkpt lat="36.9483200" lon="-2.4048970">
        <ele>288.2</ele>
        <time>2020-02-16T07:39:52Z</time>
      </trkpt>
      <trkpt lat="36.9483380" lon="-2.4048780">
        <ele>288.3</ele>
        <time>2020-02-16T07:39:53Z</time>
      </trkpt>
      <trkpt lat="36.9483550" lon="-2.4048600">
        <ele>288.4</ele>
        <time>2020-02-16T07:39:54Z</time>
      </trkpt>
      <trkpt lat="36.9483700" lon="-2.4048430">
        <ele>288.5</ele>
        <time>2020-02-16T07:39:55Z</time>
      </trkpt>
      <trkpt lat="36.9483930" lon="-2.4048190">
        <ele>288.7</ele>
        <time>2020-02-16T07:39:56Z</time>
      </trkpt>
      <trkpt lat="36.9484100" lon="-2.4048030">
        <ele>288.7</ele>
        <time>2020-02-16T07:39:57Z</time>
      </trkpt>
      <trkpt lat="36.9484310" lon="-2.4047840">
        <ele>288.9</ele>
        <time>2020-02-16T07:39:58Z</time>
      </trkpt>
      <trkpt lat="36.9484550" lon="-2.4047650">
        <ele>289.0</ele>
        <time>2020-02-16T07:39:59Z</time>
      </trkpt>
      <trkpt lat="36.9484700" lon="-2.4047530">
        <ele>289.1</ele>
        <time>2020-02-16T07:40:00Z</time>
      </trkpt>
      <trkpt lat="36.9484880" lon="-2.4047390">
        <ele>289.2</ele>
        <time>2020-02-16T07:40:01Z</time>
      </trkpt>
      <trkpt lat="36.9485060" lon="-2.4047240">
        <ele>289.3</ele>
        <time>2020-02-16T07:40:02Z</time>
      </trkpt>
      <trkpt lat="36.9485230" lon="-2.4047090">
        <ele>289.4</ele>
        <time>2020-02-16T07:40:03Z</time>
      </trkpt>
      <trkpt lat="36.9485410" lon="-2.4046930">
        <ele>289.5</ele>
        <time>2020-02-16T07:40:04Z</time>
      </trkpt>
      <trkpt lat="36.9485580" lon="-2.4046790">
        <ele>289.6</ele>
        <time>2020-02-16T07:40:05Z</time>
      </trkpt>
      <trkpt lat="36.9485830" lon="-2.4046600">
        <ele>289.7</ele>
        <time>2020-02-16T07:40:06Z</time>
      </trkpt>
      <trkpt lat="36.9485950" lon="-2.4046510">
        <ele>289.8</ele>
        <time>2020-02-16T07:40:07Z</time>
      </trkpt>
      <trkpt lat="36.9486110" lon="-2.4046380">
        <ele>289.9</ele>
        <time>2020-02-16T07:40:08Z</time>
      </trkpt>
      <trkpt lat="36.9486280" lon="-2.4046240">
        <ele>290.0</ele>
        <time>2020-02-16T07:40:09Z</time>
      </trkpt>
      <trkpt lat="36.9486450" lon="-2.4046090">
        <ele>290.1</ele>
        <time>2020-02-16T07:40:10Z</time>
      </trkpt>
      <trkpt lat="36.9486610" lon="-2.4045940">
        <ele>290.2</ele>
        <time>2020-02-16T07:40:11Z</time>
      </trkpt>
      <trkpt lat="36.9486810" lon="-2.4045780">
        <ele>290.3</ele>
        <time>2020-02-16T07:40:12Z</time>
      </trkpt>
      <trkpt lat="36.9487000" lon="-2.4045630">
        <ele>290.4</ele>
        <time>2020-02-16T07:40:13Z</time>
      </trkpt>
      <trkpt lat="36.9487250" lon="-2.4045460">
        <ele>290.5</ele>
        <time>2020-02-16T07:40:14Z</time>
      </trkpt>
      <trkpt lat="36.9487400" lon="-2.4045350">
        <ele>290.6</ele>
        <time>2020-02-16T07:40:15Z</time>
      </trkpt>
      <trkpt lat="36.9487600" lon="-2.4045220">
        <ele>290.6</ele>
        <time>2020-02-16T07:40:16Z</time>
      </trkpt>
      <trkpt lat="36.9487760" lon="-2.4045110">
        <ele>290.7</ele>
        <time>2020-02-16T07:40:17Z</time>
      </trkpt>
      <trkpt lat="36.9487930" lon="-2.4044990">
        <ele>290.8</ele>
        <time>2020-02-16T07:40:18Z</time>
      </trkpt>
      <trkpt lat="36.9488110" lon="-2.4044870">
        <ele>290.9</ele>
        <time>2020-02-16T07:40:19Z</time>
      </trkpt>
      <trkpt lat="36.9488280" lon="-2.4044750">
        <ele>291.0</ele>
        <time>2020-02-16T07:40:20Z</time>
      </trkpt>
      <trkpt lat="36.9488460" lon="-2.4044630">
        <ele>291.1</ele>
        <time>2020-02-16T07:40:21Z</time>
      </trkpt>
      <trkpt lat="36.9488630" lon="-2.4044510">
        <ele>291.1</ele>
        <time>2020-02-16T07:40:22Z</time>
      </trkpt>
      <trkpt lat="36.9488830" lon="-2.4044370">
        <ele>291.2</ele>
        <time>2020-02-16T07:40:23Z</time>
      </trkpt>
      <trkpt lat="36.9489010" lon="-2.4044240">
        <ele>291.3</ele>
        <time>2020-02-16T07:40:24Z</time>
      </trkpt>
      <trkpt lat="36.9489200" lon="-2.4044110">
        <ele>291.4</ele>
        <time>2020-02-16T07:40:25Z</time>
      </trkpt>
      <trkpt lat="36.9489350" lon="-2.4043990">
        <ele>291.4</ele>
        <time>2020-02-16T07:40:26Z</time>
      </trkpt>
      <trkpt lat="36.9489530" lon="-2.4043860">
        <ele>291.5</ele>
        <time>2020-02-16T07:40:27Z</time>
      </trkpt>
      <trkpt lat="36.9489730" lon="-2.4043710">
        <ele>291.6</ele>
        <time>2020-02-16T07:40:28Z</time>
      </trkpt>
      <trkpt lat="36.9489980" lon="-2.4043510">
        <ele>291.7</ele>
        <time>2020-02-16T07:40:29Z</time>
      </trkpt>
      <trkpt lat="36.9490130" lon="-2.4043410">
        <ele>291.8</ele>
        <time>2020-02-16T07:40:30Z</time>
      </trkpt>
      <trkpt lat="36.9490330" lon="-2.4043260">
        <ele>291.9</ele>
        <time>2020-02-16T07:40:31Z</time>
      </trkpt>
      <trkpt lat="36.9490530" lon="-2.4043100">
        <ele>292.0</ele>
        <time>2020-02-16T07:40:32Z</time>
      </trkpt>
      <trkpt lat="36.9490710" lon="-2.4042960">
        <ele>292.1</ele>
        <time>2020-02-16T07:40:33Z</time>
      </trkpt>
      <trkpt lat="36.9490900" lon="-2.4042820">
        <ele>292.3</ele>
        <time>2020-02-16T07:40:34Z</time>
      </trkpt>
      <trkpt lat="36.9491080" lon="-2.4042690">
        <ele>292.4</ele>
        <time>2020-02-16T07:40:35Z</time>
      </trkpt>
      <trkpt lat="36.9491300" lon="-2.4042520">
        <ele>292.5</ele>
        <time>2020-02-16T07:40:36Z</time>
      </trkpt>
      <trkpt lat="36.9491430" lon="-2.4042420">
        <ele>292.6</ele>
        <time>2020-02-16T07:40:37Z</time>
      </trkpt>
      <trkpt lat="36.9491610" lon="-2.4042290">
        <ele>292.7</ele>
        <time>2020-02-16T07:40:38Z</time>
      </trkpt>
      <trkpt lat="36.9491800" lon="-2.4042160">
        <ele>292.8</ele>
        <time>2020-02-16T07:40:39Z</time>
      </trkpt>
      <trkpt lat="36.9492000" lon="-2.4042020">
        <ele>292.9</ele>
        <time>2020-02-16T07:40:40Z</time>
      </trkpt>
      <trkpt lat="36.9492180" lon="-2.4041870">
        <ele>293.0</ele>
        <time>2020-02-16T07:40:41Z</time>
      </trkpt>
      <trkpt lat="36.9492380" lon="-2.4041730">
        <ele>293.1</ele>
        <time>2020-02-16T07:40:42Z</time>
      </trkpt>
      <trkpt lat="36.9492600" lon="-2.4041580">
        <ele>293.3</ele>
        <time>2020-02-16T07:40:43Z</time>
      </trkpt>
      <trkpt lat="36.9492800" lon="-2.4041420">
        <ele>293.5</ele>
        <time>2020-02-16T07:40:44Z</time>
      </trkpt>
      <trkpt lat="36.9492960" lon="-2.4041300">
        <ele>293.7</ele>
        <time>2020-02-16T07:40:45Z</time>
      </trkpt>
      <trkpt lat="36.9493130" lon="-2.4041170">
        <ele>293.8</ele>
        <time>2020-02-16T07:40:46Z</time>
      </trkpt>
      <trkpt lat="36.9493330" lon="-2.4041020">
        <ele>294.0</ele>
        <time>2020-02-16T07:40:47Z</time>
      </trkpt>
      <trkpt lat="36.9493510" lon="-2.4040900">
        <ele>294.1</ele>
        <time>2020-02-16T07:40:48Z</time>
      </trkpt>
      <trkpt lat="36.9493710" lon="-2.4040740">
        <ele>294.3</ele>
        <time>2020-02-16T07:40:49Z</time>
      </trkpt>
      <trkpt lat="36.9493930" lon="-2.4040600">
        <ele>294.4</ele>
        <time>2020-02-16T07:40:50Z</time>
      </trkpt>
      <trkpt lat="36.9494110" lon="-2.4040470">
        <ele>294.5</ele>
        <time>2020-02-16T07:40:51Z</time>
      </trkpt>
      <trkpt lat="36.9494310" lon="-2.4040330">
        <ele>294.7</ele>
        <time>2020-02-16T07:40:52Z</time>
      </trkpt>
      <trkpt lat="36.9494510" lon="-2.4040190">
        <ele>294.8</ele>
        <time>2020-02-16T07:40:53Z</time>
      </trkpt>
      <trkpt lat="36.9494730" lon="-2.4040050">
        <ele>294.9</ele>
        <time>2020-02-16T07:40:54Z</time>
      </trkpt>
      <trkpt lat="36.9494930" lon="-2.4039930">
        <ele>295.1</ele>
        <time>2020-02-16T07:40:55Z</time>
      </trkpt>
      <trkpt lat="36.9495130" lon="-2.4040300">
        <ele>295.3</ele>
        <time>2020-02-16T07:40:56Z</time>
      </trkpt>
      <trkpt lat="36.9495360" lon="-2.4040300">
        <ele>295.4</ele>
        <time>2020-02-16T07:40:57Z</time>
      </trkpt>
      <trkpt lat="36.9495610" lon="-2.4040300">
        <ele>295.6</ele>
        <time>2020-02-16T07:40:58Z</time>
      </trkpt>
      <trkpt lat="36.9495830" lon="-2.4040290">
        <ele>295.8</ele>
        <time>2020-02-16T07:40:59Z</time>
      </trkpt>
      <trkpt lat="36.9496050" lon="-2.4040260">
        <ele>295.9</ele>
        <time>2020-02-16T07:41:00Z</time>
      </trkpt>
      <trkpt lat="36.9496260" lon="-2.4040270">
        <ele>296.1</ele>
        <time>2020-02-16T07:41:01Z</time>
      </trkpt>
      <trkpt lat="36.9496460" lon="-2.4040270">
        <ele>296.2</ele>
        <time>2020-02-16T07:41:02Z</time>
      </trkpt>
      <trkpt lat="36.9496660" lon="-2.4040250">
        <ele>296.4</ele>
        <time>2020-02-16T07:41:03Z</time>
      </trkpt>
      <trkpt lat="36.9496880" lon="-2.4040230">
        <ele>296.5</ele>
        <time>2020-02-16T07:41:04Z</time>
      </trkpt>
      <trkpt lat="36.9497090" lon="-2.4040200">
        <ele>296.7</ele>
        <time>2020-02-16T07:41:05Z</time>
      </trkpt>
      <trkpt lat="36.9497310" lon="-2.4040160">
        <ele>296.8</ele>
        <time>2020-02-16T07:41:06Z</time>
      </trkpt>
      <trkpt lat="36.9497540" lon="-2.4040150">
        <ele>297.0</ele>
        <time>2020-02-16T07:41:07Z</time>
      </trkpt>
      <trkpt lat="36.9497780" lon="-2.4040130">
        <ele>297.2</ele>
        <time>2020-02-16T07:41:08Z</time>
      </trkpt>
      <trkpt lat="36.9497990" lon="-2.4040100">
        <ele>297.3</ele>
        <time>2020-02-16T07:41:09Z</time>
      </trkpt>
      <trkpt lat="36.9498190" lon="-2.4040060">
        <ele>297.4</ele>
        <time>2020-02-16T07:41:10Z</time>
      </trkpt>
      <trkpt lat="36.9498360" lon="-2.4039980">
        <ele>297.5</ele>
        <time>2020-02-16T07:41:11Z</time>
      </trkpt>
      <trkpt lat="36.9498540" lon="-2.4039660">
        <ele>297.7</ele>
        <time>2020-02-16T07:41:12Z</time>
      </trkpt>
      <trkpt lat="36.9498710" lon="-2.4039510">
        <ele>297.9</ele>
        <time>2020-02-16T07:41:13Z</time>
      </trkpt>
      <trkpt lat="36.9498880" lon="-2.4039320">
        <ele>298.0</ele>
        <time>2020-02-16T07:41:14Z</time>
      </trkpt>
      <trkpt lat="36.9499090" lon="-2.4039220">
        <ele>298.2</ele>
        <time>2020-02-16T07:41:15Z</time>
      </trkpt>
      <trkpt lat="36.9499280" lon="-2.4039110">
        <ele>298.3</ele>
        <time>2020-02-16T07:41:16Z</time>
      </trkpt>
      <trkpt lat="36.9499490" lon="-2.4039010">
        <ele>298.5</ele>
        <time>2020-02-16T07:41:17Z</time>
      </trkpt>
      <trkpt lat="36.9499710" lon="-2.4038950">
        <ele>298.7</ele>
        <time>2020-02-16T07:41:18Z</time>
      </trkpt>
      <trkpt lat="36.9499910" lon="-2.4038880">
        <ele>298.8</ele>
        <time>2020-02-16T07:41:19Z</time>
      </trkpt>
      <trkpt lat="36.9500090" lon="-2.4038820">
        <ele>299.0</ele>
        <time>2020-02-16T07:41:20Z</time>
      </trkpt>
      <trkpt lat="36.9500310" lon="-2.4038750">
        <ele>299.1</ele>
        <time>2020-02-16T07:41:21Z</time>
      </trkpt>
      <trkpt lat="36.9500490" lon="-2.4038670">
        <ele>299.2</ele>
        <time>2020-02-16T07:41:22Z</time>
      </trkpt>
      <trkpt lat="36.9500690" lon="-2.4038590">
        <ele>299.4</ele>
        <time>2020-02-16T07:41:23Z</time>
      </trkpt>
      <trkpt lat="36.9500890" lon="-2.4038490">
        <ele>299.5</ele>
        <time>2020-02-16T07:41:24Z</time>
      </trkpt>
      <trkpt lat="36.9501090" lon="-2.4038410">
        <ele>299.6</ele>
        <time>2020-02-16T07:41:25Z</time>
      </trkpt>
      <trkpt lat="36.9501290" lon="-2.4038320">
        <ele>299.8</ele>
        <time>2020-02-16T07:41:26Z</time>
      </trkpt>
      <trkpt lat="36.9501490" lon="-2.4038220">
        <ele>299.9</ele>
        <time>2020-02-16T07:41:27Z</time>
      </trkpt>
      <trkpt lat="36.9501690" lon="-2.4038120">
        <ele>300.0</ele>
        <time>2020-02-16T07:41:28Z</time>
      </trkpt>
      <trkpt lat="36.9501840" lon="-2.4038030">
        <ele>300.1</ele>
        <time>2020-02-16T07:41:29Z</time>
      </trkpt>
      <trkpt lat="36.9501940" lon="-2.4037960">
        <ele>300.1</ele>
        <time>2020-02-16T07:41:30Z</time>
      </trkpt>
      <trkpt lat="36.9502060" lon="-2.4037880">
        <ele>300.2</ele>
        <time>2020-02-16T07:41:31Z</time>
      </trkpt>
      <trkpt lat="36.9502140" lon="-2.4037820">
        <ele>300.3</ele>
        <time>2020-02-16T07:41:32Z</time>
      </trkpt>
      <trkpt lat="36.9502280" lon="-2.4037730">
        <ele>300.4</ele>
        <time>2020-02-16T07:41:33Z</time>
      </trkpt>
      <trkpt lat="36.9502390" lon="-2.4037660">
        <ele>300.4</ele>
        <time>2020-02-16T07:41:34Z</time>
      </trkpt>
      <trkpt lat="36.9502480" lon="-2.4037600">
        <ele>300.5</ele>
        <time>2020-02-16T07:41:35Z</time>
      </trkpt>
      <trkpt lat="36.9502560" lon="-2.4037540">
        <ele>300.5</ele>
        <time>2020-02-16T07:41:36Z</time>
      </trkpt>
      <trkpt lat="36.9502660" lon="-2.4037480">
        <ele>300.6</ele>
        <time>2020-02-16T07:41:37Z</time>
      </trkpt>
      <trkpt lat="36.9502740" lon="-2.4037420">
        <ele>300.6</ele>
        <time>2020-02-16T07:41:38Z</time>
      </trkpt>
      <trkpt lat="36.9502840" lon="-2.4037350">
        <ele>300.7</ele>
        <time>2020-02-16T07:41:39Z</time>
      </trkpt>
      <trkpt lat="36.9502930" lon="-2.4037300">
        <ele>300.7</ele>
        <time>2020-02-16T07:41:40Z</time>
      </trkpt>
      <trkpt lat="36.9502960" lon="-2.4037260">
        <ele>300.8</ele>
        <time>2020-02-16T07:41:41Z</time>
      </trkpt>
      <trkpt lat="36.9503030" lon="-2.4037190">
        <ele>300.8</ele>
        <time>2020-02-16T07:41:42Z</time>
      </trkpt>
      <trkpt lat="36.9503130" lon="-2.4036860">
        <ele>301.0</ele>
        <time>2020-02-16T07:41:43Z</time>
      </trkpt>
      <trkpt lat="36.9503230" lon="-2.4036760">
        <ele>301.1</ele>
        <time>2020-02-16T07:41:44Z</time>
      </trkpt>
      <trkpt lat="36.9503360" lon="-2.4036650">
        <ele>301.2</ele>
        <time>2020-02-16T07:41:45Z</time>
      </trkpt>
      <trkpt lat="36.9503480" lon="-2.4036540">
        <ele>301.3</ele>
        <time>2020-02-16T07:41:46Z</time>
      </trkpt>
      <trkpt lat="36.9503610" lon="-2.4036420">
        <ele>301.4</ele>
        <time>2020-02-16T07:41:47Z</time>
      </trkpt>
      <trkpt lat="36.9503730" lon="-2.4036310">
        <ele>301.5</ele>
        <time>2020-02-16T07:41:48Z</time>
      </trkpt>
      <trkpt lat="36.9503860" lon="-2.4036180">
        <ele>301.5</ele>
        <time>2020-02-16T07:41:49Z</time>
      </trkpt>
      <trkpt lat="36.9503980" lon="-2.4036090">
        <ele>301.6</ele>
        <time>2020-02-16T07:41:50Z</time>
      </trkpt>
      <trkpt lat="36.9504130" lon="-2.4035970">
        <ele>301.7</ele>
        <time>2020-02-16T07:41:51Z</time>
      </trkpt>
      <trkpt lat="36.9504230" lon="-2.4035870">
        <ele>301.7</ele>
        <time>2020-02-16T07:41:52Z</time>
      </trkpt>
      <trkpt lat="36.9504310" lon="-2.4035780">
        <ele>301.8</ele>
        <time>2020-02-16T07:41:53Z</time>
      </trkpt>
      <trkpt lat="36.9504430" lon="-2.4035660">
        <ele>301.8</ele>
        <time>2020-02-16T07:41:54Z</time>
      </trkpt>
      <trkpt lat="36.9504540" lon="-2.4035540">
        <ele>301.9</ele>
        <time>2020-02-16T07:41:55Z</time>
      </trkpt>
      <trkpt lat="36.9504640" lon="-2.4035420">
        <ele>301.9</ele>
        <time>2020-02-16T07:41:56Z</time>
      </trkpt>
      <trkpt lat="36.9504780" lon="-2.4035280">
        <ele>302.0</ele>
        <time>2020-02-16T07:41:57Z</time>
      </trkpt>
      <trkpt lat="36.9504890" lon="-2.4035150">
        <ele>302.1</ele>
        <time>2020-02-16T07:41:58Z</time>
      </trkpt>
      <trkpt lat="36.9505030" lon="-2.4035030">
        <ele>302.2</ele>
        <time>2020-02-16T07:41:59Z</time>
      </trkpt>
      <trkpt lat="36.9505160" lon="-2.4034890">
        <ele>302.3</ele>
        <time>2020-02-16T07:42:00Z</time>
      </trkpt>
      <trkpt lat="36.9505280" lon="-2.4034780">
        <ele>302.4</ele>
        <time>2020-02-16T07:42:01Z</time>
      </trkpt>
      <trkpt lat="36.9505380" lon="-2.4034680">
        <ele>302.5</ele>
        <time>2020-02-16T07:42:02Z</time>
      </trkpt>
      <trkpt lat="36.9505490" lon="-2.4034570">
        <ele>302.6</ele>
        <time>2020-02-16T07:42:03Z</time>
      </trkpt>
      <trkpt lat="36.9505590" lon="-2.4034470">
        <ele>302.7</ele>
        <time>2020-02-16T07:42:04Z</time>
      </trkpt>
      <trkpt lat="36.9505730" lon="-2.4034340">
        <ele>302.8</ele>
        <time>2020-02-16T07:42:05Z</time>
      </trkpt>
      <trkpt lat="36.9505860" lon="-2.4034220">
        <ele>302.9</ele>
        <time>2020-02-16T07:42:06Z</time>
      </trkpt>
      <trkpt lat="36.9505980" lon="-2.4034110">
        <ele>303.0</ele>
        <time>2020-02-16T07:42:07Z</time>
      </trkpt>
      <trkpt lat="36.9506090" lon="-2.4034010">
        <ele>303.1</ele>
        <time>2020-02-16T07:42:08Z</time>
      </trkpt>
      <trkpt lat="36.9506190" lon="-2.4033910">
        <ele>303.2</ele>
        <time>2020-02-16T07:42:09Z</time>
      </trkpt>
      <trkpt lat="36.9506340" lon="-2.4033770">
        <ele>303.3</ele>
        <time>2020-02-16T07:42:10Z</time>
      </trkpt>
      <trkpt lat="36.9506460" lon="-2.4033650">
        <ele>303.4</ele>
        <time>2020-02-16T07:42:11Z</time>
      </trkpt>
      <trkpt lat="36.9506560" lon="-2.4033550">
        <ele>303.5</ele>
        <time>2020-02-16T07:42:12Z</time>
      </trkpt>
      <trkpt lat="36.9506670" lon="-2.4033440">
        <ele>303.5</ele>
        <time>2020-02-16T07:42:13Z</time>
      </trkpt>
      <trkpt lat="36.9506790" lon="-2.4033320">
        <ele>303.6</ele>
        <time>2020-02-16T07:42:14Z</time>
      </trkpt>
      <trkpt lat="36.9506920" lon="-2.4033190">
        <ele>303.7</ele>
        <time>2020-02-16T07:42:15Z</time>
      </trkpt>
      <trkpt lat="36.9507040" lon="-2.4033080">
        <ele>303.8</ele>
        <time>2020-02-16T07:42:16Z</time>
      </trkpt>
      <trkpt lat="36.9507160" lon="-2.4032980">
        <ele>303.9</ele>
        <time>2020-02-16T07:42:17Z</time>
      </trkpt>
      <trkpt lat="36.9507260" lon="-2.4032880">
        <ele>304.0</ele>
        <time>2020-02-16T07:42:18Z</time>
      </trkpt>
      <trkpt lat="36.9507370" lon="-2.4032780">
        <ele>304.1</ele>
        <time>2020-02-16T07:42:19Z</time>
      </trkpt>
      <trkpt lat="36.9507510" lon="-2.4032670">
        <ele>304.3</ele>
        <time>2020-02-16T07:42:20Z</time>
      </trkpt>
      <trkpt lat="36.9507660" lon="-2.4032550">
        <ele>304.4</ele>
        <time>2020-02-16T07:42:21Z</time>
      </trkpt>
      <trkpt lat="36.9507820" lon="-2.4032410">
        <ele>304.6</ele>
        <time>2020-02-16T07:42:22Z</time>
      </trkpt>
      <trkpt lat="36.9507970" lon="-2.4032300">
        <ele>304.7</ele>
        <time>2020-02-16T07:42:23Z</time>
      </trkpt>
      <trkpt lat="36.9508120" lon="-2.4032180">
        <ele>304.8</ele>
        <time>2020-02-16T07:42:24Z</time>
      </trkpt>
      <trkpt lat="36.9508320" lon="-2.4032040">
        <ele>305.0</ele>
        <time>2020-02-16T07:42:25Z</time>
      </trkpt>
      <trkpt lat="36.9508520" lon="-2.4031890">
        <ele>305.2</ele>
        <time>2020-02-16T07:42:26Z</time>
      </trkpt>
      <trkpt lat="36.9508760" lon="-2.4031720">
        <ele>305.4</ele>
        <time>2020-02-16T07:42:27Z</time>
      </trkpt>
      <trkpt lat="36.9508920" lon="-2.4031620">
        <ele>305.6</ele>
        <time>2020-02-16T07:42:28Z</time>
      </trkpt>
      <trkpt lat="36.9509140" lon="-2.4031460">
        <ele>305.7</ele>
        <time>2020-02-16T07:42:29Z</time>
      </trkpt>
      <trkpt lat="36.9509320" lon="-2.4031350">
        <ele>305.9</ele>
        <time>2020-02-16T07:42:30Z</time>
      </trkpt>
      <trkpt lat="36.9509510" lon="-2.4031220">
        <ele>306.0</ele>
        <time>2020-02-16T07:42:31Z</time>
      </trkpt>
      <trkpt lat="36.9509690" lon="-2.4031120">
        <ele>306.2</ele>
        <time>2020-02-16T07:42:32Z</time>
      </trkpt>
      <trkpt lat="36.9509870" lon="-2.4031010">
        <ele>306.4</ele>
        <time>2020-02-16T07:42:33Z</time>
      </trkpt>
      <trkpt lat="36.9510020" lon="-2.4030930">
        <ele>306.5</ele>
        <time>2020-02-16T07:42:34Z</time>
      </trkpt>
      <trkpt lat="36.9510170" lon="-2.4030850">
        <ele>306.6</ele>
        <time>2020-02-16T07:42:35Z</time>
      </trkpt>
      <trkpt lat="36.9510340" lon="-2.4030750">
        <ele>306.8</ele>
        <time>2020-02-16T07:42:36Z</time>
      </trkpt>
      <trkpt lat="36.9510490" lon="-2.4030670">
        <ele>306.9</ele>
        <time>2020-02-16T07:42:37Z</time>
      </trkpt>
      <trkpt lat="36.9510640" lon="-2.4030580">
        <ele>307.1</ele>
        <time>2020-02-16T07:42:38Z</time>
      </trkpt>
      <trkpt lat="36.9510770" lon="-2.4030480">
        <ele>307.2</ele>
        <time>2020-02-16T07:42:39Z</time>
      </trkpt>
      <trkpt lat="36.9510920" lon="-2.4030390">
        <ele>307.3</ele>
        <time>2020-02-16T07:42:40Z</time>
      </trkpt>
      <trkpt lat="36.9511120" lon="-2.4030240">
        <ele>307.4</ele>
        <time>2020-02-16T07:42:41Z</time>
      </trkpt>
      <trkpt lat="36.9511340" lon="-2.4030100">
        <ele>307.6</ele>
        <time>2020-02-16T07:42:42Z</time>
      </trkpt>
      <trkpt lat="36.9511440" lon="-2.4030030">
        <ele>307.7</ele>
        <time>2020-02-16T07:42:43Z</time>
      </trkpt>
      <trkpt lat="36.9511710" lon="-2.4029840">
        <ele>307.9</ele>
        <time>2020-02-16T07:42:44Z</time>
      </trkpt>
      <trkpt lat="36.9511920" lon="-2.4029690">
        <ele>308.0</ele>
        <time>2020-02-16T07:42:45Z</time>
      </trkpt>
      <trkpt lat="36.9512110" lon="-2.4029560">
        <ele>308.1</ele>
        <time>2020-02-16T07:42:46Z</time>
      </trkpt>
      <trkpt lat="36.9512290" lon="-2.4029440">
        <ele>308.2</ele>
        <time>2020-02-16T07:42:47Z</time>
      </trkpt>
      <trkpt lat="36.9512440" lon="-2.4029320">
        <ele>308.3</ele>
        <time>2020-02-16T07:42:48Z</time>
      </trkpt>
      <trkpt lat="36.9512610" lon="-2.4029190">
        <ele>308.4</ele>
        <time>2020-02-16T07:42:49Z</time>
      </trkpt>
      <trkpt lat="36.9512810" lon="-2.4029050">
        <ele>308.6</ele>
        <time>2020-02-16T07:42:50Z</time>
      </trkpt>
      <trkpt lat="36.9512970" lon="-2.4028920">
        <ele>308.7</ele>
        <time>2020-02-16T07:42:51Z</time>
      </trkpt>
      <trkpt lat="36.9513160" lon="-2.4028780">
        <ele>308.8</ele>
        <time>2020-02-16T07:42:52Z</time>
      </trkpt>
      <trkpt lat="36.9513290" lon="-2.4028680">
        <ele>308.9</ele>
        <time>2020-02-16T07:42:53Z</time>
      </trkpt>
      <trkpt lat="36.9513510" lon="-2.4028510">
        <ele>309.1</ele>
        <time>2020-02-16T07:42:54Z</time>
      </trkpt>
      <trkpt lat="36.9513670" lon="-2.4028390">
        <ele>309.2</ele>
        <time>2020-02-16T07:42:55Z</time>
      </trkpt>
      <trkpt lat="36.9513860" lon="-2.4028250">
        <ele>309.4</ele>
        <time>2020-02-16T07:42:56Z</time>
      </trkpt>
      <trkpt lat="36.9514060" lon="-2.4028090">
        <ele>309.5</ele>
        <time>2020-02-16T07:42:57Z</time>
      </trkpt>
      <trkpt lat="36.9514270" lon="-2.4027930">
        <ele>309.8</ele>
        <time>2020-02-16T07:42:58Z</time>
      </trkpt>
      <trkpt lat="36.9514510" lon="-2.4027760">
        <ele>310.0</ele>
        <time>2020-02-16T07:42:59Z</time>
      </trkpt>
      <trkpt lat="36.9514670" lon="-2.4027640">
        <ele>310.2</ele>
        <time>2020-02-16T07:43:00Z</time>
      </trkpt>
      <trkpt lat="36.9514870" lon="-2.4027490">
        <ele>310.4</ele>
        <time>2020-02-16T07:43:01Z</time>
      </trkpt>
      <trkpt lat="36.9515070" lon="-2.4027350">
        <ele>310.6</ele>
        <time>2020-02-16T07:43:02Z</time>
      </trkpt>
      <trkpt lat="36.9515260" lon="-2.4027220">
        <ele>310.8</ele>
        <time>2020-02-16T07:43:03Z</time>
      </trkpt>
      <trkpt lat="36.9515460" lon="-2.4027070">
        <ele>311.0</ele>
        <time>2020-02-16T07:43:04Z</time>
      </trkpt>
      <trkpt lat="36.9515640" lon="-2.4026920">
        <ele>311.2</ele>
        <time>2020-02-16T07:43:05Z</time>
      </trkpt>
      <trkpt lat="36.9515810" lon="-2.4026800">
        <ele>311.4</ele>
        <time>2020-02-16T07:43:06Z</time>
      </trkpt>
      <trkpt lat="36.9515960" lon="-2.4026670">
        <ele>311.5</ele>
        <time>2020-02-16T07:43:07Z</time>
      </trkpt>
      <trkpt lat="36.9516140" lon="-2.4026530">
        <ele>311.7</ele>
        <time>2020-02-16T07:43:08Z</time>
      </trkpt>
      <trkpt lat="36.9516270" lon="-2.4026410">
        <ele>311.9</ele>
        <time>2020-02-16T07:43:09Z</time>
      </trkpt>
      <trkpt lat="36.9516410" lon="-2.4026270">
        <ele>312.1</ele>
        <time>2020-02-16T07:43:10Z</time>
      </trkpt>
      <trkpt lat="36.9516550" lon="-2.4026140">
        <ele>312.2</ele>
        <time>2020-02-16T07:43:11Z</time>
      </trkpt>
      <trkpt lat="36.9516690" lon="-2.4025660">
        <ele>313.4</ele>
        <time>2020-02-16T07:43:12Z</time>
      </trkpt>
      <trkpt lat="36.9516800" lon="-2.4025430">
        <ele>313.6</ele>
        <time>2020-02-16T07:43:13Z</time>
      </trkpt>
      <trkpt lat="36.9516920" lon="-2.4025180">
        <ele>313.9</ele>
        <time>2020-02-16T07:43:14Z</time>
      </trkpt>
      <trkpt lat="36.9517030" lon="-2.4024930">
        <ele>314.1</ele>
        <time>2020-02-16T07:43:15Z</time>
      </trkpt>
      <trkpt lat="36.9517160" lon="-2.4024680">
        <ele>314.4</ele>
        <time>2020-02-16T07:43:16Z</time>
      </trkpt>
      <trkpt lat="36.9517280" lon="-2.4024430">
        <ele>314.6</ele>
        <time>2020-02-16T07:43:17Z</time>
      </trkpt>
      <trkpt lat="36.9517380" lon="-2.4024190">
        <ele>314.9</ele>
        <time>2020-02-16T07:43:18Z</time>
      </trkpt>
      <trkpt lat="36.9517500" lon="-2.4023960">
        <ele>315.1</ele>
        <time>2020-02-16T07:43:19Z</time>
      </trkpt>
      <trkpt lat="36.9517620" lon="-2.4023710">
        <ele>315.3</ele>
        <time>2020-02-16T07:43:20Z</time>
      </trkpt>
      <trkpt lat="36.9517750" lon="-2.4023480">
        <ele>315.6</ele>
        <time>2020-02-16T07:43:21Z</time>
      </trkpt>
      <trkpt lat="36.9517890" lon="-2.4023230">
        <ele>315.8</ele>
        <time>2020-02-16T07:43:22Z</time>
      </trkpt>
      <trkpt lat="36.9518040" lon="-2.4022980">
        <ele>316.1</ele>
        <time>2020-02-16T07:43:23Z</time>
      </trkpt>
      <trkpt lat="36.9518190" lon="-2.4022740">
        <ele>316.2</ele>
        <time>2020-02-16T07:43:24Z</time>
      </trkpt>
      <trkpt lat="36.9518320" lon="-2.4022490">
        <ele>316.4</ele>
        <time>2020-02-16T07:43:25Z</time>
      </trkpt>
      <trkpt lat="36.9518450" lon="-2.4022240">
        <ele>316.5</ele>
        <time>2020-02-16T07:43:26Z</time>
      </trkpt>
      <trkpt lat="36.9518590" lon="-2.4022000">
        <ele>316.7</ele>
        <time>2020-02-16T07:43:27Z</time>
      </trkpt>
      <trkpt lat="36.9518720" lon="-2.4021750">
        <ele>316.8</ele>
        <time>2020-02-16T07:43:28Z</time>
      </trkpt>
      <trkpt lat="36.9518830" lon="-2.4021530">
        <ele>317.0</ele>
        <time>2020-02-16T07:43:29Z</time>
      </trkpt>
      <trkpt lat="36.9518910" lon="-2.4021380">
        <ele>317.0</ele>
        <time>2020-02-16T07:43:30Z</time>
      </trkpt>
      <trkpt lat="36.9519040" lon="-2.4021160">
        <ele>317.2</ele>
        <time>2020-02-16T07:43:31Z</time>
      </trkpt>
      <trkpt lat="36.9519150" lon="-2.4020960">
        <ele>317.3</ele>
        <time>2020-02-16T07:43:32Z</time>
      </trkpt>
      <trkpt lat="36.9519280" lon="-2.4020730">
        <ele>317.4</ele>
        <time>2020-02-16T07:43:33Z</time>
      </trkpt>
      <trkpt lat="36.9519380" lon="-2.4020560">
        <ele>317.5</ele>
        <time>2020-02-16T07:43:34Z</time>
      </trkpt>
      <trkpt lat="36.9519520" lon="-2.4020310">
        <ele>317.7</ele>
        <time>2020-02-16T07:43:35Z</time>
      </trkpt>
      <trkpt lat="36.9519650" lon="-2.4020080">
        <ele>317.9</ele>
        <time>2020-02-16T07:43:36Z</time>
      </trkpt>
      <trkpt lat="36.9519740" lon="-2.4019900">
        <ele>318.0</ele>
        <time>2020-02-16T07:43:37Z</time>
      </trkpt>
      <trkpt lat="36.9519860" lon="-2.4019650">
        <ele>318.2</ele>
        <time>2020-02-16T07:43:38Z</time>
      </trkpt>
      <trkpt lat="36.9519980" lon="-2.4019430">
        <ele>318.4</ele>
        <time>2020-02-16T07:43:39Z</time>
      </trkpt>
      <trkpt lat="36.9520080" lon="-2.4019250">
        <ele>318.5</ele>
        <time>2020-02-16T07:43:40Z</time>
      </trkpt>
      <trkpt lat="36.9520220" lon="-2.4018980">
        <ele>318.7</ele>
        <time>2020-02-16T07:43:41Z</time>
      </trkpt>
      <trkpt lat="36.9520310" lon="-2.4018780">
        <ele>318.9</ele>
        <time>2020-02-16T07:43:42Z</time>
      </trkpt>
      <trkpt lat="36.9520420" lon="-2.4018550">
        <ele>319.0</ele>
        <time>2020-02-16T07:43:43Z</time>
      </trkpt>
      <trkpt lat="36.9520520" lon="-2.4018310">
        <ele>319.2</ele>
        <time>2020-02-16T07:43:44Z</time>
      </trkpt>
      <trkpt lat="36.9520630" lon="-2.4018100">
        <ele>319.4</ele>
        <time>2020-02-16T07:43:45Z</time>
      </trkpt>
      <trkpt lat="36.9520740" lon="-2.4017860">
        <ele>319.6</ele>
        <time>2020-02-16T07:43:46Z</time>
      </trkpt>
      <trkpt lat="36.9520830" lon="-2.4017650">
        <ele>319.7</ele>
        <time>2020-02-16T07:43:47Z</time>
      </trkpt>
      <trkpt lat="36.9520920" lon="-2.4017430">
        <ele>319.9</ele>
        <time>2020-02-16T07:43:48Z</time>
      </trkpt>
      <trkpt lat="36.9521010" lon="-2.4017210">
        <ele>320.0</ele>
        <time>2020-02-16T07:43:49Z</time>
      </trkpt>
      <trkpt lat="36.9521110" lon="-2.4017010">
        <ele>320.2</ele>
        <time>2020-02-16T07:43:50Z</time>
      </trkpt>
      <trkpt lat="36.9521210" lon="-2.4016760">
        <ele>320.4</ele>
        <time>2020-02-16T07:43:51Z</time>
      </trkpt>
      <trkpt lat="36.9521290" lon="-2.4016560">
        <ele>320.5</ele>
        <time>2020-02-16T07:43:52Z</time>
      </trkpt>
      <trkpt lat="36.9521390" lon="-2.4016360">
        <ele>320.6</ele>
        <time>2020-02-16T07:43:53Z</time>
      </trkpt>
      <trkpt lat="36.9521480" lon="-2.4016150">
        <ele>320.7</ele>
        <time>2020-02-16T07:43:54Z</time>
      </trkpt>
      <trkpt lat="36.9521580" lon="-2.4015930">
        <ele>320.9</ele>
        <time>2020-02-16T07:43:55Z</time>
      </trkpt>
      <trkpt lat="36.9521710" lon="-2.4015630">
        <ele>321.0</ele>
        <time>2020-02-16T07:43:56Z</time>
      </trkpt>
      <trkpt lat="36.9521810" lon="-2.4015360">
        <ele>321.2</ele>
        <time>2020-02-16T07:43:57Z</time>
      </trkpt>
      <trkpt lat="36.9521940" lon="-2.4015100">
        <ele>321.3</ele>
        <time>2020-02-16T07:43:58Z</time>
      </trkpt>
      <trkpt lat="36.9522020" lon="-2.4014860">
        <ele>321.5</ele>
        <time>2020-02-16T07:43:59Z</time>
      </trkpt>
      <trkpt lat="36.9522090" lon="-2.4014660">
        <ele>321.6</ele>
        <time>2020-02-16T07:44:00Z</time>
      </trkpt>
      <trkpt lat="36.9522170" lon="-2.4014430">
        <ele>321.7</ele>
        <time>2020-02-16T07:44:01Z</time>
      </trkpt>
      <trkpt lat="36.9522240" lon="-2.4014200">
        <ele>321.8</ele>
        <time>2020-02-16T07:44:02Z</time>
      </trkpt>
      <trkpt lat="36.9522320" lon="-2.4013960">
        <ele>322.0</ele>
        <time>2020-02-16T07:44:03Z</time>
      </trkpt>
      <trkpt lat="36.9522350" lon="-2.4013800">
        <ele>322.1</ele>
        <time>2020-02-16T07:44:04Z</time>
      </trkpt>
      <trkpt lat="36.9522450" lon="-2.4013530">
        <ele>322.3</ele>
        <time>2020-02-16T07:44:05Z</time>
      </trkpt>
      <trkpt lat="36.9522510" lon="-2.4013310">
        <ele>322.4</ele>
        <time>2020-02-16T07:44:06Z</time>
      </trkpt>
      <trkpt lat="36.9522590" lon="-2.4013080">
        <ele>322.6</ele>
        <time>2020-02-16T07:44:07Z</time>
      </trkpt>
      <trkpt lat="36.9522640" lon="-2.4012860">
        <ele>322.7</ele>
        <time>2020-02-16T07:44:08Z</time>
      </trkpt>
      <trkpt lat="36.9522730" lon="-2.4012600">
        <ele>322.9</ele>
        <time>2020-02-16T07:44:09Z</time>
      </trkpt>
      <trkpt lat="36.9522800" lon="-2.4012350">
        <ele>323.0</ele>
        <time>2020-02-16T07:44:10Z</time>
      </trkpt>
      <trkpt lat="36.9522850" lon="-2.4012130">
        <ele>323.1</ele>
        <time>2020-02-16T07:44:11Z</time>
      </trkpt>
      <trkpt lat="36.9522920" lon="-2.4011910">
        <ele>323.2</ele>
        <time>2020-02-16T07:44:12Z</time>
      </trkpt>
      <trkpt lat="36.9522980" lon="-2.4011660">
        <ele>323.3</ele>
        <time>2020-02-16T07:44:13Z</time>
      </trkpt>
      <trkpt lat="36.9523030" lon="-2.4011410">
        <ele>323.4</ele>
        <time>2020-02-16T07:44:14Z</time>
      </trkpt>
      <trkpt lat="36.9523080" lon="-2.4011230">
        <ele>323.5</ele>
        <time>2020-02-16T07:44:15Z</time>
      </trkpt>
      <trkpt lat="36.9523100" lon="-2.4011100">
        <ele>323.5</ele>
        <time>2020-02-16T07:44:16Z</time>
      </trkpt>
      <trkpt lat="36.9523170" lon="-2.4010860">
        <ele>323.6</ele>
        <time>2020-02-16T07:44:17Z</time>
      </trkpt>
      <trkpt lat="36.9523220" lon="-2.4010680">
        <ele>323.7</ele>
        <time>2020-02-16T07:44:18Z</time>
      </trkpt>
      <trkpt lat="36.9523280" lon="-2.4010480">
        <ele>323.8</ele>
        <time>2020-02-16T07:44:19Z</time>
      </trkpt>
      <trkpt lat="36.9523330" lon="-2.4010310">
        <ele>323.9</ele>
        <time>2020-02-16T07:44:20Z</time>
      </trkpt>
      <trkpt lat="36.9523410" lon="-2.4010110">
        <ele>324.0</ele>
        <time>2020-02-16T07:44:21Z</time>
      </trkpt>
      <trkpt lat="36.9523470" lon="-2.4009900">
        <ele>324.1</ele>
        <time>2020-02-16T07:44:22Z</time>
      </trkpt>
      <trkpt lat="36.9523540" lon="-2.4009700">
        <ele>324.2</ele>
        <time>2020-02-16T07:44:23Z</time>
      </trkpt>
      <trkpt lat="36.9523610" lon="-2.4009480">
        <ele>324.3</ele>
        <time>2020-02-16T07:44:24Z</time>
      </trkpt>
      <trkpt lat="36.9523710" lon="-2.4009210">
        <ele>324.4</ele>
        <time>2020-02-16T07:44:25Z</time>
      </trkpt>
      <trkpt lat="36.9523770" lon="-2.4008980">
        <ele>324.5</ele>
        <time>2020-02-16T07:44:26Z</time>
      </trkpt>
      <trkpt lat="36.9523860" lon="-2.4008730">
        <ele>324.6</ele>
        <time>2020-02-16T07:44:27Z</time>
      </trkpt>
      <trkpt lat="36.9523930" lon="-2.4008500">
        <ele>324.7</ele>
        <time>2020-02-16T07:44:28Z</time>
      </trkpt>
      <trkpt lat="36.9524010" lon="-2.4008280">
        <ele>324.9</ele>
        <time>2020-02-16T07:44:29Z</time>
      </trkpt>
      <trkpt lat="36.9524080" lon="-2.4008080">
        <ele>325.0</ele>
        <time>2020-02-16T07:44:30Z</time>
      </trkpt>
      <trkpt lat="36.9524150" lon="-2.4007900">
        <ele>325.2</ele>
        <time>2020-02-16T07:44:31Z</time>
      </trkpt>
      <trkpt lat="36.9524220" lon="-2.4007700">
        <ele>325.3</ele>
        <time>2020-02-16T07:44:32Z</time>
      </trkpt>
      <trkpt lat="36.9524280" lon="-2.4007480">
        <ele>325.5</ele>
        <time>2020-02-16T07:44:33Z</time>
      </trkpt>
      <trkpt lat="36.9524350" lon="-2.4007300">
        <ele>325.6</ele>
        <time>2020-02-16T07:44:34Z</time>
      </trkpt>
      <trkpt lat="36.9524440" lon="-2.4007020">
        <ele>325.7</ele>
        <time>2020-02-16T07:44:35Z</time>
      </trkpt>
      <trkpt lat="36.9524520" lon="-2.4006820">
        <ele>325.8</ele>
        <time>2020-02-16T07:44:36Z</time>
      </trkpt>
      <trkpt lat="36.9524570" lon="-2.4006650">
        <ele>325.9</ele>
        <time>2020-02-16T07:44:37Z</time>
      </trkpt>
      <trkpt lat="36.9524650" lon="-2.4006370">
        <ele>326.0</ele>
        <time>2020-02-16T07:44:38Z</time>
      </trkpt>
      <trkpt lat="36.9524730" lon="-2.4006150">
        <ele>326.1</ele>
        <time>2020-02-16T07:44:39Z</time>
      </trkpt>
      <trkpt lat="36.9524800" lon="-2.4005930">
        <ele>326.2</ele>
        <time>2020-02-16T07:44:40Z</time>
      </trkpt>
      <trkpt lat="36.9524900" lon="-2.4005570">
        <ele>326.4</ele>
        <time>2020-02-16T07:44:41Z</time>
      </trkpt>
      <trkpt lat="36.9524980" lon="-2.4005320">
        <ele>326.5</ele>
        <time>2020-02-16T07:44:42Z</time>
      </trkpt>
      <trkpt lat="36.9525040" lon="-2.4005080">
        <ele>326.6</ele>
        <time>2020-02-16T07:44:43Z</time>
      </trkpt>
      <trkpt lat="36.9525110" lon="-2.4004850">
        <ele>326.7</ele>
        <time>2020-02-16T07:44:44Z</time>
      </trkpt>
      <trkpt lat="36.9525150" lon="-2.4004650">
        <ele>326.8</ele>
        <time>2020-02-16T07:44:45Z</time>
      </trkpt>
      <trkpt lat="36.9525200" lon="-2.4004420">
        <ele>326.9</ele>
        <time>2020-02-16T07:44:46Z</time>
      </trkpt>
      <trkpt lat="36.9525280" lon="-2.4004080">
        <ele>327.1</ele>
        <time>2020-02-16T07:44:47Z</time>
      </trkpt>
      <trkpt lat="36.9525320" lon="-2.4003850">
        <ele>327.3</ele>
        <time>2020-02-16T07:44:48Z</time>
      </trkpt>
      <trkpt lat="36.9525330" lon="-2.4003650">
        <ele>327.5</ele>
        <time>2020-02-16T07:44:49Z</time>
      </trkpt>
      <trkpt lat="36.9525390" lon="-2.4003380">
        <ele>327.7</ele>
        <time>2020-02-16T07:44:50Z</time>
      </trkpt>
      <trkpt lat="36.9525420" lon="-2.4003080">
        <ele>328.0</ele>
        <time>2020-02-16T07:44:51Z</time>
      </trkpt>
      <trkpt lat="36.9525400" lon="-2.4002900">
        <ele>328.2</ele>
        <time>2020-02-16T07:44:52Z</time>
      </trkpt>
      <trkpt lat="36.9525440" lon="-2.4002600">
        <ele>328.4</ele>
        <time>2020-02-16T07:44:53Z</time>
      </trkpt>
      <trkpt lat="36.9525440" lon="-2.4002400">
        <ele>328.6</ele>
        <time>2020-02-16T07:44:54Z</time>
      </trkpt>
      <trkpt lat="36.9525450" lon="-2.4002100">
        <ele>328.9</ele>
        <time>2020-02-16T07:44:55Z</time>
      </trkpt>
      <trkpt lat="36.9525460" lon="-2.4001870">
        <ele>329.0</ele>
        <time>2020-02-16T07:44:56Z</time>
      </trkpt>
      <trkpt lat="36.9525460" lon="-2.4001670">
        <ele>329.2</ele>
        <time>2020-02-16T07:44:57Z</time>
      </trkpt>
      <trkpt lat="36.9525100" lon="-2.4001500">
        <ele>329.5</ele>
        <time>2020-02-16T07:44:58Z</time>
      </trkpt>
      <trkpt lat="36.9525180" lon="-2.4001280">
        <ele>329.7</ele>
        <time>2020-02-16T07:44:59Z</time>
      </trkpt>
      <trkpt lat="36.9525280" lon="-2.4001020">
        <ele>329.9</ele>
        <time>2020-02-16T07:45:00Z</time>
      </trkpt>
      <trkpt lat="36.9525370" lon="-2.4000830">
        <ele>330.0</ele>
        <time>2020-02-16T07:45:01Z</time>
      </trkpt>
      <trkpt lat="36.9525460" lon="-2.4000720">
        <ele>330.2</ele>
        <time>2020-02-16T07:45:02Z</time>
      </trkpt>
      <trkpt lat="36.9525600" lon="-2.4000570">
        <ele>330.4</ele>
        <time>2020-02-16T07:45:03Z</time>
      </trkpt>
      <trkpt lat="36.9525830" lon="-2.4000480">
        <ele>330.7</ele>
        <time>2020-02-16T07:45:04Z</time>
      </trkpt>
      <trkpt lat="36.9525970" lon="-2.4000370">
        <ele>330.9</ele>
        <time>2020-02-16T07:45:05Z</time>
      </trkpt>
      <trkpt lat="36.9526050" lon="-2.4000180">
        <ele>331.1</ele>
        <time>2020-02-16T07:45:06Z</time>
      </trkpt>
      <trkpt lat="36.9526100" lon="-2.3999970">
        <ele>331.3</ele>
        <time>2020-02-16T07:45:07Z</time>
      </trkpt>
      <trkpt lat="36.9526110" lon="-2.3999730">
        <ele>331.5</ele>
        <time>2020-02-16T07:45:08Z</time>
      </trkpt>
      <trkpt lat="36.9526150" lon="-2.3999520">
        <ele>331.7</ele>
        <time>2020-02-16T07:45:09Z</time>
      </trkpt>
      <trkpt lat="36.9526170" lon="-2.3999350">
        <ele>331.9</ele>
        <time>2020-02-16T07:45:10Z</time>
      </trkpt>
      <trkpt lat="36.9526220" lon="-2.3999170">
        <ele>332.1</ele>
        <time>2020-02-16T07:45:11Z</time>
      </trkpt>
      <trkpt lat="36.9526300" lon="-2.3998950">
        <ele>332.3</ele>
        <time>2020-02-16T07:45:12Z</time>
      </trkpt>
      <trkpt lat="36.9526370" lon="-2.3998820">
        <ele>332.4</ele>
        <time>2020-02-16T07:45:13Z</time>
      </trkpt>
      <trkpt lat="36.9526510" lon="-2.3998630">
        <ele>332.6</ele>
        <time>2020-02-16T07:45:14Z</time>
      </trkpt>
      <trkpt lat="36.9526670" lon="-2.3998500">
        <ele>332.7</ele>
        <time>2020-02-16T07:45:15Z</time>
      </trkpt>
      <trkpt lat="36.9526830" lon="-2.3998370">
        <ele>332.9</ele>
        <time>2020-02-16T07:45:16Z</time>
      </trkpt>
      <trkpt lat="36.9527050" lon="-2.3998200">
        <ele>333.0</ele>
        <time>2020-02-16T07:45:17Z</time>
      </trkpt>
      <trkpt lat="36.9527200" lon="-2.3998050">
        <ele>333.2</ele>
        <time>2020-02-16T07:45:18Z</time>
      </trkpt>
      <trkpt lat="36.9527350" lon="-2.3997930">
        <ele>333.3</ele>
        <time>2020-02-16T07:45:19Z</time>
      </trkpt>
      <trkpt lat="36.9527500" lon="-2.3997830">
        <ele>333.4</ele>
        <time>2020-02-16T07:45:20Z</time>
      </trkpt>
      <trkpt lat="36.9527650" lon="-2.3997760">
        <ele>333.6</ele>
        <time>2020-02-16T07:45:21Z</time>
      </trkpt>
      <trkpt lat="36.9527820" lon="-2.3997670">
        <ele>333.7</ele>
        <time>2020-02-16T07:45:22Z</time>
      </trkpt>
      <trkpt lat="36.9527980" lon="-2.3997580">
        <ele>333.8</ele>
        <time>2020-02-16T07:45:23Z</time>
      </trkpt>
      <trkpt lat="36.9528100" lon="-2.3997510">
        <ele>333.9</ele>
        <time>2020-02-16T07:45:24Z</time>
      </trkpt>
      <trkpt lat="36.9528280" lon="-2.3997380">
        <ele>334.1</ele>
        <time>2020-02-16T07:45:25Z</time>
      </trkpt>
      <trkpt lat="36.9528420" lon="-2.3997290">
        <ele>334.2</ele>
        <time>2020-02-16T07:45:26Z</time>
      </trkpt>
      <trkpt lat="36.9528620" lon="-2.3997180">
        <ele>334.3</ele>
        <time>2020-02-16T07:45:27Z</time>
      </trkpt>
      <trkpt lat="36.9528750" lon="-2.3997100">
        <ele>334.4</ele>
        <time>2020-02-16T07:45:28Z</time>
      </trkpt>
      <trkpt lat="36.9528870" lon="-2.3997020">
        <ele>334.5</ele>
        <time>2020-02-16T07:45:29Z</time>
      </trkpt>
      <trkpt lat="36.9528950" lon="-2.3996980">
        <ele>334.6</ele>
        <time>2020-02-16T07:45:30Z</time>
      </trkpt>
      <trkpt lat="36.9529080" lon="-2.3996900">
        <ele>334.7</ele>
        <time>2020-02-16T07:45:31Z</time>
      </trkpt>
      <trkpt lat="36.9529230" lon="-2.3996820">
        <ele>334.8</ele>
        <time>2020-02-16T07:45:32Z</time>
      </trkpt>
      <trkpt lat="36.9529400" lon="-2.3996740">
        <ele>334.9</ele>
        <time>2020-02-16T07:45:33Z</time>
      </trkpt>
      <trkpt lat="36.9529520" lon="-2.3996680">
        <ele>335.0</ele>
        <time>2020-02-16T07:45:34Z</time>
      </trkpt>
      <trkpt lat="36.9529630" lon="-2.3996620">
        <ele>335.1</ele>
        <time>2020-02-16T07:45:35Z</time>
      </trkpt>
      <trkpt lat="36.9529770" lon="-2.3996540">
        <ele>335.2</ele>
        <time>2020-02-16T07:45:36Z</time>
      </trkpt>
      <trkpt lat="36.9529920" lon="-2.3996460">
        <ele>335.4</ele>
        <time>2020-02-16T07:45:37Z</time>
      </trkpt>
      <trkpt lat="36.9530080" lon="-2.3996370">
        <ele>335.6</ele>
        <time>2020-02-16T07:45:38Z</time>
      </trkpt>
      <trkpt lat="36.9530220" lon="-2.3996300">
        <ele>335.7</ele>
        <time>2020-02-16T07:45:39Z</time>
      </trkpt>
      <trkpt lat="36.9530380" lon="-2.3996220">
        <ele>335.9</ele>
        <time>2020-02-16T07:45:40Z</time>
      </trkpt>
      <trkpt lat="36.9530510" lon="-2.3996140">
        <ele>336.0</ele>
        <time>2020-02-16T07:45:41Z</time>
      </trkpt>
      <trkpt lat="36.9530650" lon="-2.3996070">
        <ele>336.2</ele>
        <time>2020-02-16T07:45:42Z</time>
      </trkpt>
      <trkpt lat="36.9530810" lon="-2.3995980">
        <ele>336.3</ele>
        <time>2020-02-16T07:45:43Z</time>
      </trkpt>
      <trkpt lat="36.9530960" lon="-2.3995900">
        <ele>336.4</ele>
        <time>2020-02-16T07:45:44Z</time>
      </trkpt>
      <trkpt lat="36.9531110" lon="-2.3995810">
        <ele>336.6</ele>
        <time>2020-02-16T07:45:45Z</time>
      </trkpt>
      <trkpt lat="36.9531260" lon="-2.3995730">
        <ele>336.7</ele>
        <time>2020-02-16T07:45:46Z</time>
      </trkpt>
      <trkpt lat="36.9531430" lon="-2.3995620">
        <ele>336.8</ele>
        <time>2020-02-16T07:45:47Z</time>
      </trkpt>
      <trkpt lat="36.9531600" lon="-2.3995520">
        <ele>336.9</ele>
        <time>2020-02-16T07:45:48Z</time>
      </trkpt>
      <trkpt lat="36.9531760" lon="-2.3995420">
        <ele>337.0</ele>
        <time>2020-02-16T07:45:49Z</time>
      </trkpt>
      <trkpt lat="36.9531910" lon="-2.3995310">
        <ele>337.1</ele>
        <time>2020-02-16T07:45:50Z</time>
      </trkpt>
      <trkpt lat="36.9532030" lon="-2.3995220">
        <ele>337.2</ele>
        <time>2020-02-16T07:45:51Z</time>
      </trkpt>
      <trkpt lat="36.9532150" lon="-2.3995130">
        <ele>337.2</ele>
        <time>2020-02-16T07:45:52Z</time>
      </trkpt>
      <trkpt lat="36.9532310" lon="-2.3995000">
        <ele>337.3</ele>
        <time>2020-02-16T07:45:53Z</time>
      </trkpt>
      <trkpt lat="36.9532450" lon="-2.3994880">
        <ele>337.4</ele>
        <time>2020-02-16T07:45:54Z</time>
      </trkpt>
      <trkpt lat="36.9532560" lon="-2.3994770">
        <ele>337.5</ele>
        <time>2020-02-16T07:45:55Z</time>
      </trkpt>
      <trkpt lat="36.9532710" lon="-2.3994650">
        <ele>337.6</ele>
        <time>2020-02-16T07:45:56Z</time>
      </trkpt>
      <trkpt lat="36.9532860" lon="-2.3994510">
        <ele>337.7</ele>
        <time>2020-02-16T07:45:57Z</time>
      </trkpt>
      <trkpt lat="36.9532980" lon="-2.3994400">
        <ele>337.8</ele>
        <time>2020-02-16T07:45:58Z</time>
      </trkpt>
      <trkpt lat="36.9533150" lon="-2.3994260">
        <ele>337.9</ele>
        <time>2020-02-16T07:45:59Z</time>
      </trkpt>
      <trkpt lat="36.9533300" lon="-2.3994120">
        <ele>338.0</ele>
        <time>2020-02-16T07:46:00Z</time>
      </trkpt>
      <trkpt lat="36.9533460" lon="-2.3993970">
        <ele>338.1</ele>
        <time>2020-02-16T07:46:01Z</time>
      </trkpt>
      <trkpt lat="36.9533630" lon="-2.3993840">
        <ele>338.2</ele>
        <time>2020-02-16T07:46:02Z</time>
      </trkpt>
      <trkpt lat="36.9533800" lon="-2.3993690">
        <ele>338.3</ele>
        <time>2020-02-16T07:46:03Z</time>
      </trkpt>
      <trkpt lat="36.9533960" lon="-2.3993560">
        <ele>338.4</ele>
        <time>2020-02-16T07:46:05Z</time>
      </trkpt>
      <trkpt lat="36.9534130" lon="-2.3993410">
        <ele>338.5</ele>
        <time>2020-02-16T07:46:06Z</time>
      </trkpt>
      <trkpt lat="36.9534280" lon="-2.3993280">
        <ele>338.5</ele>
        <time>2020-02-16T07:46:07Z</time>
      </trkpt>
      <trkpt lat="36.9534430" lon="-2.3993130">
        <ele>338.5</ele>
        <time>2020-02-16T07:46:08Z</time>
      </trkpt>
      <trkpt lat="36.9534580" lon="-2.3992970">
        <ele>338.6</ele>
        <time>2020-02-16T07:46:09Z</time>
      </trkpt>
      <trkpt lat="36.9534750" lon="-2.3992810">
        <ele>338.6</ele>
        <time>2020-02-16T07:46:10Z</time>
      </trkpt>
      <trkpt lat="36.9534900" lon="-2.3992670">
        <ele>338.7</ele>
        <time>2020-02-16T07:46:11Z</time>
      </trkpt>
      <trkpt lat="36.9535060" lon="-2.3992500">
        <ele>338.7</ele>
        <time>2020-02-16T07:46:12Z</time>
      </trkpt>
      <trkpt lat="36.9535250" lon="-2.3992310">
        <ele>338.8</ele>
        <time>2020-02-16T07:46:13Z</time>
      </trkpt>
      <trkpt lat="36.9535430" lon="-2.3992130">
        <ele>338.8</ele>
        <time>2020-02-16T07:46:14Z</time>
      </trkpt>
      <trkpt lat="36.9535600" lon="-2.3991940">
        <ele>338.9</ele>
        <time>2020-02-16T07:46:15Z</time>
      </trkpt>
      <trkpt lat="36.9535800" lon="-2.3991730">
        <ele>338.9</ele>
        <time>2020-02-16T07:46:16Z</time>
      </trkpt>
      <trkpt lat="36.9536010" lon="-2.3991530">
        <ele>339.0</ele>
        <time>2020-02-16T07:46:17Z</time>
      </trkpt>
      <trkpt lat="36.9536160" lon="-2.3991380">
        <ele>339.0</ele>
        <time>2020-02-16T07:46:18Z</time>
      </trkpt>
      <trkpt lat="36.9536310" lon="-2.3991220">
        <ele>339.1</ele>
        <time>2020-02-16T07:46:19Z</time>
      </trkpt>
      <trkpt lat="36.9536480" lon="-2.3991040">
        <ele>339.1</ele>
        <time>2020-02-16T07:46:20Z</time>
      </trkpt>
      <trkpt lat="36.9536630" lon="-2.3990880">
        <ele>339.2</ele>
        <time>2020-02-16T07:46:21Z</time>
      </trkpt>
      <trkpt lat="36.9536830" lon="-2.3990680">
        <ele>339.3</ele>
        <time>2020-02-16T07:46:22Z</time>
      </trkpt>
      <trkpt lat="36.9537010" lon="-2.3990500">
        <ele>339.3</ele>
        <time>2020-02-16T07:46:23Z</time>
      </trkpt>
      <trkpt lat="36.9537180" lon="-2.3990350">
        <ele>339.4</ele>
        <time>2020-02-16T07:46:24Z</time>
      </trkpt>
      <trkpt lat="36.9537330" lon="-2.3990210">
        <ele>339.4</ele>
        <time>2020-02-16T07:46:25Z</time>
      </trkpt>
      <trkpt lat="36.9537530" lon="-2.3990320">
        <ele>339.5</ele>
        <time>2020-02-16T07:46:26Z</time>
      </trkpt>
      <trkpt lat="36.9537730" lon="-2.3990320">
        <ele>339.5</ele>
        <time>2020-02-16T07:46:27Z</time>
      </trkpt>
      <trkpt lat="36.9537910" lon="-2.3990320">
        <ele>339.6</ele>
        <time>2020-02-16T07:46:28Z</time>
      </trkpt>
      <trkpt lat="36.9538110" lon="-2.3990300">
        <ele>339.6</ele>
        <time>2020-02-16T07:46:29Z</time>
      </trkpt>
      <trkpt lat="36.9538330" lon="-2.3990300">
        <ele>339.6</ele>
        <time>2020-02-16T07:46:30Z</time>
      </trkpt>
      <trkpt lat="36.9538530" lon="-2.3990270">
        <ele>339.7</ele>
        <time>2020-02-16T07:46:31Z</time>
      </trkpt>
      <trkpt lat="36.9538700" lon="-2.3990260">
        <ele>339.7</ele>
        <time>2020-02-16T07:46:32Z</time>
      </trkpt>
      <trkpt lat="36.9538950" lon="-2.3990260">
        <ele>339.8</ele>
        <time>2020-02-16T07:46:33Z</time>
      </trkpt>
      <trkpt lat="36.9539160" lon="-2.3990290">
        <ele>339.9</ele>
        <time>2020-02-16T07:46:34Z</time>
      </trkpt>
      <trkpt lat="36.9539360" lon="-2.3990440">
        <ele>340.0</ele>
        <time>2020-02-16T07:46:35Z</time>
      </trkpt>
      <trkpt lat="36.9539550" lon="-2.3990540">
        <ele>340.0</ele>
        <time>2020-02-16T07:46:36Z</time>
      </trkpt>
      <trkpt lat="36.9539710" lon="-2.3990540">
        <ele>340.1</ele>
        <time>2020-02-16T07:46:37Z</time>
      </trkpt>
      <trkpt lat="36.9539900" lon="-2.3990520">
        <ele>340.1</ele>
        <time>2020-02-16T07:46:38Z</time>
      </trkpt>
      <trkpt lat="36.9540100" lon="-2.3990510">
        <ele>340.2</ele>
        <time>2020-02-16T07:46:39Z</time>
      </trkpt>
      <trkpt lat="36.9540330" lon="-2.3990470">
        <ele>340.3</ele>
        <time>2020-02-16T07:46:40Z</time>
      </trkpt>
      <trkpt lat="36.9540530" lon="-2.3990420">
        <ele>340.4</ele>
        <time>2020-02-16T07:46:41Z</time>
      </trkpt>
      <trkpt lat="36.9540710" lon="-2.3990380">
        <ele>340.4</ele>
        <time>2020-02-16T07:46:42Z</time>
      </trkpt>
      <trkpt lat="36.9540860" lon="-2.3990330">
        <ele>340.5</ele>
        <time>2020-02-16T07:46:43Z</time>
      </trkpt>
      <trkpt lat="36.9541080" lon="-2.3990250">
        <ele>340.7</ele>
        <time>2020-02-16T07:46:44Z</time>
      </trkpt>
      <trkpt lat="36.9541260" lon="-2.3990190">
        <ele>340.8</ele>
        <time>2020-02-16T07:46:45Z</time>
      </trkpt>
      <trkpt lat="36.9541480" lon="-2.3990110">
        <ele>341.0</ele>
        <time>2020-02-16T07:46:46Z</time>
      </trkpt>
      <trkpt lat="36.9541700" lon="-2.3990030">
        <ele>341.1</ele>
        <time>2020-02-16T07:46:47Z</time>
      </trkpt>
      <trkpt lat="36.9541900" lon="-2.3989960">
        <ele>341.3</ele>
        <time>2020-02-16T07:46:48Z</time>
      </trkpt>
      <trkpt lat="36.9542110" lon="-2.3989890">
        <ele>341.4</ele>
        <time>2020-02-16T07:46:49Z</time>
      </trkpt>
      <trkpt lat="36.9542300" lon="-2.3989820">
        <ele>341.5</ele>
        <time>2020-02-16T07:46:50Z</time>
      </trkpt>
      <trkpt lat="36.9542550" lon="-2.3989740">
        <ele>341.7</ele>
        <time>2020-02-16T07:46:51Z</time>
      </trkpt>
      <trkpt lat="36.9542740" lon="-2.3989670">
        <ele>341.8</ele>
        <time>2020-02-16T07:46:52Z</time>
      </trkpt>
      <trkpt lat="36.9542940" lon="-2.3989600">
        <ele>341.9</ele>
        <time>2020-02-16T07:46:53Z</time>
      </trkpt>
      <trkpt lat="36.9543130" lon="-2.3989530">
        <ele>342.1</ele>
        <time>2020-02-16T07:46:54Z</time>
      </trkpt>
      <trkpt lat="36.9543340" lon="-2.3989440">
        <ele>342.2</ele>
        <time>2020-02-16T07:46:55Z</time>
      </trkpt>
      <trkpt lat="36.9543540" lon="-2.3989360">
        <ele>342.4</ele>
        <time>2020-02-16T07:46:56Z</time>
      </trkpt>
      <trkpt lat="36.9543790" lon="-2.3989270">
        <ele>342.6</ele>
        <time>2020-02-16T07:46:57Z</time>
      </trkpt>
      <trkpt lat="36.9544060" lon="-2.3989190">
        <ele>342.8</ele>
        <time>2020-02-16T07:46:58Z</time>
      </trkpt>
      <trkpt lat="36.9544280" lon="-2.3989130">
        <ele>343.0</ele>
        <time>2020-02-16T07:46:59Z</time>
      </trkpt>
      <trkpt lat="36.9544480" lon="-2.3989060">
        <ele>343.1</ele>
        <time>2020-02-16T07:47:00Z</time>
      </trkpt>
      <trkpt lat="36.9544690" lon="-2.3988990">
        <ele>343.3</ele>
        <time>2020-02-16T07:47:01Z</time>
      </trkpt>
      <trkpt lat="36.9544880" lon="-2.3988930">
        <ele>343.5</ele>
        <time>2020-02-16T07:47:02Z</time>
      </trkpt>
      <trkpt lat="36.9545130" lon="-2.3988850">
        <ele>343.8</ele>
        <time>2020-02-16T07:47:03Z</time>
      </trkpt>
      <trkpt lat="36.9545310" lon="-2.3988790">
        <ele>344.0</ele>
        <time>2020-02-16T07:47:04Z</time>
      </trkpt>
      <trkpt lat="36.9545510" lon="-2.3988690">
        <ele>344.2</ele>
        <time>2020-02-16T07:47:05Z</time>
      </trkpt>
      <trkpt lat="36.9545690" lon="-2.3988600">
        <ele>344.4</ele>
        <time>2020-02-16T07:47:06Z</time>
      </trkpt>
      <trkpt lat="36.9545840" lon="-2.3988170">
        <ele>344.9</ele>
        <time>2020-02-16T07:47:07Z</time>
      </trkpt>
      <trkpt lat="36.9545980" lon="-2.3988000">
        <ele>345.1</ele>
        <time>2020-02-16T07:47:08Z</time>
      </trkpt>
      <trkpt lat="36.9546160" lon="-2.3987750">
        <ele>345.5</ele>
        <time>2020-02-16T07:47:09Z</time>
      </trkpt>
      <trkpt lat="36.9546280" lon="-2.3987540">
        <ele>345.8</ele>
        <time>2020-02-16T07:47:10Z</time>
      </trkpt>
      <trkpt lat="36.9546310" lon="-2.3987310">
        <ele>346.1</ele>
        <time>2020-02-16T07:47:11Z</time>
      </trkpt>
      <trkpt lat="36.9546410" lon="-2.3987010">
        <ele>346.6</ele>
        <time>2020-02-16T07:47:12Z</time>
      </trkpt>
      <trkpt lat="36.9546460" lon="-2.3986720">
        <ele>347.2</ele>
        <time>2020-02-16T07:47:13Z</time>
      </trkpt>
      <trkpt lat="36.9546430" lon="-2.3986440">
        <ele>347.7</ele>
        <time>2020-02-16T07:47:14Z</time>
      </trkpt>
      <trkpt lat="36.9546410" lon="-2.3986140">
        <ele>348.3</ele>
        <time>2020-02-16T07:47:15Z</time>
      </trkpt>
      <trkpt lat="36.9546290" lon="-2.3985840">
        <ele>349.0</ele>
        <time>2020-02-16T07:47:16Z</time>
      </trkpt>
      <trkpt lat="36.9546160" lon="-2.3985620">
        <ele>349.7</ele>
        <time>2020-02-16T07:47:17Z</time>
      </trkpt>
      <trkpt lat="36.9545990" lon="-2.3985270">
        <ele>350.6</ele>
        <time>2020-02-16T07:47:18Z</time>
      </trkpt>
      <trkpt lat="36.9545840" lon="-2.3985010">
        <ele>351.2</ele>
        <time>2020-02-16T07:47:19Z</time>
      </trkpt>
      <trkpt lat="36.9545730" lon="-2.3984740">
        <ele>351.8</ele>
        <time>2020-02-16T07:47:20Z</time>
      </trkpt>
      <trkpt lat="36.9545630" lon="-2.3984540">
        <ele>352.2</ele>
        <time>2020-02-16T07:47:21Z</time>
      </trkpt>
      <trkpt lat="36.9545540" lon="-2.3984260">
        <ele>352.9</ele>
        <time>2020-02-16T07:47:22Z</time>
      </trkpt>
      <trkpt lat="36.9545440" lon="-2.3984040">
        <ele>353.5</ele>
        <time>2020-02-16T07:47:23Z</time>
      </trkpt>
      <trkpt lat="36.9545340" lon="-2.3983790">
        <ele>354.2</ele>
        <time>2020-02-16T07:47:24Z</time>
      </trkpt>
      <trkpt lat="36.9545260" lon="-2.3983510">
        <ele>354.5</ele>
        <time>2020-02-16T07:47:25Z</time>
      </trkpt>
      <trkpt lat="36.9545210" lon="-2.3983260">
        <ele>354.8</ele>
        <time>2020-02-16T07:47:26Z</time>
      </trkpt>
      <trkpt lat="36.9545160" lon="-2.3983010">
        <ele>355.0</ele>
        <time>2020-02-16T07:47:27Z</time>
      </trkpt>
      <trkpt lat="36.9545120" lon="-2.3982760">
        <ele>355.3</ele>
        <time>2020-02-16T07:47:28Z</time>
      </trkpt>
      <trkpt lat="36.9545070" lon="-2.3982510">
        <ele>355.5</ele>
        <time>2020-02-16T07:47:29Z</time>
      </trkpt>
      <trkpt lat="36.9545050" lon="-2.3982310">
        <ele>355.7</ele>
        <time>2020-02-16T07:47:30Z</time>
      </trkpt>
      <trkpt lat="36.9545020" lon="-2.3982020">
        <ele>356.1</ele>
        <time>2020-02-16T07:47:31Z</time>
      </trkpt>
      <trkpt lat="36.9545230" lon="-2.3981870">
        <ele>356.5</ele>
        <time>2020-02-16T07:47:32Z</time>
      </trkpt>
      <trkpt lat="36.9545360" lon="-2.3981640">
        <ele>356.9</ele>
        <time>2020-02-16T07:47:33Z</time>
      </trkpt>
      <trkpt lat="36.9545530" lon="-2.3981510">
        <ele>357.3</ele>
        <time>2020-02-16T07:47:34Z</time>
      </trkpt>
      <trkpt lat="36.9545730" lon="-2.3981390">
        <ele>357.7</ele>
        <time>2020-02-16T07:47:35Z</time>
      </trkpt>
      <trkpt lat="36.9545890" lon="-2.3981320">
        <ele>358.0</ele>
        <time>2020-02-16T07:47:36Z</time>
      </trkpt>
      <trkpt lat="36.9546040" lon="-2.3981320">
        <ele>358.3</ele>
        <time>2020-02-16T07:47:37Z</time>
      </trkpt>
      <trkpt lat="36.9546240" lon="-2.3981270">
        <ele>358.6</ele>
        <time>2020-02-16T07:47:38Z</time>
      </trkpt>
      <trkpt lat="36.9546430" lon="-2.3981290">
        <ele>358.9</ele>
        <time>2020-02-16T07:47:39Z</time>
      </trkpt>
      <trkpt lat="36.9546610" lon="-2.3981310">
        <ele>359.2</ele>
        <time>2020-02-16T07:47:40Z</time>
      </trkpt>
      <trkpt lat="36.9546740" lon="-2.3981370">
        <ele>359.4</ele>
        <time>2020-02-16T07:47:41Z</time>
      </trkpt>
      <trkpt lat="36.9546810" lon="-2.3981420">
        <ele>359.5</ele>
        <time>2020-02-16T07:47:42Z</time>
      </trkpt>
      <trkpt lat="36.9546880" lon="-2.3981460">
        <ele>359.6</ele>
        <time>2020-02-16T07:47:43Z</time>
      </trkpt>
      <trkpt lat="36.9546960" lon="-2.3981610">
        <ele>359.7</ele>
        <time>2020-02-16T07:47:44Z</time>
      </trkpt>
      <trkpt lat="36.9547130" lon="-2.3981640">
        <ele>360.0</ele>
        <time>2020-02-16T07:47:45Z</time>
      </trkpt>
      <trkpt lat="36.9547310" lon="-2.3981690">
        <ele>360.2</ele>
        <time>2020-02-16T07:47:46Z</time>
      </trkpt>
      <trkpt lat="36.9547440" lon="-2.3981770">
        <ele>360.4</ele>
        <time>2020-02-16T07:47:47Z</time>
      </trkpt>
      <trkpt lat="36.9547610" lon="-2.3981890">
        <ele>360.6</ele>
        <time>2020-02-16T07:47:48Z</time>
      </trkpt>
      <trkpt lat="36.9547790" lon="-2.3981980">
        <ele>360.9</ele>
        <time>2020-02-16T07:47:49Z</time>
      </trkpt>
      <trkpt lat="36.9547980" lon="-2.3982070">
        <ele>361.3</ele>
        <time>2020-02-16T07:47:50Z</time>
      </trkpt>
      <trkpt lat="36.9548130" lon="-2.3982180">
        <ele>361.5</ele>
        <time>2020-02-16T07:47:51Z</time>
      </trkpt>
      <trkpt lat="36.9548240" lon="-2.3982290">
        <ele>361.7</ele>
        <time>2020-02-16T07:47:52Z</time>
      </trkpt>
      <trkpt lat="36.9548360" lon="-2.3982410">
        <ele>361.9</ele>
        <time>2020-02-16T07:47:53Z</time>
      </trkpt>
      <trkpt lat="36.9548490" lon="-2.3982540">
        <ele>362.1</ele>
        <time>2020-02-16T07:47:54Z</time>
      </trkpt>
      <trkpt lat="36.9548640" lon="-2.3982670">
        <ele>362.3</ele>
        <time>2020-02-16T07:47:55Z</time>
      </trkpt>
      <trkpt lat="36.9548810" lon="-2.3982810">
        <ele>362.5</ele>
        <time>2020-02-16T07:47:56Z</time>
      </trkpt>
      <trkpt lat="36.9548930" lon="-2.3982920">
        <ele>362.7</ele>
        <time>2020-02-16T07:47:57Z</time>
      </trkpt>
      <trkpt lat="36.9549040" lon="-2.3983030">
        <ele>362.8</ele>
        <time>2020-02-16T07:47:58Z</time>
      </trkpt>
      <trkpt lat="36.9549180" lon="-2.3983160">
        <ele>363.0</ele>
        <time>2020-02-16T07:47:59Z</time>
      </trkpt>
      <trkpt lat="36.9549310" lon="-2.3983280">
        <ele>363.2</ele>
        <time>2020-02-16T07:48:00Z</time>
      </trkpt>
      <trkpt lat="36.9549440" lon="-2.3983400">
        <ele>363.5</ele>
        <time>2020-02-16T07:48:01Z</time>
      </trkpt>
      <trkpt lat="36.9549590" lon="-2.3983540">
        <ele>363.8</ele>
        <time>2020-02-16T07:48:02Z</time>
      </trkpt>
      <trkpt lat="36.9549730" lon="-2.3983660">
        <ele>364.1</ele>
        <time>2020-02-16T07:48:03Z</time>
      </trkpt>
      <trkpt lat="36.9549840" lon="-2.3983760">
        <ele>364.3</ele>
        <time>2020-02-16T07:48:04Z</time>
      </trkpt>
      <trkpt lat="36.9549990" lon="-2.3983890">
        <ele>364.4</ele>
        <time>2020-02-16T07:48:05Z</time>
      </trkpt>
      <trkpt lat="36.9550160" lon="-2.3984030">
        <ele>364.5</ele>
        <time>2020-02-16T07:48:06Z</time>
      </trkpt>
      <trkpt lat="36.9550310" lon="-2.3984150">
        <ele>364.5</ele>
        <time>2020-02-16T07:48:07Z</time>
      </trkpt>
      <trkpt lat="36.9550460" lon="-2.3984260">
        <ele>364.6</ele>
        <time>2020-02-16T07:48:08Z</time>
      </trkpt>
      <trkpt lat="36.9550660" lon="-2.3984390">
        <ele>364.6</ele>
        <time>2020-02-16T07:48:09Z</time>
      </trkpt>
      <trkpt lat="36.9550830" lon="-2.3984480">
        <ele>364.7</ele>
        <time>2020-02-16T07:48:10Z</time>
      </trkpt>
      <trkpt lat="36.9550980" lon="-2.3984560">
        <ele>364.8</ele>
        <time>2020-02-16T07:48:11Z</time>
      </trkpt>
      <trkpt lat="36.9551090" lon="-2.3984620">
        <ele>364.9</ele>
        <time>2020-02-16T07:48:12Z</time>
      </trkpt>
      <trkpt lat="36.9551260" lon="-2.3984700">
        <ele>364.9</ele>
        <time>2020-02-16T07:48:13Z</time>
      </trkpt>
      <trkpt lat="36.9551440" lon="-2.3984790">
        <ele>365.0</ele>
        <time>2020-02-16T07:48:14Z</time>
      </trkpt>
      <trkpt lat="36.9551610" lon="-2.3984870">
        <ele>365.1</ele>
        <time>2020-02-16T07:48:15Z</time>
      </trkpt>
      <trkpt lat="36.9551780" lon="-2.3984940">
        <ele>365.2</ele>
        <time>2020-02-16T07:48:16Z</time>
      </trkpt>
      <trkpt lat="36.9551980" lon="-2.3985020">
        <ele>365.3</ele>
        <time>2020-02-16T07:48:17Z</time>
      </trkpt>
      <trkpt lat="36.9552180" lon="-2.3984570">
        <ele>365.5</ele>
        <time>2020-02-16T07:48:18Z</time>
      </trkpt>
      <trkpt lat="36.9552340" lon="-2.3984580">
        <ele>365.6</ele>
        <time>2020-02-16T07:48:19Z</time>
      </trkpt>
      <trkpt lat="36.9552540" lon="-2.3984660">
        <ele>365.7</ele>
        <time>2020-02-16T07:48:20Z</time>
      </trkpt>
      <trkpt lat="36.9552760" lon="-2.3984690">
        <ele>365.8</ele>
        <time>2020-02-16T07:48:21Z</time>
      </trkpt>
      <trkpt lat="36.9552960" lon="-2.3984740">
        <ele>365.9</ele>
        <time>2020-02-16T07:48:22Z</time>
      </trkpt>
      <trkpt lat="36.9553160" lon="-2.3984770">
        <ele>365.9</ele>
        <time>2020-02-16T07:48:23Z</time>
      </trkpt>
      <trkpt lat="36.9553390" lon="-2.3984810">
        <ele>366.0</ele>
        <time>2020-02-16T07:48:24Z</time>
      </trkpt>
      <trkpt lat="36.9553610" lon="-2.3984820">
        <ele>366.1</ele>
        <time>2020-02-16T07:48:25Z</time>
      </trkpt>
      <trkpt lat="36.9553740" lon="-2.3984840">
        <ele>366.2</ele>
        <time>2020-02-16T07:48:26Z</time>
      </trkpt>
      <trkpt lat="36.9553960" lon="-2.3984860">
        <ele>366.3</ele>
        <time>2020-02-16T07:48:27Z</time>
      </trkpt>
      <trkpt lat="36.9554110" lon="-2.3984890">
        <ele>366.4</ele>
        <time>2020-02-16T07:48:28Z</time>
      </trkpt>
      <trkpt lat="36.9554330" lon="-2.3984930">
        <ele>366.5</ele>
        <time>2020-02-16T07:48:29Z</time>
      </trkpt>
      <trkpt lat="36.9554540" lon="-2.3984950">
        <ele>366.6</ele>
        <time>2020-02-16T07:48:30Z</time>
      </trkpt>
      <trkpt lat="36.9554780" lon="-2.3984990">
        <ele>366.8</ele>
        <time>2020-02-16T07:48:31Z</time>
      </trkpt>
      <trkpt lat="36.9554960" lon="-2.3985030">
        <ele>366.9</ele>
        <time>2020-02-16T07:48:32Z</time>
      </trkpt>
      <trkpt lat="36.9555140" lon="-2.3985110">
        <ele>367.1</ele>
        <time>2020-02-16T07:48:33Z</time>
      </trkpt>
      <trkpt lat="36.9555320" lon="-2.3985200">
        <ele>367.2</ele>
        <time>2020-02-16T07:48:34Z</time>
      </trkpt>
      <trkpt lat="36.9555520" lon="-2.3985520">
        <ele>367.5</ele>
        <time>2020-02-16T07:48:35Z</time>
      </trkpt>
      <trkpt lat="36.9555690" lon="-2.3985650">
        <ele>367.6</ele>
        <time>2020-02-16T07:48:36Z</time>
      </trkpt>
      <trkpt lat="36.9555840" lon="-2.3985770">
        <ele>367.8</ele>
        <time>2020-02-16T07:48:37Z</time>
      </trkpt>
      <trkpt lat="36.9555990" lon="-2.3985860">
        <ele>367.9</ele>
        <time>2020-02-16T07:48:38Z</time>
      </trkpt>
      <trkpt lat="36.9556120" lon="-2.3985920">
        <ele>368.1</ele>
        <time>2020-02-16T07:48:39Z</time>
      </trkpt>
      <trkpt lat="36.9556290" lon="-2.3985940">
        <ele>368.2</ele>
        <time>2020-02-16T07:48:40Z</time>
      </trkpt>
      <trkpt lat="36.9556410" lon="-2.3985930">
        <ele>368.3</ele>
        <time>2020-02-16T07:48:41Z</time>
      </trkpt>
      <trkpt lat="36.9556520" lon="-2.3985910">
        <ele>368.4</ele>
        <time>2020-02-16T07:48:42Z</time>
      </trkpt>
      <trkpt lat="36.9556610" lon="-2.3985900">
        <ele>368.5</ele>
        <time>2020-02-16T07:48:43Z</time>
      </trkpt>
      <trkpt lat="36.9556670" lon="-2.3985910">
        <ele>368.5</ele>
        <time>2020-02-16T07:48:44Z</time>
      </trkpt>
      <trkpt lat="36.9556770" lon="-2.3985940">
        <ele>368.6</ele>
        <time>2020-02-16T07:48:45Z</time>
      </trkpt>
      <trkpt lat="36.9556920" lon="-2.3985970">
        <ele>368.7</ele>
        <time>2020-02-16T07:48:46Z</time>
      </trkpt>
      <trkpt lat="36.9557070" lon="-2.3985990">
        <ele>368.8</ele>
        <time>2020-02-16T07:48:47Z</time>
      </trkpt>
      <trkpt lat="36.9557260" lon="-2.3985840">
        <ele>368.9</ele>
        <time>2020-02-16T07:48:48Z</time>
      </trkpt>
      <trkpt lat="36.9557440" lon="-2.3985790">
        <ele>369.1</ele>
        <time>2020-02-16T07:48:49Z</time>
      </trkpt>
      <trkpt lat="36.9557620" lon="-2.3985820">
        <ele>369.2</ele>
        <time>2020-02-16T07:48:50Z</time>
      </trkpt>
      <trkpt lat="36.9557790" lon="-2.3985840">
        <ele>369.3</ele>
        <time>2020-02-16T07:48:51Z</time>
      </trkpt>
      <trkpt lat="36.9557970" lon="-2.3985810">
        <ele>369.5</ele>
        <time>2020-02-16T07:48:52Z</time>
      </trkpt>
      <trkpt lat="36.9558160" lon="-2.3985790">
        <ele>369.6</ele>
        <time>2020-02-16T07:48:53Z</time>
      </trkpt>
      <trkpt lat="36.9558310" lon="-2.3985760">
        <ele>369.8</ele>
        <time>2020-02-16T07:48:54Z</time>
      </trkpt>
      <trkpt lat="36.9558470" lon="-2.3985760">
        <ele>369.9</ele>
        <time>2020-02-16T07:48:55Z</time>
      </trkpt>
      <trkpt lat="36.9558690" lon="-2.3985780">
        <ele>370.1</ele>
        <time>2020-02-16T07:48:56Z</time>
      </trkpt>
      <trkpt lat="36.9558870" lon="-2.3985790">
        <ele>370.3</ele>
        <time>2020-02-16T07:48:57Z</time>
      </trkpt>
      <trkpt lat="36.9559060" lon="-2.3985820">
        <ele>370.5</ele>
        <time>2020-02-16T07:48:58Z</time>
      </trkpt>
      <trkpt lat="36.9559220" lon="-2.3985860">
        <ele>370.6</ele>
        <time>2020-02-16T07:48:59Z</time>
      </trkpt>
      <trkpt lat="36.9559360" lon="-2.3985920">
        <ele>370.7</ele>
        <time>2020-02-16T07:49:00Z</time>
      </trkpt>
      <trkpt lat="36.9559540" lon="-2.3985980">
        <ele>370.9</ele>
        <time>2020-02-16T07:49:01Z</time>
      </trkpt>
      <trkpt lat="36.9559690" lon="-2.3986010">
        <ele>371.0</ele>
        <time>2020-02-16T07:49:02Z</time>
      </trkpt>
      <trkpt lat="36.9559840" lon="-2.3986040">
        <ele>371.1</ele>
        <time>2020-02-16T07:49:03Z</time>
      </trkpt>
      <trkpt lat="36.9559970" lon="-2.3986060">
        <ele>371.2</ele>
        <time>2020-02-16T07:49:04Z</time>
      </trkpt>
      <trkpt lat="36.9560120" lon="-2.3986090">
        <ele>371.3</ele>
        <time>2020-02-16T07:49:05Z</time>
      </trkpt>
      <trkpt lat="36.9560190" lon="-2.3986110">
        <ele>371.4</ele>
        <time>2020-02-16T07:49:06Z</time>
      </trkpt>
      <trkpt lat="36.9560340" lon="-2.3986140">
        <ele>371.5</ele>
        <time>2020-02-16T07:49:07Z</time>
      </trkpt>
      <trkpt lat="36.9560440" lon="-2.3986180">
        <ele>371.6</ele>
        <time>2020-02-16T07:49:08Z</time>
      </trkpt>
      <trkpt lat="36.9560570" lon="-2.3986230">
        <ele>371.8</ele>
        <time>2020-02-16T07:49:09Z</time>
      </trkpt>
      <trkpt lat="36.9560690" lon="-2.3986270">
        <ele>371.9</ele>
        <time>2020-02-16T07:49:10Z</time>
      </trkpt>
      <trkpt lat="36.9560810" lon="-2.3986320">
        <ele>372.0</ele>
        <time>2020-02-16T07:49:11Z</time>
      </trkpt>
      <trkpt lat="36.9560940" lon="-2.3986360">
        <ele>372.2</ele>
        <time>2020-02-16T07:49:12Z</time>
      </trkpt>
      <trkpt lat="36.9561040" lon="-2.3986370">
        <ele>372.3</ele>
        <time>2020-02-16T07:49:13Z</time>
      </trkpt>
      <trkpt lat="36.9561140" lon="-2.3986240">
        <ele>372.4</ele>
        <time>2020-02-16T07:49:14Z</time>
      </trkpt>
      <trkpt lat="36.9561160" lon="-2.3986070">
        <ele>372.5</ele>
        <time>2020-02-16T07:49:15Z</time>
      </trkpt>
      <trkpt lat="36.9561110" lon="-2.3985940">
        <ele>372.6</ele>
        <time>2020-02-16T07:49:16Z</time>
      </trkpt>
      <trkpt lat="36.9561020" lon="-2.3985840">
        <ele>372.7</ele>
        <time>2020-02-16T07:49:17Z</time>
      </trkpt>
      <trkpt lat="36.9560910" lon="-2.3985720">
        <ele>372.8</ele>
        <time>2020-02-16T07:49:18Z</time>
      </trkpt>
      <trkpt lat="36.9560820" lon="-2.3985590">
        <ele>373.0</ele>
        <time>2020-02-16T07:49:19Z</time>
      </trkpt>
      <trkpt lat="36.9560720" lon="-2.3985470">
        <ele>373.1</ele>
        <time>2020-02-16T07:49:20Z</time>
      </trkpt>
      <trkpt lat="36.9560620" lon="-2.3985340">
        <ele>373.2</ele>
        <time>2020-02-16T07:49:21Z</time>
      </trkpt>
      <trkpt lat="36.9560490" lon="-2.3985250">
        <ele>373.3</ele>
        <time>2020-02-16T07:49:22Z</time>
      </trkpt>
      <trkpt lat="36.9560390" lon="-2.3985170">
        <ele>373.4</ele>
        <time>2020-02-16T07:49:23Z</time>
      </trkpt>
      <trkpt lat="36.9560260" lon="-2.3985070">
        <ele>373.5</ele>
        <time>2020-02-16T07:49:24Z</time>
      </trkpt>
      <trkpt lat="36.9560140" lon="-2.3984950">
        <ele>373.7</ele>
        <time>2020-02-16T07:49:25Z</time>
      </trkpt>
      <trkpt lat="36.9560060" lon="-2.3984870">
        <ele>373.8</ele>
        <time>2020-02-16T07:49:26Z</time>
      </trkpt>
      <trkpt lat="36.9559960" lon="-2.3984770">
        <ele>373.9</ele>
        <time>2020-02-16T07:49:27Z</time>
      </trkpt>
      <trkpt lat="36.9559860" lon="-2.3984650">
        <ele>374.0</ele>
        <time>2020-02-16T07:49:28Z</time>
      </trkpt>
      <trkpt lat="36.9559770" lon="-2.3984540">
        <ele>374.1</ele>
        <time>2020-02-16T07:49:29Z</time>
      </trkpt>
      <trkpt lat="36.9559690" lon="-2.3984440">
        <ele>374.1</ele>
        <time>2020-02-16T07:49:30Z</time>
      </trkpt>
      <trkpt lat="36.9559620" lon="-2.3984360">
        <ele>374.2</ele>
        <time>2020-02-16T07:49:31Z</time>
      </trkpt>
      <trkpt lat="36.9559590" lon="-2.3984330">
        <ele>374.2</ele>
        <time>2020-02-16T07:49:32Z</time>
      </trkpt>
      <trkpt lat="36.9559570" lon="-2.3984310">
        <ele>374.3</ele>
        <time>2020-02-16T07:49:33Z</time>
      </trkpt>
      <trkpt lat="36.9559590" lon="-2.3984320">
        <ele>374.3</ele>
        <time>2020-02-16T07:49:36Z</time>
      </trkpt>
      <trkpt lat="36.9559520" lon="-2.3984170">
        <ele>374.4</ele>
        <time>2020-02-16T07:49:37Z</time>
      </trkpt>
      <trkpt lat="36.9559440" lon="-2.3984070">
        <ele>374.5</ele>
        <time>2020-02-16T07:49:38Z</time>
      </trkpt>
      <trkpt lat="36.9559360" lon="-2.3983990">
        <ele>374.5</ele>
        <time>2020-02-16T07:49:39Z</time>
      </trkpt>
      <trkpt lat="36.9559280" lon="-2.3983890">
        <ele>374.6</ele>
        <time>2020-02-16T07:49:40Z</time>
      </trkpt>
      <trkpt lat="36.9559240" lon="-2.3983820">
        <ele>374.6</ele>
        <time>2020-02-16T07:49:41Z</time>
      </trkpt>
      <trkpt lat="36.9559290" lon="-2.3983900">
        <ele>374.7</ele>
        <time>2020-02-16T07:49:42Z</time>
      </trkpt>
      <trkpt lat="36.9559190" lon="-2.3983950">
        <ele>374.8</ele>
        <time>2020-02-16T07:49:43Z</time>
      </trkpt>
      <trkpt lat="36.9559170" lon="-2.3983980">
        <ele>374.8</ele>
        <time>2020-02-16T07:49:44Z</time>
      </trkpt>
      <trkpt lat="36.9559140" lon="-2.3984080">
        <ele>374.9</ele>
        <time>2020-02-16T07:49:45Z</time>
      </trkpt>
      <trkpt lat="36.9559120" lon="-2.3984170">
        <ele>374.9</ele>
        <time>2020-02-16T07:49:46Z</time>
      </trkpt>
      <trkpt lat="36.9559120" lon="-2.3984150">
        <ele>374.9</ele>
        <time>2020-02-16T07:49:47Z</time>
      </trkpt>
      <trkpt lat="36.9559110" lon="-2.3984150">
        <ele>374.9</ele>
        <time>2020-02-16T07:49:48Z</time>
      </trkpt>
      <trkpt lat="36.9559070" lon="-2.3984140">
        <ele>375.0</ele>
        <time>2020-02-16T07:49:49Z</time>
      </trkpt>
      <trkpt lat="36.9559060" lon="-2.3984100">
        <ele>375.0</ele>
        <time>2020-02-16T07:49:50Z</time>
      </trkpt>
      <trkpt lat="36.9559040" lon="-2.3983990">
        <ele>375.1</ele>
        <time>2020-02-16T07:49:51Z</time>
      </trkpt>
      <trkpt lat="36.9559050" lon="-2.3983970">
        <ele>375.1</ele>
        <time>2020-02-16T07:49:52Z</time>
      </trkpt>
      <trkpt lat="36.9559070" lon="-2.3983940">
        <ele>375.1</ele>
        <time>2020-02-16T07:49:53Z</time>
      </trkpt>
      <trkpt lat="36.9559060" lon="-2.3984020">
        <ele>375.2</ele>
        <time>2020-02-16T07:49:55Z</time>
      </trkpt>
      <trkpt lat="36.9559080" lon="-2.3984040">
        <ele>375.2</ele>
        <time>2020-02-16T07:49:56Z</time>
      </trkpt>
      <trkpt lat="36.9559090" lon="-2.3984040">
        <ele>375.2</ele>
        <time>2020-02-16T07:49:57Z</time>
      </trkpt>
      <trkpt lat="36.9559140" lon="-2.3983970">
        <ele>375.3</ele>
        <time>2020-02-16T07:50:09Z</time>
      </trkpt>
      <trkpt lat="36.9559120" lon="-2.3983950">
        <ele>375.3</ele>
        <time>2020-02-16T07:50:15Z</time>
      </trkpt>
      <trkpt lat="36.9558960" lon="-2.3983320">
        <ele>375.8</ele>
        <time>2020-02-16T07:50:17Z</time>
      </trkpt>
      <trkpt lat="36.9559060" lon="-2.3983220">
        <ele>375.9</ele>
        <time>2020-02-16T07:50:18Z</time>
      </trkpt>
      <trkpt lat="36.9559150" lon="-2.3983250">
        <ele>376.0</ele>
        <time>2020-02-16T07:50:19Z</time>
      </trkpt>
      <trkpt lat="36.9559240" lon="-2.3983270">
        <ele>376.0</ele>
        <time>2020-02-16T07:50:20Z</time>
      </trkpt>
      <trkpt lat="36.9559340" lon="-2.3983300">
        <ele>376.1</ele>
        <time>2020-02-16T07:50:21Z</time>
      </trkpt>
      <trkpt lat="36.9559430" lon="-2.3983320">
        <ele>376.2</ele>
        <time>2020-02-16T07:50:22Z</time>
      </trkpt>
      <trkpt lat="36.9559520" lon="-2.3983350">
        <ele>376.3</ele>
        <time>2020-02-16T07:50:23Z</time>
      </trkpt>
      <trkpt lat="36.9559610" lon="-2.3983370">
        <ele>376.4</ele>
        <time>2020-02-16T07:50:24Z</time>
      </trkpt>
      <trkpt lat="36.9559700" lon="-2.3983390">
        <ele>376.5</ele>
        <time>2020-02-16T07:50:25Z</time>
      </trkpt>
      <trkpt lat="36.9559790" lon="-2.3983420">
        <ele>376.6</ele>
        <time>2020-02-16T07:50:26Z</time>
      </trkpt>
      <trkpt lat="36.9559880" lon="-2.3983440">
        <ele>376.7</ele>
        <time>2020-02-16T07:50:27Z</time>
      </trkpt>
      <trkpt lat="36.9559980" lon="-2.3983470">
        <ele>376.8</ele>
        <time>2020-02-16T07:50:28Z</time>
      </trkpt>
      <trkpt lat="36.9560070" lon="-2.3983490">
        <ele>376.9</ele>
        <time>2020-02-16T07:50:30Z</time>
      </trkpt>
      <trkpt lat="36.9560160" lon="-2.3983520">
        <ele>377.0</ele>
        <time>2020-02-16T07:50:31Z</time>
      </trkpt>
      <trkpt lat="36.9560250" lon="-2.3983540">
        <ele>377.1</ele>
        <time>2020-02-16T07:50:32Z</time>
      </trkpt>
      <trkpt lat="36.9560340" lon="-2.3983560">
        <ele>377.2</ele>
        <time>2020-02-16T07:50:33Z</time>
      </trkpt>
      <trkpt lat="36.9560430" lon="-2.3983590">
        <ele>377.3</ele>
        <time>2020-02-16T07:50:34Z</time>
      </trkpt>
      <trkpt lat="36.9560520" lon="-2.3983610">
        <ele>377.4</ele>
        <time>2020-02-16T07:50:35Z</time>
      </trkpt>
      <trkpt lat="36.9560620" lon="-2.3983640">
        <ele>377.5</ele>
        <time>2020-02-16T07:50:36Z</time>
      </trkpt>
      <trkpt lat="36.9560710" lon="-2.3983660">
        <ele>377.6</ele>
        <time>2020-02-16T07:50:37Z</time>
      </trkpt>
      <trkpt lat="36.9560800" lon="-2.3983690">
        <ele>377.7</ele>
        <time>2020-02-16T07:50:38Z</time>
      </trkpt>
      <trkpt lat="36.9560890" lon="-2.3983710">
        <ele>377.8</ele>
        <time>2020-02-16T07:50:39Z</time>
      </trkpt>
      <trkpt lat="36.9560980" lon="-2.3983730">
        <ele>378.0</ele>
        <time>2020-02-16T07:50:40Z</time>
      </trkpt>
      <trkpt lat="36.9561070" lon="-2.3983760">
        <ele>378.1</ele>
        <time>2020-02-16T07:50:41Z</time>
      </trkpt>
      <trkpt lat="36.9561160" lon="-2.3983780">
        <ele>378.2</ele>
        <time>2020-02-16T07:50:42Z</time>
      </trkpt>
      <trkpt lat="36.9561260" lon="-2.3983810">
        <ele>378.3</ele>
        <time>2020-02-16T07:50:43Z</time>
      </trkpt>
      <trkpt lat="36.9561350" lon="-2.3983830">
        <ele>378.4</ele>
        <time>2020-02-16T07:50:44Z</time>
      </trkpt>
      <trkpt lat="36.9561440" lon="-2.3983860">
        <ele>378.5</ele>
        <time>2020-02-16T07:50:45Z</time>
      </trkpt>
      <trkpt lat="36.9561530" lon="-2.3983880">
        <ele>378.6</ele>
        <time>2020-02-16T07:50:46Z</time>
      </trkpt>
      <trkpt lat="36.9561620" lon="-2.3983900">
        <ele>378.8</ele>
        <time>2020-02-16T07:50:47Z</time>
      </trkpt>
      <trkpt lat="36.9561710" lon="-2.3983930">
        <ele>378.9</ele>
        <time>2020-02-16T07:50:48Z</time>
      </trkpt>
      <trkpt lat="36.9561800" lon="-2.3983950">
        <ele>379.0</ele>
        <time>2020-02-16T07:50:49Z</time>
      </trkpt>
      <trkpt lat="36.9561900" lon="-2.3983980">
        <ele>379.1</ele>
        <time>2020-02-16T07:50:50Z</time>
      </trkpt>
      <trkpt lat="36.9561990" lon="-2.3984000">
        <ele>379.2</ele>
        <time>2020-02-16T07:50:51Z</time>
      </trkpt>
      <trkpt lat="36.9562080" lon="-2.3984030">
        <ele>379.3</ele>
        <time>2020-02-16T07:50:53Z</time>
      </trkpt>
      <trkpt lat="36.9562170" lon="-2.3984050">
        <ele>379.4</ele>
        <time>2020-02-16T07:50:53Z</time>
      </trkpt>
      <trkpt lat="36.9562330" lon="-2.3984090">
        <ele>379.6</ele>
        <time>2020-02-16T07:50:54Z</time>
      </trkpt>
      <trkpt lat="36.9562400" lon="-2.3984110">
        <ele>379.7</ele>
        <time>2020-02-16T07:50:56Z</time>
      </trkpt>
      <trkpt lat="36.9562470" lon="-2.3984130">
        <ele>379.8</ele>
        <time>2020-02-16T07:50:56Z</time>
      </trkpt>
      <trkpt lat="36.9562690" lon="-2.3984160">
        <ele>380.0</ele>
        <time>2020-02-16T07:50:57Z</time>
      </trkpt>
      <trkpt lat="36.9562800" lon="-2.3984180">
        <ele>380.1</ele>
        <time>2020-02-16T07:50:58Z</time>
      </trkpt>
      <trkpt lat="36.9562900" lon="-2.3984200">
        <ele>380.2</ele>
        <time>2020-02-16T07:50:59Z</time>
      </trkpt>
      <trkpt lat="36.9563000" lon="-2.3984220">
        <ele>380.4</ele>
        <time>2020-02-16T07:51:00Z</time>
      </trkpt>
      <trkpt lat="36.9563100" lon="-2.3984240">
        <ele>380.5</ele>
        <time>2020-02-16T07:51:01Z</time>
      </trkpt>
      <trkpt lat="36.9563210" lon="-2.3984270">
        <ele>380.6</ele>
        <time>2020-02-16T07:51:02Z</time>
      </trkpt>
      <trkpt lat="36.9563310" lon="-2.3984290">
        <ele>380.7</ele>
        <time>2020-02-16T07:51:03Z</time>
      </trkpt>
      <trkpt lat="36.9563410" lon="-2.3984310">
        <ele>380.8</ele>
        <time>2020-02-16T07:51:04Z</time>
      </trkpt>
      <trkpt lat="36.9563510" lon="-2.3984330">
        <ele>380.9</ele>
        <time>2020-02-16T07:51:05Z</time>
      </trkpt>
      <trkpt lat="36.9563620" lon="-2.3984350">
        <ele>381.0</ele>
        <time>2020-02-16T07:51:07Z</time>
      </trkpt>
      <trkpt lat="36.9563720" lon="-2.3984370">
        <ele>381.2</ele>
        <time>2020-02-16T07:51:07Z</time>
      </trkpt>
      <trkpt lat="36.9563910" lon="-2.3984440">
        <ele>381.4</ele>
        <time>2020-02-16T07:51:08Z</time>
      </trkpt>
      <trkpt lat="36.9564010" lon="-2.3984470">
        <ele>381.5</ele>
        <time>2020-02-16T07:51:09Z</time>
      </trkpt>
      <trkpt lat="36.9564100" lon="-2.3984500">
        <ele>381.6</ele>
        <time>2020-02-16T07:51:10Z</time>
      </trkpt>
      <trkpt lat="36.9564190" lon="-2.3984530">
        <ele>381.7</ele>
        <time>2020-02-16T07:51:11Z</time>
      </trkpt>
      <trkpt lat="36.9564280" lon="-2.3984560">
        <ele>381.8</ele>
        <time>2020-02-16T07:51:12Z</time>
      </trkpt>
      <trkpt lat="36.9564380" lon="-2.3984590">
        <ele>381.9</ele>
        <time>2020-02-16T07:51:14Z</time>
      </trkpt>
      <trkpt lat="36.9564470" lon="-2.3984620">
        <ele>382.0</ele>
        <time>2020-02-16T07:51:14Z</time>
      </trkpt>
      <trkpt lat="36.9564690" lon="-2.3984570">
        <ele>382.2</ele>
        <time>2020-02-16T07:51:15Z</time>
      </trkpt>
      <trkpt lat="36.9564760" lon="-2.3984510">
        <ele>382.3</ele>
        <time>2020-02-16T07:51:17Z</time>
      </trkpt>
      <trkpt lat="36.9564840" lon="-2.3984440">
        <ele>382.4</ele>
        <time>2020-02-16T07:51:17Z</time>
      </trkpt>
      <trkpt lat="36.9564940" lon="-2.3984350">
        <ele>382.5</ele>
        <time>2020-02-16T07:51:18Z</time>
      </trkpt>
      <trkpt lat="36.9565000" lon="-2.3984300">
        <ele>382.6</ele>
        <time>2020-02-16T07:51:19Z</time>
      </trkpt>
      <trkpt lat="36.9565120" lon="-2.3984240">
        <ele>382.8</ele>
        <time>2020-02-16T07:51:20Z</time>
      </trkpt>
      <trkpt lat="36.9565220" lon="-2.3984150">
        <ele>383.1</ele>
        <time>2020-02-16T07:51:21Z</time>
      </trkpt>
      <trkpt lat="36.9565350" lon="-2.3984050">
        <ele>383.4</ele>
        <time>2020-02-16T07:51:22Z</time>
      </trkpt>
      <trkpt lat="36.9565390" lon="-2.3983970">
        <ele>383.6</ele>
        <time>2020-02-16T07:51:23Z</time>
      </trkpt>
      <trkpt lat="36.9565390" lon="-2.3983820">
        <ele>383.8</ele>
        <time>2020-02-16T07:51:24Z</time>
      </trkpt>
      <trkpt lat="36.9565400" lon="-2.3983600">
        <ele>384.2</ele>
        <time>2020-02-16T07:51:25Z</time>
      </trkpt>
      <trkpt lat="36.9565450" lon="-2.3983380">
        <ele>384.6</ele>
        <time>2020-02-16T07:51:26Z</time>
      </trkpt>
      <trkpt lat="36.9565470" lon="-2.3983280">
        <ele>384.8</ele>
        <time>2020-02-16T07:51:27Z</time>
      </trkpt>
      <trkpt lat="36.9565500" lon="-2.3983170">
        <ele>385.0</ele>
        <time>2020-02-16T07:51:28Z</time>
      </trkpt>
      <trkpt lat="36.9565530" lon="-2.3983060">
        <ele>385.2</ele>
        <time>2020-02-16T07:51:29Z</time>
      </trkpt>
      <trkpt lat="36.9565560" lon="-2.3982960">
        <ele>385.4</ele>
        <time>2020-02-16T07:51:30Z</time>
      </trkpt>
      <trkpt lat="36.9565580" lon="-2.3982850">
        <ele>385.6</ele>
        <time>2020-02-16T07:51:31Z</time>
      </trkpt>
      <trkpt lat="36.9565610" lon="-2.3982750">
        <ele>385.7</ele>
        <time>2020-02-16T07:51:32Z</time>
      </trkpt>
      <trkpt lat="36.9565640" lon="-2.3982640">
        <ele>385.9</ele>
        <time>2020-02-16T07:51:33Z</time>
      </trkpt>
      <trkpt lat="36.9565670" lon="-2.3982530">
        <ele>386.1</ele>
        <time>2020-02-16T07:51:34Z</time>
      </trkpt>
      <trkpt lat="36.9565690" lon="-2.3982430">
        <ele>386.3</ele>
        <time>2020-02-16T07:51:36Z</time>
      </trkpt>
      <trkpt lat="36.9565720" lon="-2.3982320">
        <ele>386.5</ele>
        <time>2020-02-16T07:51:36Z</time>
      </trkpt>
      <trkpt lat="36.9565790" lon="-2.3982170">
        <ele>386.9</ele>
        <time>2020-02-16T07:51:37Z</time>
      </trkpt>
      <trkpt lat="36.9565830" lon="-2.3982090">
        <ele>387.1</ele>
        <time>2020-02-16T07:51:38Z</time>
      </trkpt>
      <trkpt lat="36.9565880" lon="-2.3982000">
        <ele>387.3</ele>
        <time>2020-02-16T07:51:39Z</time>
      </trkpt>
      <trkpt lat="36.9565920" lon="-2.3981920">
        <ele>387.5</ele>
        <time>2020-02-16T07:51:41Z</time>
      </trkpt>
      <trkpt lat="36.9565960" lon="-2.3981840">
        <ele>387.7</ele>
        <time>2020-02-16T07:51:41Z</time>
      </trkpt>
      <trkpt lat="36.9566140" lon="-2.3981700">
        <ele>388.3</ele>
        <time>2020-02-16T07:51:43Z</time>
      </trkpt>
      <trkpt lat="36.9566250" lon="-2.3981650">
        <ele>388.6</ele>
        <time>2020-02-16T07:51:43Z</time>
      </trkpt>
      <trkpt lat="36.9566380" lon="-2.3981510">
        <ele>389.0</ele>
        <time>2020-02-16T07:51:44Z</time>
      </trkpt>
      <trkpt lat="36.9566450" lon="-2.3981450">
        <ele>389.3</ele>
        <time>2020-02-16T07:51:45Z</time>
      </trkpt>
      <trkpt lat="36.9566510" lon="-2.3981400">
        <ele>389.5</ele>
        <time>2020-02-16T07:51:46Z</time>
      </trkpt>
      <trkpt lat="36.9566580" lon="-2.3981340">
        <ele>389.7</ele>
        <time>2020-02-16T07:51:48Z</time>
      </trkpt>
      <trkpt lat="36.9566640" lon="-2.3981280">
        <ele>389.9</ele>
        <time>2020-02-16T07:51:48Z</time>
      </trkpt>
      <trkpt lat="36.9566770" lon="-2.3981130">
        <ele>390.4</ele>
        <time>2020-02-16T07:51:49Z</time>
      </trkpt>
      <trkpt lat="36.9566840" lon="-2.3981050">
        <ele>390.6</ele>
        <time>2020-02-16T07:51:50Z</time>
      </trkpt>
      <trkpt lat="36.9566910" lon="-2.3980980">
        <ele>390.9</ele>
        <time>2020-02-16T07:51:51Z</time>
      </trkpt>
      <trkpt lat="36.9566980" lon="-2.3980900">
        <ele>391.1</ele>
        <time>2020-02-16T07:51:52Z</time>
      </trkpt>
      <trkpt lat="36.9567050" lon="-2.3980830">
        <ele>391.3</ele>
        <time>2020-02-16T07:51:54Z</time>
      </trkpt>
      <trkpt lat="36.9567120" lon="-2.3980750">
        <ele>391.6</ele>
        <time>2020-02-16T07:51:54Z</time>
      </trkpt>
      <trkpt lat="36.9567270" lon="-2.3980620">
        <ele>392.1</ele>
        <time>2020-02-16T07:51:55Z</time>
      </trkpt>
      <trkpt lat="36.9567350" lon="-2.3980560">
        <ele>392.3</ele>
        <time>2020-02-16T07:51:57Z</time>
      </trkpt>
      <trkpt lat="36.9567420" lon="-2.3980490">
        <ele>392.6</ele>
        <time>2020-02-16T07:51:57Z</time>
      </trkpt>
      <trkpt lat="36.9567600" lon="-2.3980340">
        <ele>393.1</ele>
        <time>2020-02-16T07:51:58Z</time>
      </trkpt>
      <trkpt lat="36.9567660" lon="-2.3980280">
        <ele>393.3</ele>
        <time>2020-02-16T07:51:59Z</time>
      </trkpt>
      <trkpt lat="36.9567710" lon="-2.3980230">
        <ele>393.5</ele>
        <time>2020-02-16T07:52:01Z</time>
      </trkpt>
      <trkpt lat="36.9567770" lon="-2.3980170">
        <ele>393.7</ele>
        <time>2020-02-16T07:52:01Z</time>
      </trkpt>
      <trkpt lat="36.9567880" lon="-2.3980060">
        <ele>394.0</ele>
        <time>2020-02-16T07:52:02Z</time>
      </trkpt>
      <trkpt lat="36.9567910" lon="-2.3980040">
        <ele>394.1</ele>
        <time>2020-02-16T07:52:04Z</time>
      </trkpt>
      <trkpt lat="36.9567940" lon="-2.3980010">
        <ele>394.2</ele>
        <time>2020-02-16T07:52:04Z</time>
      </trkpt>
      <trkpt lat="36.9568080" lon="-2.3979890">
        <ele>394.6</ele>
        <time>2020-02-16T07:52:05Z</time>
      </trkpt>
      <trkpt lat="36.9568140" lon="-2.3979840">
        <ele>394.8</ele>
        <time>2020-02-16T07:52:06Z</time>
      </trkpt>
      <trkpt lat="36.9568190" lon="-2.3979790">
        <ele>395.0</ele>
        <time>2020-02-16T07:52:08Z</time>
      </trkpt>
      <trkpt lat="36.9568250" lon="-2.3979740">
        <ele>395.1</ele>
        <time>2020-02-16T07:52:08Z</time>
      </trkpt>
      <trkpt lat="36.9568410" lon="-2.3979610">
        <ele>395.6</ele>
        <time>2020-02-16T07:52:09Z</time>
      </trkpt>
      <trkpt lat="36.9568480" lon="-2.3979550">
        <ele>395.8</ele>
        <time>2020-02-16T07:52:10Z</time>
      </trkpt>
      <trkpt lat="36.9568540" lon="-2.3979500">
        <ele>396.0</ele>
        <time>2020-02-16T07:52:11Z</time>
      </trkpt>
      <trkpt lat="36.9568610" lon="-2.3979440">
        <ele>396.2</ele>
        <time>2020-02-16T07:52:13Z</time>
      </trkpt>
      <trkpt lat="36.9568670" lon="-2.3979390">
        <ele>396.3</ele>
        <time>2020-02-16T07:52:13Z</time>
      </trkpt>
      <trkpt lat="36.9568770" lon="-2.3979310">
        <ele>396.5</ele>
        <time>2020-02-16T07:52:14Z</time>
      </trkpt>
      <trkpt lat="36.9568850" lon="-2.3979240">
        <ele>396.7</ele>
        <time>2020-02-16T07:52:15Z</time>
      </trkpt>
      <trkpt lat="36.9569040" lon="-2.3979090">
        <ele>397.1</ele>
        <time>2020-02-16T07:52:16Z</time>
      </trkpt>
      <trkpt lat="36.9569200" lon="-2.3978970">
        <ele>397.4</ele>
        <time>2020-02-16T07:52:18Z</time>
      </trkpt>
      <trkpt lat="36.9569250" lon="-2.3978930">
        <ele>397.5</ele>
        <time>2020-02-16T07:52:18Z</time>
      </trkpt>
      <trkpt lat="36.9569440" lon="-2.3978800">
        <ele>397.9</ele>
        <time>2020-02-16T07:52:19Z</time>
      </trkpt>
      <trkpt lat="36.9569650" lon="-2.3978670">
        <ele>398.3</ele>
        <time>2020-02-16T07:52:21Z</time>
      </trkpt>
      <trkpt lat="36.9569700" lon="-2.3978630">
        <ele>398.4</ele>
        <time>2020-02-16T07:52:21Z</time>
      </trkpt>
      <trkpt lat="36.9569920" lon="-2.3978510">
        <ele>398.9</ele>
        <time>2020-02-16T07:52:22Z</time>
      </trkpt>
      <trkpt lat="36.9570020" lon="-2.3978460">
        <ele>399.2</ele>
        <time>2020-02-16T07:52:23Z</time>
      </trkpt>
      <trkpt lat="36.9570120" lon="-2.3978410">
        <ele>399.4</ele>
        <time>2020-02-16T07:52:24Z</time>
      </trkpt>
      <trkpt lat="36.9570230" lon="-2.3978370">
        <ele>399.7</ele>
        <time>2020-02-16T07:52:25Z</time>
      </trkpt>
      <trkpt lat="36.9570330" lon="-2.3978320">
        <ele>399.9</ele>
        <time>2020-02-16T07:52:26Z</time>
      </trkpt>
      <trkpt lat="36.9570430" lon="-2.3978270">
        <ele>400.1</ele>
        <time>2020-02-16T07:52:28Z</time>
      </trkpt>
      <trkpt lat="36.9570530" lon="-2.3978220">
        <ele>400.3</ele>
        <time>2020-02-16T07:52:28Z</time>
      </trkpt>
      <trkpt lat="36.9570780" lon="-2.3978170">
        <ele>400.8</ele>
        <time>2020-02-16T07:52:29Z</time>
      </trkpt>
      <trkpt lat="36.9570880" lon="-2.3978160">
        <ele>401.0</ele>
        <time>2020-02-16T07:52:30Z</time>
      </trkpt>
      <trkpt lat="36.9570990" lon="-2.3978150">
        <ele>401.2</ele>
        <time>2020-02-16T07:52:31Z</time>
      </trkpt>
      <trkpt lat="36.9571090" lon="-2.3978140">
        <ele>401.4</ele>
        <time>2020-02-16T07:52:32Z</time>
      </trkpt>
      <trkpt lat="36.9571200" lon="-2.3978130">
        <ele>401.6</ele>
        <time>2020-02-16T07:52:33Z</time>
      </trkpt>
      <trkpt lat="36.9571300" lon="-2.3978120">
        <ele>401.8</ele>
        <time>2020-02-16T07:52:34Z</time>
      </trkpt>
      <trkpt lat="36.9571410" lon="-2.3978110">
        <ele>402.0</ele>
        <time>2020-02-16T07:52:35Z</time>
      </trkpt>
      <trkpt lat="36.9571510" lon="-2.3978100">
        <ele>402.2</ele>
        <time>2020-02-16T07:52:36Z</time>
      </trkpt>
      <trkpt lat="36.9571620" lon="-2.3978090">
        <ele>402.4</ele>
        <time>2020-02-16T07:52:37Z</time>
      </trkpt>
      <trkpt lat="36.9571720" lon="-2.3978090">
        <ele>402.6</ele>
        <time>2020-02-16T07:52:38Z</time>
      </trkpt>
      <trkpt lat="36.9571830" lon="-2.3978080">
        <ele>402.8</ele>
        <time>2020-02-16T07:52:39Z</time>
      </trkpt>
      <trkpt lat="36.9571930" lon="-2.3978070">
        <ele>403.0</ele>
        <time>2020-02-16T07:52:40Z</time>
      </trkpt>
      <trkpt lat="36.9572040" lon="-2.3978060">
        <ele>403.2</ele>
        <time>2020-02-16T07:52:41Z</time>
      </trkpt>
      <trkpt lat="36.9572140" lon="-2.3978050">
        <ele>403.4</ele>
        <time>2020-02-16T07:52:42Z</time>
      </trkpt>
      <trkpt lat="36.9572250" lon="-2.3978040">
        <ele>403.6</ele>
        <time>2020-02-16T07:52:43Z</time>
      </trkpt>
      <trkpt lat="36.9572350" lon="-2.3978030">
        <ele>403.8</ele>
        <time>2020-02-16T07:52:44Z</time>
      </trkpt>
      <trkpt lat="36.9572460" lon="-2.3978020">
        <ele>404.0</ele>
        <time>2020-02-16T07:52:45Z</time>
      </trkpt>
      <trkpt lat="36.9572560" lon="-2.3978010">
        <ele>404.1</ele>
        <time>2020-02-16T07:52:46Z</time>
      </trkpt>
      <trkpt lat="36.9572670" lon="-2.3978000">
        <ele>404.3</ele>
        <time>2020-02-16T07:52:48Z</time>
      </trkpt>
      <trkpt lat="36.9572770" lon="-2.3977990">
        <ele>404.5</ele>
        <time>2020-02-16T07:52:48Z</time>
      </trkpt>
      <trkpt lat="36.9572880" lon="-2.3977970">
        <ele>404.7</ele>
        <time>2020-02-16T07:52:49Z</time>
      </trkpt>
      <trkpt lat="36.9573070" lon="-2.3977930">
        <ele>405.1</ele>
        <time>2020-02-16T07:52:50Z</time>
      </trkpt>
      <trkpt lat="36.9573290" lon="-2.3977880">
        <ele>405.4</ele>
        <time>2020-02-16T07:52:52Z</time>
      </trkpt>
      <trkpt lat="36.9573350" lon="-2.3977860">
        <ele>405.6</ele>
        <time>2020-02-16T07:52:52Z</time>
      </trkpt>
      <trkpt lat="36.9573470" lon="-2.3977840">
        <ele>405.8</ele>
        <time>2020-02-16T07:52:53Z</time>
      </trkpt>
      <trkpt lat="36.9573550" lon="-2.3977830">
        <ele>405.9</ele>
        <time>2020-02-16T07:52:54Z</time>
      </trkpt>
      <trkpt lat="36.9573630" lon="-2.3977820">
        <ele>406.0</ele>
        <time>2020-02-16T07:52:55Z</time>
      </trkpt>
      <trkpt lat="36.9573750" lon="-2.3977810">
        <ele>406.2</ele>
        <time>2020-02-16T07:52:56Z</time>
      </trkpt>
      <trkpt lat="36.9573870" lon="-2.3977780">
        <ele>406.4</ele>
        <time>2020-02-16T07:52:57Z</time>
      </trkpt>
      <trkpt lat="36.9573980" lon="-2.3977770">
        <ele>406.6</ele>
        <time>2020-02-16T07:52:58Z</time>
      </trkpt>
      <trkpt lat="36.9574150" lon="-2.3977730">
        <ele>406.9</ele>
        <time>2020-02-16T07:52:59Z</time>
      </trkpt>
      <trkpt lat="36.9574330" lon="-2.3977700">
        <ele>407.2</ele>
        <time>2020-02-16T07:53:00Z</time>
      </trkpt>
      <trkpt lat="36.9574540" lon="-2.3977660">
        <ele>407.6</ele>
        <time>2020-02-16T07:53:01Z</time>
      </trkpt>
      <trkpt lat="36.9574640" lon="-2.3977650">
        <ele>407.7</ele>
        <time>2020-02-16T07:53:02Z</time>
      </trkpt>
      <trkpt lat="36.9574750" lon="-2.3977630">
        <ele>407.9</ele>
        <time>2020-02-16T07:53:03Z</time>
      </trkpt>
      <trkpt lat="36.9574860" lon="-2.3977610">
        <ele>408.1</ele>
        <time>2020-02-16T07:53:04Z</time>
      </trkpt>
      <trkpt lat="36.9574960" lon="-2.3977600">
        <ele>408.2</ele>
        <time>2020-02-16T07:53:05Z</time>
      </trkpt>
      <trkpt lat="36.9575070" lon="-2.3977580">
        <ele>408.4</ele>
        <time>2020-02-16T07:53:06Z</time>
      </trkpt>
      <trkpt lat="36.9575180" lon="-2.3977570">
        <ele>408.6</ele>
        <time>2020-02-16T07:53:07Z</time>
      </trkpt>
      <trkpt lat="36.9575280" lon="-2.3977550">
        <ele>408.8</ele>
        <time>2020-02-16T07:53:08Z</time>
      </trkpt>
      <trkpt lat="36.9575390" lon="-2.3977530">
        <ele>408.9</ele>
        <time>2020-02-16T07:53:09Z</time>
      </trkpt>
      <trkpt lat="36.9575490" lon="-2.3977520">
        <ele>409.1</ele>
        <time>2020-02-16T07:53:10Z</time>
      </trkpt>
      <trkpt lat="36.9575600" lon="-2.3977500">
        <ele>409.3</ele>
        <time>2020-02-16T07:53:11Z</time>
      </trkpt>
      <trkpt lat="36.9575710" lon="-2.3977480">
        <ele>409.5</ele>
        <time>2020-02-16T07:53:12Z</time>
      </trkpt>
      <trkpt lat="36.9575810" lon="-2.3977470">
        <ele>409.6</ele>
        <time>2020-02-16T07:53:14Z</time>
      </trkpt>
      <trkpt lat="36.9575920" lon="-2.3977450">
        <ele>409.8</ele>
        <time>2020-02-16T07:53:14Z</time>
      </trkpt>
      <trkpt lat="36.9576050" lon="-2.3977450">
        <ele>410.0</ele>
        <time>2020-02-16T07:53:15Z</time>
      </trkpt>
      <trkpt lat="36.9576150" lon="-2.3977450">
        <ele>410.2</ele>
        <time>2020-02-16T07:53:16Z</time>
      </trkpt>
      <trkpt lat="36.9576300" lon="-2.3977450">
        <ele>410.4</ele>
        <time>2020-02-16T07:53:17Z</time>
      </trkpt>
      <trkpt lat="36.9576520" lon="-2.3977440">
        <ele>410.8</ele>
        <time>2020-02-16T07:53:18Z</time>
      </trkpt>
      <trkpt lat="36.9576780" lon="-2.3977440">
        <ele>411.2</ele>
        <time>2020-02-16T07:53:19Z</time>
      </trkpt>
      <trkpt lat="36.9576890" lon="-2.3977440">
        <ele>411.4</ele>
        <time>2020-02-16T07:53:21Z</time>
      </trkpt>
      <trkpt lat="36.9577000" lon="-2.3977440">
        <ele>411.6</ele>
        <time>2020-02-16T07:53:21Z</time>
      </trkpt>
      <trkpt lat="36.9577120" lon="-2.3977450">
        <ele>411.8</ele>
        <time>2020-02-16T07:53:22Z</time>
      </trkpt>
      <trkpt lat="36.9577300" lon="-2.3977590">
        <ele>412.1</ele>
        <time>2020-02-16T07:53:23Z</time>
      </trkpt>
      <trkpt lat="36.9577550" lon="-2.3977540">
        <ele>412.5</ele>
        <time>2020-02-16T07:53:25Z</time>
      </trkpt>
      <trkpt lat="36.9577650" lon="-2.3977510">
        <ele>412.7</ele>
        <time>2020-02-16T07:53:25Z</time>
      </trkpt>
      <trkpt lat="36.9577830" lon="-2.3977470">
        <ele>413.0</ele>
        <time>2020-02-16T07:53:26Z</time>
      </trkpt>
      <trkpt lat="36.9578000" lon="-2.3977430">
        <ele>413.3</ele>
        <time>2020-02-16T07:53:27Z</time>
      </trkpt>
      <trkpt lat="36.9578250" lon="-2.3977380">
        <ele>413.7</ele>
        <time>2020-02-16T07:53:28Z</time>
      </trkpt>
      <trkpt lat="36.9578430" lon="-2.3977320">
        <ele>414.0</ele>
        <time>2020-02-16T07:53:29Z</time>
      </trkpt>
      <trkpt lat="36.9578600" lon="-2.3977280">
        <ele>414.3</ele>
        <time>2020-02-16T07:53:29Z</time>
      </trkpt>
      <trkpt lat="36.9578750" lon="-2.3977240">
        <ele>414.5</ele>
        <time>2020-02-16T07:53:30Z</time>
      </trkpt>
      <trkpt lat="36.9578960" lon="-2.3977180">
        <ele>414.9</ele>
        <time>2020-02-16T07:53:31Z</time>
      </trkpt>
      <trkpt lat="36.9579150" lon="-2.3977150">
        <ele>415.2</ele>
        <time>2020-02-16T07:53:32Z</time>
      </trkpt>
      <trkpt lat="36.9579350" lon="-2.3977120">
        <ele>415.6</ele>
        <time>2020-02-16T07:53:33Z</time>
      </trkpt>
      <trkpt lat="36.9579530" lon="-2.3977090">
        <ele>415.9</ele>
        <time>2020-02-16T07:53:34Z</time>
      </trkpt>
      <trkpt lat="36.9579830" lon="-2.3977030">
        <ele>416.5</ele>
        <time>2020-02-16T07:53:35Z</time>
      </trkpt>
      <trkpt lat="36.9579960" lon="-2.3976990">
        <ele>416.7</ele>
        <time>2020-02-16T07:53:36Z</time>
      </trkpt>
      <trkpt lat="36.9580080" lon="-2.3976960">
        <ele>416.9</ele>
        <time>2020-02-16T07:53:38Z</time>
      </trkpt>
      <trkpt lat="36.9580210" lon="-2.3976920">
        <ele>417.2</ele>
        <time>2020-02-16T07:53:38Z</time>
      </trkpt>
      <trkpt lat="36.9580410" lon="-2.3976870">
        <ele>417.6</ele>
        <time>2020-02-16T07:53:39Z</time>
      </trkpt>
      <trkpt lat="36.9580560" lon="-2.3976810">
        <ele>417.9</ele>
        <time>2020-02-16T07:53:40Z</time>
      </trkpt>
      <trkpt lat="36.9580730" lon="-2.3976750">
        <ele>418.2</ele>
        <time>2020-02-16T07:53:41Z</time>
      </trkpt>
      <trkpt lat="36.9580900" lon="-2.3976690">
        <ele>418.6</ele>
        <time>2020-02-16T07:53:42Z</time>
      </trkpt>
      <trkpt lat="36.9581130" lon="-2.3976610">
        <ele>419.0</ele>
        <time>2020-02-16T07:53:43Z</time>
      </trkpt>
      <trkpt lat="36.9581330" lon="-2.3976540">
        <ele>419.4</ele>
        <time>2020-02-16T07:53:44Z</time>
      </trkpt>
      <trkpt lat="36.9581500" lon="-2.3976470">
        <ele>419.8</ele>
        <time>2020-02-16T07:53:45Z</time>
      </trkpt>
      <trkpt lat="36.9581610" lon="-2.3976410">
        <ele>420.0</ele>
        <time>2020-02-16T07:53:46Z</time>
      </trkpt>
      <trkpt lat="36.9581750" lon="-2.3976340">
        <ele>420.3</ele>
        <time>2020-02-16T07:53:47Z</time>
      </trkpt>
      <trkpt lat="36.9581910" lon="-2.3976250">
        <ele>420.7</ele>
        <time>2020-02-16T07:53:48Z</time>
      </trkpt>
      <trkpt lat="36.9582110" lon="-2.3976150">
        <ele>421.1</ele>
        <time>2020-02-16T07:53:49Z</time>
      </trkpt>
      <trkpt lat="36.9582230" lon="-2.3976080">
        <ele>421.4</ele>
        <time>2020-02-16T07:53:50Z</time>
      </trkpt>
      <trkpt lat="36.9582460" lon="-2.3975980">
        <ele>421.9</ele>
        <time>2020-02-16T07:53:51Z</time>
      </trkpt>
      <trkpt lat="36.9582650" lon="-2.3975890">
        <ele>422.3</ele>
        <time>2020-02-16T07:53:52Z</time>
      </trkpt>
      <trkpt lat="36.9582920" lon="-2.3975760">
        <ele>422.9</ele>
        <time>2020-02-16T07:53:53Z</time>
      </trkpt>
      <trkpt lat="36.9583040" lon="-2.3975700">
        <ele>423.2</ele>
        <time>2020-02-16T07:53:55Z</time>
      </trkpt>
      <trkpt lat="36.9583150" lon="-2.3975640">
        <ele>423.4</ele>
        <time>2020-02-16T07:53:55Z</time>
      </trkpt>
      <trkpt lat="36.9583310" lon="-2.3975540">
        <ele>423.8</ele>
        <time>2020-02-16T07:53:56Z</time>
      </trkpt>
      <trkpt lat="36.9583460" lon="-2.3975460">
        <ele>424.1</ele>
        <time>2020-02-16T07:53:57Z</time>
      </trkpt>
      <trkpt lat="36.9583650" lon="-2.3975350">
        <ele>424.5</ele>
        <time>2020-02-16T07:53:58Z</time>
      </trkpt>
      <trkpt lat="36.9583920" lon="-2.3975210">
        <ele>425.1</ele>
        <time>2020-02-16T07:54:00Z</time>
      </trkpt>
      <trkpt lat="36.9584000" lon="-2.3975160">
        <ele>425.3</ele>
        <time>2020-02-16T07:54:00Z</time>
      </trkpt>
      <trkpt lat="36.9584230" lon="-2.3975030">
        <ele>425.8</ele>
        <time>2020-02-16T07:54:01Z</time>
      </trkpt>
      <trkpt lat="36.9584480" lon="-2.3974890">
        <ele>426.4</ele>
        <time>2020-02-16T07:54:02Z</time>
      </trkpt>
      <trkpt lat="36.9584590" lon="-2.3974830">
        <ele>426.6</ele>
        <time>2020-02-16T07:54:04Z</time>
      </trkpt>
      <trkpt lat="36.9584710" lon="-2.3974760">
        <ele>426.9</ele>
        <time>2020-02-16T07:54:04Z</time>
      </trkpt>
      <trkpt lat="36.9584860" lon="-2.3974690">
        <ele>427.2</ele>
        <time>2020-02-16T07:54:05Z</time>
      </trkpt>
      <trkpt lat="36.9585010" lon="-2.3974610">
        <ele>427.5</ele>
        <time>2020-02-16T07:54:06Z</time>
      </trkpt>
      <trkpt lat="36.9585160" lon="-2.3974550">
        <ele>427.9</ele>
        <time>2020-02-16T07:54:07Z</time>
      </trkpt>
      <trkpt lat="36.9585300" lon="-2.3974490">
        <ele>428.2</ele>
        <time>2020-02-16T07:54:08Z</time>
      </trkpt>
      <trkpt lat="36.9585450" lon="-2.3974420">
        <ele>428.5</ele>
        <time>2020-02-16T07:54:09Z</time>
      </trkpt>
      <trkpt lat="36.9585580" lon="-2.3974380">
        <ele>428.8</ele>
        <time>2020-02-16T07:54:10Z</time>
      </trkpt>
      <trkpt lat="36.9585750" lon="-2.3974310">
        <ele>429.2</ele>
        <time>2020-02-16T07:54:11Z</time>
      </trkpt>
      <trkpt lat="36.9585880" lon="-2.3974250">
        <ele>429.4</ele>
        <time>2020-02-16T07:54:12Z</time>
      </trkpt>
      <trkpt lat="36.9586000" lon="-2.3974190">
        <ele>429.7</ele>
        <time>2020-02-16T07:54:13Z</time>
      </trkpt>
      <trkpt lat="36.9586110" lon="-2.3974130">
        <ele>429.9</ele>
        <time>2020-02-16T07:54:14Z</time>
      </trkpt>
      <trkpt lat="36.9586230" lon="-2.3974070">
        <ele>430.1</ele>
        <time>2020-02-16T07:54:15Z</time>
      </trkpt>
      <trkpt lat="36.9586380" lon="-2.3974020">
        <ele>430.4</ele>
        <time>2020-02-16T07:54:16Z</time>
      </trkpt>
      <trkpt lat="36.9586460" lon="-2.3973990">
        <ele>430.6</ele>
        <time>2020-02-16T07:54:17Z</time>
      </trkpt>
      <trkpt lat="36.9586560" lon="-2.3973960">
        <ele>430.8</ele>
        <time>2020-02-16T07:54:18Z</time>
      </trkpt>
      <trkpt lat="36.9586710" lon="-2.3973920">
        <ele>431.1</ele>
        <time>2020-02-16T07:54:19Z</time>
      </trkpt>
      <trkpt lat="36.9586910" lon="-2.3973840">
        <ele>431.4</ele>
        <time>2020-02-16T07:54:20Z</time>
      </trkpt>
      <trkpt lat="36.9587160" lon="-2.3973790">
        <ele>431.8</ele>
        <time>2020-02-16T07:54:21Z</time>
      </trkpt>
      <trkpt lat="36.9587230" lon="-2.3973790">
        <ele>431.8</ele>
        <time>2020-02-16T07:54:22Z</time>
      </trkpt>
      <trkpt lat="36.9587310" lon="-2.3973780">
        <ele>431.9</ele>
        <time>2020-02-16T07:54:24Z</time>
      </trkpt>
      <trkpt lat="36.9587380" lon="-2.3973770">
        <ele>432.0</ele>
        <time>2020-02-16T07:54:24Z</time>
      </trkpt>
      <trkpt lat="36.9587550" lon="-2.3973750">
        <ele>432.2</ele>
        <time>2020-02-16T07:54:26Z</time>
      </trkpt>
      <trkpt lat="36.9587600" lon="-2.3973740">
        <ele>432.3</ele>
        <time>2020-02-16T07:54:26Z</time>
      </trkpt>
      <trkpt lat="36.9587790" lon="-2.3973710">
        <ele>432.5</ele>
        <time>2020-02-16T07:54:27Z</time>
      </trkpt>
      <trkpt lat="36.9587910" lon="-2.3973670">
        <ele>432.7</ele>
        <time>2020-02-16T07:54:28Z</time>
      </trkpt>
      <trkpt lat="36.9588020" lon="-2.3973640">
        <ele>432.8</ele>
        <time>2020-02-16T07:54:29Z</time>
      </trkpt>
      <trkpt lat="36.9588130" lon="-2.3973610">
        <ele>433.0</ele>
        <time>2020-02-16T07:54:30Z</time>
      </trkpt>
      <trkpt lat="36.9588250" lon="-2.3973570">
        <ele>433.1</ele>
        <time>2020-02-16T07:54:31Z</time>
      </trkpt>
      <trkpt lat="36.9588360" lon="-2.3973540">
        <ele>433.3</ele>
        <time>2020-02-16T07:54:32Z</time>
      </trkpt>
      <trkpt lat="36.9588470" lon="-2.3973510">
        <ele>433.4</ele>
        <time>2020-02-16T07:54:33Z</time>
      </trkpt>
      <trkpt lat="36.9588590" lon="-2.3973470">
        <ele>433.6</ele>
        <time>2020-02-16T07:54:34Z</time>
      </trkpt>
      <trkpt lat="36.9588700" lon="-2.3973440">
        <ele>433.7</ele>
        <time>2020-02-16T07:54:35Z</time>
      </trkpt>
      <trkpt lat="36.9588810" lon="-2.3973410">
        <ele>433.8</ele>
        <time>2020-02-16T07:54:36Z</time>
      </trkpt>
      <trkpt lat="36.9588930" lon="-2.3973370">
        <ele>434.0</ele>
        <time>2020-02-16T07:54:37Z</time>
      </trkpt>
      <trkpt lat="36.9589040" lon="-2.3973340">
        <ele>434.1</ele>
        <time>2020-02-16T07:54:38Z</time>
      </trkpt>
      <trkpt lat="36.9589160" lon="-2.3973300">
        <ele>434.2</ele>
        <time>2020-02-16T07:54:39Z</time>
      </trkpt>
      <trkpt lat="36.9589270" lon="-2.3973270">
        <ele>434.3</ele>
        <time>2020-02-16T07:54:40Z</time>
      </trkpt>
      <trkpt lat="36.9589380" lon="-2.3973240">
        <ele>434.5</ele>
        <time>2020-02-16T07:54:41Z</time>
      </trkpt>
      <trkpt lat="36.9589500" lon="-2.3973200">
        <ele>434.6</ele>
        <time>2020-02-16T07:54:42Z</time>
      </trkpt>
      <trkpt lat="36.9589610" lon="-2.3973170">
        <ele>434.7</ele>
        <time>2020-02-16T07:54:43Z</time>
      </trkpt>
      <trkpt lat="36.9589720" lon="-2.3973140">
        <ele>434.8</ele>
        <time>2020-02-16T07:54:44Z</time>
      </trkpt>
      <trkpt lat="36.9589840" lon="-2.3973100">
        <ele>435.0</ele>
        <time>2020-02-16T07:54:45Z</time>
      </trkpt>
      <trkpt lat="36.9589950" lon="-2.3973070">
        <ele>435.1</ele>
        <time>2020-02-16T07:54:46Z</time>
      </trkpt>
      <trkpt lat="36.9590060" lon="-2.3973040">
        <ele>435.2</ele>
        <time>2020-02-16T07:54:47Z</time>
      </trkpt>
      <trkpt lat="36.9590180" lon="-2.3973000">
        <ele>435.4</ele>
        <time>2020-02-16T07:54:49Z</time>
      </trkpt>
      <trkpt lat="36.9590290" lon="-2.3972970">
        <ele>435.5</ele>
        <time>2020-02-16T07:54:49Z</time>
      </trkpt>
      <trkpt lat="36.9590410" lon="-2.3972920">
        <ele>435.6</ele>
        <time>2020-02-16T07:54:50Z</time>
      </trkpt>
      <trkpt lat="36.9590560" lon="-2.3972850">
        <ele>435.8</ele>
        <time>2020-02-16T07:54:51Z</time>
      </trkpt>
      <trkpt lat="36.9590690" lon="-2.3972770">
        <ele>435.9</ele>
        <time>2020-02-16T07:54:52Z</time>
      </trkpt>
      <trkpt lat="36.9590840" lon="-2.3972700">
        <ele>436.1</ele>
        <time>2020-02-16T07:54:53Z</time>
      </trkpt>
      <trkpt lat="36.9591010" lon="-2.3972620">
        <ele>436.4</ele>
        <time>2020-02-16T07:54:54Z</time>
      </trkpt>
      <trkpt lat="36.9591210" lon="-2.3972510">
        <ele>436.7</ele>
        <time>2020-02-16T07:54:55Z</time>
      </trkpt>
      <trkpt lat="36.9591290" lon="-2.3972480">
        <ele>436.8</ele>
        <time>2020-02-16T07:54:57Z</time>
      </trkpt>
      <trkpt lat="36.9591360" lon="-2.3972450">
        <ele>436.9</ele>
        <time>2020-02-16T07:54:57Z</time>
      </trkpt>
      <trkpt lat="36.9591480" lon="-2.3972410">
        <ele>437.1</ele>
        <time>2020-02-16T07:54:58Z</time>
      </trkpt>
      <trkpt lat="36.9591530" lon="-2.3972390">
        <ele>437.2</ele>
        <time>2020-02-16T07:55:00Z</time>
      </trkpt>
      <trkpt lat="36.9591580" lon="-2.3972380">
        <ele>437.2</ele>
        <time>2020-02-16T07:55:00Z</time>
      </trkpt>
      <trkpt lat="36.9591580" lon="-2.3972390">
        <ele>437.2</ele>
        <time>2020-02-16T07:55:01Z</time>
      </trkpt>
      <trkpt lat="36.9591580" lon="-2.3972410">
        <ele>437.3</ele>
        <time>2020-02-16T07:55:02Z</time>
      </trkpt>
      <trkpt lat="36.9591580" lon="-2.3972430">
        <ele>437.3</ele>
        <time>2020-02-16T07:55:03Z</time>
      </trkpt>
      <trkpt lat="36.9591580" lon="-2.3972450">
        <ele>437.3</ele>
        <time>2020-02-16T07:55:04Z</time>
      </trkpt>
      <trkpt lat="36.9591590" lon="-2.3972480">
        <ele>437.3</ele>
        <time>2020-02-16T07:55:05Z</time>
      </trkpt>
      <trkpt lat="36.9591590" lon="-2.3972500">
        <ele>437.4</ele>
        <time>2020-02-16T07:55:06Z</time>
      </trkpt>
      <trkpt lat="36.9591590" lon="-2.3972520">
        <ele>437.4</ele>
        <time>2020-02-16T07:55:09Z</time>
      </trkpt>
      <trkpt lat="36.9591590" lon="-2.3972540">
        <ele>437.4</ele>
        <time>2020-02-16T07:55:11Z</time>
      </trkpt>
      <trkpt lat="36.9591590" lon="-2.3972560">
        <ele>437.4</ele>
        <time>2020-02-16T07:55:11Z</time>
      </trkpt>
      <trkpt lat="36.9591790" lon="-2.3972620">
        <ele>437.7</ele>
        <time>2020-02-16T07:55:12Z</time>
      </trkpt>
      <trkpt lat="36.9591860" lon="-2.3972650">
        <ele>437.8</ele>
        <time>2020-02-16T07:55:13Z</time>
      </trkpt>
      <trkpt lat="36.9591940" lon="-2.3972690">
        <ele>437.9</ele>
        <time>2020-02-16T07:55:15Z</time>
      </trkpt>
      <trkpt lat="36.9592010" lon="-2.3972730">
        <ele>438.0</ele>
        <time>2020-02-16T07:55:15Z</time>
      </trkpt>
      <trkpt lat="36.9592200" lon="-2.3972810">
        <ele>438.3</ele>
        <time>2020-02-16T07:55:16Z</time>
      </trkpt>
      <trkpt lat="36.9592270" lon="-2.3972840">
        <ele>438.3</ele>
        <time>2020-02-16T07:55:17Z</time>
      </trkpt>
      <trkpt lat="36.9592350" lon="-2.3972860">
        <ele>438.4</ele>
        <time>2020-02-16T07:55:18Z</time>
      </trkpt>
      <trkpt lat="36.9592420" lon="-2.3972890">
        <ele>438.5</ele>
        <time>2020-02-16T07:55:19Z</time>
      </trkpt>
      <trkpt lat="36.9592490" lon="-2.3972920">
        <ele>438.6</ele>
        <time>2020-02-16T07:55:20Z</time>
      </trkpt>
      <trkpt lat="36.9592560" lon="-2.3972950">
        <ele>438.7</ele>
        <time>2020-02-16T07:55:21Z</time>
      </trkpt>
      <trkpt lat="36.9592640" lon="-2.3972970">
        <ele>438.8</ele>
        <time>2020-02-16T07:55:23Z</time>
      </trkpt>
      <trkpt lat="36.9592710" lon="-2.3973000">
        <ele>438.9</ele>
        <time>2020-02-16T07:55:24Z</time>
      </trkpt>
      <trkpt lat="36.9592780" lon="-2.3973030">
        <ele>439.1</ele>
        <time>2020-02-16T07:55:24Z</time>
      </trkpt>
      <trkpt lat="36.9592980" lon="-2.3973100">
        <ele>439.4</ele>
        <time>2020-02-16T07:55:25Z</time>
      </trkpt>
      <trkpt lat="36.9593070" lon="-2.3973130">
        <ele>439.5</ele>
        <time>2020-02-16T07:55:26Z</time>
      </trkpt>
      <trkpt lat="36.9593170" lon="-2.3973160">
        <ele>439.7</ele>
        <time>2020-02-16T07:55:27Z</time>
      </trkpt>
      <trkpt lat="36.9593260" lon="-2.3973190">
        <ele>439.9</ele>
        <time>2020-02-16T07:55:28Z</time>
      </trkpt>
      <trkpt lat="36.9593360" lon="-2.3973220">
        <ele>440.0</ele>
        <time>2020-02-16T07:55:29Z</time>
      </trkpt>
      <trkpt lat="36.9593460" lon="-2.3973250">
        <ele>440.1</ele>
        <time>2020-02-16T07:55:30Z</time>
      </trkpt>
      <trkpt lat="36.9593550" lon="-2.3973280">
        <ele>440.1</ele>
        <time>2020-02-16T07:55:31Z</time>
      </trkpt>
      <trkpt lat="36.9593650" lon="-2.3973310">
        <ele>440.2</ele>
        <time>2020-02-16T07:55:32Z</time>
      </trkpt>
      <trkpt lat="36.9593740" lon="-2.3973340">
        <ele>440.3</ele>
        <time>2020-02-16T07:55:33Z</time>
      </trkpt>
      <trkpt lat="36.9593840" lon="-2.3973370">
        <ele>440.4</ele>
        <time>2020-02-16T07:55:34Z</time>
      </trkpt>
      <trkpt lat="36.9593930" lon="-2.3973400">
        <ele>440.4</ele>
        <time>2020-02-16T07:55:36Z</time>
      </trkpt>
      <trkpt lat="36.9594030" lon="-2.3973430">
        <ele>440.5</ele>
        <time>2020-02-16T07:55:36Z</time>
      </trkpt>
      <trkpt lat="36.9594200" lon="-2.3973470">
        <ele>440.6</ele>
        <time>2020-02-16T07:55:37Z</time>
      </trkpt>
      <trkpt lat="36.9594260" lon="-2.3973490">
        <ele>440.7</ele>
        <time>2020-02-16T07:55:39Z</time>
      </trkpt>
      <trkpt lat="36.9594330" lon="-2.3973500">
        <ele>440.7</ele>
        <time>2020-02-16T07:55:39Z</time>
      </trkpt>
      <trkpt lat="36.9594550" lon="-2.3973540">
        <ele>440.9</ele>
        <time>2020-02-16T07:55:40Z</time>
      </trkpt>
      <trkpt lat="36.9594660" lon="-2.3973560">
        <ele>441.0</ele>
        <time>2020-02-16T07:55:41Z</time>
      </trkpt>
      <trkpt lat="36.9594780" lon="-2.3973580">
        <ele>441.0</ele>
        <time>2020-02-16T07:55:42Z</time>
      </trkpt>
      <trkpt lat="36.9594900" lon="-2.3973610">
        <ele>441.1</ele>
        <time>2020-02-16T07:55:43Z</time>
      </trkpt>
      <trkpt lat="36.9595010" lon="-2.3973630">
        <ele>441.2</ele>
        <time>2020-02-16T07:55:45Z</time>
      </trkpt>
      <trkpt lat="36.9595130" lon="-2.3973650">
        <ele>441.3</ele>
        <time>2020-02-16T07:55:45Z</time>
      </trkpt>
      <trkpt lat="36.9595260" lon="-2.3973490">
        <ele>441.4</ele>
        <time>2020-02-16T07:55:46Z</time>
      </trkpt>
      <trkpt lat="36.9595470" lon="-2.3973430">
        <ele>441.6</ele>
        <time>2020-02-16T07:55:47Z</time>
      </trkpt>
      <trkpt lat="36.9595560" lon="-2.3973400">
        <ele>441.7</ele>
        <time>2020-02-16T07:55:48Z</time>
      </trkpt>
      <trkpt lat="36.9595650" lon="-2.3973370">
        <ele>441.8</ele>
        <time>2020-02-16T07:55:49Z</time>
      </trkpt>
      <trkpt lat="36.9595740" lon="-2.3973340">
        <ele>441.8</ele>
        <time>2020-02-16T07:55:50Z</time>
      </trkpt>
      <trkpt lat="36.9595830" lon="-2.3973310">
        <ele>441.9</ele>
        <time>2020-02-16T07:55:51Z</time>
      </trkpt>
      <trkpt lat="36.9595910" lon="-2.3973290">
        <ele>442.0</ele>
        <time>2020-02-16T07:55:52Z</time>
      </trkpt>
      <trkpt lat="36.9596000" lon="-2.3973260">
        <ele>442.0</ele>
        <time>2020-02-16T07:55:53Z</time>
      </trkpt>
      <trkpt lat="36.9596090" lon="-2.3973230">
        <ele>442.1</ele>
        <time>2020-02-16T07:55:54Z</time>
      </trkpt>
      <trkpt lat="36.9596180" lon="-2.3973200">
        <ele>442.2</ele>
        <time>2020-02-16T07:55:55Z</time>
      </trkpt>
      <trkpt lat="36.9596270" lon="-2.3973170">
        <ele>442.3</ele>
        <time>2020-02-16T07:55:57Z</time>
      </trkpt>
      <trkpt lat="36.9596360" lon="-2.3973140">
        <ele>442.4</ele>
        <time>2020-02-16T07:55:57Z</time>
      </trkpt>
      <trkpt lat="36.9596470" lon="-2.3973070">
        <ele>442.5</ele>
        <time>2020-02-16T07:55:58Z</time>
      </trkpt>
      <trkpt lat="36.9596520" lon="-2.3973030">
        <ele>442.5</ele>
        <time>2020-02-16T07:56:00Z</time>
      </trkpt>
      <trkpt lat="36.9596570" lon="-2.3973000">
        <ele>442.6</ele>
        <time>2020-02-16T07:56:00Z</time>
      </trkpt>
      <trkpt lat="36.9596640" lon="-2.3972930">
        <ele>442.6</ele>
        <time>2020-02-16T07:56:01Z</time>
      </trkpt>
      <trkpt lat="36.9596710" lon="-2.3972860">
        <ele>442.7</ele>
        <time>2020-02-16T07:56:02Z</time>
      </trkpt>
      <trkpt lat="36.9596790" lon="-2.3972530">
        <ele>442.9</ele>
        <time>2020-02-16T07:56:03Z</time>
      </trkpt>
      <trkpt lat="36.9596890" lon="-2.3972370">
        <ele>443.1</ele>
        <time>2020-02-16T07:56:04Z</time>
      </trkpt>
      <trkpt lat="36.9596940" lon="-2.3972280">
        <ele>443.1</ele>
        <time>2020-02-16T07:56:05Z</time>
      </trkpt>
      <trkpt lat="36.9596990" lon="-2.3972200">
        <ele>443.2</ele>
        <time>2020-02-16T07:56:06Z</time>
      </trkpt>
      <trkpt lat="36.9597030" lon="-2.3972110">
        <ele>443.3</ele>
        <time>2020-02-16T07:56:07Z</time>
      </trkpt>
      <trkpt lat="36.9597080" lon="-2.3972020">
        <ele>443.3</ele>
        <time>2020-02-16T07:56:09Z</time>
      </trkpt>
      <trkpt lat="36.9597130" lon="-2.3971930">
        <ele>443.4</ele>
        <time>2020-02-16T07:56:09Z</time>
      </trkpt>
      <trkpt lat="36.9597230" lon="-2.3971630">
        <ele>443.6</ele>
        <time>2020-02-16T07:56:10Z</time>
      </trkpt>
      <trkpt lat="36.9597270" lon="-2.3971490">
        <ele>443.7</ele>
        <time>2020-02-16T07:56:11Z</time>
      </trkpt>
      <trkpt lat="36.9597310" lon="-2.3971360">
        <ele>443.8</ele>
        <time>2020-02-16T07:56:12Z</time>
      </trkpt>
      <trkpt lat="36.9597340" lon="-2.3971220">
        <ele>443.9</ele>
        <time>2020-02-16T07:56:13Z</time>
      </trkpt>
      <trkpt lat="36.9597380" lon="-2.3971090">
        <ele>443.9</ele>
        <time>2020-02-16T07:56:14Z</time>
      </trkpt>
      <trkpt lat="36.9597420" lon="-2.3970950">
        <ele>444.0</ele>
        <time>2020-02-16T07:56:15Z</time>
      </trkpt>
      <trkpt lat="36.9597460" lon="-2.3970820">
        <ele>444.1</ele>
        <time>2020-02-16T07:56:16Z</time>
      </trkpt>
      <trkpt lat="36.9597500" lon="-2.3970680">
        <ele>444.2</ele>
        <time>2020-02-16T07:56:17Z</time>
      </trkpt>
      <trkpt lat="36.9597540" lon="-2.3970550">
        <ele>444.3</ele>
        <time>2020-02-16T07:56:18Z</time>
      </trkpt>
      <trkpt lat="36.9597570" lon="-2.3970410">
        <ele>444.3</ele>
        <time>2020-02-16T07:56:19Z</time>
      </trkpt>
      <trkpt lat="36.9597610" lon="-2.3970280">
        <ele>444.4</ele>
        <time>2020-02-16T07:56:20Z</time>
      </trkpt>
      <trkpt lat="36.9597650" lon="-2.3970140">
        <ele>444.5</ele>
        <time>2020-02-16T07:56:22Z</time>
      </trkpt>
      <trkpt lat="36.9597690" lon="-2.3970010">
        <ele>444.6</ele>
        <time>2020-02-16T07:56:22Z</time>
      </trkpt>
      <trkpt lat="36.9597720" lon="-2.3969800">
        <ele>444.7</ele>
        <time>2020-02-16T07:56:24Z</time>
      </trkpt>
      <trkpt lat="36.9597730" lon="-2.3969710">
        <ele>444.7</ele>
        <time>2020-02-16T07:56:24Z</time>
      </trkpt>
      <trkpt lat="36.9597740" lon="-2.3969600">
        <ele>444.8</ele>
        <time>2020-02-16T07:56:25Z</time>
      </trkpt>
      <trkpt lat="36.9597740" lon="-2.3969480">
        <ele>444.9</ele>
        <time>2020-02-16T07:56:26Z</time>
      </trkpt>
      <trkpt lat="36.9597560" lon="-2.3969300">
        <ele>445.0</ele>
        <time>2020-02-16T07:56:27Z</time>
      </trkpt>
      <trkpt lat="36.9597370" lon="-2.3969030">
        <ele>445.2</ele>
        <time>2020-02-16T07:56:28Z</time>
      </trkpt>
      <trkpt lat="36.9597270" lon="-2.3968920">
        <ele>445.3</ele>
        <time>2020-02-16T07:56:29Z</time>
      </trkpt>
      <trkpt lat="36.9597170" lon="-2.3968820">
        <ele>445.4</ele>
        <time>2020-02-16T07:56:30Z</time>
      </trkpt>
      <trkpt lat="36.9597070" lon="-2.3968720">
        <ele>445.5</ele>
        <time>2020-02-16T07:56:31Z</time>
      </trkpt>
      <trkpt lat="36.9596970" lon="-2.3968620">
        <ele>445.6</ele>
        <time>2020-02-16T07:56:32Z</time>
      </trkpt>
      <trkpt lat="36.9596870" lon="-2.3968510">
        <ele>445.7</ele>
        <time>2020-02-16T07:56:34Z</time>
      </trkpt>
      <trkpt lat="36.9596770" lon="-2.3968410">
        <ele>445.8</ele>
        <time>2020-02-16T07:56:34Z</time>
      </trkpt>
      <trkpt lat="36.9596640" lon="-2.3968290">
        <ele>446.0</ele>
        <time>2020-02-16T07:56:35Z</time>
      </trkpt>
      <trkpt lat="36.9596490" lon="-2.3968190">
        <ele>446.2</ele>
        <time>2020-02-16T07:56:36Z</time>
      </trkpt>
      <trkpt lat="36.9596340" lon="-2.3968100">
        <ele>446.3</ele>
        <time>2020-02-16T07:56:37Z</time>
      </trkpt>
      <trkpt lat="36.9596170" lon="-2.3968030">
        <ele>446.5</ele>
        <time>2020-02-16T07:56:38Z</time>
      </trkpt>
      <trkpt lat="36.9595920" lon="-2.3967920">
        <ele>446.9</ele>
        <time>2020-02-16T07:56:39Z</time>
      </trkpt>
      <trkpt lat="36.9595830" lon="-2.3967890">
        <ele>447.0</ele>
        <time>2020-02-16T07:56:41Z</time>
      </trkpt>
      <trkpt lat="36.9595740" lon="-2.3967860">
        <ele>447.1</ele>
        <time>2020-02-16T07:56:41Z</time>
      </trkpt>
      <trkpt lat="36.9595570" lon="-2.3967780">
        <ele>447.3</ele>
        <time>2020-02-16T07:56:42Z</time>
      </trkpt>
      <trkpt lat="36.9595490" lon="-2.3967730">
        <ele>447.4</ele>
        <time>2020-02-16T07:56:43Z</time>
      </trkpt>
      <trkpt lat="36.9595400" lon="-2.3967670">
        <ele>447.5</ele>
        <time>2020-02-16T07:56:44Z</time>
      </trkpt>
      <trkpt lat="36.9595310" lon="-2.3967620">
        <ele>447.6</ele>
        <time>2020-02-16T07:56:46Z</time>
      </trkpt>
      <trkpt lat="36.9595230" lon="-2.3967560">
        <ele>447.7</ele>
        <time>2020-02-16T07:56:47Z</time>
      </trkpt>
      <trkpt lat="36.9595140" lon="-2.3967510">
        <ele>447.8</ele>
        <time>2020-02-16T07:56:47Z</time>
      </trkpt>
      <trkpt lat="36.9595070" lon="-2.3967210">
        <ele>448.1</ele>
        <time>2020-02-16T07:56:48Z</time>
      </trkpt>
      <trkpt lat="36.9595010" lon="-2.3967100">
        <ele>448.2</ele>
        <time>2020-02-16T07:56:49Z</time>
      </trkpt>
      <trkpt lat="36.9594960" lon="-2.3967010">
        <ele>448.2</ele>
        <time>2020-02-16T07:56:50Z</time>
      </trkpt>
      <trkpt lat="36.9594870" lon="-2.3966900">
        <ele>448.4</ele>
        <time>2020-02-16T07:56:51Z</time>
      </trkpt>
      <trkpt lat="36.9594790" lon="-2.3966780">
        <ele>448.5</ele>
        <time>2020-02-16T07:56:52Z</time>
      </trkpt>
      <trkpt lat="36.9594730" lon="-2.3966660">
        <ele>448.6</ele>
        <time>2020-02-16T07:56:53Z</time>
      </trkpt>
      <trkpt lat="36.9594670" lon="-2.3966550">
        <ele>448.7</ele>
        <time>2020-02-16T07:56:54Z</time>
      </trkpt>
      <trkpt lat="36.9594600" lon="-2.3966430">
        <ele>448.8</ele>
        <time>2020-02-16T07:56:55Z</time>
      </trkpt>
      <trkpt lat="36.9594540" lon="-2.3966310">
        <ele>448.9</ele>
        <time>2020-02-16T07:56:56Z</time>
      </trkpt>
      <trkpt lat="36.9594470" lon="-2.3966210">
        <ele>449.1</ele>
        <time>2020-02-16T07:56:57Z</time>
      </trkpt>
      <trkpt lat="36.9594390" lon="-2.3966110">
        <ele>449.3</ele>
        <time>2020-02-16T07:56:58Z</time>
      </trkpt>
      <trkpt lat="36.9594300" lon="-2.3966010">
        <ele>449.5</ele>
        <time>2020-02-16T07:56:59Z</time>
      </trkpt>
      <trkpt lat="36.9594110" lon="-2.3965950">
        <ele>449.9</ele>
        <time>2020-02-16T07:57:00Z</time>
      </trkpt>
      <trkpt lat="36.9593880" lon="-2.3965780">
        <ele>450.4</ele>
        <time>2020-02-16T07:57:01Z</time>
      </trkpt>
      <trkpt lat="36.9593760" lon="-2.3965710">
        <ele>450.7</ele>
        <time>2020-02-16T07:57:02Z</time>
      </trkpt>
      <trkpt lat="36.9593650" lon="-2.3965640">
        <ele>450.9</ele>
        <time>2020-02-16T07:57:03Z</time>
      </trkpt>
      <trkpt lat="36.9593530" lon="-2.3965570">
        <ele>451.2</ele>
        <time>2020-02-16T07:57:04Z</time>
      </trkpt>
      <trkpt lat="36.9593420" lon="-2.3965490">
        <ele>451.5</ele>
        <time>2020-02-16T07:57:05Z</time>
      </trkpt>
      <trkpt lat="36.9593300" lon="-2.3965420">
        <ele>451.8</ele>
        <time>2020-02-16T07:57:07Z</time>
      </trkpt>
      <trkpt lat="36.9593190" lon="-2.3965350">
        <ele>452.1</ele>
        <time>2020-02-16T07:57:08Z</time>
      </trkpt>
      <trkpt lat="36.9593070" lon="-2.3965280">
        <ele>452.4</ele>
        <time>2020-02-16T07:57:09Z</time>
      </trkpt>
      <trkpt lat="36.9592960" lon="-2.3965210">
        <ele>452.6</ele>
        <time>2020-02-16T07:57:10Z</time>
      </trkpt>
      <trkpt lat="36.9592840" lon="-2.3965140">
        <ele>453.0</ele>
        <time>2020-02-16T07:57:10Z</time>
      </trkpt>
      <trkpt lat="36.9592680" lon="-2.3965020">
        <ele>453.4</ele>
        <time>2020-02-16T07:57:12Z</time>
      </trkpt>
      <trkpt lat="36.9592610" lon="-2.3964980">
        <ele>453.6</ele>
        <time>2020-02-16T07:57:12Z</time>
      </trkpt>
      <trkpt lat="36.9592440" lon="-2.3964840">
        <ele>454.0</ele>
        <time>2020-02-16T07:57:13Z</time>
      </trkpt>
      <trkpt lat="36.9592360" lon="-2.3964770">
        <ele>454.3</ele>
        <time>2020-02-16T07:57:15Z</time>
      </trkpt>
      <trkpt lat="36.9592290" lon="-2.3964700">
        <ele>454.5</ele>
        <time>2020-02-16T07:57:15Z</time>
      </trkpt>
      <trkpt lat="36.9592170" lon="-2.3964380">
        <ele>455.0</ele>
        <time>2020-02-16T07:57:17Z</time>
      </trkpt>
      <trkpt lat="36.9592120" lon="-2.3964320">
        <ele>455.2</ele>
        <time>2020-02-16T07:57:18Z</time>
      </trkpt>
      <trkpt lat="36.9592080" lon="-2.3964250">
        <ele>455.3</ele>
        <time>2020-02-16T07:57:18Z</time>
      </trkpt>
      <trkpt lat="36.9591970" lon="-2.3964060">
        <ele>455.6</ele>
        <time>2020-02-16T07:57:19Z</time>
      </trkpt>
      <trkpt lat="36.9591940" lon="-2.3963960">
        <ele>455.7</ele>
        <time>2020-02-16T07:57:20Z</time>
      </trkpt>
      <trkpt lat="36.9591900" lon="-2.3963860">
        <ele>455.9</ele>
        <time>2020-02-16T07:57:22Z</time>
      </trkpt>
      <trkpt lat="36.9591860" lon="-2.3963760">
        <ele>456.0</ele>
        <time>2020-02-16T07:57:22Z</time>
      </trkpt>
      <trkpt lat="36.9591860" lon="-2.3963510">
        <ele>456.3</ele>
        <time>2020-02-16T07:57:24Z</time>
      </trkpt>
      <trkpt lat="36.9591840" lon="-2.3963430">
        <ele>456.5</ele>
        <time>2020-02-16T07:57:24Z</time>
      </trkpt>
      <trkpt lat="36.9591870" lon="-2.3963190">
        <ele>456.8</ele>
        <time>2020-02-16T07:57:25Z</time>
      </trkpt>
      <trkpt lat="36.9591900" lon="-2.3963100">
        <ele>456.9</ele>
        <time>2020-02-16T07:57:26Z</time>
      </trkpt>
      <trkpt lat="36.9591940" lon="-2.3963020">
        <ele>457.0</ele>
        <time>2020-02-16T07:57:27Z</time>
      </trkpt>
      <trkpt lat="36.9591980" lon="-2.3962930">
        <ele>457.1</ele>
        <time>2020-02-16T07:57:28Z</time>
      </trkpt>
      <trkpt lat="36.9592020" lon="-2.3962850">
        <ele>457.2</ele>
        <time>2020-02-16T07:57:29Z</time>
      </trkpt>
      <trkpt lat="36.9592050" lon="-2.3962760">
        <ele>457.3</ele>
        <time>2020-02-16T07:57:31Z</time>
      </trkpt>
      <trkpt lat="36.9592090" lon="-2.3962680">
        <ele>457.5</ele>
        <time>2020-02-16T07:57:31Z</time>
      </trkpt>
      <trkpt lat="36.9592280" lon="-2.3962620">
        <ele>457.8</ele>
        <time>2020-02-16T07:57:33Z</time>
      </trkpt>
      <trkpt lat="36.9592370" lon="-2.3962610">
        <ele>457.9</ele>
        <time>2020-02-16T07:57:34Z</time>
      </trkpt>
      <trkpt lat="36.9592460" lon="-2.3962600">
        <ele>458.0</ele>
        <time>2020-02-16T07:57:34Z</time>
      </trkpt>
      <trkpt lat="36.9592710" lon="-2.3962650">
        <ele>458.4</ele>
        <time>2020-02-16T07:57:35Z</time>
      </trkpt>
      <trkpt lat="36.9592800" lon="-2.3962650">
        <ele>458.5</ele>
        <time>2020-02-16T07:57:36Z</time>
      </trkpt>
      <trkpt lat="36.9592900" lon="-2.3962650">
        <ele>458.7</ele>
        <time>2020-02-16T07:57:37Z</time>
      </trkpt>
      <trkpt lat="36.9593000" lon="-2.3962650">
        <ele>458.8</ele>
        <time>2020-02-16T07:57:38Z</time>
      </trkpt>
      <trkpt lat="36.9593100" lon="-2.3962650">
        <ele>458.9</ele>
        <time>2020-02-16T07:57:39Z</time>
      </trkpt>
      <trkpt lat="36.9593190" lon="-2.3962650">
        <ele>459.0</ele>
        <time>2020-02-16T07:57:41Z</time>
      </trkpt>
      <trkpt lat="36.9593290" lon="-2.3962650">
        <ele>459.1</ele>
        <time>2020-02-16T07:57:41Z</time>
      </trkpt>
      <trkpt lat="36.9593510" lon="-2.3962690">
        <ele>459.3</ele>
        <time>2020-02-16T07:57:42Z</time>
      </trkpt>
      <trkpt lat="36.9593610" lon="-2.3962710">
        <ele>459.4</ele>
        <time>2020-02-16T07:57:43Z</time>
      </trkpt>
      <trkpt lat="36.9593710" lon="-2.3962740">
        <ele>459.5</ele>
        <time>2020-02-16T07:57:44Z</time>
      </trkpt>
      <trkpt lat="36.9593810" lon="-2.3962760">
        <ele>459.6</ele>
        <time>2020-02-16T07:57:44Z</time>
      </trkpt>
      <trkpt lat="36.9594020" lon="-2.3962780">
        <ele>459.8</ele>
        <time>2020-02-16T07:57:45Z</time>
      </trkpt>
      <trkpt lat="36.9594120" lon="-2.3962790">
        <ele>459.9</ele>
        <time>2020-02-16T07:57:46Z</time>
      </trkpt>
      <trkpt lat="36.9594230" lon="-2.3962790">
        <ele>459.9</ele>
        <time>2020-02-16T07:57:47Z</time>
      </trkpt>
      <trkpt lat="36.9594330" lon="-2.3962800">
        <ele>460.0</ele>
        <time>2020-02-16T07:57:49Z</time>
      </trkpt>
      <trkpt lat="36.9594440" lon="-2.3962800">
        <ele>460.1</ele>
        <time>2020-02-16T07:57:50Z</time>
      </trkpt>
      <trkpt lat="36.9594540" lon="-2.3962810">
        <ele>460.2</ele>
        <time>2020-02-16T07:57:50Z</time>
      </trkpt>
      <trkpt lat="36.9594710" lon="-2.3962820">
        <ele>460.3</ele>
        <time>2020-02-16T07:57:52Z</time>
      </trkpt>
      <trkpt lat="36.9594790" lon="-2.3962810">
        <ele>460.4</ele>
        <time>2020-02-16T07:57:52Z</time>
      </trkpt>
      <trkpt lat="36.9595040" lon="-2.3962810">
        <ele>460.6</ele>
        <time>2020-02-16T07:57:53Z</time>
      </trkpt>
      <trkpt lat="36.9595140" lon="-2.3962810">
        <ele>460.6</ele>
        <time>2020-02-16T07:57:55Z</time>
      </trkpt>
      <trkpt lat="36.9595240" lon="-2.3962810">
        <ele>460.7</ele>
        <time>2020-02-16T07:57:55Z</time>
      </trkpt>
      <trkpt lat="36.9595410" lon="-2.3962820">
        <ele>460.8</ele>
        <time>2020-02-16T07:57:57Z</time>
      </trkpt>
      <trkpt lat="36.9595470" lon="-2.3962820">
        <ele>460.9</ele>
        <time>2020-02-16T07:57:58Z</time>
      </trkpt>
      <trkpt lat="36.9595540" lon="-2.3962830">
        <ele>460.9</ele>
        <time>2020-02-16T07:57:58Z</time>
      </trkpt>
      <trkpt lat="36.9595800" lon="-2.3962860">
        <ele>461.1</ele>
        <time>2020-02-16T07:57:59Z</time>
      </trkpt>
      <trkpt lat="36.9595930" lon="-2.3962870">
        <ele>461.2</ele>
        <time>2020-02-16T07:58:00Z</time>
      </trkpt>
      <trkpt lat="36.9596060" lon="-2.3962880">
        <ele>461.2</ele>
        <time>2020-02-16T07:58:01Z</time>
      </trkpt>
      <trkpt lat="36.9596180" lon="-2.3962880">
        <ele>461.3</ele>
        <time>2020-02-16T07:58:03Z</time>
      </trkpt>
      <trkpt lat="36.9596310" lon="-2.3962890">
        <ele>461.4</ele>
        <time>2020-02-16T07:58:04Z</time>
      </trkpt>
      <trkpt lat="36.9596440" lon="-2.3962900">
        <ele>461.4</ele>
        <time>2020-02-16T07:58:05Z</time>
      </trkpt>
      <trkpt lat="36.9596570" lon="-2.3962910">
        <ele>461.5</ele>
        <time>2020-02-16T07:58:05Z</time>
      </trkpt>
      <trkpt lat="36.9596770" lon="-2.3962900">
        <ele>461.6</ele>
        <time>2020-02-16T07:58:07Z</time>
      </trkpt>
      <trkpt lat="36.9596820" lon="-2.3962900">
        <ele>461.7</ele>
        <time>2020-02-16T07:58:07Z</time>
      </trkpt>
      <trkpt lat="36.9597000" lon="-2.3962880">
        <ele>461.8</ele>
        <time>2020-02-16T07:58:08Z</time>
      </trkpt>
      <trkpt lat="36.9597050" lon="-2.3962880">
        <ele>461.8</ele>
        <time>2020-02-16T07:58:10Z</time>
      </trkpt>
      <trkpt lat="36.9597110" lon="-2.3962870">
        <ele>461.8</ele>
        <time>2020-02-16T07:58:10Z</time>
      </trkpt>
      <trkpt lat="36.9597300" lon="-2.3962830">
        <ele>461.9</ele>
        <time>2020-02-16T07:58:11Z</time>
      </trkpt>
      <trkpt lat="36.9597400" lon="-2.3962800">
        <ele>462.0</ele>
        <time>2020-02-16T07:58:12Z</time>
      </trkpt>
      <trkpt lat="36.9597510" lon="-2.3962770">
        <ele>462.1</ele>
        <time>2020-02-16T07:58:13Z</time>
      </trkpt>
      <trkpt lat="36.9597620" lon="-2.3962740">
        <ele>462.1</ele>
        <time>2020-02-16T07:58:14Z</time>
      </trkpt>
      <trkpt lat="36.9597730" lon="-2.3962710">
        <ele>462.2</ele>
        <time>2020-02-16T07:58:15Z</time>
      </trkpt>
      <trkpt lat="36.9597830" lon="-2.3962680">
        <ele>462.2</ele>
        <time>2020-02-16T07:58:17Z</time>
      </trkpt>
      <trkpt lat="36.9597940" lon="-2.3962650">
        <ele>462.3</ele>
        <time>2020-02-16T07:58:17Z</time>
      </trkpt>
      <trkpt lat="36.9598040" lon="-2.3962570">
        <ele>462.4</ele>
        <time>2020-02-16T07:58:19Z</time>
      </trkpt>
      <trkpt lat="36.9598070" lon="-2.3962540">
        <ele>462.4</ele>
        <time>2020-02-16T07:58:19Z</time>
      </trkpt>
      <trkpt lat="36.9598120" lon="-2.3961830">
        <ele>462.7</ele>
        <time>2020-02-16T07:58:20Z</time>
      </trkpt>
      <trkpt lat="36.9598210" lon="-2.3961680">
        <ele>462.8</ele>
        <time>2020-02-16T07:58:22Z</time>
      </trkpt>
      <trkpt lat="36.9598220" lon="-2.3961620">
        <ele>462.9</ele>
        <time>2020-02-16T07:58:22Z</time>
      </trkpt>
      <trkpt lat="36.9598320" lon="-2.3961380">
        <ele>463.0</ele>
        <time>2020-02-16T07:58:23Z</time>
      </trkpt>
      <trkpt lat="36.9598360" lon="-2.3961280">
        <ele>463.1</ele>
        <time>2020-02-16T07:58:24Z</time>
      </trkpt>
      <trkpt lat="36.9598410" lon="-2.3961170">
        <ele>463.2</ele>
        <time>2020-02-16T07:58:26Z</time>
      </trkpt>
      <trkpt lat="36.9598450" lon="-2.3961070">
        <ele>463.3</ele>
        <time>2020-02-16T07:58:26Z</time>
      </trkpt>
      <trkpt lat="36.9598550" lon="-2.3960830">
        <ele>463.4</ele>
        <time>2020-02-16T07:58:28Z</time>
      </trkpt>
      <trkpt lat="36.9598570" lon="-2.3960730">
        <ele>463.5</ele>
        <time>2020-02-16T07:58:28Z</time>
      </trkpt>
      <trkpt lat="36.9598670" lon="-2.3960520">
        <ele>463.6</ele>
        <time>2020-02-16T07:58:29Z</time>
      </trkpt>
      <trkpt lat="36.9598710" lon="-2.3960410">
        <ele>463.6</ele>
        <time>2020-02-16T07:58:30Z</time>
      </trkpt>
      <trkpt lat="36.9598760" lon="-2.3960290">
        <ele>463.7</ele>
        <time>2020-02-16T07:58:32Z</time>
      </trkpt>
      <trkpt lat="36.9598800" lon="-2.3960180">
        <ele>463.7</ele>
        <time>2020-02-16T07:58:32Z</time>
      </trkpt>
      <trkpt lat="36.9598830" lon="-2.3960130">
        <ele>463.7</ele>
        <time>2020-02-16T07:58:33Z</time>
      </trkpt>
      <trkpt lat="36.9598880" lon="-2.3960070">
        <ele>463.8</ele>
        <time>2020-02-16T07:58:34Z</time>
      </trkpt>
      <trkpt lat="36.9599060" lon="-2.3960020">
        <ele>463.8</ele>
        <time>2020-02-16T07:58:35Z</time>
      </trkpt>
      <trkpt lat="36.9599220" lon="-2.3959940">
        <ele>463.9</ele>
        <time>2020-02-16T07:58:36Z</time>
      </trkpt>
      <trkpt lat="36.9599290" lon="-2.3959900">
        <ele>464.0</ele>
        <time>2020-02-16T07:58:38Z</time>
      </trkpt>
      <trkpt lat="36.9599370" lon="-2.3959870">
        <ele>464.0</ele>
        <time>2020-02-16T07:58:38Z</time>
      </trkpt>
      <trkpt lat="36.9599620" lon="-2.3959810">
        <ele>464.1</ele>
        <time>2020-02-16T07:58:39Z</time>
      </trkpt>
      <trkpt lat="36.9599720" lon="-2.3959810">
        <ele>464.2</ele>
        <time>2020-02-16T07:58:40Z</time>
      </trkpt>
      <trkpt lat="36.9599830" lon="-2.3959800">
        <ele>464.2</ele>
        <time>2020-02-16T07:58:41Z</time>
      </trkpt>
      <trkpt lat="36.9599930" lon="-2.3959800">
        <ele>464.3</ele>
        <time>2020-02-16T07:58:43Z</time>
      </trkpt>
      <trkpt lat="36.9600040" lon="-2.3959790">
        <ele>464.3</ele>
        <time>2020-02-16T07:58:43Z</time>
      </trkpt>
      <trkpt lat="36.9600200" lon="-2.3959940">
        <ele>464.7</ele>
        <time>2020-02-16T07:58:44Z</time>
      </trkpt>
      <trkpt lat="36.9600270" lon="-2.3960040">
        <ele>464.8</ele>
        <time>2020-02-16T07:58:45Z</time>
      </trkpt>
      <trkpt lat="36.9600350" lon="-2.3960150">
        <ele>464.9</ele>
        <time>2020-02-16T07:58:46Z</time>
      </trkpt>
      <trkpt lat="36.9600420" lon="-2.3960250">
        <ele>465.0</ele>
        <time>2020-02-16T07:58:47Z</time>
      </trkpt>
      <trkpt lat="36.9600500" lon="-2.3960360">
        <ele>465.2</ele>
        <time>2020-02-16T07:58:48Z</time>
      </trkpt>
      <trkpt lat="36.9600570" lon="-2.3960470">
        <ele>465.3</ele>
        <time>2020-02-16T07:58:49Z</time>
      </trkpt>
      <trkpt lat="36.9600650" lon="-2.3960570">
        <ele>465.4</ele>
        <time>2020-02-16T07:58:51Z</time>
      </trkpt>
      <trkpt lat="36.9600720" lon="-2.3960680">
        <ele>465.6</ele>
        <time>2020-02-16T07:58:51Z</time>
      </trkpt>
      <trkpt lat="36.9600760" lon="-2.3960940">
        <ele>465.8</ele>
        <time>2020-02-16T07:58:53Z</time>
      </trkpt>
      <trkpt lat="36.9600770" lon="-2.3961020">
        <ele>465.9</ele>
        <time>2020-02-16T07:58:53Z</time>
      </trkpt>
      <trkpt lat="36.9600790" lon="-2.3961220">
        <ele>466.1</ele>
        <time>2020-02-16T07:58:54Z</time>
      </trkpt>
      <trkpt lat="36.9600800" lon="-2.3961300">
        <ele>466.2</ele>
        <time>2020-02-16T07:58:56Z</time>
      </trkpt>
      <trkpt lat="36.9600820" lon="-2.3961370">
        <ele>466.3</ele>
        <time>2020-02-16T07:58:56Z</time>
      </trkpt>
      <trkpt lat="36.9600870" lon="-2.3961570">
        <ele>466.5</ele>
        <time>2020-02-16T07:58:57Z</time>
      </trkpt>
      <trkpt lat="36.9600900" lon="-2.3961660">
        <ele>466.6</ele>
        <time>2020-02-16T07:58:59Z</time>
      </trkpt>
      <trkpt lat="36.9600920" lon="-2.3961750">
        <ele>466.7</ele>
        <time>2020-02-16T07:58:59Z</time>
      </trkpt>
      <trkpt lat="36.9601030" lon="-2.3961980">
        <ele>466.9</ele>
        <time>2020-02-16T07:59:00Z</time>
      </trkpt>
      <trkpt lat="36.9601090" lon="-2.3962080">
        <ele>467.1</ele>
        <time>2020-02-16T07:59:02Z</time>
      </trkpt>
      <trkpt lat="36.9601140" lon="-2.3962180">
        <ele>467.2</ele>
        <time>2020-02-16T07:59:02Z</time>
      </trkpt>
      <trkpt lat="36.9601310" lon="-2.3962350">
        <ele>467.5</ele>
        <time>2020-02-16T07:59:04Z</time>
      </trkpt>
      <trkpt lat="36.9601400" lon="-2.3962410">
        <ele>467.6</ele>
        <time>2020-02-16T07:59:05Z</time>
      </trkpt>
      <trkpt lat="36.9601490" lon="-2.3962480">
        <ele>467.8</ele>
        <time>2020-02-16T07:59:05Z</time>
      </trkpt>
      <trkpt lat="36.9601660" lon="-2.3962680">
        <ele>468.1</ele>
        <time>2020-02-16T07:59:06Z</time>
      </trkpt>
      <trkpt lat="36.9601730" lon="-2.3962750">
        <ele>468.2</ele>
        <time>2020-02-16T07:59:08Z</time>
      </trkpt>
      <trkpt lat="36.9601800" lon="-2.3962830">
        <ele>468.3</ele>
        <time>2020-02-16T07:59:08Z</time>
      </trkpt>
      <trkpt lat="36.9601970" lon="-2.3962890">
        <ele>468.5</ele>
        <time>2020-02-16T07:59:09Z</time>
      </trkpt>
      <trkpt lat="36.9602050" lon="-2.3962900">
        <ele>468.6</ele>
        <time>2020-02-16T07:59:10Z</time>
      </trkpt>
      <trkpt lat="36.9602120" lon="-2.3962920">
        <ele>468.7</ele>
        <time>2020-02-16T07:59:12Z</time>
      </trkpt>
      <trkpt lat="36.9602200" lon="-2.3962930">
        <ele>468.8</ele>
        <time>2020-02-16T07:59:12Z</time>
      </trkpt>
      <trkpt lat="36.9602420" lon="-2.3962970">
        <ele>469.1</ele>
        <time>2020-02-16T07:59:13Z</time>
      </trkpt>
      <trkpt lat="36.9602530" lon="-2.3962990">
        <ele>469.2</ele>
        <time>2020-02-16T07:59:14Z</time>
      </trkpt>
      <trkpt lat="36.9602630" lon="-2.3963010">
        <ele>469.3</ele>
        <time>2020-02-16T07:59:15Z</time>
      </trkpt>
      <trkpt lat="36.9602740" lon="-2.3963030">
        <ele>469.4</ele>
        <time>2020-02-16T07:59:17Z</time>
      </trkpt>
      <trkpt lat="36.9602840" lon="-2.3963050">
        <ele>469.5</ele>
        <time>2020-02-16T07:59:17Z</time>
      </trkpt>
      <trkpt lat="36.9603050" lon="-2.3963060">
        <ele>469.7</ele>
        <time>2020-02-16T07:59:19Z</time>
      </trkpt>
      <trkpt lat="36.9603140" lon="-2.3963070">
        <ele>469.8</ele>
        <time>2020-02-16T07:59:19Z</time>
      </trkpt>
      <trkpt lat="36.9603340" lon="-2.3963080">
        <ele>470.0</ele>
        <time>2020-02-16T07:59:20Z</time>
      </trkpt>
      <trkpt lat="36.9603400" lon="-2.3963080">
        <ele>470.1</ele>
        <time>2020-02-16T07:59:22Z</time>
      </trkpt>
      <trkpt lat="36.9603470" lon="-2.3963090">
        <ele>470.1</ele>
        <time>2020-02-16T07:59:22Z</time>
      </trkpt>
      <trkpt lat="36.9603610" lon="-2.3963100">
        <ele>470.3</ele>
        <time>2020-02-16T07:59:24Z</time>
      </trkpt>
      <trkpt lat="36.9603640" lon="-2.3963110">
        <ele>470.3</ele>
        <time>2020-02-16T07:59:24Z</time>
      </trkpt>
      <trkpt lat="36.9603770" lon="-2.3963140">
        <ele>470.5</ele>
        <time>2020-02-16T07:59:26Z</time>
      </trkpt>
      <trkpt lat="36.9603820" lon="-2.3963150">
        <ele>470.5</ele>
        <time>2020-02-16T07:59:26Z</time>
      </trkpt>
      <trkpt lat="36.9603980" lon="-2.3963200">
        <ele>470.7</ele>
        <time>2020-02-16T07:59:27Z</time>
      </trkpt>
      <trkpt lat="36.9604040" lon="-2.3963230">
        <ele>470.8</ele>
        <time>2020-02-16T07:59:29Z</time>
      </trkpt>
      <trkpt lat="36.9604100" lon="-2.3963250">
        <ele>470.8</ele>
        <time>2020-02-16T07:59:29Z</time>
      </trkpt>
      <trkpt lat="36.9604350" lon="-2.3963350">
        <ele>471.2</ele>
        <time>2020-02-16T07:59:30Z</time>
      </trkpt>
      <trkpt lat="36.9604460" lon="-2.3963400">
        <ele>471.3</ele>
        <time>2020-02-16T07:59:31Z</time>
      </trkpt>
      <trkpt lat="36.9604560" lon="-2.3963440">
        <ele>471.5</ele>
        <time>2020-02-16T07:59:32Z</time>
      </trkpt>
      <trkpt lat="36.9604670" lon="-2.3963480">
        <ele>471.6</ele>
        <time>2020-02-16T07:59:33Z</time>
      </trkpt>
      <trkpt lat="36.9604770" lon="-2.3963530">
        <ele>471.8</ele>
        <time>2020-02-16T07:59:34Z</time>
      </trkpt>
      <trkpt lat="36.9604880" lon="-2.3963570">
        <ele>471.9</ele>
        <time>2020-02-16T07:59:35Z</time>
      </trkpt>
      <trkpt lat="36.9604980" lon="-2.3963610">
        <ele>472.0</ele>
        <time>2020-02-16T07:59:36Z</time>
      </trkpt>
      <trkpt lat="36.9605090" lon="-2.3963660">
        <ele>472.2</ele>
        <time>2020-02-16T07:59:38Z</time>
      </trkpt>
      <trkpt lat="36.9605190" lon="-2.3963700">
        <ele>472.3</ele>
        <time>2020-02-16T07:59:38Z</time>
      </trkpt>
      <trkpt lat="36.9605350" lon="-2.3963800">
        <ele>472.5</ele>
        <time>2020-02-16T07:59:39Z</time>
      </trkpt>
      <trkpt lat="36.9605390" lon="-2.3963830">
        <ele>472.6</ele>
        <time>2020-02-16T07:59:41Z</time>
      </trkpt>
      <trkpt lat="36.9605440" lon="-2.3963870">
        <ele>472.6</ele>
        <time>2020-02-16T07:59:41Z</time>
      </trkpt>
      <trkpt lat="36.9605590" lon="-2.3964010">
        <ele>472.9</ele>
        <time>2020-02-16T07:59:42Z</time>
      </trkpt>
      <trkpt lat="36.9605670" lon="-2.3964070">
        <ele>473.0</ele>
        <time>2020-02-16T07:59:43Z</time>
      </trkpt>
      <trkpt lat="36.9605740" lon="-2.3964140">
        <ele>473.1</ele>
        <time>2020-02-16T07:59:44Z</time>
      </trkpt>
      <trkpt lat="36.9605820" lon="-2.3964200">
        <ele>473.2</ele>
        <time>2020-02-16T07:59:45Z</time>
      </trkpt>
      <trkpt lat="36.9605890" lon="-2.3964270">
        <ele>473.3</ele>
        <time>2020-02-16T07:59:46Z</time>
      </trkpt>
      <trkpt lat="36.9605970" lon="-2.3964330">
        <ele>473.5</ele>
        <time>2020-02-16T07:59:47Z</time>
      </trkpt>
      <trkpt lat="36.9606040" lon="-2.3964400">
        <ele>473.6</ele>
        <time>2020-02-16T07:59:48Z</time>
      </trkpt>
      <trkpt lat="36.9606120" lon="-2.3964460">
        <ele>473.7</ele>
        <time>2020-02-16T07:59:50Z</time>
      </trkpt>
      <trkpt lat="36.9606190" lon="-2.3964530">
        <ele>473.9</ele>
        <time>2020-02-16T07:59:50Z</time>
      </trkpt>
      <trkpt lat="36.9606200" lon="-2.3964570">
        <ele>473.9</ele>
        <time>2020-02-16T07:59:51Z</time>
      </trkpt>
      <trkpt lat="36.9606240" lon="-2.3965010">
        <ele>474.4</ele>
        <time>2020-02-16T07:59:52Z</time>
      </trkpt>
      <trkpt lat="36.9606260" lon="-2.3965010">
        <ele>474.4</ele>
        <time>2020-02-16T07:59:54Z</time>
      </trkpt>
      <trkpt lat="36.9606270" lon="-2.3965010">
        <ele>474.5</ele>
        <time>2020-02-16T07:59:56Z</time>
      </trkpt>
      <trkpt lat="36.9606270" lon="-2.3965010">
        <ele>474.5</ele>
        <time>2020-02-16T07:59:59Z</time>
      </trkpt>
      <trkpt lat="36.9606270" lon="-2.3965010">
        <ele>474.5</ele>
        <time>2020-02-16T07:59:59Z</time>
      </trkpt>
      <trkpt lat="36.9606350" lon="-2.3965010">
        <ele>474.6</ele>
        <time>2020-02-16T08:00:02Z</time>
      </trkpt>
      <trkpt lat="36.9606390" lon="-2.3964990">
        <ele>474.6</ele>
        <time>2020-02-16T08:00:04Z</time>
      </trkpt>
      <trkpt lat="36.9606420" lon="-2.3964980">
        <ele>474.7</ele>
        <time>2020-02-16T08:00:05Z</time>
      </trkpt>
      <trkpt lat="36.9606450" lon="-2.3964960">
        <ele>474.7</ele>
        <time>2020-02-16T08:00:05Z</time>
      </trkpt>
      <trkpt lat="36.9606590" lon="-2.3964920">
        <ele>474.9</ele>
        <time>2020-02-16T08:00:06Z</time>
      </trkpt>
      <trkpt lat="36.9606660" lon="-2.3964900">
        <ele>476.0</ele>
        <time>2020-02-16T08:00:08Z</time>
      </trkpt>
      <trkpt lat="36.9606720" lon="-2.3964870">
        <ele>476.2</ele>
        <time>2020-02-16T08:00:09Z</time>
      </trkpt>
      <trkpt lat="36.9606790" lon="-2.3964840">
        <ele>476.3</ele>
        <time>2020-02-16T08:00:09Z</time>
      </trkpt>
      <trkpt lat="36.9606940" lon="-2.3964810">
        <ele>476.6</ele>
        <time>2020-02-16T08:00:11Z</time>
      </trkpt>
      <trkpt lat="36.9606970" lon="-2.3964800">
        <ele>476.7</ele>
        <time>2020-02-16T08:00:11Z</time>
      </trkpt>
      <trkpt lat="36.9607100" lon="-2.3964790">
        <ele>477.0</ele>
        <time>2020-02-16T08:00:12Z</time>
      </trkpt>
      <trkpt lat="36.9607170" lon="-2.3964780">
        <ele>477.1</ele>
        <time>2020-02-16T08:00:14Z</time>
      </trkpt>
      <trkpt lat="36.9607230" lon="-2.3964780">
        <ele>477.3</ele>
        <time>2020-02-16T08:00:15Z</time>
      </trkpt>
      <trkpt lat="36.9607290" lon="-2.3964770">
        <ele>477.4</ele>
        <time>2020-02-16T08:00:15Z</time>
      </trkpt>
      <trkpt lat="36.9607430" lon="-2.3964750">
        <ele>477.7</ele>
        <time>2020-02-16T08:00:16Z</time>
      </trkpt>
      <trkpt lat="36.9607480" lon="-2.3964740">
        <ele>477.8</ele>
        <time>2020-02-16T08:00:17Z</time>
      </trkpt>
      <trkpt lat="36.9607540" lon="-2.3964740">
        <ele>477.9</ele>
        <time>2020-02-16T08:00:18Z</time>
      </trkpt>
      <trkpt lat="36.9607600" lon="-2.3964740">
        <ele>478.1</ele>
        <time>2020-02-16T08:00:19Z</time>
      </trkpt>
      <trkpt lat="36.9607660" lon="-2.3964740">
        <ele>478.2</ele>
        <time>2020-02-16T08:00:20Z</time>
      </trkpt>
      <trkpt lat="36.9607710" lon="-2.3964730">
        <ele>478.3</ele>
        <time>2020-02-16T08:00:22Z</time>
      </trkpt>
      <trkpt lat="36.9607770" lon="-2.3964730">
        <ele>478.4</ele>
        <time>2020-02-16T08:00:22Z</time>
      </trkpt>
      <trkpt lat="36.9607820" lon="-2.3964710">
        <ele>478.5</ele>
        <time>2020-02-16T08:00:23Z</time>
      </trkpt>
      <trkpt lat="36.9607870" lon="-2.3964670">
        <ele>478.7</ele>
        <time>2020-02-16T08:00:24Z</time>
      </trkpt>
      <trkpt lat="36.9607850" lon="-2.3964550">
        <ele>478.9</ele>
        <time>2020-02-16T08:00:26Z</time>
      </trkpt>
      <trkpt lat="36.9595950" lon="-2.3967650">
        <ele>446.1</ele>
        <time>2020-02-16T08:41:24Z</time>
      </trkpt>
      <trkpt lat="36.9596150" lon="-2.3967980">
        <ele>445.8</ele>
        <time>2020-02-16T08:41:25Z</time>
      </trkpt>
      <trkpt lat="36.9596420" lon="-2.3968200">
        <ele>445.5</ele>
        <time>2020-02-16T08:41:26Z</time>
      </trkpt>
      <trkpt lat="36.9596730" lon="-2.3968400">
        <ele>445.3</ele>
        <time>2020-02-16T08:41:27Z</time>
      </trkpt>
      <trkpt lat="36.9596970" lon="-2.3968520">
        <ele>445.2</ele>
        <time>2020-02-16T08:41:28Z</time>
      </trkpt>
      <trkpt lat="36.9597170" lon="-2.3968650">
        <ele>445.0</ele>
        <time>2020-02-16T08:41:29Z</time>
      </trkpt>
      <trkpt lat="36.9597400" lon="-2.3968900">
        <ele>444.9</ele>
        <time>2020-02-16T08:41:30Z</time>
      </trkpt>
      <trkpt lat="36.9597570" lon="-2.3969180">
        <ele>444.7</ele>
        <time>2020-02-16T08:41:31Z</time>
      </trkpt>
      <trkpt lat="36.9597780" lon="-2.3969530">
        <ele>444.5</ele>
        <time>2020-02-16T08:41:32Z</time>
      </trkpt>
      <trkpt lat="36.9597920" lon="-2.3969970">
        <ele>444.2</ele>
        <time>2020-02-16T08:41:33Z</time>
      </trkpt>
      <trkpt lat="36.9598000" lon="-2.3970250">
        <ele>444.1</ele>
        <time>2020-02-16T08:41:34Z</time>
      </trkpt>
      <trkpt lat="36.9598050" lon="-2.3970570">
        <ele>443.9</ele>
        <time>2020-02-16T08:41:35Z</time>
      </trkpt>
      <trkpt lat="36.9598100" lon="-2.3970920">
        <ele>443.8</ele>
        <time>2020-02-16T08:41:36Z</time>
      </trkpt>
      <trkpt lat="36.9598080" lon="-2.3971130">
        <ele>443.7</ele>
        <time>2020-02-16T08:41:37Z</time>
      </trkpt>
      <trkpt lat="36.9598030" lon="-2.3971330">
        <ele>443.6</ele>
        <time>2020-02-16T08:41:38Z</time>
      </trkpt>
      <trkpt lat="36.9597900" lon="-2.3971550">
        <ele>443.4</ele>
        <time>2020-02-16T08:41:39Z</time>
      </trkpt>
      <trkpt lat="36.9597750" lon="-2.3971720">
        <ele>443.3</ele>
        <time>2020-02-16T08:41:40Z</time>
      </trkpt>
      <trkpt lat="36.9597550" lon="-2.3971950">
        <ele>443.1</ele>
        <time>2020-02-16T08:41:41Z</time>
      </trkpt>
      <trkpt lat="36.9597370" lon="-2.3972170">
        <ele>442.9</ele>
        <time>2020-02-16T08:41:42Z</time>
      </trkpt>
      <trkpt lat="36.9597150" lon="-2.3972500">
        <ele>442.6</ele>
        <time>2020-02-16T08:41:43Z</time>
      </trkpt>
      <trkpt lat="36.9596980" lon="-2.3972730">
        <ele>442.4</ele>
        <time>2020-02-16T08:41:44Z</time>
      </trkpt>
      <trkpt lat="36.9596820" lon="-2.3972900">
        <ele>442.3</ele>
        <time>2020-02-16T08:41:45Z</time>
      </trkpt>
      <trkpt lat="36.9596580" lon="-2.3973030">
        <ele>442.1</ele>
        <time>2020-02-16T08:41:46Z</time>
      </trkpt>
      <trkpt lat="36.9596320" lon="-2.3973200">
        <ele>441.9</ele>
        <time>2020-02-16T08:41:47Z</time>
      </trkpt>
      <trkpt lat="36.9596100" lon="-2.3973270">
        <ele>441.7</ele>
        <time>2020-02-16T08:41:48Z</time>
      </trkpt>
      <trkpt lat="36.9595850" lon="-2.3973280">
        <ele>441.6</ele>
        <time>2020-02-16T08:41:49Z</time>
      </trkpt>
      <trkpt lat="36.9595500" lon="-2.3973280">
        <ele>441.3</ele>
        <time>2020-02-16T08:41:50Z</time>
      </trkpt>
      <trkpt lat="36.9595230" lon="-2.3973280">
        <ele>441.1</ele>
        <time>2020-02-16T08:41:51Z</time>
      </trkpt>
      <trkpt lat="36.9594950" lon="-2.3973270">
        <ele>441.0</ele>
        <time>2020-02-16T08:41:52Z</time>
      </trkpt>
      <trkpt lat="36.9594720" lon="-2.3973180">
        <ele>440.8</ele>
        <time>2020-02-16T08:41:53Z</time>
      </trkpt>
      <trkpt lat="36.9594430" lon="-2.3973070">
        <ele>440.6</ele>
        <time>2020-02-16T08:41:54Z</time>
      </trkpt>
      <trkpt lat="36.9594220" lon="-2.3973000">
        <ele>440.5</ele>
        <time>2020-02-16T08:41:55Z</time>
      </trkpt>
      <trkpt lat="36.9593950" lon="-2.3972810">
        <ele>440.3</ele>
        <time>2020-02-16T08:41:56Z</time>
      </trkpt>
      <trkpt lat="36.9593600" lon="-2.3972580">
        <ele>439.9</ele>
        <time>2020-02-16T08:41:57Z</time>
      </trkpt>
      <trkpt lat="36.9593350" lon="-2.3972430">
        <ele>439.5</ele>
        <time>2020-02-16T08:41:58Z</time>
      </trkpt>
      <trkpt lat="36.9593080" lon="-2.3972290">
        <ele>439.1</ele>
        <time>2020-02-16T08:41:59Z</time>
      </trkpt>
      <trkpt lat="36.9592770" lon="-2.3972150">
        <ele>438.7</ele>
        <time>2020-02-16T08:42:00Z</time>
      </trkpt>
      <trkpt lat="36.9592420" lon="-2.3971950">
        <ele>438.2</ele>
        <time>2020-02-16T08:42:01Z</time>
      </trkpt>
      <trkpt lat="36.9592180" lon="-2.3971820">
        <ele>437.9</ele>
        <time>2020-02-16T08:42:02Z</time>
      </trkpt>
      <trkpt lat="36.9591770" lon="-2.3971610">
        <ele>437.4</ele>
        <time>2020-02-16T08:42:03Z</time>
      </trkpt>
      <trkpt lat="36.9591480" lon="-2.3971500">
        <ele>437.0</ele>
        <time>2020-02-16T08:42:04Z</time>
      </trkpt>
      <trkpt lat="36.9591130" lon="-2.3971400">
        <ele>436.5</ele>
        <time>2020-02-16T08:42:05Z</time>
      </trkpt>
      <trkpt lat="36.9590850" lon="-2.3971340">
        <ele>436.1</ele>
        <time>2020-02-16T08:42:06Z</time>
      </trkpt>
      <trkpt lat="36.9590370" lon="-2.3971230">
        <ele>435.6</ele>
        <time>2020-02-16T08:42:07Z</time>
      </trkpt>
      <trkpt lat="36.9590120" lon="-2.3971230">
        <ele>435.4</ele>
        <time>2020-02-16T08:42:08Z</time>
      </trkpt>
      <trkpt lat="36.9589820" lon="-2.3971630">
        <ele>434.9</ele>
        <time>2020-02-16T08:42:09Z</time>
      </trkpt>
      <trkpt lat="36.9589480" lon="-2.3971700">
        <ele>434.6</ele>
        <time>2020-02-16T08:42:10Z</time>
      </trkpt>
      <trkpt lat="36.9589150" lon="-2.3971820">
        <ele>434.2</ele>
        <time>2020-02-16T08:42:11Z</time>
      </trkpt>
      <trkpt lat="36.9588880" lon="-2.3971930">
        <ele>433.9</ele>
        <time>2020-02-16T08:42:12Z</time>
      </trkpt>
      <trkpt lat="36.9588570" lon="-2.3972040">
        <ele>433.6</ele>
        <time>2020-02-16T08:42:13Z</time>
      </trkpt>
      <trkpt lat="36.9588230" lon="-2.3972130">
        <ele>433.2</ele>
        <time>2020-02-16T08:42:14Z</time>
      </trkpt>
      <trkpt lat="36.9587880" lon="-2.3972250">
        <ele>432.7</ele>
        <time>2020-02-16T08:42:15Z</time>
      </trkpt>
      <trkpt lat="36.9587530" lon="-2.3972400">
        <ele>432.3</ele>
        <time>2020-02-16T08:42:16Z</time>
      </trkpt>
      <trkpt lat="36.9587180" lon="-2.3972560">
        <ele>431.9</ele>
        <time>2020-02-16T08:42:17Z</time>
      </trkpt>
      <trkpt lat="36.9586750" lon="-2.3972740">
        <ele>431.3</ele>
        <time>2020-02-16T08:42:18Z</time>
      </trkpt>
      <trkpt lat="36.9586420" lon="-2.3972840">
        <ele>430.7</ele>
        <time>2020-02-16T08:42:19Z</time>
      </trkpt>
      <trkpt lat="36.9586120" lon="-2.3972800">
        <ele>430.2</ele>
        <time>2020-02-16T08:42:20Z</time>
      </trkpt>
      <trkpt lat="36.9585730" lon="-2.3972850">
        <ele>429.5</ele>
        <time>2020-02-16T08:42:21Z</time>
      </trkpt>
      <trkpt lat="36.9585450" lon="-2.3972870">
        <ele>429.0</ele>
        <time>2020-02-16T08:42:22Z</time>
      </trkpt>
      <trkpt lat="36.9585120" lon="-2.3972910">
        <ele>428.3</ele>
        <time>2020-02-16T08:42:23Z</time>
      </trkpt>
      <trkpt lat="36.9584870" lon="-2.3972970">
        <ele>427.8</ele>
        <time>2020-02-16T08:42:24Z</time>
      </trkpt>
      <trkpt lat="36.9584530" lon="-2.3973010">
        <ele>427.2</ele>
        <time>2020-02-16T08:42:25Z</time>
      </trkpt>
      <trkpt lat="36.9584180" lon="-2.3972970">
        <ele>426.5</ele>
        <time>2020-02-16T08:42:26Z</time>
      </trkpt>
      <trkpt lat="36.9583950" lon="-2.3972930">
        <ele>426.0</ele>
        <time>2020-02-16T08:42:27Z</time>
      </trkpt>
      <trkpt lat="36.9583620" lon="-2.3972910">
        <ele>425.4</ele>
        <time>2020-02-16T08:42:28Z</time>
      </trkpt>
      <trkpt lat="36.9583370" lon="-2.3972910">
        <ele>424.9</ele>
        <time>2020-02-16T08:42:29Z</time>
      </trkpt>
      <trkpt lat="36.9582920" lon="-2.3973000">
        <ele>424.1</ele>
        <time>2020-02-16T08:42:30Z</time>
      </trkpt>
      <trkpt lat="36.9582520" lon="-2.3973070">
        <ele>423.3</ele>
        <time>2020-02-16T08:42:31Z</time>
      </trkpt>
      <trkpt lat="36.9582120" lon="-2.3973120">
        <ele>422.5</ele>
        <time>2020-02-16T08:42:32Z</time>
      </trkpt>
      <trkpt lat="36.9581690" lon="-2.3973200">
        <ele>421.7</ele>
        <time>2020-02-16T08:42:33Z</time>
      </trkpt>
      <trkpt lat="36.9581420" lon="-2.3973310">
        <ele>421.1</ele>
        <time>2020-02-16T08:42:34Z</time>
      </trkpt>
      <trkpt lat="36.9581090" lon="-2.3973530">
        <ele>420.4</ele>
        <time>2020-02-16T08:42:35Z</time>
      </trkpt>
      <trkpt lat="36.9580800" lon="-2.3973720">
        <ele>419.8</ele>
        <time>2020-02-16T08:42:36Z</time>
      </trkpt>
      <trkpt lat="36.9580550" lon="-2.3973910">
        <ele>419.3</ele>
        <time>2020-02-16T08:42:37Z</time>
      </trkpt>
      <trkpt lat="36.9580320" lon="-2.3974110">
        <ele>418.7</ele>
        <time>2020-02-16T08:42:38Z</time>
      </trkpt>
      <trkpt lat="36.9580070" lon="-2.3974300">
        <ele>418.2</ele>
        <time>2020-02-16T08:42:39Z</time>
      </trkpt>
      <trkpt lat="36.9579840" lon="-2.3974490">
        <ele>417.7</ele>
        <time>2020-02-16T08:42:40Z</time>
      </trkpt>
      <trkpt lat="36.9579590" lon="-2.3974670">
        <ele>417.2</ele>
        <time>2020-02-16T08:42:41Z</time>
      </trkpt>
      <trkpt lat="36.9579390" lon="-2.3974830">
        <ele>416.8</ele>
        <time>2020-02-16T08:42:42Z</time>
      </trkpt>
      <trkpt lat="36.9579120" lon="-2.3975000">
        <ele>416.2</ele>
        <time>2020-02-16T08:42:43Z</time>
      </trkpt>
      <trkpt lat="36.9578870" lon="-2.3975120">
        <ele>415.8</ele>
        <time>2020-02-16T08:42:44Z</time>
      </trkpt>
      <trkpt lat="36.9578490" lon="-2.3975290">
        <ele>415.1</ele>
        <time>2020-02-16T08:42:45Z</time>
      </trkpt>
      <trkpt lat="36.9578100" lon="-2.3975410">
        <ele>414.5</ele>
        <time>2020-02-16T08:42:46Z</time>
      </trkpt>
      <trkpt lat="36.9577740" lon="-2.3975490">
        <ele>413.9</ele>
        <time>2020-02-16T08:42:47Z</time>
      </trkpt>
      <trkpt lat="36.9577420" lon="-2.3975550">
        <ele>413.4</ele>
        <time>2020-02-16T08:42:48Z</time>
      </trkpt>
      <trkpt lat="36.9577090" lon="-2.3975600">
        <ele>412.9</ele>
        <time>2020-02-16T08:42:49Z</time>
      </trkpt>
      <trkpt lat="36.9576790" lon="-2.3975660">
        <ele>412.4</ele>
        <time>2020-02-16T08:42:50Z</time>
      </trkpt>
      <trkpt lat="36.9576520" lon="-2.3975700">
        <ele>412.0</ele>
        <time>2020-02-16T08:42:51Z</time>
      </trkpt>
      <trkpt lat="36.9576220" lon="-2.3975760">
        <ele>411.5</ele>
        <time>2020-02-16T08:42:52Z</time>
      </trkpt>
      <trkpt lat="36.9575990" lon="-2.3975800">
        <ele>411.2</ele>
        <time>2020-02-16T08:42:53Z</time>
      </trkpt>
      <trkpt lat="36.9575690" lon="-2.3975880">
        <ele>410.7</ele>
        <time>2020-02-16T08:42:54Z</time>
      </trkpt>
      <trkpt lat="36.9575490" lon="-2.3975940">
        <ele>410.4</ele>
        <time>2020-02-16T08:42:55Z</time>
      </trkpt>
      <trkpt lat="36.9575270" lon="-2.3976010">
        <ele>410.1</ele>
        <time>2020-02-16T08:42:56Z</time>
      </trkpt>
      <trkpt lat="36.9575000" lon="-2.3976070">
        <ele>409.6</ele>
        <time>2020-02-16T08:42:57Z</time>
      </trkpt>
      <trkpt lat="36.9574720" lon="-2.3976150">
        <ele>409.2</ele>
        <time>2020-02-16T08:42:58Z</time>
      </trkpt>
      <trkpt lat="36.9574540" lon="-2.3976210">
        <ele>408.9</ele>
        <time>2020-02-16T08:42:59Z</time>
      </trkpt>
      <trkpt lat="36.9574270" lon="-2.3976280">
        <ele>408.5</ele>
        <time>2020-02-16T08:43:00Z</time>
      </trkpt>
      <trkpt lat="36.9574070" lon="-2.3976330">
        <ele>408.2</ele>
        <time>2020-02-16T08:43:01Z</time>
      </trkpt>
      <trkpt lat="36.9573770" lon="-2.3976430">
        <ele>407.7</ele>
        <time>2020-02-16T08:43:02Z</time>
      </trkpt>
      <trkpt lat="36.9573540" lon="-2.3976490">
        <ele>407.4</ele>
        <time>2020-02-16T08:43:03Z</time>
      </trkpt>
      <trkpt lat="36.9573220" lon="-2.3976580">
        <ele>406.8</ele>
        <time>2020-02-16T08:43:04Z</time>
      </trkpt>
      <trkpt lat="36.9573000" lon="-2.3976630">
        <ele>406.5</ele>
        <time>2020-02-16T08:43:05Z</time>
      </trkpt>
      <trkpt lat="36.9572640" lon="-2.3976730">
        <ele>405.9</ele>
        <time>2020-02-16T08:43:06Z</time>
      </trkpt>
      <trkpt lat="36.9572340" lon="-2.3976800">
        <ele>405.4</ele>
        <time>2020-02-16T08:43:07Z</time>
      </trkpt>
      <trkpt lat="36.9572050" lon="-2.3976870">
        <ele>404.9</ele>
        <time>2020-02-16T08:43:08Z</time>
      </trkpt>
      <trkpt lat="36.9571770" lon="-2.3976930">
        <ele>404.4</ele>
        <time>2020-02-16T08:43:09Z</time>
      </trkpt>
      <trkpt lat="36.9571500" lon="-2.3976990">
        <ele>404.0</ele>
        <time>2020-02-16T08:43:10Z</time>
      </trkpt>
      <trkpt lat="36.9571340" lon="-2.3977030">
        <ele>403.7</ele>
        <time>2020-02-16T08:43:11Z</time>
      </trkpt>
      <trkpt lat="36.9571050" lon="-2.3977090">
        <ele>403.2</ele>
        <time>2020-02-16T08:43:12Z</time>
      </trkpt>
      <trkpt lat="36.9570790" lon="-2.3977170">
        <ele>402.7</ele>
        <time>2020-02-16T08:43:13Z</time>
      </trkpt>
      <trkpt lat="36.9570540" lon="-2.3977220">
        <ele>402.3</ele>
        <time>2020-02-16T08:43:14Z</time>
      </trkpt>
      <trkpt lat="36.9570200" lon="-2.3977290">
        <ele>401.7</ele>
        <time>2020-02-16T08:43:15Z</time>
      </trkpt>
      <trkpt lat="36.9569970" lon="-2.3977350">
        <ele>401.2</ele>
        <time>2020-02-16T08:43:16Z</time>
      </trkpt>
      <trkpt lat="36.9569690" lon="-2.3977410">
        <ele>400.7</ele>
        <time>2020-02-16T08:43:17Z</time>
      </trkpt>
      <trkpt lat="36.9569420" lon="-2.3977480">
        <ele>400.2</ele>
        <time>2020-02-16T08:43:18Z</time>
      </trkpt>
      <trkpt lat="36.9569120" lon="-2.3977560">
        <ele>399.6</ele>
        <time>2020-02-16T08:43:19Z</time>
      </trkpt>
      <trkpt lat="36.9568800" lon="-2.3977620">
        <ele>399.0</ele>
        <time>2020-02-16T08:43:20Z</time>
      </trkpt>
      <trkpt lat="36.9568470" lon="-2.3977710">
        <ele>398.3</ele>
        <time>2020-02-16T08:43:21Z</time>
      </trkpt>
      <trkpt lat="36.9568190" lon="-2.3977790">
        <ele>397.8</ele>
        <time>2020-02-16T08:43:22Z</time>
      </trkpt>
      <trkpt lat="36.9567870" lon="-2.3977910">
        <ele>397.3</ele>
        <time>2020-02-16T08:43:23Z</time>
      </trkpt>
      <trkpt lat="36.9567500" lon="-2.3978300">
        <ele>396.5</ele>
        <time>2020-02-16T08:43:24Z</time>
      </trkpt>
      <trkpt lat="36.9567290" lon="-2.3978550">
        <ele>396.0</ele>
        <time>2020-02-16T08:43:25Z</time>
      </trkpt>
      <trkpt lat="36.9567070" lon="-2.3978830">
        <ele>395.2</ele>
        <time>2020-02-16T08:43:26Z</time>
      </trkpt>
      <trkpt lat="36.9566850" lon="-2.3979040">
        <ele>394.6</ele>
        <time>2020-02-16T08:43:27Z</time>
      </trkpt>
      <trkpt lat="36.9566590" lon="-2.3979280">
        <ele>393.8</ele>
        <time>2020-02-16T08:43:28Z</time>
      </trkpt>
      <trkpt lat="36.9566390" lon="-2.3979430">
        <ele>393.3</ele>
        <time>2020-02-16T08:43:29Z</time>
      </trkpt>
      <trkpt lat="36.9566070" lon="-2.3979710">
        <ele>392.3</ele>
        <time>2020-02-16T08:43:30Z</time>
      </trkpt>
      <trkpt lat="36.9565820" lon="-2.3979930">
        <ele>391.6</ele>
        <time>2020-02-16T08:43:31Z</time>
      </trkpt>
      <trkpt lat="36.9565590" lon="-2.3980150">
        <ele>390.8</ele>
        <time>2020-02-16T08:43:32Z</time>
      </trkpt>
      <trkpt lat="36.9565290" lon="-2.3980430">
        <ele>389.9</ele>
        <time>2020-02-16T08:43:33Z</time>
      </trkpt>
      <trkpt lat="36.9565070" lon="-2.3980620">
        <ele>389.2</ele>
        <time>2020-02-16T08:43:34Z</time>
      </trkpt>
      <trkpt lat="36.9564820" lon="-2.3980840">
        <ele>388.4</ele>
        <time>2020-02-16T08:43:35Z</time>
      </trkpt>
      <trkpt lat="36.9564490" lon="-2.3981130">
        <ele>387.4</ele>
        <time>2020-02-16T08:43:36Z</time>
      </trkpt>
      <trkpt lat="36.9564250" lon="-2.3981350">
        <ele>386.7</ele>
        <time>2020-02-16T08:43:37Z</time>
      </trkpt>
      <trkpt lat="36.9564120" lon="-2.3981510">
        <ele>386.3</ele>
        <time>2020-02-16T08:43:38Z</time>
      </trkpt>
      <trkpt lat="36.9563850" lon="-2.3981820">
        <ele>385.6</ele>
        <time>2020-02-16T08:43:39Z</time>
      </trkpt>
      <trkpt lat="36.9563740" lon="-2.3982260">
        <ele>384.8</ele>
        <time>2020-02-16T08:43:40Z</time>
      </trkpt>
      <trkpt lat="36.9563590" lon="-2.3982600">
        <ele>384.2</ele>
        <time>2020-02-16T08:43:41Z</time>
      </trkpt>
      <trkpt lat="36.9563560" lon="-2.3982850">
        <ele>383.8</ele>
        <time>2020-02-16T08:43:42Z</time>
      </trkpt>
      <trkpt lat="36.9563540" lon="-2.3983110">
        <ele>383.6</ele>
        <time>2020-02-16T08:43:43Z</time>
      </trkpt>
      <trkpt lat="36.9563520" lon="-2.3983340">
        <ele>383.2</ele>
        <time>2020-02-16T08:43:44Z</time>
      </trkpt>
      <trkpt lat="36.9563490" lon="-2.3983580">
        <ele>382.9</ele>
        <time>2020-02-16T08:43:45Z</time>
      </trkpt>
      <trkpt lat="36.9563450" lon="-2.3983840">
        <ele>382.5</ele>
        <time>2020-02-16T08:43:46Z</time>
      </trkpt>
      <trkpt lat="36.9563390" lon="-2.3984080">
        <ele>382.1</ele>
        <time>2020-02-16T08:43:47Z</time>
      </trkpt>
      <trkpt lat="36.9563330" lon="-2.3984280">
        <ele>381.7</ele>
        <time>2020-02-16T08:43:48Z</time>
      </trkpt>
      <trkpt lat="36.9563230" lon="-2.3984430">
        <ele>381.5</ele>
        <time>2020-02-16T08:43:49Z</time>
      </trkpt>
      <trkpt lat="36.9562990" lon="-2.3984510">
        <ele>381.0</ele>
        <time>2020-02-16T08:43:50Z</time>
      </trkpt>
      <trkpt lat="36.9562840" lon="-2.3984530">
        <ele>380.6</ele>
        <time>2020-02-16T08:43:51Z</time>
      </trkpt>
      <trkpt lat="36.9562690" lon="-2.3984460">
        <ele>380.2</ele>
        <time>2020-02-16T08:43:52Z</time>
      </trkpt>
      <trkpt lat="36.9562560" lon="-2.3984330">
        <ele>380.0</ele>
        <time>2020-02-16T08:43:53Z</time>
      </trkpt>
      <trkpt lat="36.9562320" lon="-2.3984180">
        <ele>379.5</ele>
        <time>2020-02-16T08:43:54Z</time>
      </trkpt>
      <trkpt lat="36.9562160" lon="-2.3984040">
        <ele>379.4</ele>
        <time>2020-02-16T08:43:55Z</time>
      </trkpt>
      <trkpt lat="36.9561960" lon="-2.3983880">
        <ele>378.8</ele>
        <time>2020-02-16T08:43:56Z</time>
      </trkpt>
      <trkpt lat="36.9561840" lon="-2.3983750">
        <ele>378.6</ele>
        <time>2020-02-16T08:43:57Z</time>
      </trkpt>
      <trkpt lat="36.9561690" lon="-2.3983660">
        <ele>378.5</ele>
        <time>2020-02-16T08:43:58Z</time>
      </trkpt>
      <trkpt lat="36.9561520" lon="-2.3983630">
        <ele>377.9</ele>
        <time>2020-02-16T08:43:59Z</time>
      </trkpt>
      <trkpt lat="36.9561320" lon="-2.3983610">
        <ele>377.3</ele>
        <time>2020-02-16T08:44:00Z</time>
      </trkpt>
      <trkpt lat="36.9561140" lon="-2.3983610">
        <ele>377.1</ele>
        <time>2020-02-16T08:44:01Z</time>
      </trkpt>
      <trkpt lat="36.9560910" lon="-2.3983580">
        <ele>376.5</ele>
        <time>2020-02-16T08:44:02Z</time>
      </trkpt>
      <trkpt lat="36.9560560" lon="-2.3983530">
        <ele>375.8</ele>
        <time>2020-02-16T08:44:03Z</time>
      </trkpt>
      <trkpt lat="36.9560260" lon="-2.3983550">
        <ele>375.3</ele>
        <time>2020-02-16T08:44:04Z</time>
      </trkpt>
      <trkpt lat="36.9559960" lon="-2.3983610">
        <ele>374.7</ele>
        <time>2020-02-16T08:44:05Z</time>
      </trkpt>
      <trkpt lat="36.9559670" lon="-2.3983680">
        <ele>374.4</ele>
        <time>2020-02-16T08:44:06Z</time>
      </trkpt>
      <trkpt lat="36.9559370" lon="-2.3983730">
        <ele>373.9</ele>
        <time>2020-02-16T08:44:07Z</time>
      </trkpt>
      <trkpt lat="36.9559090" lon="-2.3983760">
        <ele>373.4</ele>
        <time>2020-02-16T08:44:08Z</time>
      </trkpt>
      <trkpt lat="36.9558890" lon="-2.3983700">
        <ele>372.9</ele>
        <time>2020-02-16T08:44:09Z</time>
      </trkpt>
      <trkpt lat="36.9558810" lon="-2.3983310">
        <ele>372.8</ele>
        <time>2020-02-16T08:44:10Z</time>
      </trkpt>
      <trkpt lat="36.9558640" lon="-2.3983030">
        <ele>372.6</ele>
        <time>2020-02-16T08:44:11Z</time>
      </trkpt>
      <trkpt lat="36.9558440" lon="-2.3982800">
        <ele>372.2</ele>
        <time>2020-02-16T08:44:12Z</time>
      </trkpt>
      <trkpt lat="36.9558240" lon="-2.3982760">
        <ele>371.6</ele>
        <time>2020-02-16T08:44:13Z</time>
      </trkpt>
      <trkpt lat="36.9558040" lon="-2.3982780">
        <ele>371.4</ele>
        <time>2020-02-16T08:44:14Z</time>
      </trkpt>
      <trkpt lat="36.9557910" lon="-2.3982930">
        <ele>371.1</ele>
        <time>2020-02-16T08:44:15Z</time>
      </trkpt>
      <trkpt lat="36.9557840" lon="-2.3983150">
        <ele>370.6</ele>
        <time>2020-02-16T08:44:16Z</time>
      </trkpt>
      <trkpt lat="36.9557860" lon="-2.3983430">
        <ele>370.3</ele>
        <time>2020-02-16T08:44:17Z</time>
      </trkpt>
      <trkpt lat="36.9557920" lon="-2.3983700">
        <ele>370.3</ele>
        <time>2020-02-16T08:44:18Z</time>
      </trkpt>
      <trkpt lat="36.9558110" lon="-2.3984010">
        <ele>370.1</ele>
        <time>2020-02-16T08:44:19Z</time>
      </trkpt>
      <trkpt lat="36.9558270" lon="-2.3984310">
        <ele>370.1</ele>
        <time>2020-02-16T08:44:20Z</time>
      </trkpt>
      <trkpt lat="36.9558470" lon="-2.3984530">
        <ele>369.8</ele>
        <time>2020-02-16T08:44:21Z</time>
      </trkpt>
      <trkpt lat="36.9558710" lon="-2.3984890">
        <ele>369.8</ele>
        <time>2020-02-16T08:44:22Z</time>
      </trkpt>
      <trkpt lat="36.9558970" lon="-2.3985180">
        <ele>369.6</ele>
        <time>2020-02-16T08:44:23Z</time>
      </trkpt>
      <trkpt lat="36.9559260" lon="-2.3985460">
        <ele>369.4</ele>
        <time>2020-02-16T08:44:24Z</time>
      </trkpt>
      <trkpt lat="36.9559560" lon="-2.3985630">
        <ele>369.2</ele>
        <time>2020-02-16T08:44:25Z</time>
      </trkpt>
      <trkpt lat="36.9559760" lon="-2.3985770">
        <ele>369.1</ele>
        <time>2020-02-16T08:44:26Z</time>
      </trkpt>
      <trkpt lat="36.9559960" lon="-2.3986050">
        <ele>368.9</ele>
        <time>2020-02-16T08:44:27Z</time>
      </trkpt>
      <trkpt lat="36.9559940" lon="-2.3986390">
        <ele>368.8</ele>
        <time>2020-02-16T08:44:28Z</time>
      </trkpt>
      <trkpt lat="36.9559870" lon="-2.3986590">
        <ele>368.7</ele>
        <time>2020-02-16T08:44:29Z</time>
      </trkpt>
      <trkpt lat="36.9559790" lon="-2.3986610">
        <ele>368.6</ele>
        <time>2020-02-16T08:44:30Z</time>
      </trkpt>
      <trkpt lat="36.9559690" lon="-2.3986530">
        <ele>368.6</ele>
        <time>2020-02-16T08:44:31Z</time>
      </trkpt>
      <trkpt lat="36.9559570" lon="-2.3986380">
        <ele>368.5</ele>
        <time>2020-02-16T08:44:32Z</time>
      </trkpt>
      <trkpt lat="36.9559420" lon="-2.3986180">
        <ele>368.3</ele>
        <time>2020-02-16T08:44:33Z</time>
      </trkpt>
      <trkpt lat="36.9559210" lon="-2.3985960">
        <ele>368.2</ele>
        <time>2020-02-16T08:44:34Z</time>
      </trkpt>
      <trkpt lat="36.9559020" lon="-2.3985780">
        <ele>368.0</ele>
        <time>2020-02-16T08:44:35Z</time>
      </trkpt>
      <trkpt lat="36.9558820" lon="-2.3985560">
        <ele>367.9</ele>
        <time>2020-02-16T08:44:36Z</time>
      </trkpt>
      <trkpt lat="36.9558620" lon="-2.3985460">
        <ele>367.7</ele>
        <time>2020-02-16T08:44:37Z</time>
      </trkpt>
      <trkpt lat="36.9558340" lon="-2.3985320">
        <ele>367.5</ele>
        <time>2020-02-16T08:44:38Z</time>
      </trkpt>
      <trkpt lat="36.9558170" lon="-2.3985260">
        <ele>367.4</ele>
        <time>2020-02-16T08:44:39Z</time>
      </trkpt>
      <trkpt lat="36.9557940" lon="-2.3985240">
        <ele>367.3</ele>
        <time>2020-02-16T08:44:40Z</time>
      </trkpt>
      <trkpt lat="36.9557670" lon="-2.3985200">
        <ele>367.2</ele>
        <time>2020-02-16T08:44:41Z</time>
      </trkpt>
      <trkpt lat="36.9557460" lon="-2.3985160">
        <ele>367.0</ele>
        <time>2020-02-16T08:44:42Z</time>
      </trkpt>
      <trkpt lat="36.9557210" lon="-2.3985120">
        <ele>366.9</ele>
        <time>2020-02-16T08:44:43Z</time>
      </trkpt>
      <trkpt lat="36.9556890" lon="-2.3985070">
        <ele>366.7</ele>
        <time>2020-02-16T08:44:44Z</time>
      </trkpt>
      <trkpt lat="36.9556620" lon="-2.3985040">
        <ele>366.6</ele>
        <time>2020-02-16T08:44:45Z</time>
      </trkpt>
      <trkpt lat="36.9556360" lon="-2.3984990">
        <ele>366.5</ele>
        <time>2020-02-16T08:44:46Z</time>
      </trkpt>
      <trkpt lat="36.9556160" lon="-2.3984960">
        <ele>366.4</ele>
        <time>2020-02-16T08:44:47Z</time>
      </trkpt>
      <trkpt lat="36.9555970" lon="-2.3984960">
        <ele>366.3</ele>
        <time>2020-02-16T08:44:48Z</time>
      </trkpt>
      <trkpt lat="36.9555840" lon="-2.3984990">
        <ele>366.3</ele>
        <time>2020-02-16T08:44:49Z</time>
      </trkpt>
      <trkpt lat="36.9555670" lon="-2.3985000">
        <ele>366.2</ele>
        <time>2020-02-16T08:44:50Z</time>
      </trkpt>
      <trkpt lat="36.9555490" lon="-2.3985010">
        <ele>366.1</ele>
        <time>2020-02-16T08:44:51Z</time>
      </trkpt>
      <trkpt lat="36.9555340" lon="-2.3985030">
        <ele>366.1</ele>
        <time>2020-02-16T08:44:52Z</time>
      </trkpt>
      <trkpt lat="36.9555070" lon="-2.3985020">
        <ele>366.0</ele>
        <time>2020-02-16T08:44:53Z</time>
      </trkpt>
      <trkpt lat="36.9554820" lon="-2.3985020">
        <ele>365.9</ele>
        <time>2020-02-16T08:44:54Z</time>
      </trkpt>
      <trkpt lat="36.9554560" lon="-2.3985000">
        <ele>365.9</ele>
        <time>2020-02-16T08:44:55Z</time>
      </trkpt>
      <trkpt lat="36.9554240" lon="-2.3984970">
        <ele>365.8</ele>
        <time>2020-02-16T08:44:56Z</time>
      </trkpt>
      <trkpt lat="36.9553870" lon="-2.3984910">
        <ele>365.6</ele>
        <time>2020-02-16T08:44:57Z</time>
      </trkpt>
      <trkpt lat="36.9553640" lon="-2.3984860">
        <ele>365.6</ele>
        <time>2020-02-16T08:44:58Z</time>
      </trkpt>
      <trkpt lat="36.9553320" lon="-2.3984780">
        <ele>365.5</ele>
        <time>2020-02-16T08:44:59Z</time>
      </trkpt>
      <trkpt lat="36.9553110" lon="-2.3984720">
        <ele>365.4</ele>
        <time>2020-02-16T08:45:00Z</time>
      </trkpt>
      <trkpt lat="36.9552890" lon="-2.3984660">
        <ele>365.3</ele>
        <time>2020-02-16T08:45:01Z</time>
      </trkpt>
      <trkpt lat="36.9552760" lon="-2.3984620">
        <ele>365.2</ele>
        <time>2020-02-16T08:45:02Z</time>
      </trkpt>
      <trkpt lat="36.9552620" lon="-2.3984570">
        <ele>365.2</ele>
        <time>2020-02-16T08:45:03Z</time>
      </trkpt>
      <trkpt lat="36.9552490" lon="-2.3984520">
        <ele>365.1</ele>
        <time>2020-02-16T08:45:04Z</time>
      </trkpt>
      <trkpt lat="36.9552370" lon="-2.3984480">
        <ele>365.1</ele>
        <time>2020-02-16T08:45:05Z</time>
      </trkpt>
      <trkpt lat="36.9552260" lon="-2.3984450">
        <ele>365.1</ele>
        <time>2020-02-16T08:45:06Z</time>
      </trkpt>
      <trkpt lat="36.9552140" lon="-2.3984420">
        <ele>365.0</ele>
        <time>2020-02-16T08:45:07Z</time>
      </trkpt>
      <trkpt lat="36.9551970" lon="-2.3984380">
        <ele>365.0</ele>
        <time>2020-02-16T08:45:08Z</time>
      </trkpt>
      <trkpt lat="36.9551810" lon="-2.3984330">
        <ele>364.9</ele>
        <time>2020-02-16T08:45:09Z</time>
      </trkpt>
      <trkpt lat="36.9551640" lon="-2.3984290">
        <ele>364.8</ele>
        <time>2020-02-16T08:45:10Z</time>
      </trkpt>
      <trkpt lat="36.9551410" lon="-2.3984250">
        <ele>364.8</ele>
        <time>2020-02-16T08:45:11Z</time>
      </trkpt>
      <trkpt lat="36.9551190" lon="-2.3984210">
        <ele>364.7</ele>
        <time>2020-02-16T08:45:12Z</time>
      </trkpt>
      <trkpt lat="36.9550980" lon="-2.3984180">
        <ele>364.6</ele>
        <time>2020-02-16T08:45:13Z</time>
      </trkpt>
      <trkpt lat="36.9550830" lon="-2.3984150">
        <ele>364.6</ele>
        <time>2020-02-16T08:45:14Z</time>
      </trkpt>
      <trkpt lat="36.9550640" lon="-2.3984120">
        <ele>364.5</ele>
        <time>2020-02-16T08:45:15Z</time>
      </trkpt>
      <trkpt lat="36.9550460" lon="-2.3984090">
        <ele>364.5</ele>
        <time>2020-02-16T08:45:16Z</time>
      </trkpt>
      <trkpt lat="36.9550260" lon="-2.3984030">
        <ele>364.4</ele>
        <time>2020-02-16T08:45:17Z</time>
      </trkpt>
      <trkpt lat="36.9550080" lon="-2.3983710">
        <ele>364.4</ele>
        <time>2020-02-16T08:45:18Z</time>
      </trkpt>
      <trkpt lat="36.9549880" lon="-2.3983580">
        <ele>364.3</ele>
        <time>2020-02-16T08:45:19Z</time>
      </trkpt>
      <trkpt lat="36.9549710" lon="-2.3983430">
        <ele>364.3</ele>
        <time>2020-02-16T08:45:20Z</time>
      </trkpt>
      <trkpt lat="36.9549490" lon="-2.3983280">
        <ele>364.2</ele>
        <time>2020-02-16T08:45:21Z</time>
      </trkpt>
      <trkpt lat="36.9549310" lon="-2.3983160">
        <ele>363.7</ele>
        <time>2020-02-16T08:45:22Z</time>
      </trkpt>
      <trkpt lat="36.9549060" lon="-2.3983010">
        <ele>363.3</ele>
        <time>2020-02-16T08:45:23Z</time>
      </trkpt>
      <trkpt lat="36.9548760" lon="-2.3982860">
        <ele>362.9</ele>
        <time>2020-02-16T08:45:24Z</time>
      </trkpt>
      <trkpt lat="36.9548590" lon="-2.3982780">
        <ele>362.7</ele>
        <time>2020-02-16T08:45:25Z</time>
      </trkpt>
      <trkpt lat="36.9548330" lon="-2.3982650">
        <ele>362.5</ele>
        <time>2020-02-16T08:45:26Z</time>
      </trkpt>
      <trkpt lat="36.9548130" lon="-2.3982520">
        <ele>362.2</ele>
        <time>2020-02-16T08:45:27Z</time>
      </trkpt>
      <trkpt lat="36.9547890" lon="-2.3982350">
        <ele>362.0</ele>
        <time>2020-02-16T08:45:28Z</time>
      </trkpt>
      <trkpt lat="36.9547660" lon="-2.3982190">
        <ele>361.7</ele>
        <time>2020-02-16T08:45:29Z</time>
      </trkpt>
      <trkpt lat="36.9547510" lon="-2.3982100">
        <ele>361.5</ele>
        <time>2020-02-16T08:45:30Z</time>
      </trkpt>
      <trkpt lat="36.9547230" lon="-2.3981920">
        <ele>361.0</ele>
        <time>2020-02-16T08:45:31Z</time>
      </trkpt>
      <trkpt lat="36.9547030" lon="-2.3981790">
        <ele>360.7</ele>
        <time>2020-02-16T08:45:32Z</time>
      </trkpt>
      <trkpt lat="36.9546830" lon="-2.3981660">
        <ele>360.5</ele>
        <time>2020-02-16T08:45:33Z</time>
      </trkpt>
      <trkpt lat="36.9546590" lon="-2.3981510">
        <ele>360.1</ele>
        <time>2020-02-16T08:45:34Z</time>
      </trkpt>
      <trkpt lat="36.9546410" lon="-2.3981390">
        <ele>359.9</ele>
        <time>2020-02-16T08:45:35Z</time>
      </trkpt>
      <trkpt lat="36.9546190" lon="-2.3981270">
        <ele>359.6</ele>
        <time>2020-02-16T08:45:36Z</time>
      </trkpt>
      <trkpt lat="36.9545990" lon="-2.3981160">
        <ele>359.4</ele>
        <time>2020-02-16T08:45:37Z</time>
      </trkpt>
      <trkpt lat="36.9545740" lon="-2.3981030">
        <ele>359.0</ele>
        <time>2020-02-16T08:45:38Z</time>
      </trkpt>
      <trkpt lat="36.9545490" lon="-2.3980940">
        <ele>358.7</ele>
        <time>2020-02-16T08:45:39Z</time>
      </trkpt>
      <trkpt lat="36.9545190" lon="-2.3980840">
        <ele>358.2</ele>
        <time>2020-02-16T08:45:40Z</time>
      </trkpt>
      <trkpt lat="36.9544980" lon="-2.3981350">
        <ele>357.5</ele>
        <time>2020-02-16T08:45:41Z</time>
      </trkpt>
      <trkpt lat="36.9544830" lon="-2.3981610">
        <ele>357.0</ele>
        <time>2020-02-16T08:45:42Z</time>
      </trkpt>
      <trkpt lat="36.9544740" lon="-2.3981900">
        <ele>356.6</ele>
        <time>2020-02-16T08:45:43Z</time>
      </trkpt>
      <trkpt lat="36.9544680" lon="-2.3982210">
        <ele>356.3</ele>
        <time>2020-02-16T08:45:44Z</time>
      </trkpt>
      <trkpt lat="36.9544640" lon="-2.3982510">
        <ele>355.9</ele>
        <time>2020-02-16T08:45:45Z</time>
      </trkpt>
      <trkpt lat="36.9544640" lon="-2.3982850">
        <ele>355.6</ele>
        <time>2020-02-16T08:45:46Z</time>
      </trkpt>
      <trkpt lat="36.9544760" lon="-2.3983200">
        <ele>355.2</ele>
        <time>2020-02-16T08:45:47Z</time>
      </trkpt>
      <trkpt lat="36.9544860" lon="-2.3983550">
        <ele>354.9</ele>
        <time>2020-02-16T08:45:48Z</time>
      </trkpt>
      <trkpt lat="36.9544940" lon="-2.3983780">
        <ele>354.7</ele>
        <time>2020-02-16T08:45:49Z</time>
      </trkpt>
      <trkpt lat="36.9545090" lon="-2.3984110">
        <ele>354.0</ele>
        <time>2020-02-16T08:45:50Z</time>
      </trkpt>
      <trkpt lat="36.9545190" lon="-2.3984330">
        <ele>353.4</ele>
        <time>2020-02-16T08:45:51Z</time>
      </trkpt>
      <trkpt lat="36.9545230" lon="-2.3984500">
        <ele>353.0</ele>
        <time>2020-02-16T08:45:52Z</time>
      </trkpt>
      <trkpt lat="36.9545320" lon="-2.3984630">
        <ele>352.7</ele>
        <time>2020-02-16T08:45:53Z</time>
      </trkpt>
      <trkpt lat="36.9545450" lon="-2.3984780">
        <ele>352.2</ele>
        <time>2020-02-16T08:45:54Z</time>
      </trkpt>
      <trkpt lat="36.9545660" lon="-2.3984910">
        <ele>351.6</ele>
        <time>2020-02-16T08:45:55Z</time>
      </trkpt>
      <trkpt lat="36.9545760" lon="-2.3985080">
        <ele>351.2</ele>
        <time>2020-02-16T08:45:56Z</time>
      </trkpt>
      <trkpt lat="36.9545850" lon="-2.3985300">
        <ele>350.7</ele>
        <time>2020-02-16T08:45:57Z</time>
      </trkpt>
      <trkpt lat="36.9545910" lon="-2.3985530">
        <ele>350.2</ele>
        <time>2020-02-16T08:45:58Z</time>
      </trkpt>
      <trkpt lat="36.9545950" lon="-2.3985750">
        <ele>349.7</ele>
        <time>2020-02-16T08:45:59Z</time>
      </trkpt>
      <trkpt lat="36.9545980" lon="-2.3986030">
        <ele>349.1</ele>
        <time>2020-02-16T08:46:00Z</time>
      </trkpt>
      <trkpt lat="36.9546010" lon="-2.3986280">
        <ele>348.6</ele>
        <time>2020-02-16T08:46:01Z</time>
      </trkpt>
      <trkpt lat="36.9546010" lon="-2.3986550">
        <ele>348.0</ele>
        <time>2020-02-16T08:46:02Z</time>
      </trkpt>
      <trkpt lat="36.9546030" lon="-2.3986810">
        <ele>347.5</ele>
        <time>2020-02-16T08:46:03Z</time>
      </trkpt>
      <trkpt lat="36.9545980" lon="-2.3987080">
        <ele>346.9</ele>
        <time>2020-02-16T08:46:04Z</time>
      </trkpt>
      <trkpt lat="36.9545910" lon="-2.3987360">
        <ele>346.4</ele>
        <time>2020-02-16T08:46:05Z</time>
      </trkpt>
      <trkpt lat="36.9545840" lon="-2.3987600">
        <ele>346.1</ele>
        <time>2020-02-16T08:46:06Z</time>
      </trkpt>
      <trkpt lat="36.9545740" lon="-2.3987830">
        <ele>345.8</ele>
        <time>2020-02-16T08:46:07Z</time>
      </trkpt>
      <trkpt lat="36.9545580" lon="-2.3988060">
        <ele>345.4</ele>
        <time>2020-02-16T08:46:08Z</time>
      </trkpt>
      <trkpt lat="36.9545380" lon="-2.3988280">
        <ele>345.0</ele>
        <time>2020-02-16T08:46:09Z</time>
      </trkpt>
      <trkpt lat="36.9545090" lon="-2.3988400">
        <ele>344.6</ele>
        <time>2020-02-16T08:46:10Z</time>
      </trkpt>
      <trkpt lat="36.9544830" lon="-2.3988460">
        <ele>344.3</ele>
        <time>2020-02-16T08:46:11Z</time>
      </trkpt>
      <trkpt lat="36.9544560" lon="-2.3988550">
        <ele>344.0</ele>
        <time>2020-02-16T08:46:12Z</time>
      </trkpt>
      <trkpt lat="36.9544280" lon="-2.3988630">
        <ele>343.7</ele>
        <time>2020-02-16T08:46:13Z</time>
      </trkpt>
      <trkpt lat="36.9543990" lon="-2.3988650">
        <ele>343.4</ele>
        <time>2020-02-16T08:46:14Z</time>
      </trkpt>
      <trkpt lat="36.9543710" lon="-2.3988690">
        <ele>343.2</ele>
        <time>2020-02-16T08:46:15Z</time>
      </trkpt>
      <trkpt lat="36.9543440" lon="-2.3988760">
        <ele>342.9</ele>
        <time>2020-02-16T08:46:16Z</time>
      </trkpt>
      <trkpt lat="36.9543180" lon="-2.3988830">
        <ele>342.7</ele>
        <time>2020-02-16T08:46:17Z</time>
      </trkpt>
      <trkpt lat="36.9542940" lon="-2.3988920">
        <ele>342.6</ele>
        <time>2020-02-16T08:46:18Z</time>
      </trkpt>
      <trkpt lat="36.9542710" lon="-2.3989000">
        <ele>342.4</ele>
        <time>2020-02-16T08:46:19Z</time>
      </trkpt>
      <trkpt lat="36.9542490" lon="-2.3989080">
        <ele>342.2</ele>
        <time>2020-02-16T08:46:20Z</time>
      </trkpt>
      <trkpt lat="36.9542210" lon="-2.3989170">
        <ele>342.0</ele>
        <time>2020-02-16T08:46:21Z</time>
      </trkpt>
      <trkpt lat="36.9541930" lon="-2.3989240">
        <ele>341.8</ele>
        <time>2020-02-16T08:46:22Z</time>
      </trkpt>
      <trkpt lat="36.9541660" lon="-2.3989280">
        <ele>341.7</ele>
        <time>2020-02-16T08:46:23Z</time>
      </trkpt>
      <trkpt lat="36.9541460" lon="-2.3989290">
        <ele>341.5</ele>
        <time>2020-02-16T08:46:24Z</time>
      </trkpt>
      <trkpt lat="36.9541140" lon="-2.3989330">
        <ele>341.3</ele>
        <time>2020-02-16T08:46:25Z</time>
      </trkpt>
      <trkpt lat="36.9540910" lon="-2.3989380">
        <ele>341.2</ele>
        <time>2020-02-16T08:46:26Z</time>
      </trkpt>
      <trkpt lat="36.9540660" lon="-2.3989440">
        <ele>341.0</ele>
        <time>2020-02-16T08:46:27Z</time>
      </trkpt>
      <trkpt lat="36.9540380" lon="-2.3989500">
        <ele>340.8</ele>
        <time>2020-02-16T08:46:28Z</time>
      </trkpt>
      <trkpt lat="36.9540080" lon="-2.3989570">
        <ele>340.6</ele>
        <time>2020-02-16T08:46:29Z</time>
      </trkpt>
      <trkpt lat="36.9539830" lon="-2.3989640">
        <ele>340.4</ele>
        <time>2020-02-16T08:46:30Z</time>
      </trkpt>
      <trkpt lat="36.9539590" lon="-2.3989700">
        <ele>340.3</ele>
        <time>2020-02-16T08:46:31Z</time>
      </trkpt>
      <trkpt lat="36.9539330" lon="-2.3989780">
        <ele>340.3</ele>
        <time>2020-02-16T08:46:32Z</time>
      </trkpt>
      <trkpt lat="36.9539110" lon="-2.3989860">
        <ele>340.2</ele>
        <time>2020-02-16T08:46:33Z</time>
      </trkpt>
      <trkpt lat="36.9538810" lon="-2.3989940">
        <ele>340.1</ele>
        <time>2020-02-16T08:46:34Z</time>
      </trkpt>
      <trkpt lat="36.9538560" lon="-2.3989990">
        <ele>340.0</ele>
        <time>2020-02-16T08:46:35Z</time>
      </trkpt>
      <trkpt lat="36.9538310" lon="-2.3990040">
        <ele>339.9</ele>
        <time>2020-02-16T08:46:36Z</time>
      </trkpt>
      <trkpt lat="36.9538060" lon="-2.3990070">
        <ele>339.8</ele>
        <time>2020-02-16T08:46:37Z</time>
      </trkpt>
      <trkpt lat="36.9537790" lon="-2.3990100">
        <ele>339.7</ele>
        <time>2020-02-16T08:46:38Z</time>
      </trkpt>
      <trkpt lat="36.9537540" lon="-2.3990120">
        <ele>339.7</ele>
        <time>2020-02-16T08:46:39Z</time>
      </trkpt>
      <trkpt lat="36.9537260" lon="-2.3990140">
        <ele>339.6</ele>
        <time>2020-02-16T08:46:40Z</time>
      </trkpt>
      <trkpt lat="36.9537010" lon="-2.3990140">
        <ele>339.6</ele>
        <time>2020-02-16T08:46:41Z</time>
      </trkpt>
      <trkpt lat="36.9536740" lon="-2.3990150">
        <ele>339.5</ele>
        <time>2020-02-16T08:46:42Z</time>
      </trkpt>
      <trkpt lat="36.9536460" lon="-2.3990170">
        <ele>339.5</ele>
        <time>2020-02-16T08:46:43Z</time>
      </trkpt>
      <trkpt lat="36.9536210" lon="-2.3990180">
        <ele>339.4</ele>
        <time>2020-02-16T08:46:44Z</time>
      </trkpt>
      <trkpt lat="36.9535990" lon="-2.3990140">
        <ele>339.3</ele>
        <time>2020-02-16T08:46:45Z</time>
      </trkpt>
      <trkpt lat="36.9535760" lon="-2.3990310">
        <ele>339.3</ele>
        <time>2020-02-16T08:46:46Z</time>
      </trkpt>
      <trkpt lat="36.9535510" lon="-2.3990510">
        <ele>339.2</ele>
        <time>2020-02-16T08:46:47Z</time>
      </trkpt>
      <trkpt lat="36.9535340" lon="-2.3990690">
        <ele>339.1</ele>
        <time>2020-02-16T08:46:48Z</time>
      </trkpt>
      <trkpt lat="36.9535180" lon="-2.3990890">
        <ele>339.0</ele>
        <time>2020-02-16T08:46:49Z</time>
      </trkpt>
      <trkpt lat="36.9535010" lon="-2.3991120">
        <ele>339.0</ele>
        <time>2020-02-16T08:46:50Z</time>
      </trkpt>
      <trkpt lat="36.9534830" lon="-2.3991320">
        <ele>338.9</ele>
        <time>2020-02-16T08:46:51Z</time>
      </trkpt>
      <trkpt lat="36.9534690" lon="-2.3991470">
        <ele>338.9</ele>
        <time>2020-02-16T08:46:52Z</time>
      </trkpt>
      <trkpt lat="36.9534490" lon="-2.3991710">
        <ele>338.8</ele>
        <time>2020-02-16T08:46:53Z</time>
      </trkpt>
      <trkpt lat="36.9534260" lon="-2.3991950">
        <ele>338.8</ele>
        <time>2020-02-16T08:46:54Z</time>
      </trkpt>
      <trkpt lat="36.9534080" lon="-2.3992160">
        <ele>338.7</ele>
        <time>2020-02-16T08:46:55Z</time>
      </trkpt>
      <trkpt lat="36.9533910" lon="-2.3992330">
        <ele>338.7</ele>
        <time>2020-02-16T08:46:56Z</time>
      </trkpt>
      <trkpt lat="36.9533600" lon="-2.3992630">
        <ele>338.6</ele>
        <time>2020-02-16T08:46:57Z</time>
      </trkpt>
      <trkpt lat="36.9533330" lon="-2.3992850">
        <ele>338.5</ele>
        <time>2020-02-16T08:46:58Z</time>
      </trkpt>
      <trkpt lat="36.9533010" lon="-2.3993090">
        <ele>338.4</ele>
        <time>2020-02-16T08:46:59Z</time>
      </trkpt>
      <trkpt lat="36.9532730" lon="-2.3993290">
        <ele>338.3</ele>
        <time>2020-02-16T08:47:00Z</time>
      </trkpt>
      <trkpt lat="36.9532410" lon="-2.3993510">
        <ele>338.1</ele>
        <time>2020-02-16T08:47:01Z</time>
      </trkpt>
      <trkpt lat="36.9532130" lon="-2.3993700">
        <ele>338.0</ele>
        <time>2020-02-16T08:47:02Z</time>
      </trkpt>
      <trkpt lat="36.9531860" lon="-2.3993880">
        <ele>337.8</ele>
        <time>2020-02-16T08:47:03Z</time>
      </trkpt>
      <trkpt lat="36.9531600" lon="-2.3994070">
        <ele>337.6</ele>
        <time>2020-02-16T08:47:04Z</time>
      </trkpt>
      <trkpt lat="36.9531360" lon="-2.3994240">
        <ele>337.5</ele>
        <time>2020-02-16T08:47:05Z</time>
      </trkpt>
      <trkpt lat="36.9531080" lon="-2.3994450">
        <ele>337.3</ele>
        <time>2020-02-16T08:47:06Z</time>
      </trkpt>
      <trkpt lat="36.9530810" lon="-2.3994650">
        <ele>337.1</ele>
        <time>2020-02-16T08:47:07Z</time>
      </trkpt>
      <trkpt lat="36.9530550" lon="-2.3994840">
        <ele>337.0</ele>
        <time>2020-02-16T08:47:08Z</time>
      </trkpt>
      <trkpt lat="36.9530310" lon="-2.3995030">
        <ele>336.8</ele>
        <time>2020-02-16T08:47:09Z</time>
      </trkpt>
      <trkpt lat="36.9530080" lon="-2.3995210">
        <ele>336.7</ele>
        <time>2020-02-16T08:47:10Z</time>
      </trkpt>
      <trkpt lat="36.9529800" lon="-2.3995430">
        <ele>336.4</ele>
        <time>2020-02-16T08:47:11Z</time>
      </trkpt>
      <trkpt lat="36.9529580" lon="-2.3995590">
        <ele>336.2</ele>
        <time>2020-02-16T08:47:12Z</time>
      </trkpt>
      <trkpt lat="36.9529280" lon="-2.3995810">
        <ele>335.9</ele>
        <time>2020-02-16T08:47:13Z</time>
      </trkpt>
      <trkpt lat="36.9528950" lon="-2.3996040">
        <ele>335.5</ele>
        <time>2020-02-16T08:47:14Z</time>
      </trkpt>
      <trkpt lat="36.9528660" lon="-2.3996230">
        <ele>335.2</ele>
        <time>2020-02-16T08:47:15Z</time>
      </trkpt>
      <trkpt lat="36.9528380" lon="-2.3996410">
        <ele>334.9</ele>
        <time>2020-02-16T08:47:16Z</time>
      </trkpt>
      <trkpt lat="36.9528110" lon="-2.3996580">
        <ele>334.7</ele>
        <time>2020-02-16T08:47:17Z</time>
      </trkpt>
      <trkpt lat="36.9527830" lon="-2.3996730">
        <ele>334.5</ele>
        <time>2020-02-16T08:47:18Z</time>
      </trkpt>
      <trkpt lat="36.9527460" lon="-2.3996970">
        <ele>334.2</ele>
        <time>2020-02-16T08:47:19Z</time>
      </trkpt>
      <trkpt lat="36.9527100" lon="-2.3997170">
        <ele>333.9</ele>
        <time>2020-02-16T08:47:20Z</time>
      </trkpt>
      <trkpt lat="36.9526700" lon="-2.3997390">
        <ele>333.6</ele>
        <time>2020-02-16T08:47:21Z</time>
      </trkpt>
      <trkpt lat="36.9526310" lon="-2.3997620">
        <ele>333.3</ele>
        <time>2020-02-16T08:47:22Z</time>
      </trkpt>
      <trkpt lat="36.9525960" lon="-2.3997790">
        <ele>333.1</ele>
        <time>2020-02-16T08:47:23Z</time>
      </trkpt>
      <trkpt lat="36.9525660" lon="-2.3997920">
        <ele>332.8</ele>
        <time>2020-02-16T08:47:24Z</time>
      </trkpt>
      <trkpt lat="36.9525360" lon="-2.3998070">
        <ele>332.6</ele>
        <time>2020-02-16T08:47:25Z</time>
      </trkpt>
      <trkpt lat="36.9525050" lon="-2.3998230">
        <ele>332.3</ele>
        <time>2020-02-16T08:47:26Z</time>
      </trkpt>
      <trkpt lat="36.9524760" lon="-2.3998400">
        <ele>331.9</ele>
        <time>2020-02-16T08:47:27Z</time>
      </trkpt>
      <trkpt lat="36.9524500" lon="-2.3998580">
        <ele>331.6</ele>
        <time>2020-02-16T08:47:28Z</time>
      </trkpt>
      <trkpt lat="36.9524260" lon="-2.3998830">
        <ele>331.2</ele>
        <time>2020-02-16T08:47:29Z</time>
      </trkpt>
      <trkpt lat="36.9524100" lon="-2.3999160">
        <ele>330.8</ele>
        <time>2020-02-16T08:47:30Z</time>
      </trkpt>
      <trkpt lat="36.9523960" lon="-2.3999510">
        <ele>330.5</ele>
        <time>2020-02-16T08:47:31Z</time>
      </trkpt>
      <trkpt lat="36.9523810" lon="-2.3999910">
        <ele>330.0</ele>
        <time>2020-02-16T08:47:32Z</time>
      </trkpt>
      <trkpt lat="36.9523730" lon="-2.4000280">
        <ele>329.8</ele>
        <time>2020-02-16T08:47:33Z</time>
      </trkpt>
      <trkpt lat="36.9523600" lon="-2.4000640">
        <ele>329.5</ele>
        <time>2020-02-16T08:47:34Z</time>
      </trkpt>
      <trkpt lat="36.9523470" lon="-2.4001060">
        <ele>329.2</ele>
        <time>2020-02-16T08:47:35Z</time>
      </trkpt>
      <trkpt lat="36.9523380" lon="-2.4001460">
        <ele>328.9</ele>
        <time>2020-02-16T08:47:36Z</time>
      </trkpt>
      <trkpt lat="36.9523320" lon="-2.4001780">
        <ele>328.6</ele>
        <time>2020-02-16T08:47:37Z</time>
      </trkpt>
      <trkpt lat="36.9523300" lon="-2.4002160">
        <ele>328.3</ele>
        <time>2020-02-16T08:47:38Z</time>
      </trkpt>
      <trkpt lat="36.9523280" lon="-2.4002530">
        <ele>328.0</ele>
        <time>2020-02-16T08:47:39Z</time>
      </trkpt>
      <trkpt lat="36.9523260" lon="-2.4002930">
        <ele>327.6</ele>
        <time>2020-02-16T08:47:40Z</time>
      </trkpt>
      <trkpt lat="36.9523240" lon="-2.4003330">
        <ele>327.3</ele>
        <time>2020-02-16T08:47:41Z</time>
      </trkpt>
      <trkpt lat="36.9523240" lon="-2.4003690">
        <ele>327.0</ele>
        <time>2020-02-16T08:47:42Z</time>
      </trkpt>
      <trkpt lat="36.9523250" lon="-2.4004030">
        <ele>326.8</ele>
        <time>2020-02-16T08:47:43Z</time>
      </trkpt>
      <trkpt lat="36.9523250" lon="-2.4004310">
        <ele>326.7</ele>
        <time>2020-02-16T08:47:44Z</time>
      </trkpt>
      <trkpt lat="36.9523240" lon="-2.4004630">
        <ele>326.6</ele>
        <time>2020-02-16T08:47:45Z</time>
      </trkpt>
      <trkpt lat="36.9523220" lon="-2.4004990">
        <ele>326.4</ele>
        <time>2020-02-16T08:47:46Z</time>
      </trkpt>
      <trkpt lat="36.9523200" lon="-2.4005340">
        <ele>326.3</ele>
        <time>2020-02-16T08:47:47Z</time>
      </trkpt>
      <trkpt lat="36.9523160" lon="-2.4005670">
        <ele>326.1</ele>
        <time>2020-02-16T08:47:48Z</time>
      </trkpt>
      <trkpt lat="36.9523130" lon="-2.4006060">
        <ele>326.0</ele>
        <time>2020-02-16T08:47:49Z</time>
      </trkpt>
      <trkpt lat="36.9523070" lon="-2.4006440">
        <ele>325.8</ele>
        <time>2020-02-16T08:47:50Z</time>
      </trkpt>
      <trkpt lat="36.9523010" lon="-2.4006790">
        <ele>325.6</ele>
        <time>2020-02-16T08:47:51Z</time>
      </trkpt>
      <trkpt lat="36.9522940" lon="-2.4007160">
        <ele>325.4</ele>
        <time>2020-02-16T08:47:52Z</time>
      </trkpt>
      <trkpt lat="36.9522860" lon="-2.4007510">
        <ele>325.2</ele>
        <time>2020-02-16T08:47:53Z</time>
      </trkpt>
      <trkpt lat="36.9522760" lon="-2.4007890">
        <ele>324.9</ele>
        <time>2020-02-16T08:47:54Z</time>
      </trkpt>
      <trkpt lat="36.9522680" lon="-2.4008220">
        <ele>324.7</ele>
        <time>2020-02-16T08:47:55Z</time>
      </trkpt>
      <trkpt lat="36.9522610" lon="-2.4008560">
        <ele>324.6</ele>
        <time>2020-02-16T08:47:56Z</time>
      </trkpt>
      <trkpt lat="36.9522520" lon="-2.4008920">
        <ele>324.4</ele>
        <time>2020-02-16T08:47:57Z</time>
      </trkpt>
      <trkpt lat="36.9522420" lon="-2.4009360">
        <ele>324.2</ele>
        <time>2020-02-16T08:47:58Z</time>
      </trkpt>
      <trkpt lat="36.9522340" lon="-2.4009760">
        <ele>324.0</ele>
        <time>2020-02-16T08:47:59Z</time>
      </trkpt>
      <trkpt lat="36.9522260" lon="-2.4010110">
        <ele>323.9</ele>
        <time>2020-02-16T08:48:00Z</time>
      </trkpt>
      <trkpt lat="36.9522150" lon="-2.4010470">
        <ele>323.7</ele>
        <time>2020-02-16T08:48:01Z</time>
      </trkpt>
      <trkpt lat="36.9522050" lon="-2.4010860">
        <ele>323.5</ele>
        <time>2020-02-16T08:48:02Z</time>
      </trkpt>
      <trkpt lat="36.9521940" lon="-2.4011240">
        <ele>323.4</ele>
        <time>2020-02-16T08:48:03Z</time>
      </trkpt>
      <trkpt lat="36.9521800" lon="-2.4011670">
        <ele>323.2</ele>
        <time>2020-02-16T08:48:04Z</time>
      </trkpt>
      <trkpt lat="36.9521680" lon="-2.4012160">
        <ele>323.0</ele>
        <time>2020-02-16T08:48:05Z</time>
      </trkpt>
      <trkpt lat="36.9521570" lon="-2.4012620">
        <ele>322.7</ele>
        <time>2020-02-16T08:48:06Z</time>
      </trkpt>
      <trkpt lat="36.9521470" lon="-2.4012970">
        <ele>322.5</ele>
        <time>2020-02-16T08:48:07Z</time>
      </trkpt>
      <trkpt lat="36.9521340" lon="-2.4013460">
        <ele>322.2</ele>
        <time>2020-02-16T08:48:08Z</time>
      </trkpt>
      <trkpt lat="36.9521230" lon="-2.4013820">
        <ele>321.9</ele>
        <time>2020-02-16T08:48:09Z</time>
      </trkpt>
      <trkpt lat="36.9521120" lon="-2.4014210">
        <ele>321.7</ele>
        <time>2020-02-16T08:48:10Z</time>
      </trkpt>
      <trkpt lat="36.9520990" lon="-2.4014620">
        <ele>321.5</ele>
        <time>2020-02-16T08:48:11Z</time>
      </trkpt>
      <trkpt lat="36.9520870" lon="-2.4015020">
        <ele>321.3</ele>
        <time>2020-02-16T08:48:12Z</time>
      </trkpt>
      <trkpt lat="36.9520740" lon="-2.4015440">
        <ele>321.0</ele>
        <time>2020-02-16T08:48:13Z</time>
      </trkpt>
      <trkpt lat="36.9520620" lon="-2.4015810">
        <ele>320.8</ele>
        <time>2020-02-16T08:48:14Z</time>
      </trkpt>
      <trkpt lat="36.9520460" lon="-2.4016170">
        <ele>320.6</ele>
        <time>2020-02-16T08:48:15Z</time>
      </trkpt>
      <trkpt lat="36.9520320" lon="-2.4016560">
        <ele>320.4</ele>
        <time>2020-02-16T08:48:16Z</time>
      </trkpt>
      <trkpt lat="36.9520160" lon="-2.4016910">
        <ele>320.2</ele>
        <time>2020-02-16T08:48:17Z</time>
      </trkpt>
      <trkpt lat="36.9519980" lon="-2.4017270">
        <ele>319.9</ele>
        <time>2020-02-16T08:48:18Z</time>
      </trkpt>
      <trkpt lat="36.9519850" lon="-2.4017620">
        <ele>319.6</ele>
        <time>2020-02-16T08:48:19Z</time>
      </trkpt>
      <trkpt lat="36.9519670" lon="-2.4017970">
        <ele>319.4</ele>
        <time>2020-02-16T08:48:20Z</time>
      </trkpt>
      <trkpt lat="36.9519530" lon="-2.4018290">
        <ele>319.1</ele>
        <time>2020-02-16T08:48:21Z</time>
      </trkpt>
      <trkpt lat="36.9519340" lon="-2.4018660">
        <ele>318.8</ele>
        <time>2020-02-16T08:48:22Z</time>
      </trkpt>
      <trkpt lat="36.9519170" lon="-2.4018990">
        <ele>318.6</ele>
        <time>2020-02-16T08:48:23Z</time>
      </trkpt>
      <trkpt lat="36.9518960" lon="-2.4019340">
        <ele>318.3</ele>
        <time>2020-02-16T08:48:24Z</time>
      </trkpt>
      <trkpt lat="36.9518750" lon="-2.4019710">
        <ele>318.0</ele>
        <time>2020-02-16T08:48:25Z</time>
      </trkpt>
      <trkpt lat="36.9518560" lon="-2.4020070">
        <ele>317.8</ele>
        <time>2020-02-16T08:48:26Z</time>
      </trkpt>
      <trkpt lat="36.9518340" lon="-2.4020440">
        <ele>317.5</ele>
        <time>2020-02-16T08:48:27Z</time>
      </trkpt>
      <trkpt lat="36.9518180" lon="-2.4020740">
        <ele>317.3</ele>
        <time>2020-02-16T08:48:28Z</time>
      </trkpt>
      <trkpt lat="36.9517950" lon="-2.4021110">
        <ele>317.1</ele>
        <time>2020-02-16T08:48:29Z</time>
      </trkpt>
      <trkpt lat="36.9517760" lon="-2.4021470">
        <ele>316.9</ele>
        <time>2020-02-16T08:48:30Z</time>
      </trkpt>
      <trkpt lat="36.9517550" lon="-2.4021770">
        <ele>316.7</ele>
        <time>2020-02-16T08:48:31Z</time>
      </trkpt>
      <trkpt lat="36.9517370" lon="-2.4022090">
        <ele>316.5</ele>
        <time>2020-02-16T08:48:32Z</time>
      </trkpt>
      <trkpt lat="36.9517190" lon="-2.4022370">
        <ele>316.3</ele>
        <time>2020-02-16T08:48:33Z</time>
      </trkpt>
      <trkpt lat="36.9516380" lon="-2.4022670">
        <ele>315.6</ele>
        <time>2020-02-16T08:48:34Z</time>
      </trkpt>
      <trkpt lat="36.9516220" lon="-2.4022950">
        <ele>315.3</ele>
        <time>2020-02-16T08:48:35Z</time>
      </trkpt>
      <trkpt lat="36.9516050" lon="-2.4023250">
        <ele>315.0</ele>
        <time>2020-02-16T08:48:36Z</time>
      </trkpt>
      <trkpt lat="36.9515880" lon="-2.4023570">
        <ele>314.7</ele>
        <time>2020-02-16T08:48:37Z</time>
      </trkpt>
      <trkpt lat="36.9515760" lon="-2.4023920">
        <ele>314.4</ele>
        <time>2020-02-16T08:48:38Z</time>
      </trkpt>
      <trkpt lat="36.9515620" lon="-2.4024260">
        <ele>314.0</ele>
        <time>2020-02-16T08:48:39Z</time>
      </trkpt>
      <trkpt lat="36.9515450" lon="-2.4024570">
        <ele>313.7</ele>
        <time>2020-02-16T08:48:40Z</time>
      </trkpt>
      <trkpt lat="36.9515280" lon="-2.4024940">
        <ele>313.3</ele>
        <time>2020-02-16T08:48:41Z</time>
      </trkpt>
      <trkpt lat="36.9515130" lon="-2.4025260">
        <ele>313.3</ele>
        <time>2020-02-16T08:48:42Z</time>
      </trkpt>
      <trkpt lat="36.9515000" lon="-2.4025590">
        <ele>312.9</ele>
        <time>2020-02-16T08:48:43Z</time>
      </trkpt>
      <trkpt lat="36.9514880" lon="-2.4025970">
        <ele>312.4</ele>
        <time>2020-02-16T08:48:44Z</time>
      </trkpt>
      <trkpt lat="36.9514780" lon="-2.4026270">
        <ele>311.8</ele>
        <time>2020-02-16T08:48:45Z</time>
      </trkpt>
      <trkpt lat="36.9514640" lon="-2.4026590">
        <ele>311.4</ele>
        <time>2020-02-16T08:48:46Z</time>
      </trkpt>
      <trkpt lat="36.9514400" lon="-2.4026820">
        <ele>311.4</ele>
        <time>2020-02-16T08:48:47Z</time>
      </trkpt>
      <trkpt lat="36.9514150" lon="-2.4026860">
        <ele>311.5</ele>
        <time>2020-02-16T08:48:48Z</time>
      </trkpt>
      <trkpt lat="36.9513920" lon="-2.4026860">
        <ele>311.6</ele>
        <time>2020-02-16T08:48:49Z</time>
      </trkpt>
      <trkpt lat="36.9513650" lon="-2.4026870">
        <ele>311.7</ele>
        <time>2020-02-16T08:48:50Z</time>
      </trkpt>
      <trkpt lat="36.9513370" lon="-2.4026920">
        <ele>311.7</ele>
        <time>2020-02-16T08:48:51Z</time>
      </trkpt>
      <trkpt lat="36.9513100" lon="-2.4026970">
        <ele>311.8</ele>
        <time>2020-02-16T08:48:52Z</time>
      </trkpt>
      <trkpt lat="36.9512830" lon="-2.4027040">
        <ele>311.3</ele>
        <time>2020-02-16T08:48:53Z</time>
      </trkpt>
      <trkpt lat="36.9512580" lon="-2.4027160">
        <ele>311.4</ele>
        <time>2020-02-16T08:48:54Z</time>
      </trkpt>
      <trkpt lat="36.9512330" lon="-2.4027270">
        <ele>311.4</ele>
        <time>2020-02-16T08:48:55Z</time>
      </trkpt>
      <trkpt lat="36.9512130" lon="-2.4027380">
        <ele>311.6</ele>
        <time>2020-02-16T08:48:56Z</time>
      </trkpt>
      <trkpt lat="36.9511920" lon="-2.4027510">
        <ele>311.0</ele>
        <time>2020-02-16T08:48:57Z</time>
      </trkpt>
      <trkpt lat="36.9511680" lon="-2.4027670">
        <ele>311.0</ele>
        <time>2020-02-16T08:48:58Z</time>
      </trkpt>
      <trkpt lat="36.9511480" lon="-2.4027840">
        <ele>311.1</ele>
        <time>2020-02-16T08:48:59Z</time>
      </trkpt>
      <trkpt lat="36.9511220" lon="-2.4028070">
        <ele>310.5</ele>
        <time>2020-02-16T08:49:00Z</time>
      </trkpt>
      <trkpt lat="36.9510970" lon="-2.4028270">
        <ele>310.5</ele>
        <time>2020-02-16T08:49:01Z</time>
      </trkpt>
      <trkpt lat="36.9510780" lon="-2.4028440">
        <ele>309.9</ele>
        <time>2020-02-16T08:49:02Z</time>
      </trkpt>
      <trkpt lat="36.9510520" lon="-2.4028670">
        <ele>309.9</ele>
        <time>2020-02-16T08:49:03Z</time>
      </trkpt>
      <trkpt lat="36.9510330" lon="-2.4028870">
        <ele>309.3</ele>
        <time>2020-02-16T08:49:04Z</time>
      </trkpt>
      <trkpt lat="36.9510130" lon="-2.4029070">
        <ele>309.4</ele>
        <time>2020-02-16T08:49:05Z</time>
      </trkpt>
      <trkpt lat="36.9509850" lon="-2.4029320">
        <ele>308.8</ele>
        <time>2020-02-16T08:49:06Z</time>
      </trkpt>
      <trkpt lat="36.9509620" lon="-2.4029510">
        <ele>308.8</ele>
        <time>2020-02-16T08:49:07Z</time>
      </trkpt>
      <trkpt lat="36.9509420" lon="-2.4029680">
        <ele>308.3</ele>
        <time>2020-02-16T08:49:08Z</time>
      </trkpt>
      <trkpt lat="36.9509220" lon="-2.4029850">
        <ele>308.3</ele>
        <time>2020-02-16T08:49:09Z</time>
      </trkpt>
      <trkpt lat="36.9508930" lon="-2.4030070">
        <ele>307.8</ele>
        <time>2020-02-16T08:49:10Z</time>
      </trkpt>
      <trkpt lat="36.9508720" lon="-2.4030250">
        <ele>307.7</ele>
        <time>2020-02-16T08:49:11Z</time>
      </trkpt>
      <trkpt lat="36.9508480" lon="-2.4030440">
        <ele>307.7</ele>
        <time>2020-02-16T08:49:12Z</time>
      </trkpt>
      <trkpt lat="36.9508250" lon="-2.4030620">
        <ele>307.1</ele>
        <time>2020-02-16T08:49:13Z</time>
      </trkpt>
      <trkpt lat="36.9508020" lon="-2.4030800">
        <ele>307.1</ele>
        <time>2020-02-16T08:49:14Z</time>
      </trkpt>
      <trkpt lat="36.9507790" lon="-2.4030980">
        <ele>306.4</ele>
        <time>2020-02-16T08:49:15Z</time>
      </trkpt>
      <trkpt lat="36.9507500" lon="-2.4031180">
        <ele>306.4</ele>
        <time>2020-02-16T08:49:16Z</time>
      </trkpt>
      <trkpt lat="36.9507250" lon="-2.4031320">
        <ele>305.8</ele>
        <time>2020-02-16T08:49:17Z</time>
      </trkpt>
      <trkpt lat="36.9506970" lon="-2.4031480">
        <ele>305.7</ele>
        <time>2020-02-16T08:49:18Z</time>
      </trkpt>
      <trkpt lat="36.9506690" lon="-2.4031640">
        <ele>305.5</ele>
        <time>2020-02-16T08:49:19Z</time>
      </trkpt>
      <trkpt lat="36.9506440" lon="-2.4031760">
        <ele>304.8</ele>
        <time>2020-02-16T08:49:20Z</time>
      </trkpt>
      <trkpt lat="36.9506170" lon="-2.4031880">
        <ele>304.8</ele>
        <time>2020-02-16T08:49:21Z</time>
      </trkpt>
      <trkpt lat="36.9505890" lon="-2.4032020">
        <ele>304.6</ele>
        <time>2020-02-16T08:49:22Z</time>
      </trkpt>
      <trkpt lat="36.9505620" lon="-2.4032160">
        <ele>304.5</ele>
        <time>2020-02-16T08:49:23Z</time>
      </trkpt>
      <trkpt lat="36.9505400" lon="-2.4032270">
        <ele>303.8</ele>
        <time>2020-02-16T08:49:24Z</time>
      </trkpt>
      <trkpt lat="36.9505170" lon="-2.4032380">
        <ele>303.8</ele>
        <time>2020-02-16T08:49:25Z</time>
      </trkpt>
      <trkpt lat="36.9504990" lon="-2.4032480">
        <ele>303.6</ele>
        <time>2020-02-16T08:49:26Z</time>
      </trkpt>
      <trkpt lat="36.9504770" lon="-2.4032630">
        <ele>303.2</ele>
        <time>2020-02-16T08:49:27Z</time>
      </trkpt>
      <trkpt lat="36.9504550" lon="-2.4032770">
        <ele>303.0</ele>
        <time>2020-02-16T08:49:28Z</time>
      </trkpt>
      <trkpt lat="36.9504340" lon="-2.4032910">
        <ele>302.9</ele>
        <time>2020-02-16T08:49:29Z</time>
      </trkpt>
      <trkpt lat="36.9504120" lon="-2.4033080">
        <ele>302.5</ele>
        <time>2020-02-16T08:49:30Z</time>
      </trkpt>
      <trkpt lat="36.9503900" lon="-2.4033230">
        <ele>302.4</ele>
        <time>2020-02-16T08:49:31Z</time>
      </trkpt>
      <trkpt lat="36.9503690" lon="-2.4033400">
        <ele>302.2</ele>
        <time>2020-02-16T08:49:32Z</time>
      </trkpt>
      <trkpt lat="36.9503420" lon="-2.4033580">
        <ele>301.9</ele>
        <time>2020-02-16T08:49:33Z</time>
      </trkpt>
      <trkpt lat="36.9503200" lon="-2.4033750">
        <ele>301.7</ele>
        <time>2020-02-16T08:49:34Z</time>
      </trkpt>
      <trkpt lat="36.9502940" lon="-2.4033930">
        <ele>301.1</ele>
        <time>2020-02-16T08:49:35Z</time>
      </trkpt>
      <trkpt lat="36.9502690" lon="-2.4034070">
        <ele>300.8</ele>
        <time>2020-02-16T08:49:36Z</time>
      </trkpt>
      <trkpt lat="36.9502420" lon="-2.4034220">
        <ele>300.8</ele>
        <time>2020-02-16T08:49:37Z</time>
      </trkpt>
      <trkpt lat="36.9502140" lon="-2.4034380">
        <ele>300.2</ele>
        <time>2020-02-16T08:49:38Z</time>
      </trkpt>
      <trkpt lat="36.9501870" lon="-2.4034500">
        <ele>300.0</ele>
        <time>2020-02-16T08:49:39Z</time>
      </trkpt>
      <trkpt lat="36.9501640" lon="-2.4034610">
        <ele>299.8</ele>
        <time>2020-02-16T08:49:40Z</time>
      </trkpt>
      <trkpt lat="36.9501400" lon="-2.4034700">
        <ele>299.8</ele>
        <time>2020-02-16T08:49:41Z</time>
      </trkpt>
      <trkpt lat="36.9501190" lon="-2.4034760">
        <ele>299.3</ele>
        <time>2020-02-16T08:49:42Z</time>
      </trkpt>
      <trkpt lat="36.9500990" lon="-2.4034810">
        <ele>299.3</ele>
        <time>2020-02-16T08:49:43Z</time>
      </trkpt>
      <trkpt lat="36.9500770" lon="-2.4034860">
        <ele>299.1</ele>
        <time>2020-02-16T08:49:44Z</time>
      </trkpt>
      <trkpt lat="36.9500590" lon="-2.4033750">
        <ele>300.0</ele>
        <time>2020-02-16T08:49:45Z</time>
      </trkpt>
      <trkpt lat="36.9500390" lon="-2.4033570">
        <ele>300.0</ele>
        <time>2020-02-16T08:49:46Z</time>
      </trkpt>
      <trkpt lat="36.9500140" lon="-2.4033470">
        <ele>299.8</ele>
        <time>2020-02-16T08:49:47Z</time>
      </trkpt>
      <trkpt lat="36.9499890" lon="-2.4033420">
        <ele>299.9</ele>
        <time>2020-02-16T08:49:48Z</time>
      </trkpt>
      <trkpt lat="36.9499650" lon="-2.4033440">
        <ele>299.9</ele>
        <time>2020-02-16T08:49:49Z</time>
      </trkpt>
      <trkpt lat="36.9499350" lon="-2.4033550">
        <ele>299.5</ele>
        <time>2020-02-16T08:49:50Z</time>
      </trkpt>
      <trkpt lat="36.9499070" lon="-2.4033650">
        <ele>299.3</ele>
        <time>2020-02-16T08:49:51Z</time>
      </trkpt>
      <trkpt lat="36.9498740" lon="-2.4033800">
        <ele>299.2</ele>
        <time>2020-02-16T08:49:52Z</time>
      </trkpt>
      <trkpt lat="36.9498350" lon="-2.4033940">
        <ele>298.9</ele>
        <time>2020-02-16T08:49:53Z</time>
      </trkpt>
      <trkpt lat="36.9497990" lon="-2.4034070">
        <ele>298.7</ele>
        <time>2020-02-16T08:49:54Z</time>
      </trkpt>
      <trkpt lat="36.9497620" lon="-2.4034250">
        <ele>298.6</ele>
        <time>2020-02-16T08:49:55Z</time>
      </trkpt>
      <trkpt lat="36.9497270" lon="-2.4034410">
        <ele>298.3</ele>
        <time>2020-02-16T08:49:56Z</time>
      </trkpt>
      <trkpt lat="36.9496900" lon="-2.4034590">
        <ele>298.1</ele>
        <time>2020-02-16T08:49:57Z</time>
      </trkpt>
      <trkpt lat="36.9496600" lon="-2.4034770">
        <ele>297.7</ele>
        <time>2020-02-16T08:49:58Z</time>
      </trkpt>
      <trkpt lat="36.9496320" lon="-2.4034960">
        <ele>297.6</ele>
        <time>2020-02-16T08:49:59Z</time>
      </trkpt>
      <trkpt lat="36.9495990" lon="-2.4035190">
        <ele>297.3</ele>
        <time>2020-02-16T08:50:00Z</time>
      </trkpt>
      <trkpt lat="36.9495670" lon="-2.4035420">
        <ele>297.1</ele>
        <time>2020-02-16T08:50:01Z</time>
      </trkpt>
      <trkpt lat="36.9495400" lon="-2.4035650">
        <ele>296.7</ele>
        <time>2020-02-16T08:50:02Z</time>
      </trkpt>
      <trkpt lat="36.9495120" lon="-2.4035900">
        <ele>296.5</ele>
        <time>2020-02-16T08:50:03Z</time>
      </trkpt>
      <trkpt lat="36.9494820" lon="-2.4036160">
        <ele>296.4</ele>
        <time>2020-02-16T08:50:04Z</time>
      </trkpt>
      <trkpt lat="36.9494540" lon="-2.4036410">
        <ele>296.1</ele>
        <time>2020-02-16T08:50:05Z</time>
      </trkpt>
      <trkpt lat="36.9494290" lon="-2.4036630">
        <ele>295.7</ele>
        <time>2020-02-16T08:50:06Z</time>
      </trkpt>
      <trkpt lat="36.9494090" lon="-2.4036830">
        <ele>295.4</ele>
        <time>2020-02-16T08:50:07Z</time>
      </trkpt>
      <trkpt lat="36.9493920" lon="-2.4037040">
        <ele>295.2</ele>
        <time>2020-02-16T08:50:08Z</time>
      </trkpt>
      <trkpt lat="36.9493670" lon="-2.4037320">
        <ele>294.6</ele>
        <time>2020-02-16T08:50:09Z</time>
      </trkpt>
      <trkpt lat="36.9493420" lon="-2.4037610">
        <ele>294.3</ele>
        <time>2020-02-16T08:50:10Z</time>
      </trkpt>
      <trkpt lat="36.9493170" lon="-2.4037900">
        <ele>294.0</ele>
        <time>2020-02-16T08:50:11Z</time>
      </trkpt>
      <trkpt lat="36.9492940" lon="-2.4038180">
        <ele>293.4</ele>
        <time>2020-02-16T08:50:12Z</time>
      </trkpt>
      <trkpt lat="36.9492720" lon="-2.4038450">
        <ele>293.0</ele>
        <time>2020-02-16T08:50:13Z</time>
      </trkpt>
      <trkpt lat="36.9492500" lon="-2.4038720">
        <ele>292.7</ele>
        <time>2020-02-16T08:50:14Z</time>
      </trkpt>
      <trkpt lat="36.9492290" lon="-2.4038990">
        <ele>292.3</ele>
        <time>2020-02-16T08:50:15Z</time>
      </trkpt>
      <trkpt lat="36.9492090" lon="-2.4039230">
        <ele>292.1</ele>
        <time>2020-02-16T08:50:16Z</time>
      </trkpt>
      <trkpt lat="36.9491870" lon="-2.4039480">
        <ele>291.4</ele>
        <time>2020-02-16T08:50:17Z</time>
      </trkpt>
      <trkpt lat="36.9491590" lon="-2.4039780">
        <ele>291.0</ele>
        <time>2020-02-16T08:50:18Z</time>
      </trkpt>
      <trkpt lat="36.9491340" lon="-2.4040030">
        <ele>290.4</ele>
        <time>2020-02-16T08:50:19Z</time>
      </trkpt>
      <trkpt lat="36.9491120" lon="-2.4040240">
        <ele>290.4</ele>
        <time>2020-02-16T08:50:20Z</time>
      </trkpt>
      <trkpt lat="36.9490890" lon="-2.4040480">
        <ele>289.9</ele>
        <time>2020-02-16T08:50:21Z</time>
      </trkpt>
      <trkpt lat="36.9490620" lon="-2.4040750">
        <ele>289.4</ele>
        <time>2020-02-16T08:50:22Z</time>
      </trkpt>
      <trkpt lat="36.9490370" lon="-2.4040990">
        <ele>289.4</ele>
        <time>2020-02-16T08:50:23Z</time>
      </trkpt>
      <trkpt lat="36.9490090" lon="-2.4041250">
        <ele>288.9</ele>
        <time>2020-02-16T08:50:24Z</time>
      </trkpt>
      <trkpt lat="36.9489790" lon="-2.4041520">
        <ele>288.6</ele>
        <time>2020-02-16T08:50:25Z</time>
      </trkpt>
      <trkpt lat="36.9489540" lon="-2.4041760">
        <ele>288.2</ele>
        <time>2020-02-16T08:50:26Z</time>
      </trkpt>
      <trkpt lat="36.9489290" lon="-2.4041980">
        <ele>287.9</ele>
        <time>2020-02-16T08:50:27Z</time>
      </trkpt>
      <trkpt lat="36.9489070" lon="-2.4042180">
        <ele>287.8</ele>
        <time>2020-02-16T08:50:28Z</time>
      </trkpt>
      <trkpt lat="36.9488820" lon="-2.4042430">
        <ele>287.6</ele>
        <time>2020-02-16T08:50:29Z</time>
      </trkpt>
      <trkpt lat="36.9488610" lon="-2.4042640">
        <ele>287.3</ele>
        <time>2020-02-16T08:50:30Z</time>
      </trkpt>
      <trkpt lat="36.9488420" lon="-2.4042840">
        <ele>287.3</ele>
        <time>2020-02-16T08:50:31Z</time>
      </trkpt>
      <trkpt lat="36.9488170" lon="-2.4043080">
        <ele>287.0</ele>
        <time>2020-02-16T08:50:32Z</time>
      </trkpt>
      <trkpt lat="36.9487910" lon="-2.4043360">
        <ele>286.7</ele>
        <time>2020-02-16T08:50:33Z</time>
      </trkpt>
      <trkpt lat="36.9487660" lon="-2.4043600">
        <ele>286.7</ele>
        <time>2020-02-16T08:50:34Z</time>
      </trkpt>
      <trkpt lat="36.9487390" lon="-2.4043880">
        <ele>286.3</ele>
        <time>2020-02-16T08:50:35Z</time>
      </trkpt>
      <trkpt lat="36.9487210" lon="-2.4044090">
        <ele>286.1</ele>
        <time>2020-02-16T08:50:36Z</time>
      </trkpt>
      <trkpt lat="36.9486990" lon="-2.4044300">
        <ele>286.0</ele>
        <time>2020-02-16T08:50:37Z</time>
      </trkpt>
      <trkpt lat="36.9486760" lon="-2.4044560">
        <ele>285.7</ele>
        <time>2020-02-16T08:50:38Z</time>
      </trkpt>
      <trkpt lat="36.9486520" lon="-2.4044810">
        <ele>285.4</ele>
        <time>2020-02-16T08:50:39Z</time>
      </trkpt>
      <trkpt lat="36.9486310" lon="-2.4045030">
        <ele>285.4</ele>
        <time>2020-02-16T08:50:40Z</time>
      </trkpt>
      <trkpt lat="36.9486090" lon="-2.4045270">
        <ele>285.1</ele>
        <time>2020-02-16T08:50:41Z</time>
      </trkpt>
      <trkpt lat="36.9485790" lon="-2.4045610">
        <ele>284.9</ele>
        <time>2020-02-16T08:50:42Z</time>
      </trkpt>
      <trkpt lat="36.9485470" lon="-2.4045930">
        <ele>284.7</ele>
        <time>2020-02-16T08:50:43Z</time>
      </trkpt>
      <trkpt lat="36.9485140" lon="-2.4046270">
        <ele>284.6</ele>
        <time>2020-02-16T08:50:44Z</time>
      </trkpt>
      <trkpt lat="36.9484910" lon="-2.4046480">
        <ele>284.6</ele>
        <time>2020-02-16T08:50:45Z</time>
      </trkpt>
      <trkpt lat="36.9484640" lon="-2.4046740">
        <ele>284.5</ele>
        <time>2020-02-16T08:50:46Z</time>
      </trkpt>
      <trkpt lat="36.9484370" lon="-2.4046970">
        <ele>284.4</ele>
        <time>2020-02-16T08:50:47Z</time>
      </trkpt>
      <trkpt lat="36.9484070" lon="-2.4047200">
        <ele>284.3</ele>
        <time>2020-02-16T08:50:48Z</time>
      </trkpt>
      <trkpt lat="36.9483810" lon="-2.4047410">
        <ele>284.1</ele>
        <time>2020-02-16T08:50:49Z</time>
      </trkpt>
      <trkpt lat="36.9483540" lon="-2.4047610">
        <ele>284.1</ele>
        <time>2020-02-16T08:50:50Z</time>
      </trkpt>
      <trkpt lat="36.9483340" lon="-2.4047750">
        <ele>284.0</ele>
        <time>2020-02-16T08:50:51Z</time>
      </trkpt>
      <trkpt lat="36.9483190" lon="-2.4047840">
        <ele>284.0</ele>
        <time>2020-02-16T08:50:52Z</time>
      </trkpt>
      <trkpt lat="36.9482890" lon="-2.4048050">
        <ele>283.9</ele>
        <time>2020-02-16T08:50:53Z</time>
      </trkpt>
      <trkpt lat="36.9482660" lon="-2.4048220">
        <ele>283.8</ele>
        <time>2020-02-16T08:50:54Z</time>
      </trkpt>
      <trkpt lat="36.9482460" lon="-2.4048340">
        <ele>283.8</ele>
        <time>2020-02-16T08:50:55Z</time>
      </trkpt>
      <trkpt lat="36.9482160" lon="-2.4048570">
        <ele>283.8</ele>
        <time>2020-02-16T08:50:56Z</time>
      </trkpt>
      <trkpt lat="36.9481910" lon="-2.4048730">
        <ele>283.7</ele>
        <time>2020-02-16T08:50:57Z</time>
      </trkpt>
      <trkpt lat="36.9481670" lon="-2.4048900">
        <ele>283.5</ele>
        <time>2020-02-16T08:50:58Z</time>
      </trkpt>
      <trkpt lat="36.9481440" lon="-2.4049060">
        <ele>283.6</ele>
        <time>2020-02-16T08:50:59Z</time>
      </trkpt>
      <trkpt lat="36.9481210" lon="-2.4049220">
        <ele>283.5</ele>
        <time>2020-02-16T08:51:00Z</time>
      </trkpt>
      <trkpt lat="36.9481020" lon="-2.4049360">
        <ele>283.4</ele>
        <time>2020-02-16T08:51:01Z</time>
      </trkpt>
      <trkpt lat="36.9480770" lon="-2.4049530">
        <ele>283.4</ele>
        <time>2020-02-16T08:51:02Z</time>
      </trkpt>
      <trkpt lat="36.9480560" lon="-2.4049700">
        <ele>283.3</ele>
        <time>2020-02-16T08:51:03Z</time>
      </trkpt>
      <trkpt lat="36.9480310" lon="-2.4049910">
        <ele>283.2</ele>
        <time>2020-02-16T08:51:04Z</time>
      </trkpt>
      <trkpt lat="36.9479990" lon="-2.4050160">
        <ele>283.1</ele>
        <time>2020-02-16T08:51:05Z</time>
      </trkpt>
      <trkpt lat="36.9479720" lon="-2.4050370">
        <ele>283.1</ele>
        <time>2020-02-16T08:51:06Z</time>
      </trkpt>
      <trkpt lat="36.9479460" lon="-2.4050590">
        <ele>283.0</ele>
        <time>2020-02-16T08:51:07Z</time>
      </trkpt>
      <trkpt lat="36.9479190" lon="-2.4050780">
        <ele>282.9</ele>
        <time>2020-02-16T08:51:08Z</time>
      </trkpt>
      <trkpt lat="36.9478960" lon="-2.4050950">
        <ele>282.8</ele>
        <time>2020-02-16T08:51:09Z</time>
      </trkpt>
      <trkpt lat="36.9478610" lon="-2.4051230">
        <ele>282.6</ele>
        <time>2020-02-16T08:51:10Z</time>
      </trkpt>
      <trkpt lat="36.9478310" lon="-2.4051430">
        <ele>282.5</ele>
        <time>2020-02-16T08:51:11Z</time>
      </trkpt>
      <trkpt lat="36.9478090" lon="-2.4051560">
        <ele>282.5</ele>
        <time>2020-02-16T08:51:12Z</time>
      </trkpt>
      <trkpt lat="36.9477790" lon="-2.4051760">
        <ele>282.4</ele>
        <time>2020-02-16T08:51:13Z</time>
      </trkpt>
      <trkpt lat="36.9477610" lon="-2.4051870">
        <ele>282.3</ele>
        <time>2020-02-16T08:51:14Z</time>
      </trkpt>
      <trkpt lat="36.9477320" lon="-2.4052050">
        <ele>282.3</ele>
        <time>2020-02-16T08:51:15Z</time>
      </trkpt>
      <trkpt lat="36.9476970" lon="-2.4052290">
        <ele>282.1</ele>
        <time>2020-02-16T08:51:16Z</time>
      </trkpt>
      <trkpt lat="36.9476690" lon="-2.4052470">
        <ele>282.0</ele>
        <time>2020-02-16T08:51:17Z</time>
      </trkpt>
      <trkpt lat="36.9476460" lon="-2.4052610">
        <ele>281.9</ele>
        <time>2020-02-16T08:51:18Z</time>
      </trkpt>
      <trkpt lat="36.9476260" lon="-2.4052750">
        <ele>281.7</ele>
        <time>2020-02-16T08:51:19Z</time>
      </trkpt>
      <trkpt lat="36.9475960" lon="-2.4052940">
        <ele>281.8</ele>
        <time>2020-02-16T08:51:20Z</time>
      </trkpt>
      <trkpt lat="36.9475740" lon="-2.4053090">
        <ele>281.6</ele>
        <time>2020-02-16T08:51:21Z</time>
      </trkpt>
      <trkpt lat="36.9475370" lon="-2.4053350">
        <ele>281.5</ele>
        <time>2020-02-16T08:51:22Z</time>
      </trkpt>
      <trkpt lat="36.9475090" lon="-2.4053540">
        <ele>281.3</ele>
        <time>2020-02-16T08:51:23Z</time>
      </trkpt>
      <trkpt lat="36.9474840" lon="-2.4053710">
        <ele>281.1</ele>
        <time>2020-02-16T08:51:24Z</time>
      </trkpt>
      <trkpt lat="36.9474570" lon="-2.4053860">
        <ele>281.1</ele>
        <time>2020-02-16T08:51:25Z</time>
      </trkpt>
      <trkpt lat="36.9474270" lon="-2.4054050">
        <ele>281.0</ele>
        <time>2020-02-16T08:51:26Z</time>
      </trkpt>
      <trkpt lat="36.9473960" lon="-2.4054250">
        <ele>280.8</ele>
        <time>2020-02-16T08:51:27Z</time>
      </trkpt>
      <trkpt lat="36.9473740" lon="-2.4054380">
        <ele>280.6</ele>
        <time>2020-02-16T08:51:28Z</time>
      </trkpt>
      <trkpt lat="36.9473420" lon="-2.4054570">
        <ele>280.5</ele>
        <time>2020-02-16T08:51:29Z</time>
      </trkpt>
      <trkpt lat="36.9473110" lon="-2.4054770">
        <ele>280.3</ele>
        <time>2020-02-16T08:51:30Z</time>
      </trkpt>
      <trkpt lat="36.9472870" lon="-2.4054900">
        <ele>280.3</ele>
        <time>2020-02-16T08:51:31Z</time>
      </trkpt>
      <trkpt lat="36.9472520" lon="-2.4055140">
        <ele>280.1</ele>
        <time>2020-02-16T08:51:32Z</time>
      </trkpt>
      <trkpt lat="36.9472210" lon="-2.4055340">
        <ele>279.9</ele>
        <time>2020-02-16T08:51:33Z</time>
      </trkpt>
      <trkpt lat="36.9471990" lon="-2.4055440">
        <ele>279.6</ele>
        <time>2020-02-16T08:51:34Z</time>
      </trkpt>
      <trkpt lat="36.9471740" lon="-2.4055590">
        <ele>279.4</ele>
        <time>2020-02-16T08:51:35Z</time>
      </trkpt>
      <trkpt lat="36.9471440" lon="-2.4055770">
        <ele>279.1</ele>
        <time>2020-02-16T08:51:36Z</time>
      </trkpt>
      <trkpt lat="36.9471180" lon="-2.4055930">
        <ele>279.1</ele>
        <time>2020-02-16T08:51:37Z</time>
      </trkpt>
      <trkpt lat="36.9470980" lon="-2.4056050">
        <ele>278.8</ele>
        <time>2020-02-16T08:51:38Z</time>
      </trkpt>
      <trkpt lat="36.9470660" lon="-2.4056240">
        <ele>278.5</ele>
        <time>2020-02-16T08:51:39Z</time>
      </trkpt>
      <trkpt lat="36.9470460" lon="-2.4056360">
        <ele>278.5</ele>
        <time>2020-02-16T08:51:40Z</time>
      </trkpt>
      <trkpt lat="36.9470210" lon="-2.4056510">
        <ele>278.2</ele>
        <time>2020-02-16T08:51:41Z</time>
      </trkpt>
      <trkpt lat="36.9469860" lon="-2.4056730">
        <ele>277.9</ele>
        <time>2020-02-16T08:51:42Z</time>
      </trkpt>
      <trkpt lat="36.9469580" lon="-2.4056900">
        <ele>277.6</ele>
        <time>2020-02-16T08:51:43Z</time>
      </trkpt>
      <trkpt lat="36.9469340" lon="-2.4057060">
        <ele>277.3</ele>
        <time>2020-02-16T08:51:44Z</time>
      </trkpt>
      <trkpt lat="36.9469060" lon="-2.4057240">
        <ele>276.9</ele>
        <time>2020-02-16T08:51:45Z</time>
      </trkpt>
      <trkpt lat="36.9468830" lon="-2.4057410">
        <ele>276.9</ele>
        <time>2020-02-16T08:51:46Z</time>
      </trkpt>
      <trkpt lat="36.9468640" lon="-2.4057540">
        <ele>276.6</ele>
        <time>2020-02-16T08:51:47Z</time>
      </trkpt>
      <trkpt lat="36.9468290" lon="-2.4057760">
        <ele>276.3</ele>
        <time>2020-02-16T08:51:48Z</time>
      </trkpt>
      <trkpt lat="36.9467980" lon="-2.4057980">
        <ele>276.0</ele>
        <time>2020-02-16T08:51:49Z</time>
      </trkpt>
      <trkpt lat="36.9467790" lon="-2.4058110">
        <ele>276.0</ele>
        <time>2020-02-16T08:51:50Z</time>
      </trkpt>
      <trkpt lat="36.9467460" lon="-2.4058340">
        <ele>275.6</ele>
        <time>2020-02-16T08:51:51Z</time>
      </trkpt>
      <trkpt lat="36.9467290" lon="-2.4058460">
        <ele>275.3</ele>
        <time>2020-02-16T08:51:52Z</time>
      </trkpt>
      <trkpt lat="36.9467010" lon="-2.4058680">
        <ele>274.9</ele>
        <time>2020-02-16T08:51:53Z</time>
      </trkpt>
      <trkpt lat="36.9466780" lon="-2.4058870">
        <ele>274.9</ele>
        <time>2020-02-16T08:51:54Z</time>
      </trkpt>
      <trkpt lat="36.9466540" lon="-2.4059030">
        <ele>274.6</ele>
        <time>2020-02-16T08:51:55Z</time>
      </trkpt>
      <trkpt lat="36.9466290" lon="-2.4059240">
        <ele>274.3</ele>
        <time>2020-02-16T08:51:56Z</time>
      </trkpt>
      <trkpt lat="36.9466010" lon="-2.4059480">
        <ele>274.3</ele>
        <time>2020-02-16T08:51:57Z</time>
      </trkpt>
      <trkpt lat="36.9465780" lon="-2.4059650">
        <ele>274.0</ele>
        <time>2020-02-16T08:51:58Z</time>
      </trkpt>
      <trkpt lat="36.9465560" lon="-2.4059820">
        <ele>273.7</ele>
        <time>2020-02-16T08:51:59Z</time>
      </trkpt>
      <trkpt lat="36.9465380" lon="-2.4060000">
        <ele>273.7</ele>
        <time>2020-02-16T08:52:00Z</time>
      </trkpt>
      <trkpt lat="36.9465190" lon="-2.4060160">
        <ele>273.5</ele>
        <time>2020-02-16T08:52:01Z</time>
      </trkpt>
      <trkpt lat="36.9465040" lon="-2.4060320">
        <ele>273.5</ele>
        <time>2020-02-16T08:52:02Z</time>
      </trkpt>
      <trkpt lat="36.9464810" lon="-2.4060520">
        <ele>273.3</ele>
        <time>2020-02-16T08:52:03Z</time>
      </trkpt>
      <trkpt lat="36.9464530" lon="-2.4060770">
        <ele>273.0</ele>
        <time>2020-02-16T08:52:04Z</time>
      </trkpt>
      <trkpt lat="36.9464390" lon="-2.4060900">
        <ele>273.0</ele>
        <time>2020-02-16T08:52:05Z</time>
      </trkpt>
      <trkpt lat="36.9464090" lon="-2.4061170">
        <ele>272.8</ele>
        <time>2020-02-16T08:52:06Z</time>
      </trkpt>
      <trkpt lat="36.9463830" lon="-2.4061410">
        <ele>272.6</ele>
        <time>2020-02-16T08:52:07Z</time>
      </trkpt>
      <trkpt lat="36.9463660" lon="-2.4061590">
        <ele>272.6</ele>
        <time>2020-02-16T08:52:08Z</time>
      </trkpt>
      <trkpt lat="36.9463360" lon="-2.4061850">
        <ele>272.4</ele>
        <time>2020-02-16T08:52:09Z</time>
      </trkpt>
      <trkpt lat="36.9463130" lon="-2.4062070">
        <ele>272.2</ele>
        <time>2020-02-16T08:52:10Z</time>
      </trkpt>
      <trkpt lat="36.9462880" lon="-2.4062300">
        <ele>272.0</ele>
        <time>2020-02-16T08:52:11Z</time>
      </trkpt>
      <trkpt lat="36.9462580" lon="-2.4062570">
        <ele>272.0</ele>
        <time>2020-02-16T08:52:12Z</time>
      </trkpt>
      <trkpt lat="36.9462340" lon="-2.4062770">
        <ele>271.8</ele>
        <time>2020-02-16T08:52:13Z</time>
      </trkpt>
      <trkpt lat="36.9462140" lon="-2.4062960">
        <ele>271.6</ele>
        <time>2020-02-16T08:52:14Z</time>
      </trkpt>
      <trkpt lat="36.9461930" lon="-2.4063150">
        <ele>271.7</ele>
        <time>2020-02-16T08:52:15Z</time>
      </trkpt>
      <trkpt lat="36.9461630" lon="-2.4063410">
        <ele>271.4</ele>
        <time>2020-02-16T08:52:16Z</time>
      </trkpt>
      <trkpt lat="36.9461430" lon="-2.4063580">
        <ele>271.2</ele>
        <time>2020-02-16T08:52:17Z</time>
      </trkpt>
      <trkpt lat="36.9461210" lon="-2.4063780">
        <ele>271.2</ele>
        <time>2020-02-16T08:52:18Z</time>
      </trkpt>
      <trkpt lat="36.9461030" lon="-2.4063940">
        <ele>271.0</ele>
        <time>2020-02-16T08:52:19Z</time>
      </trkpt>
      <trkpt lat="36.9460830" lon="-2.4064130">
        <ele>270.8</ele>
        <time>2020-02-16T08:52:20Z</time>
      </trkpt>
      <trkpt lat="36.9460580" lon="-2.4064350">
        <ele>270.8</ele>
        <time>2020-02-16T08:52:21Z</time>
      </trkpt>
      <trkpt lat="36.9460410" lon="-2.4064520">
        <ele>270.6</ele>
        <time>2020-02-16T08:52:22Z</time>
      </trkpt>
      <trkpt lat="36.9460210" lon="-2.4064710">
        <ele>270.6</ele>
        <time>2020-02-16T08:52:23Z</time>
      </trkpt>
      <trkpt lat="36.9459990" lon="-2.4064930">
        <ele>270.4</ele>
        <time>2020-02-16T08:52:24Z</time>
      </trkpt>
      <trkpt lat="36.9459840" lon="-2.4065080">
        <ele>270.4</ele>
        <time>2020-02-16T08:52:25Z</time>
      </trkpt>
      <trkpt lat="36.9459630" lon="-2.4065280">
        <ele>270.3</ele>
        <time>2020-02-16T08:52:26Z</time>
      </trkpt>
      <trkpt lat="36.9459360" lon="-2.4065530">
        <ele>270.1</ele>
        <time>2020-02-16T08:52:27Z</time>
      </trkpt>
      <trkpt lat="36.9459130" lon="-2.4065750">
        <ele>270.0</ele>
        <time>2020-02-16T08:52:28Z</time>
      </trkpt>
      <trkpt lat="36.9458930" lon="-2.4065940">
        <ele>270.0</ele>
        <time>2020-02-16T08:52:29Z</time>
      </trkpt>
      <trkpt lat="36.9458710" lon="-2.4066150">
        <ele>269.8</ele>
        <time>2020-02-16T08:52:30Z</time>
      </trkpt>
      <trkpt lat="36.9458490" lon="-2.4066380">
        <ele>269.8</ele>
        <time>2020-02-16T08:52:31Z</time>
      </trkpt>
      <trkpt lat="36.9458330" lon="-2.4066550">
        <ele>269.7</ele>
        <time>2020-02-16T08:52:32Z</time>
      </trkpt>
      <trkpt lat="36.9458110" lon="-2.4066770">
        <ele>269.7</ele>
        <time>2020-02-16T08:52:33Z</time>
      </trkpt>
      <trkpt lat="36.9457940" lon="-2.4066960">
        <ele>269.5</ele>
        <time>2020-02-16T08:52:34Z</time>
      </trkpt>
      <trkpt lat="36.9457780" lon="-2.4067130">
        <ele>269.5</ele>
        <time>2020-02-16T08:52:35Z</time>
      </trkpt>
      <trkpt lat="36.9457610" lon="-2.4067330">
        <ele>269.3</ele>
        <time>2020-02-16T08:52:36Z</time>
      </trkpt>
      <trkpt lat="36.9457440" lon="-2.4067550">
        <ele>269.2</ele>
        <time>2020-02-16T08:52:37Z</time>
      </trkpt>
      <trkpt lat="36.9457230" lon="-2.4067790">
        <ele>268.9</ele>
        <time>2020-02-16T08:52:38Z</time>
      </trkpt>
      <trkpt lat="36.9456990" lon="-2.4068050">
        <ele>268.7</ele>
        <time>2020-02-16T08:52:39Z</time>
      </trkpt>
      <trkpt lat="36.9456760" lon="-2.4068340">
        <ele>268.6</ele>
        <time>2020-02-16T08:52:40Z</time>
      </trkpt>
      <trkpt lat="36.9456530" lon="-2.4068600">
        <ele>268.4</ele>
        <time>2020-02-16T08:52:41Z</time>
      </trkpt>
      <trkpt lat="36.9456360" lon="-2.4068810">
        <ele>268.1</ele>
        <time>2020-02-16T08:52:42Z</time>
      </trkpt>
      <trkpt lat="36.9456060" lon="-2.4069160">
        <ele>268.0</ele>
        <time>2020-02-16T08:52:43Z</time>
      </trkpt>
      <trkpt lat="36.9455790" lon="-2.4069460">
        <ele>267.8</ele>
        <time>2020-02-16T08:52:44Z</time>
      </trkpt>
      <trkpt lat="36.9455610" lon="-2.4069680">
        <ele>267.4</ele>
        <time>2020-02-16T08:52:45Z</time>
      </trkpt>
      <trkpt lat="36.9455290" lon="-2.4070060">
        <ele>267.1</ele>
        <time>2020-02-16T08:52:46Z</time>
      </trkpt>
      <trkpt lat="36.9455040" lon="-2.4070320">
        <ele>267.1</ele>
        <time>2020-02-16T08:52:47Z</time>
      </trkpt>
      <trkpt lat="36.9454810" lon="-2.4070600">
        <ele>266.8</ele>
        <time>2020-02-16T08:52:48Z</time>
      </trkpt>
      <trkpt lat="36.9454560" lon="-2.4070870">
        <ele>266.5</ele>
        <time>2020-02-16T08:52:49Z</time>
      </trkpt>
      <trkpt lat="36.9454350" lon="-2.4071130">
        <ele>266.5</ele>
        <time>2020-02-16T08:52:50Z</time>
      </trkpt>
      <trkpt lat="36.9454100" lon="-2.4071410">
        <ele>266.2</ele>
        <time>2020-02-16T08:52:51Z</time>
      </trkpt>
      <trkpt lat="36.9453900" lon="-2.4071650">
        <ele>265.9</ele>
        <time>2020-02-16T08:52:52Z</time>
      </trkpt>
      <trkpt lat="36.9453660" lon="-2.4071920">
        <ele>265.9</ele>
        <time>2020-02-16T08:52:53Z</time>
      </trkpt>
      <trkpt lat="36.9453330" lon="-2.4072280">
        <ele>265.6</ele>
        <time>2020-02-16T08:52:54Z</time>
      </trkpt>
      <trkpt lat="36.9453060" lon="-2.4072580">
        <ele>265.3</ele>
        <time>2020-02-16T08:52:55Z</time>
      </trkpt>
      <trkpt lat="36.9452800" lon="-2.4072870">
        <ele>265.0</ele>
        <time>2020-02-16T08:52:56Z</time>
      </trkpt>
      <trkpt lat="36.9452600" lon="-2.4073090">
        <ele>264.8</ele>
        <time>2020-02-16T08:52:57Z</time>
      </trkpt>
      <trkpt lat="36.9452310" lon="-2.4073370">
        <ele>264.7</ele>
        <time>2020-02-16T08:52:58Z</time>
      </trkpt>
      <trkpt lat="36.9451960" lon="-2.4073730">
        <ele>264.5</ele>
        <time>2020-02-16T08:52:59Z</time>
      </trkpt>
      <trkpt lat="36.9451700" lon="-2.4073990">
        <ele>264.2</ele>
        <time>2020-02-16T08:53:00Z</time>
      </trkpt>
      <trkpt lat="36.9451460" lon="-2.4074220">
        <ele>264.0</ele>
        <time>2020-02-16T08:53:01Z</time>
      </trkpt>
      <trkpt lat="36.9451230" lon="-2.4074460">
        <ele>263.8</ele>
        <time>2020-02-16T08:53:02Z</time>
      </trkpt>
      <trkpt lat="36.9451030" lon="-2.4074640">
        <ele>263.8</ele>
        <time>2020-02-16T08:53:03Z</time>
      </trkpt>
      <trkpt lat="36.9450710" lon="-2.4074970">
        <ele>263.5</ele>
        <time>2020-02-16T08:53:04Z</time>
      </trkpt>
      <trkpt lat="36.9450410" lon="-2.4075260">
        <ele>263.2</ele>
        <time>2020-02-16T08:53:05Z</time>
      </trkpt>
      <trkpt lat="36.9450160" lon="-2.4075490">
        <ele>263.0</ele>
        <time>2020-02-16T08:53:06Z</time>
      </trkpt>
      <trkpt lat="36.9449910" lon="-2.4075730">
        <ele>263.0</ele>
        <time>2020-02-16T08:53:07Z</time>
      </trkpt>
      <trkpt lat="36.9449650" lon="-2.4075970">
        <ele>262.7</ele>
        <time>2020-02-16T08:53:08Z</time>
      </trkpt>
      <trkpt lat="36.9449360" lon="-2.4076220">
        <ele>262.5</ele>
        <time>2020-02-16T08:53:09Z</time>
      </trkpt>
      <trkpt lat="36.9449060" lon="-2.4076500">
        <ele>262.3</ele>
        <time>2020-02-16T08:53:10Z</time>
      </trkpt>
      <trkpt lat="36.9448810" lon="-2.4076700">
        <ele>262.1</ele>
        <time>2020-02-16T08:53:11Z</time>
      </trkpt>
      <trkpt lat="36.9448610" lon="-2.4076870">
        <ele>262.1</ele>
        <time>2020-02-16T08:53:12Z</time>
      </trkpt>
      <trkpt lat="36.9448300" lon="-2.4077140">
        <ele>262.0</ele>
        <time>2020-02-16T08:53:13Z</time>
      </trkpt>
      <trkpt lat="36.9448100" lon="-2.4077320">
        <ele>261.8</ele>
        <time>2020-02-16T08:53:14Z</time>
      </trkpt>
      <trkpt lat="36.9447810" lon="-2.4077550">
        <ele>261.7</ele>
        <time>2020-02-16T08:53:15Z</time>
      </trkpt>
      <trkpt lat="36.9447560" lon="-2.4077770">
        <ele>261.7</ele>
        <time>2020-02-16T08:53:16Z</time>
      </trkpt>
      <trkpt lat="36.9447230" lon="-2.4078050">
        <ele>261.6</ele>
        <time>2020-02-16T08:53:17Z</time>
      </trkpt>
      <trkpt lat="36.9447030" lon="-2.4078200">
        <ele>261.5</ele>
        <time>2020-02-16T08:53:18Z</time>
      </trkpt>
      <trkpt lat="36.9446830" lon="-2.4078350">
        <ele>261.5</ele>
        <time>2020-02-16T08:53:19Z</time>
      </trkpt>
      <trkpt lat="36.9446610" lon="-2.4078510">
        <ele>261.4</ele>
        <time>2020-02-16T08:53:20Z</time>
      </trkpt>
      <trkpt lat="36.9446380" lon="-2.4078690">
        <ele>261.3</ele>
        <time>2020-02-16T08:53:21Z</time>
      </trkpt>
      <trkpt lat="36.9446130" lon="-2.4078910">
        <ele>261.3</ele>
        <time>2020-02-16T08:53:22Z</time>
      </trkpt>
      <trkpt lat="36.9445880" lon="-2.4079110">
        <ele>261.2</ele>
        <time>2020-02-16T08:53:23Z</time>
      </trkpt>
      <trkpt lat="36.9445610" lon="-2.4079340">
        <ele>261.1</ele>
        <time>2020-02-16T08:53:24Z</time>
      </trkpt>
      <trkpt lat="36.9445400" lon="-2.4079530">
        <ele>261.0</ele>
        <time>2020-02-16T08:53:25Z</time>
      </trkpt>
      <trkpt lat="36.9445160" lon="-2.4079720">
        <ele>261.0</ele>
        <time>2020-02-16T08:53:26Z</time>
      </trkpt>
      <trkpt lat="36.9445000" lon="-2.4079860">
        <ele>260.9</ele>
        <time>2020-02-16T08:53:27Z</time>
      </trkpt>
      <trkpt lat="36.9444760" lon="-2.4080080">
        <ele>260.9</ele>
        <time>2020-02-16T08:53:28Z</time>
      </trkpt>
      <trkpt lat="36.9444510" lon="-2.4080290">
        <ele>260.9</ele>
        <time>2020-02-16T08:53:29Z</time>
      </trkpt>
      <trkpt lat="36.9444310" lon="-2.4080480">
        <ele>260.8</ele>
        <time>2020-02-16T08:53:30Z</time>
      </trkpt>
      <trkpt lat="36.9444150" lon="-2.4080640">
        <ele>260.8</ele>
        <time>2020-02-16T08:53:31Z</time>
      </trkpt>
      <trkpt lat="36.9443810" lon="-2.4080910">
        <ele>260.7</ele>
        <time>2020-02-16T08:53:32Z</time>
      </trkpt>
      <trkpt lat="36.9443550" lon="-2.4081130">
        <ele>260.6</ele>
        <time>2020-02-16T08:53:33Z</time>
      </trkpt>
      <trkpt lat="36.9443310" lon="-2.4081340">
        <ele>260.6</ele>
        <time>2020-02-16T08:53:34Z</time>
      </trkpt>
      <trkpt lat="36.9443100" lon="-2.4081510">
        <ele>260.6</ele>
        <time>2020-02-16T08:53:35Z</time>
      </trkpt>
      <trkpt lat="36.9442760" lon="-2.4081810">
        <ele>260.5</ele>
        <time>2020-02-16T08:53:36Z</time>
      </trkpt>
      <trkpt lat="36.9442500" lon="-2.4082020">
        <ele>260.5</ele>
        <time>2020-02-16T08:53:37Z</time>
      </trkpt>
      <trkpt lat="36.9442230" lon="-2.4082230">
        <ele>260.5</ele>
        <time>2020-02-16T08:53:38Z</time>
      </trkpt>
      <trkpt lat="36.9441960" lon="-2.4082420">
        <ele>260.5</ele>
        <time>2020-02-16T08:53:39Z</time>
      </trkpt>
      <trkpt lat="36.9441730" lon="-2.4082590">
        <ele>260.5</ele>
        <time>2020-02-16T08:53:40Z</time>
      </trkpt>
      <trkpt lat="36.9441500" lon="-2.4082740">
        <ele>260.5</ele>
        <time>2020-02-16T08:53:41Z</time>
      </trkpt>
      <trkpt lat="36.9441250" lon="-2.4082900">
        <ele>260.4</ele>
        <time>2020-02-16T08:53:42Z</time>
      </trkpt>
      <trkpt lat="36.9440980" lon="-2.4083070">
        <ele>260.4</ele>
        <time>2020-02-16T08:53:43Z</time>
      </trkpt>
      <trkpt lat="36.9440760" lon="-2.4083170">
        <ele>260.4</ele>
        <time>2020-02-16T08:53:44Z</time>
      </trkpt>
      <trkpt lat="36.9440550" lon="-2.4083270">
        <ele>260.3</ele>
        <time>2020-02-16T08:53:45Z</time>
      </trkpt>
      <trkpt lat="36.9440280" lon="-2.4083410">
        <ele>260.3</ele>
        <time>2020-02-16T08:53:46Z</time>
      </trkpt>
      <trkpt lat="36.9440030" lon="-2.4083530">
        <ele>260.2</ele>
        <time>2020-02-16T08:53:47Z</time>
      </trkpt>
      <trkpt lat="36.9439750" lon="-2.4083660">
        <ele>260.1</ele>
        <time>2020-02-16T08:53:48Z</time>
      </trkpt>
      <trkpt lat="36.9439500" lon="-2.4083780">
        <ele>259.9</ele>
        <time>2020-02-16T08:53:49Z</time>
      </trkpt>
      <trkpt lat="36.9439250" lon="-2.4083870">
        <ele>259.9</ele>
        <time>2020-02-16T08:53:50Z</time>
      </trkpt>
      <trkpt lat="36.9439000" lon="-2.4083960">
        <ele>259.8</ele>
        <time>2020-02-16T08:53:51Z</time>
      </trkpt>
      <trkpt lat="36.9438760" lon="-2.4084060">
        <ele>259.5</ele>
        <time>2020-02-16T08:53:52Z</time>
      </trkpt>
      <trkpt lat="36.9438530" lon="-2.4084130">
        <ele>259.2</ele>
        <time>2020-02-16T08:53:53Z</time>
      </trkpt>
      <trkpt lat="36.9438260" lon="-2.4084250">
        <ele>259.2</ele>
        <time>2020-02-16T08:53:54Z</time>
      </trkpt>
      <trkpt lat="36.9438000" lon="-2.4084370">
        <ele>259.0</ele>
        <time>2020-02-16T08:53:55Z</time>
      </trkpt>
      <trkpt lat="36.9437760" lon="-2.4084490">
        <ele>258.7</ele>
        <time>2020-02-16T08:53:56Z</time>
      </trkpt>
      <trkpt lat="36.9437500" lon="-2.4084600">
        <ele>258.4</ele>
        <time>2020-02-16T08:53:57Z</time>
      </trkpt>
      <trkpt lat="36.9437260" lon="-2.4084720">
        <ele>258.4</ele>
        <time>2020-02-16T08:53:58Z</time>
      </trkpt>
      <trkpt lat="36.9436960" lon="-2.4084880">
        <ele>258.2</ele>
        <time>2020-02-16T08:53:59Z</time>
      </trkpt>
      <trkpt lat="36.9436680" lon="-2.4085030">
        <ele>257.8</ele>
        <time>2020-02-16T08:54:00Z</time>
      </trkpt>
      <trkpt lat="36.9436410" lon="-2.4085170">
        <ele>257.6</ele>
        <time>2020-02-16T08:54:01Z</time>
      </trkpt>
      <trkpt lat="36.9436160" lon="-2.4085300">
        <ele>257.6</ele>
        <time>2020-02-16T08:54:02Z</time>
      </trkpt>
      <trkpt lat="36.9435870" lon="-2.4085240">
        <ele>257.3</ele>
        <time>2020-02-16T08:54:03Z</time>
      </trkpt>
      <trkpt lat="36.9435550" lon="-2.4085320">
        <ele>257.0</ele>
        <time>2020-02-16T08:54:04Z</time>
      </trkpt>
      <trkpt lat="36.9435270" lon="-2.4085370">
        <ele>256.8</ele>
        <time>2020-02-16T08:54:05Z</time>
      </trkpt>
      <trkpt lat="36.9435020" lon="-2.4085430">
        <ele>256.2</ele>
        <time>2020-02-16T08:54:06Z</time>
      </trkpt>
      <trkpt lat="36.9434780" lon="-2.4085500">
        <ele>255.9</ele>
        <time>2020-02-16T08:54:07Z</time>
      </trkpt>
      <trkpt lat="36.9434550" lon="-2.4085570">
        <ele>255.9</ele>
        <time>2020-02-16T08:54:08Z</time>
      </trkpt>
      <trkpt lat="36.9434300" lon="-2.4085660">
        <ele>255.6</ele>
        <time>2020-02-16T08:54:09Z</time>
      </trkpt>
      <trkpt lat="36.9434070" lon="-2.4085780">
        <ele>255.3</ele>
        <time>2020-02-16T08:54:10Z</time>
      </trkpt>
      <trkpt lat="36.9433850" lon="-2.4085910">
        <ele>255.1</ele>
        <time>2020-02-16T08:54:11Z</time>
      </trkpt>
      <trkpt lat="36.9433580" lon="-2.4086090">
        <ele>254.8</ele>
        <time>2020-02-16T08:54:12Z</time>
      </trkpt>
      <trkpt lat="36.9433350" lon="-2.4086250">
        <ele>254.3</ele>
        <time>2020-02-16T08:54:13Z</time>
      </trkpt>
      <trkpt lat="36.9433070" lon="-2.4086440">
        <ele>254.3</ele>
        <time>2020-02-16T08:54:14Z</time>
      </trkpt>
      <trkpt lat="36.9432770" lon="-2.4086630">
        <ele>254.0</ele>
        <time>2020-02-16T08:54:15Z</time>
      </trkpt>
      <trkpt lat="36.9432500" lon="-2.4086820">
        <ele>253.5</ele>
        <time>2020-02-16T08:54:16Z</time>
      </trkpt>
      <trkpt lat="36.9432280" lon="-2.4086990">
        <ele>253.2</ele>
        <time>2020-02-16T08:54:17Z</time>
      </trkpt>
      <trkpt lat="36.9432050" lon="-2.4087180">
        <ele>253.0</ele>
        <time>2020-02-16T08:54:18Z</time>
      </trkpt>
      <trkpt lat="36.9431870" lon="-2.4087370">
        <ele>252.7</ele>
        <time>2020-02-16T08:54:19Z</time>
      </trkpt>
      <trkpt lat="36.9431700" lon="-2.4087570">
        <ele>252.5</ele>
        <time>2020-02-16T08:54:20Z</time>
      </trkpt>
      <trkpt lat="36.9431530" lon="-2.4087760">
        <ele>252.3</ele>
        <time>2020-02-16T08:54:21Z</time>
      </trkpt>
      <trkpt lat="36.9431370" lon="-2.4088510">
        <ele>251.8</ele>
        <time>2020-02-16T08:54:22Z</time>
      </trkpt>
      <trkpt lat="36.9431250" lon="-2.4088820">
        <ele>251.1</ele>
        <time>2020-02-16T08:54:23Z</time>
      </trkpt>
      <trkpt lat="36.9431100" lon="-2.4089110">
        <ele>251.1</ele>
        <time>2020-02-16T08:54:24Z</time>
      </trkpt>
      <trkpt lat="36.9430910" lon="-2.4089360">
        <ele>250.4</ele>
        <time>2020-02-16T08:54:25Z</time>
      </trkpt>
      <trkpt lat="36.9430700" lon="-2.4089640">
        <ele>250.4</ele>
        <time>2020-02-16T08:54:26Z</time>
      </trkpt>
      <trkpt lat="36.9430470" lon="-2.4089970">
        <ele>249.8</ele>
        <time>2020-02-16T08:54:27Z</time>
      </trkpt>
      <trkpt lat="36.9430280" lon="-2.4090290">
        <ele>249.1</ele>
        <time>2020-02-16T08:54:28Z</time>
      </trkpt>
      <trkpt lat="36.9430100" lon="-2.4090610">
        <ele>248.9</ele>
        <time>2020-02-16T08:54:29Z</time>
      </trkpt>
      <trkpt lat="36.9429960" lon="-2.4090870">
        <ele>248.5</ele>
        <time>2020-02-16T08:54:30Z</time>
      </trkpt>
      <trkpt lat="36.9429790" lon="-2.4091170">
        <ele>248.3</ele>
        <time>2020-02-16T08:54:31Z</time>
      </trkpt>
      <trkpt lat="36.9429620" lon="-2.4091470">
        <ele>247.8</ele>
        <time>2020-02-16T08:54:32Z</time>
      </trkpt>
      <trkpt lat="36.9429430" lon="-2.4091770">
        <ele>247.8</ele>
        <time>2020-02-16T08:54:33Z</time>
      </trkpt>
      <trkpt lat="36.9429130" lon="-2.4092060">
        <ele>247.3</ele>
        <time>2020-02-16T08:54:34Z</time>
      </trkpt>
      <trkpt lat="36.9428870" lon="-2.4092300">
        <ele>246.9</ele>
        <time>2020-02-16T08:54:35Z</time>
      </trkpt>
      <trkpt lat="36.9428600" lon="-2.4092560">
        <ele>246.6</ele>
        <time>2020-02-16T08:54:36Z</time>
      </trkpt>
      <trkpt lat="36.9428400" lon="-2.4092730">
        <ele>246.5</ele>
        <time>2020-02-16T08:54:37Z</time>
      </trkpt>
      <trkpt lat="36.9428080" lon="-2.4093020">
        <ele>246.2</ele>
        <time>2020-02-16T08:54:38Z</time>
      </trkpt>
      <trkpt lat="36.9427850" lon="-2.4093250">
        <ele>245.8</ele>
        <time>2020-02-16T08:54:39Z</time>
      </trkpt>
      <trkpt lat="36.9427580" lon="-2.4093500">
        <ele>245.8</ele>
        <time>2020-02-16T08:54:40Z</time>
      </trkpt>
      <trkpt lat="36.9427270" lon="-2.4093750">
        <ele>245.4</ele>
        <time>2020-02-16T08:54:41Z</time>
      </trkpt>
      <trkpt lat="36.9426970" lon="-2.4093980">
        <ele>245.0</ele>
        <time>2020-02-16T08:54:42Z</time>
      </trkpt>
      <trkpt lat="36.9426650" lon="-2.4094210">
        <ele>244.8</ele>
        <time>2020-02-16T08:54:43Z</time>
      </trkpt>
      <trkpt lat="36.9426380" lon="-2.4094380">
        <ele>244.6</ele>
        <time>2020-02-16T08:54:44Z</time>
      </trkpt>
      <trkpt lat="36.9426080" lon="-2.4094570">
        <ele>244.2</ele>
        <time>2020-02-16T08:54:45Z</time>
      </trkpt>
      <trkpt lat="36.9425770" lon="-2.4094760">
        <ele>244.0</ele>
        <time>2020-02-16T08:54:46Z</time>
      </trkpt>
      <trkpt lat="36.9425480" lon="-2.4094890">
        <ele>243.7</ele>
        <time>2020-02-16T08:54:47Z</time>
      </trkpt>
      <trkpt lat="36.9425200" lon="-2.4095040">
        <ele>243.7</ele>
        <time>2020-02-16T08:54:48Z</time>
      </trkpt>
      <trkpt lat="36.9424930" lon="-2.4095190">
        <ele>243.4</ele>
        <time>2020-02-16T08:54:49Z</time>
      </trkpt>
      <trkpt lat="36.9424670" lon="-2.4095370">
        <ele>243.0</ele>
        <time>2020-02-16T08:54:50Z</time>
      </trkpt>
      <trkpt lat="36.9424420" lon="-2.4095540">
        <ele>242.7</ele>
        <time>2020-02-16T08:54:51Z</time>
      </trkpt>
      <trkpt lat="36.9424220" lon="-2.4095710">
        <ele>242.5</ele>
        <time>2020-02-16T08:54:52Z</time>
      </trkpt>
      <trkpt lat="36.9424020" lon="-2.4095880">
        <ele>242.2</ele>
        <time>2020-02-16T08:54:53Z</time>
      </trkpt>
      <trkpt lat="36.9423850" lon="-2.4096040">
        <ele>242.2</ele>
        <time>2020-02-16T08:54:54Z</time>
      </trkpt>
      <trkpt lat="36.9423720" lon="-2.4096540">
        <ele>241.6</ele>
        <time>2020-02-16T08:54:55Z</time>
      </trkpt>
      <trkpt lat="36.9423650" lon="-2.4096820">
        <ele>241.6</ele>
        <time>2020-02-16T08:54:56Z</time>
      </trkpt>
      <trkpt lat="36.9423580" lon="-2.4097090">
        <ele>241.3</ele>
        <time>2020-02-16T08:54:57Z</time>
      </trkpt>
      <trkpt lat="36.9423470" lon="-2.4097360">
        <ele>241.3</ele>
        <time>2020-02-16T08:54:58Z</time>
      </trkpt>
      <trkpt lat="36.9423320" lon="-2.4097660">
        <ele>240.8</ele>
        <time>2020-02-16T08:54:59Z</time>
      </trkpt>
      <trkpt lat="36.9423050" lon="-2.4097910">
        <ele>240.4</ele>
        <time>2020-02-16T08:55:00Z</time>
      </trkpt>
      <trkpt lat="36.9422780" lon="-2.4098170">
        <ele>240.4</ele>
        <time>2020-02-16T08:55:01Z</time>
      </trkpt>
      <trkpt lat="36.9422420" lon="-2.4098460">
        <ele>239.8</ele>
        <time>2020-02-16T08:55:02Z</time>
      </trkpt>
      <trkpt lat="36.9422020" lon="-2.4098720">
        <ele>239.4</ele>
        <time>2020-02-16T08:55:03Z</time>
      </trkpt>
      <trkpt lat="36.9421750" lon="-2.4098920">
        <ele>239.4</ele>
        <time>2020-02-16T08:55:04Z</time>
      </trkpt>
      <trkpt lat="36.9421350" lon="-2.4099140">
        <ele>239.0</ele>
        <time>2020-02-16T08:55:05Z</time>
      </trkpt>
      <trkpt lat="36.9421030" lon="-2.4099320">
        <ele>238.9</ele>
        <time>2020-02-16T08:55:06Z</time>
      </trkpt>
      <trkpt lat="36.9420770" lon="-2.4099470">
        <ele>238.9</ele>
        <time>2020-02-16T08:55:07Z</time>
      </trkpt>
      <trkpt lat="36.9420550" lon="-2.4099610">
        <ele>238.6</ele>
        <time>2020-02-16T08:55:08Z</time>
      </trkpt>
      <trkpt lat="36.9420180" lon="-2.4099800">
        <ele>238.6</ele>
        <time>2020-02-16T08:55:09Z</time>
      </trkpt>
      <trkpt lat="36.9419920" lon="-2.4099930">
        <ele>238.5</ele>
        <time>2020-02-16T08:55:10Z</time>
      </trkpt>
      <trkpt lat="36.9419640" lon="-2.4100070">
        <ele>238.3</ele>
        <time>2020-02-16T08:55:11Z</time>
      </trkpt>
      <trkpt lat="36.9419420" lon="-2.4100180">
        <ele>238.3</ele>
        <time>2020-02-16T08:55:12Z</time>
      </trkpt>
      <trkpt lat="36.9419140" lon="-2.4100340">
        <ele>238.3</ele>
        <time>2020-02-16T08:55:13Z</time>
      </trkpt>
      <trkpt lat="36.9418920" lon="-2.4100480">
        <ele>238.1</ele>
        <time>2020-02-16T08:55:14Z</time>
      </trkpt>
      <trkpt lat="36.9418740" lon="-2.4100770">
        <ele>238.1</ele>
        <time>2020-02-16T08:55:15Z</time>
      </trkpt>
      <trkpt lat="36.9418540" lon="-2.4100990">
        <ele>237.9</ele>
        <time>2020-02-16T08:55:16Z</time>
      </trkpt>
      <trkpt lat="36.9418370" lon="-2.4101220">
        <ele>237.9</ele>
        <time>2020-02-16T08:55:17Z</time>
      </trkpt>
      <trkpt lat="36.9418190" lon="-2.4101500">
        <ele>237.7</ele>
        <time>2020-02-16T08:55:18Z</time>
      </trkpt>
      <trkpt lat="36.9418020" lon="-2.4101780">
        <ele>237.5</ele>
        <time>2020-02-16T08:55:19Z</time>
      </trkpt>
      <trkpt lat="36.9417820" lon="-2.4102190">
        <ele>237.4</ele>
        <time>2020-02-16T08:55:20Z</time>
      </trkpt>
      <trkpt lat="36.9417670" lon="-2.4102540">
        <ele>237.4</ele>
        <time>2020-02-16T08:55:21Z</time>
      </trkpt>
      <trkpt lat="36.9417550" lon="-2.4102870">
        <ele>237.5</ele>
        <time>2020-02-16T08:55:22Z</time>
      </trkpt>
      <trkpt lat="36.9417490" lon="-2.4103200">
        <ele>237.4</ele>
        <time>2020-02-16T08:55:23Z</time>
      </trkpt>
      <trkpt lat="36.9417490" lon="-2.4103540">
        <ele>237.3</ele>
        <time>2020-02-16T08:55:24Z</time>
      </trkpt>
      <trkpt lat="36.9417470" lon="-2.4103890">
        <ele>237.2</ele>
        <time>2020-02-16T08:55:25Z</time>
      </trkpt>
      <trkpt lat="36.9417440" lon="-2.4104240">
        <ele>237.2</ele>
        <time>2020-02-16T08:55:26Z</time>
      </trkpt>
      <trkpt lat="36.9417420" lon="-2.4104550">
        <ele>237.2</ele>
        <time>2020-02-16T08:55:27Z</time>
      </trkpt>
      <trkpt lat="36.9417380" lon="-2.4104850">
        <ele>237.1</ele>
        <time>2020-02-16T08:55:28Z</time>
      </trkpt>
      <trkpt lat="36.9417330" lon="-2.4105120">
        <ele>237.0</ele>
        <time>2020-02-16T08:55:29Z</time>
      </trkpt>
      <trkpt lat="36.9417270" lon="-2.4105440">
        <ele>237.7</ele>
        <time>2020-02-16T08:55:30Z</time>
      </trkpt>
      <trkpt lat="36.9417210" lon="-2.4105820">
        <ele>237.6</ele>
        <time>2020-02-16T08:55:31Z</time>
      </trkpt>
      <trkpt lat="36.9417170" lon="-2.4106220">
        <ele>237.5</ele>
        <time>2020-02-16T08:55:32Z</time>
      </trkpt>
      <trkpt lat="36.9417080" lon="-2.4106670">
        <ele>237.5</ele>
        <time>2020-02-16T08:55:33Z</time>
      </trkpt>
      <trkpt lat="36.9417000" lon="-2.4107070">
        <ele>237.4</ele>
        <time>2020-02-16T08:55:34Z</time>
      </trkpt>
      <trkpt lat="36.9416770" lon="-2.4107450">
        <ele>238.0</ele>
        <time>2020-02-16T08:55:35Z</time>
      </trkpt>
      <trkpt lat="36.9416540" lon="-2.4107790">
        <ele>238.7</ele>
        <time>2020-02-16T08:55:36Z</time>
      </trkpt>
      <trkpt lat="36.9416290" lon="-2.4108120">
        <ele>238.7</ele>
        <time>2020-02-16T08:55:37Z</time>
      </trkpt>
      <trkpt lat="36.9416040" lon="-2.4108400">
        <ele>239.5</ele>
        <time>2020-02-16T08:55:38Z</time>
      </trkpt>
      <trkpt lat="36.9415820" lon="-2.4108730">
        <ele>240.2</ele>
        <time>2020-02-16T08:55:39Z</time>
      </trkpt>
      <trkpt lat="36.9415600" lon="-2.4109050">
        <ele>240.0</ele>
        <time>2020-02-16T08:55:40Z</time>
      </trkpt>
      <trkpt lat="36.9415400" lon="-2.4109390">
        <ele>240.9</ele>
        <time>2020-02-16T08:55:41Z</time>
      </trkpt>
      <trkpt lat="36.9415250" lon="-2.4109690">
        <ele>240.7</ele>
        <time>2020-02-16T08:55:42Z</time>
      </trkpt>
      <trkpt lat="36.9415120" lon="-2.4109950">
        <ele>241.4</ele>
        <time>2020-02-16T08:55:43Z</time>
      </trkpt>
      <trkpt lat="36.9414950" lon="-2.4110250">
        <ele>241.4</ele>
        <time>2020-02-16T08:55:44Z</time>
      </trkpt>
      <trkpt lat="36.9414760" lon="-2.4110540">
        <ele>242.1</ele>
        <time>2020-02-16T08:55:45Z</time>
      </trkpt>
      <trkpt lat="36.9414440" lon="-2.4111070">
        <ele>242.9</ele>
        <time>2020-02-16T08:55:46Z</time>
      </trkpt>
      <trkpt lat="36.9414210" lon="-2.4111470">
        <ele>242.7</ele>
        <time>2020-02-16T08:55:47Z</time>
      </trkpt>
      <trkpt lat="36.9414010" lon="-2.4111820">
        <ele>243.4</ele>
        <time>2020-02-16T08:55:48Z</time>
      </trkpt>
      <trkpt lat="36.9413900" lon="-2.4112150">
        <ele>243.1</ele>
        <time>2020-02-16T08:55:49Z</time>
      </trkpt>
      <trkpt lat="36.9413840" lon="-2.4112500">
        <ele>243.7</ele>
        <time>2020-02-16T08:55:50Z</time>
      </trkpt>
      <trkpt lat="36.9414240" lon="-2.4112790">
        <ele>241.9</ele>
        <time>2020-02-16T08:55:51Z</time>
      </trkpt>
      <trkpt lat="36.9414570" lon="-2.4113000">
        <ele>240.7</ele>
        <time>2020-02-16T08:55:52Z</time>
      </trkpt>
      <trkpt lat="36.9414670" lon="-2.4113340">
        <ele>240.3</ele>
        <time>2020-02-16T08:55:53Z</time>
      </trkpt>
      <trkpt lat="36.9414800" lon="-2.4113670">
        <ele>240.3</ele>
        <time>2020-02-16T08:55:54Z</time>
      </trkpt>
      <trkpt lat="36.9414890" lon="-2.4114020">
        <ele>239.3</ele>
        <time>2020-02-16T08:55:55Z</time>
      </trkpt>
      <trkpt lat="36.9414970" lon="-2.4114340">
        <ele>238.9</ele>
        <time>2020-02-16T08:55:56Z</time>
      </trkpt>
      <trkpt lat="36.9415000" lon="-2.4114690">
        <ele>238.6</ele>
        <time>2020-02-16T08:55:57Z</time>
      </trkpt>
      <trkpt lat="36.9415000" lon="-2.4115040">
        <ele>238.3</ele>
        <time>2020-02-16T08:55:58Z</time>
      </trkpt>
      <trkpt lat="36.9415020" lon="-2.4115390">
        <ele>238.3</ele>
        <time>2020-02-16T08:55:59Z</time>
      </trkpt>
      <trkpt lat="36.9415120" lon="-2.4115700">
        <ele>238.1</ele>
        <time>2020-02-16T08:56:00Z</time>
      </trkpt>
      <trkpt lat="36.9415160" lon="-2.4116070">
        <ele>237.8</ele>
        <time>2020-02-16T08:56:01Z</time>
      </trkpt>
      <trkpt lat="36.9415160" lon="-2.4116420">
        <ele>237.6</ele>
        <time>2020-02-16T08:56:02Z</time>
      </trkpt>
      <trkpt lat="36.9415150" lon="-2.4116740">
        <ele>237.4</ele>
        <time>2020-02-16T08:56:03Z</time>
      </trkpt>
      <trkpt lat="36.9415070" lon="-2.4117100">
        <ele>237.4</ele>
        <time>2020-02-16T08:56:04Z</time>
      </trkpt>
      <trkpt lat="36.9415090" lon="-2.4117350">
        <ele>237.2</ele>
        <time>2020-02-16T08:56:05Z</time>
      </trkpt>
      <trkpt lat="36.9415090" lon="-2.4117690">
        <ele>237.0</ele>
        <time>2020-02-16T08:56:06Z</time>
      </trkpt>
      <trkpt lat="36.9415040" lon="-2.4118070">
        <ele>236.8</ele>
        <time>2020-02-16T08:56:07Z</time>
      </trkpt>
      <trkpt lat="36.9415010" lon="-2.4118370">
        <ele>236.8</ele>
        <time>2020-02-16T08:56:08Z</time>
      </trkpt>
      <trkpt lat="36.9414980" lon="-2.4118600">
        <ele>236.7</ele>
        <time>2020-02-16T08:56:09Z</time>
      </trkpt>
      <trkpt lat="36.9414970" lon="-2.4118850">
        <ele>236.7</ele>
        <time>2020-02-16T08:56:10Z</time>
      </trkpt>
      <trkpt lat="36.9414950" lon="-2.4119120">
        <ele>236.5</ele>
        <time>2020-02-16T08:56:11Z</time>
      </trkpt>
      <trkpt lat="36.9414940" lon="-2.4119390">
        <ele>236.4</ele>
        <time>2020-02-16T08:56:12Z</time>
      </trkpt>
      <trkpt lat="36.9414920" lon="-2.4119700">
        <ele>236.4</ele>
        <time>2020-02-16T08:56:13Z</time>
      </trkpt>
      <trkpt lat="36.9414900" lon="-2.4120000">
        <ele>236.2</ele>
        <time>2020-02-16T08:56:14Z</time>
      </trkpt>
      <trkpt lat="36.9414890" lon="-2.4120290">
        <ele>236.0</ele>
        <time>2020-02-16T08:56:15Z</time>
      </trkpt>
      <trkpt lat="36.9414880" lon="-2.4120640">
        <ele>236.3</ele>
        <time>2020-02-16T08:56:16Z</time>
      </trkpt>
      <trkpt lat="36.9414870" lon="-2.4120970">
        <ele>236.3</ele>
        <time>2020-02-16T08:56:17Z</time>
      </trkpt>
      <trkpt lat="36.9414830" lon="-2.4121420">
        <ele>236.0</ele>
        <time>2020-02-16T08:56:18Z</time>
      </trkpt>
      <trkpt lat="36.9414790" lon="-2.4121820">
        <ele>235.7</ele>
        <time>2020-02-16T08:56:19Z</time>
      </trkpt>
      <trkpt lat="36.9414770" lon="-2.4122190">
        <ele>235.4</ele>
        <time>2020-02-16T08:56:20Z</time>
      </trkpt>
      <trkpt lat="36.9414760" lon="-2.4122570">
        <ele>235.1</ele>
        <time>2020-02-16T08:56:21Z</time>
      </trkpt>
      <trkpt lat="36.9414740" lon="-2.4122940">
        <ele>234.7</ele>
        <time>2020-02-16T08:56:22Z</time>
      </trkpt>
      <trkpt lat="36.9414750" lon="-2.4123290">
        <ele>234.4</ele>
        <time>2020-02-16T08:56:23Z</time>
      </trkpt>
      <trkpt lat="36.9414760" lon="-2.4123670">
        <ele>234.1</ele>
        <time>2020-02-16T08:56:24Z</time>
      </trkpt>
      <trkpt lat="36.9414770" lon="-2.4124020">
        <ele>233.8</ele>
        <time>2020-02-16T08:56:25Z</time>
      </trkpt>
      <trkpt lat="36.9414780" lon="-2.4124370">
        <ele>233.8</ele>
        <time>2020-02-16T08:56:26Z</time>
      </trkpt>
      <trkpt lat="36.9414820" lon="-2.4124740">
        <ele>233.5</ele>
        <time>2020-02-16T08:56:27Z</time>
      </trkpt>
      <trkpt lat="36.9414750" lon="-2.4125040">
        <ele>233.1</ele>
        <time>2020-02-16T08:56:28Z</time>
      </trkpt>
      <trkpt lat="36.9414700" lon="-2.4125320">
        <ele>232.8</ele>
        <time>2020-02-16T08:56:29Z</time>
      </trkpt>
      <trkpt lat="36.9414600" lon="-2.4125570">
        <ele>232.8</ele>
        <time>2020-02-16T08:56:30Z</time>
      </trkpt>
      <trkpt lat="36.9414510" lon="-2.4125820">
        <ele>232.7</ele>
        <time>2020-02-16T08:56:31Z</time>
      </trkpt>
      <trkpt lat="36.9414320" lon="-2.4126050">
        <ele>232.7</ele>
        <time>2020-02-16T08:56:32Z</time>
      </trkpt>
      <trkpt lat="36.9414190" lon="-2.4126350">
        <ele>232.7</ele>
        <time>2020-02-16T08:56:33Z</time>
      </trkpt>
      <trkpt lat="36.9414020" lon="-2.4126690">
        <ele>232.2</ele>
        <time>2020-02-16T08:56:34Z</time>
      </trkpt>
      <trkpt lat="36.9413860" lon="-2.4127050">
        <ele>231.8</ele>
        <time>2020-02-16T08:56:35Z</time>
      </trkpt>
      <trkpt lat="36.9413740" lon="-2.4127390">
        <ele>232.1</ele>
        <time>2020-02-16T08:56:36Z</time>
      </trkpt>
      <trkpt lat="36.9413620" lon="-2.4127700">
        <ele>231.6</ele>
        <time>2020-02-16T08:56:37Z</time>
      </trkpt>
      <trkpt lat="36.9413510" lon="-2.4128050">
        <ele>231.4</ele>
        <time>2020-02-16T08:56:38Z</time>
      </trkpt>
      <trkpt lat="36.9413420" lon="-2.4128400">
        <ele>230.9</ele>
        <time>2020-02-16T08:56:39Z</time>
      </trkpt>
      <trkpt lat="36.9413330" lon="-2.4128740">
        <ele>230.4</ele>
        <time>2020-02-16T08:56:40Z</time>
      </trkpt>
      <trkpt lat="36.9413210" lon="-2.4129090">
        <ele>230.4</ele>
        <time>2020-02-16T08:56:41Z</time>
      </trkpt>
      <trkpt lat="36.9413110" lon="-2.4129440">
        <ele>230.1</ele>
        <time>2020-02-16T08:56:42Z</time>
      </trkpt>
      <trkpt lat="36.9413000" lon="-2.4129790">
        <ele>229.6</ele>
        <time>2020-02-16T08:56:43Z</time>
      </trkpt>
      <trkpt lat="36.9412910" lon="-2.4130100">
        <ele>229.1</ele>
        <time>2020-02-16T08:56:44Z</time>
      </trkpt>
      <trkpt lat="36.9412800" lon="-2.4130430">
        <ele>229.4</ele>
        <time>2020-02-16T08:56:45Z</time>
      </trkpt>
      <trkpt lat="36.9412680" lon="-2.4130770">
        <ele>228.9</ele>
        <time>2020-02-16T08:56:46Z</time>
      </trkpt>
      <trkpt lat="36.9412550" lon="-2.4131100">
        <ele>228.4</ele>
        <time>2020-02-16T08:56:47Z</time>
      </trkpt>
      <trkpt lat="36.9412420" lon="-2.4131400">
        <ele>228.2</ele>
        <time>2020-02-16T08:56:48Z</time>
      </trkpt>
      <trkpt lat="36.9412290" lon="-2.4131720">
        <ele>228.2</ele>
        <time>2020-02-16T08:56:49Z</time>
      </trkpt>
      <trkpt lat="36.9412190" lon="-2.4131980">
        <ele>227.8</ele>
        <time>2020-02-16T08:56:50Z</time>
      </trkpt>
      <trkpt lat="36.9412070" lon="-2.4132270">
        <ele>227.7</ele>
        <time>2020-02-16T08:56:51Z</time>
      </trkpt>
      <trkpt lat="36.9411960" lon="-2.4132570">
        <ele>227.7</ele>
        <time>2020-02-16T08:56:52Z</time>
      </trkpt>
      <trkpt lat="36.9411860" lon="-2.4132850">
        <ele>227.2</ele>
        <time>2020-02-16T08:56:53Z</time>
      </trkpt>
      <trkpt lat="36.9411760" lon="-2.4133150">
        <ele>227.1</ele>
        <time>2020-02-16T08:56:54Z</time>
      </trkpt>
      <trkpt lat="36.9411660" lon="-2.4133480">
        <ele>226.6</ele>
        <time>2020-02-16T08:56:55Z</time>
      </trkpt>
      <trkpt lat="36.9411760" lon="-2.4133830">
        <ele>226.6</ele>
        <time>2020-02-16T08:56:56Z</time>
      </trkpt>
      <trkpt lat="36.9411710" lon="-2.4134220">
        <ele>226.0</ele>
        <time>2020-02-16T08:56:57Z</time>
      </trkpt>
      <trkpt lat="36.9411660" lon="-2.4134570">
        <ele>225.5</ele>
        <time>2020-02-16T08:56:58Z</time>
      </trkpt>
      <trkpt lat="36.9411630" lon="-2.4134930">
        <ele>225.1</ele>
        <time>2020-02-16T08:56:59Z</time>
      </trkpt>
      <trkpt lat="36.9411580" lon="-2.4135270">
        <ele>224.6</ele>
        <time>2020-02-16T08:57:00Z</time>
      </trkpt>
      <trkpt lat="36.9411520" lon="-2.4135630">
        <ele>224.2</ele>
        <time>2020-02-16T08:57:01Z</time>
      </trkpt>
      <trkpt lat="36.9411440" lon="-2.4136020">
        <ele>223.9</ele>
        <time>2020-02-16T08:57:02Z</time>
      </trkpt>
      <trkpt lat="36.9411360" lon="-2.4136400">
        <ele>223.9</ele>
        <time>2020-02-16T08:57:03Z</time>
      </trkpt>
      <trkpt lat="36.9411270" lon="-2.4136780">
        <ele>223.5</ele>
        <time>2020-02-16T08:57:04Z</time>
      </trkpt>
      <trkpt lat="36.9411190" lon="-2.4137100">
        <ele>223.2</ele>
        <time>2020-02-16T08:57:05Z</time>
      </trkpt>
      <trkpt lat="36.9411100" lon="-2.4137400">
        <ele>222.8</ele>
        <time>2020-02-16T08:57:06Z</time>
      </trkpt>
      <trkpt lat="36.9410990" lon="-2.4137680">
        <ele>222.8</ele>
        <time>2020-02-16T08:57:07Z</time>
      </trkpt>
      <trkpt lat="36.9410880" lon="-2.4137980">
        <ele>222.5</ele>
        <time>2020-02-16T08:57:08Z</time>
      </trkpt>
      <trkpt lat="36.9410750" lon="-2.4138280">
        <ele>222.2</ele>
        <time>2020-02-16T08:57:09Z</time>
      </trkpt>
      <trkpt lat="36.9410630" lon="-2.4138580">
        <ele>222.2</ele>
        <time>2020-02-16T08:57:10Z</time>
      </trkpt>
      <trkpt lat="36.9410520" lon="-2.4138870">
        <ele>221.9</ele>
        <time>2020-02-16T08:57:11Z</time>
      </trkpt>
      <trkpt lat="36.9410410" lon="-2.4139150">
        <ele>221.7</ele>
        <time>2020-02-16T08:57:12Z</time>
      </trkpt>
      <trkpt lat="36.9410310" lon="-2.4139420">
        <ele>221.7</ele>
        <time>2020-02-16T08:57:13Z</time>
      </trkpt>
      <trkpt lat="36.9410210" lon="-2.4139650">
        <ele>221.6</ele>
        <time>2020-02-16T08:57:14Z</time>
      </trkpt>
      <trkpt lat="36.9410120" lon="-2.4139900">
        <ele>221.5</ele>
        <time>2020-02-16T08:57:15Z</time>
      </trkpt>
      <trkpt lat="36.9410010" lon="-2.4140130">
        <ele>221.6</ele>
        <time>2020-02-16T08:57:16Z</time>
      </trkpt>
      <trkpt lat="36.9409900" lon="-2.4140350">
        <ele>221.5</ele>
        <time>2020-02-16T08:57:17Z</time>
      </trkpt>
      <trkpt lat="36.9409440" lon="-2.4140550">
        <ele>221.6</ele>
        <time>2020-02-16T08:57:18Z</time>
      </trkpt>
      <trkpt lat="36.9409240" lon="-2.4140700">
        <ele>221.8</ele>
        <time>2020-02-16T08:57:19Z</time>
      </trkpt>
      <trkpt lat="36.9409020" lon="-2.4140730">
        <ele>222.0</ele>
        <time>2020-02-16T08:57:20Z</time>
      </trkpt>
      <trkpt lat="36.9408820" lon="-2.4140750">
        <ele>221.9</ele>
        <time>2020-02-16T08:57:21Z</time>
      </trkpt>
      <trkpt lat="36.9408590" lon="-2.4140770">
        <ele>222.1</ele>
        <time>2020-02-16T08:57:22Z</time>
      </trkpt>
      <trkpt lat="36.9408260" lon="-2.4140770">
        <ele>222.3</ele>
        <time>2020-02-16T08:57:23Z</time>
      </trkpt>
      <trkpt lat="36.9407970" lon="-2.4140830">
        <ele>222.6</ele>
        <time>2020-02-16T08:57:24Z</time>
      </trkpt>
      <trkpt lat="36.9407770" lon="-2.4140920">
        <ele>222.6</ele>
        <time>2020-02-16T08:57:25Z</time>
      </trkpt>
      <trkpt lat="36.9407570" lon="-2.4141040">
        <ele>222.9</ele>
        <time>2020-02-16T08:57:26Z</time>
      </trkpt>
      <trkpt lat="36.9407340" lon="-2.4141160">
        <ele>223.2</ele>
        <time>2020-02-16T08:57:27Z</time>
      </trkpt>
      <trkpt lat="36.9407070" lon="-2.4141300">
        <ele>222.8</ele>
        <time>2020-02-16T08:57:28Z</time>
      </trkpt>
      <trkpt lat="36.9406810" lon="-2.4141450">
        <ele>223.2</ele>
        <time>2020-02-16T08:57:29Z</time>
      </trkpt>
      <trkpt lat="36.9406610" lon="-2.4141580">
        <ele>223.6</ele>
        <time>2020-02-16T08:57:30Z</time>
      </trkpt>
      <trkpt lat="36.9406390" lon="-2.4141730">
        <ele>223.1</ele>
        <time>2020-02-16T08:57:31Z</time>
      </trkpt>
      <trkpt lat="36.9406170" lon="-2.4141870">
        <ele>223.6</ele>
        <time>2020-02-16T08:57:32Z</time>
      </trkpt>
      <trkpt lat="36.9405960" lon="-2.4142020">
        <ele>224.2</ele>
        <time>2020-02-16T08:57:33Z</time>
      </trkpt>
      <trkpt lat="36.9405720" lon="-2.4142190">
        <ele>223.7</ele>
        <time>2020-02-16T08:57:34Z</time>
      </trkpt>
      <trkpt lat="36.9405470" lon="-2.4142380">
        <ele>224.4</ele>
        <time>2020-02-16T08:57:35Z</time>
      </trkpt>
      <trkpt lat="36.9405240" lon="-2.4142570">
        <ele>224.5</ele>
        <time>2020-02-16T08:57:36Z</time>
      </trkpt>
      <trkpt lat="36.9404990" lon="-2.4142770">
        <ele>224.5</ele>
        <time>2020-02-16T08:57:37Z</time>
      </trkpt>
      <trkpt lat="36.9404790" lon="-2.4142970">
        <ele>224.6</ele>
        <time>2020-02-16T08:57:38Z</time>
      </trkpt>
      <trkpt lat="36.9404610" lon="-2.4143180">
        <ele>224.6</ele>
        <time>2020-02-16T08:57:39Z</time>
      </trkpt>
      <trkpt lat="36.9404390" lon="-2.4143410">
        <ele>224.5</ele>
        <time>2020-02-16T08:57:40Z</time>
      </trkpt>
      <trkpt lat="36.9404170" lon="-2.4143640">
        <ele>225.0</ele>
        <time>2020-02-16T08:57:41Z</time>
      </trkpt>
      <trkpt lat="36.9403990" lon="-2.4143850">
        <ele>224.4</ele>
        <time>2020-02-16T08:57:42Z</time>
      </trkpt>
      <trkpt lat="36.9403820" lon="-2.4144050">
        <ele>224.9</ele>
        <time>2020-02-16T08:57:43Z</time>
      </trkpt>
      <trkpt lat="36.9403670" lon="-2.4144230">
        <ele>224.2</ele>
        <time>2020-02-16T08:57:44Z</time>
      </trkpt>
      <trkpt lat="36.9403540" lon="-2.4144410">
        <ele>224.7</ele>
        <time>2020-02-16T08:57:45Z</time>
      </trkpt>
      <trkpt lat="36.9403370" lon="-2.4144610">
        <ele>224.0</ele>
        <time>2020-02-16T08:57:46Z</time>
      </trkpt>
      <trkpt lat="36.9403190" lon="-2.4144840">
        <ele>224.4</ele>
        <time>2020-02-16T08:57:47Z</time>
      </trkpt>
      <trkpt lat="36.9403020" lon="-2.4145040">
        <ele>223.8</ele>
        <time>2020-02-16T08:57:48Z</time>
      </trkpt>
      <trkpt lat="36.9402890" lon="-2.4145220">
        <ele>223.8</ele>
        <time>2020-02-16T08:57:49Z</time>
      </trkpt>
      <trkpt lat="36.9402740" lon="-2.4145430">
        <ele>224.2</ele>
        <time>2020-02-16T08:57:50Z</time>
      </trkpt>
      <trkpt lat="36.9402590" lon="-2.4145630">
        <ele>223.5</ele>
        <time>2020-02-16T08:57:51Z</time>
      </trkpt>
      <trkpt lat="36.9402390" lon="-2.4145890">
        <ele>223.3</ele>
        <time>2020-02-16T08:57:52Z</time>
      </trkpt>
      <trkpt lat="36.9402210" lon="-2.4146130">
        <ele>223.3</ele>
        <time>2020-02-16T08:57:53Z</time>
      </trkpt>
      <trkpt lat="36.9401960" lon="-2.4146410">
        <ele>223.0</ele>
        <time>2020-02-16T08:57:54Z</time>
      </trkpt>
      <trkpt lat="36.9401720" lon="-2.4146680">
        <ele>223.3</ele>
        <time>2020-02-16T08:57:55Z</time>
      </trkpt>
      <trkpt lat="36.9401510" lon="-2.4146920">
        <ele>222.9</ele>
        <time>2020-02-16T08:57:56Z</time>
      </trkpt>
      <trkpt lat="36.9401290" lon="-2.4147150">
        <ele>222.9</ele>
        <time>2020-02-16T08:57:57Z</time>
      </trkpt>
      <trkpt lat="36.9401110" lon="-2.4147350">
        <ele>222.4</ele>
        <time>2020-02-16T08:57:58Z</time>
      </trkpt>
      <trkpt lat="36.9400940" lon="-2.4147540">
        <ele>222.4</ele>
        <time>2020-02-16T08:57:59Z</time>
      </trkpt>
      <trkpt lat="36.9400810" lon="-2.4148150">
        <ele>221.2</ele>
        <time>2020-02-16T08:58:00Z</time>
      </trkpt>
      <trkpt lat="36.9400670" lon="-2.4148460">
        <ele>221.2</ele>
        <time>2020-02-16T08:58:01Z</time>
      </trkpt>
      <trkpt lat="36.9400540" lon="-2.4148780">
        <ele>220.5</ele>
        <time>2020-02-16T08:58:02Z</time>
      </trkpt>
      <trkpt lat="36.9400400" lon="-2.4149050">
        <ele>220.2</ele>
        <time>2020-02-16T08:58:03Z</time>
      </trkpt>
      <trkpt lat="36.9400250" lon="-2.4149260">
        <ele>220.2</ele>
        <time>2020-02-16T08:58:04Z</time>
      </trkpt>
      <trkpt lat="36.9400090" lon="-2.4149500">
        <ele>219.9</ele>
        <time>2020-02-16T08:58:05Z</time>
      </trkpt>
      <trkpt lat="36.9399940" lon="-2.4149730">
        <ele>219.9</ele>
        <time>2020-02-16T08:58:06Z</time>
      </trkpt>
      <trkpt lat="36.9399740" lon="-2.4150000">
        <ele>219.5</ele>
        <time>2020-02-16T08:58:07Z</time>
      </trkpt>
      <trkpt lat="36.9399530" lon="-2.4150280">
        <ele>218.9</ele>
        <time>2020-02-16T08:58:08Z</time>
      </trkpt>
      <trkpt lat="36.9399340" lon="-2.4150560">
        <ele>219.2</ele>
        <time>2020-02-16T08:58:09Z</time>
      </trkpt>
      <trkpt lat="36.9399190" lon="-2.4150800">
        <ele>218.6</ele>
        <time>2020-02-16T08:58:10Z</time>
      </trkpt>
      <trkpt lat="36.9399060" lon="-2.4151010">
        <ele>218.8</ele>
        <time>2020-02-16T08:58:11Z</time>
      </trkpt>
      <trkpt lat="36.9398930" lon="-2.4151230">
        <ele>218.2</ele>
        <time>2020-02-16T08:58:12Z</time>
      </trkpt>
      <trkpt lat="36.9398790" lon="-2.4151480">
        <ele>217.6</ele>
        <time>2020-02-16T08:58:13Z</time>
      </trkpt>
      <trkpt lat="36.9398640" lon="-2.4151750">
        <ele>217.8</ele>
        <time>2020-02-16T08:58:14Z</time>
      </trkpt>
      <trkpt lat="36.9398510" lon="-2.4152000">
        <ele>217.2</ele>
        <time>2020-02-16T08:58:15Z</time>
      </trkpt>
      <trkpt lat="36.9398360" lon="-2.4152330">
        <ele>216.8</ele>
        <time>2020-02-16T08:58:16Z</time>
      </trkpt>
      <trkpt lat="36.9398220" lon="-2.4152660">
        <ele>216.8</ele>
        <time>2020-02-16T08:58:17Z</time>
      </trkpt>
      <trkpt lat="36.9398100" lon="-2.4152980">
        <ele>216.2</ele>
        <time>2020-02-16T08:58:18Z</time>
      </trkpt>
      <trkpt lat="36.9397990" lon="-2.4153300">
        <ele>215.9</ele>
        <time>2020-02-16T08:58:19Z</time>
      </trkpt>
      <trkpt lat="36.9397860" lon="-2.4153610">
        <ele>215.9</ele>
        <time>2020-02-16T08:58:20Z</time>
      </trkpt>
      <trkpt lat="36.9397740" lon="-2.4153900">
        <ele>215.5</ele>
        <time>2020-02-16T08:58:21Z</time>
      </trkpt>
      <trkpt lat="36.9397640" lon="-2.4154210">
        <ele>215.2</ele>
        <time>2020-02-16T08:58:22Z</time>
      </trkpt>
      <trkpt lat="36.9397520" lon="-2.4154550">
        <ele>214.8</ele>
        <time>2020-02-16T08:58:23Z</time>
      </trkpt>
      <trkpt lat="36.9397410" lon="-2.4154880">
        <ele>214.8</ele>
        <time>2020-02-16T08:58:24Z</time>
      </trkpt>
      <trkpt lat="36.9397280" lon="-2.4155180">
        <ele>214.5</ele>
        <time>2020-02-16T08:58:25Z</time>
      </trkpt>
      <trkpt lat="36.9397200" lon="-2.4155430">
        <ele>214.2</ele>
        <time>2020-02-16T08:58:26Z</time>
      </trkpt>
      <trkpt lat="36.9397090" lon="-2.4155710">
        <ele>214.2</ele>
        <time>2020-02-16T08:58:27Z</time>
      </trkpt>
      <trkpt lat="36.9396970" lon="-2.4156030">
        <ele>213.8</ele>
        <time>2020-02-16T08:58:28Z</time>
      </trkpt>
      <trkpt lat="36.9396870" lon="-2.4156330">
        <ele>213.5</ele>
        <time>2020-02-16T08:58:29Z</time>
      </trkpt>
      <trkpt lat="36.9396750" lon="-2.4156700">
        <ele>213.1</ele>
        <time>2020-02-16T08:58:30Z</time>
      </trkpt>
      <trkpt lat="36.9396650" lon="-2.4157030">
        <ele>213.1</ele>
        <time>2020-02-16T08:58:31Z</time>
      </trkpt>
      <trkpt lat="36.9396590" lon="-2.4157330">
        <ele>212.8</ele>
        <time>2020-02-16T08:58:32Z</time>
      </trkpt>
      <trkpt lat="36.9396560" lon="-2.4157580">
        <ele>212.5</ele>
        <time>2020-02-16T08:58:33Z</time>
      </trkpt>
      <trkpt lat="36.9396490" lon="-2.4157860">
        <ele>212.5</ele>
        <time>2020-02-16T08:58:34Z</time>
      </trkpt>
      <trkpt lat="36.9396430" lon="-2.4158160">
        <ele>212.2</ele>
        <time>2020-02-16T08:58:35Z</time>
      </trkpt>
      <trkpt lat="36.9396380" lon="-2.4158480">
        <ele>211.9</ele>
        <time>2020-02-16T08:58:36Z</time>
      </trkpt>
      <trkpt lat="36.9396310" lon="-2.4158800">
        <ele>211.7</ele>
        <time>2020-02-16T08:58:37Z</time>
      </trkpt>
      <trkpt lat="36.9396230" lon="-2.4159100">
        <ele>211.7</ele>
        <time>2020-02-16T08:58:38Z</time>
      </trkpt>
      <trkpt lat="36.9396170" lon="-2.4159410">
        <ele>211.5</ele>
        <time>2020-02-16T08:58:39Z</time>
      </trkpt>
      <trkpt lat="36.9396090" lon="-2.4159730">
        <ele>211.3</ele>
        <time>2020-02-16T08:58:40Z</time>
      </trkpt>
      <trkpt lat="36.9395980" lon="-2.4160030">
        <ele>211.2</ele>
        <time>2020-02-16T08:58:41Z</time>
      </trkpt>
      <trkpt lat="36.9395990" lon="-2.4160300">
        <ele>211.1</ele>
        <time>2020-02-16T08:58:42Z</time>
      </trkpt>
      <trkpt lat="36.9395880" lon="-2.4160530">
        <ele>210.9</ele>
        <time>2020-02-16T08:58:43Z</time>
      </trkpt>
      <trkpt lat="36.9395790" lon="-2.4160800">
        <ele>210.9</ele>
        <time>2020-02-16T08:58:44Z</time>
      </trkpt>
      <trkpt lat="36.9395710" lon="-2.4161100">
        <ele>210.7</ele>
        <time>2020-02-16T08:58:45Z</time>
      </trkpt>
      <trkpt lat="36.9395630" lon="-2.4161400">
        <ele>210.5</ele>
        <time>2020-02-16T08:58:46Z</time>
      </trkpt>
      <trkpt lat="36.9395540" lon="-2.4161660">
        <ele>210.5</ele>
        <time>2020-02-16T08:58:47Z</time>
      </trkpt>
      <trkpt lat="36.9395490" lon="-2.4161930">
        <ele>210.3</ele>
        <time>2020-02-16T08:58:48Z</time>
      </trkpt>
      <trkpt lat="36.9395400" lon="-2.4162230">
        <ele>210.1</ele>
        <time>2020-02-16T08:58:49Z</time>
      </trkpt>
      <trkpt lat="36.9395300" lon="-2.4162530">
        <ele>210.1</ele>
        <time>2020-02-16T08:58:50Z</time>
      </trkpt>
      <trkpt lat="36.9395200" lon="-2.4162760">
        <ele>209.9</ele>
        <time>2020-02-16T08:58:51Z</time>
      </trkpt>
      <trkpt lat="36.9395070" lon="-2.4163050">
        <ele>209.9</ele>
        <time>2020-02-16T08:58:52Z</time>
      </trkpt>
      <trkpt lat="36.9394950" lon="-2.4163300">
        <ele>209.8</ele>
        <time>2020-02-16T08:58:53Z</time>
      </trkpt>
      <trkpt lat="36.9394830" lon="-2.4163550">
        <ele>209.7</ele>
        <time>2020-02-16T08:58:54Z</time>
      </trkpt>
      <trkpt lat="36.9394720" lon="-2.4163800">
        <ele>209.7</ele>
        <time>2020-02-16T08:58:55Z</time>
      </trkpt>
      <trkpt lat="36.9394600" lon="-2.4164080">
        <ele>209.5</ele>
        <time>2020-02-16T08:58:56Z</time>
      </trkpt>
      <trkpt lat="36.9394480" lon="-2.4164380">
        <ele>209.4</ele>
        <time>2020-02-16T08:58:57Z</time>
      </trkpt>
      <trkpt lat="36.9394380" lon="-2.4164660">
        <ele>209.4</ele>
        <time>2020-02-16T08:58:58Z</time>
      </trkpt>
      <trkpt lat="36.9394270" lon="-2.4164910">
        <ele>209.3</ele>
        <time>2020-02-16T08:58:59Z</time>
      </trkpt>
      <trkpt lat="36.9394150" lon="-2.4165180">
        <ele>209.3</ele>
        <time>2020-02-16T08:59:00Z</time>
      </trkpt>
      <trkpt lat="36.9394040" lon="-2.4165450">
        <ele>209.2</ele>
        <time>2020-02-16T08:59:01Z</time>
      </trkpt>
      <trkpt lat="36.9393900" lon="-2.4165750">
        <ele>209.0</ele>
        <time>2020-02-16T08:59:02Z</time>
      </trkpt>
      <trkpt lat="36.9393790" lon="-2.4166030">
        <ele>209.0</ele>
        <time>2020-02-16T08:59:03Z</time>
      </trkpt>
      <trkpt lat="36.9393690" lon="-2.4166290">
        <ele>208.9</ele>
        <time>2020-02-16T08:59:04Z</time>
      </trkpt>
      <trkpt lat="36.9393560" lon="-2.4166580">
        <ele>208.7</ele>
        <time>2020-02-16T08:59:05Z</time>
      </trkpt>
      <trkpt lat="36.9393460" lon="-2.4166830">
        <ele>208.7</ele>
        <time>2020-02-16T08:59:06Z</time>
      </trkpt>
      <trkpt lat="36.9393350" lon="-2.4167110">
        <ele>208.6</ele>
        <time>2020-02-16T08:59:07Z</time>
      </trkpt>
      <trkpt lat="36.9393210" lon="-2.4167390">
        <ele>208.4</ele>
        <time>2020-02-16T08:59:08Z</time>
      </trkpt>
      <trkpt lat="36.9393090" lon="-2.4167640">
        <ele>208.4</ele>
        <time>2020-02-16T08:59:09Z</time>
      </trkpt>
      <trkpt lat="36.9392980" lon="-2.4167890">
        <ele>208.4</ele>
        <time>2020-02-16T08:59:10Z</time>
      </trkpt>
      <trkpt lat="36.9392840" lon="-2.4168180">
        <ele>208.2</ele>
        <time>2020-02-16T08:59:11Z</time>
      </trkpt>
      <trkpt lat="36.9392710" lon="-2.4168440">
        <ele>208.3</ele>
        <time>2020-02-16T08:59:12Z</time>
      </trkpt>
      <trkpt lat="36.9392570" lon="-2.4168710">
        <ele>208.1</ele>
        <time>2020-02-16T08:59:13Z</time>
      </trkpt>
      <trkpt lat="36.9392440" lon="-2.4168960">
        <ele>208.1</ele>
        <time>2020-02-16T08:59:14Z</time>
      </trkpt>
      <trkpt lat="36.9391960" lon="-2.4169230">
        <ele>208.0</ele>
        <time>2020-02-16T08:59:15Z</time>
      </trkpt>
      <trkpt lat="36.9391780" lon="-2.4169490">
        <ele>207.9</ele>
        <time>2020-02-16T08:59:16Z</time>
      </trkpt>
      <trkpt lat="36.9391580" lon="-2.4169700">
        <ele>208.0</ele>
        <time>2020-02-16T08:59:17Z</time>
      </trkpt>
      <trkpt lat="36.9391400" lon="-2.4169940">
        <ele>207.9</ele>
        <time>2020-02-16T08:59:18Z</time>
      </trkpt>
      <trkpt lat="36.9391200" lon="-2.4170170">
        <ele>207.8</ele>
        <time>2020-02-16T08:59:19Z</time>
      </trkpt>
      <trkpt lat="36.9390980" lon="-2.4170400">
        <ele>207.9</ele>
        <time>2020-02-16T08:59:20Z</time>
      </trkpt>
      <trkpt lat="36.9390780" lon="-2.4170650">
        <ele>207.7</ele>
        <time>2020-02-16T08:59:21Z</time>
      </trkpt>
      <trkpt lat="36.9390580" lon="-2.4170870">
        <ele>207.8</ele>
        <time>2020-02-16T08:59:22Z</time>
      </trkpt>
      <trkpt lat="36.9390350" lon="-2.4171120">
        <ele>207.7</ele>
        <time>2020-02-16T08:59:23Z</time>
      </trkpt>
      <trkpt lat="36.9390150" lon="-2.4171330">
        <ele>207.6</ele>
        <time>2020-02-16T08:59:24Z</time>
      </trkpt>
      <trkpt lat="36.9389950" lon="-2.4171540">
        <ele>207.6</ele>
        <time>2020-02-16T08:59:25Z</time>
      </trkpt>
      <trkpt lat="36.9389730" lon="-2.4171780">
        <ele>207.5</ele>
        <time>2020-02-16T08:59:26Z</time>
      </trkpt>
      <trkpt lat="36.9389550" lon="-2.4171980">
        <ele>207.5</ele>
        <time>2020-02-16T08:59:27Z</time>
      </trkpt>
      <trkpt lat="36.9389350" lon="-2.4172190">
        <ele>207.4</ele>
        <time>2020-02-16T08:59:28Z</time>
      </trkpt>
      <trkpt lat="36.9389100" lon="-2.4172440">
        <ele>207.3</ele>
        <time>2020-02-16T08:59:29Z</time>
      </trkpt>
      <trkpt lat="36.9388880" lon="-2.4172630">
        <ele>207.3</ele>
        <time>2020-02-16T08:59:30Z</time>
      </trkpt>
      <trkpt lat="36.9388680" lon="-2.4172820">
        <ele>207.2</ele>
        <time>2020-02-16T08:59:31Z</time>
      </trkpt>
      <trkpt lat="36.9388460" lon="-2.4173020">
        <ele>207.1</ele>
        <time>2020-02-16T08:59:32Z</time>
      </trkpt>
      <trkpt lat="36.9388260" lon="-2.4173210">
        <ele>207.1</ele>
        <time>2020-02-16T08:59:33Z</time>
      </trkpt>
      <trkpt lat="36.9388050" lon="-2.4173420">
        <ele>206.9</ele>
        <time>2020-02-16T08:59:34Z</time>
      </trkpt>
      <trkpt lat="36.9387810" lon="-2.4173630">
        <ele>206.9</ele>
        <time>2020-02-16T08:59:35Z</time>
      </trkpt>
      <trkpt lat="36.9387560" lon="-2.4173850">
        <ele>206.8</ele>
        <time>2020-02-16T08:59:36Z</time>
      </trkpt>
      <trkpt lat="36.9387330" lon="-2.4174030">
        <ele>206.7</ele>
        <time>2020-02-16T08:59:37Z</time>
      </trkpt>
      <trkpt lat="36.9387110" lon="-2.4174210">
        <ele>206.7</ele>
        <time>2020-02-16T08:59:38Z</time>
      </trkpt>
      <trkpt lat="36.9386960" lon="-2.4174350">
        <ele>206.6</ele>
        <time>2020-02-16T08:59:39Z</time>
      </trkpt>
      <trkpt lat="36.9386800" lon="-2.4174500">
        <ele>206.6</ele>
        <time>2020-02-16T08:59:40Z</time>
      </trkpt>
      <trkpt lat="36.9386630" lon="-2.4174660">
        <ele>206.5</ele>
        <time>2020-02-16T08:59:41Z</time>
      </trkpt>
      <trkpt lat="36.9386510" lon="-2.4174790">
        <ele>206.5</ele>
        <time>2020-02-16T08:59:42Z</time>
      </trkpt>
      <trkpt lat="36.9386360" lon="-2.4174960">
        <ele>206.5</ele>
        <time>2020-02-16T08:59:43Z</time>
      </trkpt>
      <trkpt lat="36.9386160" lon="-2.4175180">
        <ele>206.4</ele>
        <time>2020-02-16T08:59:44Z</time>
      </trkpt>
      <trkpt lat="36.9386000" lon="-2.4175370">
        <ele>206.4</ele>
        <time>2020-02-16T08:59:45Z</time>
      </trkpt>
      <trkpt lat="36.9385860" lon="-2.4175540">
        <ele>206.3</ele>
        <time>2020-02-16T08:59:46Z</time>
      </trkpt>
      <trkpt lat="36.9385650" lon="-2.4175790">
        <ele>206.3</ele>
        <time>2020-02-16T08:59:47Z</time>
      </trkpt>
      <trkpt lat="36.9385430" lon="-2.4176060">
        <ele>206.3</ele>
        <time>2020-02-16T08:59:48Z</time>
      </trkpt>
      <trkpt lat="36.9385260" lon="-2.4176290">
        <ele>206.2</ele>
        <time>2020-02-16T08:59:49Z</time>
      </trkpt>
      <trkpt lat="36.9385130" lon="-2.4176990">
        <ele>206.2</ele>
        <time>2020-02-16T08:59:50Z</time>
      </trkpt>
      <trkpt lat="36.9385030" lon="-2.4177280">
        <ele>206.1</ele>
        <time>2020-02-16T08:59:51Z</time>
      </trkpt>
      <trkpt lat="36.9384930" lon="-2.4177580">
        <ele>206.1</ele>
        <time>2020-02-16T08:59:52Z</time>
      </trkpt>
      <trkpt lat="36.9384800" lon="-2.4177860">
        <ele>206.0</ele>
        <time>2020-02-16T08:59:53Z</time>
      </trkpt>
      <trkpt lat="36.9384640" lon="-2.4178160">
        <ele>206.0</ele>
        <time>2020-02-16T08:59:54Z</time>
      </trkpt>
      <trkpt lat="36.9384480" lon="-2.4178460">
        <ele>206.0</ele>
        <time>2020-02-16T08:59:55Z</time>
      </trkpt>
      <trkpt lat="36.9384320" lon="-2.4178710">
        <ele>205.8</ele>
        <time>2020-02-16T08:59:56Z</time>
      </trkpt>
      <trkpt lat="36.9384080" lon="-2.4178990">
        <ele>205.7</ele>
        <time>2020-02-16T08:59:57Z</time>
      </trkpt>
      <trkpt lat="36.9383880" lon="-2.4179230">
        <ele>205.7</ele>
        <time>2020-02-16T08:59:58Z</time>
      </trkpt>
      <trkpt lat="36.9383700" lon="-2.4179410">
        <ele>205.6</ele>
        <time>2020-02-16T08:59:59Z</time>
      </trkpt>
      <trkpt lat="36.9383460" lon="-2.4179650">
        <ele>205.5</ele>
        <time>2020-02-16T09:00:00Z</time>
      </trkpt>
      <trkpt lat="36.9383250" lon="-2.4179860">
        <ele>205.4</ele>
        <time>2020-02-16T09:00:01Z</time>
      </trkpt>
      <trkpt lat="36.9383000" lon="-2.4180110">
        <ele>205.4</ele>
        <time>2020-02-16T09:00:02Z</time>
      </trkpt>
      <trkpt lat="36.9382700" lon="-2.4180360">
        <ele>205.3</ele>
        <time>2020-02-16T09:00:03Z</time>
      </trkpt>
      <trkpt lat="36.9382400" lon="-2.4180570">
        <ele>205.3</ele>
        <time>2020-02-16T09:00:04Z</time>
      </trkpt>
      <trkpt lat="36.9382150" lon="-2.4180760">
        <ele>205.3</ele>
        <time>2020-02-16T09:00:05Z</time>
      </trkpt>
      <trkpt lat="36.9381930" lon="-2.4180920">
        <ele>205.4</ele>
        <time>2020-02-16T09:00:06Z</time>
      </trkpt>
      <trkpt lat="36.9381660" lon="-2.4181140">
        <ele>205.2</ele>
        <time>2020-02-16T09:00:07Z</time>
      </trkpt>
      <trkpt lat="36.9381430" lon="-2.4181350">
        <ele>205.3</ele>
        <time>2020-02-16T09:00:08Z</time>
      </trkpt>
      <trkpt lat="36.9381180" lon="-2.4181560">
        <ele>205.2</ele>
        <time>2020-02-16T09:00:09Z</time>
      </trkpt>
      <trkpt lat="36.9380930" lon="-2.4181780">
        <ele>205.2</ele>
        <time>2020-02-16T09:00:10Z</time>
      </trkpt>
      <trkpt lat="36.9380680" lon="-2.4181960">
        <ele>205.1</ele>
        <time>2020-02-16T09:00:11Z</time>
      </trkpt>
      <trkpt lat="36.9380430" lon="-2.4182150">
        <ele>205.3</ele>
        <time>2020-02-16T09:00:12Z</time>
      </trkpt>
      <trkpt lat="36.9380230" lon="-2.4182310">
        <ele>205.4</ele>
        <time>2020-02-16T09:00:13Z</time>
      </trkpt>
      <trkpt lat="36.9380000" lon="-2.4182500">
        <ele>205.1</ele>
        <time>2020-02-16T09:00:14Z</time>
      </trkpt>
      <trkpt lat="36.9379760" lon="-2.4182670">
        <ele>205.2</ele>
        <time>2020-02-16T09:00:15Z</time>
      </trkpt>
      <trkpt lat="36.9379510" lon="-2.4182840">
        <ele>204.9</ele>
        <time>2020-02-16T09:00:16Z</time>
      </trkpt>
      <trkpt lat="36.9379250" lon="-2.4183010">
        <ele>204.9</ele>
        <time>2020-02-16T09:00:17Z</time>
      </trkpt>
      <trkpt lat="36.9379000" lon="-2.4182790">
        <ele>205.2</ele>
        <time>2020-02-16T09:00:18Z</time>
      </trkpt>
      <trkpt lat="36.9378680" lon="-2.4182840">
        <ele>204.9</ele>
        <time>2020-02-16T09:00:19Z</time>
      </trkpt>
      <trkpt lat="36.9378380" lon="-2.4182930">
        <ele>204.7</ele>
        <time>2020-02-16T09:00:20Z</time>
      </trkpt>
      <trkpt lat="36.9378070" lon="-2.4183000">
        <ele>204.6</ele>
        <time>2020-02-16T09:00:21Z</time>
      </trkpt>
      <trkpt lat="36.9377770" lon="-2.4183110">
        <ele>204.6</ele>
        <time>2020-02-16T09:00:22Z</time>
      </trkpt>
      <trkpt lat="36.9377500" lon="-2.4183160">
        <ele>204.6</ele>
        <time>2020-02-16T09:00:23Z</time>
      </trkpt>
      <trkpt lat="36.9377220" lon="-2.4183200">
        <ele>204.5</ele>
        <time>2020-02-16T09:00:24Z</time>
      </trkpt>
      <trkpt lat="36.9376970" lon="-2.4183230">
        <ele>204.1</ele>
        <time>2020-02-16T09:00:25Z</time>
      </trkpt>
      <trkpt lat="36.9376700" lon="-2.4183260">
        <ele>204.1</ele>
        <time>2020-02-16T09:00:26Z</time>
      </trkpt>
      <trkpt lat="36.9376430" lon="-2.4183290">
        <ele>204.1</ele>
        <time>2020-02-16T09:00:27Z</time>
      </trkpt>
      <trkpt lat="36.9376150" lon="-2.4183320">
        <ele>204.1</ele>
        <time>2020-02-16T09:00:28Z</time>
      </trkpt>
      <trkpt lat="36.9375870" lon="-2.4183360">
        <ele>204.2</ele>
        <time>2020-02-16T09:00:29Z</time>
      </trkpt>
      <trkpt lat="36.9375530" lon="-2.4183400">
        <ele>204.3</ele>
        <time>2020-02-16T09:00:30Z</time>
      </trkpt>
      <trkpt lat="36.9375230" lon="-2.4183450">
        <ele>204.5</ele>
        <time>2020-02-16T09:00:31Z</time>
      </trkpt>
      <trkpt lat="36.9374930" lon="-2.4183530">
        <ele>204.8</ele>
        <time>2020-02-16T09:00:32Z</time>
      </trkpt>
      <trkpt lat="36.9374650" lon="-2.4183600">
        <ele>205.1</ele>
        <time>2020-02-16T09:00:33Z</time>
      </trkpt>
      <trkpt lat="36.9374300" lon="-2.4183680">
        <ele>204.8</ele>
        <time>2020-02-16T09:00:34Z</time>
      </trkpt>
      <trkpt lat="36.9374000" lon="-2.4183750">
        <ele>205.3</ele>
        <time>2020-02-16T09:00:35Z</time>
      </trkpt>
      <trkpt lat="36.9373680" lon="-2.4183820">
        <ele>205.8</ele>
        <time>2020-02-16T09:00:36Z</time>
      </trkpt>
      <trkpt lat="36.9373430" lon="-2.4183880">
        <ele>205.8</ele>
        <time>2020-02-16T09:00:37Z</time>
      </trkpt>
      <trkpt lat="36.9373150" lon="-2.4183960">
        <ele>206.5</ele>
        <time>2020-02-16T09:00:38Z</time>
      </trkpt>
      <trkpt lat="36.9372880" lon="-2.4184040">
        <ele>207.2</ele>
        <time>2020-02-16T09:00:39Z</time>
      </trkpt>
      <trkpt lat="36.9372600" lon="-2.4184130">
        <ele>207.1</ele>
        <time>2020-02-16T09:00:40Z</time>
      </trkpt>
      <trkpt lat="36.9372280" lon="-2.4184240">
        <ele>207.9</ele>
        <time>2020-02-16T09:00:41Z</time>
      </trkpt>
      <trkpt lat="36.9371970" lon="-2.4184360">
        <ele>208.6</ele>
        <time>2020-02-16T09:00:42Z</time>
      </trkpt>
      <trkpt lat="36.9371650" lon="-2.4184460">
        <ele>209.3</ele>
        <time>2020-02-16T09:00:43Z</time>
      </trkpt>
      <trkpt lat="36.9371330" lon="-2.4184570">
        <ele>208.7</ele>
        <time>2020-02-16T09:00:44Z</time>
      </trkpt>
      <trkpt lat="36.9371030" lon="-2.4184690">
        <ele>209.4</ele>
        <time>2020-02-16T09:00:45Z</time>
      </trkpt>
      <trkpt lat="36.9370770" lon="-2.4184820">
        <ele>209.9</ele>
        <time>2020-02-16T09:00:46Z</time>
      </trkpt>
      <trkpt lat="36.9370450" lon="-2.4184980">
        <ele>209.8</ele>
        <time>2020-02-16T09:00:47Z</time>
      </trkpt>
      <trkpt lat="36.9370130" lon="-2.4185890">
        <ele>209.0</ele>
        <time>2020-02-16T09:00:48Z</time>
      </trkpt>
      <trkpt lat="36.9369770" lon="-2.4186290">
        <ele>208.7</ele>
        <time>2020-02-16T09:00:49Z</time>
      </trkpt>
      <trkpt lat="36.9369500" lon="-2.4186680">
        <ele>208.2</ele>
        <time>2020-02-16T09:00:50Z</time>
      </trkpt>
      <trkpt lat="36.9369830" lon="-2.4187060">
        <ele>208.1</ele>
        <time>2020-02-16T09:00:51Z</time>
      </trkpt>
      <trkpt lat="36.9369830" lon="-2.4187410">
        <ele>207.5</ele>
        <time>2020-02-16T09:00:52Z</time>
      </trkpt>
      <trkpt lat="36.9369870" lon="-2.4187760">
        <ele>206.9</ele>
        <time>2020-02-16T09:00:53Z</time>
      </trkpt>
      <trkpt lat="36.9369870" lon="-2.4188090">
        <ele>206.2</ele>
        <time>2020-02-16T09:00:54Z</time>
      </trkpt>
      <trkpt lat="36.9369840" lon="-2.4188410">
        <ele>205.5</ele>
        <time>2020-02-16T09:00:55Z</time>
      </trkpt>
      <trkpt lat="36.9369840" lon="-2.4188690">
        <ele>205.5</ele>
        <time>2020-02-16T09:00:56Z</time>
      </trkpt>
      <trkpt lat="36.9369840" lon="-2.4189140">
        <ele>204.8</ele>
        <time>2020-02-16T09:00:57Z</time>
      </trkpt>
      <trkpt lat="36.9369840" lon="-2.4189520">
        <ele>204.1</ele>
        <time>2020-02-16T09:00:58Z</time>
      </trkpt>
      <trkpt lat="36.9369850" lon="-2.4189870">
        <ele>203.4</ele>
        <time>2020-02-16T09:00:59Z</time>
      </trkpt>
      <trkpt lat="36.9369820" lon="-2.4190270">
        <ele>202.6</ele>
        <time>2020-02-16T09:01:00Z</time>
      </trkpt>
      <trkpt lat="36.9369770" lon="-2.4190620">
        <ele>201.9</ele>
        <time>2020-02-16T09:01:01Z</time>
      </trkpt>
      <trkpt lat="36.9369580" lon="-2.4191160">
        <ele>201.9</ele>
        <time>2020-02-16T09:01:02Z</time>
      </trkpt>
      <trkpt lat="36.9369500" lon="-2.4191590">
        <ele>201.2</ele>
        <time>2020-02-16T09:01:03Z</time>
      </trkpt>
      <trkpt lat="36.9369440" lon="-2.4192020">
        <ele>200.5</ele>
        <time>2020-02-16T09:01:04Z</time>
      </trkpt>
      <trkpt lat="36.9369350" lon="-2.4192470">
        <ele>199.8</ele>
        <time>2020-02-16T09:01:05Z</time>
      </trkpt>
      <trkpt lat="36.9369280" lon="-2.4192870">
        <ele>199.2</ele>
        <time>2020-02-16T09:01:06Z</time>
      </trkpt>
      <trkpt lat="36.9369230" lon="-2.4193240">
        <ele>199.0</ele>
        <time>2020-02-16T09:01:07Z</time>
      </trkpt>
      <trkpt lat="36.9369150" lon="-2.4193590">
        <ele>198.5</ele>
        <time>2020-02-16T09:01:08Z</time>
      </trkpt>
      <trkpt lat="36.9369100" lon="-2.4193960">
        <ele>198.0</ele>
        <time>2020-02-16T09:01:09Z</time>
      </trkpt>
      <trkpt lat="36.9369030" lon="-2.4194290">
        <ele>198.0</ele>
        <time>2020-02-16T09:01:10Z</time>
      </trkpt>
      <trkpt lat="36.9368970" lon="-2.4194640">
        <ele>197.6</ele>
        <time>2020-02-16T09:01:11Z</time>
      </trkpt>
      <trkpt lat="36.9368890" lon="-2.4194970">
        <ele>197.5</ele>
        <time>2020-02-16T09:01:12Z</time>
      </trkpt>
      <trkpt lat="36.9368790" lon="-2.4195270">
        <ele>197.1</ele>
        <time>2020-02-16T09:01:13Z</time>
      </trkpt>
      <trkpt lat="36.9368480" lon="-2.4195590">
        <ele>197.3</ele>
        <time>2020-02-16T09:01:14Z</time>
      </trkpt>
      <trkpt lat="36.9368300" lon="-2.4195870">
        <ele>197.0</ele>
        <time>2020-02-16T09:01:15Z</time>
      </trkpt>
      <trkpt lat="36.9368180" lon="-2.4196210">
        <ele>196.8</ele>
        <time>2020-02-16T09:01:16Z</time>
      </trkpt>
      <trkpt lat="36.9368070" lon="-2.4196520">
        <ele>196.8</ele>
        <time>2020-02-16T09:01:17Z</time>
      </trkpt>
      <trkpt lat="36.9367940" lon="-2.4196870">
        <ele>196.5</ele>
        <time>2020-02-16T09:01:18Z</time>
      </trkpt>
      <trkpt lat="36.9367820" lon="-2.4197120">
        <ele>196.2</ele>
        <time>2020-02-16T09:01:19Z</time>
      </trkpt>
      <trkpt lat="36.9367600" lon="-2.4197520">
        <ele>195.9</ele>
        <time>2020-02-16T09:01:20Z</time>
      </trkpt>
      <trkpt lat="36.9367330" lon="-2.4197790">
        <ele>195.9</ele>
        <time>2020-02-16T09:01:21Z</time>
      </trkpt>
      <trkpt lat="36.9367080" lon="-2.4198090">
        <ele>195.7</ele>
        <time>2020-02-16T09:01:22Z</time>
      </trkpt>
      <trkpt lat="36.9366850" lon="-2.4198390">
        <ele>195.4</ele>
        <time>2020-02-16T09:01:23Z</time>
      </trkpt>
      <trkpt lat="36.9366570" lon="-2.4198670">
        <ele>195.4</ele>
        <time>2020-02-16T09:01:24Z</time>
      </trkpt>
      <trkpt lat="36.9366330" lon="-2.4198870">
        <ele>195.1</ele>
        <time>2020-02-16T09:01:25Z</time>
      </trkpt>
      <trkpt lat="36.9366120" lon="-2.4199070">
        <ele>195.0</ele>
        <time>2020-02-16T09:01:26Z</time>
      </trkpt>
      <trkpt lat="36.9365850" lon="-2.4199270">
        <ele>194.8</ele>
        <time>2020-02-16T09:01:27Z</time>
      </trkpt>
      <trkpt lat="36.9365620" lon="-2.4199440">
        <ele>194.8</ele>
        <time>2020-02-16T09:01:28Z</time>
      </trkpt>
      <trkpt lat="36.9365350" lon="-2.4199630">
        <ele>194.6</ele>
        <time>2020-02-16T09:01:29Z</time>
      </trkpt>
      <trkpt lat="36.9365070" lon="-2.4199810">
        <ele>194.6</ele>
        <time>2020-02-16T09:01:30Z</time>
      </trkpt>
      <trkpt lat="36.9364830" lon="-2.4199980">
        <ele>194.4</ele>
        <time>2020-02-16T09:01:31Z</time>
      </trkpt>
      <trkpt lat="36.9364550" lon="-2.4200170">
        <ele>194.4</ele>
        <time>2020-02-16T09:01:32Z</time>
      </trkpt>
      <trkpt lat="36.9364270" lon="-2.4200350">
        <ele>194.5</ele>
        <time>2020-02-16T09:01:33Z</time>
      </trkpt>
      <trkpt lat="36.9363980" lon="-2.4200540">
        <ele>194.4</ele>
        <time>2020-02-16T09:01:34Z</time>
      </trkpt>
      <trkpt lat="36.9363720" lon="-2.4200720">
        <ele>194.4</ele>
        <time>2020-02-16T09:01:35Z</time>
      </trkpt>
      <trkpt lat="36.9363520" lon="-2.4200870">
        <ele>194.2</ele>
        <time>2020-02-16T09:01:36Z</time>
      </trkpt>
      <trkpt lat="36.9363390" lon="-2.4200990">
        <ele>194.2</ele>
        <time>2020-02-16T09:01:37Z</time>
      </trkpt>
      <trkpt lat="36.9363090" lon="-2.4201250">
        <ele>194.3</ele>
        <time>2020-02-16T09:01:38Z</time>
      </trkpt>
      <trkpt lat="36.9362870" lon="-2.4201450">
        <ele>194.1</ele>
        <time>2020-02-16T09:01:39Z</time>
      </trkpt>
      <trkpt lat="36.9362600" lon="-2.4201690">
        <ele>193.8</ele>
        <time>2020-02-16T09:01:40Z</time>
      </trkpt>
      <trkpt lat="36.9362350" lon="-2.4201930">
        <ele>193.9</ele>
        <time>2020-02-16T09:01:41Z</time>
      </trkpt>
      <trkpt lat="36.9362140" lon="-2.4202150">
        <ele>193.6</ele>
        <time>2020-02-16T09:01:42Z</time>
      </trkpt>
      <trkpt lat="36.9361940" lon="-2.4202360">
        <ele>193.7</ele>
        <time>2020-02-16T09:01:43Z</time>
      </trkpt>
      <trkpt lat="36.9361770" lon="-2.4202530">
        <ele>193.7</ele>
        <time>2020-02-16T09:01:44Z</time>
      </trkpt>
      <trkpt lat="36.9361570" lon="-2.4202750">
        <ele>193.5</ele>
        <time>2020-02-16T09:01:45Z</time>
      </trkpt>
      <trkpt lat="36.9361350" lon="-2.4202990">
        <ele>193.3</ele>
        <time>2020-02-16T09:01:46Z</time>
      </trkpt>
      <trkpt lat="36.9361150" lon="-2.4203240">
        <ele>193.3</ele>
        <time>2020-02-16T09:01:47Z</time>
      </trkpt>
      <trkpt lat="36.9361000" lon="-2.4203440">
        <ele>193.1</ele>
        <time>2020-02-16T09:01:48Z</time>
      </trkpt>
      <trkpt lat="36.9360800" lon="-2.4203700">
        <ele>193.1</ele>
        <time>2020-02-16T09:01:49Z</time>
      </trkpt>
      <trkpt lat="36.9360600" lon="-2.4203950">
        <ele>193.0</ele>
        <time>2020-02-16T09:01:50Z</time>
      </trkpt>
      <trkpt lat="36.9360390" lon="-2.4204220">
        <ele>193.0</ele>
        <time>2020-02-16T09:01:51Z</time>
      </trkpt>
      <trkpt lat="36.9360200" lon="-2.4205170">
        <ele>192.3</ele>
        <time>2020-02-16T09:01:52Z</time>
      </trkpt>
      <trkpt lat="36.9360020" lon="-2.4205420">
        <ele>192.3</ele>
        <time>2020-02-16T09:01:53Z</time>
      </trkpt>
      <trkpt lat="36.9359840" lon="-2.4205680">
        <ele>192.1</ele>
        <time>2020-02-16T09:01:54Z</time>
      </trkpt>
      <trkpt lat="36.9359650" lon="-2.4205950">
        <ele>192.1</ele>
        <time>2020-02-16T09:01:55Z</time>
      </trkpt>
      <trkpt lat="36.9359470" lon="-2.4206190">
        <ele>191.9</ele>
        <time>2020-02-16T09:01:56Z</time>
      </trkpt>
      <trkpt lat="36.9359240" lon="-2.4206490">
        <ele>191.6</ele>
        <time>2020-02-16T09:01:57Z</time>
      </trkpt>
      <trkpt lat="36.9359020" lon="-2.4206740">
        <ele>191.6</ele>
        <time>2020-02-16T09:01:58Z</time>
      </trkpt>
      <trkpt lat="36.9358800" lon="-2.4207010">
        <ele>191.4</ele>
        <time>2020-02-16T09:01:59Z</time>
      </trkpt>
      <trkpt lat="36.9358590" lon="-2.4207260">
        <ele>191.2</ele>
        <time>2020-02-16T09:02:00Z</time>
      </trkpt>
      <trkpt lat="36.9358390" lon="-2.4207500">
        <ele>191.2</ele>
        <time>2020-02-16T09:02:01Z</time>
      </trkpt>
      <trkpt lat="36.9358200" lon="-2.4207740">
        <ele>191.1</ele>
        <time>2020-02-16T09:02:02Z</time>
      </trkpt>
      <trkpt lat="36.9358020" lon="-2.4207960">
        <ele>191.1</ele>
        <time>2020-02-16T09:02:03Z</time>
      </trkpt>
      <trkpt lat="36.9357840" lon="-2.4208200">
        <ele>190.9</ele>
        <time>2020-02-16T09:02:04Z</time>
      </trkpt>
      <trkpt lat="36.9357640" lon="-2.4208480">
        <ele>190.9</ele>
        <time>2020-02-16T09:02:05Z</time>
      </trkpt>
      <trkpt lat="36.9357470" lon="-2.4208720">
        <ele>190.8</ele>
        <time>2020-02-16T09:02:06Z</time>
      </trkpt>
      <trkpt lat="36.9357290" lon="-2.4208990">
        <ele>190.8</ele>
        <time>2020-02-16T09:02:07Z</time>
      </trkpt>
      <trkpt lat="36.9357090" lon="-2.4209280">
        <ele>190.7</ele>
        <time>2020-02-16T09:02:08Z</time>
      </trkpt>
      <trkpt lat="36.9356920" lon="-2.4209520">
        <ele>190.7</ele>
        <time>2020-02-16T09:02:09Z</time>
      </trkpt>
      <trkpt lat="36.9356600" lon="-2.4209930">
        <ele>190.7</ele>
        <time>2020-02-16T09:02:10Z</time>
      </trkpt>
      <trkpt lat="36.9356370" lon="-2.4210190">
        <ele>190.6</ele>
        <time>2020-02-16T09:02:11Z</time>
      </trkpt>
      <trkpt lat="36.9356150" lon="-2.4210430">
        <ele>190.6</ele>
        <time>2020-02-16T09:02:12Z</time>
      </trkpt>
      <trkpt lat="36.9355920" lon="-2.4210680">
        <ele>190.6</ele>
        <time>2020-02-16T09:02:13Z</time>
      </trkpt>
      <trkpt lat="36.9355700" lon="-2.4210880">
        <ele>190.6</ele>
        <time>2020-02-16T09:02:14Z</time>
      </trkpt>
      <trkpt lat="36.9355470" lon="-2.4211110">
        <ele>190.5</ele>
        <time>2020-02-16T09:02:15Z</time>
      </trkpt>
      <trkpt lat="36.9355240" lon="-2.4211320">
        <ele>190.6</ele>
        <time>2020-02-16T09:02:16Z</time>
      </trkpt>
      <trkpt lat="36.9355090" lon="-2.4211440">
        <ele>190.5</ele>
        <time>2020-02-16T09:02:17Z</time>
      </trkpt>
      <trkpt lat="36.9354870" lon="-2.4211640">
        <ele>190.6</ele>
        <time>2020-02-16T09:02:18Z</time>
      </trkpt>
      <trkpt lat="36.9354690" lon="-2.4211800">
        <ele>190.5</ele>
        <time>2020-02-16T09:02:19Z</time>
      </trkpt>
      <trkpt lat="36.9354500" lon="-2.4211950">
        <ele>190.4</ele>
        <time>2020-02-16T09:02:20Z</time>
      </trkpt>
      <trkpt lat="36.9354300" lon="-2.4212130">
        <ele>190.6</ele>
        <time>2020-02-16T09:02:21Z</time>
      </trkpt>
      <trkpt lat="36.9354070" lon="-2.4212330">
        <ele>190.5</ele>
        <time>2020-02-16T09:02:22Z</time>
      </trkpt>
      <trkpt lat="36.9353850" lon="-2.4212520">
        <ele>190.6</ele>
        <time>2020-02-16T09:02:23Z</time>
      </trkpt>
      <trkpt lat="36.9353650" lon="-2.4212690">
        <ele>190.5</ele>
        <time>2020-02-16T09:02:24Z</time>
      </trkpt>
      <trkpt lat="36.9353490" lon="-2.4212850">
        <ele>190.7</ele>
        <time>2020-02-16T09:02:25Z</time>
      </trkpt>
      <trkpt lat="36.9353270" lon="-2.4213060">
        <ele>190.6</ele>
        <time>2020-02-16T09:02:26Z</time>
      </trkpt>
      <trkpt lat="36.9353050" lon="-2.4213270">
        <ele>190.6</ele>
        <time>2020-02-16T09:02:27Z</time>
      </trkpt>
      <trkpt lat="36.9352870" lon="-2.4213450">
        <ele>190.6</ele>
        <time>2020-02-16T09:02:28Z</time>
      </trkpt>
      <trkpt lat="36.9352670" lon="-2.4213640">
        <ele>190.5</ele>
        <time>2020-02-16T09:02:29Z</time>
      </trkpt>
      <trkpt lat="36.9352440" lon="-2.4213860">
        <ele>190.4</ele>
        <time>2020-02-16T09:02:30Z</time>
      </trkpt>
      <trkpt lat="36.9352150" lon="-2.4214130">
        <ele>190.4</ele>
        <time>2020-02-16T09:02:31Z</time>
      </trkpt>
      <trkpt lat="36.9351900" lon="-2.4214340">
        <ele>190.3</ele>
        <time>2020-02-16T09:02:32Z</time>
      </trkpt>
      <trkpt lat="36.9351650" lon="-2.4214560">
        <ele>190.2</ele>
        <time>2020-02-16T09:02:33Z</time>
      </trkpt>
      <trkpt lat="36.9351370" lon="-2.4214810">
        <ele>190.1</ele>
        <time>2020-02-16T09:02:34Z</time>
      </trkpt>
      <trkpt lat="36.9351070" lon="-2.4215070">
        <ele>189.9</ele>
        <time>2020-02-16T09:02:35Z</time>
      </trkpt>
      <trkpt lat="36.9350850" lon="-2.4215210">
        <ele>189.9</ele>
        <time>2020-02-16T09:02:36Z</time>
      </trkpt>
      <trkpt lat="36.9350640" lon="-2.4215360">
        <ele>189.8</ele>
        <time>2020-02-16T09:02:37Z</time>
      </trkpt>
      <trkpt lat="36.9350470" lon="-2.4215470">
        <ele>189.7</ele>
        <time>2020-02-16T09:02:38Z</time>
      </trkpt>
      <trkpt lat="36.9350150" lon="-2.4215710">
        <ele>189.6</ele>
        <time>2020-02-16T09:02:39Z</time>
      </trkpt>
      <trkpt lat="36.9349870" lon="-2.4215900">
        <ele>189.4</ele>
        <time>2020-02-16T09:02:40Z</time>
      </trkpt>
      <trkpt lat="36.9349570" lon="-2.4216110">
        <ele>189.2</ele>
        <time>2020-02-16T09:02:41Z</time>
      </trkpt>
      <trkpt lat="36.9349270" lon="-2.4216280">
        <ele>189.1</ele>
        <time>2020-02-16T09:02:42Z</time>
      </trkpt>
      <trkpt lat="36.9348970" lon="-2.4216450">
        <ele>188.9</ele>
        <time>2020-02-16T09:02:43Z</time>
      </trkpt>
      <trkpt lat="36.9348710" lon="-2.4216550">
        <ele>188.9</ele>
        <time>2020-02-16T09:02:44Z</time>
      </trkpt>
      <trkpt lat="36.9348440" lon="-2.4216660">
        <ele>188.8</ele>
        <time>2020-02-16T09:02:45Z</time>
      </trkpt>
      <trkpt lat="36.9348190" lon="-2.4216740">
        <ele>188.6</ele>
        <time>2020-02-16T09:02:46Z</time>
      </trkpt>
      <trkpt lat="36.9347940" lon="-2.4216840">
        <ele>188.4</ele>
        <time>2020-02-16T09:02:47Z</time>
      </trkpt>
      <trkpt lat="36.9347710" lon="-2.4216910">
        <ele>188.4</ele>
        <time>2020-02-16T09:02:48Z</time>
      </trkpt>
      <trkpt lat="36.9347490" lon="-2.4216970">
        <ele>188.3</ele>
        <time>2020-02-16T09:02:49Z</time>
      </trkpt>
      <trkpt lat="36.9347260" lon="-2.4217040">
        <ele>188.1</ele>
        <time>2020-02-16T09:02:50Z</time>
      </trkpt>
      <trkpt lat="36.9346990" lon="-2.4217140">
        <ele>188.1</ele>
        <time>2020-02-16T09:02:51Z</time>
      </trkpt>
      <trkpt lat="36.9346740" lon="-2.4217210">
        <ele>187.9</ele>
        <time>2020-02-16T09:02:52Z</time>
      </trkpt>
      <trkpt lat="36.9346540" lon="-2.4217270">
        <ele>187.8</ele>
        <time>2020-02-16T09:02:53Z</time>
      </trkpt>
      <trkpt lat="36.9346220" lon="-2.4216920">
        <ele>187.6</ele>
        <time>2020-02-16T09:02:54Z</time>
      </trkpt>
      <trkpt lat="36.9345960" lon="-2.4217060">
        <ele>187.6</ele>
        <time>2020-02-16T09:02:55Z</time>
      </trkpt>
      <trkpt lat="36.9345670" lon="-2.4217180">
        <ele>187.5</ele>
        <time>2020-02-16T09:02:56Z</time>
      </trkpt>
      <trkpt lat="36.9345410" lon="-2.4217330">
        <ele>187.4</ele>
        <time>2020-02-16T09:02:57Z</time>
      </trkpt>
      <trkpt lat="36.9345140" lon="-2.4217440">
        <ele>187.2</ele>
        <time>2020-02-16T09:02:58Z</time>
      </trkpt>
      <trkpt lat="36.9344820" lon="-2.4217610">
        <ele>187.1</ele>
        <time>2020-02-16T09:02:59Z</time>
      </trkpt>
      <trkpt lat="36.9344620" lon="-2.4217730">
        <ele>187.1</ele>
        <time>2020-02-16T09:03:00Z</time>
      </trkpt>
      <trkpt lat="36.9344360" lon="-2.4217930">
        <ele>187.0</ele>
        <time>2020-02-16T09:03:01Z</time>
      </trkpt>
      <trkpt lat="36.9344120" lon="-2.4218140">
        <ele>186.9</ele>
        <time>2020-02-16T09:03:02Z</time>
      </trkpt>
      <trkpt lat="36.9343890" lon="-2.4218330">
        <ele>186.9</ele>
        <time>2020-02-16T09:03:03Z</time>
      </trkpt>
      <trkpt lat="36.9343620" lon="-2.4218510">
        <ele>186.7</ele>
        <time>2020-02-16T09:03:04Z</time>
      </trkpt>
      <trkpt lat="36.9343370" lon="-2.4218680">
        <ele>186.6</ele>
        <time>2020-02-16T09:03:05Z</time>
      </trkpt>
      <trkpt lat="36.9343140" lon="-2.4218830">
        <ele>186.5</ele>
        <time>2020-02-16T09:03:06Z</time>
      </trkpt>
      <trkpt lat="36.9342890" lon="-2.4218970">
        <ele>186.4</ele>
        <time>2020-02-16T09:03:07Z</time>
      </trkpt>
      <trkpt lat="36.9342640" lon="-2.4219120">
        <ele>186.3</ele>
        <time>2020-02-16T09:03:08Z</time>
      </trkpt>
      <trkpt lat="36.9342410" lon="-2.4219250">
        <ele>186.1</ele>
        <time>2020-02-16T09:03:09Z</time>
      </trkpt>
      <trkpt lat="36.9342140" lon="-2.4219400">
        <ele>185.9</ele>
        <time>2020-02-16T09:03:10Z</time>
      </trkpt>
      <trkpt lat="36.9341790" lon="-2.4219570">
        <ele>185.8</ele>
        <time>2020-02-16T09:03:11Z</time>
      </trkpt>
      <trkpt lat="36.9341520" lon="-2.4219690">
        <ele>185.8</ele>
        <time>2020-02-16T09:03:12Z</time>
      </trkpt>
      <trkpt lat="36.9341290" lon="-2.4219800">
        <ele>185.5</ele>
        <time>2020-02-16T09:03:13Z</time>
      </trkpt>
      <trkpt lat="36.9340940" lon="-2.4219970">
        <ele>185.3</ele>
        <time>2020-02-16T09:03:14Z</time>
      </trkpt>
      <trkpt lat="36.9340620" lon="-2.4220090">
        <ele>185.2</ele>
        <time>2020-02-16T09:03:15Z</time>
      </trkpt>
      <trkpt lat="36.9340320" lon="-2.4220230">
        <ele>184.9</ele>
        <time>2020-02-16T09:03:16Z</time>
      </trkpt>
      <trkpt lat="36.9340040" lon="-2.4220350">
        <ele>184.8</ele>
        <time>2020-02-16T09:03:17Z</time>
      </trkpt>
      <trkpt lat="36.9339710" lon="-2.4220500">
        <ele>184.7</ele>
        <time>2020-02-16T09:03:18Z</time>
      </trkpt>
      <trkpt lat="36.9339390" lon="-2.4220630">
        <ele>184.2</ele>
        <time>2020-02-16T09:03:19Z</time>
      </trkpt>
      <trkpt lat="36.9339040" lon="-2.4220780">
        <ele>184.1</ele>
        <time>2020-02-16T09:03:20Z</time>
      </trkpt>
      <trkpt lat="36.9338760" lon="-2.4220870">
        <ele>184.1</ele>
        <time>2020-02-16T09:03:21Z</time>
      </trkpt>
      <trkpt lat="36.9338470" lon="-2.4220970">
        <ele>184.0</ele>
        <time>2020-02-16T09:03:22Z</time>
      </trkpt>
      <trkpt lat="36.9338210" lon="-2.4221060">
        <ele>183.4</ele>
        <time>2020-02-16T09:03:23Z</time>
      </trkpt>
      <trkpt lat="36.9337970" lon="-2.4221100">
        <ele>183.3</ele>
        <time>2020-02-16T09:03:24Z</time>
      </trkpt>
      <trkpt lat="36.9337710" lon="-2.4221170">
        <ele>183.3</ele>
        <time>2020-02-16T09:03:25Z</time>
      </trkpt>
      <trkpt lat="36.9337460" lon="-2.4221210">
        <ele>183.1</ele>
        <time>2020-02-16T09:03:26Z</time>
      </trkpt>
      <trkpt lat="36.9337160" lon="-2.4221300">
        <ele>183.0</ele>
        <time>2020-02-16T09:03:27Z</time>
      </trkpt>
      <trkpt lat="36.9336860" lon="-2.4221360">
        <ele>182.8</ele>
        <time>2020-02-16T09:03:28Z</time>
      </trkpt>
      <trkpt lat="36.9336640" lon="-2.4221380">
        <ele>182.7</ele>
        <time>2020-02-16T09:03:29Z</time>
      </trkpt>
      <trkpt lat="36.9336320" lon="-2.4221460">
        <ele>182.1</ele>
        <time>2020-02-16T09:03:30Z</time>
      </trkpt>
      <trkpt lat="36.9336070" lon="-2.4221490">
        <ele>182.1</ele>
        <time>2020-02-16T09:03:31Z</time>
      </trkpt>
      <trkpt lat="36.9335840" lon="-2.4221530">
        <ele>181.9</ele>
        <time>2020-02-16T09:03:32Z</time>
      </trkpt>
      <trkpt lat="36.9335570" lon="-2.4221570">
        <ele>181.7</ele>
        <time>2020-02-16T09:03:33Z</time>
      </trkpt>
      <trkpt lat="36.9335340" lon="-2.4221610">
        <ele>181.7</ele>
        <time>2020-02-16T09:03:34Z</time>
      </trkpt>
      <trkpt lat="36.9335140" lon="-2.4221630">
        <ele>181.6</ele>
        <time>2020-02-16T09:03:35Z</time>
      </trkpt>
      <trkpt lat="36.9334890" lon="-2.4221660">
        <ele>181.4</ele>
        <time>2020-02-16T09:03:36Z</time>
      </trkpt>
      <trkpt lat="36.9334690" lon="-2.4221700">
        <ele>181.4</ele>
        <time>2020-02-16T09:03:37Z</time>
      </trkpt>
      <trkpt lat="36.9334490" lon="-2.4221710">
        <ele>181.2</ele>
        <time>2020-02-16T09:03:38Z</time>
      </trkpt>
      <trkpt lat="36.9334240" lon="-2.4221740">
        <ele>181.0</ele>
        <time>2020-02-16T09:03:39Z</time>
      </trkpt>
      <trkpt lat="36.9334040" lon="-2.4221780">
        <ele>181.0</ele>
        <time>2020-02-16T09:03:40Z</time>
      </trkpt>
      <trkpt lat="36.9333790" lon="-2.4221800">
        <ele>180.8</ele>
        <time>2020-02-16T09:03:41Z</time>
      </trkpt>
      <trkpt lat="36.9333510" lon="-2.4221860">
        <ele>180.2</ele>
        <time>2020-02-16T09:03:42Z</time>
      </trkpt>
      <trkpt lat="36.9333210" lon="-2.4221920">
        <ele>180.0</ele>
        <time>2020-02-16T09:03:43Z</time>
      </trkpt>
      <trkpt lat="36.9332930" lon="-2.4221940">
        <ele>180.0</ele>
        <time>2020-02-16T09:03:44Z</time>
      </trkpt>
      <trkpt lat="36.9332640" lon="-2.4221960">
        <ele>179.8</ele>
        <time>2020-02-16T09:03:45Z</time>
      </trkpt>
      <trkpt lat="36.9332340" lon="-2.4221980">
        <ele>179.6</ele>
        <time>2020-02-16T09:03:46Z</time>
      </trkpt>
      <trkpt lat="36.9332080" lon="-2.4221990">
        <ele>179.3</ele>
        <time>2020-02-16T09:03:47Z</time>
      </trkpt>
      <trkpt lat="36.9331840" lon="-2.4222020">
        <ele>179.1</ele>
        <time>2020-02-16T09:03:48Z</time>
      </trkpt>
      <trkpt lat="36.9331580" lon="-2.4222030">
        <ele>179.1</ele>
        <time>2020-02-16T09:03:49Z</time>
      </trkpt>
      <trkpt lat="36.9331330" lon="-2.4222060">
        <ele>178.9</ele>
        <time>2020-02-16T09:03:50Z</time>
      </trkpt>
      <trkpt lat="36.9331080" lon="-2.4222110">
        <ele>178.7</ele>
        <time>2020-02-16T09:03:51Z</time>
      </trkpt>
      <trkpt lat="36.9330780" lon="-2.4222150">
        <ele>178.5</ele>
        <time>2020-02-16T09:03:52Z</time>
      </trkpt>
      <trkpt lat="36.9330510" lon="-2.4222200">
        <ele>178.5</ele>
        <time>2020-02-16T09:03:53Z</time>
      </trkpt>
      <trkpt lat="36.9330240" lon="-2.4222220">
        <ele>178.3</ele>
        <time>2020-02-16T09:03:54Z</time>
      </trkpt>
      <trkpt lat="36.9330010" lon="-2.4222230">
        <ele>178.1</ele>
        <time>2020-02-16T09:03:55Z</time>
      </trkpt>
      <trkpt lat="36.9329780" lon="-2.4221960">
        <ele>177.9</ele>
        <time>2020-02-16T09:03:56Z</time>
      </trkpt>
      <trkpt lat="36.9329510" lon="-2.4221880">
        <ele>177.9</ele>
        <time>2020-02-16T09:03:57Z</time>
      </trkpt>
      <trkpt lat="36.9329280" lon="-2.4221800">
        <ele>177.8</ele>
        <time>2020-02-16T09:03:58Z</time>
      </trkpt>
      <trkpt lat="36.9328990" lon="-2.4221750">
        <ele>177.7</ele>
        <time>2020-02-16T09:03:59Z</time>
      </trkpt>
      <trkpt lat="36.9328710" lon="-2.4221740">
        <ele>177.5</ele>
        <time>2020-02-16T09:04:00Z</time>
      </trkpt>
      <trkpt lat="36.9328440" lon="-2.4221760">
        <ele>177.4</ele>
        <time>2020-02-16T09:04:01Z</time>
      </trkpt>
      <trkpt lat="36.9328160" lon="-2.4221800">
        <ele>177.4</ele>
        <time>2020-02-16T09:04:02Z</time>
      </trkpt>
      <trkpt lat="36.9327890" lon="-2.4221820">
        <ele>177.3</ele>
        <time>2020-02-16T09:04:03Z</time>
      </trkpt>
      <trkpt lat="36.9327610" lon="-2.4221840">
        <ele>177.3</ele>
        <time>2020-02-16T09:04:04Z</time>
      </trkpt>
      <trkpt lat="36.9327330" lon="-2.4221860">
        <ele>177.0</ele>
        <time>2020-02-16T09:04:05Z</time>
      </trkpt>
      <trkpt lat="36.9327060" lon="-2.4221890">
        <ele>177.0</ele>
        <time>2020-02-16T09:04:06Z</time>
      </trkpt>
      <trkpt lat="36.9326740" lon="-2.4221930">
        <ele>177.0</ele>
        <time>2020-02-16T09:04:07Z</time>
      </trkpt>
      <trkpt lat="36.9326480" lon="-2.4221980">
        <ele>177.0</ele>
        <time>2020-02-16T09:04:08Z</time>
      </trkpt>
      <trkpt lat="36.9326180" lon="-2.4222040">
        <ele>176.9</ele>
        <time>2020-02-16T09:04:09Z</time>
      </trkpt>
      <trkpt lat="36.9325890" lon="-2.4222110">
        <ele>176.9</ele>
        <time>2020-02-16T09:04:10Z</time>
      </trkpt>
      <trkpt lat="36.9325660" lon="-2.4222180">
        <ele>176.9</ele>
        <time>2020-02-16T09:04:11Z</time>
      </trkpt>
      <trkpt lat="36.9325410" lon="-2.4222250">
        <ele>176.9</ele>
        <time>2020-02-16T09:04:12Z</time>
      </trkpt>
      <trkpt lat="36.9325180" lon="-2.4222320">
        <ele>176.7</ele>
        <time>2020-02-16T09:04:13Z</time>
      </trkpt>
      <trkpt lat="36.9324910" lon="-2.4222390">
        <ele>176.7</ele>
        <time>2020-02-16T09:04:14Z</time>
      </trkpt>
      <trkpt lat="36.9324680" lon="-2.4222490">
        <ele>176.7</ele>
        <time>2020-02-16T09:04:15Z</time>
      </trkpt>
      <trkpt lat="36.9324440" lon="-2.4222600">
        <ele>176.7</ele>
        <time>2020-02-16T09:04:16Z</time>
      </trkpt>
      <trkpt lat="36.9324230" lon="-2.4223200">
        <ele>176.3</ele>
        <time>2020-02-16T09:04:17Z</time>
      </trkpt>
      <trkpt lat="36.9324010" lon="-2.4223380">
        <ele>176.3</ele>
        <time>2020-02-16T09:04:18Z</time>
      </trkpt>
      <trkpt lat="36.9323860" lon="-2.4223610">
        <ele>176.1</ele>
        <time>2020-02-16T09:04:19Z</time>
      </trkpt>
      <trkpt lat="36.9323680" lon="-2.4223920">
        <ele>176.1</ele>
        <time>2020-02-16T09:04:20Z</time>
      </trkpt>
      <trkpt lat="36.9323390" lon="-2.4224180">
        <ele>175.9</ele>
        <time>2020-02-16T09:04:21Z</time>
      </trkpt>
      <trkpt lat="36.9323140" lon="-2.4224360">
        <ele>176.0</ele>
        <time>2020-02-16T09:04:22Z</time>
      </trkpt>
      <trkpt lat="36.9322840" lon="-2.4224410">
        <ele>176.1</ele>
        <time>2020-02-16T09:04:23Z</time>
      </trkpt>
      <trkpt lat="36.9322630" lon="-2.4224530">
        <ele>175.8</ele>
        <time>2020-02-16T09:04:24Z</time>
      </trkpt>
      <trkpt lat="36.9322340" lon="-2.4224770">
        <ele>175.9</ele>
        <time>2020-02-16T09:04:25Z</time>
      </trkpt>
      <trkpt lat="36.9322130" lon="-2.4224970">
        <ele>175.9</ele>
        <time>2020-02-16T09:04:26Z</time>
      </trkpt>
      <trkpt lat="36.9321910" lon="-2.4225250">
        <ele>176.0</ele>
        <time>2020-02-16T09:04:27Z</time>
      </trkpt>
      <trkpt lat="36.9321740" lon="-2.4225480">
        <ele>175.8</ele>
        <time>2020-02-16T09:04:28Z</time>
      </trkpt>
      <trkpt lat="36.9321480" lon="-2.4225760">
        <ele>175.8</ele>
        <time>2020-02-16T09:04:29Z</time>
      </trkpt>
      <trkpt lat="36.9321240" lon="-2.4226000">
        <ele>176.0</ele>
        <time>2020-02-16T09:04:30Z</time>
      </trkpt>
      <trkpt lat="36.9321040" lon="-2.4226150">
        <ele>175.8</ele>
        <time>2020-02-16T09:04:31Z</time>
      </trkpt>
      <trkpt lat="36.9320860" lon="-2.4226310">
        <ele>176.0</ele>
        <time>2020-02-16T09:04:32Z</time>
      </trkpt>
      <trkpt lat="36.9320580" lon="-2.4226500">
        <ele>176.0</ele>
        <time>2020-02-16T09:04:33Z</time>
      </trkpt>
      <trkpt lat="36.9320340" lon="-2.4226660">
        <ele>175.9</ele>
        <time>2020-02-16T09:04:34Z</time>
      </trkpt>
      <trkpt lat="36.9320180" lon="-2.4226790">
        <ele>176.1</ele>
        <time>2020-02-16T09:04:35Z</time>
      </trkpt>
      <trkpt lat="36.9319940" lon="-2.4226980">
        <ele>176.1</ele>
        <time>2020-02-16T09:04:36Z</time>
      </trkpt>
      <trkpt lat="36.9319680" lon="-2.4227200">
        <ele>176.1</ele>
        <time>2020-02-16T09:04:37Z</time>
      </trkpt>
      <trkpt lat="36.9319480" lon="-2.4227370">
        <ele>176.3</ele>
        <time>2020-02-16T09:04:38Z</time>
      </trkpt>
      <trkpt lat="36.9319180" lon="-2.4227610">
        <ele>176.3</ele>
        <time>2020-02-16T09:04:39Z</time>
      </trkpt>
      <trkpt lat="36.9318930" lon="-2.4227780">
        <ele>176.3</ele>
        <time>2020-02-16T09:04:40Z</time>
      </trkpt>
      <trkpt lat="36.9318710" lon="-2.4227940">
        <ele>176.2</ele>
        <time>2020-02-16T09:04:41Z</time>
      </trkpt>
      <trkpt lat="36.9318490" lon="-2.4228100">
        <ele>176.5</ele>
        <time>2020-02-16T09:04:42Z</time>
      </trkpt>
      <trkpt lat="36.9318280" lon="-2.4228270">
        <ele>176.5</ele>
        <time>2020-02-16T09:04:43Z</time>
      </trkpt>
      <trkpt lat="36.9318110" lon="-2.4228420">
        <ele>176.3</ele>
        <time>2020-02-16T09:04:44Z</time>
      </trkpt>
      <trkpt lat="36.9317810" lon="-2.4228670">
        <ele>176.5</ele>
        <time>2020-02-16T09:04:45Z</time>
      </trkpt>
      <trkpt lat="36.9317540" lon="-2.4228880">
        <ele>176.2</ele>
        <time>2020-02-16T09:04:46Z</time>
      </trkpt>
      <trkpt lat="36.9317260" lon="-2.4229100">
        <ele>176.3</ele>
        <time>2020-02-16T09:04:47Z</time>
      </trkpt>
      <trkpt lat="36.9317010" lon="-2.4229280">
        <ele>176.0</ele>
        <time>2020-02-16T09:04:48Z</time>
      </trkpt>
      <trkpt lat="36.9316730" lon="-2.4229470">
        <ele>176.2</ele>
        <time>2020-02-16T09:04:49Z</time>
      </trkpt>
      <trkpt lat="36.9316480" lon="-2.4229630">
        <ele>175.7</ele>
        <time>2020-02-16T09:04:50Z</time>
      </trkpt>
      <trkpt lat="36.9316240" lon="-2.4229780">
        <ele>175.8</ele>
        <time>2020-02-16T09:04:51Z</time>
      </trkpt>
      <trkpt lat="36.9315990" lon="-2.4229930">
        <ele>175.9</ele>
        <time>2020-02-16T09:04:52Z</time>
      </trkpt>
      <trkpt lat="36.9315760" lon="-2.4230080">
        <ele>175.3</ele>
        <time>2020-02-16T09:04:53Z</time>
      </trkpt>
      <trkpt lat="36.9315560" lon="-2.4230200">
        <ele>175.4</ele>
        <time>2020-02-16T09:04:54Z</time>
      </trkpt>
      <trkpt lat="36.9315300" lon="-2.4230370">
        <ele>175.4</ele>
        <time>2020-02-16T09:04:55Z</time>
      </trkpt>
      <trkpt lat="36.9315010" lon="-2.4230540">
        <ele>174.8</ele>
        <time>2020-02-16T09:04:56Z</time>
      </trkpt>
      <trkpt lat="36.9314780" lon="-2.4230690">
        <ele>174.8</ele>
        <time>2020-02-16T09:04:57Z</time>
      </trkpt>
      <trkpt lat="36.9314530" lon="-2.4230850">
        <ele>174.8</ele>
        <time>2020-02-16T09:04:58Z</time>
      </trkpt>
      <trkpt lat="36.9314300" lon="-2.4231000">
        <ele>174.1</ele>
        <time>2020-02-16T09:04:59Z</time>
      </trkpt>
      <trkpt lat="36.9314060" lon="-2.4231150">
        <ele>174.1</ele>
        <time>2020-02-16T09:05:00Z</time>
      </trkpt>
      <trkpt lat="36.9313830" lon="-2.4231310">
        <ele>173.4</ele>
        <time>2020-02-16T09:05:01Z</time>
      </trkpt>
      <trkpt lat="36.9313530" lon="-2.4231490">
        <ele>173.5</ele>
        <time>2020-02-16T09:05:02Z</time>
      </trkpt>
      <trkpt lat="36.9313280" lon="-2.4231650">
        <ele>173.5</ele>
        <time>2020-02-16T09:05:03Z</time>
      </trkpt>
      <trkpt lat="36.9313010" lon="-2.4231810">
        <ele>172.8</ele>
        <time>2020-02-16T09:05:04Z</time>
      </trkpt>
      <trkpt lat="36.9312730" lon="-2.4231970">
        <ele>172.8</ele>
        <time>2020-02-16T09:05:05Z</time>
      </trkpt>
      <trkpt lat="36.9312480" lon="-2.4232130">
        <ele>172.9</ele>
        <time>2020-02-16T09:05:06Z</time>
      </trkpt>
      <trkpt lat="36.9312200" lon="-2.4232300">
        <ele>172.3</ele>
        <time>2020-02-16T09:05:07Z</time>
      </trkpt>
      <trkpt lat="36.9311950" lon="-2.4232450">
        <ele>172.3</ele>
        <time>2020-02-16T09:05:08Z</time>
      </trkpt>
      <trkpt lat="36.9311730" lon="-2.4232600">
        <ele>171.7</ele>
        <time>2020-02-16T09:05:09Z</time>
      </trkpt>
      <trkpt lat="36.9311500" lon="-2.4232730">
        <ele>171.8</ele>
        <time>2020-02-16T09:05:10Z</time>
      </trkpt>
      <trkpt lat="36.9311260" lon="-2.4232910">
        <ele>171.9</ele>
        <time>2020-02-16T09:05:11Z</time>
      </trkpt>
      <trkpt lat="36.9311030" lon="-2.4233070">
        <ele>171.4</ele>
        <time>2020-02-16T09:05:12Z</time>
      </trkpt>
      <trkpt lat="36.9310810" lon="-2.4233220">
        <ele>171.5</ele>
        <time>2020-02-16T09:05:13Z</time>
      </trkpt>
      <trkpt lat="36.9310650" lon="-2.4233360">
        <ele>171.5</ele>
        <time>2020-02-16T09:05:14Z</time>
      </trkpt>
      <trkpt lat="36.9310380" lon="-2.4233570">
        <ele>171.1</ele>
        <time>2020-02-16T09:05:15Z</time>
      </trkpt>
      <trkpt lat="36.9310210" lon="-2.4233720">
        <ele>171.2</ele>
        <time>2020-02-16T09:05:16Z</time>
      </trkpt>
      <trkpt lat="36.9310030" lon="-2.4234460">
        <ele>170.4</ele>
        <time>2020-02-16T09:05:17Z</time>
      </trkpt>
      <trkpt lat="36.9309800" lon="-2.4234760">
        <ele>170.2</ele>
        <time>2020-02-16T09:05:18Z</time>
      </trkpt>
      <trkpt lat="36.9309600" lon="-2.4235090">
        <ele>170.2</ele>
        <time>2020-02-16T09:05:19Z</time>
      </trkpt>
      <trkpt lat="36.9309400" lon="-2.4235390">
        <ele>170.0</ele>
        <time>2020-02-16T09:05:20Z</time>
      </trkpt>
      <trkpt lat="36.9309210" lon="-2.4235690">
        <ele>169.9</ele>
        <time>2020-02-16T09:05:21Z</time>
      </trkpt>
      <trkpt lat="36.9309030" lon="-2.4235980">
        <ele>169.9</ele>
        <time>2020-02-16T09:05:22Z</time>
      </trkpt>
      <trkpt lat="36.9308870" lon="-2.4236210">
        <ele>169.8</ele>
        <time>2020-02-16T09:05:23Z</time>
      </trkpt>
      <trkpt lat="36.9308740" lon="-2.4236390">
        <ele>169.8</ele>
        <time>2020-02-16T09:05:24Z</time>
      </trkpt>
      <trkpt lat="36.9308550" lon="-2.4236640">
        <ele>169.7</ele>
        <time>2020-02-16T09:05:25Z</time>
      </trkpt>
      <trkpt lat="36.9308330" lon="-2.4236940">
        <ele>169.7</ele>
        <time>2020-02-16T09:05:26Z</time>
      </trkpt>
      <trkpt lat="36.9308120" lon="-2.4237240">
        <ele>169.7</ele>
        <time>2020-02-16T09:05:27Z</time>
      </trkpt>
      <trkpt lat="36.9307920" lon="-2.4237540">
        <ele>169.6</ele>
        <time>2020-02-16T09:05:28Z</time>
      </trkpt>
      <trkpt lat="36.9307730" lon="-2.4237840">
        <ele>169.6</ele>
        <time>2020-02-16T09:05:29Z</time>
      </trkpt>
      <trkpt lat="36.9307590" lon="-2.4238080">
        <ele>169.6</ele>
        <time>2020-02-16T09:05:30Z</time>
      </trkpt>
      <trkpt lat="36.9307390" lon="-2.4238380">
        <ele>169.5</ele>
        <time>2020-02-16T09:05:31Z</time>
      </trkpt>
      <trkpt lat="36.9307180" lon="-2.4238680">
        <ele>169.5</ele>
        <time>2020-02-16T09:05:32Z</time>
      </trkpt>
      <trkpt lat="36.9306970" lon="-2.4238980">
        <ele>169.4</ele>
        <time>2020-02-16T09:05:33Z</time>
      </trkpt>
      <trkpt lat="36.9306730" lon="-2.4239330">
        <ele>169.3</ele>
        <time>2020-02-16T09:05:34Z</time>
      </trkpt>
      <trkpt lat="36.9306590" lon="-2.4239540">
        <ele>169.3</ele>
        <time>2020-02-16T09:05:35Z</time>
      </trkpt>
      <trkpt lat="36.9306410" lon="-2.4239810">
        <ele>169.2</ele>
        <time>2020-02-16T09:05:36Z</time>
      </trkpt>
      <trkpt lat="36.9306170" lon="-2.4240160">
        <ele>169.3</ele>
        <time>2020-02-16T09:05:37Z</time>
      </trkpt>
      <trkpt lat="36.9306010" lon="-2.4240390">
        <ele>169.2</ele>
        <time>2020-02-16T09:05:38Z</time>
      </trkpt>
      <trkpt lat="36.9305770" lon="-2.4240740">
        <ele>169.2</ele>
        <time>2020-02-16T09:05:39Z</time>
      </trkpt>
      <trkpt lat="36.9305600" lon="-2.4240990">
        <ele>169.2</ele>
        <time>2020-02-16T09:05:40Z</time>
      </trkpt>
      <trkpt lat="36.9305440" lon="-2.4241240">
        <ele>169.1</ele>
        <time>2020-02-16T09:05:41Z</time>
      </trkpt>
      <trkpt lat="36.9305230" lon="-2.4241540">
        <ele>169.1</ele>
        <time>2020-02-16T09:05:42Z</time>
      </trkpt>
      <trkpt lat="36.9305030" lon="-2.4241840">
        <ele>169.1</ele>
        <time>2020-02-16T09:05:43Z</time>
      </trkpt>
      <trkpt lat="36.9304840" lon="-2.4242130">
        <ele>169.4</ele>
        <time>2020-02-16T09:05:44Z</time>
      </trkpt>
      <trkpt lat="36.9304640" lon="-2.4242410">
        <ele>169.2</ele>
        <time>2020-02-16T09:05:45Z</time>
      </trkpt>
      <trkpt lat="36.9304410" lon="-2.4242730">
        <ele>169.2</ele>
        <time>2020-02-16T09:05:46Z</time>
      </trkpt>
      <trkpt lat="36.9304250" lon="-2.4242960">
        <ele>169.4</ele>
        <time>2020-02-16T09:05:47Z</time>
      </trkpt>
      <trkpt lat="36.9304050" lon="-2.4243260">
        <ele>169.2</ele>
        <time>2020-02-16T09:05:48Z</time>
      </trkpt>
      <trkpt lat="36.9303810" lon="-2.4243510">
        <ele>169.4</ele>
        <time>2020-02-16T09:05:49Z</time>
      </trkpt>
      <trkpt lat="36.9303600" lon="-2.4243770">
        <ele>169.4</ele>
        <time>2020-02-16T09:05:50Z</time>
      </trkpt>
      <trkpt lat="36.9303400" lon="-2.4244010">
        <ele>169.1</ele>
        <time>2020-02-16T09:05:51Z</time>
      </trkpt>
      <trkpt lat="36.9303230" lon="-2.4244260">
        <ele>169.3</ele>
        <time>2020-02-16T09:05:52Z</time>
      </trkpt>
      <trkpt lat="36.9303010" lon="-2.4244440">
        <ele>169.1</ele>
        <time>2020-02-16T09:05:53Z</time>
      </trkpt>
      <trkpt lat="36.9302810" lon="-2.4244660">
        <ele>169.3</ele>
        <time>2020-02-16T09:05:54Z</time>
      </trkpt>
      <trkpt lat="36.9302610" lon="-2.4244880">
        <ele>169.0</ele>
        <time>2020-02-16T09:05:55Z</time>
      </trkpt>
      <trkpt lat="36.9302410" lon="-2.4245060">
        <ele>169.1</ele>
        <time>2020-02-16T09:05:56Z</time>
      </trkpt>
      <trkpt lat="36.9302160" lon="-2.4245330">
        <ele>168.9</ele>
        <time>2020-02-16T09:05:57Z</time>
      </trkpt>
      <trkpt lat="36.9301930" lon="-2.4245570">
        <ele>168.7</ele>
        <time>2020-02-16T09:05:58Z</time>
      </trkpt>
      <trkpt lat="36.9301680" lon="-2.4245800">
        <ele>168.5</ele>
        <time>2020-02-16T09:05:59Z</time>
      </trkpt>
      <trkpt lat="36.9301460" lon="-2.4246000">
        <ele>168.6</ele>
        <time>2020-02-16T09:06:00Z</time>
      </trkpt>
      <trkpt lat="36.9301280" lon="-2.4246170">
        <ele>168.3</ele>
        <time>2020-02-16T09:06:01Z</time>
      </trkpt>
      <trkpt lat="36.9300980" lon="-2.4246430">
        <ele>168.1</ele>
        <time>2020-02-16T09:06:02Z</time>
      </trkpt>
      <trkpt lat="36.9300700" lon="-2.4246640">
        <ele>168.1</ele>
        <time>2020-02-16T09:06:03Z</time>
      </trkpt>
      <trkpt lat="36.9300450" lon="-2.4246780">
        <ele>167.9</ele>
        <time>2020-02-16T09:06:04Z</time>
      </trkpt>
      <trkpt lat="36.9300250" lon="-2.4246880">
        <ele>167.5</ele>
        <time>2020-02-16T09:06:05Z</time>
      </trkpt>
      <trkpt lat="36.9299920" lon="-2.4247080">
        <ele>167.1</ele>
        <time>2020-02-16T09:06:06Z</time>
      </trkpt>
      <trkpt lat="36.9299630" lon="-2.4247210">
        <ele>166.9</ele>
        <time>2020-02-16T09:06:07Z</time>
      </trkpt>
      <trkpt lat="36.9299350" lon="-2.4247320">
        <ele>166.9</ele>
        <time>2020-02-16T09:06:08Z</time>
      </trkpt>
      <trkpt lat="36.9299070" lon="-2.4247420">
        <ele>166.5</ele>
        <time>2020-02-16T09:06:09Z</time>
      </trkpt>
      <trkpt lat="36.9298770" lon="-2.4247510">
        <ele>166.2</ele>
        <time>2020-02-16T09:06:10Z</time>
      </trkpt>
      <trkpt lat="36.9298500" lon="-2.4247600">
        <ele>166.1</ele>
        <time>2020-02-16T09:06:11Z</time>
      </trkpt>
      <trkpt lat="36.9298180" lon="-2.4247700">
        <ele>165.7</ele>
        <time>2020-02-16T09:06:12Z</time>
      </trkpt>
      <trkpt lat="36.9297900" lon="-2.4247800">
        <ele>165.4</ele>
        <time>2020-02-16T09:06:13Z</time>
      </trkpt>
      <trkpt lat="36.9297630" lon="-2.4247880">
        <ele>165.4</ele>
        <time>2020-02-16T09:06:14Z</time>
      </trkpt>
      <trkpt lat="36.9297370" lon="-2.4247980">
        <ele>165.0</ele>
        <time>2020-02-16T09:06:15Z</time>
      </trkpt>
      <trkpt lat="36.9297120" lon="-2.4248090">
        <ele>164.8</ele>
        <time>2020-02-16T09:06:16Z</time>
      </trkpt>
      <trkpt lat="36.9296880" lon="-2.4248220">
        <ele>164.4</ele>
        <time>2020-02-16T09:06:17Z</time>
      </trkpt>
      <trkpt lat="36.9296700" lon="-2.4248510">
        <ele>164.5</ele>
        <time>2020-02-16T09:06:18Z</time>
      </trkpt>
      <trkpt lat="36.9296550" lon="-2.4248760">
        <ele>164.5</ele>
        <time>2020-02-16T09:06:19Z</time>
      </trkpt>
      <trkpt lat="36.9296400" lon="-2.4249040">
        <ele>164.2</ele>
        <time>2020-02-16T09:06:20Z</time>
      </trkpt>
      <trkpt lat="36.9296280" lon="-2.4249340">
        <ele>164.2</ele>
        <time>2020-02-16T09:06:21Z</time>
      </trkpt>
      <trkpt lat="36.9296180" lon="-2.4249690">
        <ele>163.9</ele>
        <time>2020-02-16T09:06:22Z</time>
      </trkpt>
      <trkpt lat="36.9296050" lon="-2.4250020">
        <ele>163.9</ele>
        <time>2020-02-16T09:06:23Z</time>
      </trkpt>
      <trkpt lat="36.9295900" lon="-2.4250360">
        <ele>163.9</ele>
        <time>2020-02-16T09:06:24Z</time>
      </trkpt>
      <trkpt lat="36.9295700" lon="-2.4250620">
        <ele>163.6</ele>
        <time>2020-02-16T09:06:25Z</time>
      </trkpt>
      <trkpt lat="36.9295380" lon="-2.4250810">
        <ele>163.3</ele>
        <time>2020-02-16T09:06:26Z</time>
      </trkpt>
      <trkpt lat="36.9295120" lon="-2.4250960">
        <ele>163.1</ele>
        <time>2020-02-16T09:06:27Z</time>
      </trkpt>
      <trkpt lat="36.9294820" lon="-2.4251070">
        <ele>162.8</ele>
        <time>2020-02-16T09:06:28Z</time>
      </trkpt>
      <trkpt lat="36.9294500" lon="-2.4251090">
        <ele>162.8</ele>
        <time>2020-02-16T09:06:29Z</time>
      </trkpt>
      <trkpt lat="36.9294150" lon="-2.4251170">
        <ele>162.5</ele>
        <time>2020-02-16T09:06:30Z</time>
      </trkpt>
      <trkpt lat="36.9293870" lon="-2.4251270">
        <ele>162.3</ele>
        <time>2020-02-16T09:06:31Z</time>
      </trkpt>
      <trkpt lat="36.9293580" lon="-2.4251360">
        <ele>162.1</ele>
        <time>2020-02-16T09:06:32Z</time>
      </trkpt>
      <trkpt lat="36.9293280" lon="-2.4251420">
        <ele>161.9</ele>
        <time>2020-02-16T09:06:33Z</time>
      </trkpt>
      <trkpt lat="36.9292980" lon="-2.4251460">
        <ele>161.7</ele>
        <time>2020-02-16T09:06:34Z</time>
      </trkpt>
      <trkpt lat="36.9292650" lon="-2.4251510">
        <ele>161.5</ele>
        <time>2020-02-16T09:06:35Z</time>
      </trkpt>
      <trkpt lat="36.9292370" lon="-2.4251560">
        <ele>161.2</ele>
        <time>2020-02-16T09:06:36Z</time>
      </trkpt>
      <trkpt lat="36.9292100" lon="-2.4251620">
        <ele>161.2</ele>
        <time>2020-02-16T09:06:37Z</time>
      </trkpt>
      <trkpt lat="36.9291850" lon="-2.4251670">
        <ele>161.0</ele>
        <time>2020-02-16T09:06:38Z</time>
      </trkpt>
      <trkpt lat="36.9291600" lon="-2.4251730">
        <ele>160.7</ele>
        <time>2020-02-16T09:06:39Z</time>
      </trkpt>
      <trkpt lat="36.9291320" lon="-2.4251810">
        <ele>160.4</ele>
        <time>2020-02-16T09:06:40Z</time>
      </trkpt>
      <trkpt lat="36.9291020" lon="-2.4251910">
        <ele>160.2</ele>
        <time>2020-02-16T09:06:41Z</time>
      </trkpt>
      <trkpt lat="36.9290730" lon="-2.4251990">
        <ele>160.2</ele>
        <time>2020-02-16T09:06:42Z</time>
      </trkpt>
      <trkpt lat="36.9290480" lon="-2.4252050">
        <ele>160.0</ele>
        <time>2020-02-16T09:06:43Z</time>
      </trkpt>
      <trkpt lat="36.9290230" lon="-2.4252110">
        <ele>159.7</ele>
        <time>2020-02-16T09:06:44Z</time>
      </trkpt>
      <trkpt lat="36.9289950" lon="-2.4252140">
        <ele>159.5</ele>
        <time>2020-02-16T09:06:45Z</time>
      </trkpt>
      <trkpt lat="36.9289670" lon="-2.4252170">
        <ele>159.3</ele>
        <time>2020-02-16T09:06:46Z</time>
      </trkpt>
      <trkpt lat="36.9289380" lon="-2.4252190">
        <ele>159.3</ele>
        <time>2020-02-16T09:06:47Z</time>
      </trkpt>
      <trkpt lat="36.9289050" lon="-2.4252220">
        <ele>159.1</ele>
        <time>2020-02-16T09:06:48Z</time>
      </trkpt>
      <trkpt lat="36.9288750" lon="-2.4252240">
        <ele>158.8</ele>
        <time>2020-02-16T09:06:49Z</time>
      </trkpt>
      <trkpt lat="36.9288470" lon="-2.4252260">
        <ele>158.6</ele>
        <time>2020-02-16T09:06:50Z</time>
      </trkpt>
      <trkpt lat="36.9288180" lon="-2.4252290">
        <ele>158.4</ele>
        <time>2020-02-16T09:06:51Z</time>
      </trkpt>
      <trkpt lat="36.9287920" lon="-2.4252320">
        <ele>158.4</ele>
        <time>2020-02-16T09:06:52Z</time>
      </trkpt>
      <trkpt lat="36.9287630" lon="-2.4252350">
        <ele>158.4</ele>
        <time>2020-02-16T09:06:53Z</time>
      </trkpt>
      <trkpt lat="36.9287350" lon="-2.4252400">
        <ele>158.3</ele>
        <time>2020-02-16T09:06:54Z</time>
      </trkpt>
      <trkpt lat="36.9287070" lon="-2.4252440">
        <ele>158.2</ele>
        <time>2020-02-16T09:06:55Z</time>
      </trkpt>
      <trkpt lat="36.9286770" lon="-2.4252510">
        <ele>158.1</ele>
        <time>2020-02-16T09:06:56Z</time>
      </trkpt>
      <trkpt lat="36.9286500" lon="-2.4252570">
        <ele>158.0</ele>
        <time>2020-02-16T09:06:57Z</time>
      </trkpt>
      <trkpt lat="36.9286230" lon="-2.4252910">
        <ele>158.1</ele>
        <time>2020-02-16T09:06:58Z</time>
      </trkpt>
      <trkpt lat="36.9285970" lon="-2.4253050">
        <ele>158.1</ele>
        <time>2020-02-16T09:06:59Z</time>
      </trkpt>
      <trkpt lat="36.9285700" lon="-2.4253190">
        <ele>158.3</ele>
        <time>2020-02-16T09:07:00Z</time>
      </trkpt>
      <trkpt lat="36.9285420" lon="-2.4253310">
        <ele>158.3</ele>
        <time>2020-02-16T09:07:01Z</time>
      </trkpt>
      <trkpt lat="36.9285150" lon="-2.4253440">
        <ele>158.2</ele>
        <time>2020-02-16T09:07:02Z</time>
      </trkpt>
      <trkpt lat="36.9284880" lon="-2.4253590">
        <ele>158.2</ele>
        <time>2020-02-16T09:07:03Z</time>
      </trkpt>
      <trkpt lat="36.9284620" lon="-2.4253740">
        <ele>158.5</ele>
        <time>2020-02-16T09:07:04Z</time>
      </trkpt>
      <trkpt lat="36.9284400" lon="-2.4253890">
        <ele>158.5</ele>
        <time>2020-02-16T09:07:05Z</time>
      </trkpt>
      <trkpt lat="36.9284140" lon="-2.4254060">
        <ele>158.7</ele>
        <time>2020-02-16T09:07:06Z</time>
      </trkpt>
      <trkpt lat="36.9283870" lon="-2.4254220">
        <ele>158.7</ele>
        <time>2020-02-16T09:07:07Z</time>
      </trkpt>
      <trkpt lat="36.9283650" lon="-2.4254390">
        <ele>158.7</ele>
        <time>2020-02-16T09:07:08Z</time>
      </trkpt>
      <trkpt lat="36.9283390" lon="-2.4254590">
        <ele>158.9</ele>
        <time>2020-02-16T09:07:09Z</time>
      </trkpt>
      <trkpt lat="36.9283140" lon="-2.4254770">
        <ele>158.9</ele>
        <time>2020-02-16T09:07:10Z</time>
      </trkpt>
      <trkpt lat="36.9282890" lon="-2.4254970">
        <ele>159.2</ele>
        <time>2020-02-16T09:07:11Z</time>
      </trkpt>
      <trkpt lat="36.9282650" lon="-2.4255150">
        <ele>159.2</ele>
        <time>2020-02-16T09:07:12Z</time>
      </trkpt>
      <trkpt lat="36.9282420" lon="-2.4255330">
        <ele>159.6</ele>
        <time>2020-02-16T09:07:13Z</time>
      </trkpt>
      <trkpt lat="36.9282150" lon="-2.4255530">
        <ele>159.6</ele>
        <time>2020-02-16T09:07:14Z</time>
      </trkpt>
      <trkpt lat="36.9281900" lon="-2.4255720">
        <ele>159.7</ele>
        <time>2020-02-16T09:07:15Z</time>
      </trkpt>
      <trkpt lat="36.9281650" lon="-2.4255910">
        <ele>160.1</ele>
        <time>2020-02-16T09:07:16Z</time>
      </trkpt>
      <trkpt lat="36.9281420" lon="-2.4256090">
        <ele>160.2</ele>
        <time>2020-02-16T09:07:17Z</time>
      </trkpt>
      <trkpt lat="36.9281220" lon="-2.4256270">
        <ele>160.5</ele>
        <time>2020-02-16T09:07:18Z</time>
      </trkpt>
      <trkpt lat="36.9280990" lon="-2.4256470">
        <ele>160.6</ele>
        <time>2020-02-16T09:07:19Z</time>
      </trkpt>
      <trkpt lat="36.9280800" lon="-2.4256620">
        <ele>160.9</ele>
        <time>2020-02-16T09:07:20Z</time>
      </trkpt>
      <trkpt lat="36.9280550" lon="-2.4256840">
        <ele>161.0</ele>
        <time>2020-02-16T09:07:21Z</time>
      </trkpt>
      <trkpt lat="36.9280340" lon="-2.4257030">
        <ele>161.1</ele>
        <time>2020-02-16T09:07:22Z</time>
      </trkpt>
      <trkpt lat="36.9280090" lon="-2.4257270">
        <ele>161.3</ele>
        <time>2020-02-16T09:07:23Z</time>
      </trkpt>
      <trkpt lat="36.9279840" lon="-2.4257510">
        <ele>161.6</ele>
        <time>2020-02-16T09:07:24Z</time>
      </trkpt>
      <trkpt lat="36.9279590" lon="-2.4257730">
        <ele>161.7</ele>
        <time>2020-02-16T09:07:25Z</time>
      </trkpt>
      <trkpt lat="36.9279350" lon="-2.4257930">
        <ele>162.0</ele>
        <time>2020-02-16T09:07:26Z</time>
      </trkpt>
      <trkpt lat="36.9279100" lon="-2.4258150">
        <ele>162.0</ele>
        <time>2020-02-16T09:07:27Z</time>
      </trkpt>
      <trkpt lat="36.9278840" lon="-2.4258360">
        <ele>162.3</ele>
        <time>2020-02-16T09:07:28Z</time>
      </trkpt>
      <trkpt lat="36.9278570" lon="-2.4258560">
        <ele>162.3</ele>
        <time>2020-02-16T09:07:29Z</time>
      </trkpt>
      <trkpt lat="36.9278290" lon="-2.4258780">
        <ele>162.5</ele>
        <time>2020-02-16T09:07:30Z</time>
      </trkpt>
      <trkpt lat="36.9278000" lon="-2.4258990">
        <ele>162.6</ele>
        <time>2020-02-16T09:07:31Z</time>
      </trkpt>
      <trkpt lat="36.9277700" lon="-2.4259200">
        <ele>162.7</ele>
        <time>2020-02-16T09:07:32Z</time>
      </trkpt>
      <trkpt lat="36.9277390" lon="-2.4259420">
        <ele>162.7</ele>
        <time>2020-02-16T09:07:33Z</time>
      </trkpt>
      <trkpt lat="36.9277100" lon="-2.4259590">
        <ele>162.7</ele>
        <time>2020-02-16T09:07:34Z</time>
      </trkpt>
      <trkpt lat="36.9276840" lon="-2.4259740">
        <ele>162.8</ele>
        <time>2020-02-16T09:07:35Z</time>
      </trkpt>
      <trkpt lat="36.9276570" lon="-2.4259920">
        <ele>162.8</ele>
        <time>2020-02-16T09:07:36Z</time>
      </trkpt>
      <trkpt lat="36.9276270" lon="-2.4260120">
        <ele>163.0</ele>
        <time>2020-02-16T09:07:37Z</time>
      </trkpt>
      <trkpt lat="36.9276020" lon="-2.4260280">
        <ele>163.0</ele>
        <time>2020-02-16T09:07:38Z</time>
      </trkpt>
      <trkpt lat="36.9275820" lon="-2.4260320">
        <ele>163.0</ele>
        <time>2020-02-16T09:07:39Z</time>
      </trkpt>
      <trkpt lat="36.9275590" lon="-2.4260570">
        <ele>163.2</ele>
        <time>2020-02-16T09:07:40Z</time>
      </trkpt>
      <trkpt lat="36.9275320" lon="-2.4260780">
        <ele>163.2</ele>
        <time>2020-02-16T09:07:41Z</time>
      </trkpt>
      <trkpt lat="36.9275050" lon="-2.4260960">
        <ele>163.4</ele>
        <time>2020-02-16T09:07:42Z</time>
      </trkpt>
      <trkpt lat="36.9274790" lon="-2.4261140">
        <ele>163.4</ele>
        <time>2020-02-16T09:07:43Z</time>
      </trkpt>
      <trkpt lat="36.9274500" lon="-2.4261310">
        <ele>163.4</ele>
        <time>2020-02-16T09:07:44Z</time>
      </trkpt>
      <trkpt lat="36.9274240" lon="-2.4261490">
        <ele>163.6</ele>
        <time>2020-02-16T09:07:45Z</time>
      </trkpt>
      <trkpt lat="36.9273950" lon="-2.4261670">
        <ele>163.6</ele>
        <time>2020-02-16T09:07:46Z</time>
      </trkpt>
      <trkpt lat="36.9273670" lon="-2.4261840">
        <ele>163.8</ele>
        <time>2020-02-16T09:07:47Z</time>
      </trkpt>
      <trkpt lat="36.9273390" lon="-2.4262010">
        <ele>163.7</ele>
        <time>2020-02-16T09:07:48Z</time>
      </trkpt>
      <trkpt lat="36.9273100" lon="-2.4262150">
        <ele>163.6</ele>
        <time>2020-02-16T09:07:49Z</time>
      </trkpt>
      <trkpt lat="36.9272800" lon="-2.4262260">
        <ele>163.7</ele>
        <time>2020-02-16T09:07:50Z</time>
      </trkpt>
      <trkpt lat="36.9272490" lon="-2.4262380">
        <ele>163.6</ele>
        <time>2020-02-16T09:07:51Z</time>
      </trkpt>
      <trkpt lat="36.9272190" lon="-2.4262480">
        <ele>163.6</ele>
        <time>2020-02-16T09:07:52Z</time>
      </trkpt>
      <trkpt lat="36.9271890" lon="-2.4262580">
        <ele>163.4</ele>
        <time>2020-02-16T09:07:53Z</time>
      </trkpt>
      <trkpt lat="36.9271600" lon="-2.4262690">
        <ele>163.6</ele>
        <time>2020-02-16T09:07:54Z</time>
      </trkpt>
      <trkpt lat="36.9271320" lon="-2.4262810">
        <ele>163.4</ele>
        <time>2020-02-16T09:07:55Z</time>
      </trkpt>
      <trkpt lat="36.9271090" lon="-2.4262920">
        <ele>163.2</ele>
        <time>2020-02-16T09:07:56Z</time>
      </trkpt>
      <trkpt lat="36.9270840" lon="-2.4263030">
        <ele>163.2</ele>
        <time>2020-02-16T09:07:57Z</time>
      </trkpt>
      <trkpt lat="36.9270520" lon="-2.4263180">
        <ele>163.4</ele>
        <time>2020-02-16T09:07:58Z</time>
      </trkpt>
      <trkpt lat="36.9270270" lon="-2.4263270">
        <ele>163.2</ele>
        <time>2020-02-16T09:07:59Z</time>
      </trkpt>
      <trkpt lat="36.9270020" lon="-2.4263360">
        <ele>163.1</ele>
        <time>2020-02-16T09:08:00Z</time>
      </trkpt>
      <trkpt lat="36.9269740" lon="-2.4263170">
        <ele>162.9</ele>
        <time>2020-02-16T09:08:01Z</time>
      </trkpt>
      <trkpt lat="36.9269450" lon="-2.4263200">
        <ele>162.9</ele>
        <time>2020-02-16T09:08:02Z</time>
      </trkpt>
      <trkpt lat="36.9269170" lon="-2.4263300">
        <ele>162.6</ele>
        <time>2020-02-16T09:08:03Z</time>
      </trkpt>
      <trkpt lat="36.9268950" lon="-2.4263430">
        <ele>162.4</ele>
        <time>2020-02-16T09:08:04Z</time>
      </trkpt>
      <trkpt lat="36.9268720" lon="-2.4263650">
        <ele>162.6</ele>
        <time>2020-02-16T09:08:05Z</time>
      </trkpt>
      <trkpt lat="36.9268350" lon="-2.4263800">
        <ele>162.3</ele>
        <time>2020-02-16T09:08:06Z</time>
      </trkpt>
      <trkpt lat="36.9268100" lon="-2.4263950">
        <ele>162.6</ele>
        <time>2020-02-16T09:08:07Z</time>
      </trkpt>
      <trkpt lat="36.9267820" lon="-2.4264110">
        <ele>162.3</ele>
        <time>2020-02-16T09:08:08Z</time>
      </trkpt>
      <trkpt lat="36.9267490" lon="-2.4264280">
        <ele>162.0</ele>
        <time>2020-02-16T09:08:09Z</time>
      </trkpt>
      <trkpt lat="36.9267320" lon="-2.4264350">
        <ele>162.0</ele>
        <time>2020-02-16T09:08:10Z</time>
      </trkpt>
      <trkpt lat="36.9266950" lon="-2.4264490">
        <ele>161.7</ele>
        <time>2020-02-16T09:08:11Z</time>
      </trkpt>
      <trkpt lat="36.9266650" lon="-2.4264560">
        <ele>161.3</ele>
        <time>2020-02-16T09:08:12Z</time>
      </trkpt>
      <trkpt lat="36.9266450" lon="-2.4264610">
        <ele>161.3</ele>
        <time>2020-02-16T09:08:13Z</time>
      </trkpt>
      <trkpt lat="36.9266150" lon="-2.4264720">
        <ele>161.0</ele>
        <time>2020-02-16T09:08:14Z</time>
      </trkpt>
      <trkpt lat="36.9265820" lon="-2.4264840">
        <ele>161.0</ele>
        <time>2020-02-16T09:08:15Z</time>
      </trkpt>
      <trkpt lat="36.9265550" lon="-2.4264960">
        <ele>160.7</ele>
        <time>2020-02-16T09:08:16Z</time>
      </trkpt>
      <trkpt lat="36.9265300" lon="-2.4265090">
        <ele>160.5</ele>
        <time>2020-02-16T09:08:17Z</time>
      </trkpt>
      <trkpt lat="36.9265050" lon="-2.4265240">
        <ele>160.6</ele>
        <time>2020-02-16T09:08:18Z</time>
      </trkpt>
      <trkpt lat="36.9264820" lon="-2.4265380">
        <ele>160.4</ele>
        <time>2020-02-16T09:08:19Z</time>
      </trkpt>
      <trkpt lat="36.9264500" lon="-2.4265550">
        <ele>160.1</ele>
        <time>2020-02-16T09:08:20Z</time>
      </trkpt>
      <trkpt lat="36.9264200" lon="-2.4265710">
        <ele>160.0</ele>
        <time>2020-02-16T09:08:21Z</time>
      </trkpt>
      <trkpt lat="36.9263890" lon="-2.4265880">
        <ele>159.8</ele>
        <time>2020-02-16T09:08:22Z</time>
      </trkpt>
      <trkpt lat="36.9263590" lon="-2.4266040">
        <ele>159.6</ele>
        <time>2020-02-16T09:08:23Z</time>
      </trkpt>
      <trkpt lat="36.9263290" lon="-2.4266200">
        <ele>159.6</ele>
        <time>2020-02-16T09:08:24Z</time>
      </trkpt>
      <trkpt lat="36.9263000" lon="-2.4266330">
        <ele>159.4</ele>
        <time>2020-02-16T09:08:25Z</time>
      </trkpt>
      <trkpt lat="36.9262720" lon="-2.4266460">
        <ele>159.2</ele>
        <time>2020-02-16T09:08:26Z</time>
      </trkpt>
      <trkpt lat="36.9262420" lon="-2.4266590">
        <ele>159.0</ele>
        <time>2020-02-16T09:08:27Z</time>
      </trkpt>
      <trkpt lat="36.9262110" lon="-2.4266720">
        <ele>158.7</ele>
        <time>2020-02-16T09:08:28Z</time>
      </trkpt>
      <trkpt lat="36.9261820" lon="-2.4266820">
        <ele>158.4</ele>
        <time>2020-02-16T09:08:29Z</time>
      </trkpt>
      <trkpt lat="36.9261520" lon="-2.4266940">
        <ele>158.0</ele>
        <time>2020-02-16T09:08:30Z</time>
      </trkpt>
      <trkpt lat="36.9261210" lon="-2.4267060">
        <ele>158.0</ele>
        <time>2020-02-16T09:08:31Z</time>
      </trkpt>
      <trkpt lat="36.9260870" lon="-2.4267190">
        <ele>157.6</ele>
        <time>2020-02-16T09:08:32Z</time>
      </trkpt>
      <trkpt lat="36.9260540" lon="-2.4267320">
        <ele>157.2</ele>
        <time>2020-02-16T09:08:33Z</time>
      </trkpt>
      <trkpt lat="36.9260240" lon="-2.4267420">
        <ele>156.7</ele>
        <time>2020-02-16T09:08:34Z</time>
      </trkpt>
      <trkpt lat="36.9259910" lon="-2.4267530">
        <ele>156.3</ele>
        <time>2020-02-16T09:08:35Z</time>
      </trkpt>
      <trkpt lat="36.9259590" lon="-2.4267670">
        <ele>155.9</ele>
        <time>2020-02-16T09:08:36Z</time>
      </trkpt>
      <trkpt lat="36.9259310" lon="-2.4267770">
        <ele>155.2</ele>
        <time>2020-02-16T09:08:37Z</time>
      </trkpt>
      <trkpt lat="36.9259010" lon="-2.4267870">
        <ele>154.8</ele>
        <time>2020-02-16T09:08:38Z</time>
      </trkpt>
      <trkpt lat="36.9258710" lon="-2.4267980">
        <ele>154.3</ele>
        <time>2020-02-16T09:08:39Z</time>
      </trkpt>
      <trkpt lat="36.9258390" lon="-2.4268080">
        <ele>153.9</ele>
        <time>2020-02-16T09:08:40Z</time>
      </trkpt>
      <trkpt lat="36.9258070" lon="-2.4268180">
        <ele>153.4</ele>
        <time>2020-02-16T09:08:41Z</time>
      </trkpt>
      <trkpt lat="36.9257770" lon="-2.4268250">
        <ele>152.8</ele>
        <time>2020-02-16T09:08:42Z</time>
      </trkpt>
      <trkpt lat="36.9257490" lon="-2.4268340">
        <ele>152.8</ele>
        <time>2020-02-16T09:08:43Z</time>
      </trkpt>
      <trkpt lat="36.9257160" lon="-2.4268410">
        <ele>152.3</ele>
        <time>2020-02-16T09:08:44Z</time>
      </trkpt>
      <trkpt lat="36.9256840" lon="-2.4268500">
        <ele>151.9</ele>
        <time>2020-02-16T09:08:45Z</time>
      </trkpt>
      <trkpt lat="36.9256520" lon="-2.4268560">
        <ele>151.3</ele>
        <time>2020-02-16T09:08:46Z</time>
      </trkpt>
      <trkpt lat="36.9256210" lon="-2.4268650">
        <ele>150.8</ele>
        <time>2020-02-16T09:08:47Z</time>
      </trkpt>
      <trkpt lat="36.9255940" lon="-2.4268690">
        <ele>150.2</ele>
        <time>2020-02-16T09:08:48Z</time>
      </trkpt>
      <trkpt lat="36.9255660" lon="-2.4268750">
        <ele>149.7</ele>
        <time>2020-02-16T09:08:49Z</time>
      </trkpt>
      <trkpt lat="36.9255370" lon="-2.4268820">
        <ele>149.2</ele>
        <time>2020-02-16T09:08:50Z</time>
      </trkpt>
      <trkpt lat="36.9255070" lon="-2.4268900">
        <ele>149.2</ele>
        <time>2020-02-16T09:08:51Z</time>
      </trkpt>
      <trkpt lat="36.9254840" lon="-2.4268940">
        <ele>148.8</ele>
        <time>2020-02-16T09:08:52Z</time>
      </trkpt>
      <trkpt lat="36.9254490" lon="-2.4269060">
        <ele>148.3</ele>
        <time>2020-02-16T09:08:53Z</time>
      </trkpt>
      <trkpt lat="36.9254260" lon="-2.4269120">
        <ele>147.9</ele>
        <time>2020-02-16T09:08:54Z</time>
      </trkpt>
      <trkpt lat="36.9254010" lon="-2.4269180">
        <ele>147.9</ele>
        <time>2020-02-16T09:08:55Z</time>
      </trkpt>
      <trkpt lat="36.9253670" lon="-2.4269270">
        <ele>147.6</ele>
        <time>2020-02-16T09:08:56Z</time>
      </trkpt>
      <trkpt lat="36.9253390" lon="-2.4269350">
        <ele>147.2</ele>
        <time>2020-02-16T09:08:57Z</time>
      </trkpt>
      <trkpt lat="36.9253120" lon="-2.4269440">
        <ele>146.9</ele>
        <time>2020-02-16T09:08:58Z</time>
      </trkpt>
      <trkpt lat="36.9252890" lon="-2.4269500">
        <ele>146.6</ele>
        <time>2020-02-16T09:08:59Z</time>
      </trkpt>
      <trkpt lat="36.9252620" lon="-2.4269600">
        <ele>146.4</ele>
        <time>2020-02-16T09:09:00Z</time>
      </trkpt>
      <trkpt lat="36.9252390" lon="-2.4269660">
        <ele>146.4</ele>
        <time>2020-02-16T09:09:01Z</time>
      </trkpt>
      <trkpt lat="36.9252120" lon="-2.4269760">
        <ele>146.2</ele>
        <time>2020-02-16T09:09:02Z</time>
      </trkpt>
      <trkpt lat="36.9251890" lon="-2.4269820">
        <ele>146.0</ele>
        <time>2020-02-16T09:09:03Z</time>
      </trkpt>
      <trkpt lat="36.9251660" lon="-2.4269890">
        <ele>146.0</ele>
        <time>2020-02-16T09:09:04Z</time>
      </trkpt>
      <trkpt lat="36.9251360" lon="-2.4270000">
        <ele>145.8</ele>
        <time>2020-02-16T09:09:05Z</time>
      </trkpt>
      <trkpt lat="36.9251170" lon="-2.4270070">
        <ele>145.7</ele>
        <time>2020-02-16T09:09:06Z</time>
      </trkpt>
      <trkpt lat="36.9250890" lon="-2.4270180">
        <ele>145.5</ele>
        <time>2020-02-16T09:09:07Z</time>
      </trkpt>
      <trkpt lat="36.9250620" lon="-2.4270280">
        <ele>145.5</ele>
        <time>2020-02-16T09:09:08Z</time>
      </trkpt>
      <trkpt lat="36.9250370" lon="-2.4270400">
        <ele>145.3</ele>
        <time>2020-02-16T09:09:09Z</time>
      </trkpt>
      <trkpt lat="36.9250170" lon="-2.4270500">
        <ele>145.2</ele>
        <time>2020-02-16T09:09:10Z</time>
      </trkpt>
      <trkpt lat="36.9249840" lon="-2.4270650">
        <ele>145.0</ele>
        <time>2020-02-16T09:09:11Z</time>
      </trkpt>
      <trkpt lat="36.9249640" lon="-2.4270760">
        <ele>145.0</ele>
        <time>2020-02-16T09:09:12Z</time>
      </trkpt>
      <trkpt lat="36.9249390" lon="-2.4270910">
        <ele>144.9</ele>
        <time>2020-02-16T09:09:13Z</time>
      </trkpt>
      <trkpt lat="36.9249120" lon="-2.4271070">
        <ele>144.8</ele>
        <time>2020-02-16T09:09:14Z</time>
      </trkpt>
      <trkpt lat="36.9248890" lon="-2.4271240">
        <ele>144.7</ele>
        <time>2020-02-16T09:09:15Z</time>
      </trkpt>
      <trkpt lat="36.9248720" lon="-2.4271400">
        <ele>144.6</ele>
        <time>2020-02-16T09:09:16Z</time>
      </trkpt>
      <trkpt lat="36.9248560" lon="-2.4272800">
        <ele>144.5</ele>
        <time>2020-02-16T09:09:17Z</time>
      </trkpt>
      <trkpt lat="36.9248370" lon="-2.4273130">
        <ele>144.3</ele>
        <time>2020-02-16T09:09:18Z</time>
      </trkpt>
      <trkpt lat="36.9248170" lon="-2.4273430">
        <ele>144.1</ele>
        <time>2020-02-16T09:09:19Z</time>
      </trkpt>
      <trkpt lat="36.9248020" lon="-2.4273750">
        <ele>144.1</ele>
        <time>2020-02-16T09:09:20Z</time>
      </trkpt>
      <trkpt lat="36.9247900" lon="-2.4274070">
        <ele>144.1</ele>
        <time>2020-02-16T09:09:21Z</time>
      </trkpt>
      <trkpt lat="36.9247770" lon="-2.4274420">
        <ele>143.9</ele>
        <time>2020-02-16T09:09:22Z</time>
      </trkpt>
      <trkpt lat="36.9247620" lon="-2.4274730">
        <ele>143.8</ele>
        <time>2020-02-16T09:09:23Z</time>
      </trkpt>
      <trkpt lat="36.9247440" lon="-2.4275020">
        <ele>143.7</ele>
        <time>2020-02-16T09:09:24Z</time>
      </trkpt>
      <trkpt lat="36.9247110" lon="-2.4275300">
        <ele>143.5</ele>
        <time>2020-02-16T09:09:25Z</time>
      </trkpt>
      <trkpt lat="36.9246870" lon="-2.4275580">
        <ele>143.4</ele>
        <time>2020-02-16T09:09:26Z</time>
      </trkpt>
      <trkpt lat="36.9246640" lon="-2.4275850">
        <ele>143.3</ele>
        <time>2020-02-16T09:09:27Z</time>
      </trkpt>
      <trkpt lat="36.9246410" lon="-2.4276100">
        <ele>143.1</ele>
        <time>2020-02-16T09:09:28Z</time>
      </trkpt>
      <trkpt lat="36.9246160" lon="-2.4276340">
        <ele>143.1</ele>
        <time>2020-02-16T09:09:29Z</time>
      </trkpt>
      <trkpt lat="36.9245890" lon="-2.4276570">
        <ele>142.9</ele>
        <time>2020-02-16T09:09:30Z</time>
      </trkpt>
      <trkpt lat="36.9245690" lon="-2.4276770">
        <ele>142.9</ele>
        <time>2020-02-16T09:09:31Z</time>
      </trkpt>
      <trkpt lat="36.9245480" lon="-2.4276990">
        <ele>142.8</ele>
        <time>2020-02-16T09:09:32Z</time>
      </trkpt>
      <trkpt lat="36.9245180" lon="-2.4277240">
        <ele>142.6</ele>
        <time>2020-02-16T09:09:33Z</time>
      </trkpt>
      <trkpt lat="36.9244890" lon="-2.4277450">
        <ele>142.6</ele>
        <time>2020-02-16T09:09:34Z</time>
      </trkpt>
      <trkpt lat="36.9244560" lon="-2.4277670">
        <ele>142.4</ele>
        <time>2020-02-16T09:09:35Z</time>
      </trkpt>
      <trkpt lat="36.9244290" lon="-2.4277840">
        <ele>142.4</ele>
        <time>2020-02-16T09:09:36Z</time>
      </trkpt>
      <trkpt lat="36.9243940" lon="-2.4278060">
        <ele>142.3</ele>
        <time>2020-02-16T09:09:37Z</time>
      </trkpt>
      <trkpt lat="36.9243630" lon="-2.4278240">
        <ele>142.2</ele>
        <time>2020-02-16T09:09:38Z</time>
      </trkpt>
      <trkpt lat="36.9243360" lon="-2.4278400">
        <ele>142.1</ele>
        <time>2020-02-16T09:09:39Z</time>
      </trkpt>
      <trkpt lat="36.9243090" lon="-2.4278580">
        <ele>142.0</ele>
        <time>2020-02-16T09:09:40Z</time>
      </trkpt>
      <trkpt lat="36.9242860" lon="-2.4278770">
        <ele>142.0</ele>
        <time>2020-02-16T09:09:41Z</time>
      </trkpt>
      <trkpt lat="36.9242630" lon="-2.4278970">
        <ele>141.9</ele>
        <time>2020-02-16T09:09:42Z</time>
      </trkpt>
      <trkpt lat="36.9242410" lon="-2.4279170">
        <ele>141.9</ele>
        <time>2020-02-16T09:09:43Z</time>
      </trkpt>
      <trkpt lat="36.9242210" lon="-2.4279390">
        <ele>141.8</ele>
        <time>2020-02-16T09:09:44Z</time>
      </trkpt>
      <trkpt lat="36.9242030" lon="-2.4279610">
        <ele>141.8</ele>
        <time>2020-02-16T09:09:45Z</time>
      </trkpt>
      <trkpt lat="36.9241810" lon="-2.4279860">
        <ele>141.6</ele>
        <time>2020-02-16T09:09:46Z</time>
      </trkpt>
      <trkpt lat="36.9241610" lon="-2.4280110">
        <ele>141.6</ele>
        <time>2020-02-16T09:09:47Z</time>
      </trkpt>
      <trkpt lat="36.9241390" lon="-2.4280370">
        <ele>141.6</ele>
        <time>2020-02-16T09:09:48Z</time>
      </trkpt>
      <trkpt lat="36.9241160" lon="-2.4280650">
        <ele>141.5</ele>
        <time>2020-02-16T09:09:49Z</time>
      </trkpt>
      <trkpt lat="36.9240940" lon="-2.4280920">
        <ele>141.4</ele>
        <time>2020-02-16T09:09:50Z</time>
      </trkpt>
      <trkpt lat="36.9240710" lon="-2.4281210">
        <ele>141.4</ele>
        <time>2020-02-16T09:09:51Z</time>
      </trkpt>
      <trkpt lat="36.9240540" lon="-2.4281450">
        <ele>141.4</ele>
        <time>2020-02-16T09:09:52Z</time>
      </trkpt>
      <trkpt lat="36.9240390" lon="-2.4282280">
        <ele>141.2</ele>
        <time>2020-02-16T09:09:53Z</time>
      </trkpt>
      <trkpt lat="36.9240210" lon="-2.4282600">
        <ele>141.1</ele>
        <time>2020-02-16T09:09:54Z</time>
      </trkpt>
      <trkpt lat="36.9239990" lon="-2.4282880">
        <ele>141.1</ele>
        <time>2020-02-16T09:09:55Z</time>
      </trkpt>
      <trkpt lat="36.9239790" lon="-2.4283160">
        <ele>141.1</ele>
        <time>2020-02-16T09:09:56Z</time>
      </trkpt>
      <trkpt lat="36.9239580" lon="-2.4283450">
        <ele>141.0</ele>
        <time>2020-02-16T09:09:57Z</time>
      </trkpt>
      <trkpt lat="36.9239340" lon="-2.4283700">
        <ele>140.9</ele>
        <time>2020-02-16T09:09:58Z</time>
      </trkpt>
      <trkpt lat="36.9239130" lon="-2.4283960">
        <ele>140.9</ele>
        <time>2020-02-16T09:09:59Z</time>
      </trkpt>
      <trkpt lat="36.9238910" lon="-2.4284210">
        <ele>140.9</ele>
        <time>2020-02-16T09:10:00Z</time>
      </trkpt>
      <trkpt lat="36.9238680" lon="-2.4284490">
        <ele>140.9</ele>
        <time>2020-02-16T09:10:01Z</time>
      </trkpt>
      <trkpt lat="36.9238460" lon="-2.4284770">
        <ele>140.8</ele>
        <time>2020-02-16T09:10:02Z</time>
      </trkpt>
      <trkpt lat="36.9238230" lon="-2.4285050">
        <ele>140.7</ele>
        <time>2020-02-16T09:10:03Z</time>
      </trkpt>
      <trkpt lat="36.9237990" lon="-2.4285340">
        <ele>140.7</ele>
        <time>2020-02-16T09:10:04Z</time>
      </trkpt>
      <trkpt lat="36.9237780" lon="-2.4285620">
        <ele>140.6</ele>
        <time>2020-02-16T09:10:05Z</time>
      </trkpt>
      <trkpt lat="36.9237580" lon="-2.4285890">
        <ele>140.5</ele>
        <time>2020-02-16T09:10:06Z</time>
      </trkpt>
      <trkpt lat="36.9237380" lon="-2.4286160">
        <ele>140.5</ele>
        <time>2020-02-16T09:10:07Z</time>
      </trkpt>
      <trkpt lat="36.9237160" lon="-2.4286450">
        <ele>140.3</ele>
        <time>2020-02-16T09:10:08Z</time>
      </trkpt>
      <trkpt lat="36.9236910" lon="-2.4286750">
        <ele>140.2</ele>
        <time>2020-02-16T09:10:09Z</time>
      </trkpt>
      <trkpt lat="36.9236690" lon="-2.4287000">
        <ele>140.1</ele>
        <time>2020-02-16T09:10:10Z</time>
      </trkpt>
      <trkpt lat="36.9236510" lon="-2.4287230">
        <ele>140.0</ele>
        <time>2020-02-16T09:10:11Z</time>
      </trkpt>
      <trkpt lat="36.9236280" lon="-2.4287520">
        <ele>139.9</ele>
        <time>2020-02-16T09:10:12Z</time>
      </trkpt>
      <trkpt lat="36.9236030" lon="-2.4287830">
        <ele>139.8</ele>
        <time>2020-02-16T09:10:13Z</time>
      </trkpt>
      <trkpt lat="36.9235810" lon="-2.4288100">
        <ele>139.6</ele>
        <time>2020-02-16T09:10:14Z</time>
      </trkpt>
      <trkpt lat="36.9235630" lon="-2.4288430">
        <ele>139.5</ele>
        <time>2020-02-16T09:10:15Z</time>
      </trkpt>
      <trkpt lat="36.9235410" lon="-2.4288730">
        <ele>139.5</ele>
        <time>2020-02-16T09:10:16Z</time>
      </trkpt>
      <trkpt lat="36.9235130" lon="-2.4288980">
        <ele>139.3</ele>
        <time>2020-02-16T09:10:17Z</time>
      </trkpt>
      <trkpt lat="36.9234940" lon="-2.4289210">
        <ele>139.3</ele>
        <time>2020-02-16T09:10:18Z</time>
      </trkpt>
      <trkpt lat="36.9234760" lon="-2.4289460">
        <ele>139.2</ele>
        <time>2020-02-16T09:10:19Z</time>
      </trkpt>
      <trkpt lat="36.9234590" lon="-2.4289800">
        <ele>139.0</ele>
        <time>2020-02-16T09:10:20Z</time>
      </trkpt>
      <trkpt lat="36.9234410" lon="-2.4290130">
        <ele>139.0</ele>
        <time>2020-02-16T09:10:21Z</time>
      </trkpt>
      <trkpt lat="36.9234250" lon="-2.4290400">
        <ele>139.0</ele>
        <time>2020-02-16T09:10:22Z</time>
      </trkpt>
      <trkpt lat="36.9234050" lon="-2.4290630">
        <ele>139.0</ele>
        <time>2020-02-16T09:10:23Z</time>
      </trkpt>
      <trkpt lat="36.9233790" lon="-2.4290800">
        <ele>139.0</ele>
        <time>2020-02-16T09:10:24Z</time>
      </trkpt>
      <trkpt lat="36.9233580" lon="-2.4291000">
        <ele>139.0</ele>
        <time>2020-02-16T09:10:25Z</time>
      </trkpt>
      <trkpt lat="36.9233380" lon="-2.4291210">
        <ele>139.4</ele>
        <time>2020-02-16T09:10:26Z</time>
      </trkpt>
      <trkpt lat="36.9233110" lon="-2.4291480">
        <ele>139.3</ele>
        <time>2020-02-16T09:10:27Z</time>
      </trkpt>
      <trkpt lat="36.9232880" lon="-2.4291760">
        <ele>139.7</ele>
        <time>2020-02-16T09:10:28Z</time>
      </trkpt>
      <trkpt lat="36.9232680" lon="-2.4292040">
        <ele>140.2</ele>
        <time>2020-02-16T09:10:29Z</time>
      </trkpt>
      <trkpt lat="36.9232510" lon="-2.4292400">
        <ele>140.1</ele>
        <time>2020-02-16T09:10:30Z</time>
      </trkpt>
      <trkpt lat="36.9232390" lon="-2.4292700">
        <ele>140.0</ele>
        <time>2020-02-16T09:10:31Z</time>
      </trkpt>
      <trkpt lat="36.9232310" lon="-2.4293010">
        <ele>140.7</ele>
        <time>2020-02-16T09:10:32Z</time>
      </trkpt>
      <trkpt lat="36.9232190" lon="-2.4293410">
        <ele>140.6</ele>
        <time>2020-02-16T09:10:33Z</time>
      </trkpt>
      <trkpt lat="36.9232110" lon="-2.4293780">
        <ele>140.5</ele>
        <time>2020-02-16T09:10:34Z</time>
      </trkpt>
      <trkpt lat="36.9232040" lon="-2.4294180">
        <ele>141.2</ele>
        <time>2020-02-16T09:10:35Z</time>
      </trkpt>
      <trkpt lat="36.9231940" lon="-2.4294600">
        <ele>141.2</ele>
        <time>2020-02-16T09:10:36Z</time>
      </trkpt>
      <trkpt lat="36.9231900" lon="-2.4294980">
        <ele>141.1</ele>
        <time>2020-02-16T09:10:37Z</time>
      </trkpt>
      <trkpt lat="36.9231840" lon="-2.4295380">
        <ele>141.1</ele>
        <time>2020-02-16T09:10:38Z</time>
      </trkpt>
      <trkpt lat="36.9231830" lon="-2.4295760">
        <ele>141.0</ele>
        <time>2020-02-16T09:10:39Z</time>
      </trkpt>
      <trkpt lat="36.9231860" lon="-2.4296150">
        <ele>141.0</ele>
        <time>2020-02-16T09:10:40Z</time>
      </trkpt>
      <trkpt lat="36.9232030" lon="-2.4296480">
        <ele>141.0</ele>
        <time>2020-02-16T09:10:41Z</time>
      </trkpt>
      <trkpt lat="36.9232110" lon="-2.4296780">
        <ele>140.3</ele>
        <time>2020-02-16T09:10:42Z</time>
      </trkpt>
      <trkpt lat="36.9232290" lon="-2.4297060">
        <ele>140.3</ele>
        <time>2020-02-16T09:10:43Z</time>
      </trkpt>
      <trkpt lat="36.9232410" lon="-2.4297380">
        <ele>139.8</ele>
        <time>2020-02-16T09:10:44Z</time>
      </trkpt>
      <trkpt lat="36.9232540" lon="-2.4297700">
        <ele>139.7</ele>
        <time>2020-02-16T09:10:45Z</time>
      </trkpt>
      <trkpt lat="36.9232660" lon="-2.4298050">
        <ele>139.7</ele>
        <time>2020-02-16T09:10:46Z</time>
      </trkpt>
      <trkpt lat="36.9232670" lon="-2.4298410">
        <ele>139.7</ele>
        <time>2020-02-16T09:10:47Z</time>
      </trkpt>
      <trkpt lat="36.9232700" lon="-2.4298810">
        <ele>139.6</ele>
        <time>2020-02-16T09:10:48Z</time>
      </trkpt>
      <trkpt lat="36.9232680" lon="-2.4299280">
        <ele>139.5</ele>
        <time>2020-02-16T09:10:49Z</time>
      </trkpt>
      <trkpt lat="36.9232690" lon="-2.4299680">
        <ele>139.4</ele>
        <time>2020-02-16T09:10:50Z</time>
      </trkpt>
      <trkpt lat="36.9232710" lon="-2.4300080">
        <ele>139.3</ele>
        <time>2020-02-16T09:10:51Z</time>
      </trkpt>
      <trkpt lat="36.9232730" lon="-2.4300530">
        <ele>139.2</ele>
        <time>2020-02-16T09:10:52Z</time>
      </trkpt>
      <trkpt lat="36.9232720" lon="-2.4300980">
        <ele>139.1</ele>
        <time>2020-02-16T09:10:53Z</time>
      </trkpt>
      <trkpt lat="36.9232730" lon="-2.4301410">
        <ele>139.0</ele>
        <time>2020-02-16T09:10:54Z</time>
      </trkpt>
      <trkpt lat="36.9232730" lon="-2.4301840">
        <ele>138.9</ele>
        <time>2020-02-16T09:10:55Z</time>
      </trkpt>
      <trkpt lat="36.9232750" lon="-2.4302230">
        <ele>138.5</ele>
        <time>2020-02-16T09:10:56Z</time>
      </trkpt>
      <trkpt lat="36.9232800" lon="-2.4302530">
        <ele>138.5</ele>
        <time>2020-02-16T09:10:57Z</time>
      </trkpt>
      <trkpt lat="36.9232880" lon="-2.4302880">
        <ele>138.4</ele>
        <time>2020-02-16T09:10:58Z</time>
      </trkpt>
      <trkpt lat="36.9232950" lon="-2.4303240">
        <ele>138.3</ele>
        <time>2020-02-16T09:10:59Z</time>
      </trkpt>
      <trkpt lat="36.9233070" lon="-2.4303510">
        <ele>138.2</ele>
        <time>2020-02-16T09:11:00Z</time>
      </trkpt>
      <trkpt lat="36.9233190" lon="-2.4303810">
        <ele>138.0</ele>
        <time>2020-02-16T09:11:01Z</time>
      </trkpt>
      <trkpt lat="36.9233690" lon="-2.4304040">
        <ele>137.8</ele>
        <time>2020-02-16T09:11:02Z</time>
      </trkpt>
      <trkpt lat="36.9233790" lon="-2.4304320">
        <ele>137.7</ele>
        <time>2020-02-16T09:11:03Z</time>
      </trkpt>
      <trkpt lat="36.9233880" lon="-2.4304640">
        <ele>137.7</ele>
        <time>2020-02-16T09:11:04Z</time>
      </trkpt>
      <trkpt lat="36.9234090" lon="-2.4305020">
        <ele>137.6</ele>
        <time>2020-02-16T09:11:05Z</time>
      </trkpt>
      <trkpt lat="36.9234110" lon="-2.4305340">
        <ele>137.5</ele>
        <time>2020-02-16T09:11:06Z</time>
      </trkpt>
      <trkpt lat="36.9234120" lon="-2.4305710">
        <ele>137.4</ele>
        <time>2020-02-16T09:11:07Z</time>
      </trkpt>
      <trkpt lat="36.9234160" lon="-2.4306090">
        <ele>137.3</ele>
        <time>2020-02-16T09:11:08Z</time>
      </trkpt>
      <trkpt lat="36.9234290" lon="-2.4306340">
        <ele>137.3</ele>
        <time>2020-02-16T09:11:09Z</time>
      </trkpt>
      <trkpt lat="36.9234500" lon="-2.4306690">
        <ele>137.2</ele>
        <time>2020-02-16T09:11:10Z</time>
      </trkpt>
      <trkpt lat="36.9234580" lon="-2.4307110">
        <ele>137.1</ele>
        <time>2020-02-16T09:11:11Z</time>
      </trkpt>
      <trkpt lat="36.9234650" lon="-2.4307430">
        <ele>137.1</ele>
        <time>2020-02-16T09:11:12Z</time>
      </trkpt>
      <trkpt lat="36.9234680" lon="-2.4307840">
        <ele>137.0</ele>
        <time>2020-02-16T09:11:13Z</time>
      </trkpt>
      <trkpt lat="36.9234680" lon="-2.4308310">
        <ele>136.9</ele>
        <time>2020-02-16T09:11:14Z</time>
      </trkpt>
      <trkpt lat="36.9234720" lon="-2.4308630">
        <ele>136.8</ele>
        <time>2020-02-16T09:11:15Z</time>
      </trkpt>
      <trkpt lat="36.9234770" lon="-2.4309010">
        <ele>136.7</ele>
        <time>2020-02-16T09:11:16Z</time>
      </trkpt>
      <trkpt lat="36.9234810" lon="-2.4309360">
        <ele>136.8</ele>
        <time>2020-02-16T09:11:17Z</time>
      </trkpt>
      <trkpt lat="36.9234840" lon="-2.4309730">
        <ele>136.7</ele>
        <time>2020-02-16T09:11:18Z</time>
      </trkpt>
      <trkpt lat="36.9234840" lon="-2.4310180">
        <ele>136.6</ele>
        <time>2020-02-16T09:11:19Z</time>
      </trkpt>
      <trkpt lat="36.9234810" lon="-2.4310660">
        <ele>136.5</ele>
        <time>2020-02-16T09:11:20Z</time>
      </trkpt>
      <trkpt lat="36.9234440" lon="-2.4311140">
        <ele>136.3</ele>
        <time>2020-02-16T09:11:21Z</time>
      </trkpt>
      <trkpt lat="36.9234340" lon="-2.4311580">
        <ele>136.2</ele>
        <time>2020-02-16T09:11:22Z</time>
      </trkpt>
      <trkpt lat="36.9234160" lon="-2.4311990">
        <ele>136.1</ele>
        <time>2020-02-16T09:11:23Z</time>
      </trkpt>
      <trkpt lat="36.9234170" lon="-2.4312380">
        <ele>136.1</ele>
        <time>2020-02-16T09:11:24Z</time>
      </trkpt>
      <trkpt lat="36.9234120" lon="-2.4312730">
        <ele>136.1</ele>
        <time>2020-02-16T09:11:25Z</time>
      </trkpt>
      <trkpt lat="36.9234030" lon="-2.4313130">
        <ele>136.1</ele>
        <time>2020-02-16T09:11:26Z</time>
      </trkpt>
      <trkpt lat="36.9233940" lon="-2.4313530">
        <ele>136.0</ele>
        <time>2020-02-16T09:11:27Z</time>
      </trkpt>
      <trkpt lat="36.9233800" lon="-2.4313930">
        <ele>135.9</ele>
        <time>2020-02-16T09:11:28Z</time>
      </trkpt>
      <trkpt lat="36.9233750" lon="-2.4314180">
        <ele>135.9</ele>
        <time>2020-02-16T09:11:29Z</time>
      </trkpt>
      <trkpt lat="36.9233660" lon="-2.4314560">
        <ele>135.9</ele>
        <time>2020-02-16T09:11:30Z</time>
      </trkpt>
      <trkpt lat="36.9233590" lon="-2.4314910">
        <ele>135.9</ele>
        <time>2020-02-16T09:11:31Z</time>
      </trkpt>
      <trkpt lat="36.9233460" lon="-2.4315390">
        <ele>135.8</ele>
        <time>2020-02-16T09:11:32Z</time>
      </trkpt>
      <trkpt lat="36.9233320" lon="-2.4315880">
        <ele>135.7</ele>
        <time>2020-02-16T09:11:33Z</time>
      </trkpt>
      <trkpt lat="36.9232990" lon="-2.4316340">
        <ele>135.8</ele>
        <time>2020-02-16T09:11:34Z</time>
      </trkpt>
      <trkpt lat="36.9232770" lon="-2.4316830">
        <ele>135.7</ele>
        <time>2020-02-16T09:11:35Z</time>
      </trkpt>
      <trkpt lat="36.9232660" lon="-2.4317230">
        <ele>135.9</ele>
        <time>2020-02-16T09:11:36Z</time>
      </trkpt>
      <trkpt lat="36.9232500" lon="-2.4317710">
        <ele>135.7</ele>
        <time>2020-02-16T09:11:37Z</time>
      </trkpt>
      <trkpt lat="36.9232510" lon="-2.4317990">
        <ele>135.6</ele>
        <time>2020-02-16T09:11:38Z</time>
      </trkpt>
      <trkpt lat="36.9232430" lon="-2.4318380">
        <ele>135.6</ele>
        <time>2020-02-16T09:11:39Z</time>
      </trkpt>
      <trkpt lat="36.9232370" lon="-2.4318780">
        <ele>135.9</ele>
        <time>2020-02-16T09:11:40Z</time>
      </trkpt>
      <trkpt lat="36.9232320" lon="-2.4319180">
        <ele>135.8</ele>
        <time>2020-02-16T09:11:41Z</time>
      </trkpt>
      <trkpt lat="36.9232240" lon="-2.4319590">
        <ele>135.7</ele>
        <time>2020-02-16T09:11:42Z</time>
      </trkpt>
      <trkpt lat="36.9232210" lon="-2.4319930">
        <ele>135.6</ele>
        <time>2020-02-16T09:11:43Z</time>
      </trkpt>
      <trkpt lat="36.9232190" lon="-2.4320310">
        <ele>135.4</ele>
        <time>2020-02-16T09:11:44Z</time>
      </trkpt>
      <trkpt lat="36.9232090" lon="-2.4320840">
        <ele>135.3</ele>
        <time>2020-02-16T09:11:45Z</time>
      </trkpt>
      <trkpt lat="36.9232060" lon="-2.4321210">
        <ele>135.1</ele>
        <time>2020-02-16T09:11:46Z</time>
      </trkpt>
      <trkpt lat="36.9232050" lon="-2.4321610">
        <ele>135.0</ele>
        <time>2020-02-16T09:11:47Z</time>
      </trkpt>
      <trkpt lat="36.9232020" lon="-2.4322110">
        <ele>135.3</ele>
        <time>2020-02-16T09:11:48Z</time>
      </trkpt>
      <trkpt lat="36.9232000" lon="-2.4322530">
        <ele>135.1</ele>
        <time>2020-02-16T09:11:49Z</time>
      </trkpt>
      <trkpt lat="36.9231980" lon="-2.4322980">
        <ele>134.9</ele>
        <time>2020-02-16T09:11:50Z</time>
      </trkpt>
      <trkpt lat="36.9231990" lon="-2.4323390">
        <ele>134.7</ele>
        <time>2020-02-16T09:11:51Z</time>
      </trkpt>
      <trkpt lat="36.9232000" lon="-2.4323840">
        <ele>134.6</ele>
        <time>2020-02-16T09:11:52Z</time>
      </trkpt>
      <trkpt lat="36.9232040" lon="-2.4324280">
        <ele>134.5</ele>
        <time>2020-02-16T09:11:53Z</time>
      </trkpt>
      <trkpt lat="36.9232070" lon="-2.4324660">
        <ele>134.0</ele>
        <time>2020-02-16T09:11:54Z</time>
      </trkpt>
      <trkpt lat="36.9232530" lon="-2.4324960">
        <ele>133.5</ele>
        <time>2020-02-16T09:11:55Z</time>
      </trkpt>
      <trkpt lat="36.9232780" lon="-2.4325240">
        <ele>133.2</ele>
        <time>2020-02-16T09:11:56Z</time>
      </trkpt>
      <trkpt lat="36.9233040" lon="-2.4325430">
        <ele>133.2</ele>
        <time>2020-02-16T09:11:57Z</time>
      </trkpt>
      <trkpt lat="36.9233340" lon="-2.4325770">
        <ele>133.0</ele>
        <time>2020-02-16T09:11:58Z</time>
      </trkpt>
      <trkpt lat="36.9233380" lon="-2.4326160">
        <ele>133.0</ele>
        <time>2020-02-16T09:11:59Z</time>
      </trkpt>
      <trkpt lat="36.9233460" lon="-2.4326540">
        <ele>132.8</ele>
        <time>2020-02-16T09:12:00Z</time>
      </trkpt>
      <trkpt lat="36.9233610" lon="-2.4326880">
        <ele>132.8</ele>
        <time>2020-02-16T09:12:01Z</time>
      </trkpt>
      <trkpt lat="36.9233750" lon="-2.4327230">
        <ele>132.8</ele>
        <time>2020-02-16T09:12:02Z</time>
      </trkpt>
      <trkpt lat="36.9233930" lon="-2.4327560">
        <ele>132.7</ele>
        <time>2020-02-16T09:12:03Z</time>
      </trkpt>
      <trkpt lat="36.9234090" lon="-2.4327910">
        <ele>132.6</ele>
        <time>2020-02-16T09:12:04Z</time>
      </trkpt>
      <trkpt lat="36.9234260" lon="-2.4328210">
        <ele>132.6</ele>
        <time>2020-02-16T09:12:05Z</time>
      </trkpt>
      <trkpt lat="36.9234420" lon="-2.4328490">
        <ele>132.5</ele>
        <time>2020-02-16T09:12:06Z</time>
      </trkpt>
      <trkpt lat="36.9234660" lon="-2.4328770">
        <ele>132.5</ele>
        <time>2020-02-16T09:12:07Z</time>
      </trkpt>
      <trkpt lat="36.9234880" lon="-2.4329070">
        <ele>132.4</ele>
        <time>2020-02-16T09:12:08Z</time>
      </trkpt>
      <trkpt lat="36.9235010" lon="-2.4329410">
        <ele>132.4</ele>
        <time>2020-02-16T09:12:09Z</time>
      </trkpt>
      <trkpt lat="36.9235290" lon="-2.4329670">
        <ele>132.3</ele>
        <time>2020-02-16T09:12:10Z</time>
      </trkpt>
      <trkpt lat="36.9235510" lon="-2.4329940">
        <ele>132.2</ele>
        <time>2020-02-16T09:12:11Z</time>
      </trkpt>
      <trkpt lat="36.9235530" lon="-2.4330410">
        <ele>132.1</ele>
        <time>2020-02-16T09:12:12Z</time>
      </trkpt>
      <trkpt lat="36.9235560" lon="-2.4330770">
        <ele>132.1</ele>
        <time>2020-02-16T09:12:13Z</time>
      </trkpt>
      <trkpt lat="36.9235680" lon="-2.4331220">
        <ele>132.0</ele>
        <time>2020-02-16T09:12:14Z</time>
      </trkpt>
      <trkpt lat="36.9235840" lon="-2.4331510">
        <ele>131.9</ele>
        <time>2020-02-16T09:12:15Z</time>
      </trkpt>
      <trkpt lat="36.9235980" lon="-2.4331840">
        <ele>131.8</ele>
        <time>2020-02-16T09:12:16Z</time>
      </trkpt>
      <trkpt lat="36.9236120" lon="-2.4332170">
        <ele>131.8</ele>
        <time>2020-02-16T09:12:17Z</time>
      </trkpt>
      <trkpt lat="36.9236290" lon="-2.4332510">
        <ele>131.7</ele>
        <time>2020-02-16T09:12:18Z</time>
      </trkpt>
      <trkpt lat="36.9236560" lon="-2.4332840">
        <ele>131.6</ele>
        <time>2020-02-16T09:12:19Z</time>
      </trkpt>
      <trkpt lat="36.9236880" lon="-2.4333120">
        <ele>131.5</ele>
        <time>2020-02-16T09:12:20Z</time>
      </trkpt>
      <trkpt lat="36.9237260" lon="-2.4333310">
        <ele>131.5</ele>
        <time>2020-02-16T09:12:21Z</time>
      </trkpt>
      <trkpt lat="36.9237490" lon="-2.4333620">
        <ele>131.4</ele>
        <time>2020-02-16T09:12:22Z</time>
      </trkpt>
      <trkpt lat="36.9237780" lon="-2.4333920">
        <ele>131.3</ele>
        <time>2020-02-16T09:12:23Z</time>
      </trkpt>
      <trkpt lat="36.9238010" lon="-2.4334180">
        <ele>131.4</ele>
        <time>2020-02-16T09:12:24Z</time>
      </trkpt>
      <trkpt lat="36.9238190" lon="-2.4334430">
        <ele>131.3</ele>
        <time>2020-02-16T09:12:25Z</time>
      </trkpt>
      <trkpt lat="36.9238360" lon="-2.4334680">
        <ele>131.4</ele>
        <time>2020-02-16T09:12:26Z</time>
      </trkpt>
      <trkpt lat="36.9238590" lon="-2.4335030">
        <ele>131.4</ele>
        <time>2020-02-16T09:12:27Z</time>
      </trkpt>
      <trkpt lat="36.9238710" lon="-2.4335260">
        <ele>131.2</ele>
        <time>2020-02-16T09:12:28Z</time>
      </trkpt>
      <trkpt lat="36.9238840" lon="-2.4335720">
        <ele>131.1</ele>
        <time>2020-02-16T09:12:29Z</time>
      </trkpt>
      <trkpt lat="36.9238980" lon="-2.4336070">
        <ele>131.0</ele>
        <time>2020-02-16T09:12:30Z</time>
      </trkpt>
      <trkpt lat="36.9239110" lon="-2.4336320">
        <ele>131.0</ele>
        <time>2020-02-16T09:12:31Z</time>
      </trkpt>
      <trkpt lat="36.9239380" lon="-2.4336700">
        <ele>130.8</ele>
        <time>2020-02-16T09:12:32Z</time>
      </trkpt>
      <trkpt lat="36.9239760" lon="-2.4336870">
        <ele>130.6</ele>
        <time>2020-02-16T09:12:33Z</time>
      </trkpt>
      <trkpt lat="36.9240040" lon="-2.4337140">
        <ele>130.7</ele>
        <time>2020-02-16T09:12:34Z</time>
      </trkpt>
      <trkpt lat="36.9240310" lon="-2.4337390">
        <ele>130.5</ele>
        <time>2020-02-16T09:12:35Z</time>
      </trkpt>
      <trkpt lat="36.9240490" lon="-2.4337650">
        <ele>130.5</ele>
        <time>2020-02-16T09:12:36Z</time>
      </trkpt>
      <trkpt lat="36.9240540" lon="-2.4337850">
        <ele>130.1</ele>
        <time>2020-02-16T09:12:37Z</time>
      </trkpt>
      <trkpt lat="36.9240710" lon="-2.4338170">
        <ele>129.8</ele>
        <time>2020-02-16T09:12:38Z</time>
      </trkpt>
      <trkpt lat="36.9240930" lon="-2.4338500">
        <ele>129.8</ele>
        <time>2020-02-16T09:12:39Z</time>
      </trkpt>
      <trkpt lat="36.9241180" lon="-2.4338780">
        <ele>129.6</ele>
        <time>2020-02-16T09:12:40Z</time>
      </trkpt>
      <trkpt lat="36.9241390" lon="-2.4339000">
        <ele>129.9</ele>
        <time>2020-02-16T09:12:41Z</time>
      </trkpt>
      <trkpt lat="36.9241490" lon="-2.4339160">
        <ele>129.4</ele>
        <time>2020-02-16T09:12:42Z</time>
      </trkpt>
      <trkpt lat="36.9241630" lon="-2.4339540">
        <ele>129.0</ele>
        <time>2020-02-16T09:12:43Z</time>
      </trkpt>
      <trkpt lat="36.9241880" lon="-2.4339810">
        <ele>129.4</ele>
        <time>2020-02-16T09:12:44Z</time>
      </trkpt>
      <trkpt lat="36.9242240" lon="-2.4340010">
        <ele>129.5</ele>
        <time>2020-02-16T09:12:45Z</time>
      </trkpt>
      <trkpt lat="36.9242660" lon="-2.4340140">
        <ele>130.1</ele>
        <time>2020-02-16T09:12:46Z</time>
      </trkpt>
      <trkpt lat="36.9243010" lon="-2.4340340">
        <ele>130.3</ele>
        <time>2020-02-16T09:12:47Z</time>
      </trkpt>
      <trkpt lat="36.9243340" lon="-2.4340540">
        <ele>131.0</ele>
        <time>2020-02-16T09:12:48Z</time>
      </trkpt>
      <trkpt lat="36.9243640" lon="-2.4340740">
        <ele>131.4</ele>
        <time>2020-02-16T09:12:49Z</time>
      </trkpt>
      <trkpt lat="36.9243890" lon="-2.4340970">
        <ele>132.1</ele>
        <time>2020-02-16T09:12:50Z</time>
      </trkpt>
      <trkpt lat="36.9244030" lon="-2.4341180">
        <ele>131.7</ele>
        <time>2020-02-16T09:12:51Z</time>
      </trkpt>
      <trkpt lat="36.9244190" lon="-2.4341430">
        <ele>132.4</ele>
        <time>2020-02-16T09:12:52Z</time>
      </trkpt>
      <trkpt lat="36.9244340" lon="-2.4341690">
        <ele>132.0</ele>
        <time>2020-02-16T09:12:53Z</time>
      </trkpt>
      <trkpt lat="36.9244460" lon="-2.4341950">
        <ele>132.7</ele>
        <time>2020-02-16T09:12:54Z</time>
      </trkpt>
      <trkpt lat="36.9244590" lon="-2.4342590">
        <ele>131.9</ele>
        <time>2020-02-16T09:12:55Z</time>
      </trkpt>
      <trkpt lat="36.9244710" lon="-2.4342910">
        <ele>131.5</ele>
        <time>2020-02-16T09:12:56Z</time>
      </trkpt>
      <trkpt lat="36.9244860" lon="-2.4343220">
        <ele>132.2</ele>
        <time>2020-02-16T09:12:57Z</time>
      </trkpt>
      <trkpt lat="36.9244920" lon="-2.4343520">
        <ele>131.8</ele>
        <time>2020-02-16T09:12:58Z</time>
      </trkpt>
      <trkpt lat="36.9245010" lon="-2.4343840">
        <ele>131.5</ele>
        <time>2020-02-16T09:12:59Z</time>
      </trkpt>
      <trkpt lat="36.9245180" lon="-2.4344170">
        <ele>131.8</ele>
        <time>2020-02-16T09:13:00Z</time>
      </trkpt>
      <trkpt lat="36.9245330" lon="-2.4344470">
        <ele>131.8</ele>
        <time>2020-02-16T09:13:01Z</time>
      </trkpt>
      <trkpt lat="36.9245610" lon="-2.4344690">
        <ele>132.1</ele>
        <time>2020-02-16T09:13:02Z</time>
      </trkpt>
      <trkpt lat="36.9245820" lon="-2.4344960">
        <ele>132.8</ele>
        <time>2020-02-16T09:13:03Z</time>
      </trkpt>
      <trkpt lat="36.9245910" lon="-2.4345310">
        <ele>132.3</ele>
        <time>2020-02-16T09:13:04Z</time>
      </trkpt>
      <trkpt lat="36.9246070" lon="-2.4345620">
        <ele>131.8</ele>
        <time>2020-02-16T09:13:05Z</time>
      </trkpt>
      <trkpt lat="36.9246170" lon="-2.4345990">
        <ele>131.9</ele>
        <time>2020-02-16T09:13:06Z</time>
      </trkpt>
      <trkpt lat="36.9246290" lon="-2.4346300">
        <ele>131.9</ele>
        <time>2020-02-16T09:13:07Z</time>
      </trkpt>
      <trkpt lat="36.9246370" lon="-2.4346650">
        <ele>131.4</ele>
        <time>2020-02-16T09:13:08Z</time>
      </trkpt>
      <trkpt lat="36.9246480" lon="-2.4346940">
        <ele>131.4</ele>
        <time>2020-02-16T09:13:09Z</time>
      </trkpt>
      <trkpt lat="36.9246570" lon="-2.4347190">
        <ele>130.9</ele>
        <time>2020-02-16T09:13:10Z</time>
      </trkpt>
      <trkpt lat="36.9246680" lon="-2.4347600">
        <ele>130.4</ele>
        <time>2020-02-16T09:13:11Z</time>
      </trkpt>
      <trkpt lat="36.9246780" lon="-2.4347920">
        <ele>130.4</ele>
        <time>2020-02-16T09:13:12Z</time>
      </trkpt>
      <trkpt lat="36.9246830" lon="-2.4348240">
        <ele>130.5</ele>
        <time>2020-02-16T09:13:13Z</time>
      </trkpt>
      <trkpt lat="36.9246900" lon="-2.4348550">
        <ele>130.0</ele>
        <time>2020-02-16T09:13:14Z</time>
      </trkpt>
      <trkpt lat="36.9247000" lon="-2.4348770">
        <ele>130.0</ele>
        <time>2020-02-16T09:13:15Z</time>
      </trkpt>
      <trkpt lat="36.9247130" lon="-2.4349090">
        <ele>129.5</ele>
        <time>2020-02-16T09:13:16Z</time>
      </trkpt>
      <trkpt lat="36.9247250" lon="-2.4349340">
        <ele>129.5</ele>
        <time>2020-02-16T09:13:17Z</time>
      </trkpt>
      <trkpt lat="36.9247390" lon="-2.4349620">
        <ele>129.5</ele>
        <time>2020-02-16T09:13:18Z</time>
      </trkpt>
      <trkpt lat="36.9247720" lon="-2.4351320">
        <ele>127.8</ele>
        <time>2020-02-16T09:13:23Z</time>
      </trkpt>
      <trkpt lat="36.9247800" lon="-2.4351690">
        <ele>127.3</ele>
        <time>2020-02-16T09:13:24Z</time>
      </trkpt>
      <trkpt lat="36.9247880" lon="-2.4352140">
        <ele>127.3</ele>
        <time>2020-02-16T09:13:25Z</time>
      </trkpt>
      <trkpt lat="36.9247420" lon="-2.4354770">
        <ele>124.1</ele>
        <time>2020-02-16T09:13:31Z</time>
      </trkpt>
      <trkpt lat="36.9247420" lon="-2.4355270">
        <ele>123.8</ele>
        <time>2020-02-16T09:13:32Z</time>
      </trkpt>
      <trkpt lat="36.9247420" lon="-2.4355690">
        <ele>123.5</ele>
        <time>2020-02-16T09:13:33Z</time>
      </trkpt>
      <trkpt lat="36.9247430" lon="-2.4355990">
        <ele>123.3</ele>
        <time>2020-02-16T09:13:34Z</time>
      </trkpt>
      <trkpt lat="36.9247400" lon="-2.4356290">
        <ele>123.1</ele>
        <time>2020-02-16T09:13:35Z</time>
      </trkpt>
      <trkpt lat="36.9247270" lon="-2.4356720">
        <ele>123.0</ele>
        <time>2020-02-16T09:13:36Z</time>
      </trkpt>
      <trkpt lat="36.9246960" lon="-2.4357100">
        <ele>122.7</ele>
        <time>2020-02-16T09:13:37Z</time>
      </trkpt>
      <trkpt lat="36.9246660" lon="-2.4357500">
        <ele>122.5</ele>
        <time>2020-02-16T09:13:38Z</time>
      </trkpt>
      <trkpt lat="36.9246390" lon="-2.4357850">
        <ele>122.3</ele>
        <time>2020-02-16T09:13:39Z</time>
      </trkpt>
      <trkpt lat="36.9246190" lon="-2.4358240">
        <ele>122.3</ele>
        <time>2020-02-16T09:13:40Z</time>
      </trkpt>
      <trkpt lat="36.9246060" lon="-2.4358470">
        <ele>122.2</ele>
        <time>2020-02-16T09:13:41Z</time>
      </trkpt>
      <trkpt lat="36.9245900" lon="-2.4358750">
        <ele>122.3</ele>
        <time>2020-02-16T09:13:42Z</time>
      </trkpt>
      <trkpt lat="36.9245740" lon="-2.4358990">
        <ele>122.2</ele>
        <time>2020-02-16T09:13:43Z</time>
      </trkpt>
      <trkpt lat="36.9245570" lon="-2.4359220">
        <ele>122.3</ele>
        <time>2020-02-16T09:13:44Z</time>
      </trkpt>
      <trkpt lat="36.9245360" lon="-2.4359540">
        <ele>122.3</ele>
        <time>2020-02-16T09:13:45Z</time>
      </trkpt>
      <trkpt lat="36.9245170" lon="-2.4359850">
        <ele>122.2</ele>
        <time>2020-02-16T09:13:46Z</time>
      </trkpt>
      <trkpt lat="36.9245020" lon="-2.4360100">
        <ele>122.2</ele>
        <time>2020-02-16T09:13:47Z</time>
      </trkpt>
      <trkpt lat="36.9244840" lon="-2.4360370">
        <ele>122.2</ele>
        <time>2020-02-16T09:13:48Z</time>
      </trkpt>
      <trkpt lat="36.9244700" lon="-2.4360600">
        <ele>122.2</ele>
        <time>2020-02-16T09:13:49Z</time>
      </trkpt>
      <trkpt lat="36.9244550" lon="-2.4360850">
        <ele>122.2</ele>
        <time>2020-02-16T09:13:50Z</time>
      </trkpt>
      <trkpt lat="36.9244400" lon="-2.4361120">
        <ele>122.1</ele>
        <time>2020-02-16T09:13:51Z</time>
      </trkpt>
      <trkpt lat="36.9244210" lon="-2.4361440">
        <ele>122.1</ele>
        <time>2020-02-16T09:13:52Z</time>
      </trkpt>
      <trkpt lat="36.9243970" lon="-2.4361820">
        <ele>121.9</ele>
        <time>2020-02-16T09:13:53Z</time>
      </trkpt>
      <trkpt lat="36.9243730" lon="-2.4362200">
        <ele>121.8</ele>
        <time>2020-02-16T09:13:54Z</time>
      </trkpt>
      <trkpt lat="36.9243530" lon="-2.4362540">
        <ele>121.8</ele>
        <time>2020-02-16T09:13:55Z</time>
      </trkpt>
      <trkpt lat="36.9243340" lon="-2.4362820">
        <ele>121.7</ele>
        <time>2020-02-16T09:13:56Z</time>
      </trkpt>
      <trkpt lat="36.9243120" lon="-2.4363170">
        <ele>121.6</ele>
        <time>2020-02-16T09:13:57Z</time>
      </trkpt>
      <trkpt lat="36.9242960" lon="-2.4363450">
        <ele>121.5</ele>
        <time>2020-02-16T09:13:58Z</time>
      </trkpt>
      <trkpt lat="36.9242760" lon="-2.4363840">
        <ele>121.5</ele>
        <time>2020-02-16T09:13:59Z</time>
      </trkpt>
      <trkpt lat="36.9242570" lon="-2.4364150">
        <ele>121.4</ele>
        <time>2020-02-16T09:14:00Z</time>
      </trkpt>
      <trkpt lat="36.9242380" lon="-2.4364370">
        <ele>121.4</ele>
        <time>2020-02-16T09:14:01Z</time>
      </trkpt>
      <trkpt lat="36.9242110" lon="-2.4364680">
        <ele>121.4</ele>
        <time>2020-02-16T09:14:02Z</time>
      </trkpt>
      <trkpt lat="36.9241930" lon="-2.4364950">
        <ele>121.4</ele>
        <time>2020-02-16T09:14:03Z</time>
      </trkpt>
      <trkpt lat="36.9241580" lon="-2.4365330">
        <ele>121.4</ele>
        <time>2020-02-16T09:14:04Z</time>
      </trkpt>
      <trkpt lat="36.9241260" lon="-2.4365600">
        <ele>121.4</ele>
        <time>2020-02-16T09:14:05Z</time>
      </trkpt>
      <trkpt lat="36.9241010" lon="-2.4365810">
        <ele>121.3</ele>
        <time>2020-02-16T09:14:06Z</time>
      </trkpt>
      <trkpt lat="36.9240810" lon="-2.4366020">
        <ele>121.3</ele>
        <time>2020-02-16T09:14:07Z</time>
      </trkpt>
      <trkpt lat="36.9240560" lon="-2.4366270">
        <ele>121.3</ele>
        <time>2020-02-16T09:14:08Z</time>
      </trkpt>
      <trkpt lat="36.9240310" lon="-2.4366530">
        <ele>121.2</ele>
        <time>2020-02-16T09:14:09Z</time>
      </trkpt>
      <trkpt lat="36.9240040" lon="-2.4366810">
        <ele>121.2</ele>
        <time>2020-02-16T09:14:10Z</time>
      </trkpt>
      <trkpt lat="36.9239740" lon="-2.4367090">
        <ele>121.1</ele>
        <time>2020-02-16T09:14:11Z</time>
      </trkpt>
      <trkpt lat="36.9239440" lon="-2.4367350">
        <ele>121.0</ele>
        <time>2020-02-16T09:14:12Z</time>
      </trkpt>
      <trkpt lat="36.9239130" lon="-2.4367400">
        <ele>120.9</ele>
        <time>2020-02-16T09:14:13Z</time>
      </trkpt>
      <trkpt lat="36.9238810" lon="-2.4367540">
        <ele>120.9</ele>
        <time>2020-02-16T09:14:14Z</time>
      </trkpt>
      <trkpt lat="36.9238510" lon="-2.4367650">
        <ele>120.8</ele>
        <time>2020-02-16T09:14:15Z</time>
      </trkpt>
      <trkpt lat="36.9238160" lon="-2.4367810">
        <ele>120.7</ele>
        <time>2020-02-16T09:14:16Z</time>
      </trkpt>
      <trkpt lat="36.9237860" lon="-2.4367960">
        <ele>120.7</ele>
        <time>2020-02-16T09:14:17Z</time>
      </trkpt>
      <trkpt lat="36.9237630" lon="-2.4368070">
        <ele>120.7</ele>
        <time>2020-02-16T09:14:18Z</time>
      </trkpt>
      <trkpt lat="36.9237260" lon="-2.4368270">
        <ele>120.7</ele>
        <time>2020-02-16T09:14:19Z</time>
      </trkpt>
      <trkpt lat="36.9236980" lon="-2.4368430">
        <ele>120.7</ele>
        <time>2020-02-16T09:14:20Z</time>
      </trkpt>
      <trkpt lat="36.9236690" lon="-2.4368600">
        <ele>120.7</ele>
        <time>2020-02-16T09:14:21Z</time>
      </trkpt>
      <trkpt lat="36.9236440" lon="-2.4368760">
        <ele>120.8</ele>
        <time>2020-02-16T09:14:22Z</time>
      </trkpt>
      <trkpt lat="36.9236140" lon="-2.4368940">
        <ele>120.9</ele>
        <time>2020-02-16T09:14:23Z</time>
      </trkpt>
      <trkpt lat="36.9235880" lon="-2.4369110">
        <ele>121.0</ele>
        <time>2020-02-16T09:14:24Z</time>
      </trkpt>
      <trkpt lat="36.9235610" lon="-2.4369270">
        <ele>121.1</ele>
        <time>2020-02-16T09:14:25Z</time>
      </trkpt>
      <trkpt lat="36.9235330" lon="-2.4369460">
        <ele>121.2</ele>
        <time>2020-02-16T09:14:26Z</time>
      </trkpt>
      <trkpt lat="36.9235060" lon="-2.4369650">
        <ele>121.2</ele>
        <time>2020-02-16T09:14:27Z</time>
      </trkpt>
      <trkpt lat="36.9234860" lon="-2.4369790">
        <ele>121.3</ele>
        <time>2020-02-16T09:14:28Z</time>
      </trkpt>
      <trkpt lat="36.9234590" lon="-2.4369980">
        <ele>121.3</ele>
        <time>2020-02-16T09:14:29Z</time>
      </trkpt>
      <trkpt lat="36.9234390" lon="-2.4370160">
        <ele>121.3</ele>
        <time>2020-02-16T09:14:30Z</time>
      </trkpt>
      <trkpt lat="36.9234160" lon="-2.4370360">
        <ele>121.3</ele>
        <time>2020-02-16T09:14:31Z</time>
      </trkpt>
      <trkpt lat="36.9233910" lon="-2.4370590">
        <ele>121.3</ele>
        <time>2020-02-16T09:14:32Z</time>
      </trkpt>
      <trkpt lat="36.9233630" lon="-2.4370840">
        <ele>121.3</ele>
        <time>2020-02-16T09:14:33Z</time>
      </trkpt>
      <trkpt lat="36.9233410" lon="-2.4371070">
        <ele>121.2</ele>
        <time>2020-02-16T09:14:34Z</time>
      </trkpt>
      <trkpt lat="36.9233230" lon="-2.4371280">
        <ele>121.1</ele>
        <time>2020-02-16T09:14:35Z</time>
      </trkpt>
      <trkpt lat="36.9232980" lon="-2.4371550">
        <ele>121.1</ele>
        <time>2020-02-16T09:14:36Z</time>
      </trkpt>
      <trkpt lat="36.9232730" lon="-2.4371810">
        <ele>121.0</ele>
        <time>2020-02-16T09:14:37Z</time>
      </trkpt>
      <trkpt lat="36.9232530" lon="-2.4372050">
        <ele>120.9</ele>
        <time>2020-02-16T09:14:38Z</time>
      </trkpt>
      <trkpt lat="36.9232330" lon="-2.4372290">
        <ele>120.8</ele>
        <time>2020-02-16T09:14:39Z</time>
      </trkpt>
      <trkpt lat="36.9232080" lon="-2.4372560">
        <ele>120.8</ele>
        <time>2020-02-16T09:14:40Z</time>
      </trkpt>
      <trkpt lat="36.9231840" lon="-2.4372840">
        <ele>120.7</ele>
        <time>2020-02-16T09:14:41Z</time>
      </trkpt>
      <trkpt lat="36.9231690" lon="-2.4373730">
        <ele>120.6</ele>
        <time>2020-02-16T09:14:42Z</time>
      </trkpt>
      <trkpt lat="36.9231560" lon="-2.4374020">
        <ele>120.6</ele>
        <time>2020-02-16T09:14:43Z</time>
      </trkpt>
      <trkpt lat="36.9231400" lon="-2.4374280">
        <ele>120.6</ele>
        <time>2020-02-16T09:14:44Z</time>
      </trkpt>
      <trkpt lat="36.9231230" lon="-2.4374600">
        <ele>120.5</ele>
        <time>2020-02-16T09:14:45Z</time>
      </trkpt>
      <trkpt lat="36.9231050" lon="-2.4374930">
        <ele>120.5</ele>
        <time>2020-02-16T09:14:46Z</time>
      </trkpt>
      <trkpt lat="36.9230880" lon="-2.4375300">
        <ele>120.4</ele>
        <time>2020-02-16T09:14:47Z</time>
      </trkpt>
      <trkpt lat="36.9230720" lon="-2.4375680">
        <ele>120.4</ele>
        <time>2020-02-16T09:14:48Z</time>
      </trkpt>
      <trkpt lat="36.9230570" lon="-2.4376020">
        <ele>120.3</ele>
        <time>2020-02-16T09:14:49Z</time>
      </trkpt>
      <trkpt lat="36.9230420" lon="-2.4376320">
        <ele>120.2</ele>
        <time>2020-02-16T09:14:50Z</time>
      </trkpt>
      <trkpt lat="36.9230260" lon="-2.4376620">
        <ele>120.2</ele>
        <time>2020-02-16T09:14:51Z</time>
      </trkpt>
      <trkpt lat="36.9230080" lon="-2.4376950">
        <ele>120.1</ele>
        <time>2020-02-16T09:14:52Z</time>
      </trkpt>
      <trkpt lat="36.9229890" lon="-2.4377280">
        <ele>120.0</ele>
        <time>2020-02-16T09:14:53Z</time>
      </trkpt>
      <trkpt lat="36.9229710" lon="-2.4377600">
        <ele>119.9</ele>
        <time>2020-02-16T09:14:54Z</time>
      </trkpt>
      <trkpt lat="36.9229530" lon="-2.4377920">
        <ele>119.9</ele>
        <time>2020-02-16T09:14:55Z</time>
      </trkpt>
      <trkpt lat="36.9229360" lon="-2.4378220">
        <ele>119.8</ele>
        <time>2020-02-16T09:14:56Z</time>
      </trkpt>
      <trkpt lat="36.9229210" lon="-2.4378480">
        <ele>119.8</ele>
        <time>2020-02-16T09:14:57Z</time>
      </trkpt>
      <trkpt lat="36.9229030" lon="-2.4378800">
        <ele>119.7</ele>
        <time>2020-02-16T09:14:58Z</time>
      </trkpt>
      <trkpt lat="36.9228860" lon="-2.4379100">
        <ele>119.7</ele>
        <time>2020-02-16T09:14:59Z</time>
      </trkpt>
      <trkpt lat="36.9228680" lon="-2.4379400">
        <ele>119.7</ele>
        <time>2020-02-16T09:15:00Z</time>
      </trkpt>
      <trkpt lat="36.9228380" lon="-2.4379620">
        <ele>119.7</ele>
        <time>2020-02-16T09:15:01Z</time>
      </trkpt>
      <trkpt lat="36.9228080" lon="-2.4379780">
        <ele>119.7</ele>
        <time>2020-02-16T09:15:02Z</time>
      </trkpt>
      <trkpt lat="36.9227760" lon="-2.4379930">
        <ele>119.7</ele>
        <time>2020-02-16T09:15:03Z</time>
      </trkpt>
      <trkpt lat="36.9227500" lon="-2.4380130">
        <ele>119.7</ele>
        <time>2020-02-16T09:15:04Z</time>
      </trkpt>
      <trkpt lat="36.9227230" lon="-2.4380300">
        <ele>119.6</ele>
        <time>2020-02-16T09:15:05Z</time>
      </trkpt>
      <trkpt lat="36.9226950" lon="-2.4380500">
        <ele>119.6</ele>
        <time>2020-02-16T09:15:06Z</time>
      </trkpt>
      <trkpt lat="36.9226650" lon="-2.4380670">
        <ele>119.6</ele>
        <time>2020-02-16T09:15:07Z</time>
      </trkpt>
      <trkpt lat="36.9226330" lon="-2.4380830">
        <ele>119.5</ele>
        <time>2020-02-16T09:15:08Z</time>
      </trkpt>
      <trkpt lat="36.9226060" lon="-2.4380980">
        <ele>119.5</ele>
        <time>2020-02-16T09:15:09Z</time>
      </trkpt>
      <trkpt lat="36.9225780" lon="-2.4381130">
        <ele>119.4</ele>
        <time>2020-02-16T09:15:10Z</time>
      </trkpt>
      <trkpt lat="36.9225500" lon="-2.4381290">
        <ele>119.4</ele>
        <time>2020-02-16T09:15:11Z</time>
      </trkpt>
      <trkpt lat="36.9225210" lon="-2.4381460">
        <ele>119.3</ele>
        <time>2020-02-16T09:15:12Z</time>
      </trkpt>
      <trkpt lat="36.9225000" lon="-2.4381620">
        <ele>119.2</ele>
        <time>2020-02-16T09:15:13Z</time>
      </trkpt>
      <trkpt lat="36.9224750" lon="-2.4381810">
        <ele>119.1</ele>
        <time>2020-02-16T09:15:14Z</time>
      </trkpt>
      <trkpt lat="36.9224510" lon="-2.4382010">
        <ele>119.0</ele>
        <time>2020-02-16T09:15:15Z</time>
      </trkpt>
      <trkpt lat="36.9224250" lon="-2.4382230">
        <ele>118.9</ele>
        <time>2020-02-16T09:15:16Z</time>
      </trkpt>
      <trkpt lat="36.9223980" lon="-2.4382440">
        <ele>118.9</ele>
        <time>2020-02-16T09:15:17Z</time>
      </trkpt>
      <trkpt lat="36.9223710" lon="-2.4382650">
        <ele>118.8</ele>
        <time>2020-02-16T09:15:18Z</time>
      </trkpt>
      <trkpt lat="36.9223450" lon="-2.4382860">
        <ele>118.7</ele>
        <time>2020-02-16T09:15:19Z</time>
      </trkpt>
      <trkpt lat="36.9223200" lon="-2.4383070">
        <ele>118.6</ele>
        <time>2020-02-16T09:15:20Z</time>
      </trkpt>
      <trkpt lat="36.9222930" lon="-2.4383270">
        <ele>118.6</ele>
        <time>2020-02-16T09:15:21Z</time>
      </trkpt>
      <trkpt lat="36.9222700" lon="-2.4383450">
        <ele>118.5</ele>
        <time>2020-02-16T09:15:22Z</time>
      </trkpt>
      <trkpt lat="36.9222430" lon="-2.4383660">
        <ele>118.4</ele>
        <time>2020-02-16T09:15:23Z</time>
      </trkpt>
      <trkpt lat="36.9222180" lon="-2.4383850">
        <ele>118.3</ele>
        <time>2020-02-16T09:15:24Z</time>
      </trkpt>
      <trkpt lat="36.9222010" lon="-2.4383990">
        <ele>118.3</ele>
        <time>2020-02-16T09:15:25Z</time>
      </trkpt>
      <trkpt lat="36.9221760" lon="-2.4384210">
        <ele>118.2</ele>
        <time>2020-02-16T09:15:26Z</time>
      </trkpt>
      <trkpt lat="36.9221530" lon="-2.4384420">
        <ele>118.1</ele>
        <time>2020-02-16T09:15:27Z</time>
      </trkpt>
      <trkpt lat="36.9221300" lon="-2.4384630">
        <ele>118.0</ele>
        <time>2020-02-16T09:15:28Z</time>
      </trkpt>
      <trkpt lat="36.9221100" lon="-2.4384820">
        <ele>118.0</ele>
        <time>2020-02-16T09:15:29Z</time>
      </trkpt>
      <trkpt lat="36.9220930" lon="-2.4385000">
        <ele>117.9</ele>
        <time>2020-02-16T09:15:30Z</time>
      </trkpt>
      <trkpt lat="36.9220780" lon="-2.4385210">
        <ele>117.9</ele>
        <time>2020-02-16T09:15:31Z</time>
      </trkpt>
      <trkpt lat="36.9220730" lon="-2.4385280">
        <ele>117.9</ele>
        <time>2020-02-16T09:15:31Z</time>
      </trkpt>
      <trkpt lat="36.9220700" lon="-2.4386050">
        <ele>117.6</ele>
        <time>2020-02-16T09:15:32Z</time>
      </trkpt>
      <trkpt lat="36.9220640" lon="-2.4386260">
        <ele>117.6</ele>
        <time>2020-02-16T09:15:33Z</time>
      </trkpt>
      <trkpt lat="36.9220650" lon="-2.4386460">
        <ele>117.6</ele>
        <time>2020-02-16T09:15:34Z</time>
      </trkpt>
      <trkpt lat="36.9220650" lon="-2.4386550">
        <ele>117.5</ele>
        <time>2020-02-16T09:15:35Z</time>
      </trkpt>
      <trkpt lat="36.9220610" lon="-2.4386660">
        <ele>117.5</ele>
        <time>2020-02-16T09:15:36Z</time>
      </trkpt>
      <trkpt lat="36.9220560" lon="-2.4386760">
        <ele>117.5</ele>
        <time>2020-02-16T09:15:37Z</time>
      </trkpt>
      <trkpt lat="36.9220500" lon="-2.4386880">
        <ele>117.5</ele>
        <time>2020-02-16T09:15:38Z</time>
      </trkpt>
      <trkpt lat="36.9220400" lon="-2.4386980">
        <ele>117.5</ele>
        <time>2020-02-16T09:15:39Z</time>
      </trkpt>
      <trkpt lat="36.9220350" lon="-2.4387120">
        <ele>117.4</ele>
        <time>2020-02-16T09:15:40Z</time>
      </trkpt>
      <trkpt lat="36.9220260" lon="-2.4387280">
        <ele>117.4</ele>
        <time>2020-02-16T09:15:41Z</time>
      </trkpt>
      <trkpt lat="36.9220180" lon="-2.4387400">
        <ele>117.4</ele>
        <time>2020-02-16T09:15:42Z</time>
      </trkpt>
      <trkpt lat="36.9220000" lon="-2.4387510">
        <ele>117.4</ele>
        <time>2020-02-16T09:15:43Z</time>
      </trkpt>
      <trkpt lat="36.9219830" lon="-2.4387630">
        <ele>117.3</ele>
        <time>2020-02-16T09:15:44Z</time>
      </trkpt>
      <trkpt lat="36.9219680" lon="-2.4387780">
        <ele>117.2</ele>
        <time>2020-02-16T09:15:45Z</time>
      </trkpt>
      <trkpt lat="36.9219530" lon="-2.4387980">
        <ele>117.3</ele>
        <time>2020-02-16T09:15:46Z</time>
      </trkpt>
      <trkpt lat="36.9219350" lon="-2.4388230">
        <ele>117.2</ele>
        <time>2020-02-16T09:15:47Z</time>
      </trkpt>
      <trkpt lat="36.9219150" lon="-2.4388510">
        <ele>117.3</ele>
        <time>2020-02-16T09:15:48Z</time>
      </trkpt>
      <trkpt lat="36.9218900" lon="-2.4388810">
        <ele>117.2</ele>
        <time>2020-02-16T09:15:49Z</time>
      </trkpt>
      <trkpt lat="36.9218660" lon="-2.4389050">
        <ele>117.1</ele>
        <time>2020-02-16T09:15:50Z</time>
      </trkpt>
      <trkpt lat="36.9218360" lon="-2.4389340">
        <ele>117.2</ele>
        <time>2020-02-16T09:15:51Z</time>
      </trkpt>
      <trkpt lat="36.9217980" lon="-2.4389650">
        <ele>117.2</ele>
        <time>2020-02-16T09:15:52Z</time>
      </trkpt>
      <trkpt lat="36.9217750" lon="-2.4389820">
        <ele>117.0</ele>
        <time>2020-02-16T09:15:53Z</time>
      </trkpt>
      <trkpt lat="36.9217500" lon="-2.4389970">
        <ele>116.9</ele>
        <time>2020-02-16T09:15:54Z</time>
      </trkpt>
      <trkpt lat="36.9217200" lon="-2.4390140">
        <ele>116.8</ele>
        <time>2020-02-16T09:15:55Z</time>
      </trkpt>
      <trkpt lat="36.9216910" lon="-2.4390270">
        <ele>116.7</ele>
        <time>2020-02-16T09:15:56Z</time>
      </trkpt>
      <trkpt lat="36.9216680" lon="-2.4390360">
        <ele>116.7</ele>
        <time>2020-02-16T09:15:57Z</time>
      </trkpt>
      <trkpt lat="36.9216310" lon="-2.4390530">
        <ele>116.6</ele>
        <time>2020-02-16T09:15:58Z</time>
      </trkpt>
      <trkpt lat="36.9216010" lon="-2.4390610">
        <ele>116.5</ele>
        <time>2020-02-16T09:15:59Z</time>
      </trkpt>
      <trkpt lat="36.9215750" lon="-2.4390650">
        <ele>116.4</ele>
        <time>2020-02-16T09:16:00Z</time>
      </trkpt>
      <trkpt lat="36.9215410" lon="-2.4390720">
        <ele>116.3</ele>
        <time>2020-02-16T09:16:01Z</time>
      </trkpt>
      <trkpt lat="36.9215110" lon="-2.4390750">
        <ele>116.2</ele>
        <time>2020-02-16T09:16:02Z</time>
      </trkpt>
      <trkpt lat="36.9214860" lon="-2.4390750">
        <ele>116.1</ele>
        <time>2020-02-16T09:16:03Z</time>
      </trkpt>
      <trkpt lat="36.9214560" lon="-2.4390790">
        <ele>116.1</ele>
        <time>2020-02-16T09:16:04Z</time>
      </trkpt>
      <trkpt lat="36.9214310" lon="-2.4390800">
        <ele>116.0</ele>
        <time>2020-02-16T09:16:05Z</time>
      </trkpt>
      <trkpt lat="36.9213910" lon="-2.4390890">
        <ele>115.9</ele>
        <time>2020-02-16T09:16:06Z</time>
      </trkpt>
      <trkpt lat="36.9213580" lon="-2.4390920">
        <ele>115.9</ele>
        <time>2020-02-16T09:16:07Z</time>
      </trkpt>
      <trkpt lat="36.9213230" lon="-2.4390980">
        <ele>115.8</ele>
        <time>2020-02-16T09:16:08Z</time>
      </trkpt>
      <trkpt lat="36.9212860" lon="-2.4391030">
        <ele>115.7</ele>
        <time>2020-02-16T09:16:09Z</time>
      </trkpt>
      <trkpt lat="36.9212610" lon="-2.4391050">
        <ele>115.6</ele>
        <time>2020-02-16T09:16:10Z</time>
      </trkpt>
      <trkpt lat="36.9212230" lon="-2.4391110">
        <ele>115.6</ele>
        <time>2020-02-16T09:16:11Z</time>
      </trkpt>
      <trkpt lat="36.9211860" lon="-2.4391180">
        <ele>115.5</ele>
        <time>2020-02-16T09:16:12Z</time>
      </trkpt>
      <trkpt lat="36.9211510" lon="-2.4391240">
        <ele>115.4</ele>
        <time>2020-02-16T09:16:13Z</time>
      </trkpt>
      <trkpt lat="36.9211130" lon="-2.4391310">
        <ele>115.4</ele>
        <time>2020-02-16T09:16:14Z</time>
      </trkpt>
      <trkpt lat="36.9210750" lon="-2.4391390">
        <ele>115.2</ele>
        <time>2020-02-16T09:16:15Z</time>
      </trkpt>
      <trkpt lat="36.9210360" lon="-2.4391470">
        <ele>115.1</ele>
        <time>2020-02-16T09:16:16Z</time>
      </trkpt>
      <trkpt lat="36.9210000" lon="-2.4391560">
        <ele>115.1</ele>
        <time>2020-02-16T09:16:17Z</time>
      </trkpt>
      <trkpt lat="36.9209730" lon="-2.4391630">
        <ele>115.0</ele>
        <time>2020-02-16T09:16:18Z</time>
      </trkpt>
      <trkpt lat="36.9209430" lon="-2.4391700">
        <ele>115.0</ele>
        <time>2020-02-16T09:16:19Z</time>
      </trkpt>
      <trkpt lat="36.9209120" lon="-2.4391810">
        <ele>114.9</ele>
        <time>2020-02-16T09:16:20Z</time>
      </trkpt>
      <trkpt lat="36.9208700" lon="-2.4391950">
        <ele>114.8</ele>
        <time>2020-02-16T09:16:21Z</time>
      </trkpt>
      <trkpt lat="36.9208380" lon="-2.4392060">
        <ele>114.8</ele>
        <time>2020-02-16T09:16:22Z</time>
      </trkpt>
      <trkpt lat="36.9208100" lon="-2.4392180">
        <ele>114.7</ele>
        <time>2020-02-16T09:16:23Z</time>
      </trkpt>
      <trkpt lat="36.9207670" lon="-2.4392330">
        <ele>114.5</ele>
        <time>2020-02-16T09:16:24Z</time>
      </trkpt>
      <trkpt lat="36.9207370" lon="-2.4392430">
        <ele>114.5</ele>
        <time>2020-02-16T09:16:25Z</time>
      </trkpt>
      <trkpt lat="36.9207120" lon="-2.4392550">
        <ele>114.5</ele>
        <time>2020-02-16T09:16:26Z</time>
      </trkpt>
      <trkpt lat="36.9206770" lon="-2.4392670">
        <ele>114.3</ele>
        <time>2020-02-16T09:16:27Z</time>
      </trkpt>
      <trkpt lat="36.9206450" lon="-2.4392790">
        <ele>114.3</ele>
        <time>2020-02-16T09:16:28Z</time>
      </trkpt>
      <trkpt lat="36.9206170" lon="-2.4392880">
        <ele>114.3</ele>
        <time>2020-02-16T09:16:29Z</time>
      </trkpt>
      <trkpt lat="36.9205830" lon="-2.4392980">
        <ele>114.2</ele>
        <time>2020-02-16T09:16:30Z</time>
      </trkpt>
      <trkpt lat="36.9205570" lon="-2.4393060">
        <ele>114.2</ele>
        <time>2020-02-16T09:16:31Z</time>
      </trkpt>
      <trkpt lat="36.9205330" lon="-2.4393130">
        <ele>114.1</ele>
        <time>2020-02-16T09:16:32Z</time>
      </trkpt>
      <trkpt lat="36.9205150" lon="-2.4393190">
        <ele>114.1</ele>
        <time>2020-02-16T09:16:33Z</time>
      </trkpt>
      <trkpt lat="36.9204870" lon="-2.4393280">
        <ele>114.0</ele>
        <time>2020-02-16T09:16:34Z</time>
      </trkpt>
      <trkpt lat="36.9204730" lon="-2.4393340">
        <ele>114.0</ele>
        <time>2020-02-16T09:16:35Z</time>
      </trkpt>
      <trkpt lat="36.9204520" lon="-2.4393440">
        <ele>114.0</ele>
        <time>2020-02-16T09:16:36Z</time>
      </trkpt>
      <trkpt lat="36.9204270" lon="-2.4393570">
        <ele>113.8</ele>
        <time>2020-02-16T09:16:37Z</time>
      </trkpt>
      <trkpt lat="36.9204070" lon="-2.4393680">
        <ele>113.8</ele>
        <time>2020-02-16T09:16:38Z</time>
      </trkpt>
      <trkpt lat="36.9203770" lon="-2.4393860">
        <ele>113.7</ele>
        <time>2020-02-16T09:16:39Z</time>
      </trkpt>
      <trkpt lat="36.9203520" lon="-2.4394050">
        <ele>113.4</ele>
        <time>2020-02-16T09:16:40Z</time>
      </trkpt>
      <trkpt lat="36.9203300" lon="-2.4394200">
        <ele>113.4</ele>
        <time>2020-02-16T09:16:41Z</time>
      </trkpt>
      <trkpt lat="36.9202950" lon="-2.4394410">
        <ele>113.1</ele>
        <time>2020-02-16T09:16:42Z</time>
      </trkpt>
      <trkpt lat="36.9202670" lon="-2.4394610">
        <ele>113.0</ele>
        <time>2020-02-16T09:16:43Z</time>
      </trkpt>
      <trkpt lat="36.9202370" lon="-2.4394810">
        <ele>112.6</ele>
        <time>2020-02-16T09:16:44Z</time>
      </trkpt>
      <trkpt lat="36.9202070" lon="-2.4395010">
        <ele>112.5</ele>
        <time>2020-02-16T09:16:45Z</time>
      </trkpt>
      <trkpt lat="36.9201730" lon="-2.4395230">
        <ele>112.0</ele>
        <time>2020-02-16T09:16:46Z</time>
      </trkpt>
      <trkpt lat="36.9201480" lon="-2.4395440">
        <ele>111.9</ele>
        <time>2020-02-16T09:16:47Z</time>
      </trkpt>
      <trkpt lat="36.9201080" lon="-2.4395690">
        <ele>111.5</ele>
        <time>2020-02-16T09:16:48Z</time>
      </trkpt>
      <trkpt lat="36.9200780" lon="-2.4395900">
        <ele>111.4</ele>
        <time>2020-02-16T09:16:49Z</time>
      </trkpt>
      <trkpt lat="36.9200530" lon="-2.4396090">
        <ele>111.0</ele>
        <time>2020-02-16T09:16:50Z</time>
      </trkpt>
      <trkpt lat="36.9200200" lon="-2.4396290">
        <ele>110.9</ele>
        <time>2020-02-16T09:16:51Z</time>
      </trkpt>
      <trkpt lat="36.9199870" lon="-2.4396490">
        <ele>110.8</ele>
        <time>2020-02-16T09:16:52Z</time>
      </trkpt>
      <trkpt lat="36.9199530" lon="-2.4396690">
        <ele>110.3</ele>
        <time>2020-02-16T09:16:53Z</time>
      </trkpt>
      <trkpt lat="36.9199250" lon="-2.4396870">
        <ele>110.2</ele>
        <time>2020-02-16T09:16:54Z</time>
      </trkpt>
      <trkpt lat="36.9198950" lon="-2.4397020">
        <ele>109.8</ele>
        <time>2020-02-16T09:16:55Z</time>
      </trkpt>
      <trkpt lat="36.9198680" lon="-2.4397160">
        <ele>109.7</ele>
        <time>2020-02-16T09:16:56Z</time>
      </trkpt>
      <trkpt lat="36.9198330" lon="-2.4397320">
        <ele>109.7</ele>
        <time>2020-02-16T09:16:57Z</time>
      </trkpt>
      <trkpt lat="36.9198030" lon="-2.4397460">
        <ele>109.4</ele>
        <time>2020-02-16T09:16:58Z</time>
      </trkpt>
      <trkpt lat="36.9197820" lon="-2.4397580">
        <ele>109.4</ele>
        <time>2020-02-16T09:16:59Z</time>
      </trkpt>
      <trkpt lat="36.9197500" lon="-2.4397720">
        <ele>109.3</ele>
        <time>2020-02-16T09:17:00Z</time>
      </trkpt>
      <trkpt lat="36.9197280" lon="-2.4397820">
        <ele>109.1</ele>
        <time>2020-02-16T09:17:01Z</time>
      </trkpt>
      <trkpt lat="36.9197030" lon="-2.4397940">
        <ele>109.1</ele>
        <time>2020-02-16T09:17:02Z</time>
      </trkpt>
      <trkpt lat="36.9196770" lon="-2.4398060">
        <ele>109.1</ele>
        <time>2020-02-16T09:17:03Z</time>
      </trkpt>
      <trkpt lat="36.9196480" lon="-2.4398180">
        <ele>109.1</ele>
        <time>2020-02-16T09:17:04Z</time>
      </trkpt>
      <trkpt lat="36.9196170" lon="-2.4398340">
        <ele>108.8</ele>
        <time>2020-02-16T09:17:05Z</time>
      </trkpt>
      <trkpt lat="36.9195870" lon="-2.4398460">
        <ele>108.8</ele>
        <time>2020-02-16T09:17:06Z</time>
      </trkpt>
      <trkpt lat="36.9195570" lon="-2.4398580">
        <ele>108.8</ele>
        <time>2020-02-16T09:17:07Z</time>
      </trkpt>
      <trkpt lat="36.9195320" lon="-2.4398710">
        <ele>108.6</ele>
        <time>2020-02-16T09:17:08Z</time>
      </trkpt>
      <trkpt lat="36.9194970" lon="-2.4398850">
        <ele>108.6</ele>
        <time>2020-02-16T09:17:09Z</time>
      </trkpt>
      <trkpt lat="36.9194720" lon="-2.4398970">
        <ele>108.6</ele>
        <time>2020-02-16T09:17:10Z</time>
      </trkpt>
      <trkpt lat="36.9194430" lon="-2.4399120">
        <ele>108.4</ele>
        <time>2020-02-16T09:17:11Z</time>
      </trkpt>
      <trkpt lat="36.9194230" lon="-2.4399190">
        <ele>108.4</ele>
        <time>2020-02-16T09:17:12Z</time>
      </trkpt>
      <trkpt lat="36.9194030" lon="-2.4399290">
        <ele>108.4</ele>
        <time>2020-02-16T09:17:13Z</time>
      </trkpt>
      <trkpt lat="36.9193800" lon="-2.4399410">
        <ele>108.4</ele>
        <time>2020-02-16T09:17:14Z</time>
      </trkpt>
      <trkpt lat="36.9193500" lon="-2.4399560">
        <ele>108.2</ele>
        <time>2020-02-16T09:17:15Z</time>
      </trkpt>
      <trkpt lat="36.9193300" lon="-2.4399670">
        <ele>108.2</ele>
        <time>2020-02-16T09:17:16Z</time>
      </trkpt>
      <trkpt lat="36.9193130" lon="-2.4399770">
        <ele>108.2</ele>
        <time>2020-02-16T09:17:17Z</time>
      </trkpt>
      <trkpt lat="36.9192870" lon="-2.4399940">
        <ele>108.2</ele>
        <time>2020-02-16T09:17:18Z</time>
      </trkpt>
      <trkpt lat="36.9192600" lon="-2.4400120">
        <ele>108.0</ele>
        <time>2020-02-16T09:17:19Z</time>
      </trkpt>
      <trkpt lat="36.9192350" lon="-2.4400300">
        <ele>108.0</ele>
        <time>2020-02-16T09:17:20Z</time>
      </trkpt>
      <trkpt lat="36.9192170" lon="-2.4400440">
        <ele>107.9</ele>
        <time>2020-02-16T09:17:21Z</time>
      </trkpt>
      <trkpt lat="36.9191980" lon="-2.4400580">
        <ele>107.9</ele>
        <time>2020-02-16T09:17:22Z</time>
      </trkpt>
      <trkpt lat="36.9191830" lon="-2.4400710">
        <ele>107.9</ele>
        <time>2020-02-16T09:17:23Z</time>
      </trkpt>
      <trkpt lat="36.9191580" lon="-2.4400920">
        <ele>107.8</ele>
        <time>2020-02-16T09:17:24Z</time>
      </trkpt>
      <trkpt lat="36.9191370" lon="-2.4401110">
        <ele>107.8</ele>
        <time>2020-02-16T09:17:25Z</time>
      </trkpt>
      <trkpt lat="36.9191180" lon="-2.4401280">
        <ele>107.7</ele>
        <time>2020-02-16T09:17:26Z</time>
      </trkpt>
      <trkpt lat="36.9191050" lon="-2.4401450">
        <ele>107.7</ele>
        <time>2020-02-16T09:17:27Z</time>
      </trkpt>
      <trkpt lat="36.9190910" lon="-2.4402370">
        <ele>107.5</ele>
        <time>2020-02-16T09:17:28Z</time>
      </trkpt>
      <trkpt lat="36.9190770" lon="-2.4403280">
        <ele>107.3</ele>
        <time>2020-02-16T09:17:29Z</time>
      </trkpt>
      <trkpt lat="36.9190620" lon="-2.4403540">
        <ele>107.2</ele>
        <time>2020-02-16T09:17:30Z</time>
      </trkpt>
      <trkpt lat="36.9190440" lon="-2.4403840">
        <ele>107.1</ele>
        <time>2020-02-16T09:17:31Z</time>
      </trkpt>
      <trkpt lat="36.9190300" lon="-2.4404090">
        <ele>107.1</ele>
        <time>2020-02-16T09:17:32Z</time>
      </trkpt>
      <trkpt lat="36.9190070" lon="-2.4404490">
        <ele>107.1</ele>
        <time>2020-02-16T09:17:33Z</time>
      </trkpt>
      <trkpt lat="36.9189860" lon="-2.4404880">
        <ele>107.0</ele>
        <time>2020-02-16T09:17:34Z</time>
      </trkpt>
      <trkpt lat="36.9189730" lon="-2.4405160">
        <ele>106.9</ele>
        <time>2020-02-16T09:17:35Z</time>
      </trkpt>
      <trkpt lat="36.9189540" lon="-2.4405540">
        <ele>106.8</ele>
        <time>2020-02-16T09:17:36Z</time>
      </trkpt>
      <trkpt lat="36.9189380" lon="-2.4405930">
        <ele>106.8</ele>
        <time>2020-02-16T09:17:37Z</time>
      </trkpt>
      <trkpt lat="36.9189290" lon="-2.4406230">
        <ele>106.7</ele>
        <time>2020-02-16T09:17:38Z</time>
      </trkpt>
      <trkpt lat="36.9189160" lon="-2.4406560">
        <ele>106.6</ele>
        <time>2020-02-16T09:17:39Z</time>
      </trkpt>
      <trkpt lat="36.9189010" lon="-2.4406980">
        <ele>106.5</ele>
        <time>2020-02-16T09:17:40Z</time>
      </trkpt>
      <trkpt lat="36.9188930" lon="-2.4407230">
        <ele>106.5</ele>
        <time>2020-02-16T09:17:41Z</time>
      </trkpt>
      <trkpt lat="36.9188830" lon="-2.4407510">
        <ele>106.5</ele>
        <time>2020-02-16T09:17:42Z</time>
      </trkpt>
      <trkpt lat="36.9188700" lon="-2.4407810">
        <ele>106.4</ele>
        <time>2020-02-16T09:17:43Z</time>
      </trkpt>
      <trkpt lat="36.9188560" lon="-2.4408110">
        <ele>106.3</ele>
        <time>2020-02-16T09:17:44Z</time>
      </trkpt>
      <trkpt lat="36.9188270" lon="-2.4408340">
        <ele>106.3</ele>
        <time>2020-02-16T09:17:45Z</time>
      </trkpt>
      <trkpt lat="36.9188050" lon="-2.4408670">
        <ele>106.2</ele>
        <time>2020-02-16T09:17:46Z</time>
      </trkpt>
      <trkpt lat="36.9187970" lon="-2.4408930">
        <ele>106.2</ele>
        <time>2020-02-16T09:17:47Z</time>
      </trkpt>
      <trkpt lat="36.9187900" lon="-2.4409210">
        <ele>106.1</ele>
        <time>2020-02-16T09:17:48Z</time>
      </trkpt>
      <trkpt lat="36.9187770" lon="-2.4409590">
        <ele>106.0</ele>
        <time>2020-02-16T09:17:49Z</time>
      </trkpt>
      <trkpt lat="36.9187630" lon="-2.4409940">
        <ele>105.9</ele>
        <time>2020-02-16T09:17:50Z</time>
      </trkpt>
      <trkpt lat="36.9187500" lon="-2.4410290">
        <ele>105.8</ele>
        <time>2020-02-16T09:17:51Z</time>
      </trkpt>
      <trkpt lat="36.9187350" lon="-2.4410640">
        <ele>105.8</ele>
        <time>2020-02-16T09:17:52Z</time>
      </trkpt>
      <trkpt lat="36.9187240" lon="-2.4410940">
        <ele>105.8</ele>
        <time>2020-02-16T09:17:53Z</time>
      </trkpt>
      <trkpt lat="36.9187140" lon="-2.4411260">
        <ele>105.7</ele>
        <time>2020-02-16T09:17:54Z</time>
      </trkpt>
      <trkpt lat="36.9187030" lon="-2.4411610">
        <ele>105.6</ele>
        <time>2020-02-16T09:17:55Z</time>
      </trkpt>
      <trkpt lat="36.9186940" lon="-2.4411970">
        <ele>105.5</ele>
        <time>2020-02-16T09:17:56Z</time>
      </trkpt>
      <trkpt lat="36.9186840" lon="-2.4412320">
        <ele>105.5</ele>
        <time>2020-02-16T09:17:57Z</time>
      </trkpt>
      <trkpt lat="36.9186750" lon="-2.4412710">
        <ele>105.4</ele>
        <time>2020-02-16T09:17:58Z</time>
      </trkpt>
      <trkpt lat="36.9186670" lon="-2.4413070">
        <ele>105.3</ele>
        <time>2020-02-16T09:17:59Z</time>
      </trkpt>
      <trkpt lat="36.9186580" lon="-2.4413460">
        <ele>105.2</ele>
        <time>2020-02-16T09:18:00Z</time>
      </trkpt>
      <trkpt lat="36.9186520" lon="-2.4413810">
        <ele>105.2</ele>
        <time>2020-02-16T09:18:01Z</time>
      </trkpt>
      <trkpt lat="36.9186430" lon="-2.4414110">
        <ele>105.2</ele>
        <time>2020-02-16T09:18:02Z</time>
      </trkpt>
      <trkpt lat="36.9186350" lon="-2.4414440">
        <ele>105.1</ele>
        <time>2020-02-16T09:18:03Z</time>
      </trkpt>
      <trkpt lat="36.9186280" lon="-2.4414720">
        <ele>105.0</ele>
        <time>2020-02-16T09:18:04Z</time>
      </trkpt>
      <trkpt lat="36.9186170" lon="-2.4415020">
        <ele>104.9</ele>
        <time>2020-02-16T09:18:05Z</time>
      </trkpt>
      <trkpt lat="36.9186040" lon="-2.4415390">
        <ele>104.9</ele>
        <time>2020-02-16T09:18:06Z</time>
      </trkpt>
      <trkpt lat="36.9185930" lon="-2.4415720">
        <ele>104.8</ele>
        <time>2020-02-16T09:18:07Z</time>
      </trkpt>
      <trkpt lat="36.9185810" lon="-2.4416060">
        <ele>104.8</ele>
        <time>2020-02-16T09:18:08Z</time>
      </trkpt>
      <trkpt lat="36.9185690" lon="-2.4416370">
        <ele>104.7</ele>
        <time>2020-02-16T09:18:09Z</time>
      </trkpt>
      <trkpt lat="36.9185540" lon="-2.4416720">
        <ele>104.6</ele>
        <time>2020-02-16T09:18:10Z</time>
      </trkpt>
      <trkpt lat="36.9185400" lon="-2.4417060">
        <ele>104.6</ele>
        <time>2020-02-16T09:18:11Z</time>
      </trkpt>
      <trkpt lat="36.9185230" lon="-2.4417440">
        <ele>104.5</ele>
        <time>2020-02-16T09:18:12Z</time>
      </trkpt>
      <trkpt lat="36.9185060" lon="-2.4417760">
        <ele>104.5</ele>
        <time>2020-02-16T09:18:13Z</time>
      </trkpt>
      <trkpt lat="36.9184920" lon="-2.4418020">
        <ele>104.4</ele>
        <time>2020-02-16T09:18:14Z</time>
      </trkpt>
      <trkpt lat="36.9184770" lon="-2.4418310">
        <ele>104.4</ele>
        <time>2020-02-16T09:18:15Z</time>
      </trkpt>
      <trkpt lat="36.9184630" lon="-2.4418590">
        <ele>104.2</ele>
        <time>2020-02-16T09:18:16Z</time>
      </trkpt>
      <trkpt lat="36.9184480" lon="-2.4418910">
        <ele>104.2</ele>
        <time>2020-02-16T09:18:17Z</time>
      </trkpt>
      <trkpt lat="36.9184330" lon="-2.4419190">
        <ele>104.1</ele>
        <time>2020-02-16T09:18:18Z</time>
      </trkpt>
      <trkpt lat="36.9184150" lon="-2.4419590">
        <ele>104.1</ele>
        <time>2020-02-16T09:18:19Z</time>
      </trkpt>
      <trkpt lat="36.9184050" lon="-2.4419840">
        <ele>104.1</ele>
        <time>2020-02-16T09:18:20Z</time>
      </trkpt>
      <trkpt lat="36.9183950" lon="-2.4420040">
        <ele>103.9</ele>
        <time>2020-02-16T09:18:21Z</time>
      </trkpt>
      <trkpt lat="36.9183860" lon="-2.4420190">
        <ele>103.9</ele>
        <time>2020-02-16T09:18:22Z</time>
      </trkpt>
    </trkseg>
  </trk>
</gpx>
